<?xml version="1.0" encoding="UTF-8"?>
<TrainingCenterDatabase xmlns="http://www.garmin.com/xmlschemas/TrainingCenterDatabase/v2" xmlns:xsi="http://www.w3.org/2001/XMLSchema-instance" xsi:schemaLocation="http://www.garmin.com/xmlschemas/TrainingCenterDatabase/v2 http://www.garmin.com/xmlschemas/TrainingCenterDatabasev2.xsd">
  <Activities>
    <Activity Sport="Other">
      <Id>2022-08-20T10:47:11.000Z</Id>
      <Lap StartTime="2022-08-20T10:47:11.000Z">
        <TotalTimeSeconds>47191</TotalTimeSeconds>
        <DistanceMeters>31300</DistanceMeters>
        <Track>
          <Trackpoint>
            <Time>2022-08-20T10:47:11.000Z</Time>
            <Position>
              <LatitudeDegrees>42.77222651056945323944091796875</LatitudeDegrees>
              <LongitudeDegrees>-0.33459023572504520416259765625</LongitudeDegrees>
            </Position>
            <AltitudeMeters>1293.4000244140625</AltitudeMeters>
            <DistanceMeters>0</DistanceMeters>
          </Trackpoint>
          <Trackpoint>
            <Time>2022-08-20T10:47:12.000Z</Time>
            <Position>
              <LatitudeDegrees>42.772213183343410491943359375</LatitudeDegrees>
              <LongitudeDegrees>-0.3345685265958309173583984375</LongitudeDegrees>
            </Position>
            <AltitudeMeters>1293</AltitudeMeters>
            <DistanceMeters>2.3120997501883</DistanceMeters>
          </Trackpoint>
          <Trackpoint>
            <Time>2022-08-20T10:47:14.000Z</Time>
            <Position>
              <LatitudeDegrees>42.7722106687724590301513671875</LatitudeDegrees>
              <LongitudeDegrees>-0.334545560181140899658203125</LongitudeDegrees>
            </Position>
            <AltitudeMeters>1293</AltitudeMeters>
            <DistanceMeters>4.2102568830774</DistanceMeters>
          </Trackpoint>
          <Trackpoint>
            <Time>2022-08-20T10:47:19.000Z</Time>
            <Position>
              <LatitudeDegrees>42.77219248004257678985595703125</LatitudeDegrees>
              <LongitudeDegrees>-0.33446769230067729949951171875</LongitudeDegrees>
            </Position>
            <AltitudeMeters>1292.4000244140625</AltitudeMeters>
            <DistanceMeters>10.88651761251</DistanceMeters>
          </Trackpoint>
          <Trackpoint>
            <Time>2022-08-20T10:47:20.000Z</Time>
            <Position>
              <LatitudeDegrees>42.77218728326261043548583984375</LatitudeDegrees>
              <LongitudeDegrees>-0.33445260487496852874755859375</LongitudeDegrees>
            </Position>
            <AltitudeMeters>1292.199951171875</AltitudeMeters>
            <DistanceMeters>12.250407544819</DistanceMeters>
          </Trackpoint>
          <Trackpoint>
            <Time>2022-08-20T10:47:26.000Z</Time>
            <Position>
              <LatitudeDegrees>42.77216456830501556396484375</LatitudeDegrees>
              <LongitudeDegrees>-0.3343757428228855133056640625</LongitudeDegrees>
            </Position>
            <AltitudeMeters>1291.5999755859375</AltitudeMeters>
            <DistanceMeters>19.019351914263</DistanceMeters>
          </Trackpoint>
          <Trackpoint>
            <Time>2022-08-20T10:47:31.000Z</Time>
            <Position>
              <LatitudeDegrees>42.77212894521653652191162109375</LatitudeDegrees>
              <LongitudeDegrees>-0.3342957794666290283203125</LongitudeDegrees>
            </Position>
            <AltitudeMeters>1290.5999755859375</AltitudeMeters>
            <DistanceMeters>26.661768707366</DistanceMeters>
          </Trackpoint>
          <Trackpoint>
            <Time>2022-08-20T10:47:41.000Z</Time>
            <Position>
              <LatitudeDegrees>42.7720651589334011077880859375</LatitudeDegrees>
              <LongitudeDegrees>-0.33412101678550243377685546875</LongitudeDegrees>
            </Position>
            <AltitudeMeters>1289.5999755859375</AltitudeMeters>
            <DistanceMeters>42.607862981057</DistanceMeters>
          </Trackpoint>
          <Trackpoint>
            <Time>2022-08-20T10:47:47.000Z</Time>
            <Position>
              <LatitudeDegrees>42.7720195613801479339599609375</LatitudeDegrees>
              <LongitudeDegrees>-0.3340146504342555999755859375</LongitudeDegrees>
            </Position>
            <AltitudeMeters>1289</AltitudeMeters>
            <DistanceMeters>52.670828609664</DistanceMeters>
          </Trackpoint>
          <Trackpoint>
            <Time>2022-08-20T10:48:02.000Z</Time>
            <Position>
              <LatitudeDegrees>42.77191939763724803924560546875</LatitudeDegrees>
              <LongitudeDegrees>-0.333786495029926300048828125</LongitudeDegrees>
            </Position>
            <AltitudeMeters>1288</AltitudeMeters>
            <DistanceMeters>74.391033805251</DistanceMeters>
          </Trackpoint>
          <Trackpoint>
            <Time>2022-08-20T10:48:19.000Z</Time>
            <Position>
              <LatitudeDegrees>42.77188302017748355865478515625</LatitudeDegrees>
              <LongitudeDegrees>-0.33353277482092380523681640625</LongitudeDegrees>
            </Position>
            <AltitudeMeters>1287</AltitudeMeters>
            <DistanceMeters>95.512631676566</DistanceMeters>
          </Trackpoint>
          <Trackpoint>
            <Time>2022-08-20T10:48:33.000Z</Time>
            <Position>
              <LatitudeDegrees>42.77182585559785366058349609375</LatitudeDegrees>
              <LongitudeDegrees>-0.33328819088637828826904296875</LongitudeDegrees>
            </Position>
            <AltitudeMeters>1285.199951171875</AltitudeMeters>
            <DistanceMeters>116.48449147201</DistanceMeters>
          </Trackpoint>
          <Trackpoint>
            <Time>2022-08-20T10:48:50.000Z</Time>
            <Position>
              <LatitudeDegrees>42.771780006587505340576171875</LatitudeDegrees>
              <LongitudeDegrees>-0.333040840923786163330078125</LongitudeDegrees>
            </Position>
            <AltitudeMeters>1285.199951171875</AltitudeMeters>
            <DistanceMeters>137.32807652525</DistanceMeters>
          </Trackpoint>
          <Trackpoint>
            <Time>2022-08-20T10:48:59.000Z</Time>
            <Position>
              <LatitudeDegrees>42.77174589224159717559814453125</LatitudeDegrees>
              <LongitudeDegrees>-0.3329156152904033660888671875</LongitudeDegrees>
            </Position>
            <AltitudeMeters>1285.4000244140625</AltitudeMeters>
            <DistanceMeters>148.24085106443</DistanceMeters>
          </Trackpoint>
          <Trackpoint>
            <Time>2022-08-20T10:49:03.000Z</Time>
            <Position>
              <LatitudeDegrees>42.771716974675655364990234375</LatitudeDegrees>
              <LongitudeDegrees>-0.33286440186202526092529296875</LongitudeDegrees>
            </Position>
            <AltitudeMeters>1285</AltitudeMeters>
            <DistanceMeters>153.51975397186</DistanceMeters>
          </Trackpoint>
          <Trackpoint>
            <Time>2022-08-20T10:49:19.000Z</Time>
            <Position>
              <LatitudeDegrees>42.77170180343091487884521484375</LatitudeDegrees>
              <LongitudeDegrees>-0.3325954265892505645751953125</LongitudeDegrees>
            </Position>
            <AltitudeMeters>1285</AltitudeMeters>
            <DistanceMeters>175.56062628972</DistanceMeters>
          </Trackpoint>
          <Trackpoint>
            <Time>2022-08-20T10:49:24.000Z</Time>
            <Position>
              <LatitudeDegrees>42.771676070988178253173828125</LatitudeDegrees>
              <LongitudeDegrees>-0.332511775195598602294921875</LongitudeDegrees>
            </Position>
            <AltitudeMeters>1284.199951171875</AltitudeMeters>
            <DistanceMeters>182.97149161923</DistanceMeters>
          </Trackpoint>
          <Trackpoint>
            <Time>2022-08-20T10:49:30.000Z</Time>
            <Position>
              <LatitudeDegrees>42.771641872823238372802734375</LatitudeDegrees>
              <LongitudeDegrees>-0.33243156038224697113037109375</LongitudeDegrees>
            </Position>
            <AltitudeMeters>1283.4000244140625</AltitudeMeters>
            <DistanceMeters>190.55043061226</DistanceMeters>
          </Trackpoint>
          <Trackpoint>
            <Time>2022-08-20T10:49:37.000Z</Time>
            <Position>
              <LatitudeDegrees>42.77162142097949981689453125</LatitudeDegrees>
              <LongitudeDegrees>-0.33233315683901309967041015625</LongitudeDegrees>
            </Position>
            <AltitudeMeters>1282.4000244140625</AltitudeMeters>
            <DistanceMeters>198.90629987073</DistanceMeters>
          </Trackpoint>
          <Trackpoint>
            <Time>2022-08-20T10:49:51.000Z</Time>
            <Position>
              <LatitudeDegrees>42.77159736491739749908447265625</LatitudeDegrees>
              <LongitudeDegrees>-0.332074575126171112060546875</LongitudeDegrees>
            </Position>
            <AltitudeMeters>1280.4000244140625</AltitudeMeters>
            <DistanceMeters>220.20225087661</DistanceMeters>
          </Trackpoint>
          <Trackpoint>
            <Time>2022-08-20T10:50:01.000Z</Time>
            <Position>
              <LatitudeDegrees>42.77161194942891597747802734375</LatitudeDegrees>
              <LongitudeDegrees>-0.33189855515956878662109375</LongitudeDegrees>
            </Position>
            <AltitudeMeters>1279.5999755859375</AltitudeMeters>
            <DistanceMeters>234.67504097369</DistanceMeters>
          </Trackpoint>
          <Trackpoint>
            <Time>2022-08-20T10:50:17.000Z</Time>
            <Position>
              <LatitudeDegrees>42.7717372588813304901123046875</LatitudeDegrees>
              <LongitudeDegrees>-0.3317049331963062286376953125</LongitudeDegrees>
            </Position>
            <AltitudeMeters>1278.5999755859375</AltitudeMeters>
            <DistanceMeters>255.76497803675</DistanceMeters>
          </Trackpoint>
          <Trackpoint>
            <Time>2022-08-20T10:50:21.000Z</Time>
            <Position>
              <LatitudeDegrees>42.77178327552974224090576171875</LatitudeDegrees>
              <LongitudeDegrees>-0.3316640295088291168212890625</LongitudeDegrees>
            </Position>
            <AltitudeMeters>1279</AltitudeMeters>
            <DistanceMeters>261.88074263579</DistanceMeters>
          </Trackpoint>
          <Trackpoint>
            <Time>2022-08-20T10:50:22.000Z</Time>
            <Position>
              <LatitudeDegrees>42.7717935852706432342529296875</LatitudeDegrees>
              <LongitudeDegrees>-0.33165422268211841583251953125</LongitudeDegrees>
            </Position>
            <AltitudeMeters>1279</AltitudeMeters>
            <DistanceMeters>263.28057354999</DistanceMeters>
          </Trackpoint>
          <Trackpoint>
            <Time>2022-08-20T10:50:25.000Z</Time>
            <Position>
              <LatitudeDegrees>42.77182417921721935272216796875</LatitudeDegrees>
              <LongitudeDegrees>-0.33162170089781284332275390625</LongitudeDegrees>
            </Position>
            <AltitudeMeters>1279.199951171875</AltitudeMeters>
            <DistanceMeters>267.59984871293</DistanceMeters>
          </Trackpoint>
          <Trackpoint>
            <Time>2022-08-20T10:50:27.000Z</Time>
            <Position>
              <LatitudeDegrees>42.77184295468032360076904296875</LatitudeDegrees>
              <LongitudeDegrees>-0.3315973095595836639404296875</LongitudeDegrees>
            </Position>
            <AltitudeMeters>1279.199951171875</AltitudeMeters>
            <DistanceMeters>270.48528290579</DistanceMeters>
          </Trackpoint>
          <Trackpoint>
            <Time>2022-08-20T10:50:29.000Z</Time>
            <Position>
              <LatitudeDegrees>42.771865837275981903076171875</LatitudeDegrees>
              <LongitudeDegrees>-0.3315741755068302154541015625</LongitudeDegrees>
            </Position>
            <AltitudeMeters>1279.4000244140625</AltitudeMeters>
            <DistanceMeters>273.65695520263</DistanceMeters>
          </Trackpoint>
          <Trackpoint>
            <Time>2022-08-20T10:50:31.000Z</Time>
            <Position>
              <LatitudeDegrees>42.77188721112906932830810546875</LatitudeDegrees>
              <LongitudeDegrees>-0.33155162818729877471923828125</LongitudeDegrees>
            </Position>
            <AltitudeMeters>1279.5999755859375</AltitudeMeters>
            <DistanceMeters>276.6649672699</DistanceMeters>
          </Trackpoint>
          <Trackpoint>
            <Time>2022-08-20T10:50:41.000Z</Time>
            <Position>
              <LatitudeDegrees>42.7719813399016857147216796875</LatitudeDegrees>
              <LongitudeDegrees>-0.3314461000263690948486328125</LongitudeDegrees>
            </Position>
            <AltitudeMeters>1280.199951171875</AltitudeMeters>
            <DistanceMeters>290.23350435167</DistanceMeters>
          </Trackpoint>
          <Trackpoint>
            <Time>2022-08-20T10:50:48.000Z</Time>
            <Position>
              <LatitudeDegrees>42.7720054797828197479248046875</LatitudeDegrees>
              <LongitudeDegrees>-0.33142246305942535400390625</LongitudeDegrees>
            </Position>
            <AltitudeMeters>1280.4000244140625</AltitudeMeters>
            <DistanceMeters>293.54310896953</DistanceMeters>
          </Trackpoint>
          <Trackpoint>
            <Time>2022-08-20T10:50:54.000Z</Time>
            <Position>
              <LatitudeDegrees>42.7720084972679615020751953125</LatitudeDegrees>
              <LongitudeDegrees>-0.33136940561234951019287109375</LongitudeDegrees>
            </Position>
            <AltitudeMeters>1280</AltitudeMeters>
            <DistanceMeters>297.89051624251</DistanceMeters>
          </Trackpoint>
          <Trackpoint>
            <Time>2022-08-20T10:50:57.000Z</Time>
            <Position>
              <LatitudeDegrees>42.77200556360185146331787109375</LatitudeDegrees>
              <LongitudeDegrees>-0.33132364042103290557861328125</LongitudeDegrees>
            </Position>
            <AltitudeMeters>1279.800048828125</AltitudeMeters>
            <DistanceMeters>301.64136402664</DistanceMeters>
          </Trackpoint>
          <Trackpoint>
            <Time>2022-08-20T10:51:12.000Z</Time>
            <Position>
              <LatitudeDegrees>42.772082425653934478759765625</LatitudeDegrees>
              <LongitudeDegrees>-0.331083834171295166015625</LongitudeDegrees>
            </Position>
            <AltitudeMeters>1280.5999755859375</AltitudeMeters>
            <DistanceMeters>323.02026295084</DistanceMeters>
          </Trackpoint>
          <Trackpoint>
            <Time>2022-08-20T10:51:31.000Z</Time>
            <Position>
              <LatitudeDegrees>42.772188372910022735595703125</LatitudeDegrees>
              <LongitudeDegrees>-0.330868922173976898193359375</LongitudeDegrees>
            </Position>
            <AltitudeMeters>1281.4000244140625</AltitudeMeters>
            <DistanceMeters>344.17133968907</DistanceMeters>
          </Trackpoint>
          <Trackpoint>
            <Time>2022-08-20T10:51:48.000Z</Time>
            <Position>
              <LatitudeDegrees>42.7723156102001667022705078125</LatitudeDegrees>
              <LongitudeDegrees>-0.3306893818080425262451171875</LongitudeDegrees>
            </Position>
            <AltitudeMeters>1282.5999755859375</AltitudeMeters>
            <DistanceMeters>364.56093726734</DistanceMeters>
          </Trackpoint>
          <Trackpoint>
            <Time>2022-08-20T10:51:52.000Z</Time>
            <Position>
              <LatitudeDegrees>42.77235475368797779083251953125</LatitudeDegrees>
              <LongitudeDegrees>-0.3306575305759906768798828125</LongitudeDegrees>
            </Position>
            <AltitudeMeters>1282.800048828125</AltitudeMeters>
            <DistanceMeters>369.63575529542</DistanceMeters>
          </Trackpoint>
          <Trackpoint>
            <Time>2022-08-20T10:52:05.000Z</Time>
            <Position>
              <LatitudeDegrees>42.77243237011134624481201171875</LatitudeDegrees>
              <LongitudeDegrees>-0.33042342402040958404541015625</LongitudeDegrees>
            </Position>
            <AltitudeMeters>1281.800048828125</AltitudeMeters>
            <DistanceMeters>390.62311026892</DistanceMeters>
          </Trackpoint>
          <Trackpoint>
            <Time>2022-08-20T10:52:20.000Z</Time>
            <Position>
              <LatitudeDegrees>42.7725885249674320220947265625</LatitudeDegrees>
              <LongitudeDegrees>-0.33027824945747852325439453125</LongitudeDegrees>
            </Position>
            <AltitudeMeters>1281.800048828125</AltitudeMeters>
            <DistanceMeters>411.66482308237</DistanceMeters>
          </Trackpoint>
          <Trackpoint>
            <Time>2022-08-20T10:52:26.000Z</Time>
            <Position>
              <LatitudeDegrees>42.7726619504392147064208984375</LatitudeDegrees>
              <LongitudeDegrees>-0.3302324004471302032470703125</LongitudeDegrees>
            </Position>
            <AltitudeMeters>1282</AltitudeMeters>
            <DistanceMeters>420.65477214638</DistanceMeters>
          </Trackpoint>
          <Trackpoint>
            <Time>2022-08-20T10:52:43.000Z</Time>
            <Position>
              <LatitudeDegrees>42.77284878306090831756591796875</LatitudeDegrees>
              <LongitudeDegrees>-0.33017716370522975921630859375</LongitudeDegrees>
            </Position>
            <AltitudeMeters>1283.4000244140625</AltitudeMeters>
            <DistanceMeters>441.93354309428</DistanceMeters>
          </Trackpoint>
          <Trackpoint>
            <Time>2022-08-20T10:52:58.000Z</Time>
            <Position>
              <LatitudeDegrees>42.77302932925522327423095703125</LatitudeDegrees>
              <LongitudeDegrees>-0.330084376037120819091796875</LongitudeDegrees>
            </Position>
            <AltitudeMeters>1283.5999755859375</AltitudeMeters>
            <DistanceMeters>463.41084192143</DistanceMeters>
          </Trackpoint>
          <Trackpoint>
            <Time>2022-08-20T10:53:15.000Z</Time>
            <Position>
              <LatitudeDegrees>42.77319478802382946014404296875</LatitudeDegrees>
              <LongitudeDegrees>-0.32998270355165004730224609375</LongitudeDegrees>
            </Position>
            <AltitudeMeters>1283.4000244140625</AltitudeMeters>
            <DistanceMeters>483.61357503332</DistanceMeters>
          </Trackpoint>
          <Trackpoint>
            <Time>2022-08-20T10:53:33.000Z</Time>
            <Position>
              <LatitudeDegrees>42.7733546309173107147216796875</LatitudeDegrees>
              <LongitudeDegrees>-0.32986183650791645050048828125</LongitudeDegrees>
            </Position>
            <AltitudeMeters>1282.800048828125</AltitudeMeters>
            <DistanceMeters>503.96127772812</DistanceMeters>
          </Trackpoint>
          <Trackpoint>
            <Time>2022-08-20T10:53:53.000Z</Time>
            <Position>
              <LatitudeDegrees>42.77352419681847095489501953125</LatitudeDegrees>
              <LongitudeDegrees>-0.32977080903947353363037109375</LongitudeDegrees>
            </Position>
            <AltitudeMeters>1283.199951171875</AltitudeMeters>
            <DistanceMeters>524.2467548867</DistanceMeters>
          </Trackpoint>
          <Trackpoint>
            <Time>2022-08-20T10:54:07.000Z</Time>
            <Position>
              <LatitudeDegrees>42.77367238886654376983642578125</LatitudeDegrees>
              <LongitudeDegrees>-0.32963284291326999664306640625</LongitudeDegrees>
            </Position>
            <AltitudeMeters>1283.5999755859375</AltitudeMeters>
            <DistanceMeters>544.22452549981</DistanceMeters>
          </Trackpoint>
          <Trackpoint>
            <Time>2022-08-20T10:54:27.000Z</Time>
            <Position>
              <LatitudeDegrees>42.77374967001378536224365234375</LatitudeDegrees>
              <LongitudeDegrees>-0.32940485514700412750244140625</LongitudeDegrees>
            </Position>
            <AltitudeMeters>1283</AltitudeMeters>
            <DistanceMeters>564.7414951472</DistanceMeters>
          </Trackpoint>
          <Trackpoint>
            <Time>2022-08-20T10:54:36.000Z</Time>
            <Position>
              <LatitudeDegrees>42.77373190037906169891357421875</LatitudeDegrees>
              <LongitudeDegrees>-0.32926068641245365142822265625</LongitudeDegrees>
            </Position>
            <AltitudeMeters>1281.800048828125</AltitudeMeters>
            <DistanceMeters>576.68541191104</DistanceMeters>
          </Trackpoint>
          <Trackpoint>
            <Time>2022-08-20T10:54:39.000Z</Time>
            <Position>
              <LatitudeDegrees>42.77374573051929473876953125</LatitudeDegrees>
              <LongitudeDegrees>-0.32922447659075260162353515625</LongitudeDegrees>
            </Position>
            <AltitudeMeters>1281.800048828125</AltitudeMeters>
            <DistanceMeters>580.02083604883</DistanceMeters>
          </Trackpoint>
          <Trackpoint>
            <Time>2022-08-20T10:54:43.000Z</Time>
            <Position>
              <LatitudeDegrees>42.77376710437238216400146484375</LatitudeDegrees>
              <LongitudeDegrees>-0.3291746042668819427490234375</LongitudeDegrees>
            </Position>
            <AltitudeMeters>1281.800048828125</AltitudeMeters>
            <DistanceMeters>584.73783810076</DistanceMeters>
          </Trackpoint>
          <Trackpoint>
            <Time>2022-08-20T10:54:59.000Z</Time>
            <Position>
              <LatitudeDegrees>42.7738977782428264617919921875</LatitudeDegrees>
              <LongitudeDegrees>-0.3289995901286602020263671875</LongitudeDegrees>
            </Position>
            <AltitudeMeters>1281.5999755859375</AltitudeMeters>
            <DistanceMeters>605.13363500954</DistanceMeters>
          </Trackpoint>
          <Trackpoint>
            <Time>2022-08-20T10:55:10.000Z</Time>
            <Position>
              <LatitudeDegrees>42.774000205099582672119140625</LatitudeDegrees>
              <LongitudeDegrees>-0.32889322377741336822509765625</LongitudeDegrees>
            </Position>
            <AltitudeMeters>1281.5999755859375</AltitudeMeters>
            <DistanceMeters>619.46818730398</DistanceMeters>
          </Trackpoint>
          <Trackpoint>
            <Time>2022-08-20T10:55:27.000Z</Time>
            <Position>
              <LatitudeDegrees>42.7741351537406444549560546875</LatitudeDegrees>
              <LongitudeDegrees>-0.328729189932346343994140625</LongitudeDegrees>
            </Position>
            <AltitudeMeters>1280.800048828125</AltitudeMeters>
            <DistanceMeters>639.59770767069</DistanceMeters>
          </Trackpoint>
          <Trackpoint>
            <Time>2022-08-20T10:55:42.000Z</Time>
            <Position>
              <LatitudeDegrees>42.774212770164012908935546875</LatitudeDegrees>
              <LongitudeDegrees>-0.3285566903650760650634765625</LongitudeDegrees>
            </Position>
            <AltitudeMeters>1280.199951171875</AltitudeMeters>
            <DistanceMeters>656.12798634935</DistanceMeters>
          </Trackpoint>
          <Trackpoint>
            <Time>2022-08-20T10:55:46.000Z</Time>
            <Position>
              <LatitudeDegrees>42.774235904216766357421875</LatitudeDegrees>
              <LongitudeDegrees>-0.3285151161253452301025390625</LongitudeDegrees>
            </Position>
            <AltitudeMeters>1280</AltitudeMeters>
            <DistanceMeters>660.39044031452</DistanceMeters>
          </Trackpoint>
          <Trackpoint>
            <Time>2022-08-20T10:55:51.000Z</Time>
            <Position>
              <LatitudeDegrees>42.7742816694080829620361328125</LatitudeDegrees>
              <LongitudeDegrees>-0.32846004702150821685791015625</LongitudeDegrees>
            </Position>
            <AltitudeMeters>1280</AltitudeMeters>
            <DistanceMeters>667.18601320681</DistanceMeters>
          </Trackpoint>
          <Trackpoint>
            <Time>2022-08-20T10:56:06.000Z</Time>
            <Position>
              <LatitudeDegrees>42.774445116519927978515625</LatitudeDegrees>
              <LongitudeDegrees>-0.3283183090388774871826171875</LongitudeDegrees>
            </Position>
            <AltitudeMeters>1280</AltitudeMeters>
            <DistanceMeters>688.75058778437</DistanceMeters>
          </Trackpoint>
          <Trackpoint>
            <Time>2022-08-20T10:56:22.000Z</Time>
            <Position>
              <LatitudeDegrees>42.77462482452392578125</LatitudeDegrees>
              <LongitudeDegrees>-0.3282375074923038482666015625</LongitudeDegrees>
            </Position>
            <AltitudeMeters>1281.199951171875</AltitudeMeters>
            <DistanceMeters>709.81353287028</DistanceMeters>
          </Trackpoint>
          <Trackpoint>
            <Time>2022-08-20T10:56:29.000Z</Time>
            <Position>
              <LatitudeDegrees>42.77469732798635959625244140625</LatitudeDegrees>
              <LongitudeDegrees>-0.3281670995056629180908203125</LongitudeDegrees>
            </Position>
            <AltitudeMeters>1281.5999755859375</AltitudeMeters>
            <DistanceMeters>719.72277357033</DistanceMeters>
          </Trackpoint>
          <Trackpoint>
            <Time>2022-08-20T10:56:34.000Z</Time>
            <Position>
              <LatitudeDegrees>42.77476589195430278778076171875</LatitudeDegrees>
              <LongitudeDegrees>-0.32814639620482921600341796875</LongitudeDegrees>
            </Position>
            <AltitudeMeters>1282.5999755859375</AltitudeMeters>
            <DistanceMeters>727.5386847228</DistanceMeters>
          </Trackpoint>
          <Trackpoint>
            <Time>2022-08-20T10:56:50.000Z</Time>
            <Position>
              <LatitudeDegrees>42.7749418281018733978271484375</LatitudeDegrees>
              <LongitudeDegrees>-0.32807431183755397796630859375</LongitudeDegrees>
            </Position>
            <AltitudeMeters>1283.5999755859375</AltitudeMeters>
            <DistanceMeters>747.9873208586</DistanceMeters>
          </Trackpoint>
          <Trackpoint>
            <Time>2022-08-20T10:56:59.000Z</Time>
            <Position>
              <LatitudeDegrees>42.77507476508617401123046875</LatitudeDegrees>
              <LongitudeDegrees>-0.3280588053166866302490234375</LongitudeDegrees>
            </Position>
            <AltitudeMeters>1284.800048828125</AltitudeMeters>
            <DistanceMeters>762.8376584613</DistanceMeters>
          </Trackpoint>
          <Trackpoint>
            <Time>2022-08-20T10:57:13.000Z</Time>
            <Position>
              <LatitudeDegrees>42.77525623328983783721923828125</LatitudeDegrees>
              <LongitudeDegrees>-0.328004322946071624755859375</LongitudeDegrees>
            </Position>
            <AltitudeMeters>1286.5999755859375</AltitudeMeters>
            <DistanceMeters>783.51989047698</DistanceMeters>
          </Trackpoint>
          <Trackpoint>
            <Time>2022-08-20T10:57:28.000Z</Time>
            <Position>
              <LatitudeDegrees>42.7754423953592777252197265625</LatitudeDegrees>
              <LongitudeDegrees>-0.32792645506560802459716796875</LongitudeDegrees>
            </Position>
            <AltitudeMeters>1287.199951171875</AltitudeMeters>
            <DistanceMeters>805.19473204673</DistanceMeters>
          </Trackpoint>
          <Trackpoint>
            <Time>2022-08-20T10:57:40.000Z</Time>
            <Position>
              <LatitudeDegrees>42.77562319301068782806396484375</LatitudeDegrees>
              <LongitudeDegrees>-0.327902399003505706787109375</LongitudeDegrees>
            </Position>
            <AltitudeMeters>1287.4000244140625</AltitudeMeters>
            <DistanceMeters>825.41354978404</DistanceMeters>
          </Trackpoint>
          <Trackpoint>
            <Time>2022-08-20T10:57:51.000Z</Time>
            <Position>
              <LatitudeDegrees>42.7757635898888111114501953125</LatitudeDegrees>
              <LongitudeDegrees>-0.32785051502287387847900390625</LongitudeDegrees>
            </Position>
            <AltitudeMeters>1286.199951171875</AltitudeMeters>
            <DistanceMeters>841.60494192064</DistanceMeters>
          </Trackpoint>
          <Trackpoint>
            <Time>2022-08-20T10:58:05.000Z</Time>
            <Position>
              <LatitudeDegrees>42.7759458124637603759765625</LatitudeDegrees>
              <LongitudeDegrees>-0.3277734853327274322509765625</LongitudeDegrees>
            </Position>
            <AltitudeMeters>1284.5999755859375</AltitudeMeters>
            <DistanceMeters>862.84059560813</DistanceMeters>
          </Trackpoint>
          <Trackpoint>
            <Time>2022-08-20T10:58:20.000Z</Time>
            <Position>
              <LatitudeDegrees>42.77612443082034587860107421875</LatitudeDegrees>
              <LongitudeDegrees>-0.327673070132732391357421875</LongitudeDegrees>
            </Position>
            <AltitudeMeters>1284</AltitudeMeters>
            <DistanceMeters>884.34730562181</DistanceMeters>
          </Trackpoint>
          <Trackpoint>
            <Time>2022-08-20T10:58:34.000Z</Time>
            <Position>
              <LatitudeDegrees>42.77629843913018703460693359375</LatitudeDegrees>
              <LongitudeDegrees>-0.3275853954255580902099609375</LongitudeDegrees>
            </Position>
            <AltitudeMeters>1283.5999755859375</AltitudeMeters>
            <DistanceMeters>904.99676589766</DistanceMeters>
          </Trackpoint>
          <Trackpoint>
            <Time>2022-08-20T10:58:50.000Z</Time>
            <Position>
              <LatitudeDegrees>42.7764820866286754608154296875</LatitudeDegrees>
              <LongitudeDegrees>-0.3275522030889987945556640625</LongitudeDegrees>
            </Position>
            <AltitudeMeters>1284.5999755859375</AltitudeMeters>
            <DistanceMeters>925.61581119705</DistanceMeters>
          </Trackpoint>
          <Trackpoint>
            <Time>2022-08-20T10:59:06.000Z</Time>
            <Position>
              <LatitudeDegrees>42.77666397392749786376953125</LatitudeDegrees>
              <LongitudeDegrees>-0.32755631022155284881591796875</LongitudeDegrees>
            </Position>
            <AltitudeMeters>1286.800048828125</AltitudeMeters>
            <DistanceMeters>945.86252328198</DistanceMeters>
          </Trackpoint>
          <Trackpoint>
            <Time>2022-08-20T10:59:08.000Z</Time>
            <Position>
              <LatitudeDegrees>42.77668350376188755035400390625</LatitudeDegrees>
              <LongitudeDegrees>-0.32755882479250431060791015625</LongitudeDegrees>
            </Position>
            <AltitudeMeters>1287.199951171875</AltitudeMeters>
            <DistanceMeters>948.04607093715</DistanceMeters>
          </Trackpoint>
          <Trackpoint>
            <Time>2022-08-20T10:59:09.000Z</Time>
            <Position>
              <LatitudeDegrees>42.77669440023601055145263671875</LatitudeDegrees>
              <LongitudeDegrees>-0.3275619260966777801513671875</LongitudeDegrees>
            </Position>
            <AltitudeMeters>1287.4000244140625</AltitudeMeters>
            <DistanceMeters>949.28506770691</DistanceMeters>
          </Trackpoint>
          <Trackpoint>
            <Time>2022-08-20T10:59:10.000Z</Time>
            <Position>
              <LatitudeDegrees>42.7767050452530384063720703125</LatitudeDegrees>
              <LongitudeDegrees>-0.32756268046796321868896484375</LongitudeDegrees>
            </Position>
            <AltitudeMeters>1287.5999755859375</AltitudeMeters>
            <DistanceMeters>950.47195098898</DistanceMeters>
          </Trackpoint>
          <Trackpoint>
            <Time>2022-08-20T10:59:16.000Z</Time>
            <Position>
              <LatitudeDegrees>42.77677402831614017486572265625</LatitudeDegrees>
              <LongitudeDegrees>-0.3275763429701328277587890625</LongitudeDegrees>
            </Position>
            <AltitudeMeters>1289.199951171875</AltitudeMeters>
            <DistanceMeters>958.23046177233</DistanceMeters>
          </Trackpoint>
          <Trackpoint>
            <Time>2022-08-20T10:59:31.000Z</Time>
            <Position>
              <LatitudeDegrees>42.7769531495869159698486328125</LatitudeDegrees>
              <LongitudeDegrees>-0.32761967740952968597412109375</LongitudeDegrees>
            </Position>
            <AltitudeMeters>1292.199951171875</AltitudeMeters>
            <DistanceMeters>978.47895778714</DistanceMeters>
          </Trackpoint>
          <Trackpoint>
            <Time>2022-08-20T10:59:47.000Z</Time>
            <Position>
              <LatitudeDegrees>42.77713880874216556549072265625</LatitudeDegrees>
              <LongitudeDegrees>-0.32760291360318660736083984375</LongitudeDegrees>
            </Position>
            <AltitudeMeters>1293.5999755859375</AltitudeMeters>
            <DistanceMeters>999.18867798763</DistanceMeters>
          </Trackpoint>
          <Trackpoint>
            <Time>2022-08-20T11:00:02.000Z</Time>
            <Position>
              <LatitudeDegrees>42.777320444583892822265625</LatitudeDegrees>
              <LongitudeDegrees>-0.32756745815277099609375</LongitudeDegrees>
            </Position>
            <AltitudeMeters>1293.4000244140625</AltitudeMeters>
            <DistanceMeters>1019.6114643027</DistanceMeters>
          </Trackpoint>
          <Trackpoint>
            <Time>2022-08-20T11:00:03.000Z</Time>
            <Position>
              <LatitudeDegrees>42.7773326821625232696533203125</LatitudeDegrees>
              <LongitudeDegrees>-0.3275619260966777801513671875</LongitudeDegrees>
            </Position>
            <AltitudeMeters>1293.4000244140625</AltitudeMeters>
            <DistanceMeters>1021.0463362235</DistanceMeters>
          </Trackpoint>
          <Trackpoint>
            <Time>2022-08-20T11:00:04.000Z</Time>
            <Position>
              <LatitudeDegrees>42.7773459255695343017578125</LatitudeDegrees>
              <LongitudeDegrees>-0.3275545500218868255615234375</LongitudeDegrees>
            </Position>
            <AltitudeMeters>1293.199951171875</AltitudeMeters>
            <DistanceMeters>1022.6421061183</DistanceMeters>
          </Trackpoint>
          <Trackpoint>
            <Time>2022-08-20T11:00:05.000Z</Time>
            <Position>
              <LatitudeDegrees>42.7773601748049259185791015625</LatitudeDegrees>
              <LongitudeDegrees>-0.3275495208799839019775390625</LongitudeDegrees>
            </Position>
            <AltitudeMeters>1293.199951171875</AltitudeMeters>
            <DistanceMeters>1024.2825215475</DistanceMeters>
          </Trackpoint>
          <Trackpoint>
            <Time>2022-08-20T11:00:06.000Z</Time>
            <Position>
              <LatitudeDegrees>42.77737366966903209686279296875</LatitudeDegrees>
              <LongitudeDegrees>-0.32754541374742984771728515625</LongitudeDegrees>
            </Position>
            <AltitudeMeters>1293.199951171875</AltitudeMeters>
            <DistanceMeters>1025.8265229015</DistanceMeters>
          </Trackpoint>
          <Trackpoint>
            <Time>2022-08-20T11:00:09.000Z</Time>
            <Position>
              <LatitudeDegrees>42.77741239406168460845947265625</LatitudeDegrees>
              <LongitudeDegrees>-0.32755337655544281005859375</LongitudeDegrees>
            </Position>
            <AltitudeMeters>1293.5999755859375</AltitudeMeters>
            <DistanceMeters>1030.1874105395</DistanceMeters>
          </Trackpoint>
          <Trackpoint>
            <Time>2022-08-20T11:00:23.000Z</Time>
            <Position>
              <LatitudeDegrees>42.77759914286434650421142578125</LatitudeDegrees>
              <LongitudeDegrees>-0.327589921653270721435546875</LongitudeDegrees>
            </Position>
            <AltitudeMeters>1294.5999755859375</AltitudeMeters>
            <DistanceMeters>1051.186379393</DistanceMeters>
          </Trackpoint>
          <Trackpoint>
            <Time>2022-08-20T11:00:40.000Z</Time>
            <Position>
              <LatitudeDegrees>42.77778522111475467681884765625</LatitudeDegrees>
              <LongitudeDegrees>-0.3276128880679607391357421875</LongitudeDegrees>
            </Position>
            <AltitudeMeters>1296.5999755859375</AltitudeMeters>
            <DistanceMeters>1071.9822544901</DistanceMeters>
          </Trackpoint>
          <Trackpoint>
            <Time>2022-08-20T11:00:54.000Z</Time>
            <Position>
              <LatitudeDegrees>42.77794011868536472320556640625</LatitudeDegrees>
              <LongitudeDegrees>-0.32748858444392681121826171875</LongitudeDegrees>
            </Position>
            <AltitudeMeters>1295.800048828125</AltitudeMeters>
            <DistanceMeters>1091.9911892249</DistanceMeters>
          </Trackpoint>
          <Trackpoint>
            <Time>2022-08-20T11:00:59.000Z</Time>
            <Position>
              <LatitudeDegrees>42.77798437513411045074462890625</LatitudeDegrees>
              <LongitudeDegrees>-0.327414572238922119140625</LongitudeDegrees>
            </Position>
            <AltitudeMeters>1295</AltitudeMeters>
            <DistanceMeters>1099.790329878</DistanceMeters>
          </Trackpoint>
          <Trackpoint>
            <Time>2022-08-20T11:01:13.000Z</Time>
            <Position>
              <LatitudeDegrees>42.77813910506665706634521484375</LatitudeDegrees>
              <LongitudeDegrees>-0.3272843174636363983154296875</LongitudeDegrees>
            </Position>
            <AltitudeMeters>1294.199951171875</AltitudeMeters>
            <DistanceMeters>1120.0343657733</DistanceMeters>
          </Trackpoint>
          <Trackpoint>
            <Time>2022-08-20T11:01:21.000Z</Time>
            <Position>
              <LatitudeDegrees>42.77822242118418216705322265625</LatitudeDegrees>
              <LongitudeDegrees>-0.32719655893743038177490234375</LongitudeDegrees>
            </Position>
            <AltitudeMeters>1293</AltitudeMeters>
            <DistanceMeters>1131.7562104733</DistanceMeters>
          </Trackpoint>
          <Trackpoint>
            <Time>2022-08-20T11:01:36.000Z</Time>
            <Position>
              <LatitudeDegrees>42.77837681584060192108154296875</LatitudeDegrees>
              <LongitudeDegrees>-0.327076278626918792724609375</LongitudeDegrees>
            </Position>
            <AltitudeMeters>1291</AltitudeMeters>
            <DistanceMeters>1151.5514406364</DistanceMeters>
          </Trackpoint>
          <Trackpoint>
            <Time>2022-08-20T11:01:47.000Z</Time>
            <Position>
              <LatitudeDegrees>42.778516374528408050537109375</LatitudeDegrees>
              <LongitudeDegrees>-0.32719370909035205841064453125</LongitudeDegrees>
            </Position>
            <AltitudeMeters>1292.199951171875</AltitudeMeters>
            <DistanceMeters>1169.807949655</DistanceMeters>
          </Trackpoint>
          <Trackpoint>
            <Time>2022-08-20T11:02:01.000Z</Time>
            <Position>
              <LatitudeDegrees>42.7786043845117092132568359375</LatitudeDegrees>
              <LongitudeDegrees>-0.32741264440119266510009765625</LongitudeDegrees>
            </Position>
            <AltitudeMeters>1295.4000244140625</AltitudeMeters>
            <DistanceMeters>1190.2004257283</DistanceMeters>
          </Trackpoint>
          <Trackpoint>
            <Time>2022-08-20T11:02:06.000Z</Time>
            <Position>
              <LatitudeDegrees>42.77860991656780242919921875</LatitudeDegrees>
              <LongitudeDegrees>-0.32750115729868412017822265625</LongitudeDegrees>
            </Position>
            <AltitudeMeters>1296.5999755859375</AltitudeMeters>
            <DistanceMeters>1197.4573814137</DistanceMeters>
          </Trackpoint>
          <Trackpoint>
            <Time>2022-08-20T11:02:09.000Z</Time>
            <Position>
              <LatitudeDegrees>42.7786120958626270294189453125</LatitudeDegrees>
              <LongitudeDegrees>-0.32756150700151920318603515625</LongitudeDegrees>
            </Position>
            <AltitudeMeters>1297</AltitudeMeters>
            <DistanceMeters>1202.3932852059</DistanceMeters>
          </Trackpoint>
          <Trackpoint>
            <Time>2022-08-20T11:02:11.000Z</Time>
            <Position>
              <LatitudeDegrees>42.7786120958626270294189453125</LatitudeDegrees>
              <LongitudeDegrees>-0.3275941126048564910888671875</LongitudeDegrees>
            </Position>
            <AltitudeMeters>1297.199951171875</AltitudeMeters>
            <DistanceMeters>1205.0540332083</DistanceMeters>
          </Trackpoint>
          <Trackpoint>
            <Time>2022-08-20T11:02:27.000Z</Time>
            <Position>
              <LatitudeDegrees>42.77865995652973651885986328125</LatitudeDegrees>
              <LongitudeDegrees>-0.32783157192170619964599609375</LongitudeDegrees>
            </Position>
            <AltitudeMeters>1299</AltitudeMeters>
            <DistanceMeters>1225.1709888903</DistanceMeters>
          </Trackpoint>
          <Trackpoint>
            <Time>2022-08-20T11:02:41.000Z</Time>
            <Position>
              <LatitudeDegrees>42.7787250839173793792724609375</LatitudeDegrees>
              <LongitudeDegrees>-0.32806274481117725372314453125</LongitudeDegrees>
            </Position>
            <AltitudeMeters>1299.800048828125</AltitudeMeters>
            <DistanceMeters>1245.3994066233</DistanceMeters>
          </Trackpoint>
          <Trackpoint>
            <Time>2022-08-20T11:02:49.000Z</Time>
            <Position>
              <LatitudeDegrees>42.77877814136445522308349609375</LatitudeDegrees>
              <LongitudeDegrees>-0.32817699015140533447265625</LongitudeDegrees>
            </Position>
            <AltitudeMeters>1300</AltitudeMeters>
            <DistanceMeters>1256.4437840438</DistanceMeters>
          </Trackpoint>
          <Trackpoint>
            <Time>2022-08-20T11:02:54.000Z</Time>
            <Position>
              <LatitudeDegrees>42.77882910333573818206787109375</LatitudeDegrees>
              <LongitudeDegrees>-0.32821982167661190032958984375</LongitudeDegrees>
            </Position>
            <AltitudeMeters>1299.199951171875</AltitudeMeters>
            <DistanceMeters>1263.1078605703</DistanceMeters>
          </Trackpoint>
          <Trackpoint>
            <Time>2022-08-20T11:02:56.000Z</Time>
            <Position>
              <LatitudeDegrees>42.7788521535694599151611328125</LatitudeDegrees>
              <LongitudeDegrees>-0.3282365016639232635498046875</LongitudeDegrees>
            </Position>
            <AltitudeMeters>1298.800048828125</AltitudeMeters>
            <DistanceMeters>1266.0135655579</DistanceMeters>
          </Trackpoint>
          <Trackpoint>
            <Time>2022-08-20T11:02:58.000Z</Time>
            <Position>
              <LatitudeDegrees>42.77887738309800624847412109375</LatitudeDegrees>
              <LongitudeDegrees>-0.32825410366058349609375</LongitudeDegrees>
            </Position>
            <AltitudeMeters>1298.4000244140625</AltitudeMeters>
            <DistanceMeters>1269.1681089863</DistanceMeters>
          </Trackpoint>
          <Trackpoint>
            <Time>2022-08-20T11:03:04.000Z</Time>
            <Position>
              <LatitudeDegrees>42.77894628234207630157470703125</LatitudeDegrees>
              <LongitudeDegrees>-0.32831755466759204864501953125</LongitudeDegrees>
            </Position>
            <AltitudeMeters>1297.800048828125</AltitudeMeters>
            <DistanceMeters>1278.424315839</DistanceMeters>
          </Trackpoint>
          <Trackpoint>
            <Time>2022-08-20T11:03:12.000Z</Time>
            <Position>
              <LatitudeDegrees>42.77903026901185512542724609375</LatitudeDegrees>
              <LongitudeDegrees>-0.328401289880275726318359375</LongitudeDegrees>
            </Position>
            <AltitudeMeters>1298.800048828125</AltitudeMeters>
            <DistanceMeters>1290.0078345566</DistanceMeters>
          </Trackpoint>
          <Trackpoint>
            <Time>2022-08-20T11:03:19.000Z</Time>
            <Position>
              <LatitudeDegrees>42.779128253459930419921875</LatitudeDegrees>
              <LongitudeDegrees>-0.32845518551766872406005859375</LongitudeDegrees>
            </Position>
            <AltitudeMeters>1299.800048828125</AltitudeMeters>
            <DistanceMeters>1301.7689021513</DistanceMeters>
          </Trackpoint>
          <Trackpoint>
            <Time>2022-08-20T11:03:29.000Z</Time>
            <Position>
              <LatitudeDegrees>42.7792494557797908782958984375</LatitudeDegrees>
              <LongitudeDegrees>-0.328535735607147216796875</LongitudeDegrees>
            </Position>
            <AltitudeMeters>1302.4000244140625</AltitudeMeters>
            <DistanceMeters>1316.7783107714</DistanceMeters>
          </Trackpoint>
          <Trackpoint>
            <Time>2022-08-20T11:03:30.000Z</Time>
            <Position>
              <LatitudeDegrees>42.77926077134907245635986328125</LatitudeDegrees>
              <LongitudeDegrees>-0.328542776405811309814453125</LongitudeDegrees>
            </Position>
            <AltitudeMeters>1302.5999755859375</AltitudeMeters>
            <DistanceMeters>1318.1619206174</DistanceMeters>
          </Trackpoint>
          <Trackpoint>
            <Time>2022-08-20T11:03:31.000Z</Time>
            <Position>
              <LatitudeDegrees>42.77927384711802005767822265625</LatitudeDegrees>
              <LongitudeDegrees>-0.3285489790141582489013671875</LongitudeDegrees>
            </Position>
            <AltitudeMeters>1302.5999755859375</AltitudeMeters>
            <DistanceMeters>1319.702994952</DistanceMeters>
          </Trackpoint>
          <Trackpoint>
            <Time>2022-08-20T11:03:35.000Z</Time>
            <Position>
              <LatitudeDegrees>42.77931408025324344635009765625</LatitudeDegrees>
              <LongitudeDegrees>-0.32858359627425670623779296875</LongitudeDegrees>
            </Position>
            <AltitudeMeters>1303.199951171875</AltitudeMeters>
            <DistanceMeters>1324.9998286771</DistanceMeters>
          </Trackpoint>
          <Trackpoint>
            <Time>2022-08-20T11:03:36.000Z</Time>
            <Position>
              <LatitudeDegrees>42.7793215401470661163330078125</LatitudeDegrees>
              <LongitudeDegrees>-0.328594408929347991943359375</LongitudeDegrees>
            </Position>
            <AltitudeMeters>1303.4000244140625</AltitudeMeters>
            <DistanceMeters>1326.2093212914</DistanceMeters>
          </Trackpoint>
          <Trackpoint>
            <Time>2022-08-20T11:03:41.000Z</Time>
            <Position>
              <LatitudeDegrees>42.77935531921684741973876953125</LatitudeDegrees>
              <LongitudeDegrees>-0.32865735702216625213623046875</LongitudeDegrees>
            </Position>
            <AltitudeMeters>1305.199951171875</AltitudeMeters>
            <DistanceMeters>1332.5796559403</DistanceMeters>
          </Trackpoint>
          <Trackpoint>
            <Time>2022-08-20T11:03:47.000Z</Time>
            <Position>
              <LatitudeDegrees>42.779399491846561431884765625</LatitudeDegrees>
              <LongitudeDegrees>-0.32872189767658710479736328125</LongitudeDegrees>
            </Position>
            <AltitudeMeters>1306.800048828125</AltitudeMeters>
            <DistanceMeters>1339.7891718749</DistanceMeters>
          </Trackpoint>
          <Trackpoint>
            <Time>2022-08-20T11:03:51.000Z</Time>
            <Position>
              <LatitudeDegrees>42.7794201113283634185791015625</LatitudeDegrees>
              <LongitudeDegrees>-0.3287543356418609619140625</LongitudeDegrees>
            </Position>
            <AltitudeMeters>1307.199951171875</AltitudeMeters>
            <DistanceMeters>1343.294872096</DistanceMeters>
          </Trackpoint>
          <Trackpoint>
            <Time>2022-08-20T11:03:56.000Z</Time>
            <Position>
              <LatitudeDegrees>42.7794486097991466522216796875</LatitudeDegrees>
              <LongitudeDegrees>-0.3288218937814235687255859375</LongitudeDegrees>
            </Position>
            <AltitudeMeters>1308.5999755859375</AltitudeMeters>
            <DistanceMeters>1349.6609527647</DistanceMeters>
          </Trackpoint>
          <Trackpoint>
            <Time>2022-08-20T11:04:00.000Z</Time>
            <Position>
              <LatitudeDegrees>42.7794683910906314849853515625</LatitudeDegrees>
              <LongitudeDegrees>-0.328876040875911712646484375</LongitudeDegrees>
            </Position>
            <AltitudeMeters>1310</AltitudeMeters>
            <DistanceMeters>1354.602341912</DistanceMeters>
          </Trackpoint>
          <Trackpoint>
            <Time>2022-08-20T11:04:09.000Z</Time>
            <Position>
              <LatitudeDegrees>42.77951918542385101318359375</LatitudeDegrees>
              <LongitudeDegrees>-0.328996069729328155517578125</LongitudeDegrees>
            </Position>
            <AltitudeMeters>1312</AltitudeMeters>
            <DistanceMeters>1365.920897231</DistanceMeters>
          </Trackpoint>
          <Trackpoint>
            <Time>2022-08-20T11:04:24.000Z</Time>
            <Position>
              <LatitudeDegrees>42.7795652858912944793701171875</LatitudeDegrees>
              <LongitudeDegrees>-0.32918776385486125946044921875</LongitudeDegrees>
            </Position>
            <AltitudeMeters>1314.800048828125</AltitudeMeters>
            <DistanceMeters>1382.4002940336</DistanceMeters>
          </Trackpoint>
          <Trackpoint>
            <Time>2022-08-20T11:04:27.000Z</Time>
            <Position>
              <LatitudeDegrees>42.779569141566753387451171875</LatitudeDegrees>
              <LongitudeDegrees>-0.32922439277172088623046875</LongitudeDegrees>
            </Position>
            <AltitudeMeters>1315.199951171875</AltitudeMeters>
            <DistanceMeters>1385.4247720774</DistanceMeters>
          </Trackpoint>
          <Trackpoint>
            <Time>2022-08-20T11:04:32.000Z</Time>
            <Position>
              <LatitudeDegrees>42.77961038053035736083984375</LatitudeDegrees>
              <LongitudeDegrees>-0.3292684815824031829833984375</LongitudeDegrees>
            </Position>
            <AltitudeMeters>1314.5999755859375</AltitudeMeters>
            <DistanceMeters>1391.259443293</DistanceMeters>
          </Trackpoint>
          <Trackpoint>
            <Time>2022-08-20T11:04:49.000Z</Time>
            <Position>
              <LatitudeDegrees>42.7797007374465465545654296875</LatitudeDegrees>
              <LongitudeDegrees>-0.329484902322292327880859375</LongitudeDegrees>
            </Position>
            <AltitudeMeters>1315.800048828125</AltitudeMeters>
            <DistanceMeters>1411.5998221595</DistanceMeters>
          </Trackpoint>
          <Trackpoint>
            <Time>2022-08-20T11:04:59.000Z</Time>
            <Position>
              <LatitudeDegrees>42.77978346683084964752197265625</LatitudeDegrees>
              <LongitudeDegrees>-0.32961775548756122589111328125</LongitudeDegrees>
            </Position>
            <AltitudeMeters>1314.800048828125</AltitudeMeters>
            <DistanceMeters>1425.8329080843</DistanceMeters>
          </Trackpoint>
          <Trackpoint>
            <Time>2022-08-20T11:05:16.000Z</Time>
            <Position>
              <LatitudeDegrees>42.77987985871732234954833984375</LatitudeDegrees>
              <LongitudeDegrees>-0.32982495613396167755126953125</LongitudeDegrees>
            </Position>
            <AltitudeMeters>1318.800048828125</AltitudeMeters>
            <DistanceMeters>1445.8734090741</DistanceMeters>
          </Trackpoint>
          <Trackpoint>
            <Time>2022-08-20T11:05:30.000Z</Time>
            <Position>
              <LatitudeDegrees>42.7800093591213226318359375</LatitudeDegrees>
              <LongitudeDegrees>-0.32998488284647464752197265625</LongitudeDegrees>
            </Position>
            <AltitudeMeters>1320.5999755859375</AltitudeMeters>
            <DistanceMeters>1465.3269813345</DistanceMeters>
          </Trackpoint>
          <Trackpoint>
            <Time>2022-08-20T11:05:47.000Z</Time>
            <Position>
              <LatitudeDegrees>42.78018034994602203369140625</LatitudeDegrees>
              <LongitudeDegrees>-0.330098457634449005126953125</LongitudeDegrees>
            </Position>
            <AltitudeMeters>1323.199951171875</AltitudeMeters>
            <DistanceMeters>1486.499820421</DistanceMeters>
          </Trackpoint>
          <Trackpoint>
            <Time>2022-08-20T11:06:04.000Z</Time>
            <Position>
              <LatitudeDegrees>42.78036248870193958282470703125</LatitudeDegrees>
              <LongitudeDegrees>-0.33008211292326450347900390625</LongitudeDegrees>
            </Position>
            <AltitudeMeters>1325</AltitudeMeters>
            <DistanceMeters>1506.8159896982</DistanceMeters>
          </Trackpoint>
          <Trackpoint>
            <Time>2022-08-20T11:06:14.000Z</Time>
            <Position>
              <LatitudeDegrees>42.780465669929981231689453125</LatitudeDegrees>
              <LongitudeDegrees>-0.33004908822476863861083984375</LongitudeDegrees>
            </Position>
            <AltitudeMeters>1326.4000244140625</AltitudeMeters>
            <DistanceMeters>1518.6130884159</DistanceMeters>
          </Trackpoint>
          <Trackpoint>
            <Time>2022-08-20T11:06:15.000Z</Time>
            <Position>
              <LatitudeDegrees>42.78047271072864532470703125</LatitudeDegrees>
              <LongitudeDegrees>-0.33004623837769031524658203125</LongitudeDegrees>
            </Position>
            <AltitudeMeters>1326.5999755859375</AltitudeMeters>
            <DistanceMeters>1519.430539122</DistanceMeters>
          </Trackpoint>
          <Trackpoint>
            <Time>2022-08-20T11:06:17.000Z</Time>
            <Position>
              <LatitudeDegrees>42.7804866246879100799560546875</LatitudeDegrees>
              <LongitudeDegrees>-0.330033414065837860107421875</LongitudeDegrees>
            </Position>
            <AltitudeMeters>1326.5999755859375</AltitudeMeters>
            <DistanceMeters>1521.2999346349</DistanceMeters>
          </Trackpoint>
          <Trackpoint>
            <Time>2022-08-20T11:06:28.000Z</Time>
            <Position>
              <LatitudeDegrees>42.78058536350727081298828125</LatitudeDegrees>
              <LongitudeDegrees>-0.3299635089933872222900390625</LongitudeDegrees>
            </Position>
            <AltitudeMeters>1327.199951171875</AltitudeMeters>
            <DistanceMeters>1533.6847995303</DistanceMeters>
          </Trackpoint>
          <Trackpoint>
            <Time>2022-08-20T11:06:32.000Z</Time>
            <Position>
              <LatitudeDegrees>42.78061159886419773101806640625</LatitudeDegrees>
              <LongitudeDegrees>-0.32992176711559295654296875</LongitudeDegrees>
            </Position>
            <AltitudeMeters>1327</AltitudeMeters>
            <DistanceMeters>1538.1742461134</DistanceMeters>
          </Trackpoint>
          <Trackpoint>
            <Time>2022-08-20T11:06:35.000Z</Time>
            <Position>
              <LatitudeDegrees>42.78063456527888774871826171875</LatitudeDegrees>
              <LongitudeDegrees>-0.32988832332193851470947265625</LongitudeDegrees>
            </Position>
            <AltitudeMeters>1326.800048828125</AltitudeMeters>
            <DistanceMeters>1541.9142445642</DistanceMeters>
          </Trackpoint>
          <Trackpoint>
            <Time>2022-08-20T11:06:40.000Z</Time>
            <Position>
              <LatitudeDegrees>42.78066205792129039764404296875</LatitudeDegrees>
              <LongitudeDegrees>-0.32980551011860370635986328125</LongitudeDegrees>
            </Position>
            <AltitudeMeters>1326.199951171875</AltitudeMeters>
            <DistanceMeters>1549.3385012013</DistanceMeters>
          </Trackpoint>
          <Trackpoint>
            <Time>2022-08-20T11:06:47.000Z</Time>
            <Position>
              <LatitudeDegrees>42.78069323860108852386474609375</LatitudeDegrees>
              <LongitudeDegrees>-0.329690761864185333251953125</LongitudeDegrees>
            </Position>
            <AltitudeMeters>1325</AltitudeMeters>
            <DistanceMeters>1559.3343901489</DistanceMeters>
          </Trackpoint>
          <Trackpoint>
            <Time>2022-08-20T11:06:56.000Z</Time>
            <Position>
              <LatitudeDegrees>42.78074654750525951385498046875</LatitudeDegrees>
              <LongitudeDegrees>-0.329584814608097076416015625</LongitudeDegrees>
            </Position>
            <AltitudeMeters>1324.4000244140625</AltitudeMeters>
            <DistanceMeters>1569.8278525021</DistanceMeters>
          </Trackpoint>
          <Trackpoint>
            <Time>2022-08-20T11:07:10.000Z</Time>
            <Position>
              <LatitudeDegrees>42.78087663464248180389404296875</LatitudeDegrees>
              <LongitudeDegrees>-0.32958154566586017608642578125</LongitudeDegrees>
            </Position>
            <AltitudeMeters>1328</AltitudeMeters>
            <DistanceMeters>1584.309375051</DistanceMeters>
          </Trackpoint>
          <Trackpoint>
            <Time>2022-08-20T11:07:26.000Z</Time>
            <Position>
              <LatitudeDegrees>42.7810582704842090606689453125</LatitudeDegrees>
              <LongitudeDegrees>-0.3296537138521671295166015625</LongitudeDegrees>
            </Position>
            <AltitudeMeters>1335.199951171875</AltitudeMeters>
            <DistanceMeters>1605.3678181104</DistanceMeters>
          </Trackpoint>
          <Trackpoint>
            <Time>2022-08-20T11:07:36.000Z</Time>
            <Position>
              <LatitudeDegrees>42.7811672352254390716552734375</LatitudeDegrees>
              <LongitudeDegrees>-0.3296758420765399932861328125</LongitudeDegrees>
            </Position>
            <AltitudeMeters>1339.4000244140625</AltitudeMeters>
            <DistanceMeters>1617.6295787014</DistanceMeters>
          </Trackpoint>
          <Trackpoint>
            <Time>2022-08-20T11:07:53.000Z</Time>
            <Position>
              <LatitudeDegrees>42.7812865935266017913818359375</LatitudeDegrees>
              <LongitudeDegrees>-0.329499654471874237060546875</LongitudeDegrees>
            </Position>
            <AltitudeMeters>1338</AltitudeMeters>
            <DistanceMeters>1637.2161498063</DistanceMeters>
          </Trackpoint>
          <Trackpoint>
            <Time>2022-08-20T11:08:07.000Z</Time>
            <Position>
              <LatitudeDegrees>42.78137569315731525421142578125</LatitudeDegrees>
              <LongitudeDegrees>-0.32930888235569000244140625</LongitudeDegrees>
            </Position>
            <AltitudeMeters>1336.4000244140625</AltitudeMeters>
            <DistanceMeters>1655.6880329943</DistanceMeters>
          </Trackpoint>
          <Trackpoint>
            <Time>2022-08-20T11:08:20.000Z</Time>
            <Position>
              <LatitudeDegrees>42.781520783901214599609375</LatitudeDegrees>
              <LongitudeDegrees>-0.32921173609793186187744140625</LongitudeDegrees>
            </Position>
            <AltitudeMeters>1338.800048828125</AltitudeMeters>
            <DistanceMeters>1673.681486271</DistanceMeters>
          </Trackpoint>
          <Trackpoint>
            <Time>2022-08-20T11:08:28.000Z</Time>
            <Position>
              <LatitudeDegrees>42.78157652355730533599853515625</LatitudeDegrees>
              <LongitudeDegrees>-0.3291427530348300933837890625</LongitudeDegrees>
            </Position>
            <AltitudeMeters>1339.4000244140625</AltitudeMeters>
            <DistanceMeters>1682.0632518806</DistanceMeters>
          </Trackpoint>
          <Trackpoint>
            <Time>2022-08-20T11:08:40.000Z</Time>
            <Position>
              <LatitudeDegrees>42.78170074336230754852294921875</LatitudeDegrees>
              <LongitudeDegrees>-0.3290827386081218719482421875</LongitudeDegrees>
            </Position>
            <AltitudeMeters>1342.5999755859375</AltitudeMeters>
            <DistanceMeters>1696.7328037393</DistanceMeters>
          </Trackpoint>
          <Trackpoint>
            <Time>2022-08-20T11:08:43.000Z</Time>
            <Position>
              <LatitudeDegrees>42.78173008002340793609619140625</LatitudeDegrees>
              <LongitudeDegrees>-0.329072177410125732421875</LongitudeDegrees>
            </Position>
            <AltitudeMeters>1343.4000244140625</AltitudeMeters>
            <DistanceMeters>1700.109930706</DistanceMeters>
          </Trackpoint>
          <Trackpoint>
            <Time>2022-08-20T11:08:53.000Z</Time>
            <Position>
              <LatitudeDegrees>42.7818069420754909515380859375</LatitudeDegrees>
              <LongitudeDegrees>-0.3289687447249889373779296875</LongitudeDegrees>
            </Position>
            <AltitudeMeters>1344.4000244140625</AltitudeMeters>
            <DistanceMeters>1712.1337206188</DistanceMeters>
          </Trackpoint>
          <Trackpoint>
            <Time>2022-08-20T11:09:07.000Z</Time>
            <Position>
              <LatitudeDegrees>42.78193459846079349517822265625</LatitudeDegrees>
              <LongitudeDegrees>-0.32878174446523189544677734375</LongitudeDegrees>
            </Position>
            <AltitudeMeters>1345.4000244140625</AltitudeMeters>
            <DistanceMeters>1732.9959262655</DistanceMeters>
          </Trackpoint>
          <Trackpoint>
            <Time>2022-08-20T11:09:09.000Z</Time>
            <Position>
              <LatitudeDegrees>42.78196544386446475982666015625</LatitudeDegrees>
              <LongitudeDegrees>-0.32877403311431407928466796875</LongitudeDegrees>
            </Position>
            <AltitudeMeters>1345.5999755859375</AltitudeMeters>
            <DistanceMeters>1736.4848434394</DistanceMeters>
          </Trackpoint>
          <Trackpoint>
            <Time>2022-08-20T11:09:11.000Z</Time>
            <Position>
              <LatitudeDegrees>42.78200098313391208648681640625</LatitudeDegrees>
              <LongitudeDegrees>-0.3287704288959503173828125</LongitudeDegrees>
            </Position>
            <AltitudeMeters>1346.199951171875</AltitudeMeters>
            <DistanceMeters>1740.452137636</DistanceMeters>
          </Trackpoint>
          <Trackpoint>
            <Time>2022-08-20T11:09:21.000Z</Time>
            <Position>
              <LatitudeDegrees>42.78207122348248958587646484375</LatitudeDegrees>
              <LongitudeDegrees>-0.3288339637219905853271484375</LongitudeDegrees>
            </Position>
            <AltitudeMeters>1347.800048828125</AltitudeMeters>
            <DistanceMeters>1749.8362361798</DistanceMeters>
          </Trackpoint>
          <Trackpoint>
            <Time>2022-08-20T11:09:32.000Z</Time>
            <Position>
              <LatitudeDegrees>42.78208849020302295684814453125</LatitudeDegrees>
              <LongitudeDegrees>-0.328939072787761688232421875</LongitudeDegrees>
            </Position>
            <AltitudeMeters>1349.199951171875</AltitudeMeters>
            <DistanceMeters>1758.6348068225</DistanceMeters>
          </Trackpoint>
          <Trackpoint>
            <Time>2022-08-20T11:09:34.000Z</Time>
            <Position>
              <LatitudeDegrees>42.78209838084876537322998046875</LatitudeDegrees>
              <LongitudeDegrees>-0.3289509750902652740478515625</LongitudeDegrees>
            </Position>
            <AltitudeMeters>1349.5999755859375</AltitudeMeters>
            <DistanceMeters>1760.1069543513</DistanceMeters>
          </Trackpoint>
          <Trackpoint>
            <Time>2022-08-20T11:09:36.000Z</Time>
            <Position>
              <LatitudeDegrees>42.7821013145148754119873046875</LatitudeDegrees>
              <LongitudeDegrees>-0.32897369004786014556884765625</LongitudeDegrees>
            </Position>
            <AltitudeMeters>1349.800048828125</AltitudeMeters>
            <DistanceMeters>1761.9907855652</DistanceMeters>
          </Trackpoint>
          <Trackpoint>
            <Time>2022-08-20T11:09:43.000Z</Time>
            <Position>
              <LatitudeDegrees>42.78213744051754474639892578125</LatitudeDegrees>
              <LongitudeDegrees>-0.32903403975069522857666015625</LongitudeDegrees>
            </Position>
            <AltitudeMeters>1351.199951171875</AltitudeMeters>
            <DistanceMeters>1768.3526094092</DistanceMeters>
          </Trackpoint>
          <Trackpoint>
            <Time>2022-08-20T11:10:00.000Z</Time>
            <Position>
              <LatitudeDegrees>42.78226098977029323577880859375</LatitudeDegrees>
              <LongitudeDegrees>-0.32898877747356891632080078125</LongitudeDegrees>
            </Position>
            <AltitudeMeters>1352.800048828125</AltitudeMeters>
            <DistanceMeters>1782.5923554234</DistanceMeters>
          </Trackpoint>
          <Trackpoint>
            <Time>2022-08-20T11:10:03.000Z</Time>
            <Position>
              <LatitudeDegrees>42.78229166753590106964111328125</LatitudeDegrees>
              <LongitudeDegrees>-0.32895709387958049774169921875</LongitudeDegrees>
            </Position>
            <AltitudeMeters>1353</AltitudeMeters>
            <DistanceMeters>1786.8780497064</DistanceMeters>
          </Trackpoint>
          <Trackpoint>
            <Time>2022-08-20T11:10:04.000Z</Time>
            <Position>
              <LatitudeDegrees>42.78229988180100917816162109375</LatitudeDegrees>
              <LongitudeDegrees>-0.3289459459483623504638671875</LongitudeDegrees>
            </Position>
            <AltitudeMeters>1353.199951171875</AltitudeMeters>
            <DistanceMeters>1788.1705527594</DistanceMeters>
          </Trackpoint>
          <Trackpoint>
            <Time>2022-08-20T11:10:13.000Z</Time>
            <Position>
              <LatitudeDegrees>42.7823750674724578857421875</LatitudeDegrees>
              <LongitudeDegrees>-0.32886841334402561187744140625</LongitudeDegrees>
            </Position>
            <AltitudeMeters>1355</AltitudeMeters>
            <DistanceMeters>1798.6648756204</DistanceMeters>
          </Trackpoint>
          <Trackpoint>
            <Time>2022-08-20T11:10:16.000Z</Time>
            <Position>
              <LatitudeDegrees>42.782390825450420379638671875</LatitudeDegrees>
              <LongitudeDegrees>-0.32882180996239185333251953125</LongitudeDegrees>
            </Position>
            <AltitudeMeters>1355.199951171875</AltitudeMeters>
            <DistanceMeters>1802.8568356345</DistanceMeters>
          </Trackpoint>
          <Trackpoint>
            <Time>2022-08-20T11:10:21.000Z</Time>
            <Position>
              <LatitudeDegrees>42.78241722844541072845458984375</LatitudeDegrees>
              <LongitudeDegrees>-0.32873128540813922882080078125</LongitudeDegrees>
            </Position>
            <AltitudeMeters>1356.199951171875</AltitudeMeters>
            <DistanceMeters>1810.8141527719</DistanceMeters>
          </Trackpoint>
          <Trackpoint>
            <Time>2022-08-20T11:10:36.000Z</Time>
            <Position>
              <LatitudeDegrees>42.782483361661434173583984375</LatitudeDegrees>
              <LongitudeDegrees>-0.32850732095539569854736328125</LongitudeDegrees>
            </Position>
            <AltitudeMeters>1358.5999755859375</AltitudeMeters>
            <DistanceMeters>1830.5344284326</DistanceMeters>
          </Trackpoint>
          <Trackpoint>
            <Time>2022-08-20T11:10:40.000Z</Time>
            <Position>
              <LatitudeDegrees>42.78249853290617465972900390625</LatitudeDegrees>
              <LongitudeDegrees>-0.32847044058144092559814453125</LongitudeDegrees>
            </Position>
            <AltitudeMeters>1359.199951171875</AltitudeMeters>
            <DistanceMeters>1833.9882279321</DistanceMeters>
          </Trackpoint>
          <Trackpoint>
            <Time>2022-08-20T11:10:51.000Z</Time>
            <Position>
              <LatitudeDegrees>42.7825408615171909332275390625</LatitudeDegrees>
              <LongitudeDegrees>-0.32832124270498752593994140625</LongitudeDegrees>
            </Position>
            <AltitudeMeters>1360.5999755859375</AltitudeMeters>
            <DistanceMeters>1847.0550058594</DistanceMeters>
          </Trackpoint>
          <Trackpoint>
            <Time>2022-08-20T11:10:54.000Z</Time>
            <Position>
              <LatitudeDegrees>42.78253993950784206390380859375</LatitudeDegrees>
              <LongitudeDegrees>-0.32832593657076358795166015625</LongitudeDegrees>
            </Position>
            <AltitudeMeters>1360.5999755859375</AltitudeMeters>
            <DistanceMeters>1847.4351127169</DistanceMeters>
          </Trackpoint>
          <Trackpoint>
            <Time>2022-08-20T11:10:58.000Z</Time>
            <Position>
              <LatitudeDegrees>42.78255955316126346588134765625</LatitudeDegrees>
              <LongitudeDegrees>-0.32834739424288272857666015625</LongitudeDegrees>
            </Position>
            <AltitudeMeters>1361.4000244140625</AltitudeMeters>
            <DistanceMeters>1850.2347745453</DistanceMeters>
          </Trackpoint>
          <Trackpoint>
            <Time>2022-08-20T11:11:00.000Z</Time>
            <Position>
              <LatitudeDegrees>42.78257296420633792877197265625</LatitudeDegrees>
              <LongitudeDegrees>-0.3283680975437164306640625</LongitudeDegrees>
            </Position>
            <AltitudeMeters>1361.800048828125</AltitudeMeters>
            <DistanceMeters>1852.491533973</DistanceMeters>
          </Trackpoint>
          <Trackpoint>
            <Time>2022-08-20T11:11:06.000Z</Time>
            <Position>
              <LatitudeDegrees>42.78261034749448299407958984375</LatitudeDegrees>
              <LongitudeDegrees>-0.32838712446391582489013671875</LongitudeDegrees>
            </Position>
            <AltitudeMeters>1363.199951171875</AltitudeMeters>
            <DistanceMeters>1856.9334611482</DistanceMeters>
          </Trackpoint>
          <Trackpoint>
            <Time>2022-08-20T11:11:08.000Z</Time>
            <Position>
              <LatitudeDegrees>42.78261655010282993316650390625</LatitudeDegrees>
              <LongitudeDegrees>-0.3283774852752685546875</LongitudeDegrees>
            </Position>
            <AltitudeMeters>1363.4000244140625</AltitudeMeters>
            <DistanceMeters>1857.9744266487</DistanceMeters>
          </Trackpoint>
          <Trackpoint>
            <Time>2022-08-20T11:11:10.000Z</Time>
            <Position>
              <LatitudeDegrees>42.7826245129108428955078125</LatitudeDegrees>
              <LongitudeDegrees>-0.328355021774768829345703125</LongitudeDegrees>
            </Position>
            <AltitudeMeters>1363.5999755859375</AltitudeMeters>
            <DistanceMeters>1860.0125226141</DistanceMeters>
          </Trackpoint>
          <Trackpoint>
            <Time>2022-08-20T11:11:12.000Z</Time>
            <Position>
              <LatitudeDegrees>42.78263465501368045806884765625</LatitudeDegrees>
              <LongitudeDegrees>-0.3283276967704296112060546875</LongitudeDegrees>
            </Position>
            <AltitudeMeters>1364</AltitudeMeters>
            <DistanceMeters>1862.51589495</DistanceMeters>
          </Trackpoint>
          <Trackpoint>
            <Time>2022-08-20T11:11:16.000Z</Time>
            <Position>
              <LatitudeDegrees>42.7826484851539134979248046875</LatitudeDegrees>
              <LongitudeDegrees>-0.32828436233103275299072265625</LongitudeDegrees>
            </Position>
            <AltitudeMeters>1364.5999755859375</AltitudeMeters>
            <DistanceMeters>1866.3758983351</DistanceMeters>
          </Trackpoint>
          <Trackpoint>
            <Time>2022-08-20T11:11:19.000Z</Time>
            <Position>
              <LatitudeDegrees>42.78265393339097499847412109375</LatitudeDegrees>
              <LongitudeDegrees>-0.32824245281517505645751953125</LongitudeDegrees>
            </Position>
            <AltitudeMeters>1364.800048828125</AltitudeMeters>
            <DistanceMeters>1869.8531490247</DistanceMeters>
          </Trackpoint>
          <Trackpoint>
            <Time>2022-08-20T11:11:25.000Z</Time>
            <Position>
              <LatitudeDegrees>42.78267019428312778472900390625</LatitudeDegrees>
              <LongitudeDegrees>-0.32818310894072055816650390625</LongitudeDegrees>
            </Position>
            <AltitudeMeters>1365.199951171875</AltitudeMeters>
            <DistanceMeters>1875.026653309</DistanceMeters>
          </Trackpoint>
          <Trackpoint>
            <Time>2022-08-20T11:11:29.000Z</Time>
            <Position>
              <LatitudeDegrees>42.78269089758396148681640625</LatitudeDegrees>
              <LongitudeDegrees>-0.32818830572068691253662109375</LongitudeDegrees>
            </Position>
            <AltitudeMeters>1366</AltitudeMeters>
            <DistanceMeters>1877.3697893439</DistanceMeters>
          </Trackpoint>
          <Trackpoint>
            <Time>2022-08-20T11:11:32.000Z</Time>
            <Position>
              <LatitudeDegrees>42.78271394781768321990966796875</LatitudeDegrees>
              <LongitudeDegrees>-0.3282063268125057220458984375</LongitudeDegrees>
            </Position>
            <AltitudeMeters>1366.800048828125</AltitudeMeters>
            <DistanceMeters>1880.3293795437</DistanceMeters>
          </Trackpoint>
          <Trackpoint>
            <Time>2022-08-20T11:11:36.000Z</Time>
            <Position>
              <LatitudeDegrees>42.78275527060031890869140625</LatitudeDegrees>
              <LongitudeDegrees>-0.32821412198245525360107421875</LongitudeDegrees>
            </Position>
            <AltitudeMeters>1368.4000244140625</AltitudeMeters>
            <DistanceMeters>1884.972093456</DistanceMeters>
          </Trackpoint>
          <Trackpoint>
            <Time>2022-08-20T11:11:41.000Z</Time>
            <Position>
              <LatitudeDegrees>42.78278921730816364288330078125</LatitudeDegrees>
              <LongitudeDegrees>-0.32823055051267147064208984375</LongitudeDegrees>
            </Position>
            <AltitudeMeters>1369.5999755859375</AltitudeMeters>
            <DistanceMeters>1888.9812749273</DistanceMeters>
          </Trackpoint>
          <Trackpoint>
            <Time>2022-08-20T11:11:45.000Z</Time>
            <Position>
              <LatitudeDegrees>42.7828216552734375</LatitudeDegrees>
              <LongitudeDegrees>-0.3282080031931400299072265625</LongitudeDegrees>
            </Position>
            <AltitudeMeters>1370.800048828125</AltitudeMeters>
            <DistanceMeters>1893.03302504</DistanceMeters>
          </Trackpoint>
          <Trackpoint>
            <Time>2022-08-20T11:11:47.000Z</Time>
            <Position>
              <LatitudeDegrees>42.78283196501433849334716796875</LatitudeDegrees>
              <LongitudeDegrees>-0.32819970510900020599365234375</LongitudeDegrees>
            </Position>
            <AltitudeMeters>1371.199951171875</AltitudeMeters>
            <DistanceMeters>1894.3633990411</DistanceMeters>
          </Trackpoint>
          <Trackpoint>
            <Time>2022-08-20T11:11:50.000Z</Time>
            <Position>
              <LatitudeDegrees>42.7828348986804485321044921875</LatitudeDegrees>
              <LongitudeDegrees>-0.32817900180816650390625</LongitudeDegrees>
            </Position>
            <AltitudeMeters>1371.199951171875</AltitudeMeters>
            <DistanceMeters>1896.0870275249</DistanceMeters>
          </Trackpoint>
          <Trackpoint>
            <Time>2022-08-20T11:11:51.000Z</Time>
            <Position>
              <LatitudeDegrees>42.7828335575759410858154296875</LatitudeDegrees>
              <LongitudeDegrees>-0.32816651277244091033935546875</LongitudeDegrees>
            </Position>
            <AltitudeMeters>1371.199951171875</AltitudeMeters>
            <DistanceMeters>1897.1192818639</DistanceMeters>
          </Trackpoint>
          <Trackpoint>
            <Time>2022-08-20T11:11:54.000Z</Time>
            <Position>
              <LatitudeDegrees>42.7828375808894634246826171875</LatitudeDegrees>
              <LongitudeDegrees>-0.32813885249197483062744140625</LongitudeDegrees>
            </Position>
            <AltitudeMeters>1371.4000244140625</AltitudeMeters>
            <DistanceMeters>1899.423557227</DistanceMeters>
          </Trackpoint>
          <Trackpoint>
            <Time>2022-08-20T11:11:56.000Z</Time>
            <Position>
              <LatitudeDegrees>42.78284068219363689422607421875</LatitudeDegrees>
              <LongitudeDegrees>-0.328129716217517852783203125</LongitudeDegrees>
            </Position>
            <AltitudeMeters>1371.4000244140625</AltitudeMeters>
            <DistanceMeters>1900.2465127138</DistanceMeters>
          </Trackpoint>
          <Trackpoint>
            <Time>2022-08-20T11:11:58.000Z</Time>
            <Position>
              <LatitudeDegrees>42.78285090811550617218017578125</LatitudeDegrees>
              <LongitudeDegrees>-0.32811152748763561248779296875</LongitudeDegrees>
            </Position>
            <AltitudeMeters>1371.800048828125</AltitudeMeters>
            <DistanceMeters>1902.1231399579</DistanceMeters>
          </Trackpoint>
          <Trackpoint>
            <Time>2022-08-20T11:12:09.000Z</Time>
            <Position>
              <LatitudeDegrees>42.7828751318156719207763671875</LatitudeDegrees>
              <LongitudeDegrees>-0.327976830303668975830078125</LongitudeDegrees>
            </Position>
            <AltitudeMeters>1372.5999755859375</AltitudeMeters>
            <DistanceMeters>1913.4516635343</DistanceMeters>
          </Trackpoint>
          <Trackpoint>
            <Time>2022-08-20T11:12:15.000Z</Time>
            <Position>
              <LatitudeDegrees>42.78287731111049652099609375</LatitudeDegrees>
              <LongitudeDegrees>-0.3278718888759613037109375</LongitudeDegrees>
            </Position>
            <AltitudeMeters>1372.800048828125</AltitudeMeters>
            <DistanceMeters>1922.0283180518</DistanceMeters>
          </Trackpoint>
          <Trackpoint>
            <Time>2022-08-20T11:12:22.000Z</Time>
            <Position>
              <LatitudeDegrees>42.78288812376558780670166015625</LatitudeDegrees>
              <LongitudeDegrees>-0.32778228633105754852294921875</LongitudeDegrees>
            </Position>
            <AltitudeMeters>1373.199951171875</AltitudeMeters>
            <DistanceMeters>1929.4464907277</DistanceMeters>
          </Trackpoint>
          <Trackpoint>
            <Time>2022-08-20T11:12:32.000Z</Time>
            <Position>
              <LatitudeDegrees>42.78289516456425189971923828125</LatitudeDegrees>
              <LongitudeDegrees>-0.32766359858214855194091796875</LongitudeDegrees>
            </Position>
            <AltitudeMeters>1373</AltitudeMeters>
            <DistanceMeters>1939.1736249912</DistanceMeters>
          </Trackpoint>
          <Trackpoint>
            <Time>2022-08-20T11:12:35.000Z</Time>
            <Position>
              <LatitudeDegrees>42.7828798256814479827880859375</LatitudeDegrees>
              <LongitudeDegrees>-0.3276440687477588653564453125</LongitudeDegrees>
            </Position>
            <AltitudeMeters>1372.4000244140625</AltitudeMeters>
            <DistanceMeters>1941.5090406228</DistanceMeters>
          </Trackpoint>
          <Trackpoint>
            <Time>2022-08-20T11:12:37.000Z</Time>
            <Position>
              <LatitudeDegrees>42.78288225643336772918701171875</LatitudeDegrees>
              <LongitudeDegrees>-0.327624790370464324951171875</LongitudeDegrees>
            </Position>
            <AltitudeMeters>1372.199951171875</AltitudeMeters>
            <DistanceMeters>1943.1076373929</DistanceMeters>
          </Trackpoint>
          <Trackpoint>
            <Time>2022-08-20T11:12:39.000Z</Time>
            <Position>
              <LatitudeDegrees>42.782891727983951568603515625</LatitudeDegrees>
              <LongitudeDegrees>-0.32760056667029857635498046875</LongitudeDegrees>
            </Position>
            <AltitudeMeters>1372.4000244140625</AltitudeMeters>
            <DistanceMeters>1945.3483342718</DistanceMeters>
          </Trackpoint>
          <Trackpoint>
            <Time>2022-08-20T11:12:46.000Z</Time>
            <Position>
              <LatitudeDegrees>42.7829163707792758941650390625</LatitudeDegrees>
              <LongitudeDegrees>-0.3275280632078647613525390625</LongitudeDegrees>
            </Position>
            <AltitudeMeters>1373</AltitudeMeters>
            <DistanceMeters>1951.8755006296</DistanceMeters>
          </Trackpoint>
          <Trackpoint>
            <Time>2022-08-20T11:12:48.000Z</Time>
            <Position>
              <LatitudeDegrees>42.78292299248278141021728515625</LatitudeDegrees>
              <LongitudeDegrees>-0.3275019116699695587158203125</LongitudeDegrees>
            </Position>
            <AltitudeMeters>1373</AltitudeMeters>
            <DistanceMeters>1954.1342598445</DistanceMeters>
          </Trackpoint>
          <Trackpoint>
            <Time>2022-08-20T11:12:58.000Z</Time>
            <Position>
              <LatitudeDegrees>42.78297428973019123077392578125</LatitudeDegrees>
              <LongitudeDegrees>-0.32739914953708648681640625</LongitudeDegrees>
            </Position>
            <AltitudeMeters>1374.199951171875</AltitudeMeters>
            <DistanceMeters>1964.2865646336</DistanceMeters>
          </Trackpoint>
          <Trackpoint>
            <Time>2022-08-20T11:13:05.000Z</Time>
            <Position>
              <LatitudeDegrees>42.7829840965569019317626953125</LatitudeDegrees>
              <LongitudeDegrees>-0.32734290696680545806884765625</LongitudeDegrees>
            </Position>
            <AltitudeMeters>1374.199951171875</AltitudeMeters>
            <DistanceMeters>1969.0093062967</DistanceMeters>
          </Trackpoint>
          <Trackpoint>
            <Time>2022-08-20T11:13:08.000Z</Time>
            <Position>
              <LatitudeDegrees>42.78298233635723590850830078125</LatitudeDegrees>
              <LongitudeDegrees>-0.3273151628673076629638671875</LongitudeDegrees>
            </Position>
            <AltitudeMeters>1374.199951171875</AltitudeMeters>
            <DistanceMeters>1971.2859845522</DistanceMeters>
          </Trackpoint>
          <Trackpoint>
            <Time>2022-08-20T11:13:22.000Z</Time>
            <Position>
              <LatitudeDegrees>42.78300630860030651092529296875</LatitudeDegrees>
              <LongitudeDegrees>-0.3271297551691532135009765625</LongitudeDegrees>
            </Position>
            <AltitudeMeters>1375.800048828125</AltitudeMeters>
            <DistanceMeters>1986.6650535168</DistanceMeters>
          </Trackpoint>
          <Trackpoint>
            <Time>2022-08-20T11:13:24.000Z</Time>
            <Position>
              <LatitudeDegrees>42.783006727695465087890625</LatitudeDegrees>
              <LongitudeDegrees>-0.3271109797060489654541015625</LongitudeDegrees>
            </Position>
            <AltitudeMeters>1376</AltitudeMeters>
            <DistanceMeters>1988.2002570707</DistanceMeters>
          </Trackpoint>
          <Trackpoint>
            <Time>2022-08-20T11:13:35.000Z</Time>
            <Position>
              <LatitudeDegrees>42.78306280262768268585205078125</LatitudeDegrees>
              <LongitudeDegrees>-0.327061526477336883544921875</LongitudeDegrees>
            </Position>
            <AltitudeMeters>1378.199951171875</AltitudeMeters>
            <DistanceMeters>1995.6342376893</DistanceMeters>
          </Trackpoint>
          <Trackpoint>
            <Time>2022-08-20T11:13:55.000Z</Time>
            <Position>
              <LatitudeDegrees>42.7832368947565555572509765625</LatitudeDegrees>
              <LongitudeDegrees>-0.32698181457817554473876953125</LongitudeDegrees>
            </Position>
            <AltitudeMeters>1385.5999755859375</AltitudeMeters>
            <DistanceMeters>2016.0758070363</DistanceMeters>
          </Trackpoint>
          <Trackpoint>
            <Time>2022-08-20T11:14:05.000Z</Time>
            <Position>
              <LatitudeDegrees>42.783359102904796600341796875</LatitudeDegrees>
              <LongitudeDegrees>-0.32696974463760852813720703125</LongitudeDegrees>
            </Position>
            <AltitudeMeters>1390.800048828125</AltitudeMeters>
            <DistanceMeters>2029.7137131995</DistanceMeters>
          </Trackpoint>
          <Trackpoint>
            <Time>2022-08-20T11:14:12.000Z</Time>
            <Position>
              <LatitudeDegrees>42.78342138044536113739013671875</LatitudeDegrees>
              <LongitudeDegrees>-0.3269679844379425048828125</LongitudeDegrees>
            </Position>
            <AltitudeMeters>1393.199951171875</AltitudeMeters>
            <DistanceMeters>2036.646105776</DistanceMeters>
          </Trackpoint>
          <Trackpoint>
            <Time>2022-08-20T11:14:14.000Z</Time>
            <Position>
              <LatitudeDegrees>42.78343160636723041534423828125</LatitudeDegrees>
              <LongitudeDegrees>-0.32696907408535480499267578125</LongitudeDegrees>
            </Position>
            <AltitudeMeters>1393.5999755859375</AltitudeMeters>
            <DistanceMeters>2037.7903789446</DistanceMeters>
          </Trackpoint>
          <Trackpoint>
            <Time>2022-08-20T11:14:17.000Z</Time>
            <Position>
              <LatitudeDegrees>42.7834491245448589324951171875</LatitudeDegrees>
              <LongitudeDegrees>-0.3269845806062221527099609375</LongitudeDegrees>
            </Position>
            <AltitudeMeters>1394</AltitudeMeters>
            <DistanceMeters>2040.118048566</DistanceMeters>
          </Trackpoint>
          <Trackpoint>
            <Time>2022-08-20T11:14:27.000Z</Time>
            <Position>
              <LatitudeDegrees>42.783478461205959320068359375</LatitudeDegrees>
              <LongitudeDegrees>-0.32699723728001117706298828125</LongitudeDegrees>
            </Position>
            <AltitudeMeters>1394.5999755859375</AltitudeMeters>
            <DistanceMeters>2043.544285478</DistanceMeters>
          </Trackpoint>
          <Trackpoint>
            <Time>2022-08-20T11:14:29.000Z</Time>
            <Position>
              <LatitudeDegrees>42.78348080813884735107421875</LatitudeDegrees>
              <LongitudeDegrees>-0.32700084149837493896484375</LongitudeDegrees>
            </Position>
            <AltitudeMeters>1394.800048828125</AltitudeMeters>
            <DistanceMeters>2043.9474496827</DistanceMeters>
          </Trackpoint>
          <Trackpoint>
            <Time>2022-08-20T11:14:32.000Z</Time>
            <Position>
              <LatitudeDegrees>42.78348189778625965118408203125</LatitudeDegrees>
              <LongitudeDegrees>-0.32700142823159694671630859375</LongitudeDegrees>
            </Position>
            <AltitudeMeters>1394.800048828125</AltitudeMeters>
            <DistanceMeters>2044.0424763971</DistanceMeters>
          </Trackpoint>
          <Trackpoint>
            <Time>2022-08-20T11:14:37.000Z</Time>
            <Position>
              <LatitudeDegrees>42.7834860049188137054443359375</LatitudeDegrees>
              <LongitudeDegrees>-0.32699338160455226898193359375</LongitudeDegrees>
            </Position>
            <AltitudeMeters>1395</AltitudeMeters>
            <DistanceMeters>2044.8488048066</DistanceMeters>
          </Trackpoint>
          <Trackpoint>
            <Time>2022-08-20T11:14:50.000Z</Time>
            <Position>
              <LatitudeDegrees>42.78348474763333797454833984375</LatitudeDegrees>
              <LongitudeDegrees>-0.32702892087399959564208984375</LongitudeDegrees>
            </Position>
            <AltitudeMeters>1394.4000244140625</AltitudeMeters>
            <DistanceMeters>2047.7545097942</DistanceMeters>
          </Trackpoint>
          <Trackpoint>
            <Time>2022-08-20T11:14:55.000Z</Time>
            <Position>
              <LatitudeDegrees>42.78347619809210300445556640625</LatitudeDegrees>
              <LongitudeDegrees>-0.32704685814678668975830078125</LongitudeDegrees>
            </Position>
            <AltitudeMeters>1394</AltitudeMeters>
            <DistanceMeters>2049.5015546815</DistanceMeters>
          </Trackpoint>
          <Trackpoint>
            <Time>2022-08-20T11:14:59.000Z</Time>
            <Position>
              <LatitudeDegrees>42.78347150422632694244384765625</LatitudeDegrees>
              <LongitudeDegrees>-0.32705591060221195220947265625</LongitudeDegrees>
            </Position>
            <AltitudeMeters>1393.5999755859375</AltitudeMeters>
            <DistanceMeters>2050.4030572494</DistanceMeters>
          </Trackpoint>
          <Trackpoint>
            <Time>2022-08-20T11:15:00.000Z</Time>
            <Position>
              <LatitudeDegrees>42.783470414578914642333984375</LatitudeDegrees>
              <LongitudeDegrees>-0.327060185372829437255859375</LongitudeDegrees>
            </Position>
            <AltitudeMeters>1393.5999755859375</AltitudeMeters>
            <DistanceMeters>2050.7710941316</DistanceMeters>
          </Trackpoint>
          <Trackpoint>
            <Time>2022-08-20T11:15:05.000Z</Time>
            <Position>
              <LatitudeDegrees>42.7834806405007839202880859375</LatitudeDegrees>
              <LongitudeDegrees>-0.32705624587833881378173828125</LongitudeDegrees>
            </Position>
            <AltitudeMeters>1394</AltitudeMeters>
            <DistanceMeters>2051.9503446446</DistanceMeters>
          </Trackpoint>
          <Trackpoint>
            <Time>2022-08-20T11:15:09.000Z</Time>
            <Position>
              <LatitudeDegrees>42.78348659165203571319580078125</LatitudeDegrees>
              <LongitudeDegrees>-0.32705356366932392120361328125</LongitudeDegrees>
            </Position>
            <AltitudeMeters>1394.199951171875</AltitudeMeters>
            <DistanceMeters>2052.648645531</DistanceMeters>
          </Trackpoint>
          <Trackpoint>
            <Time>2022-08-20T11:15:25.000Z</Time>
            <Position>
              <LatitudeDegrees>42.78356336988508701324462890625</LatitudeDegrees>
              <LongitudeDegrees>-0.32706446014344692230224609375</LongitudeDegrees>
            </Position>
            <AltitudeMeters>1396.4000244140625</AltitudeMeters>
            <DistanceMeters>2061.2405530566</DistanceMeters>
          </Trackpoint>
          <Trackpoint>
            <Time>2022-08-20T11:15:30.000Z</Time>
            <Position>
              <LatitudeDegrees>42.7835872583091259002685546875</LatitudeDegrees>
              <LongitudeDegrees>-0.327106453478336334228515625</LongitudeDegrees>
            </Position>
            <AltitudeMeters>1396.199951171875</AltitudeMeters>
            <DistanceMeters>2065.5806843291</DistanceMeters>
          </Trackpoint>
          <Trackpoint>
            <Time>2022-08-20T11:15:45.000Z</Time>
            <Position>
              <LatitudeDegrees>42.78366328217089176177978515625</LatitudeDegrees>
              <LongitudeDegrees>-0.3272165916860103607177734375</LongitudeDegrees>
            </Position>
            <AltitudeMeters>1397</AltitudeMeters>
            <DistanceMeters>2077.9319640783</DistanceMeters>
          </Trackpoint>
          <Trackpoint>
            <Time>2022-08-20T11:15:46.000Z</Time>
            <Position>
              <LatitudeDegrees>42.783668898046016693115234375</LatitudeDegrees>
              <LongitudeDegrees>-0.32721214927732944488525390625</LongitudeDegrees>
            </Position>
            <AltitudeMeters>1397.199951171875</AltitudeMeters>
            <DistanceMeters>2078.655665974</DistanceMeters>
          </Trackpoint>
          <Trackpoint>
            <Time>2022-08-20T11:15:57.000Z</Time>
            <Position>
              <LatitudeDegrees>42.78370301239192485809326171875</LatitudeDegrees>
              <LongitudeDegrees>-0.3270982392132282257080078125</LongitudeDegrees>
            </Position>
            <AltitudeMeters>1399.5999755859375</AltitudeMeters>
            <DistanceMeters>2088.7051622275</DistanceMeters>
          </Trackpoint>
          <Trackpoint>
            <Time>2022-08-20T11:15:58.000Z</Time>
            <Position>
              <LatitudeDegrees>42.7836999110877513885498046875</LatitudeDegrees>
              <LongitudeDegrees>-0.32708239741623401641845703125</LongitudeDegrees>
            </Position>
            <AltitudeMeters>1400</AltitudeMeters>
            <DistanceMeters>2090.0423066235</DistanceMeters>
          </Trackpoint>
          <Trackpoint>
            <Time>2022-08-20T11:16:03.000Z</Time>
            <Position>
              <LatitudeDegrees>42.7836818061769008636474609375</LatitudeDegrees>
              <LongitudeDegrees>-0.32700955867767333984375</LongitudeDegrees>
            </Position>
            <AltitudeMeters>1400.800048828125</AltitudeMeters>
            <DistanceMeters>2096.3241402778</DistanceMeters>
          </Trackpoint>
          <Trackpoint>
            <Time>2022-08-20T11:16:11.000Z</Time>
            <Position>
              <LatitudeDegrees>42.78364199213683605194091796875</LatitudeDegrees>
              <LongitudeDegrees>-0.32694040797650814056396484375</LongitudeDegrees>
            </Position>
            <AltitudeMeters>1400.800048828125</AltitudeMeters>
            <DistanceMeters>2103.503532755</DistanceMeters>
          </Trackpoint>
          <Trackpoint>
            <Time>2022-08-20T11:16:18.000Z</Time>
            <Position>
              <LatitudeDegrees>42.78361734934151172637939453125</LatitudeDegrees>
              <LongitudeDegrees>-0.32688014209270477294921875</LongitudeDegrees>
            </Position>
            <AltitudeMeters>1400.800048828125</AltitudeMeters>
            <DistanceMeters>2109.1382242973</DistanceMeters>
          </Trackpoint>
          <Trackpoint>
            <Time>2022-08-20T11:16:19.000Z</Time>
            <Position>
              <LatitudeDegrees>42.78361315838992595672607421875</LatitudeDegrees>
              <LongitudeDegrees>-0.3268702514469623565673828125</LongitudeDegrees>
            </Position>
            <AltitudeMeters>1400.800048828125</AltitudeMeters>
            <DistanceMeters>2110.0692921459</DistanceMeters>
          </Trackpoint>
          <Trackpoint>
            <Time>2022-08-20T11:16:20.000Z</Time>
            <Position>
              <LatitudeDegrees>42.78361014090478420257568359375</LatitudeDegrees>
              <LongitudeDegrees>-0.3268611989915370941162109375</LongitudeDegrees>
            </Position>
            <AltitudeMeters>1400.5999755859375</AltitudeMeters>
            <DistanceMeters>2110.8756205554</DistanceMeters>
          </Trackpoint>
          <Trackpoint>
            <Time>2022-08-20T11:16:24.000Z</Time>
            <Position>
              <LatitudeDegrees>42.78361014090478420257568359375</LatitudeDegrees>
              <LongitudeDegrees>-0.32682909630239009857177734375</LongitudeDegrees>
            </Position>
            <AltitudeMeters>1401</AltitudeMeters>
            <DistanceMeters>2113.4987709991</DistanceMeters>
          </Trackpoint>
          <Trackpoint>
            <Time>2022-08-20T11:16:28.000Z</Time>
            <Position>
              <LatitudeDegrees>42.78362707234919071197509765625</LatitudeDegrees>
              <LongitudeDegrees>-0.32679498195648193359375</LongitudeDegrees>
            </Position>
            <AltitudeMeters>1401.5999755859375</AltitudeMeters>
            <DistanceMeters>2116.8638439345</DistanceMeters>
          </Trackpoint>
          <Trackpoint>
            <Time>2022-08-20T11:16:34.000Z</Time>
            <Position>
              <LatitudeDegrees>42.7836697362363338470458984375</LatitudeDegrees>
              <LongitudeDegrees>-0.32672767527401447296142578125</LongitudeDegrees>
            </Position>
            <AltitudeMeters>1403.5999755859375</AltitudeMeters>
            <DistanceMeters>2124.1295047366</DistanceMeters>
          </Trackpoint>
          <Trackpoint>
            <Time>2022-08-20T11:16:51.000Z</Time>
            <Position>
              <LatitudeDegrees>42.78381482698023319244384765625</LatitudeDegrees>
              <LongitudeDegrees>-0.3265634737908840179443359375</LongitudeDegrees>
            </Position>
            <AltitudeMeters>1406.5999755859375</AltitudeMeters>
            <DistanceMeters>2145.1224523803</DistanceMeters>
          </Trackpoint>
          <Trackpoint>
            <Time>2022-08-20T11:16:53.000Z</Time>
            <Position>
              <LatitudeDegrees>42.78382890857756137847900390625</LatitudeDegrees>
              <LongitudeDegrees>-0.3265554271638393402099609375</LongitudeDegrees>
            </Position>
            <AltitudeMeters>1406.800048828125</AltitudeMeters>
            <DistanceMeters>2146.82499593</DistanceMeters>
          </Trackpoint>
          <Trackpoint>
            <Time>2022-08-20T11:16:55.000Z</Time>
            <Position>
              <LatitudeDegrees>42.78383796103298664093017578125</LatitudeDegrees>
              <LongitudeDegrees>-0.32655157148838043212890625</LongitudeDegrees>
            </Position>
            <AltitudeMeters>1407</AltitudeMeters>
            <DistanceMeters>2147.8831686376</DistanceMeters>
          </Trackpoint>
          <Trackpoint>
            <Time>2022-08-20T11:16:58.000Z</Time>
            <Position>
              <LatitudeDegrees>42.78384868986904621124267578125</LatitudeDegrees>
              <LongitudeDegrees>-0.3265359811484813690185546875</LongitudeDegrees>
            </Position>
            <AltitudeMeters>1407</AltitudeMeters>
            <DistanceMeters>2149.6250370842</DistanceMeters>
          </Trackpoint>
          <Trackpoint>
            <Time>2022-08-20T11:17:02.000Z</Time>
            <Position>
              <LatitudeDegrees>42.7838755957782268524169921875</LatitudeDegrees>
              <LongitudeDegrees>-0.3265242464840412139892578125</LongitudeDegrees>
            </Position>
            <AltitudeMeters>1407.4000244140625</AltitudeMeters>
            <DistanceMeters>2152.7695455841</DistanceMeters>
          </Trackpoint>
          <Trackpoint>
            <Time>2022-08-20T11:17:13.000Z</Time>
            <Position>
              <LatitudeDegrees>42.78396771289408206939697265625</LatitudeDegrees>
              <LongitudeDegrees>-0.32654059119522571563720703125</LongitudeDegrees>
            </Position>
            <AltitudeMeters>1409.199951171875</AltitudeMeters>
            <DistanceMeters>2163.1086966587</DistanceMeters>
          </Trackpoint>
          <Trackpoint>
            <Time>2022-08-20T11:17:24.000Z</Time>
            <Position>
              <LatitudeDegrees>42.7839842252433300018310546875</LatitudeDegrees>
              <LongitudeDegrees>-0.326607227325439453125</LongitudeDegrees>
            </Position>
            <AltitudeMeters>1410</AltitudeMeters>
            <DistanceMeters>2168.8544741935</DistanceMeters>
          </Trackpoint>
          <Trackpoint>
            <Time>2022-08-20T11:17:42.000Z</Time>
            <Position>
              <LatitudeDegrees>42.78407047502696514129638671875</LatitudeDegrees>
              <LongitudeDegrees>-0.3268179483711719512939453125</LongitudeDegrees>
            </Position>
            <AltitudeMeters>1410.800048828125</AltitudeMeters>
            <DistanceMeters>2188.5637569929</DistanceMeters>
          </Trackpoint>
          <Trackpoint>
            <Time>2022-08-20T11:17:55.000Z</Time>
            <Position>
              <LatitudeDegrees>42.78421548195183277130126953125</LatitudeDegrees>
              <LongitudeDegrees>-0.32692431472241878509521484375</LongitudeDegrees>
            </Position>
            <AltitudeMeters>1415.4000244140625</AltitudeMeters>
            <DistanceMeters>2206.8933239319</DistanceMeters>
          </Trackpoint>
          <Trackpoint>
            <Time>2022-08-20T11:18:00.000Z</Time>
            <Position>
              <LatitudeDegrees>42.78427583165466785430908203125</LatitudeDegrees>
              <LongitudeDegrees>-0.32695767469704151153564453125</LongitudeDegrees>
            </Position>
            <AltitudeMeters>1416.800048828125</AltitudeMeters>
            <DistanceMeters>2214.1421869343</DistanceMeters>
          </Trackpoint>
          <Trackpoint>
            <Time>2022-08-20T11:18:04.000Z</Time>
            <Position>
              <LatitudeDegrees>42.78431589715182781219482421875</LatitudeDegrees>
              <LongitudeDegrees>-0.32698810100555419921875</LongitudeDegrees>
            </Position>
            <AltitudeMeters>1417.4000244140625</AltitudeMeters>
            <DistanceMeters>2219.2480493192</DistanceMeters>
          </Trackpoint>
          <Trackpoint>
            <Time>2022-08-20T11:18:06.000Z</Time>
            <Position>
              <LatitudeDegrees>42.78433936648070812225341796875</LatitudeDegrees>
              <LongitudeDegrees>-0.3270016796886920928955078125</LongitudeDegrees>
            </Position>
            <AltitudeMeters>1417.800048828125</AltitudeMeters>
            <DistanceMeters>2222.0861522398</DistanceMeters>
          </Trackpoint>
          <Trackpoint>
            <Time>2022-08-20T11:18:22.000Z</Time>
            <Position>
              <LatitudeDegrees>42.78449627570807933807373046875</LatitudeDegrees>
              <LongitudeDegrees>-0.32715029083192348480224609375</LongitudeDegrees>
            </Position>
            <AltitudeMeters>1421.4000244140625</AltitudeMeters>
            <DistanceMeters>2243.3549481498</DistanceMeters>
          </Trackpoint>
          <Trackpoint>
            <Time>2022-08-20T11:18:35.000Z</Time>
            <Position>
              <LatitudeDegrees>42.78464614413678646087646484375</LatitudeDegrees>
              <LongitudeDegrees>-0.327301584184169769287109375</LongitudeDegrees>
            </Position>
            <AltitudeMeters>1423</AltitudeMeters>
            <DistanceMeters>2264.1151863112</DistanceMeters>
          </Trackpoint>
          <Trackpoint>
            <Time>2022-08-20T11:18:39.000Z</Time>
            <Position>
              <LatitudeDegrees>42.784688137471675872802734375</LatitudeDegrees>
              <LongitudeDegrees>-0.32735480926930904388427734375</LongitudeDegrees>
            </Position>
            <AltitudeMeters>1423.199951171875</AltitudeMeters>
            <DistanceMeters>2270.4982658905</DistanceMeters>
          </Trackpoint>
          <Trackpoint>
            <Time>2022-08-20T11:18:43.000Z</Time>
            <Position>
              <LatitudeDegrees>42.7847355790436267852783203125</LatitudeDegrees>
              <LongitudeDegrees>-0.3274026699364185333251953125</LongitudeDegrees>
            </Position>
            <AltitudeMeters>1423.199951171875</AltitudeMeters>
            <DistanceMeters>2277.068179543</DistanceMeters>
          </Trackpoint>
          <Trackpoint>
            <Time>2022-08-20T11:18:44.000Z</Time>
            <Position>
              <LatitudeDegrees>42.78474538587033748626708984375</LatitudeDegrees>
              <LongitudeDegrees>-0.32741800881922245025634765625</LongitudeDegrees>
            </Position>
            <AltitudeMeters>1423.199951171875</AltitudeMeters>
            <DistanceMeters>2278.7304681437</DistanceMeters>
          </Trackpoint>
          <Trackpoint>
            <Time>2022-08-20T11:18:45.000Z</Time>
            <Position>
              <LatitudeDegrees>42.784756533801555633544921875</LatitudeDegrees>
              <LongitudeDegrees>-0.32743158750236034393310546875</LongitudeDegrees>
            </Position>
            <AltitudeMeters>1423.199951171875</AltitudeMeters>
            <DistanceMeters>2280.3927567443</DistanceMeters>
          </Trackpoint>
          <Trackpoint>
            <Time>2022-08-20T11:18:46.000Z</Time>
            <Position>
              <LatitudeDegrees>42.78476784937083721160888671875</LatitudeDegrees>
              <LongitudeDegrees>-0.32744348980486392974853515625</LongitudeDegrees>
            </Position>
            <AltitudeMeters>1423.199951171875</AltitudeMeters>
            <DistanceMeters>2281.9828578116</DistanceMeters>
          </Trackpoint>
          <Trackpoint>
            <Time>2022-08-20T11:19:03.000Z</Time>
            <Position>
              <LatitudeDegrees>42.78492760844528675079345703125</LatitudeDegrees>
              <LongitudeDegrees>-0.3275853954255580902099609375</LongitudeDegrees>
            </Position>
            <AltitudeMeters>1424.4000244140625</AltitudeMeters>
            <DistanceMeters>2303.208941626</DistanceMeters>
          </Trackpoint>
          <Trackpoint>
            <Time>2022-08-20T11:19:09.000Z</Time>
            <Position>
              <LatitudeDegrees>42.7850021235644817352294921875</LatitudeDegrees>
              <LongitudeDegrees>-0.3276370279490947723388671875</LongitudeDegrees>
            </Position>
            <AltitudeMeters>1425</AltitudeMeters>
            <DistanceMeters>2312.5133138707</DistanceMeters>
          </Trackpoint>
          <Trackpoint>
            <Time>2022-08-20T11:19:14.000Z</Time>
            <Position>
              <LatitudeDegrees>42.78506725095212459564208984375</LatitudeDegrees>
              <LongitudeDegrees>-0.327686481177806854248046875</LongitudeDegrees>
            </Position>
            <AltitudeMeters>1425.4000244140625</AltitudeMeters>
            <DistanceMeters>2320.8117090747</DistanceMeters>
          </Trackpoint>
          <Trackpoint>
            <Time>2022-08-20T11:19:22.000Z</Time>
            <Position>
              <LatitudeDegrees>42.7851540036499500274658203125</LatitudeDegrees>
              <LongitudeDegrees>-0.3277485072612762451171875</LongitudeDegrees>
            </Position>
            <AltitudeMeters>1426.4000244140625</AltitudeMeters>
            <DistanceMeters>2331.7162056983</DistanceMeters>
          </Trackpoint>
          <Trackpoint>
            <Time>2022-08-20T11:19:23.000Z</Time>
            <Position>
              <LatitudeDegrees>42.7851654030382633209228515625</LatitudeDegrees>
              <LongitudeDegrees>-0.3277538716793060302734375</LongitudeDegrees>
            </Position>
            <AltitudeMeters>1426.4000244140625</AltitudeMeters>
            <DistanceMeters>2333.056722469</DistanceMeters>
          </Trackpoint>
          <Trackpoint>
            <Time>2022-08-20T11:19:24.000Z</Time>
            <Position>
              <LatitudeDegrees>42.78517571277916431427001953125</LatitudeDegrees>
              <LongitudeDegrees>-0.3277592360973358154296875</LongitudeDegrees>
            </Position>
            <AltitudeMeters>1426.5999755859375</AltitudeMeters>
            <DistanceMeters>2334.2847382531</DistanceMeters>
          </Trackpoint>
          <Trackpoint>
            <Time>2022-08-20T11:19:25.000Z</Time>
            <Position>
              <LatitudeDegrees>42.78518937528133392333984375</LatitudeDegrees>
              <LongitudeDegrees>-0.3277634270489215850830078125</LongitudeDegrees>
            </Position>
            <AltitudeMeters>1426.5999755859375</AltitudeMeters>
            <DistanceMeters>2335.8461865039</DistanceMeters>
          </Trackpoint>
          <Trackpoint>
            <Time>2022-08-20T11:19:31.000Z</Time>
            <Position>
              <LatitudeDegrees>42.7852636389434337615966796875</LatitudeDegrees>
              <LongitudeDegrees>-0.3277885727584362030029296875</LongitudeDegrees>
            </Position>
            <AltitudeMeters>1427.199951171875</AltitudeMeters>
            <DistanceMeters>2344.3626161547</DistanceMeters>
          </Trackpoint>
          <Trackpoint>
            <Time>2022-08-20T11:19:44.000Z</Time>
            <Position>
              <LatitudeDegrees>42.78543437831103801727294921875</LatitudeDegrees>
              <LongitudeDegrees>-0.32787314616143703460693359375</LongitudeDegrees>
            </Position>
            <AltitudeMeters>1430.199951171875</AltitudeMeters>
            <DistanceMeters>2364.5829969926</DistanceMeters>
          </Trackpoint>
          <Trackpoint>
            <Time>2022-08-20T11:19:59.000Z</Time>
            <Position>
              <LatitudeDegrees>42.78561173938214778900146484375</LatitudeDegrees>
              <LongitudeDegrees>-0.32796585001051425933837890625</LongitudeDegrees>
            </Position>
            <AltitudeMeters>1435</AltitudeMeters>
            <DistanceMeters>2385.7263875541</DistanceMeters>
          </Trackpoint>
          <Trackpoint>
            <Time>2022-08-20T11:20:02.000Z</Time>
            <Position>
              <LatitudeDegrees>42.78565205633640289306640625</LatitudeDegrees>
              <LongitudeDegrees>-0.3279769979417324066162109375</LongitudeDegrees>
            </Position>
            <AltitudeMeters>1435.800048828125</AltitudeMeters>
            <DistanceMeters>2390.3054526883</DistanceMeters>
          </Trackpoint>
          <Trackpoint>
            <Time>2022-08-20T11:20:06.000Z</Time>
            <Position>
              <LatitudeDegrees>42.7857031859457492828369140625</LatitudeDegrees>
              <LongitudeDegrees>-0.32797691412270069122314453125</LongitudeDegrees>
            </Position>
            <AltitudeMeters>1436.199951171875</AltitudeMeters>
            <DistanceMeters>2395.995958301</DistanceMeters>
          </Trackpoint>
          <Trackpoint>
            <Time>2022-08-20T11:20:20.000Z</Time>
            <Position>
              <LatitudeDegrees>42.78587694279849529266357421875</LatitudeDegrees>
              <LongitudeDegrees>-0.32788001932203769683837890625</LongitudeDegrees>
            </Position>
            <AltitudeMeters>1433.5999755859375</AltitudeMeters>
            <DistanceMeters>2416.8923306303</DistanceMeters>
          </Trackpoint>
          <Trackpoint>
            <Time>2022-08-20T11:20:21.000Z</Time>
            <Position>
              <LatitudeDegrees>42.78588633053004741668701171875</LatitudeDegrees>
              <LongitudeDegrees>-0.3278687037527561187744140625</LongitudeDegrees>
            </Position>
            <AltitudeMeters>1433.199951171875</AltitudeMeters>
            <DistanceMeters>2418.2889324031</DistanceMeters>
          </Trackpoint>
          <Trackpoint>
            <Time>2022-08-20T11:20:32.000Z</Time>
            <Position>
              <LatitudeDegrees>42.78601348400115966796875</LatitudeDegrees>
              <LongitudeDegrees>-0.327754206955432891845703125</LongitudeDegrees>
            </Position>
            <AltitudeMeters>1430.5999755859375</AltitudeMeters>
            <DistanceMeters>2435.2527313914</DistanceMeters>
          </Trackpoint>
          <Trackpoint>
            <Time>2022-08-20T11:20:43.000Z</Time>
            <Position>
              <LatitudeDegrees>42.78612253256142139434814453125</LatitudeDegrees>
              <LongitudeDegrees>-0.32763250172138214111328125</LongitudeDegrees>
            </Position>
            <AltitudeMeters>1429.199951171875</AltitudeMeters>
            <DistanceMeters>2450.941639056</DistanceMeters>
          </Trackpoint>
          <Trackpoint>
            <Time>2022-08-20T11:21:00.000Z</Time>
            <Position>
              <LatitudeDegrees>42.7862805314362049102783203125</LatitudeDegrees>
              <LongitudeDegrees>-0.327495038509368896484375</LongitudeDegrees>
            </Position>
            <AltitudeMeters>1429</AltitudeMeters>
            <DistanceMeters>2471.8060088095</DistanceMeters>
          </Trackpoint>
          <Trackpoint>
            <Time>2022-08-20T11:21:14.000Z</Time>
            <Position>
              <LatitudeDegrees>42.78642713092267513275146484375</LatitudeDegrees>
              <LongitudeDegrees>-0.3273332677781581878662109375</LongitudeDegrees>
            </Position>
            <AltitudeMeters>1429.199951171875</AltitudeMeters>
            <DistanceMeters>2492.802397356</DistanceMeters>
          </Trackpoint>
          <Trackpoint>
            <Time>2022-08-20T11:21:26.000Z</Time>
            <Position>
              <LatitudeDegrees>42.78659359551966190338134765625</LatitudeDegrees>
              <LongitudeDegrees>-0.32722857780754566192626953125</LongitudeDegrees>
            </Position>
            <AltitudeMeters>1431.4000244140625</AltitudeMeters>
            <DistanceMeters>2513.2083747906</DistanceMeters>
          </Trackpoint>
          <Trackpoint>
            <Time>2022-08-20T11:21:34.000Z</Time>
            <Position>
              <LatitudeDegrees>42.78670960105955600738525390625</LatitudeDegrees>
              <LongitudeDegrees>-0.32718230970203876495361328125</LongitudeDegrees>
            </Position>
            <AltitudeMeters>1433.199951171875</AltitudeMeters>
            <DistanceMeters>2526.6619561815</DistanceMeters>
          </Trackpoint>
          <Trackpoint>
            <Time>2022-08-20T11:21:48.000Z</Time>
            <Position>
              <LatitudeDegrees>42.78689148835837841033935546875</LatitudeDegrees>
              <LongitudeDegrees>-0.32713972963392734527587890625</LongitudeDegrees>
            </Position>
            <AltitudeMeters>1434</AltitudeMeters>
            <DistanceMeters>2547.2031185615</DistanceMeters>
          </Trackpoint>
          <Trackpoint>
            <Time>2022-08-20T11:21:57.000Z</Time>
            <Position>
              <LatitudeDegrees>42.78701327741146087646484375</LatitudeDegrees>
              <LongitudeDegrees>-0.3271257318556308746337890625</LongitudeDegrees>
            </Position>
            <AltitudeMeters>1434.5999755859375</AltitudeMeters>
            <DistanceMeters>2560.8068822555</DistanceMeters>
          </Trackpoint>
          <Trackpoint>
            <Time>2022-08-20T11:22:08.000Z</Time>
            <Position>
              <LatitudeDegrees>42.78718971647322177886962890625</LatitudeDegrees>
              <LongitudeDegrees>-0.3271217085421085357666015625</LongitudeDegrees>
            </Position>
            <AltitudeMeters>1434.5999755859375</AltitudeMeters>
            <DistanceMeters>2580.4477800376</DistanceMeters>
          </Trackpoint>
          <Trackpoint>
            <Time>2022-08-20T11:22:18.000Z</Time>
            <Position>
              <LatitudeDegrees>42.78736372478306293487548828125</LatitudeDegrees>
              <LongitudeDegrees>-0.3271428309381008148193359375</LongitudeDegrees>
            </Position>
            <AltitudeMeters>1435.5999755859375</AltitudeMeters>
            <DistanceMeters>2599.8918341559</DistanceMeters>
          </Trackpoint>
          <Trackpoint>
            <Time>2022-08-20T11:22:20.000Z</Time>
            <Position>
              <LatitudeDegrees>42.78738954104483127593994140625</LatitudeDegrees>
              <LongitudeDegrees>-0.3271441720426082611083984375</LongitudeDegrees>
            </Position>
            <AltitudeMeters>1435.800048828125</AltitudeMeters>
            <DistanceMeters>2602.7647229233</DistanceMeters>
          </Trackpoint>
          <Trackpoint>
            <Time>2022-08-20T11:22:21.000Z</Time>
            <Position>
              <LatitudeDegrees>42.78740194626152515411376953125</LatitudeDegrees>
              <LongitudeDegrees>-0.3271451778709888458251953125</LongitudeDegrees>
            </Position>
            <AltitudeMeters>1436</AltitudeMeters>
            <DistanceMeters>2604.1483327693</DistanceMeters>
          </Trackpoint>
          <Trackpoint>
            <Time>2022-08-20T11:22:22.000Z</Time>
            <Position>
              <LatitudeDegrees>42.7874130941927433013916015625</LatitudeDegrees>
              <LongitudeDegrees>-0.3271481953561305999755859375</LongitudeDegrees>
            </Position>
            <AltitudeMeters>1436.199951171875</AltitudeMeters>
            <DistanceMeters>2605.412580977</DistanceMeters>
          </Trackpoint>
          <Trackpoint>
            <Time>2022-08-20T11:22:23.000Z</Time>
            <Position>
              <LatitudeDegrees>42.78742373920977115631103515625</LatitudeDegrees>
              <LongitudeDegrees>-0.32715179957449436187744140625</LongitudeDegrees>
            </Position>
            <AltitudeMeters>1436.4000244140625</AltitudeMeters>
            <DistanceMeters>2606.6369145466</DistanceMeters>
          </Trackpoint>
          <Trackpoint>
            <Time>2022-08-20T11:22:24.000Z</Time>
            <Position>
              <LatitudeDegrees>42.7874358929693698883056640625</LatitudeDegrees>
              <LongitudeDegrees>-0.3271589241921901702880859375</LongitudeDegrees>
            </Position>
            <AltitudeMeters>1436.5999755859375</AltitudeMeters>
            <DistanceMeters>2608.1090620754</DistanceMeters>
          </Trackpoint>
          <Trackpoint>
            <Time>2022-08-20T11:22:25.000Z</Time>
            <Position>
              <LatitudeDegrees>42.78744838200509548187255859375</LatitudeDegrees>
              <LongitudeDegrees>-0.32716252841055393218994140625</LongitudeDegrees>
            </Position>
            <AltitudeMeters>1436.800048828125</AltitudeMeters>
            <DistanceMeters>2609.5312917065</DistanceMeters>
          </Trackpoint>
          <Trackpoint>
            <Time>2022-08-20T11:22:28.000Z</Time>
            <Position>
              <LatitudeDegrees>42.7874861843883991241455078125</LatitudeDegrees>
              <LongitudeDegrees>-0.32716068439185619354248046875</LongitudeDegrees>
            </Position>
            <AltitudeMeters>1437</AltitudeMeters>
            <DistanceMeters>2613.7425943714</DistanceMeters>
          </Trackpoint>
          <Trackpoint>
            <Time>2022-08-20T11:22:44.000Z</Time>
            <Position>
              <LatitudeDegrees>42.78767318464815616607666015625</LatitudeDegrees>
              <LongitudeDegrees>-0.32717962749302387237548828125</LongitudeDegrees>
            </Position>
            <AltitudeMeters>1438</AltitudeMeters>
            <DistanceMeters>2634.6134550989</DistanceMeters>
          </Trackpoint>
          <Trackpoint>
            <Time>2022-08-20T11:23:00.000Z</Time>
            <Position>
              <LatitudeDegrees>42.78785138390958309173583984375</LatitudeDegrees>
              <LongitudeDegrees>-0.32721986062824726104736328125</LongitudeDegrees>
            </Position>
            <AltitudeMeters>1439</AltitudeMeters>
            <DistanceMeters>2654.7178382436</DistanceMeters>
          </Trackpoint>
          <Trackpoint>
            <Time>2022-08-20T11:23:04.000Z</Time>
            <Position>
              <LatitudeDegrees>42.78790452517569065093994140625</LatitudeDegrees>
              <LongitudeDegrees>-0.32722639851272106170654296875</LongitudeDegrees>
            </Position>
            <AltitudeMeters>1438.800048828125</AltitudeMeters>
            <DistanceMeters>2660.6568178353</DistanceMeters>
          </Trackpoint>
          <Trackpoint>
            <Time>2022-08-20T11:23:05.000Z</Time>
            <Position>
              <LatitudeDegrees>42.78791743330657482147216796875</LatitudeDegrees>
              <LongitudeDegrees>-0.32723243348300457000732421875</LongitudeDegrees>
            </Position>
            <AltitudeMeters>1438.800048828125</AltitudeMeters>
            <DistanceMeters>2662.1772452652</DistanceMeters>
          </Trackpoint>
          <Trackpoint>
            <Time>2022-08-20T11:23:06.000Z</Time>
            <Position>
              <LatitudeDegrees>42.78792933560907840728759765625</LatitudeDegrees>
              <LongitudeDegrees>-0.32723930664360523223876953125</LongitudeDegrees>
            </Position>
            <AltitudeMeters>1439</AltitudeMeters>
            <DistanceMeters>2663.6152603923</DistanceMeters>
          </Trackpoint>
          <Trackpoint>
            <Time>2022-08-20T11:23:07.000Z</Time>
            <Position>
              <LatitudeDegrees>42.78793989680707454681396484375</LatitudeDegrees>
              <LongitudeDegrees>-0.32724534161388874053955078125</LongitudeDegrees>
            </Position>
            <AltitudeMeters>1439.199951171875</AltitudeMeters>
            <DistanceMeters>2664.8901775503</DistanceMeters>
          </Trackpoint>
          <Trackpoint>
            <Time>2022-08-20T11:23:08.000Z</Time>
            <Position>
              <LatitudeDegrees>42.78794961981475353240966796875</LatitudeDegrees>
              <LongitudeDegrees>-0.32724584452807903289794921875</LongitudeDegrees>
            </Position>
            <AltitudeMeters>1439.199951171875</AltitudeMeters>
            <DistanceMeters>2665.9736487949</DistanceMeters>
          </Trackpoint>
          <Trackpoint>
            <Time>2022-08-20T11:23:09.000Z</Time>
            <Position>
              <LatitudeDegrees>42.78795867227017879486083984375</LatitudeDegrees>
              <LongitudeDegrees>-0.3272471018135547637939453125</LongitudeDegrees>
            </Position>
            <AltitudeMeters>1439</AltitudeMeters>
            <DistanceMeters>2666.9793170114</DistanceMeters>
          </Trackpoint>
          <Trackpoint>
            <Time>2022-08-20T11:23:10.000Z</Time>
            <Position>
              <LatitudeDegrees>42.78796806000173091888427734375</LatitudeDegrees>
              <LongitudeDegrees>-0.32724953256547451019287109375</LongitudeDegrees>
            </Position>
            <AltitudeMeters>1439</AltitudeMeters>
            <DistanceMeters>2668.037489719</DistanceMeters>
          </Trackpoint>
          <Trackpoint>
            <Time>2022-08-20T11:23:12.000Z</Time>
            <Position>
              <LatitudeDegrees>42.78799320571124553680419921875</LatitudeDegrees>
              <LongitudeDegrees>-0.3272402286529541015625</LongitudeDegrees>
            </Position>
            <AltitudeMeters>1438.4000244140625</AltitudeMeters>
            <DistanceMeters>2670.9385294026</DistanceMeters>
          </Trackpoint>
          <Trackpoint>
            <Time>2022-08-20T11:23:13.000Z</Time>
            <Position>
              <LatitudeDegrees>42.78800259344279766082763671875</LatitudeDegrees>
              <LongitudeDegrees>-0.32723410986363887786865234375</LongitudeDegrees>
            </Position>
            <AltitudeMeters>1438</AltitudeMeters>
            <DistanceMeters>2672.0945792776</DistanceMeters>
          </Trackpoint>
          <Trackpoint>
            <Time>2022-08-20T11:23:14.000Z</Time>
            <Position>
              <LatitudeDegrees>42.78801281936466693878173828125</LatitudeDegrees>
              <LongitudeDegrees>-0.32723360694944858551025390625</LongitudeDegrees>
            </Position>
            <AltitudeMeters>1437.800048828125</AltitudeMeters>
            <DistanceMeters>2673.2348998501</DistanceMeters>
          </Trackpoint>
          <Trackpoint>
            <Time>2022-08-20T11:23:17.000Z</Time>
            <Position>
              <LatitudeDegrees>42.78804366476833820343017578125</LatitudeDegrees>
              <LongitudeDegrees>-0.327227152884006500244140625</LongitudeDegrees>
            </Position>
            <AltitudeMeters>1437.199951171875</AltitudeMeters>
            <DistanceMeters>2676.7082530036</DistanceMeters>
          </Trackpoint>
          <Trackpoint>
            <Time>2022-08-20T11:23:35.000Z</Time>
            <Position>
              <LatitudeDegrees>42.78822186402976512908935546875</LatitudeDegrees>
              <LongitudeDegrees>-0.3272469341754913330078125</LongitudeDegrees>
            </Position>
            <AltitudeMeters>1438</AltitudeMeters>
            <DistanceMeters>2696.6076729002</DistanceMeters>
          </Trackpoint>
          <Trackpoint>
            <Time>2022-08-20T11:23:44.000Z</Time>
            <Position>
              <LatitudeDegrees>42.78833401389420032501220703125</LatitudeDegrees>
              <LongitudeDegrees>-0.32725808210670948028564453125</LongitudeDegrees>
            </Position>
            <AltitudeMeters>1439.800048828125</AltitudeMeters>
            <DistanceMeters>2709.1234523834</DistanceMeters>
          </Trackpoint>
          <Trackpoint>
            <Time>2022-08-20T11:23:46.000Z</Time>
            <Position>
              <LatitudeDegrees>42.7883582375943660736083984375</LatitudeDegrees>
              <LongitudeDegrees>-0.327263362705707550048828125</LongitudeDegrees>
            </Position>
            <AltitudeMeters>1440.4000244140625</AltitudeMeters>
            <DistanceMeters>2711.8512322481</DistanceMeters>
          </Trackpoint>
          <Trackpoint>
            <Time>2022-08-20T11:23:47.000Z</Time>
            <Position>
              <LatitudeDegrees>42.7883726544678211212158203125</LatitudeDegrees>
              <LongitudeDegrees>-0.3272715769708156585693359375</LongitudeDegrees>
            </Position>
            <AltitudeMeters>1441</AltitudeMeters>
            <DistanceMeters>2713.5879088248</DistanceMeters>
          </Trackpoint>
          <Trackpoint>
            <Time>2022-08-20T11:23:49.000Z</Time>
            <Position>
              <LatitudeDegrees>42.78839687816798686981201171875</LatitudeDegrees>
              <LongitudeDegrees>-0.3272853232920169830322265625</LongitudeDegrees>
            </Position>
            <AltitudeMeters>1442</AltitudeMeters>
            <DistanceMeters>2716.5075649969</DistanceMeters>
          </Trackpoint>
          <Trackpoint>
            <Time>2022-08-20T11:23:50.000Z</Time>
            <Position>
              <LatitudeDegrees>42.7884105406701564788818359375</LatitudeDegrees>
              <LongitudeDegrees>-0.3272953815758228302001953125</LongitudeDegrees>
            </Position>
            <AltitudeMeters>1442.5999755859375</AltitudeMeters>
            <DistanceMeters>2718.2364245351</DistanceMeters>
          </Trackpoint>
          <Trackpoint>
            <Time>2022-08-20T11:23:51.000Z</Time>
            <Position>
              <LatitudeDegrees>42.78842143714427947998046875</LatitudeDegrees>
              <LongitudeDegrees>-0.3272952139377593994140625</LongitudeDegrees>
            </Position>
            <AltitudeMeters>1443</AltitudeMeters>
            <DistanceMeters>2719.4459171494</DistanceMeters>
          </Trackpoint>
          <Trackpoint>
            <Time>2022-08-20T11:23:52.000Z</Time>
            <Position>
              <LatitudeDegrees>42.78843325562775135040283203125</LatitudeDegrees>
              <LongitudeDegrees>-0.327294208109378814697265625</LongitudeDegrees>
            </Position>
            <AltitudeMeters>1443.199951171875</AltitudeMeters>
            <DistanceMeters>2720.7626459283</DistanceMeters>
          </Trackpoint>
          <Trackpoint>
            <Time>2022-08-20T11:23:53.000Z</Time>
            <Position>
              <LatitudeDegrees>42.7884467504918575286865234375</LatitudeDegrees>
              <LongitudeDegrees>-0.32729177735745906829833984375</LongitudeDegrees>
            </Position>
            <AltitudeMeters>1443.5999755859375</AltitudeMeters>
            <DistanceMeters>2722.2771225431</DistanceMeters>
          </Trackpoint>
          <Trackpoint>
            <Time>2022-08-20T11:23:54.000Z</Time>
            <Position>
              <LatitudeDegrees>42.788459993898868560791015625</LatitudeDegrees>
              <LongitudeDegrees>-0.32729010097682476043701171875</LongitudeDegrees>
            </Position>
            <AltitudeMeters>1444</AltitudeMeters>
            <DistanceMeters>2723.7553912938</DistanceMeters>
          </Trackpoint>
          <Trackpoint>
            <Time>2022-08-20T11:24:07.000Z</Time>
            <Position>
              <LatitudeDegrees>42.7886418811976909637451171875</LatitudeDegrees>
              <LongitudeDegrees>-0.3272812999784946441650390625</LongitudeDegrees>
            </Position>
            <AltitudeMeters>1449</AltitudeMeters>
            <DistanceMeters>2744.0123588301</DistanceMeters>
          </Trackpoint>
          <Trackpoint>
            <Time>2022-08-20T11:24:15.000Z</Time>
            <Position>
              <LatitudeDegrees>42.78875981457531452178955078125</LatitudeDegrees>
              <LongitudeDegrees>-0.327317677438259124755859375</LongitudeDegrees>
            </Position>
            <AltitudeMeters>1452</AltitudeMeters>
            <DistanceMeters>2757.4706378179</DistanceMeters>
          </Trackpoint>
          <Trackpoint>
            <Time>2022-08-20T11:24:17.000Z</Time>
            <Position>
              <LatitudeDegrees>42.78878152370452880859375</LatitudeDegrees>
              <LongitudeDegrees>-0.32732077874243259429931640625</LongitudeDegrees>
            </Position>
            <AltitudeMeters>1452.199951171875</AltitudeMeters>
            <DistanceMeters>2759.9007962478</DistanceMeters>
          </Trackpoint>
          <Trackpoint>
            <Time>2022-08-20T11:24:18.000Z</Time>
            <Position>
              <LatitudeDegrees>42.78879233635962009429931640625</LatitudeDegrees>
              <LongitudeDegrees>-0.32732480205595493316650390625</LongitudeDegrees>
            </Position>
            <AltitudeMeters>1452.4000244140625</AltitudeMeters>
            <DistanceMeters>2761.1470599231</DistanceMeters>
          </Trackpoint>
          <Trackpoint>
            <Time>2022-08-20T11:24:19.000Z</Time>
            <Position>
              <LatitudeDegrees>42.78880189172923564910888671875</LatitudeDegrees>
              <LongitudeDegrees>-0.32731943763792514801025390625</LongitudeDegrees>
            </Position>
            <AltitudeMeters>1452.199951171875</AltitudeMeters>
            <DistanceMeters>2762.2952720816</DistanceMeters>
          </Trackpoint>
          <Trackpoint>
            <Time>2022-08-20T11:24:20.000Z</Time>
            <Position>
              <LatitudeDegrees>42.78881379403173923492431640625</LatitudeDegrees>
              <LongitudeDegrees>-0.32731457613408565521240234375</LongitudeDegrees>
            </Position>
            <AltitudeMeters>1452</AltitudeMeters>
            <DistanceMeters>2763.6723400004</DistanceMeters>
          </Trackpoint>
          <Trackpoint>
            <Time>2022-08-20T11:24:21.000Z</Time>
            <Position>
              <LatitudeDegrees>42.78882485814392566680908203125</LatitudeDegrees>
              <LongitudeDegrees>-0.3273086249828338623046875</LongitudeDegrees>
            </Position>
            <AltitudeMeters>1451.800048828125</AltitudeMeters>
            <DistanceMeters>2764.9959089749</DistanceMeters>
          </Trackpoint>
          <Trackpoint>
            <Time>2022-08-20T11:24:22.000Z</Time>
            <Position>
              <LatitudeDegrees>42.78883525170385837554931640625</LatitudeDegrees>
              <LongitudeDegrees>-0.32730485312640666961669921875</LongitudeDegrees>
            </Position>
            <AltitudeMeters>1451.5999755859375</AltitudeMeters>
            <DistanceMeters>2766.1979123988</DistanceMeters>
          </Trackpoint>
          <Trackpoint>
            <Time>2022-08-20T11:24:24.000Z</Time>
            <Position>
              <LatitudeDegrees>42.78885654173791408538818359375</LatitudeDegrees>
              <LongitudeDegrees>-0.32731055282056331634521484375</LongitudeDegrees>
            </Position>
            <AltitudeMeters>1451.800048828125</AltitudeMeters>
            <DistanceMeters>2768.6131617405</DistanceMeters>
          </Trackpoint>
          <Trackpoint>
            <Time>2022-08-20T11:24:28.000Z</Time>
            <Position>
              <LatitudeDegrees>42.788909934461116790771484375</LatitudeDegrees>
              <LongitudeDegrees>-0.32733469270169734954833984375</LongitudeDegrees>
            </Position>
            <AltitudeMeters>1452.4000244140625</AltitudeMeters>
            <DistanceMeters>2774.8748381869</DistanceMeters>
          </Trackpoint>
          <Trackpoint>
            <Time>2022-08-20T11:24:29.000Z</Time>
            <Position>
              <LatitudeDegrees>42.78892057947814464569091796875</LatitudeDegrees>
              <LongitudeDegrees>-0.327338464558124542236328125</LongitudeDegrees>
            </Position>
            <AltitudeMeters>1452.4000244140625</AltitudeMeters>
            <DistanceMeters>2776.1065251775</DistanceMeters>
          </Trackpoint>
          <Trackpoint>
            <Time>2022-08-20T11:24:30.000Z</Time>
            <Position>
              <LatitudeDegrees>42.78893172740936279296875</LatitudeDegrees>
              <LongitudeDegrees>-0.32734340988099575042724609375</LongitudeDegrees>
            </Position>
            <AltitudeMeters>1452.5999755859375</AltitudeMeters>
            <DistanceMeters>2777.4094658405</DistanceMeters>
          </Trackpoint>
          <Trackpoint>
            <Time>2022-08-20T11:24:44.000Z</Time>
            <Position>
              <LatitudeDegrees>42.78912157751619815826416015625</LatitudeDegrees>
              <LongitudeDegrees>-0.3273973055183887481689453125</LongitudeDegrees>
            </Position>
            <AltitudeMeters>1457</AltitudeMeters>
            <DistanceMeters>2798.9937125009</DistanceMeters>
          </Trackpoint>
          <Trackpoint>
            <Time>2022-08-20T11:24:50.000Z</Time>
            <Position>
              <LatitudeDegrees>42.7891987748444080352783203125</LatitudeDegrees>
              <LongitudeDegrees>-0.32742622308433055877685546875</LongitudeDegrees>
            </Position>
            <AltitudeMeters>1459.199951171875</AltitudeMeters>
            <DistanceMeters>2807.9049689919</DistanceMeters>
          </Trackpoint>
          <Trackpoint>
            <Time>2022-08-20T11:24:52.000Z</Time>
            <Position>
              <LatitudeDegrees>42.78922651894390583038330078125</LatitudeDegrees>
              <LongitudeDegrees>-0.32744902186095714569091796875</LongitudeDegrees>
            </Position>
            <AltitudeMeters>1460.5999755859375</AltitudeMeters>
            <DistanceMeters>2811.5109792636</DistanceMeters>
          </Trackpoint>
          <Trackpoint>
            <Time>2022-08-20T11:24:54.000Z</Time>
            <Position>
              <LatitudeDegrees>42.78925904072821140289306640625</LatitudeDegrees>
              <LongitudeDegrees>-0.32748095691204071044921875</LongitudeDegrees>
            </Position>
            <AltitudeMeters>1461.5999755859375</AltitudeMeters>
            <DistanceMeters>2815.972177363</DistanceMeters>
          </Trackpoint>
          <Trackpoint>
            <Time>2022-08-20T11:24:55.000Z</Time>
            <Position>
              <LatitudeDegrees>42.78926893137395381927490234375</LatitudeDegrees>
              <LongitudeDegrees>-0.3274931944906711578369140625</LongitudeDegrees>
            </Position>
            <AltitudeMeters>1461.5999755859375</AltitudeMeters>
            <DistanceMeters>2817.4565420932</DistanceMeters>
          </Trackpoint>
          <Trackpoint>
            <Time>2022-08-20T11:24:57.000Z</Time>
            <Position>
              <LatitudeDegrees>42.78929240070283412933349609375</LatitudeDegrees>
              <LongitudeDegrees>-0.32750518061220645904541015625</LongitudeDegrees>
            </Position>
            <AltitudeMeters>1461.4000244140625</AltitudeMeters>
            <DistanceMeters>2820.2465108914</DistanceMeters>
          </Trackpoint>
          <Trackpoint>
            <Time>2022-08-20T11:24:58.000Z</Time>
            <Position>
              <LatitudeDegrees>42.7893037162721157073974609375</LatitudeDegrees>
              <LongitudeDegrees>-0.327507443726062774658203125</LongitudeDegrees>
            </Position>
            <AltitudeMeters>1461.199951171875</AltitudeMeters>
            <DistanceMeters>2821.5214280494</DistanceMeters>
          </Trackpoint>
          <Trackpoint>
            <Time>2022-08-20T11:24:59.000Z</Time>
            <Position>
              <LatitudeDegrees>42.78931570239365100860595703125</LatitudeDegrees>
              <LongitudeDegrees>-0.32751255668699741363525390625</LongitudeDegrees>
            </Position>
            <AltitudeMeters>1461</AltitudeMeters>
            <DistanceMeters>2822.9212589636</DistanceMeters>
          </Trackpoint>
          <Trackpoint>
            <Time>2022-08-20T11:25:00.000Z</Time>
            <Position>
              <LatitudeDegrees>42.7893288619816303253173828125</LatitudeDegrees>
              <LongitudeDegrees>-0.32751942984759807586669921875</LongitudeDegrees>
            </Position>
            <AltitudeMeters>1460.800048828125</AltitudeMeters>
            <DistanceMeters>2824.488479686</DistanceMeters>
          </Trackpoint>
          <Trackpoint>
            <Time>2022-08-20T11:25:01.000Z</Time>
            <Position>
              <LatitudeDegrees>42.7893382497131824493408203125</LatitudeDegrees>
              <LongitudeDegrees>-0.32752580009400844573974609375</LongitudeDegrees>
            </Position>
            <AltitudeMeters>1460.800048828125</AltitudeMeters>
            <DistanceMeters>2825.6561875018</DistanceMeters>
          </Trackpoint>
          <Trackpoint>
            <Time>2022-08-20T11:25:02.000Z</Time>
            <Position>
              <LatitudeDegrees>42.7893483079969882965087890625</LatitudeDegrees>
              <LongitudeDegrees>-0.3275312483310699462890625</LongitudeDegrees>
            </Position>
            <AltitudeMeters>1460.800048828125</AltitudeMeters>
            <DistanceMeters>2826.8581909257</DistanceMeters>
          </Trackpoint>
          <Trackpoint>
            <Time>2022-08-20T11:25:03.000Z</Time>
            <Position>
              <LatitudeDegrees>42.78935710899531841278076171875</LatitudeDegrees>
              <LongitudeDegrees>-0.32753535546362400054931640625</LongitudeDegrees>
            </Position>
            <AltitudeMeters>1460.5999755859375</AltitudeMeters>
            <DistanceMeters>2827.8904452647</DistanceMeters>
          </Trackpoint>
          <Trackpoint>
            <Time>2022-08-20T11:25:08.000Z</Time>
            <Position>
              <LatitudeDegrees>42.7893992699682712554931640625</LatitudeDegrees>
              <LongitudeDegrees>-0.3275693021714687347412109375</LongitudeDegrees>
            </Position>
            <AltitudeMeters>1460.5999755859375</AltitudeMeters>
            <DistanceMeters>2833.3410371134</DistanceMeters>
          </Trackpoint>
          <Trackpoint>
            <Time>2022-08-20T11:25:25.000Z</Time>
            <Position>
              <LatitudeDegrees>42.78956531547009944915771484375</LatitudeDegrees>
              <LongitudeDegrees>-0.32767407596111297607421875</LongitudeDegrees>
            </Position>
            <AltitudeMeters>1459.199951171875</AltitudeMeters>
            <DistanceMeters>2853.7073703959</DistanceMeters>
          </Trackpoint>
          <Trackpoint>
            <Time>2022-08-20T11:25:38.000Z</Time>
            <Position>
              <LatitudeDegrees>42.7897013537585735321044921875</LatitudeDegrees>
              <LongitudeDegrees>-0.32782050780951976776123046875</LongitudeDegrees>
            </Position>
            <AltitudeMeters>1461.199951171875</AltitudeMeters>
            <DistanceMeters>2873.0027079619</DistanceMeters>
          </Trackpoint>
          <Trackpoint>
            <Time>2022-08-20T11:25:44.000Z</Time>
            <Position>
              <LatitudeDegrees>42.78971493244171142578125</LatitudeDegrees>
              <LongitudeDegrees>-0.32791547477245330810546875</LongitudeDegrees>
            </Position>
            <AltitudeMeters>1464.199951171875</AltitudeMeters>
            <DistanceMeters>2880.9053662923</DistanceMeters>
          </Trackpoint>
          <Trackpoint>
            <Time>2022-08-20T11:25:47.000Z</Time>
            <Position>
              <LatitudeDegrees>42.78975340537726879119873046875</LatitudeDegrees>
              <LongitudeDegrees>-0.327923186123371124267578125</LongitudeDegrees>
            </Position>
            <AltitudeMeters>1463.4000244140625</AltitudeMeters>
            <DistanceMeters>2885.2329959604</DistanceMeters>
          </Trackpoint>
          <Trackpoint>
            <Time>2022-08-20T11:25:48.000Z</Time>
            <Position>
              <LatitudeDegrees>42.789766900241374969482421875</LatitudeDegrees>
              <LongitudeDegrees>-0.32791388221085071563720703125</LongitudeDegrees>
            </Position>
            <AltitudeMeters>1462.5999755859375</AltitudeMeters>
            <DistanceMeters>2886.9141901571</DistanceMeters>
          </Trackpoint>
          <Trackpoint>
            <Time>2022-08-20T11:26:03.000Z</Time>
            <Position>
              <LatitudeDegrees>42.78993797488510608673095703125</LatitudeDegrees>
              <LongitudeDegrees>-0.3277996368706226348876953125</LongitudeDegrees>
            </Position>
            <AltitudeMeters>1456</AltitudeMeters>
            <DistanceMeters>2908.1187791976</DistanceMeters>
          </Trackpoint>
          <Trackpoint>
            <Time>2022-08-20T11:26:14.000Z</Time>
            <Position>
              <LatitudeDegrees>42.79009454883635044097900390625</LatitudeDegrees>
              <LongitudeDegrees>-0.3278174065053462982177734375</LongitudeDegrees>
            </Position>
            <AltitudeMeters>1454.800048828125</AltitudeMeters>
            <DistanceMeters>2925.6060185101</DistanceMeters>
          </Trackpoint>
          <Trackpoint>
            <Time>2022-08-20T11:26:17.000Z</Time>
            <Position>
              <LatitudeDegrees>42.79014031402766704559326171875</LatitudeDegrees>
              <LongitudeDegrees>-0.3278304822742938995361328125</LongitudeDegrees>
            </Position>
            <AltitudeMeters>1455.4000244140625</AltitudeMeters>
            <DistanceMeters>2930.8117134117</DistanceMeters>
          </Trackpoint>
          <Trackpoint>
            <Time>2022-08-20T11:26:29.000Z</Time>
            <Position>
              <LatitudeDegrees>42.7903090417385101318359375</LatitudeDegrees>
              <LongitudeDegrees>-0.3279122896492481231689453125</LongitudeDegrees>
            </Position>
            <AltitudeMeters>1457.199951171875</AltitudeMeters>
            <DistanceMeters>2950.7446851805</DistanceMeters>
          </Trackpoint>
          <Trackpoint>
            <Time>2022-08-20T11:26:32.000Z</Time>
            <Position>
              <LatitudeDegrees>42.7903412282466888427734375</LatitudeDegrees>
              <LongitudeDegrees>-0.32794539816677570343017578125</LongitudeDegrees>
            </Position>
            <AltitudeMeters>1457.800048828125</AltitudeMeters>
            <DistanceMeters>2955.2341317636</DistanceMeters>
          </Trackpoint>
          <Trackpoint>
            <Time>2022-08-20T11:26:33.000Z</Time>
            <Position>
              <LatitudeDegrees>42.79035019688308238983154296875</LatitudeDegrees>
              <LongitudeDegrees>-0.32795411534607410430908203125</LongitudeDegrees>
            </Position>
            <AltitudeMeters>1458</AltitudeMeters>
            <DistanceMeters>2956.4584653332</DistanceMeters>
          </Trackpoint>
          <Trackpoint>
            <Time>2022-08-20T11:26:34.000Z</Time>
            <Position>
              <LatitudeDegrees>42.79036209918558597564697265625</LatitudeDegrees>
              <LongitudeDegrees>-0.32796509563922882080078125</LongitudeDegrees>
            </Position>
            <AltitudeMeters>1458</AltitudeMeters>
            <DistanceMeters>2958.0598839887</DistanceMeters>
          </Trackpoint>
          <Trackpoint>
            <Time>2022-08-20T11:26:35.000Z</Time>
            <Position>
              <LatitudeDegrees>42.79037031345069408416748046875</LatitudeDegrees>
              <LongitudeDegrees>-0.327977836132049560546875</LongitudeDegrees>
            </Position>
            <AltitudeMeters>1458.4000244140625</AltitudeMeters>
            <DistanceMeters>2959.4434938347</DistanceMeters>
          </Trackpoint>
          <Trackpoint>
            <Time>2022-08-20T11:26:49.000Z</Time>
            <Position>
              <LatitudeDegrees>42.79042647220194339752197265625</LatitudeDegrees>
              <LongitudeDegrees>-0.32821831293404102325439453125</LongitudeDegrees>
            </Position>
            <AltitudeMeters>1463.4000244140625</AltitudeMeters>
            <DistanceMeters>2980.0557498173</DistanceMeters>
          </Trackpoint>
          <Trackpoint>
            <Time>2022-08-20T11:27:01.000Z</Time>
            <Position>
              <LatitudeDegrees>42.7905680425465106964111328125</LatitudeDegrees>
              <LongitudeDegrees>-0.32838963903486728668212890625</LongitudeDegrees>
            </Position>
            <AltitudeMeters>1464.5999755859375</AltitudeMeters>
            <DistanceMeters>3001.1294101427</DistanceMeters>
          </Trackpoint>
          <Trackpoint>
            <Time>2022-08-20T11:27:18.000Z</Time>
            <Position>
              <LatitudeDegrees>42.79073274694383144378662109375</LatitudeDegrees>
              <LongitudeDegrees>-0.32849458046257495880126953125</LongitudeDegrees>
            </Position>
            <AltitudeMeters>1469</AltitudeMeters>
            <DistanceMeters>3021.3663078024</DistanceMeters>
          </Trackpoint>
          <Trackpoint>
            <Time>2022-08-20T11:27:30.000Z</Time>
            <Position>
              <LatitudeDegrees>42.79087926261126995086669921875</LatitudeDegrees>
              <LongitudeDegrees>-0.32864394597709178924560546875</LongitudeDegrees>
            </Position>
            <AltitudeMeters>1474.5999755859375</AltitudeMeters>
            <DistanceMeters>3041.7319760003</DistanceMeters>
          </Trackpoint>
          <Trackpoint>
            <Time>2022-08-20T11:27:43.000Z</Time>
            <Position>
              <LatitudeDegrees>42.79094539582729339599609375</LatitudeDegrees>
              <LongitudeDegrees>-0.32878509722650051116943359375</LongitudeDegrees>
            </Position>
            <AltitudeMeters>1479.4000244140625</AltitudeMeters>
            <DistanceMeters>3055.4098824105</DistanceMeters>
          </Trackpoint>
          <Trackpoint>
            <Time>2022-08-20T11:27:47.000Z</Time>
            <Position>
              <LatitudeDegrees>42.79094874858856201171875</LatitudeDegrees>
              <LongitudeDegrees>-0.3288369812071323394775390625</LongitudeDegrees>
            </Position>
            <AltitudeMeters>1481</AltitudeMeters>
            <DistanceMeters>3059.6638538718</DistanceMeters>
          </Trackpoint>
          <Trackpoint>
            <Time>2022-08-20T11:27:52.000Z</Time>
            <Position>
              <LatitudeDegrees>42.79097833670675754547119140625</LatitudeDegrees>
              <LongitudeDegrees>-0.3288795612752437591552734375</LongitudeDegrees>
            </Position>
            <AltitudeMeters>1480.5999755859375</AltitudeMeters>
            <DistanceMeters>3064.4530494376</DistanceMeters>
          </Trackpoint>
          <Trackpoint>
            <Time>2022-08-20T11:27:55.000Z</Time>
            <Position>
              <LatitudeDegrees>42.791012115776538848876953125</LatitudeDegrees>
              <LongitudeDegrees>-0.32890529371798038482666015625</LongitudeDegrees>
            </Position>
            <AltitudeMeters>1479.5999755859375</AltitudeMeters>
            <DistanceMeters>3068.7608106998</DistanceMeters>
          </Trackpoint>
          <Trackpoint>
            <Time>2022-08-20T11:28:03.000Z</Time>
            <Position>
              <LatitudeDegrees>42.79110624454915523529052734375</LatitudeDegrees>
              <LongitudeDegrees>-0.3289573453366756439208984375</LongitudeDegrees>
            </Position>
            <AltitudeMeters>1476.5999755859375</AltitudeMeters>
            <DistanceMeters>3080.0673925094</DistanceMeters>
          </Trackpoint>
          <Trackpoint>
            <Time>2022-08-20T11:28:13.000Z</Time>
            <Position>
              <LatitudeDegrees>42.7912979386746883392333984375</LatitudeDegrees>
              <LongitudeDegrees>-0.32899011857807636260986328125</LongitudeDegrees>
            </Position>
            <AltitudeMeters>1470.800048828125</AltitudeMeters>
            <DistanceMeters>3101.5707432806</DistanceMeters>
          </Trackpoint>
          <Trackpoint>
            <Time>2022-08-20T11:28:16.000Z</Time>
            <Position>
              <LatitudeDegrees>42.79133339412510395050048828125</LatitudeDegrees>
              <LongitudeDegrees>-0.32900168560445308685302734375</LongitudeDegrees>
            </Position>
            <AltitudeMeters>1469.5999755859375</AltitudeMeters>
            <DistanceMeters>3105.6291739421</DistanceMeters>
          </Trackpoint>
          <Trackpoint>
            <Time>2022-08-20T11:28:21.000Z</Time>
            <Position>
              <LatitudeDegrees>42.7913968451321125030517578125</LatitudeDegrees>
              <LongitudeDegrees>-0.3289979137480258941650390625</LongitudeDegrees>
            </Position>
            <AltitudeMeters>1466</AltitudeMeters>
            <DistanceMeters>3112.6982929141</DistanceMeters>
          </Trackpoint>
          <Trackpoint>
            <Time>2022-08-20T11:28:31.000Z</Time>
            <Position>
              <LatitudeDegrees>42.7915839292109012603759765625</LatitudeDegrees>
              <LongitudeDegrees>-0.32900721766054630279541015625</LongitudeDegrees>
            </Position>
            <AltitudeMeters>1459</AltitudeMeters>
            <DistanceMeters>3133.5349451267</DistanceMeters>
          </Trackpoint>
          <Trackpoint>
            <Time>2022-08-20T11:28:39.000Z</Time>
            <Position>
              <LatitudeDegrees>42.7916892059147357940673828125</LatitudeDegrees>
              <LongitudeDegrees>-0.32903051935136318206787109375</LongitudeDegrees>
            </Position>
            <AltitudeMeters>1456.4000244140625</AltitudeMeters>
            <DistanceMeters>3145.4060601958</DistanceMeters>
          </Trackpoint>
          <Trackpoint>
            <Time>2022-08-20T11:28:47.000Z</Time>
            <Position>
              <LatitudeDegrees>42.791759110987186431884765625</LatitudeDegrees>
              <LongitudeDegrees>-0.3291057050228118896484375</LongitudeDegrees>
            </Position>
            <AltitudeMeters>1456.5999755859375</AltitudeMeters>
            <DistanceMeters>3155.3180343539</DistanceMeters>
          </Trackpoint>
          <Trackpoint>
            <Time>2022-08-20T11:28:49.000Z</Time>
            <Position>
              <LatitudeDegrees>42.7917911298573017120361328125</LatitudeDegrees>
              <LongitudeDegrees>-0.3291217982769012451171875</LongitudeDegrees>
            </Position>
            <AltitudeMeters>1456.4000244140625</AltitudeMeters>
            <DistanceMeters>3159.1167265179</DistanceMeters>
          </Trackpoint>
          <Trackpoint>
            <Time>2022-08-20T11:29:00.000Z</Time>
            <Position>
              <LatitudeDegrees>42.7919738553464412689208984375</LatitudeDegrees>
              <LongitudeDegrees>-0.32921592704951763153076171875</LongitudeDegrees>
            </Position>
            <AltitudeMeters>1457.199951171875</AltitudeMeters>
            <DistanceMeters>3180.8589550569</DistanceMeters>
          </Trackpoint>
          <Trackpoint>
            <Time>2022-08-20T11:29:11.000Z</Time>
            <Position>
              <LatitudeDegrees>42.79209497384727001190185546875</LatitudeDegrees>
              <LongitudeDegrees>-0.32930326648056507110595703125</LongitudeDegrees>
            </Position>
            <AltitudeMeters>1458.4000244140625</AltitudeMeters>
            <DistanceMeters>3196.1106687048</DistanceMeters>
          </Trackpoint>
          <Trackpoint>
            <Time>2022-08-20T11:29:13.000Z</Time>
            <Position>
              <LatitudeDegrees>42.7921089716255664825439453125</LatitudeDegrees>
              <LongitudeDegrees>-0.32932304777204990386962890625</LongitudeDegrees>
            </Position>
            <AltitudeMeters>1459</AltitudeMeters>
            <DistanceMeters>3198.3553919964</DistanceMeters>
          </Trackpoint>
          <Trackpoint>
            <Time>2022-08-20T11:29:14.000Z</Time>
            <Position>
              <LatitudeDegrees>42.79211559332907199859619140625</LatitudeDegrees>
              <LongitudeDegrees>-0.3293310105800628662109375</LongitudeDegrees>
            </Position>
            <AltitudeMeters>1459</AltitudeMeters>
            <DistanceMeters>3199.3383559731</DistanceMeters>
          </Trackpoint>
          <Trackpoint>
            <Time>2022-08-20T11:29:15.000Z</Time>
            <Position>
              <LatitudeDegrees>42.79212280176579952239990234375</LatitudeDegrees>
              <LongitudeDegrees>-0.329340063035488128662109375</LongitudeDegrees>
            </Position>
            <AltitudeMeters>1459</AltitudeMeters>
            <DistanceMeters>3200.4259864315</DistanceMeters>
          </Trackpoint>
          <Trackpoint>
            <Time>2022-08-20T11:29:16.000Z</Time>
            <Position>
              <LatitudeDegrees>42.7921304292976856231689453125</LatitudeDegrees>
              <LongitudeDegrees>-0.3293502889573574066162109375</LongitudeDegrees>
            </Position>
            <AltitudeMeters>1459.199951171875</AltitudeMeters>
            <DistanceMeters>3201.6204537095</DistanceMeters>
          </Trackpoint>
          <Trackpoint>
            <Time>2022-08-20T11:29:17.000Z</Time>
            <Position>
              <LatitudeDegrees>42.79214509762823581695556640625</LatitudeDegrees>
              <LongitudeDegrees>-0.3293670527637004852294921875</LongitudeDegrees>
            </Position>
            <AltitudeMeters>1459.199951171875</AltitudeMeters>
            <DistanceMeters>3203.7516806921</DistanceMeters>
          </Trackpoint>
          <Trackpoint>
            <Time>2022-08-20T11:29:18.000Z</Time>
            <Position>
              <LatitudeDegrees>42.79214962385594844818115234375</LatitudeDegrees>
              <LongitudeDegrees>-0.3293871693313121795654296875</LongitudeDegrees>
            </Position>
            <AltitudeMeters>1459.5999755859375</AltitudeMeters>
            <DistanceMeters>3205.4700621972</DistanceMeters>
          </Trackpoint>
          <Trackpoint>
            <Time>2022-08-20T11:29:22.000Z</Time>
            <Position>
              <LatitudeDegrees>42.792191617190837860107421875</LatitudeDegrees>
              <LongitudeDegrees>-0.329437293112277984619140625</LongitudeDegrees>
            </Position>
            <AltitudeMeters>1461.4000244140625</AltitudeMeters>
            <DistanceMeters>3211.6839665153</DistanceMeters>
          </Trackpoint>
          <Trackpoint>
            <Time>2022-08-20T11:29:24.000Z</Time>
            <Position>
              <LatitudeDegrees>42.79220595024526119232177734375</LatitudeDegrees>
              <LongitudeDegrees>-0.3294736705720424652099609375</LongitudeDegrees>
            </Position>
            <AltitudeMeters>1463.4000244140625</AltitudeMeters>
            <DistanceMeters>3215.0544021201</DistanceMeters>
          </Trackpoint>
          <Trackpoint>
            <Time>2022-08-20T11:29:29.000Z</Time>
            <Position>
              <LatitudeDegrees>42.792250625789165496826171875</LatitudeDegrees>
              <LongitudeDegrees>-0.329510383307933807373046875</LongitudeDegrees>
            </Position>
            <AltitudeMeters>1463</AltitudeMeters>
            <DistanceMeters>3220.8611486655</DistanceMeters>
          </Trackpoint>
          <Trackpoint>
            <Time>2022-08-20T11:29:33.000Z</Time>
            <Position>
              <LatitudeDegrees>42.79229496605694293975830078125</LatitudeDegrees>
              <LongitudeDegrees>-0.3295464254915714263916015625</LongitudeDegrees>
            </Position>
            <AltitudeMeters>1461.800048828125</AltitudeMeters>
            <DistanceMeters>3226.6069262003</DistanceMeters>
          </Trackpoint>
          <Trackpoint>
            <Time>2022-08-20T11:29:38.000Z</Time>
            <Position>
              <LatitudeDegrees>42.7923342771828174591064453125</LatitudeDegrees>
              <LongitudeDegrees>-0.32958338968455791473388671875</LongitudeDegrees>
            </Position>
            <AltitudeMeters>1461.5999755859375</AltitudeMeters>
            <DistanceMeters>3231.9224797174</DistanceMeters>
          </Trackpoint>
          <Trackpoint>
            <Time>2022-08-20T11:29:44.000Z</Time>
            <Position>
              <LatitudeDegrees>42.792393453419208526611328125</LatitudeDegrees>
              <LongitudeDegrees>-0.329636447131633758544921875</LongitudeDegrees>
            </Position>
            <AltitudeMeters>1461.199951171875</AltitudeMeters>
            <DistanceMeters>3239.8068342401</DistanceMeters>
          </Trackpoint>
          <Trackpoint>
            <Time>2022-08-20T11:29:48.000Z</Time>
            <Position>
              <LatitudeDegrees>42.79249059967696666717529296875</LatitudeDegrees>
              <LongitudeDegrees>-0.32965346239507198333740234375</LongitudeDegrees>
            </Position>
            <AltitudeMeters>1458</AltitudeMeters>
            <DistanceMeters>3250.7080179374</DistanceMeters>
          </Trackpoint>
          <Trackpoint>
            <Time>2022-08-20T11:29:54.000Z</Time>
            <Position>
              <LatitudeDegrees>42.79262672178447246551513671875</LatitudeDegrees>
              <LongitudeDegrees>-0.32969956286251544952392578125</LongitudeDegrees>
            </Position>
            <AltitudeMeters>1456</AltitudeMeters>
            <DistanceMeters>3266.3196086066</DistanceMeters>
          </Trackpoint>
          <Trackpoint>
            <Time>2022-08-20T11:29:58.000Z</Time>
            <Position>
              <LatitudeDegrees>42.7926926873624324798583984375</LatitudeDegrees>
              <LongitudeDegrees>-0.32974063418805599212646484375</LongitudeDegrees>
            </Position>
            <AltitudeMeters>1457.5999755859375</AltitudeMeters>
            <DistanceMeters>3274.3912875858</DistanceMeters>
          </Trackpoint>
          <Trackpoint>
            <Time>2022-08-20T11:30:03.000Z</Time>
            <Position>
              <LatitudeDegrees>42.7927686274051666259765625</LatitudeDegrees>
              <LongitudeDegrees>-0.32977349124848842620849609375</LongitudeDegrees>
            </Position>
            <AltitudeMeters>1458.800048828125</AltitudeMeters>
            <DistanceMeters>3283.2588636736</DistanceMeters>
          </Trackpoint>
          <Trackpoint>
            <Time>2022-08-20T11:30:04.000Z</Time>
            <Position>
              <LatitudeDegrees>42.7927848882973194122314453125</LatitudeDegrees>
              <LongitudeDegrees>-0.32977692782878875732421875</LongitudeDegrees>
            </Position>
            <AltitudeMeters>1458.199951171875</AltitudeMeters>
            <DistanceMeters>3285.0916725663</DistanceMeters>
          </Trackpoint>
          <Trackpoint>
            <Time>2022-08-20T11:30:05.000Z</Time>
            <Position>
              <LatitudeDegrees>42.792799472808837890625</LatitudeDegrees>
              <LongitudeDegrees>-0.3297781012952327728271484375</LongitudeDegrees>
            </Position>
            <AltitudeMeters>1457.800048828125</AltitudeMeters>
            <DistanceMeters>3286.7154897733</DistanceMeters>
          </Trackpoint>
          <Trackpoint>
            <Time>2022-08-20T11:30:06.000Z</Time>
            <Position>
              <LatitudeDegrees>42.792810536921024322509765625</LatitudeDegrees>
              <LongitudeDegrees>-0.3297854773700237274169921875</LongitudeDegrees>
            </Position>
            <AltitudeMeters>1457.5999755859375</AltitudeMeters>
            <DistanceMeters>3288.0892750465</DistanceMeters>
          </Trackpoint>
          <Trackpoint>
            <Time>2022-08-20T11:30:08.000Z</Time>
            <Position>
              <LatitudeDegrees>42.79283191077411174774169921875</LatitudeDegrees>
              <LongitudeDegrees>-0.329800061881542205810546875</LongitudeDegrees>
            </Position>
            <AltitudeMeters>1457.199951171875</AltitudeMeters>
            <DistanceMeters>3290.7500230488</DistanceMeters>
          </Trackpoint>
          <Trackpoint>
            <Time>2022-08-20T11:30:09.000Z</Time>
            <Position>
              <LatitudeDegrees>42.79284247197210788726806640625</LatitudeDegrees>
              <LongitudeDegrees>-0.32980483956634998321533203125</LongitudeDegrees>
            </Position>
            <AltitudeMeters>1456.800048828125</AltitudeMeters>
            <DistanceMeters>3291.9890198186</DistanceMeters>
          </Trackpoint>
          <Trackpoint>
            <Time>2022-08-20T11:30:10.000Z</Time>
            <Position>
              <LatitudeDegrees>42.7928516082465648651123046875</LatitudeDegrees>
              <LongitudeDegrees>-0.3298106230795383453369140625</LongitudeDegrees>
            </Position>
            <AltitudeMeters>1456.5999755859375</AltitudeMeters>
            <DistanceMeters>3293.1133910661</DistanceMeters>
          </Trackpoint>
          <Trackpoint>
            <Time>2022-08-20T11:30:20.000Z</Time>
            <Position>
              <LatitudeDegrees>42.79294087551534175872802734375</LatitudeDegrees>
              <LongitudeDegrees>-0.32987843267619609832763671875</LongitudeDegrees>
            </Position>
            <AltitudeMeters>1457.800048828125</AltitudeMeters>
            <DistanceMeters>3304.4880530518</DistanceMeters>
          </Trackpoint>
          <Trackpoint>
            <Time>2022-08-20T11:30:23.000Z</Time>
            <Position>
              <LatitudeDegrees>42.79296576976776123046875</LatitudeDegrees>
              <LongitudeDegrees>-0.32989804632961750030517578125</LongitudeDegrees>
            </Position>
            <AltitudeMeters>1458.4000244140625</AltitudeMeters>
            <DistanceMeters>3307.6880697216</DistanceMeters>
          </Trackpoint>
          <Trackpoint>
            <Time>2022-08-20T11:30:38.000Z</Time>
            <Position>
              <LatitudeDegrees>42.7931044064462184906005859375</LatitudeDegrees>
              <LongitudeDegrees>-0.33006149344146251678466796875</LongitudeDegrees>
            </Position>
            <AltitudeMeters>1463.800048828125</AltitudeMeters>
            <DistanceMeters>3328.0916131448</DistanceMeters>
          </Trackpoint>
          <Trackpoint>
            <Time>2022-08-20T11:30:42.000Z</Time>
            <Position>
              <LatitudeDegrees>42.793145477771759033203125</LatitudeDegrees>
              <LongitudeDegrees>-0.33008714206516742706298828125</LongitudeDegrees>
            </Position>
            <AltitudeMeters>1464.5999755859375</AltitudeMeters>
            <DistanceMeters>3333.1199542274</DistanceMeters>
          </Trackpoint>
          <Trackpoint>
            <Time>2022-08-20T11:30:44.000Z</Time>
            <Position>
              <LatitudeDegrees>42.79316626489162445068359375</LatitudeDegrees>
              <LongitudeDegrees>-0.33009476959705352783203125</LongitudeDegrees>
            </Position>
            <AltitudeMeters>1464.4000244140625</AltitudeMeters>
            <DistanceMeters>3335.5164367786</DistanceMeters>
          </Trackpoint>
          <Trackpoint>
            <Time>2022-08-20T11:30:45.000Z</Time>
            <Position>
              <LatitudeDegrees>42.79317489825189113616943359375</LatitudeDegrees>
              <LongitudeDegrees>-0.330100469291210174560546875</LongitudeDegrees>
            </Position>
            <AltitudeMeters>1464.4000244140625</AltitudeMeters>
            <DistanceMeters>3336.5831090019</DistanceMeters>
          </Trackpoint>
          <Trackpoint>
            <Time>2022-08-20T11:30:48.000Z</Time>
            <Position>
              <LatitudeDegrees>42.793208174407482147216796875</LatitudeDegrees>
              <LongitudeDegrees>-0.33011245541274547576904296875</LongitudeDegrees>
            </Position>
            <AltitudeMeters>1464</AltitudeMeters>
            <DistanceMeters>3340.413758323</DistanceMeters>
          </Trackpoint>
          <Trackpoint>
            <Time>2022-08-20T11:31:00.000Z</Time>
            <Position>
              <LatitudeDegrees>42.79333817772567272186279296875</LatitudeDegrees>
              <LongitudeDegrees>-0.33022259362041950225830078125</LongitudeDegrees>
            </Position>
            <AltitudeMeters>1464.4000244140625</AltitudeMeters>
            <DistanceMeters>3357.4519183622</DistanceMeters>
          </Trackpoint>
          <Trackpoint>
            <Time>2022-08-20T11:31:07.000Z</Time>
            <Position>
              <LatitudeDegrees>42.793410010635852813720703125</LatitudeDegrees>
              <LongitudeDegrees>-0.33030155114829540252685546875</LongitudeDegrees>
            </Position>
            <AltitudeMeters>1466.4000244140625</AltitudeMeters>
            <DistanceMeters>3367.7240380679</DistanceMeters>
          </Trackpoint>
          <Trackpoint>
            <Time>2022-08-20T11:31:10.000Z</Time>
            <Position>
              <LatitudeDegrees>42.79345200397074222564697265625</LatitudeDegrees>
              <LongitudeDegrees>-0.33032946288585662841796875</LongitudeDegrees>
            </Position>
            <AltitudeMeters>1466.800048828125</AltitudeMeters>
            <DistanceMeters>3372.9245264055</DistanceMeters>
          </Trackpoint>
          <Trackpoint>
            <Time>2022-08-20T11:31:11.000Z</Time>
            <Position>
              <LatitudeDegrees>42.79346323572099208831787109375</LatitudeDegrees>
              <LongitudeDegrees>-0.33032837323844432830810546875</LongitudeDegrees>
            </Position>
            <AltitudeMeters>1466.5999755859375</AltitudeMeters>
            <DistanceMeters>3374.1780148583</DistanceMeters>
          </Trackpoint>
          <Trackpoint>
            <Time>2022-08-20T11:31:20.000Z</Time>
            <Position>
              <LatitudeDegrees>42.7935818396508693695068359375</LatitudeDegrees>
              <LongitudeDegrees>-0.330430381000041961669921875</LongitudeDegrees>
            </Position>
            <AltitudeMeters>1468.4000244140625</AltitudeMeters>
            <DistanceMeters>3389.7881594072</DistanceMeters>
          </Trackpoint>
          <Trackpoint>
            <Time>2022-08-20T11:31:21.000Z</Time>
            <Position>
              <LatitudeDegrees>42.7935885451734066009521484375</LatitudeDegrees>
              <LongitudeDegrees>-0.33044211566448211669921875</LongitudeDegrees>
            </Position>
            <AltitudeMeters>1468.800048828125</AltitudeMeters>
            <DistanceMeters>3391.0050951232</DistanceMeters>
          </Trackpoint>
          <Trackpoint>
            <Time>2022-08-20T11:31:24.000Z</Time>
            <Position>
              <LatitudeDegrees>42.7936053089797496795654296875</LatitudeDegrees>
              <LongitudeDegrees>-0.3304794989526271820068359375</LongitudeDegrees>
            </Position>
            <AltitudeMeters>1470</AltitudeMeters>
            <DistanceMeters>3394.5834534616</DistanceMeters>
          </Trackpoint>
          <Trackpoint>
            <Time>2022-08-20T11:31:26.000Z</Time>
            <Position>
              <LatitudeDegrees>42.79361930675804615020751953125</LatitudeDegrees>
              <LongitudeDegrees>-0.33049634657800197601318359375</LongitudeDegrees>
            </Position>
            <AltitudeMeters>1470.4000244140625</AltitudeMeters>
            <DistanceMeters>3396.6610425788</DistanceMeters>
          </Trackpoint>
          <Trackpoint>
            <Time>2022-08-20T11:31:28.000Z</Time>
            <Position>
              <LatitudeDegrees>42.7936344780027866363525390625</LatitudeDegrees>
              <LongitudeDegrees>-0.33051461912691593170166015625</LongitudeDegrees>
            </Position>
            <AltitudeMeters>1470.800048828125</AltitudeMeters>
            <DistanceMeters>3398.9158004456</DistanceMeters>
          </Trackpoint>
          <Trackpoint>
            <Time>2022-08-20T11:31:29.000Z</Time>
            <Position>
              <LatitudeDegrees>42.79364093206822872161865234375</LatitudeDegrees>
              <LongitudeDegrees>-0.33052182756364345550537109375</LongitudeDegrees>
            </Position>
            <AltitudeMeters>1471</AltitudeMeters>
            <DistanceMeters>3399.837118624</DistanceMeters>
          </Trackpoint>
          <Trackpoint>
            <Time>2022-08-20T11:31:30.000Z</Time>
            <Position>
              <LatitudeDegrees>42.7936472184956073760986328125</LatitudeDegrees>
              <LongitudeDegrees>-0.3305277787148952484130859375</LongitudeDegrees>
            </Position>
            <AltitudeMeters>1471</AltitudeMeters>
            <DistanceMeters>3400.687063396</DistanceMeters>
          </Trackpoint>
          <Trackpoint>
            <Time>2022-08-20T11:31:31.000Z</Time>
            <Position>
              <LatitudeDegrees>42.79365601949393749237060546875</LatitudeDegrees>
              <LongitudeDegrees>-0.33053389750421047210693359375</LongitudeDegrees>
            </Position>
            <AltitudeMeters>1471.199951171875</AltitudeMeters>
            <DistanceMeters>3401.7788372236</DistanceMeters>
          </Trackpoint>
          <Trackpoint>
            <Time>2022-08-20T11:31:40.000Z</Time>
            <Position>
              <LatitudeDegrees>42.79373682104051113128662109375</LatitudeDegrees>
              <LongitudeDegrees>-0.33063230104744434356689453125</LongitudeDegrees>
            </Position>
            <AltitudeMeters>1472</AltitudeMeters>
            <DistanceMeters>3413.8397452091</DistanceMeters>
          </Trackpoint>
          <Trackpoint>
            <Time>2022-08-20T11:31:41.000Z</Time>
            <Position>
              <LatitudeDegrees>42.79374159872531890869140625</LatitudeDegrees>
              <LongitudeDegrees>-0.33064889721572399139404296875</LongitudeDegrees>
            </Position>
            <AltitudeMeters>1472.4000244140625</AltitudeMeters>
            <DistanceMeters>3415.2964771558</DistanceMeters>
          </Trackpoint>
          <Trackpoint>
            <Time>2022-08-20T11:31:46.000Z</Time>
            <Position>
              <LatitudeDegrees>42.79378107748925685882568359375</LatitudeDegrees>
              <LongitudeDegrees>-0.330711342394351959228515625</LongitudeDegrees>
            </Position>
            <AltitudeMeters>1473.199951171875</AltitudeMeters>
            <DistanceMeters>3422.0279646285</DistanceMeters>
          </Trackpoint>
          <Trackpoint>
            <Time>2022-08-20T11:32:02.000Z</Time>
            <Position>
              <LatitudeDegrees>42.79389289207756519317626953125</LatitudeDegrees>
              <LongitudeDegrees>-0.33089339733123779296875</LongitudeDegrees>
            </Position>
            <AltitudeMeters>1474.4000244140625</AltitudeMeters>
            <DistanceMeters>3441.4180719727</DistanceMeters>
          </Trackpoint>
          <Trackpoint>
            <Time>2022-08-20T11:32:14.000Z</Time>
            <Position>
              <LatitudeDegrees>42.79404024593532085418701171875</LatitudeDegrees>
              <LongitudeDegrees>-0.3310196287930011749267578125</LongitudeDegrees>
            </Position>
            <AltitudeMeters>1474.800048828125</AltitudeMeters>
            <DistanceMeters>3460.7902413643</DistanceMeters>
          </Trackpoint>
          <Trackpoint>
            <Time>2022-08-20T11:32:16.000Z</Time>
            <Position>
              <LatitudeDegrees>42.79406639747321605682373046875</LatitudeDegrees>
              <LongitudeDegrees>-0.33104619942605495452880859375</LongitudeDegrees>
            </Position>
            <AltitudeMeters>1474.800048828125</AltitudeMeters>
            <DistanceMeters>3464.4212070221</DistanceMeters>
          </Trackpoint>
          <Trackpoint>
            <Time>2022-08-20T11:32:24.000Z</Time>
            <Position>
              <LatitudeDegrees>42.79426890425384044647216796875</LatitudeDegrees>
              <LongitudeDegrees>-0.33112733624875545501708984375</LongitudeDegrees>
            </Position>
            <AltitudeMeters>1471</AltitudeMeters>
            <DistanceMeters>3487.9145322956</DistanceMeters>
          </Trackpoint>
          <Trackpoint>
            <Time>2022-08-20T11:32:30.000Z</Time>
            <Position>
              <LatitudeDegrees>42.79434551484882831573486328125</LatitudeDegrees>
              <LongitudeDegrees>-0.33115801401436328887939453125</LongitudeDegrees>
            </Position>
            <AltitudeMeters>1470.199951171875</AltitudeMeters>
            <DistanceMeters>3496.8014355008</DistanceMeters>
          </Trackpoint>
          <Trackpoint>
            <Time>2022-08-20T11:32:44.000Z</Time>
            <Position>
              <LatitudeDegrees>42.79450611211359500885009765625</LatitudeDegrees>
              <LongitudeDegrees>-0.33127100206911563873291015625</LongitudeDegrees>
            </Position>
            <AltitudeMeters>1469.4000244140625</AltitudeMeters>
            <DistanceMeters>3516.917942299</DistanceMeters>
          </Trackpoint>
          <Trackpoint>
            <Time>2022-08-20T11:32:54.000Z</Time>
            <Position>
              <LatitudeDegrees>42.79458221979439258575439453125</LatitudeDegrees>
              <LongitudeDegrees>-0.33134643919765949249267578125</LongitudeDegrees>
            </Position>
            <AltitudeMeters>1470.199951171875</AltitudeMeters>
            <DistanceMeters>3527.3928866363</DistanceMeters>
          </Trackpoint>
          <Trackpoint>
            <Time>2022-08-20T11:32:55.000Z</Time>
            <Position>
              <LatitudeDegrees>42.79458976350724697113037109375</LatitudeDegrees>
              <LongitudeDegrees>-0.33135331235826015472412109375</LongitudeDegrees>
            </Position>
            <AltitudeMeters>1470.199951171875</AltitudeMeters>
            <DistanceMeters>3528.4030344662</DistanceMeters>
          </Trackpoint>
          <Trackpoint>
            <Time>2022-08-20T11:32:57.000Z</Time>
            <Position>
              <LatitudeDegrees>42.79461021535098552703857421875</LatitudeDegrees>
              <LongitudeDegrees>-0.33136638812720775604248046875</LongitudeDegrees>
            </Position>
            <AltitudeMeters>1470.4000244140625</AltitudeMeters>
            <DistanceMeters>3530.9172050075</DistanceMeters>
          </Trackpoint>
          <Trackpoint>
            <Time>2022-08-20T11:33:02.000Z</Time>
            <Position>
              <LatitudeDegrees>42.79464977793395519256591796875</LatitudeDegrees>
              <LongitudeDegrees>-0.3314256481826305389404296875</LongitudeDegrees>
            </Position>
            <AltitudeMeters>1471.800048828125</AltitudeMeters>
            <DistanceMeters>3537.4609518315</DistanceMeters>
          </Trackpoint>
          <Trackpoint>
            <Time>2022-08-20T11:33:03.000Z</Time>
            <Position>
              <LatitudeDegrees>42.7946540527045726776123046875</LatitudeDegrees>
              <LongitudeDegrees>-0.33142908476293087005615234375</LongitudeDegrees>
            </Position>
            <AltitudeMeters>1471.800048828125</AltitudeMeters>
            <DistanceMeters>3538.0150480318</DistanceMeters>
          </Trackpoint>
          <Trackpoint>
            <Time>2022-08-20T11:33:04.000Z</Time>
            <Position>
              <LatitudeDegrees>42.7946577407419681549072265625</LatitudeDegrees>
              <LongitudeDegrees>-0.3314273245632648468017578125</LongitudeDegrees>
            </Position>
            <AltitudeMeters>1471.800048828125</AltitudeMeters>
            <DistanceMeters>3538.4400204178</DistanceMeters>
          </Trackpoint>
          <Trackpoint>
            <Time>2022-08-20T11:33:05.000Z</Time>
            <Position>
              <LatitudeDegrees>42.79467157088220119476318359375</LatitudeDegrees>
              <LongitudeDegrees>-0.33142204396426677703857421875</LongitudeDegrees>
            </Position>
            <AltitudeMeters>1471.199951171875</AltitudeMeters>
            <DistanceMeters>3540.0357903126</DistanceMeters>
          </Trackpoint>
          <Trackpoint>
            <Time>2022-08-20T11:33:10.000Z</Time>
            <Position>
              <LatitudeDegrees>42.794772572815418243408203125</LatitudeDegrees>
              <LongitudeDegrees>-0.3314233012497425079345703125</LongitudeDegrees>
            </Position>
            <AltitudeMeters>1469.4000244140625</AltitudeMeters>
            <DistanceMeters>3551.277896428</DistanceMeters>
          </Trackpoint>
          <Trackpoint>
            <Time>2022-08-20T11:33:22.000Z</Time>
            <Position>
              <LatitudeDegrees>42.79491598717868328094482421875</LatitudeDegrees>
              <LongitudeDegrees>-0.33157358877360820770263671875</LongitudeDegrees>
            </Position>
            <AltitudeMeters>1470.5999755859375</AltitudeMeters>
            <DistanceMeters>3571.4136961969</DistanceMeters>
          </Trackpoint>
          <Trackpoint>
            <Time>2022-08-20T11:33:38.000Z</Time>
            <Position>
              <LatitudeDegrees>42.795068286359310150146484375</LatitudeDegrees>
              <LongitudeDegrees>-0.3316905163228511810302734375</LongitudeDegrees>
            </Position>
            <AltitudeMeters>1472.199951171875</AltitudeMeters>
            <DistanceMeters>3590.8698213129</DistanceMeters>
          </Trackpoint>
          <Trackpoint>
            <Time>2022-08-20T11:33:41.000Z</Time>
            <Position>
              <LatitudeDegrees>42.7951073460280895233154296875</LatitudeDegrees>
              <LongitudeDegrees>-0.33169998787343502044677734375</LongitudeDegrees>
            </Position>
            <AltitudeMeters>1470.800048828125</AltitudeMeters>
            <DistanceMeters>3595.2852414563</DistanceMeters>
          </Trackpoint>
          <Trackpoint>
            <Time>2022-08-20T11:33:45.000Z</Time>
            <Position>
              <LatitudeDegrees>42.79516828246414661407470703125</LatitudeDegrees>
              <LongitudeDegrees>-0.3317273966968059539794921875</LongitudeDegrees>
            </Position>
            <AltitudeMeters>1468.800048828125</AltitudeMeters>
            <DistanceMeters>3602.4268009327</DistanceMeters>
          </Trackpoint>
          <Trackpoint>
            <Time>2022-08-20T11:33:51.000Z</Time>
            <Position>
              <LatitudeDegrees>42.7952354215085506439208984375</LatitudeDegrees>
              <LongitudeDegrees>-0.33180534839630126953125</LongitudeDegrees>
            </Position>
            <AltitudeMeters>1470.199951171875</AltitudeMeters>
            <DistanceMeters>3612.243571064</DistanceMeters>
          </Trackpoint>
          <Trackpoint>
            <Time>2022-08-20T11:33:53.000Z</Time>
            <Position>
              <LatitudeDegrees>42.79525034129619598388671875</LatitudeDegrees>
              <LongitudeDegrees>-0.3318299911916255950927734375</LongitudeDegrees>
            </Position>
            <AltitudeMeters>1471.4000244140625</AltitudeMeters>
            <DistanceMeters>3614.8529153569</DistanceMeters>
          </Trackpoint>
          <Trackpoint>
            <Time>2022-08-20T11:33:54.000Z</Time>
            <Position>
              <LatitudeDegrees>42.795256040990352630615234375</LatitudeDegrees>
              <LongitudeDegrees>-0.331842899322509765625</LongitudeDegrees>
            </Position>
            <AltitudeMeters>1472.199951171875</AltitudeMeters>
            <DistanceMeters>3616.0772489265</DistanceMeters>
          </Trackpoint>
          <Trackpoint>
            <Time>2022-08-20T11:33:55.000Z</Time>
            <Position>
              <LatitudeDegrees>42.7952619083225727081298828125</LatitudeDegrees>
              <LongitudeDegrees>-0.331851951777935028076171875</LongitudeDegrees>
            </Position>
            <AltitudeMeters>1472.5999755859375</AltitudeMeters>
            <DistanceMeters>3617.0647955107</DistanceMeters>
          </Trackpoint>
          <Trackpoint>
            <Time>2022-08-20T11:33:56.000Z</Time>
            <Position>
              <LatitudeDegrees>42.7952679432928562164306640625</LatitudeDegrees>
              <LongitudeDegrees>-0.33186293207108974456787109375</LongitudeDegrees>
            </Position>
            <AltitudeMeters>1473.199951171875</AltitudeMeters>
            <DistanceMeters>3618.1851439501</DistanceMeters>
          </Trackpoint>
          <Trackpoint>
            <Time>2022-08-20T11:33:58.000Z</Time>
            <Position>
              <LatitudeDegrees>42.79528445564210414886474609375</LatitudeDegrees>
              <LongitudeDegrees>-0.33189293928444385528564453125</LongitudeDegrees>
            </Position>
            <AltitudeMeters>1474.5999755859375</AltitudeMeters>
            <DistanceMeters>3621.248189726</DistanceMeters>
          </Trackpoint>
          <Trackpoint>
            <Time>2022-08-20T11:34:01.000Z</Time>
            <Position>
              <LatitudeDegrees>42.79531295411288738250732421875</LatitudeDegrees>
              <LongitudeDegrees>-0.33193753100931644439697265625</LongitudeDegrees>
            </Position>
            <AltitudeMeters>1476</AltitudeMeters>
            <DistanceMeters>3626.077753625</DistanceMeters>
          </Trackpoint>
          <Trackpoint>
            <Time>2022-08-20T11:34:14.000Z</Time>
            <Position>
              <LatitudeDegrees>42.7954774908721446990966796875</LatitudeDegrees>
              <LongitudeDegrees>-0.332050435245037078857421875</LongitudeDegrees>
            </Position>
            <AltitudeMeters>1472</AltitudeMeters>
            <DistanceMeters>3646.5815152049</DistanceMeters>
          </Trackpoint>
          <Trackpoint>
            <Time>2022-08-20T11:34:21.000Z</Time>
            <Position>
              <LatitudeDegrees>42.79556994326412677764892578125</LatitudeDegrees>
              <LongitudeDegrees>-0.33210684545338153839111328125</LongitudeDegrees>
            </Position>
            <AltitudeMeters>1466.800048828125</AltitudeMeters>
            <DistanceMeters>3657.8557050217</DistanceMeters>
          </Trackpoint>
          <Trackpoint>
            <Time>2022-08-20T11:34:22.000Z</Time>
            <Position>
              <LatitudeDegrees>42.795580588281154632568359375</LatitudeDegrees>
              <LongitudeDegrees>-0.3321106173098087310791015625</LongitudeDegrees>
            </Position>
            <AltitudeMeters>1466.199951171875</AltitudeMeters>
            <DistanceMeters>3659.0800385913</DistanceMeters>
          </Trackpoint>
          <Trackpoint>
            <Time>2022-08-20T11:34:23.000Z</Time>
            <Position>
              <LatitudeDegrees>42.79559173621237277984619140625</LatitudeDegrees>
              <LongitudeDegrees>-0.33211623318493366241455078125</LongitudeDegrees>
            </Position>
            <AltitudeMeters>1465.4000244140625</AltitudeMeters>
            <DistanceMeters>3660.4036075658</DistanceMeters>
          </Trackpoint>
          <Trackpoint>
            <Time>2022-08-20T11:34:24.000Z</Time>
            <Position>
              <LatitudeDegrees>42.79560095630586147308349609375</LatitudeDegrees>
              <LongitudeDegrees>-0.332126878201961517333984375</LongitudeDegrees>
            </Position>
            <AltitudeMeters>1465.199951171875</AltitudeMeters>
            <DistanceMeters>3661.7474882483</DistanceMeters>
          </Trackpoint>
          <Trackpoint>
            <Time>2022-08-20T11:34:26.000Z</Time>
            <Position>
              <LatitudeDegrees>42.7957034669816493988037109375</LatitudeDegrees>
              <LongitudeDegrees>-0.33213601447641849517822265625</LongitudeDegrees>
            </Position>
            <AltitudeMeters>1460.199951171875</AltitudeMeters>
            <DistanceMeters>3673.1815359461</DistanceMeters>
          </Trackpoint>
          <Trackpoint>
            <Time>2022-08-20T11:34:28.000Z</Time>
            <Position>
              <LatitudeDegrees>42.7957493998110294342041015625</LatitudeDegrees>
              <LongitudeDegrees>-0.33214556984603404998779296875</LongitudeDegrees>
            </Position>
            <AltitudeMeters>1458.800048828125</AltitudeMeters>
            <DistanceMeters>3678.3532944891</DistanceMeters>
          </Trackpoint>
          <Trackpoint>
            <Time>2022-08-20T11:34:29.000Z</Time>
            <Position>
              <LatitudeDegrees>42.79576725326478481292724609375</LatitudeDegrees>
              <LongitudeDegrees>-0.332151688635349273681640625</LongitudeDegrees>
            </Position>
            <AltitudeMeters>1458.199951171875</AltitudeMeters>
            <DistanceMeters>3680.4002325609</DistanceMeters>
          </Trackpoint>
          <Trackpoint>
            <Time>2022-08-20T11:34:31.000Z</Time>
            <Position>
              <LatitudeDegrees>42.79579885303974151611328125</LatitudeDegrees>
              <LongitudeDegrees>-0.33216870389878749847412109375</LongitudeDegrees>
            </Position>
            <AltitudeMeters>1457.4000244140625</AltitudeMeters>
            <DistanceMeters>3684.1798596502</DistanceMeters>
          </Trackpoint>
          <Trackpoint>
            <Time>2022-08-20T11:34:32.000Z</Time>
            <Position>
              <LatitudeDegrees>42.7958127669990062713623046875</LatitudeDegrees>
              <LongitudeDegrees>-0.33217507414519786834716796875</LongitudeDegrees>
            </Position>
            <AltitudeMeters>1457</AltitudeMeters>
            <DistanceMeters>3685.8119970682</DistanceMeters>
          </Trackpoint>
          <Trackpoint>
            <Time>2022-08-20T11:34:33.000Z</Time>
            <Position>
              <LatitudeDegrees>42.79582827351987361907958984375</LatitudeDegrees>
              <LongitudeDegrees>-0.3321820311248302459716796875</LongitudeDegrees>
            </Position>
            <AltitudeMeters>1456.800048828125</AltitudeMeters>
            <DistanceMeters>3687.6299651588</DistanceMeters>
          </Trackpoint>
          <Trackpoint>
            <Time>2022-08-20T11:34:34.000Z</Time>
            <Position>
              <LatitudeDegrees>42.7958436124026775360107421875</LatitudeDegrees>
              <LongitudeDegrees>-0.33218965865671634674072265625</LongitudeDegrees>
            </Position>
            <AltitudeMeters>1456.5999755859375</AltitudeMeters>
            <DistanceMeters>3689.4479332494</DistanceMeters>
          </Trackpoint>
          <Trackpoint>
            <Time>2022-08-20T11:34:35.000Z</Time>
            <Position>
              <LatitudeDegrees>42.7958613820374011993408203125</LatitudeDegrees>
              <LongitudeDegrees>-0.33219334669411182403564453125</LongitudeDegrees>
            </Position>
            <AltitudeMeters>1456</AltitudeMeters>
            <DistanceMeters>3691.4502703691</DistanceMeters>
          </Trackpoint>
          <Trackpoint>
            <Time>2022-08-20T11:34:48.000Z</Time>
            <Position>
              <LatitudeDegrees>42.796042263507843017578125</LatitudeDegrees>
              <LongitudeDegrees>-0.33225755207240581512451171875</LongitudeDegrees>
            </Position>
            <AltitudeMeters>1453.800048828125</AltitudeMeters>
            <DistanceMeters>3712.254394094</DistanceMeters>
          </Trackpoint>
          <Trackpoint>
            <Time>2022-08-20T11:34:56.000Z</Time>
            <Position>
              <LatitudeDegrees>42.79611669480800628662109375</LatitudeDegrees>
              <LongitudeDegrees>-0.33235855400562286376953125</LongitudeDegrees>
            </Position>
            <AltitudeMeters>1455</AltitudeMeters>
            <DistanceMeters>3723.945383661</DistanceMeters>
          </Trackpoint>
          <Trackpoint>
            <Time>2022-08-20T11:34:58.000Z</Time>
            <Position>
              <LatitudeDegrees>42.7961389906704425811767578125</LatitudeDegrees>
              <LongitudeDegrees>-0.332377664744853973388671875</LongitudeDegrees>
            </Position>
            <AltitudeMeters>1454.800048828125</AltitudeMeters>
            <DistanceMeters>3726.8773851573</DistanceMeters>
          </Trackpoint>
          <Trackpoint>
            <Time>2022-08-20T11:34:59.000Z</Time>
            <Position>
              <LatitudeDegrees>42.79615198262035846710205078125</LatitudeDegrees>
              <LongitudeDegrees>-0.33238261006772518157958984375</LongitudeDegrees>
            </Position>
            <AltitudeMeters>1454.4000244140625</AltitudeMeters>
            <DistanceMeters>3728.3798894372</DistanceMeters>
          </Trackpoint>
          <Trackpoint>
            <Time>2022-08-20T11:35:00.000Z</Time>
            <Position>
              <LatitudeDegrees>42.7961641363799571990966796875</LatitudeDegrees>
              <LongitudeDegrees>-0.33238931559026241302490234375</LongitudeDegrees>
            </Position>
            <AltitudeMeters>1454.199951171875</AltitudeMeters>
            <DistanceMeters>3729.8397175232</DistanceMeters>
          </Trackpoint>
          <Trackpoint>
            <Time>2022-08-20T11:35:04.000Z</Time>
            <Position>
              <LatitudeDegrees>42.79620478861033916473388671875</LatitudeDegrees>
              <LongitudeDegrees>-0.33238428644835948944091796875</LongitudeDegrees>
            </Position>
            <AltitudeMeters>1452.800048828125</AltitudeMeters>
            <DistanceMeters>3734.3831473676</DistanceMeters>
          </Trackpoint>
          <Trackpoint>
            <Time>2022-08-20T11:35:19.000Z</Time>
            <Position>
              <LatitudeDegrees>42.79635717160999774932861328125</LatitudeDegrees>
              <LongitudeDegrees>-0.33223290927708148956298828125</LongitudeDegrees>
            </Position>
            <AltitudeMeters>1446.800048828125</AltitudeMeters>
            <DistanceMeters>3755.3713628489</DistanceMeters>
          </Trackpoint>
          <Trackpoint>
            <Time>2022-08-20T11:35:21.000Z</Time>
            <Position>
              <LatitudeDegrees>42.7963803894817829132080078125</LatitudeDegrees>
              <LongitudeDegrees>-0.33222201280295848846435546875</LongitudeDegrees>
            </Position>
            <AltitudeMeters>1446.4000244140625</AltitudeMeters>
            <DistanceMeters>3758.1024511197</DistanceMeters>
          </Trackpoint>
          <Trackpoint>
            <Time>2022-08-20T11:35:25.000Z</Time>
            <Position>
              <LatitudeDegrees>42.79644987545907497406005859375</LatitudeDegrees>
              <LongitudeDegrees>-0.3322132118046283721923828125</LongitudeDegrees>
            </Position>
            <AltitudeMeters>1445.199951171875</AltitudeMeters>
            <DistanceMeters>3765.8691048808</DistanceMeters>
          </Trackpoint>
          <Trackpoint>
            <Time>2022-08-20T11:35:33.000Z</Time>
            <Position>
              <LatitudeDegrees>42.79652573168277740478515625</LatitudeDegrees>
              <LongitudeDegrees>-0.3322492539882659912109375</LongitudeDegrees>
            </Position>
            <AltitudeMeters>1445.4000244140625</AltitudeMeters>
            <DistanceMeters>3774.8102047437</DistanceMeters>
          </Trackpoint>
          <Trackpoint>
            <Time>2022-08-20T11:35:45.000Z</Time>
            <Position>
              <LatitudeDegrees>42.79670099727809429168701171875</LatitudeDegrees>
              <LongitudeDegrees>-0.3323261998593807220458984375</LongitudeDegrees>
            </Position>
            <AltitudeMeters>1445</AltitudeMeters>
            <DistanceMeters>3795.3047156116</DistanceMeters>
          </Trackpoint>
          <Trackpoint>
            <Time>2022-08-20T11:35:50.000Z</Time>
            <Position>
              <LatitudeDegrees>42.79678481630980968475341796875</LatitudeDegrees>
              <LongitudeDegrees>-0.33237338997423648834228515625</LongitudeDegrees>
            </Position>
            <AltitudeMeters>1444.5999755859375</AltitudeMeters>
            <DistanceMeters>3805.3990398879</DistanceMeters>
          </Trackpoint>
          <Trackpoint>
            <Time>2022-08-20T11:35:51.000Z</Time>
            <Position>
              <LatitudeDegrees>42.7967971377074718475341796875</LatitudeDegrees>
              <LongitudeDegrees>-0.33238805830478668212890625</LongitudeDegrees>
            </Position>
            <AltitudeMeters>1444.800048828125</AltitudeMeters>
            <DistanceMeters>3807.2170079785</DistanceMeters>
          </Trackpoint>
          <Trackpoint>
            <Time>2022-08-20T11:35:52.000Z</Time>
            <Position>
              <LatitudeDegrees>42.79681080020964145660400390625</LatitudeDegrees>
              <LongitudeDegrees>-0.33240616321563720703125</LongitudeDegrees>
            </Position>
            <AltitudeMeters>1444.5999755859375</AltitudeMeters>
            <DistanceMeters>3809.3376159265</DistanceMeters>
          </Trackpoint>
          <Trackpoint>
            <Time>2022-08-20T11:35:54.000Z</Time>
            <Position>
              <LatitudeDegrees>42.796835862100124359130859375</LatitudeDegrees>
              <LongitudeDegrees>-0.33243373967707157135009765625</LongitudeDegrees>
            </Position>
            <AltitudeMeters>1444.199951171875</AltitudeMeters>
            <DistanceMeters>3812.9222775255</DistanceMeters>
          </Trackpoint>
          <Trackpoint>
            <Time>2022-08-20T11:36:00.000Z</Time>
            <Position>
              <LatitudeDegrees>42.7968846447765827178955078125</LatitudeDegrees>
              <LongitudeDegrees>-0.33252191729843616485595703125</LongitudeDegrees>
            </Position>
            <AltitudeMeters>1444.5999755859375</AltitudeMeters>
            <DistanceMeters>3821.9413089928</DistanceMeters>
          </Trackpoint>
          <Trackpoint>
            <Time>2022-08-20T11:36:03.000Z</Time>
            <Position>
              <LatitudeDegrees>42.79691372998058795928955078125</LatitudeDegrees>
              <LongitudeDegrees>-0.3325605578720569610595703125</LongitudeDegrees>
            </Position>
            <AltitudeMeters>1444.800048828125</AltitudeMeters>
            <DistanceMeters>3826.4628234591</DistanceMeters>
          </Trackpoint>
          <Trackpoint>
            <Time>2022-08-20T11:36:05.000Z</Time>
            <Position>
              <LatitudeDegrees>42.79693116433918476104736328125</LatitudeDegrees>
              <LongitudeDegrees>-0.33258846960961818695068359375</LongitudeDegrees>
            </Position>
            <AltitudeMeters>1444.800048828125</AltitudeMeters>
            <DistanceMeters>3829.4572960185</DistanceMeters>
          </Trackpoint>
          <Trackpoint>
            <Time>2022-08-20T11:36:08.000Z</Time>
            <Position>
              <LatitudeDegrees>42.79695597477257251739501953125</LatitudeDegrees>
              <LongitudeDegrees>-0.33261730335652828216552734375</LongitudeDegrees>
            </Position>
            <AltitudeMeters>1444.800048828125</AltitudeMeters>
            <DistanceMeters>3833.0870179819</DistanceMeters>
          </Trackpoint>
          <Trackpoint>
            <Time>2022-08-20T11:36:10.000Z</Time>
            <Position>
              <LatitudeDegrees>42.7969716489315032958984375</LatitudeDegrees>
              <LongitudeDegrees>-0.33265292644500732421875</LongitudeDegrees>
            </Position>
            <AltitudeMeters>1445</AltitudeMeters>
            <DistanceMeters>3836.4788194781</DistanceMeters>
          </Trackpoint>
          <Trackpoint>
            <Time>2022-08-20T11:36:22.000Z</Time>
            <Position>
              <LatitudeDegrees>42.7970894984900951385498046875</LatitudeDegrees>
              <LongitudeDegrees>-0.33282802440226078033447265625</LongitudeDegrees>
            </Position>
            <AltitudeMeters>1446</AltitudeMeters>
            <DistanceMeters>3855.8833583172</DistanceMeters>
          </Trackpoint>
          <Trackpoint>
            <Time>2022-08-20T11:36:27.000Z</Time>
            <Position>
              <LatitudeDegrees>42.79712193645536899566650390625</LatitudeDegrees>
              <LongitudeDegrees>-0.3328904695808887481689453125</LongitudeDegrees>
            </Position>
            <AltitudeMeters>1446.800048828125</AltitudeMeters>
            <DistanceMeters>3862.1305969385</DistanceMeters>
          </Trackpoint>
          <Trackpoint>
            <Time>2022-08-20T11:36:31.000Z</Time>
            <Position>
              <LatitudeDegrees>42.797152698040008544921875</LatitudeDegrees>
              <LongitudeDegrees>-0.332936905324459075927734375</LongitudeDegrees>
            </Position>
            <AltitudeMeters>1447.4000244140625</AltitudeMeters>
            <DistanceMeters>3867.2399952396</DistanceMeters>
          </Trackpoint>
          <Trackpoint>
            <Time>2022-08-20T11:36:39.000Z</Time>
            <Position>
              <LatitudeDegrees>42.797243893146514892578125</LatitudeDegrees>
              <LongitudeDegrees>-0.33299733884632587432861328125</LongitudeDegrees>
            </Position>
            <AltitudeMeters>1447.4000244140625</AltitudeMeters>
            <DistanceMeters>3878.5261929305</DistanceMeters>
          </Trackpoint>
          <Trackpoint>
            <Time>2022-08-20T11:36:40.000Z</Time>
            <Position>
              <LatitudeDegrees>42.79725235886871814727783203125</LatitudeDegrees>
              <LongitudeDegrees>-0.33300873823463916778564453125</LongitudeDegrees>
            </Position>
            <AltitudeMeters>1447.5999755859375</AltitudeMeters>
            <DistanceMeters>3879.849761905</DistanceMeters>
          </Trackpoint>
          <Trackpoint>
            <Time>2022-08-20T11:36:45.000Z</Time>
            <Position>
              <LatitudeDegrees>42.79728454537689685821533203125</LatitudeDegrees>
              <LongitudeDegrees>-0.333052240312099456787109375</LongitudeDegrees>
            </Position>
            <AltitudeMeters>1448.4000244140625</AltitudeMeters>
            <DistanceMeters>3884.8960293941</DistanceMeters>
          </Trackpoint>
          <Trackpoint>
            <Time>2022-08-20T11:36:56.000Z</Time>
            <Position>
              <LatitudeDegrees>42.79739233665168285369873046875</LatitudeDegrees>
              <LongitudeDegrees>-0.33313496969640254974365234375</LongitudeDegrees>
            </Position>
            <AltitudeMeters>1449.199951171875</AltitudeMeters>
            <DistanceMeters>3898.6650691188</DistanceMeters>
          </Trackpoint>
          <Trackpoint>
            <Time>2022-08-20T11:37:03.000Z</Time>
            <Position>
              <LatitudeDegrees>42.797442711889743804931640625</LatitudeDegrees>
              <LongitudeDegrees>-0.3331960737705230712890625</LongitudeDegrees>
            </Position>
            <AltitudeMeters>1449.800048828125</AltitudeMeters>
            <DistanceMeters>3906.1715780951</DistanceMeters>
          </Trackpoint>
          <Trackpoint>
            <Time>2022-08-20T11:37:12.000Z</Time>
            <Position>
              <LatitudeDegrees>42.79754689894616603851318359375</LatitudeDegrees>
              <LongitudeDegrees>-0.3332763724029064178466796875</LongitudeDegrees>
            </Position>
            <AltitudeMeters>1448.5999755859375</AltitudeMeters>
            <DistanceMeters>3919.4939709922</DistanceMeters>
          </Trackpoint>
          <Trackpoint>
            <Time>2022-08-20T11:37:15.000Z</Time>
            <Position>
              <LatitudeDegrees>42.797582186758518218994140625</LatitudeDegrees>
              <LongitudeDegrees>-0.33329606987535953521728515625</LongitudeDegrees>
            </Position>
            <AltitudeMeters>1448.199951171875</AltitudeMeters>
            <DistanceMeters>3923.7373154785</DistanceMeters>
          </Trackpoint>
          <Trackpoint>
            <Time>2022-08-20T11:37:17.000Z</Time>
            <Position>
              <LatitudeDegrees>42.797608673572540283203125</LatitudeDegrees>
              <LongitudeDegrees>-0.33330847509205341339111328125</LongitudeDegrees>
            </Position>
            <AltitudeMeters>1448.199951171875</AltitudeMeters>
            <DistanceMeters>3926.8544234737</DistanceMeters>
          </Trackpoint>
          <Trackpoint>
            <Time>2022-08-20T11:37:20.000Z</Time>
            <Position>
              <LatitudeDegrees>42.79764647595584392547607421875</LatitudeDegrees>
              <LongitudeDegrees>-0.3333350457251071929931640625</LongitudeDegrees>
            </Position>
            <AltitudeMeters>1448.199951171875</AltitudeMeters>
            <DistanceMeters>3931.5886234836</DistanceMeters>
          </Trackpoint>
          <Trackpoint>
            <Time>2022-08-20T11:37:24.000Z</Time>
            <Position>
              <LatitudeDegrees>42.7976950071752071380615234375</LatitudeDegrees>
              <LongitudeDegrees>-0.3333675675094127655029296875</LongitudeDegrees>
            </Position>
            <AltitudeMeters>1448.199951171875</AltitudeMeters>
            <DistanceMeters>3937.6076488776</DistanceMeters>
          </Trackpoint>
          <Trackpoint>
            <Time>2022-08-20T11:37:30.000Z</Time>
            <Position>
              <LatitudeDegrees>42.79776784591376781463623046875</LatitudeDegrees>
              <LongitudeDegrees>-0.33340687863528728485107421875</LongitudeDegrees>
            </Position>
            <AltitudeMeters>1448</AltitudeMeters>
            <DistanceMeters>3946.3263175549</DistanceMeters>
          </Trackpoint>
          <Trackpoint>
            <Time>2022-08-20T11:37:35.000Z</Time>
            <Position>
              <LatitudeDegrees>42.797830291092395782470703125</LatitudeDegrees>
              <LongitudeDegrees>-0.33344887197017669677734375</LongitudeDegrees>
            </Position>
            <AltitudeMeters>1447.800048828125</AltitudeMeters>
            <DistanceMeters>3954.076676805</DistanceMeters>
          </Trackpoint>
          <Trackpoint>
            <Time>2022-08-20T11:37:36.000Z</Time>
            <Position>
              <LatitudeDegrees>42.79784663580358028411865234375</LatitudeDegrees>
              <LongitudeDegrees>-0.33345532603561878204345703125</LongitudeDegrees>
            </Position>
            <AltitudeMeters>1447.5999755859375</AltitudeMeters>
            <DistanceMeters>3955.9700706753</DistanceMeters>
          </Trackpoint>
          <Trackpoint>
            <Time>2022-08-20T11:37:37.000Z</Time>
            <Position>
              <LatitudeDegrees>42.79785954393446445465087890625</LatitudeDegrees>
              <LongitudeDegrees>-0.33346890471875667572021484375</LongitudeDegrees>
            </Position>
            <AltitudeMeters>1447.5999755859375</AltitudeMeters>
            <DistanceMeters>3957.7855535042</DistanceMeters>
          </Trackpoint>
          <Trackpoint>
            <Time>2022-08-20T11:37:39.000Z</Time>
            <Position>
              <LatitudeDegrees>42.79788334853947162628173828125</LatitudeDegrees>
              <LongitudeDegrees>-0.33348768018186092376708984375</LongitudeDegrees>
            </Position>
            <AltitudeMeters>1448.199951171875</AltitudeMeters>
            <DistanceMeters>3960.8471248898</DistanceMeters>
          </Trackpoint>
          <Trackpoint>
            <Time>2022-08-20T11:37:53.000Z</Time>
            <Position>
              <LatitudeDegrees>42.79806037433445453643798828125</LatitudeDegrees>
              <LongitudeDegrees>-0.333529002964496612548828125</LongitudeDegrees>
            </Position>
            <AltitudeMeters>1451.800048828125</AltitudeMeters>
            <DistanceMeters>3980.8370959452</DistanceMeters>
          </Trackpoint>
          <Trackpoint>
            <Time>2022-08-20T11:38:03.000Z</Time>
            <Position>
              <LatitudeDegrees>42.79816632159054279327392578125</LatitudeDegrees>
              <LongitudeDegrees>-0.33354300074279308319091796875</LongitudeDegrees>
            </Position>
            <AltitudeMeters>1454</AltitudeMeters>
            <DistanceMeters>3992.68498767</DistanceMeters>
          </Trackpoint>
          <Trackpoint>
            <Time>2022-08-20T11:38:07.000Z</Time>
            <Position>
              <LatitudeDegrees>42.79820839874446392059326171875</LatitudeDegrees>
              <LongitudeDegrees>-0.333569906651973724365234375</LongitudeDegrees>
            </Position>
            <AltitudeMeters>1455.199951171875</AltitudeMeters>
            <DistanceMeters>3997.8584919543</DistanceMeters>
          </Trackpoint>
          <Trackpoint>
            <Time>2022-08-20T11:38:10.000Z</Time>
            <Position>
              <LatitudeDegrees>42.7982498891651630401611328125</LatitudeDegrees>
              <LongitudeDegrees>-0.33358122222125530242919921875</LongitudeDegrees>
            </Position>
            <AltitudeMeters>1456</AltitudeMeters>
            <DistanceMeters>4002.5687889537</DistanceMeters>
          </Trackpoint>
          <Trackpoint>
            <Time>2022-08-20T11:38:11.000Z</Time>
            <Position>
              <LatitudeDegrees>42.79825969599187374114990234375</LatitudeDegrees>
              <LongitudeDegrees>-0.33358625136315822601318359375</LongitudeDegrees>
            </Position>
            <AltitudeMeters>1456.4000244140625</AltitudeMeters>
            <DistanceMeters>4003.7326237644</DistanceMeters>
          </Trackpoint>
          <Trackpoint>
            <Time>2022-08-20T11:38:12.000Z</Time>
            <Position>
              <LatitudeDegrees>42.79827076010406017303466796875</LatitudeDegrees>
              <LongitudeDegrees>-0.333592034876346588134765625</LongitudeDegrees>
            </Position>
            <AltitudeMeters>1456.5999755859375</AltitudeMeters>
            <DistanceMeters>4005.0527770713</DistanceMeters>
          </Trackpoint>
          <Trackpoint>
            <Time>2022-08-20T11:38:15.000Z</Time>
            <Position>
              <LatitudeDegrees>42.79830596409738063812255859375</LatitudeDegrees>
              <LongitudeDegrees>-0.3336103074252605438232421875</LongitudeDegrees>
            </Position>
            <AltitudeMeters>1457.800048828125</AltitudeMeters>
            <DistanceMeters>4009.245814018</DistanceMeters>
          </Trackpoint>
          <Trackpoint>
            <Time>2022-08-20T11:38:17.000Z</Time>
            <Position>
              <LatitudeDegrees>42.79833488166332244873046875</LatitudeDegrees>
              <LongitudeDegrees>-0.33361910842359066009521484375</LongitudeDegrees>
            </Position>
            <AltitudeMeters>1458.4000244140625</AltitudeMeters>
            <DistanceMeters>4012.5431177708</DistanceMeters>
          </Trackpoint>
          <Trackpoint>
            <Time>2022-08-20T11:38:18.000Z</Time>
            <Position>
              <LatitudeDegrees>42.79834820888936519622802734375</LatitudeDegrees>
              <LongitudeDegrees>-0.33361944369971752166748046875</LongitudeDegrees>
            </Position>
            <AltitudeMeters>1458.5999755859375</AltitudeMeters>
            <DistanceMeters>4014.0274825011</DistanceMeters>
          </Trackpoint>
          <Trackpoint>
            <Time>2022-08-20T11:38:22.000Z</Time>
            <Position>
              <LatitudeDegrees>42.7984041161835193634033203125</LatitudeDegrees>
              <LongitudeDegrees>-0.3336341120302677154541015625</LongitudeDegrees>
            </Position>
            <AltitudeMeters>1460</AltitudeMeters>
            <DistanceMeters>4020.364417876</DistanceMeters>
          </Trackpoint>
          <Trackpoint>
            <Time>2022-08-20T11:38:28.000Z</Time>
            <Position>
              <LatitudeDegrees>42.79848567210137844085693359375</LatitudeDegrees>
              <LongitudeDegrees>-0.3336411528289318084716796875</LongitudeDegrees>
            </Position>
            <AltitudeMeters>1460</AltitudeMeters>
            <DistanceMeters>4029.4602169272</DistanceMeters>
          </Trackpoint>
          <Trackpoint>
            <Time>2022-08-20T11:38:31.000Z</Time>
            <Position>
              <LatitudeDegrees>42.7985238097608089447021484375</LatitudeDegrees>
              <LongitudeDegrees>-0.3336359560489654541015625</LongitudeDegrees>
            </Position>
            <AltitudeMeters>1459.5999755859375</AltitudeMeters>
            <DistanceMeters>4033.7269058204</DistanceMeters>
          </Trackpoint>
          <Trackpoint>
            <Time>2022-08-20T11:38:38.000Z</Time>
            <Position>
              <LatitudeDegrees>42.7986314333975315093994140625</LatitudeDegrees>
              <LongitudeDegrees>-0.3335925377905368804931640625</LongitudeDegrees>
            </Position>
            <AltitudeMeters>1457.4000244140625</AltitudeMeters>
            <DistanceMeters>4046.2192146984</DistanceMeters>
          </Trackpoint>
          <Trackpoint>
            <Time>2022-08-20T11:38:41.000Z</Time>
            <Position>
              <LatitudeDegrees>42.79867560602724552154541015625</LatitudeDegrees>
              <LongitudeDegrees>-0.33359077759087085723876953125</LongitudeDegrees>
            </Position>
            <AltitudeMeters>1457</AltitudeMeters>
            <DistanceMeters>4051.137707841</DistanceMeters>
          </Trackpoint>
          <Trackpoint>
            <Time>2022-08-20T11:38:43.000Z</Time>
            <Position>
              <LatitudeDegrees>42.798701338469982147216796875</LatitudeDegrees>
              <LongitudeDegrees>-0.33359932713210582733154296875</LongitudeDegrees>
            </Position>
            <AltitudeMeters>1456.800048828125</AltitudeMeters>
            <DistanceMeters>4054.0850682769</DistanceMeters>
          </Trackpoint>
          <Trackpoint>
            <Time>2022-08-20T11:38:44.000Z</Time>
            <Position>
              <LatitudeDegrees>42.79871030710637569427490234375</LatitudeDegrees>
              <LongitudeDegrees>-0.333604104816913604736328125</LongitudeDegrees>
            </Position>
            <AltitudeMeters>1456.800048828125</AltitudeMeters>
            <DistanceMeters>4055.1601728229</DistanceMeters>
          </Trackpoint>
          <Trackpoint>
            <Time>2022-08-20T11:38:45.000Z</Time>
            <Position>
              <LatitudeDegrees>42.79872070066630840301513671875</LatitudeDegrees>
              <LongitudeDegrees>-0.33360603265464305877685546875</LongitudeDegrees>
            </Position>
            <AltitudeMeters>1456.800048828125</AltitudeMeters>
            <DistanceMeters>4056.3317408403</DistanceMeters>
          </Trackpoint>
          <Trackpoint>
            <Time>2022-08-20T11:38:53.000Z</Time>
            <Position>
              <LatitudeDegrees>42.798797227442264556884765625</LatitudeDegrees>
              <LongitudeDegrees>-0.33366336487233638763427734375</LongitudeDegrees>
            </Position>
            <AltitudeMeters>1457.800048828125</AltitudeMeters>
            <DistanceMeters>4066.0514455558</DistanceMeters>
          </Trackpoint>
          <Trackpoint>
            <Time>2022-08-20T11:38:56.000Z</Time>
            <Position>
              <LatitudeDegrees>42.7988235466182231903076171875</LatitudeDegrees>
              <LongitudeDegrees>-0.3336773626506328582763671875</LongitudeDegrees>
            </Position>
            <AltitudeMeters>1458</AltitudeMeters>
            <DistanceMeters>4069.1973895767</DistanceMeters>
          </Trackpoint>
          <Trackpoint>
            <Time>2022-08-20T11:38:58.000Z</Time>
            <Position>
              <LatitudeDegrees>42.79884508810937404632568359375</LatitudeDegrees>
              <LongitudeDegrees>-0.333684571087360382080078125</LongitudeDegrees>
            </Position>
            <AltitudeMeters>1458</AltitudeMeters>
            <DistanceMeters>4071.6662560372</DistanceMeters>
          </Trackpoint>
          <Trackpoint>
            <Time>2022-08-20T11:39:06.000Z</Time>
            <Position>
              <LatitudeDegrees>42.7989030070602893829345703125</LatitudeDegrees>
              <LongitudeDegrees>-0.333703346550464630126953125</LongitudeDegrees>
            </Position>
            <AltitudeMeters>1457</AltitudeMeters>
            <DistanceMeters>4078.2936455552</DistanceMeters>
          </Trackpoint>
          <Trackpoint>
            <Time>2022-08-20T11:39:09.000Z</Time>
            <Position>
              <LatitudeDegrees>42.79893024824559688568115234375</LatitudeDegrees>
              <LongitudeDegrees>-0.33372287638485431671142578125</LongitudeDegrees>
            </Position>
            <AltitudeMeters>1456.5999755859375</AltitudeMeters>
            <DistanceMeters>4081.7198824672</DistanceMeters>
          </Trackpoint>
          <Trackpoint>
            <Time>2022-08-20T11:39:11.000Z</Time>
            <Position>
              <LatitudeDegrees>42.79894315637648105621337890625</LatitudeDegrees>
              <LongitudeDegrees>-0.33374031074345111846923828125</LongitudeDegrees>
            </Position>
            <AltitudeMeters>1456.5999755859375</AltitudeMeters>
            <DistanceMeters>4083.7446428741</DistanceMeters>
          </Trackpoint>
          <Trackpoint>
            <Time>2022-08-20T11:39:14.000Z</Time>
            <Position>
              <LatitudeDegrees>42.7989596687257289886474609375</LatitudeDegrees>
              <LongitudeDegrees>-0.33377115614712238311767578125</LongitudeDegrees>
            </Position>
            <AltitudeMeters>1456.4000244140625</AltitudeMeters>
            <DistanceMeters>4086.8631990032</DistanceMeters>
          </Trackpoint>
          <Trackpoint>
            <Time>2022-08-20T11:39:17.000Z</Time>
            <Position>
              <LatitudeDegrees>42.798975594341754913330078125</LatitudeDegrees>
              <LongitudeDegrees>-0.33382077701389789581298828125</LongitudeDegrees>
            </Position>
            <AltitudeMeters>1456.800048828125</AltitudeMeters>
            <DistanceMeters>4091.2867920738</DistanceMeters>
          </Trackpoint>
          <Trackpoint>
            <Time>2022-08-20T11:39:26.000Z</Time>
            <Position>
              <LatitudeDegrees>42.799023203551769256591796875</LatitudeDegrees>
              <LongitudeDegrees>-0.3339600004255771636962890625</LongitudeDegrees>
            </Position>
            <AltitudeMeters>1461</AltitudeMeters>
            <DistanceMeters>4103.8310382493</DistanceMeters>
          </Trackpoint>
          <Trackpoint>
            <Time>2022-08-20T11:39:28.000Z</Time>
            <Position>
              <LatitudeDegrees>42.79901909641921520233154296875</LatitudeDegrees>
              <LongitudeDegrees>-0.3340055979788303375244140625</LongitudeDegrees>
            </Position>
            <AltitudeMeters>1462.5999755859375</AltitudeMeters>
            <DistanceMeters>4107.5818860334</DistanceMeters>
          </Trackpoint>
          <Trackpoint>
            <Time>2022-08-20T11:39:31.000Z</Time>
            <Position>
              <LatitudeDegrees>42.79902496375143527984619140625</LatitudeDegrees>
              <LongitudeDegrees>-0.334047339856624603271484375</LongitudeDegrees>
            </Position>
            <AltitudeMeters>1464.199951171875</AltitudeMeters>
            <DistanceMeters>4111.052638398</DistanceMeters>
          </Trackpoint>
          <Trackpoint>
            <Time>2022-08-20T11:39:32.000Z</Time>
            <Position>
              <LatitudeDegrees>42.79903133399784564971923828125</LatitudeDegrees>
              <LongitudeDegrees>-0.33406100235879421234130859375</LongitudeDegrees>
            </Position>
            <AltitudeMeters>1464.5999755859375</AltitudeMeters>
            <DistanceMeters>4112.3693671769</DistanceMeters>
          </Trackpoint>
          <Trackpoint>
            <Time>2022-08-20T11:39:33.000Z</Time>
            <Position>
              <LatitudeDegrees>42.79903627932071685791015625</LatitudeDegrees>
              <LongitudeDegrees>-0.3340729884803295135498046875</LongitudeDegrees>
            </Position>
            <AltitudeMeters>1465</AltitudeMeters>
            <DistanceMeters>4113.4937384244</DistanceMeters>
          </Trackpoint>
          <Trackpoint>
            <Time>2022-08-20T11:39:42.000Z</Time>
            <Position>
              <LatitudeDegrees>42.79908724129199981689453125</LatitudeDegrees>
              <LongitudeDegrees>-0.33418823964893817901611328125</LongitudeDegrees>
            </Position>
            <AltitudeMeters>1468.4000244140625</AltitudeMeters>
            <DistanceMeters>4124.4823772031</DistanceMeters>
          </Trackpoint>
          <Trackpoint>
            <Time>2022-08-20T11:39:47.000Z</Time>
            <Position>
              <LatitudeDegrees>42.7991222776472568511962890625</LatitudeDegrees>
              <LongitudeDegrees>-0.33421690575778484344482421875</LongitudeDegrees>
            </Position>
            <AltitudeMeters>1469.199951171875</AltitudeMeters>
            <DistanceMeters>4129.0307730888</DistanceMeters>
          </Trackpoint>
          <Trackpoint>
            <Time>2022-08-20T11:39:48.000Z</Time>
            <Position>
              <LatitudeDegrees>42.79913560487329959869384765625</LatitudeDegrees>
              <LongitudeDegrees>-0.33422394655644893646240234375</LongitudeDegrees>
            </Position>
            <AltitudeMeters>1469.4000244140625</AltitudeMeters>
            <DistanceMeters>4130.6208741561</DistanceMeters>
          </Trackpoint>
          <Trackpoint>
            <Time>2022-08-20T11:40:06.000Z</Time>
            <Position>
              <LatitudeDegrees>42.79930206947028636932373046875</LatitudeDegrees>
              <LongitudeDegrees>-0.33437515608966350555419921875</LongitudeDegrees>
            </Position>
            <AltitudeMeters>1472</AltitudeMeters>
            <DistanceMeters>4152.8867506699</DistanceMeters>
          </Trackpoint>
          <Trackpoint>
            <Time>2022-08-20T11:40:16.000Z</Time>
            <Position>
              <LatitudeDegrees>42.79944456182420253753662109375</LatitudeDegrees>
              <LongitudeDegrees>-0.33445428125560283660888671875</LongitudeDegrees>
            </Position>
            <AltitudeMeters>1469.800048828125</AltitudeMeters>
            <DistanceMeters>4170.0121360012</DistanceMeters>
          </Trackpoint>
          <Trackpoint>
            <Time>2022-08-20T11:40:21.000Z</Time>
            <Position>
              <LatitudeDegrees>42.799507342278957366943359375</LatitudeDegrees>
              <LongitudeDegrees>-0.33449350856244564056396484375</LongitudeDegrees>
            </Position>
            <AltitudeMeters>1469.5999755859375</AltitudeMeters>
            <DistanceMeters>4177.6981466762</DistanceMeters>
          </Trackpoint>
          <Trackpoint>
            <Time>2022-08-20T11:40:22.000Z</Time>
            <Position>
              <LatitudeDegrees>42.79952175915241241455078125</LatitudeDegrees>
              <LongitudeDegrees>-0.33450029790401458740234375</LongitudeDegrees>
            </Position>
            <AltitudeMeters>1469.4000244140625</AltitudeMeters>
            <DistanceMeters>4179.3953780646</DistanceMeters>
          </Trackpoint>
          <Trackpoint>
            <Time>2022-08-20T11:40:23.000Z</Time>
            <Position>
              <LatitudeDegrees>42.7995356731116771697998046875</LatitudeDegrees>
              <LongitudeDegrees>-0.33450700342655181884765625</LongitudeDegrees>
            </Position>
            <AltitudeMeters>1469.199951171875</AltitudeMeters>
            <DistanceMeters>4181.0385435635</DistanceMeters>
          </Trackpoint>
          <Trackpoint>
            <Time>2022-08-20T11:40:37.000Z</Time>
            <Position>
              <LatitudeDegrees>42.7996821887791156768798828125</LatitudeDegrees>
              <LongitudeDegrees>-0.33461521379649639129638671875</LongitudeDegrees>
            </Position>
            <AltitudeMeters>1467.4000244140625</AltitudeMeters>
            <DistanceMeters>4199.5865313886</DistanceMeters>
          </Trackpoint>
          <Trackpoint>
            <Time>2022-08-20T11:40:39.000Z</Time>
            <Position>
              <LatitudeDegrees>42.79970624484121799468994140625</LatitudeDegrees>
              <LongitudeDegrees>-0.33462342806160449981689453125</LongitudeDegrees>
            </Position>
            <AltitudeMeters>1466.5999755859375</AltitudeMeters>
            <DistanceMeters>4202.3472169047</DistanceMeters>
          </Trackpoint>
          <Trackpoint>
            <Time>2022-08-20T11:40:49.000Z</Time>
            <Position>
              <LatitudeDegrees>42.79981009662151336669921875</LatitudeDegrees>
              <LongitudeDegrees>-0.3346781618893146514892578125</LongitudeDegrees>
            </Position>
            <AltitudeMeters>1464</AltitudeMeters>
            <DistanceMeters>4214.7408281747</DistanceMeters>
          </Trackpoint>
          <Trackpoint>
            <Time>2022-08-20T11:41:00.000Z</Time>
            <Position>
              <LatitudeDegrees>42.799903638660907745361328125</LatitudeDegrees>
              <LongitudeDegrees>-0.334754101932048797607421875</LongitudeDegrees>
            </Position>
            <AltitudeMeters>1466.5999755859375</AltitudeMeters>
            <DistanceMeters>4226.8592494089</DistanceMeters>
          </Trackpoint>
          <Trackpoint>
            <Time>2022-08-20T11:41:09.000Z</Time>
            <Position>
              <LatitudeDegrees>42.79996122233569622039794921875</LatitudeDegrees>
              <LongitudeDegrees>-0.33481554128229618072509765625</LongitudeDegrees>
            </Position>
            <AltitudeMeters>1468.800048828125</AltitudeMeters>
            <DistanceMeters>4234.9983304868</DistanceMeters>
          </Trackpoint>
          <Trackpoint>
            <Time>2022-08-20T11:41:13.000Z</Time>
            <Position>
              <LatitudeDegrees>42.79998251236975193023681640625</LatitudeDegrees>
              <LongitudeDegrees>-0.33484571613371372222900390625</LongitudeDegrees>
            </Position>
            <AltitudeMeters>1469.800048828125</AltitudeMeters>
            <DistanceMeters>4238.416651554</DistanceMeters>
          </Trackpoint>
          <Trackpoint>
            <Time>2022-08-20T11:41:20.000Z</Time>
            <Position>
              <LatitudeDegrees>42.8000181354582309722900390625</LatitudeDegrees>
              <LongitudeDegrees>-0.33490321598947048187255859375</LongitudeDegrees>
            </Position>
            <AltitudeMeters>1471.5999755859375</AltitudeMeters>
            <DistanceMeters>4244.5633449611</DistanceMeters>
          </Trackpoint>
          <Trackpoint>
            <Time>2022-08-20T11:41:23.000Z</Time>
            <Position>
              <LatitudeDegrees>42.80003406107425689697265625</LatitudeDegrees>
              <LongitudeDegrees>-0.33492551185190677642822265625</LongitudeDegrees>
            </Position>
            <AltitudeMeters>1472.4000244140625</AltitudeMeters>
            <DistanceMeters>4247.1025327409</DistanceMeters>
          </Trackpoint>
          <Trackpoint>
            <Time>2022-08-20T11:41:26.000Z</Time>
            <Position>
              <LatitudeDegrees>42.80003766529262065887451171875</LatitudeDegrees>
              <LongitudeDegrees>-0.3349661640822887420654296875</LongitudeDegrees>
            </Position>
            <AltitudeMeters>1474.199951171875</AltitudeMeters>
            <DistanceMeters>4250.4447183374</DistanceMeters>
          </Trackpoint>
          <Trackpoint>
            <Time>2022-08-20T11:41:43.000Z</Time>
            <Position>
              <LatitudeDegrees>42.80008762143552303314208984375</LatitudeDegrees>
              <LongitudeDegrees>-0.33511997200548648834228515625</LongitudeDegrees>
            </Position>
            <AltitudeMeters>1482.4000244140625</AltitudeMeters>
            <DistanceMeters>4264.180927687</DistanceMeters>
          </Trackpoint>
          <Trackpoint>
            <Time>2022-08-20T11:41:50.000Z</Time>
            <Position>
              <LatitudeDegrees>42.800233550369739532470703125</LatitudeDegrees>
              <LongitudeDegrees>-0.33512122929096221923828125</LongitudeDegrees>
            </Position>
            <AltitudeMeters>1477</AltitudeMeters>
            <DistanceMeters>4280.4235479616</DistanceMeters>
          </Trackpoint>
          <Trackpoint>
            <Time>2022-08-20T11:41:56.000Z</Time>
            <Position>
              <LatitudeDegrees>42.80030840076506137847900390625</LatitudeDegrees>
              <LongitudeDegrees>-0.33514629118144512176513671875</LongitudeDegrees>
            </Position>
            <AltitudeMeters>1473</AltitudeMeters>
            <DistanceMeters>4289.0023079547</DistanceMeters>
          </Trackpoint>
          <Trackpoint>
            <Time>2022-08-20T11:42:06.000Z</Time>
            <Position>
              <LatitudeDegrees>42.8003745339810848236083984375</LatitudeDegrees>
              <LongitudeDegrees>-0.33525994978845119476318359375</LongitudeDegrees>
            </Position>
            <AltitudeMeters>1474.199951171875</AltitudeMeters>
            <DistanceMeters>4300.8482941078</DistanceMeters>
          </Trackpoint>
          <Trackpoint>
            <Time>2022-08-20T11:42:07.000Z</Time>
            <Position>
              <LatitudeDegrees>42.80038752593100070953369140625</LatitudeDegrees>
              <LongitudeDegrees>-0.33526095561683177947998046875</LongitudeDegrees>
            </Position>
            <AltitudeMeters>1474</AltitudeMeters>
            <DistanceMeters>4302.295697899</DistanceMeters>
          </Trackpoint>
          <Trackpoint>
            <Time>2022-08-20T11:42:08.000Z</Time>
            <Position>
              <LatitudeDegrees>42.80039641074836254119873046875</LatitudeDegrees>
              <LongitudeDegrees>-0.33526347018778324127197265625</LongitudeDegrees>
            </Position>
            <AltitudeMeters>1474</AltitudeMeters>
            <DistanceMeters>4303.3013661156</DistanceMeters>
          </Trackpoint>
          <Trackpoint>
            <Time>2022-08-20T11:42:10.000Z</Time>
            <Position>
              <LatitudeDegrees>42.8004151023924350738525390625</LatitudeDegrees>
              <LongitudeDegrees>-0.33528140746057033538818359375</LongitudeDegrees>
            </Position>
            <AltitudeMeters>1475.199951171875</AltitudeMeters>
            <DistanceMeters>4305.8458827318</DistanceMeters>
          </Trackpoint>
          <Trackpoint>
            <Time>2022-08-20T11:42:12.000Z</Time>
            <Position>
              <LatitudeDegrees>42.80043245293200016021728515625</LatitudeDegrees>
              <LongitudeDegrees>-0.3353034518659114837646484375</LongitudeDegrees>
            </Position>
            <AltitudeMeters>1476.800048828125</AltitudeMeters>
            <DistanceMeters>4308.4861893456</DistanceMeters>
          </Trackpoint>
          <Trackpoint>
            <Time>2022-08-20T11:42:13.000Z</Time>
            <Position>
              <LatitudeDegrees>42.80044301412999629974365234375</LatitudeDegrees>
              <LongitudeDegrees>-0.33531124703586101531982421875</LongitudeDegrees>
            </Position>
            <AltitudeMeters>1477.4000244140625</AltitudeMeters>
            <DistanceMeters>4309.8233337416</DistanceMeters>
          </Trackpoint>
          <Trackpoint>
            <Time>2022-08-20T11:42:14.000Z</Time>
            <Position>
              <LatitudeDegrees>42.80045474879443645477294921875</LatitudeDegrees>
              <LongitudeDegrees>-0.33531728200614452362060546875</LongitudeDegrees>
            </Position>
            <AltitudeMeters>1477.5999755859375</AltitudeMeters>
            <DistanceMeters>4311.2199355145</DistanceMeters>
          </Trackpoint>
          <Trackpoint>
            <Time>2022-08-20T11:42:15.000Z</Time>
            <Position>
              <LatitudeDegrees>42.8004610352218151092529296875</LatitudeDegrees>
              <LongitudeDegrees>-0.33531778492033481597900390625</LongitudeDegrees>
            </Position>
            <AltitudeMeters>1477.5999755859375</AltitudeMeters>
            <DistanceMeters>4311.9117404375</DistanceMeters>
          </Trackpoint>
          <Trackpoint>
            <Time>2022-08-20T11:42:16.000Z</Time>
            <Position>
              <LatitudeDegrees>42.8004720993340015411376953125</LatitudeDegrees>
              <LongitudeDegrees>-0.33531912602484226226806640625</LongitudeDegrees>
            </Position>
            <AltitudeMeters>1477.4000244140625</AltitudeMeters>
            <DistanceMeters>4313.143427428</DistanceMeters>
          </Trackpoint>
          <Trackpoint>
            <Time>2022-08-20T11:42:17.000Z</Time>
            <Position>
              <LatitudeDegrees>42.80048475600779056549072265625</LatitudeDegrees>
              <LongitudeDegrees>-0.33532507717609405517578125</LongitudeDegrees>
            </Position>
            <AltitudeMeters>1477.800048828125</AltitudeMeters>
            <DistanceMeters>4314.633863205</DistanceMeters>
          </Trackpoint>
          <Trackpoint>
            <Time>2022-08-20T11:42:19.000Z</Time>
            <Position>
              <LatitudeDegrees>42.8005041182041168212890625</LatitudeDegrees>
              <LongitudeDegrees>-0.33534117043018341064453125</LongitudeDegrees>
            </Position>
            <AltitudeMeters>1478.800048828125</AltitudeMeters>
            <DistanceMeters>4317.158785772</DistanceMeters>
          </Trackpoint>
          <Trackpoint>
            <Time>2022-08-20T11:42:20.000Z</Time>
            <Position>
              <LatitudeDegrees>42.8005136735737323760986328125</LatitudeDegrees>
              <LongitudeDegrees>-0.33535315655171871185302734375</LongitudeDegrees>
            </Position>
            <AltitudeMeters>1479.5999755859375</AltitudeMeters>
            <DistanceMeters>4318.6061895633</DistanceMeters>
          </Trackpoint>
          <Trackpoint>
            <Time>2022-08-20T11:42:34.000Z</Time>
            <Position>
              <LatitudeDegrees>42.8006796352565288543701171875</LatitudeDegrees>
              <LongitudeDegrees>-0.3354526497423648834228515625</LongitudeDegrees>
            </Position>
            <AltitudeMeters>1473</AltitudeMeters>
            <DistanceMeters>4338.7861141764</DistanceMeters>
          </Trackpoint>
          <Trackpoint>
            <Time>2022-08-20T11:42:44.000Z</Time>
            <Position>
              <LatitudeDegrees>42.8007919527590274810791015625</LatitudeDegrees>
              <LongitudeDegrees>-0.33549916930496692657470703125</LongitudeDegrees>
            </Position>
            <AltitudeMeters>1474.5999755859375</AltitudeMeters>
            <DistanceMeters>4351.8518554555</DistanceMeters>
          </Trackpoint>
          <Trackpoint>
            <Time>2022-08-20T11:42:45.000Z</Time>
            <Position>
              <LatitudeDegrees>42.80080058611929416656494140625</LatitudeDegrees>
              <LongitudeDegrees>-0.33550771884620189666748046875</LongitudeDegrees>
            </Position>
            <AltitudeMeters>1475</AltitudeMeters>
            <DistanceMeters>4353.0425367738</DistanceMeters>
          </Trackpoint>
          <Trackpoint>
            <Time>2022-08-20T11:42:46.000Z</Time>
            <Position>
              <LatitudeDegrees>42.8008127398788928985595703125</LatitudeDegrees>
              <LongitudeDegrees>-0.33551492728292942047119140625</LongitudeDegrees>
            </Position>
            <AltitudeMeters>1475.4000244140625</AltitudeMeters>
            <DistanceMeters>4354.5208055246</DistanceMeters>
          </Trackpoint>
          <Trackpoint>
            <Time>2022-08-20T11:43:06.000Z</Time>
            <Position>
              <LatitudeDegrees>42.80097543261945247650146484375</LatitudeDegrees>
              <LongitudeDegrees>-0.3356450982391834259033203125</LongitudeDegrees>
            </Position>
            <AltitudeMeters>1485.199951171875</AltitudeMeters>
            <DistanceMeters>4375.5184842642</DistanceMeters>
          </Trackpoint>
          <Trackpoint>
            <Time>2022-08-20T11:43:07.000Z</Time>
            <Position>
              <LatitudeDegrees>42.8009842336177825927734375</LatitudeDegrees>
              <LongitudeDegrees>-0.3356457687914371490478515625</LongitudeDegrees>
            </Position>
            <AltitudeMeters>1485.4000244140625</AltitudeMeters>
            <DistanceMeters>4376.4968441689</DistanceMeters>
          </Trackpoint>
          <Trackpoint>
            <Time>2022-08-20T11:43:13.000Z</Time>
            <Position>
              <LatitudeDegrees>42.80107014812529087066650390625</LatitudeDegrees>
              <LongitudeDegrees>-0.335641913115978240966796875</LongitudeDegrees>
            </Position>
            <AltitudeMeters>1487.800048828125</AltitudeMeters>
            <DistanceMeters>4386.0643874749</DistanceMeters>
          </Trackpoint>
          <Trackpoint>
            <Time>2022-08-20T11:43:19.000Z</Time>
            <Position>
              <LatitudeDegrees>42.8011329285800457000732421875</LatitudeDegrees>
              <LongitudeDegrees>-0.33561098389327526092529296875</LongitudeDegrees>
            </Position>
            <AltitudeMeters>1487.199951171875</AltitudeMeters>
            <DistanceMeters>4393.4941154175</DistanceMeters>
          </Trackpoint>
          <Trackpoint>
            <Time>2022-08-20T11:43:32.000Z</Time>
            <Position>
              <LatitudeDegrees>42.8012744151055812835693359375</LatitudeDegrees>
              <LongitudeDegrees>-0.3354489617049694061279296875</LongitudeDegrees>
            </Position>
            <AltitudeMeters>1483</AltitudeMeters>
            <DistanceMeters>4414.0625154866</DistanceMeters>
          </Trackpoint>
          <Trackpoint>
            <Time>2022-08-20T11:43:37.000Z</Time>
            <Position>
              <LatitudeDegrees>42.80132696963846683502197265625</LatitudeDegrees>
              <LongitudeDegrees>-0.33540931530296802520751953125</LongitudeDegrees>
            </Position>
            <AltitudeMeters>1482.4000244140625</AltitudeMeters>
            <DistanceMeters>4420.7482374669</DistanceMeters>
          </Trackpoint>
          <Trackpoint>
            <Time>2022-08-20T11:43:41.000Z</Time>
            <Position>
              <LatitudeDegrees>42.801353372633457183837890625</LatitudeDegrees>
              <LongitudeDegrees>-0.335379727184772491455078125</LongitudeDegrees>
            </Position>
            <AltitudeMeters>1481.800048828125</AltitudeMeters>
            <DistanceMeters>4424.5528678746</DistanceMeters>
          </Trackpoint>
          <Trackpoint>
            <Time>2022-08-20T11:43:42.000Z</Time>
            <Position>
              <LatitudeDegrees>42.80135882087051868438720703125</LatitudeDegrees>
              <LongitudeDegrees>-0.33537310548126697540283203125</LongitudeDegrees>
            </Position>
            <AltitudeMeters>1481.5999755859375</AltitudeMeters>
            <DistanceMeters>4425.3647764781</DistanceMeters>
          </Trackpoint>
          <Trackpoint>
            <Time>2022-08-20T11:43:43.000Z</Time>
            <Position>
              <LatitudeDegrees>42.80136443674564361572265625</LatitudeDegrees>
              <LongitudeDegrees>-0.3353654779493808746337890625</LongitudeDegrees>
            </Position>
            <AltitudeMeters>1481.4000244140625</AltitudeMeters>
            <DistanceMeters>4426.246017974</DistanceMeters>
          </Trackpoint>
          <Trackpoint>
            <Time>2022-08-20T11:43:44.000Z</Time>
            <Position>
              <LatitudeDegrees>42.8013723157346248626708984375</LatitudeDegrees>
              <LongitudeDegrees>-0.33535852096974849700927734375</LongitudeDegrees>
            </Position>
            <AltitudeMeters>1481.4000244140625</AltitudeMeters>
            <DistanceMeters>4427.2913118321</DistanceMeters>
          </Trackpoint>
          <Trackpoint>
            <Time>2022-08-20T11:43:46.000Z</Time>
            <Position>
              <LatitudeDegrees>42.80139536596834659576416015625</LatitudeDegrees>
              <LongitudeDegrees>-0.3353497199714183807373046875</LongitudeDegrees>
            </Position>
            <AltitudeMeters>1481.199951171875</AltitudeMeters>
            <DistanceMeters>4429.955451484</DistanceMeters>
          </Trackpoint>
          <Trackpoint>
            <Time>2022-08-20T11:43:47.000Z</Time>
            <Position>
              <LatitudeDegrees>42.801406346261501312255859375</LatitudeDegrees>
              <LongitudeDegrees>-0.33533287234604358673095703125</LongitudeDegrees>
            </Position>
            <AltitudeMeters>1481</AltitudeMeters>
            <DistanceMeters>4431.7931806779</DistanceMeters>
          </Trackpoint>
          <Trackpoint>
            <Time>2022-08-20T11:44:01.000Z</Time>
            <Position>
              <LatitudeDegrees>42.8015689551830291748046875</LatitudeDegrees>
              <LongitudeDegrees>-0.335124246776103973388671875</LongitudeDegrees>
            </Position>
            <AltitudeMeters>1476</AltitudeMeters>
            <DistanceMeters>4456.6491612489</DistanceMeters>
          </Trackpoint>
          <Trackpoint>
            <Time>2022-08-20T11:44:03.000Z</Time>
            <Position>
              <LatitudeDegrees>42.8015902452170848846435546875</LatitudeDegrees>
              <LongitudeDegrees>-0.33509968779981136322021484375</LongitudeDegrees>
            </Position>
            <AltitudeMeters>1475.199951171875</AltitudeMeters>
            <DistanceMeters>4459.754659863</DistanceMeters>
          </Trackpoint>
          <Trackpoint>
            <Time>2022-08-20T11:44:15.000Z</Time>
            <Position>
              <LatitudeDegrees>42.80176819302141666412353515625</LatitudeDegrees>
              <LongitudeDegrees>-0.33511846326291561126708984375</LongitudeDegrees>
            </Position>
            <AltitudeMeters>1474.199951171875</AltitudeMeters>
            <DistanceMeters>4479.620016662</DistanceMeters>
          </Trackpoint>
          <Trackpoint>
            <Time>2022-08-20T11:44:28.000Z</Time>
            <Position>
              <LatitudeDegrees>42.801924683153629302978515625</LatitudeDegrees>
              <LongitudeDegrees>-0.3352514840662479400634765625</LongitudeDegrees>
            </Position>
            <AltitudeMeters>1475</AltitudeMeters>
            <DistanceMeters>4500.1475466445</DistanceMeters>
          </Trackpoint>
          <Trackpoint>
            <Time>2022-08-20T11:44:42.000Z</Time>
            <Position>
              <LatitudeDegrees>42.80208234675228595733642578125</LatitudeDegrees>
              <LongitudeDegrees>-0.3353825770318508148193359375</LongitudeDegrees>
            </Position>
            <AltitudeMeters>1477.5999755859375</AltitudeMeters>
            <DistanceMeters>4520.7036502908</DistanceMeters>
          </Trackpoint>
          <Trackpoint>
            <Time>2022-08-20T11:44:56.000Z</Time>
            <Position>
              <LatitudeDegrees>42.80221042223274707794189453125</LatitudeDegrees>
              <LongitudeDegrees>-0.33557712100446224212646484375</LongitudeDegrees>
            </Position>
            <AltitudeMeters>1484.199951171875</AltitudeMeters>
            <DistanceMeters>4542.048731855</DistanceMeters>
          </Trackpoint>
          <Trackpoint>
            <Time>2022-08-20T11:45:11.000Z</Time>
            <Position>
              <LatitudeDegrees>42.80237990431487560272216796875</LatitudeDegrees>
              <LongitudeDegrees>-0.33568407408893108367919921875</LongitudeDegrees>
            </Position>
            <AltitudeMeters>1480.800048828125</AltitudeMeters>
            <DistanceMeters>4562.8365722485</DistanceMeters>
          </Trackpoint>
          <Trackpoint>
            <Time>2022-08-20T11:45:22.000Z</Time>
            <Position>
              <LatitudeDegrees>42.80254972167313098907470703125</LatitudeDegrees>
              <LongitudeDegrees>-0.33576252870261669158935546875</LongitudeDegrees>
            </Position>
            <AltitudeMeters>1474.199951171875</AltitudeMeters>
            <DistanceMeters>4582.7939922167</DistanceMeters>
          </Trackpoint>
          <Trackpoint>
            <Time>2022-08-20T11:45:33.000Z</Time>
            <Position>
              <LatitudeDegrees>42.80267964117228984832763671875</LatitudeDegrees>
              <LongitudeDegrees>-0.33585707657039165496826171875</LongitudeDegrees>
            </Position>
            <AltitudeMeters>1473.4000244140625</AltitudeMeters>
            <DistanceMeters>4599.1865824581</DistanceMeters>
          </Trackpoint>
          <Trackpoint>
            <Time>2022-08-20T11:45:42.000Z</Time>
            <Position>
              <LatitudeDegrees>42.80275373719632625579833984375</LatitudeDegrees>
              <LongitudeDegrees>-0.3359398059546947479248046875</LongitudeDegrees>
            </Position>
            <AltitudeMeters>1474.199951171875</AltitudeMeters>
            <DistanceMeters>4609.8473770871</DistanceMeters>
          </Trackpoint>
          <Trackpoint>
            <Time>2022-08-20T11:45:47.000Z</Time>
            <Position>
              <LatitudeDegrees>42.80280880630016326904296875</LatitudeDegrees>
              <LongitudeDegrees>-0.33597291447222232818603515625</LongitudeDegrees>
            </Position>
            <AltitudeMeters>1473.199951171875</AltitudeMeters>
            <DistanceMeters>4616.546591961</DistanceMeters>
          </Trackpoint>
          <Trackpoint>
            <Time>2022-08-20T11:45:56.000Z</Time>
            <Position>
              <LatitudeDegrees>42.80289866030216217041015625</LatitudeDegrees>
              <LongitudeDegrees>-0.33602924086153507232666015625</LongitudeDegrees>
            </Position>
            <AltitudeMeters>1473</AltitudeMeters>
            <DistanceMeters>4627.5549354276</DistanceMeters>
          </Trackpoint>
          <Trackpoint>
            <Time>2022-08-20T11:46:00.000Z</Time>
            <Position>
              <LatitudeDegrees>42.8029167652130126953125</LatitudeDegrees>
              <LongitudeDegrees>-0.33608288504183292388916015625</LongitudeDegrees>
            </Position>
            <AltitudeMeters>1473.5999755859375</AltitudeMeters>
            <DistanceMeters>4632.3760781103</DistanceMeters>
          </Trackpoint>
          <Trackpoint>
            <Time>2022-08-20T11:46:01.000Z</Time>
            <Position>
              <LatitudeDegrees>42.80291819013655185699462890625</LatitudeDegrees>
              <LongitudeDegrees>-0.33609763719141483306884765625</LongitudeDegrees>
            </Position>
            <AltitudeMeters>1474.199951171875</AltitudeMeters>
            <DistanceMeters>4633.5930138262</DistanceMeters>
          </Trackpoint>
          <Trackpoint>
            <Time>2022-08-20T11:46:06.000Z</Time>
            <Position>
              <LatitudeDegrees>42.80294065363705158233642578125</LatitudeDegrees>
              <LongitudeDegrees>-0.3361572325229644775390625</LongitudeDegrees>
            </Position>
            <AltitudeMeters>1476.199951171875</AltitudeMeters>
            <DistanceMeters>4639.0642754186</DistanceMeters>
          </Trackpoint>
          <Trackpoint>
            <Time>2022-08-20T11:46:13.000Z</Time>
            <Position>
              <LatitudeDegrees>42.8029880113899707794189453125</LatitudeDegrees>
              <LongitudeDegrees>-0.336244069039821624755859375</LongitudeDegrees>
            </Position>
            <AltitudeMeters>1478.4000244140625</AltitudeMeters>
            <DistanceMeters>4647.9002270331</DistanceMeters>
          </Trackpoint>
          <Trackpoint>
            <Time>2022-08-20T11:46:15.000Z</Time>
            <Position>
              <LatitudeDegrees>42.80300586484372615814208984375</LatitudeDegrees>
              <LongitudeDegrees>-0.3362579829990863800048828125</LongitudeDegrees>
            </Position>
            <AltitudeMeters>1478.199951171875</AltitudeMeters>
            <DistanceMeters>4650.1907454054</DistanceMeters>
          </Trackpoint>
          <Trackpoint>
            <Time>2022-08-20T11:46:16.000Z</Time>
            <Position>
              <LatitudeDegrees>42.80302279628813266754150390625</LatitudeDegrees>
              <LongitudeDegrees>-0.33626385033130645751953125</LongitudeDegrees>
            </Position>
            <AltitudeMeters>1477.800048828125</AltitudeMeters>
            <DistanceMeters>4652.1335711705</DistanceMeters>
          </Trackpoint>
          <Trackpoint>
            <Time>2022-08-20T11:46:17.000Z</Time>
            <Position>
              <LatitudeDegrees>42.80303603969514369964599609375</LatitudeDegrees>
              <LongitudeDegrees>-0.3362690471112728118896484375</LongitudeDegrees>
            </Position>
            <AltitudeMeters>1477.4000244140625</AltitudeMeters>
            <DistanceMeters>4653.665830899</DistanceMeters>
          </Trackpoint>
          <Trackpoint>
            <Time>2022-08-20T11:46:18.000Z</Time>
            <Position>
              <LatitudeDegrees>42.8030580841004848480224609375</LatitudeDegrees>
              <LongitudeDegrees>-0.3362677060067653656005859375</LongitudeDegrees>
            </Position>
            <AltitudeMeters>1476.800048828125</AltitudeMeters>
            <DistanceMeters>4656.1218624673</DistanceMeters>
          </Trackpoint>
          <Trackpoint>
            <Time>2022-08-20T11:46:19.000Z</Time>
            <Position>
              <LatitudeDegrees>42.8030711598694324493408203125</LatitudeDegrees>
              <LongitudeDegrees>-0.3362739086151123046875</LongitudeDegrees>
            </Position>
            <AltitudeMeters>1476.4000244140625</AltitudeMeters>
            <DistanceMeters>4657.6658638213</DistanceMeters>
          </Trackpoint>
          <Trackpoint>
            <Time>2022-08-20T11:46:20.000Z</Time>
            <Position>
              <LatitudeDegrees>42.8030818887054920196533203125</LatitudeDegrees>
              <LongitudeDegrees>-0.336281619966030120849609375</LongitudeDegrees>
            </Position>
            <AltitudeMeters>1476.4000244140625</AltitudeMeters>
            <DistanceMeters>4659.0164471922</DistanceMeters>
          </Trackpoint>
          <Trackpoint>
            <Time>2022-08-20T11:46:21.000Z</Time>
            <Position>
              <LatitudeDegrees>42.8030912764370441436767578125</LatitudeDegrees>
              <LongitudeDegrees>-0.33628807403147220611572265625</LongitudeDegrees>
            </Position>
            <AltitudeMeters>1476.199951171875</AltitudeMeters>
            <DistanceMeters>4660.1880152096</DistanceMeters>
          </Trackpoint>
          <Trackpoint>
            <Time>2022-08-20T11:46:22.000Z</Time>
            <Position>
              <LatitudeDegrees>42.803100161254405975341796875</LatitudeDegrees>
              <LongitudeDegrees>-0.33628790639340877532958984375</LongitudeDegrees>
            </Position>
            <AltitudeMeters>1475.800048828125</AltitudeMeters>
            <DistanceMeters>4661.1755617938</DistanceMeters>
          </Trackpoint>
          <Trackpoint>
            <Time>2022-08-20T11:46:32.000Z</Time>
            <Position>
              <LatitudeDegrees>42.80320602469146251678466796875</LatitudeDegrees>
              <LongitudeDegrees>-0.33631942234933376312255859375</LongitudeDegrees>
            </Position>
            <AltitudeMeters>1475.5999755859375</AltitudeMeters>
            <DistanceMeters>4673.2360954205</DistanceMeters>
          </Trackpoint>
          <Trackpoint>
            <Time>2022-08-20T11:46:36.000Z</Time>
            <Position>
              <LatitudeDegrees>42.8032562322914600372314453125</LatitudeDegrees>
              <LongitudeDegrees>-0.336317829787731170654296875</LongitudeDegrees>
            </Position>
            <AltitudeMeters>1475.5999755859375</AltitudeMeters>
            <DistanceMeters>4678.8257344514</DistanceMeters>
          </Trackpoint>
          <Trackpoint>
            <Time>2022-08-20T11:46:40.000Z</Time>
            <Position>
              <LatitudeDegrees>42.80330811627209186553955078125</LatitudeDegrees>
              <LongitudeDegrees>-0.33630634658038616180419921875</LongitudeDegrees>
            </Position>
            <AltitudeMeters>1475.4000244140625</AltitudeMeters>
            <DistanceMeters>4684.6758617767</DistanceMeters>
          </Trackpoint>
          <Trackpoint>
            <Time>2022-08-20T11:46:43.000Z</Time>
            <Position>
              <LatitudeDegrees>42.803354300558567047119140625</LatitudeDegrees>
              <LongitudeDegrees>-0.33630433492362499237060546875</LongitudeDegrees>
            </Position>
            <AltitudeMeters>1475.4000244140625</AltitudeMeters>
            <DistanceMeters>4689.8178520361</DistanceMeters>
          </Trackpoint>
          <Trackpoint>
            <Time>2022-08-20T11:46:48.000Z</Time>
            <Position>
              <LatitudeDegrees>42.80343233607709407806396484375</LatitudeDegrees>
              <LongitudeDegrees>-0.33630684949457645416259765625</LongitudeDegrees>
            </Position>
            <AltitudeMeters>1475.800048828125</AltitudeMeters>
            <DistanceMeters>4698.5059133271</DistanceMeters>
          </Trackpoint>
          <Trackpoint>
            <Time>2022-08-20T11:46:56.000Z</Time>
            <Position>
              <LatitudeDegrees>42.80352688394486904144287109375</LatitudeDegrees>
              <LongitudeDegrees>-0.33630835823714733123779296875</LongitudeDegrees>
            </Position>
            <AltitudeMeters>1477.199951171875</AltitudeMeters>
            <DistanceMeters>4709.0303096357</DistanceMeters>
          </Trackpoint>
          <Trackpoint>
            <Time>2022-08-20T11:47:03.000Z</Time>
            <Position>
              <LatitudeDegrees>42.803611457347869873046875</LatitudeDegrees>
              <LongitudeDegrees>-0.33632059581577777862548828125</LongitudeDegrees>
            </Position>
            <AltitudeMeters>1478.5999755859375</AltitudeMeters>
            <DistanceMeters>4718.4958481031</DistanceMeters>
          </Trackpoint>
          <Trackpoint>
            <Time>2022-08-20T11:47:04.000Z</Time>
            <Position>
              <LatitudeDegrees>42.8036317415535449981689453125</LatitudeDegrees>
              <LongitudeDegrees>-0.336319170892238616943359375</LongitudeDegrees>
            </Position>
            <AltitudeMeters>1478.800048828125</AltitudeMeters>
            <DistanceMeters>4720.7566053362</DistanceMeters>
          </Trackpoint>
          <Trackpoint>
            <Time>2022-08-20T11:47:05.000Z</Time>
            <Position>
              <LatitudeDegrees>42.8036463260650634765625</LatitudeDegrees>
              <LongitudeDegrees>-0.33632143400609493255615234375</LongitudeDegrees>
            </Position>
            <AltitudeMeters>1479</AltitudeMeters>
            <DistanceMeters>4722.3915067484</DistanceMeters>
          </Trackpoint>
          <Trackpoint>
            <Time>2022-08-20T11:47:06.000Z</Time>
            <Position>
              <LatitudeDegrees>42.80366116203367710113525390625</LatitudeDegrees>
              <LongitudeDegrees>-0.33632285892963409423828125</LongitudeDegrees>
            </Position>
            <AltitudeMeters>1479.199951171875</AltitudeMeters>
            <DistanceMeters>4724.0483541279</DistanceMeters>
          </Trackpoint>
          <Trackpoint>
            <Time>2022-08-20T11:47:19.000Z</Time>
            <Position>
              <LatitudeDegrees>42.8038533590734004974365234375</LatitudeDegrees>
              <LongitudeDegrees>-0.336317159235477447509765625</LongitudeDegrees>
            </Position>
            <AltitudeMeters>1479.800048828125</AltitudeMeters>
            <DistanceMeters>4745.4451967854</DistanceMeters>
          </Trackpoint>
          <Trackpoint>
            <Time>2022-08-20T11:47:31.000Z</Time>
            <Position>
              <LatitudeDegrees>42.80403750948607921600341796875</LatitudeDegrees>
              <LongitudeDegrees>-0.3363307379186153411865234375</LongitudeDegrees>
            </Position>
            <AltitudeMeters>1480.800048828125</AltitudeMeters>
            <DistanceMeters>4765.9714070231</DistanceMeters>
          </Trackpoint>
          <Trackpoint>
            <Time>2022-08-20T11:47:42.000Z</Time>
            <Position>
              <LatitudeDegrees>42.8041752241551876068115234375</LatitudeDegrees>
              <LongitudeDegrees>-0.33634222112596035003662109375</LongitudeDegrees>
            </Position>
            <AltitudeMeters>1482.800048828125</AltitudeMeters>
            <DistanceMeters>4781.3281474458</DistanceMeters>
          </Trackpoint>
          <Trackpoint>
            <Time>2022-08-20T11:47:49.000Z</Time>
            <Position>
              <LatitudeDegrees>42.8042342327535152435302734375</LatitudeDegrees>
              <LongitudeDegrees>-0.33638698048889636993408203125</LongitudeDegrees>
            </Position>
            <AltitudeMeters>1485.4000244140625</AltitudeMeters>
            <DistanceMeters>4788.8442739903</DistanceMeters>
          </Trackpoint>
          <Trackpoint>
            <Time>2022-08-20T11:47:57.000Z</Time>
            <Position>
              <LatitudeDegrees>42.8042989410459995269775390625</LatitudeDegrees>
              <LongitudeDegrees>-0.33643894828855991363525390625</LongitudeDegrees>
            </Position>
            <AltitudeMeters>1486.4000244140625</AltitudeMeters>
            <DistanceMeters>4797.2039247964</DistanceMeters>
          </Trackpoint>
          <Trackpoint>
            <Time>2022-08-20T11:47:59.000Z</Time>
            <Position>
              <LatitudeDegrees>42.80430422164499759674072265625</LatitudeDegrees>
              <LongitudeDegrees>-0.336459316313266754150390625</LongitudeDegrees>
            </Position>
            <AltitudeMeters>1487</AltitudeMeters>
            <DistanceMeters>4798.9664077883</DistanceMeters>
          </Trackpoint>
          <Trackpoint>
            <Time>2022-08-20T11:48:00.000Z</Time>
            <Position>
              <LatitudeDegrees>42.804311849176883697509765625</LatitudeDegrees>
              <LongitudeDegrees>-0.33646577037870883941650390625</LongitudeDegrees>
            </Position>
            <AltitudeMeters>1487</AltitudeMeters>
            <DistanceMeters>4799.9630563767</DistanceMeters>
          </Trackpoint>
          <Trackpoint>
            <Time>2022-08-20T11:48:02.000Z</Time>
            <Position>
              <LatitudeDegrees>42.8043316304683685302734375</LatitudeDegrees>
              <LongitudeDegrees>-0.3364635072648525238037109375</LongitudeDegrees>
            </Position>
            <AltitudeMeters>1486.800048828125</AltitudeMeters>
            <DistanceMeters>4802.1712776699</DistanceMeters>
          </Trackpoint>
          <Trackpoint>
            <Time>2022-08-20T11:48:04.000Z</Time>
            <Position>
              <LatitudeDegrees>42.80434763990342617034912109375</LatitudeDegrees>
              <LongitudeDegrees>-0.33645705319941043853759765625</LongitudeDegrees>
            </Position>
            <AltitudeMeters>1486.199951171875</AltitudeMeters>
            <DistanceMeters>4804.0285577246</DistanceMeters>
          </Trackpoint>
          <Trackpoint>
            <Time>2022-08-20T11:48:05.000Z</Time>
            <Position>
              <LatitudeDegrees>42.8043586201965808868408203125</LatitudeDegrees>
              <LongitudeDegrees>-0.33645956777036190032958984375</LongitudeDegrees>
            </Position>
            <AltitudeMeters>1486.199951171875</AltitudeMeters>
            <DistanceMeters>4805.2675544944</DistanceMeters>
          </Trackpoint>
          <Trackpoint>
            <Time>2022-08-20T11:48:08.000Z</Time>
            <Position>
              <LatitudeDegrees>42.8043804131448268890380859375</LatitudeDegrees>
              <LongitudeDegrees>-0.3364417143166065216064453125</LongitudeDegrees>
            </Position>
            <AltitudeMeters>1485.4000244140625</AltitudeMeters>
            <DistanceMeters>4808.0960961203</DistanceMeters>
          </Trackpoint>
          <Trackpoint>
            <Time>2022-08-20T11:48:11.000Z</Time>
            <Position>
              <LatitudeDegrees>42.8044008649885654449462890625</LatitudeDegrees>
              <LongitudeDegrees>-0.33644699491560459136962890625</LongitudeDegrees>
            </Position>
            <AltitudeMeters>1485.199951171875</AltitudeMeters>
            <DistanceMeters>4810.4120981513</DistanceMeters>
          </Trackpoint>
          <Trackpoint>
            <Time>2022-08-20T11:48:12.000Z</Time>
            <Position>
              <LatitudeDegrees>42.80441134236752986907958984375</LatitudeDegrees>
              <LongitudeDegrees>-0.3364457376301288604736328125</LongitudeDegrees>
            </Position>
            <AltitudeMeters>1485</AltitudeMeters>
            <DistanceMeters>4811.5836661687</DistanceMeters>
          </Trackpoint>
          <Trackpoint>
            <Time>2022-08-20T11:48:15.000Z</Time>
            <Position>
              <LatitudeDegrees>42.8044256754219532012939453125</LatitudeDegrees>
              <LongitudeDegrees>-0.33645026385784149169921875</LongitudeDegrees>
            </Position>
            <AltitudeMeters>1485</AltitudeMeters>
            <DistanceMeters>4813.2213269101</DistanceMeters>
          </Trackpoint>
          <Trackpoint>
            <Time>2022-08-20T11:48:17.000Z</Time>
            <Position>
              <LatitudeDegrees>42.80443824827671051025390625</LatitudeDegrees>
              <LongitudeDegrees>-0.33646166324615478515625</LongitudeDegrees>
            </Position>
            <AltitudeMeters>1484.800048828125</AltitudeMeters>
            <DistanceMeters>4814.9052045789</DistanceMeters>
          </Trackpoint>
          <Trackpoint>
            <Time>2022-08-20T11:48:20.000Z</Time>
            <Position>
              <LatitudeDegrees>42.80445492826402187347412109375</LatitudeDegrees>
              <LongitudeDegrees>-0.336464680731296539306640625</LongitudeDegrees>
            </Position>
            <AltitudeMeters>1484.4000244140625</AltitudeMeters>
            <DistanceMeters>4816.7770137733</DistanceMeters>
          </Trackpoint>
          <Trackpoint>
            <Time>2022-08-20T11:48:22.000Z</Time>
            <Position>
              <LatitudeDegrees>42.80445702373981475830078125</LatitudeDegrees>
              <LongitudeDegrees>-0.33644649200141429901123046875</LongitudeDegrees>
            </Position>
            <AltitudeMeters>1484</AltitudeMeters>
            <DistanceMeters>4818.2795180531</DistanceMeters>
          </Trackpoint>
          <Trackpoint>
            <Time>2022-08-20T11:48:23.000Z</Time>
            <Position>
              <LatitudeDegrees>42.8044642321765422821044921875</LatitudeDegrees>
              <LongitudeDegrees>-0.33644012175500392913818359375</LongitudeDegrees>
            </Position>
            <AltitudeMeters>1483.800048828125</AltitudeMeters>
            <DistanceMeters>4819.2345247132</DistanceMeters>
          </Trackpoint>
          <Trackpoint>
            <Time>2022-08-20T11:48:25.000Z</Time>
            <Position>
              <LatitudeDegrees>42.80447638593614101409912109375</LatitudeDegrees>
              <LongitudeDegrees>-0.33644012175500392913818359375</LongitudeDegrees>
            </Position>
            <AltitudeMeters>1483.4000244140625</AltitudeMeters>
            <DistanceMeters>4820.5851080841</DistanceMeters>
          </Trackpoint>
          <Trackpoint>
            <Time>2022-08-20T11:48:26.000Z</Time>
            <Position>
              <LatitudeDegrees>42.80448191799223423004150390625</LatitudeDegrees>
              <LongitudeDegrees>-0.33643953502178192138671875</LongitudeDegrees>
            </Position>
            <AltitudeMeters>1483.199951171875</AltitudeMeters>
            <DistanceMeters>4821.2009515794</DistanceMeters>
          </Trackpoint>
          <Trackpoint>
            <Time>2022-08-20T11:48:28.000Z</Time>
            <Position>
              <LatitudeDegrees>42.80450086109340190887451171875</LatitudeDegrees>
              <LongitudeDegrees>-0.33644163049757480621337890625</LongitudeDegrees>
            </Position>
            <AltitudeMeters>1482.800048828125</AltitudeMeters>
            <DistanceMeters>4823.3151625054</DistanceMeters>
          </Trackpoint>
          <Trackpoint>
            <Time>2022-08-20T11:48:30.000Z</Time>
            <Position>
              <LatitudeDegrees>42.80452198348939418792724609375</LatitudeDegrees>
              <LongitudeDegrees>-0.33643978647887706756591796875</LongitudeDegrees>
            </Position>
            <AltitudeMeters>1482.199951171875</AltitudeMeters>
            <DistanceMeters>4825.6736635314</DistanceMeters>
          </Trackpoint>
          <Trackpoint>
            <Time>2022-08-20T11:48:31.000Z</Time>
            <Position>
              <LatitudeDegrees>42.80453338287770748138427734375</LatitudeDegrees>
              <LongitudeDegrees>-0.33644163049757480621337890625</LongitudeDegrees>
            </Position>
            <AltitudeMeters>1482</AltitudeMeters>
            <DistanceMeters>4826.9556439964</DistanceMeters>
          </Trackpoint>
          <Trackpoint>
            <Time>2022-08-20T11:48:32.000Z</Time>
            <Position>
              <LatitudeDegrees>42.80453941784799098968505859375</LatitudeDegrees>
              <LongitudeDegrees>-0.336450599133968353271484375</LongitudeDegrees>
            </Position>
            <AltitudeMeters>1482.199951171875</AltitudeMeters>
            <DistanceMeters>4827.947752021</DistanceMeters>
          </Trackpoint>
          <Trackpoint>
            <Time>2022-08-20T11:48:36.000Z</Time>
            <Position>
              <LatitudeDegrees>42.804587781429290771484375</LatitudeDegrees>
              <LongitudeDegrees>-0.3364715538918972015380859375</LongitudeDegrees>
            </Position>
            <AltitudeMeters>1482.199951171875</AltitudeMeters>
            <DistanceMeters>4833.5952496969</DistanceMeters>
          </Trackpoint>
          <Trackpoint>
            <Time>2022-08-20T11:48:38.000Z</Time>
            <Position>
              <LatitudeDegrees>42.8046080656349658966064453125</LatitudeDegrees>
              <LongitudeDegrees>-0.3364796005189418792724609375</LongitudeDegrees>
            </Position>
            <AltitudeMeters>1482</AltitudeMeters>
            <DistanceMeters>4835.9480006103</DistanceMeters>
          </Trackpoint>
          <Trackpoint>
            <Time>2022-08-20T11:48:40.000Z</Time>
            <Position>
              <LatitudeDegrees>42.80462055467069149017333984375</LatitudeDegrees>
              <LongitudeDegrees>-0.3364884853363037109375</LongitudeDegrees>
            </Position>
            <AltitudeMeters>1482.199951171875</AltitudeMeters>
            <DistanceMeters>4837.5152213327</DistanceMeters>
          </Trackpoint>
          <Trackpoint>
            <Time>2022-08-20T11:48:41.000Z</Time>
            <Position>
              <LatitudeDegrees>42.80462575145065784454345703125</LatitudeDegrees>
              <LongitudeDegrees>-0.336491502821445465087890625</LongitudeDegrees>
            </Position>
            <AltitudeMeters>1482.199951171875</AltitudeMeters>
            <DistanceMeters>4838.1383531703</DistanceMeters>
          </Trackpoint>
          <Trackpoint>
            <Time>2022-08-20T11:48:43.000Z</Time>
            <Position>
              <LatitudeDegrees>42.8046315349638462066650390625</LatitudeDegrees>
              <LongitudeDegrees>-0.3364898264408111572265625</LongitudeDegrees>
            </Position>
            <AltitudeMeters>1482</AltitudeMeters>
            <DistanceMeters>4838.7967175598</DistanceMeters>
          </Trackpoint>
          <Trackpoint>
            <Time>2022-08-20T11:48:52.000Z</Time>
            <Position>
              <LatitudeDegrees>42.80469867400825023651123046875</LatitudeDegrees>
              <LongitudeDegrees>-0.33654975704848766326904296875</LongitudeDegrees>
            </Position>
            <AltitudeMeters>1482.199951171875</AltitudeMeters>
            <DistanceMeters>4847.7292287106</DistanceMeters>
          </Trackpoint>
          <Trackpoint>
            <Time>2022-08-20T11:48:53.000Z</Time>
            <Position>
              <LatitudeDegrees>42.80470722354948520660400390625</LatitudeDegrees>
              <LongitudeDegrees>-0.336554534733295440673828125</LongitudeDegrees>
            </Position>
            <AltitudeMeters>1482.199951171875</AltitudeMeters>
            <DistanceMeters>4848.7614830496</DistanceMeters>
          </Trackpoint>
          <Trackpoint>
            <Time>2022-08-20T11:48:54.000Z</Time>
            <Position>
              <LatitudeDegrees>42.80471459962427616119384765625</LatitudeDegrees>
              <LongitudeDegrees>-0.33655981533229351043701171875</LongitudeDegrees>
            </Position>
            <AltitudeMeters>1482.199951171875</AltitudeMeters>
            <DistanceMeters>4849.6876888918</DistanceMeters>
          </Trackpoint>
          <Trackpoint>
            <Time>2022-08-20T11:48:55.000Z</Time>
            <Position>
              <LatitudeDegrees>42.804721556603908538818359375</LatitudeDegrees>
              <LongitudeDegrees>-0.33656232990324497222900390625</LongitudeDegrees>
            </Position>
            <AltitudeMeters>1482.199951171875</AltitudeMeters>
            <DistanceMeters>4850.4940173013</DistanceMeters>
          </Trackpoint>
          <Trackpoint>
            <Time>2022-08-20T11:48:56.000Z</Time>
            <Position>
              <LatitudeDegrees>42.80472951941192150115966796875</LatitudeDegrees>
              <LongitudeDegrees>-0.3365664370357990264892578125</LongitudeDegrees>
            </Position>
            <AltitudeMeters>1482.199951171875</AltitudeMeters>
            <DistanceMeters>4851.444284445</DistanceMeters>
          </Trackpoint>
          <Trackpoint>
            <Time>2022-08-20T11:48:57.000Z</Time>
            <Position>
              <LatitudeDegrees>42.8047394938766956329345703125</LatitudeDegrees>
              <LongitudeDegrees>-0.33657406456768512725830078125</LongitudeDegrees>
            </Position>
            <AltitudeMeters>1482.199951171875</AltitudeMeters>
            <DistanceMeters>4852.7156552341</DistanceMeters>
          </Trackpoint>
          <Trackpoint>
            <Time>2022-08-20T11:48:58.000Z</Time>
            <Position>
              <LatitudeDegrees>42.8047482110559940338134765625</LatitudeDegrees>
              <LongitudeDegrees>-0.33658177591860294342041015625</LongitudeDegrees>
            </Position>
            <AltitudeMeters>1482.199951171875</AltitudeMeters>
            <DistanceMeters>4853.8717051092</DistanceMeters>
          </Trackpoint>
          <Trackpoint>
            <Time>2022-08-20T11:48:59.000Z</Time>
            <Position>
              <LatitudeDegrees>42.80475877225399017333984375</LatitudeDegrees>
              <LongitudeDegrees>-0.3365922532975673675537109375</LongitudeDegrees>
            </Position>
            <AltitudeMeters>1482.199951171875</AltitudeMeters>
            <DistanceMeters>4855.3253343219</DistanceMeters>
          </Trackpoint>
          <Trackpoint>
            <Time>2022-08-20T11:49:00.000Z</Time>
            <Position>
              <LatitudeDegrees>42.80477277003228664398193359375</LatitudeDegrees>
              <LongitudeDegrees>-0.3366002999246120452880859375</LongitudeDegrees>
            </Position>
            <AltitudeMeters>1482.199951171875</AltitudeMeters>
            <DistanceMeters>4857.0145661462</DistanceMeters>
          </Trackpoint>
          <Trackpoint>
            <Time>2022-08-20T11:49:01.000Z</Time>
            <Position>
              <LatitudeDegrees>42.8047854267060756683349609375</LatitudeDegrees>
              <LongitudeDegrees>-0.33660809509456157684326171875</LongitudeDegrees>
            </Position>
            <AltitudeMeters>1482</AltitudeMeters>
            <DistanceMeters>4858.5585675002</DistanceMeters>
          </Trackpoint>
          <Trackpoint>
            <Time>2022-08-20T11:49:04.000Z</Time>
            <Position>
              <LatitudeDegrees>42.80481501482427120208740234375</LatitudeDegrees>
              <LongitudeDegrees>-0.3366401977837085723876953125</LongitudeDegrees>
            </Position>
            <AltitudeMeters>1482.5999755859375</AltitudeMeters>
            <DistanceMeters>4862.7677253712</DistanceMeters>
          </Trackpoint>
          <Trackpoint>
            <Time>2022-08-20T11:49:14.000Z</Time>
            <Position>
              <LatitudeDegrees>42.80491643585264682769775390625</LatitudeDegrees>
              <LongitudeDegrees>-0.33677347004413604736328125</LongitudeDegrees>
            </Position>
            <AltitudeMeters>1486.5999755859375</AltitudeMeters>
            <DistanceMeters>4878.4479970977</DistanceMeters>
          </Trackpoint>
          <Trackpoint>
            <Time>2022-08-20T11:49:22.000Z</Time>
            <Position>
              <LatitudeDegrees>42.80497946776449680328369140625</LatitudeDegrees>
              <LongitudeDegrees>-0.3368792496621608734130859375</LongitudeDegrees>
            </Position>
            <AltitudeMeters>1486.800048828125</AltitudeMeters>
            <DistanceMeters>4889.5754589916</DistanceMeters>
          </Trackpoint>
          <Trackpoint>
            <Time>2022-08-20T11:49:28.000Z</Time>
            <Position>
              <LatitudeDegrees>42.80503897927701473236083984375</LatitudeDegrees>
              <LongitudeDegrees>-0.33695586025714874267578125</LongitudeDegrees>
            </Position>
            <AltitudeMeters>1488.199951171875</AltitudeMeters>
            <DistanceMeters>4898.6861374884</DistanceMeters>
          </Trackpoint>
          <Trackpoint>
            <Time>2022-08-20T11:49:33.000Z</Time>
            <Position>
              <LatitudeDegrees>42.805082313716411590576171875</LatitudeDegrees>
              <LongitudeDegrees>-0.3370110131800174713134765625</LongitudeDegrees>
            </Position>
            <AltitudeMeters>1487.800048828125</AltitudeMeters>
            <DistanceMeters>4905.284851652</DistanceMeters>
          </Trackpoint>
          <Trackpoint>
            <Time>2022-08-20T11:49:43.000Z</Time>
            <Position>
              <LatitudeDegrees>42.8051730059087276458740234375</LatitudeDegrees>
              <LongitudeDegrees>-0.3371219895780086517333984375</LongitudeDegrees>
            </Position>
            <AltitudeMeters>1489.199951171875</AltitudeMeters>
            <DistanceMeters>4918.8507264092</DistanceMeters>
          </Trackpoint>
          <Trackpoint>
            <Time>2022-08-20T11:49:54.000Z</Time>
            <Position>
              <LatitudeDegrees>42.8052685596048831939697265625</LatitudeDegrees>
              <LongitudeDegrees>-0.3371873684227466583251953125</LongitudeDegrees>
            </Position>
            <AltitudeMeters>1487.4000244140625</AltitudeMeters>
            <DistanceMeters>4930.7507120728</DistanceMeters>
          </Trackpoint>
          <Trackpoint>
            <Time>2022-08-20T11:50:10.000Z</Time>
            <Position>
              <LatitudeDegrees>42.8054237924516201019287109375</LatitudeDegrees>
              <LongitudeDegrees>-0.3373137675225734710693359375</LongitudeDegrees>
            </Position>
            <AltitudeMeters>1486.5999755859375</AltitudeMeters>
            <DistanceMeters>4950.87664333</DistanceMeters>
          </Trackpoint>
          <Trackpoint>
            <Time>2022-08-20T11:50:15.000Z</Time>
            <Position>
              <LatitudeDegrees>42.805475257337093353271484375</LatitudeDegrees>
              <LongitudeDegrees>-0.33733648248016834259033203125</LongitudeDegrees>
            </Position>
            <AltitudeMeters>1486.199951171875</AltitudeMeters>
            <DistanceMeters>4956.8971687926</DistanceMeters>
          </Trackpoint>
          <Trackpoint>
            <Time>2022-08-20T11:50:29.000Z</Time>
            <Position>
              <LatitudeDegrees>42.8056001476943492889404296875</LatitudeDegrees>
              <LongitudeDegrees>-0.33741493709385395050048828125</LongitudeDegrees>
            </Position>
            <AltitudeMeters>1484.199951171875</AltitudeMeters>
            <DistanceMeters>4972.2026659459</DistanceMeters>
          </Trackpoint>
          <Trackpoint>
            <Time>2022-08-20T11:50:41.000Z</Time>
            <Position>
              <LatitudeDegrees>42.80570751987397670745849609375</LatitudeDegrees>
              <LongitudeDegrees>-0.3375162743031978607177734375</LongitudeDegrees>
            </Position>
            <AltitudeMeters>1485.5999755859375</AltitudeMeters>
            <DistanceMeters>4986.7386474646</DistanceMeters>
          </Trackpoint>
          <Trackpoint>
            <Time>2022-08-20T11:50:44.000Z</Time>
            <Position>
              <LatitudeDegrees>42.80572445131838321685791015625</LatitudeDegrees>
              <LongitudeDegrees>-0.33755172975361347198486328125</LongitudeDegrees>
            </Position>
            <AltitudeMeters>1486.5999755859375</AltitudeMeters>
            <DistanceMeters>4990.1937539838</DistanceMeters>
          </Trackpoint>
          <Trackpoint>
            <Time>2022-08-20T11:50:54.000Z</Time>
            <Position>
              <LatitudeDegrees>42.80578228645026683807373046875</LatitudeDegrees>
              <LongitudeDegrees>-0.33763504587113857269287109375</LongitudeDegrees>
            </Position>
            <AltitudeMeters>1488.5999755859375</AltitudeMeters>
            <DistanceMeters>4999.5600335362</DistanceMeters>
          </Trackpoint>
          <Trackpoint>
            <Time>2022-08-20T11:50:56.000Z</Time>
            <Position>
              <LatitudeDegrees>42.80579955317080020904541015625</LatitudeDegrees>
              <LongitudeDegrees>-0.33763772808015346527099609375</LongitudeDegrees>
            </Position>
            <AltitudeMeters>1488.5999755859375</AltitudeMeters>
            <DistanceMeters>5001.4935411384</DistanceMeters>
          </Trackpoint>
          <Trackpoint>
            <Time>2022-08-20T11:51:02.000Z</Time>
            <Position>
              <LatitudeDegrees>42.80582654289901256561279296875</LatitudeDegrees>
              <LongitudeDegrees>-0.33767343498766422271728515625</LongitudeDegrees>
            </Position>
            <AltitudeMeters>1489.199951171875</AltitudeMeters>
            <DistanceMeters>5005.679033738</DistanceMeters>
          </Trackpoint>
          <Trackpoint>
            <Time>2022-08-20T11:51:09.000Z</Time>
            <Position>
              <LatitudeDegrees>42.8058482520282268524169921875</LatitudeDegrees>
              <LongitudeDegrees>-0.3377385623753070831298828125</LongitudeDegrees>
            </Position>
            <AltitudeMeters>1491</AltitudeMeters>
            <DistanceMeters>5011.5198923055</DistanceMeters>
          </Trackpoint>
          <Trackpoint>
            <Time>2022-08-20T11:51:12.000Z</Time>
            <Position>
              <LatitudeDegrees>42.80586459673941135406494140625</LatitudeDegrees>
              <LongitudeDegrees>-0.33776261843740940093994140625</LongitudeDegrees>
            </Position>
            <AltitudeMeters>1491.4000244140625</AltitudeMeters>
            <DistanceMeters>5014.1941810976</DistanceMeters>
          </Trackpoint>
          <Trackpoint>
            <Time>2022-08-20T11:51:14.000Z</Time>
            <Position>
              <LatitudeDegrees>42.8058770857751369476318359375</LatitudeDegrees>
              <LongitudeDegrees>-0.337772928178310394287109375</LongitudeDegrees>
            </Position>
            <AltitudeMeters>1491.4000244140625</AltitudeMeters>
            <DistanceMeters>5015.8179983045</DistanceMeters>
          </Trackpoint>
          <Trackpoint>
            <Time>2022-08-20T11:51:18.000Z</Time>
            <Position>
              <LatitudeDegrees>42.805911116302013397216796875</LatitudeDegrees>
              <LongitudeDegrees>-0.33778759650886058807373046875</LongitudeDegrees>
            </Position>
            <AltitudeMeters>1491.800048828125</AltitudeMeters>
            <DistanceMeters>5019.7898421519</DistanceMeters>
          </Trackpoint>
          <Trackpoint>
            <Time>2022-08-20T11:51:21.000Z</Time>
            <Position>
              <LatitudeDegrees>42.8059427998960018157958984375</LatitudeDegrees>
              <LongitudeDegrees>-0.33779430203139781951904296875</LongitudeDegrees>
            </Position>
            <AltitudeMeters>1492</AltitudeMeters>
            <DistanceMeters>5023.3568265518</DistanceMeters>
          </Trackpoint>
          <Trackpoint>
            <Time>2022-08-20T11:51:25.000Z</Time>
            <Position>
              <LatitudeDegrees>42.80596853233873844146728515625</LatitudeDegrees>
              <LongitudeDegrees>-0.33782062120735645294189453125</LongitudeDegrees>
            </Position>
            <AltitudeMeters>1492.5999755859375</AltitudeMeters>
            <DistanceMeters>5026.9364464302</DistanceMeters>
          </Trackpoint>
          <Trackpoint>
            <Time>2022-08-20T11:51:32.000Z</Time>
            <Position>
              <LatitudeDegrees>42.8060195781290531158447265625</LatitudeDegrees>
              <LongitudeDegrees>-0.3378394804894924163818359375</LongitudeDegrees>
            </Position>
            <AltitudeMeters>1493</AltitudeMeters>
            <DistanceMeters>5032.8235028587</DistanceMeters>
          </Trackpoint>
          <Trackpoint>
            <Time>2022-08-20T11:51:34.000Z</Time>
            <Position>
              <LatitudeDegrees>42.80603558756411075592041015625</LatitudeDegrees>
              <LongitudeDegrees>-0.3378418274223804473876953125</LongitudeDegrees>
            </Position>
            <AltitudeMeters>1493.199951171875</AltitudeMeters>
            <DistanceMeters>5034.6164633195</DistanceMeters>
          </Trackpoint>
          <Trackpoint>
            <Time>2022-08-20T11:51:37.000Z</Time>
            <Position>
              <LatitudeDegrees>42.8060561232268810272216796875</LatitudeDegrees>
              <LongitudeDegrees>-0.337861441075801849365234375</LongitudeDegrees>
            </Position>
            <AltitudeMeters>1493.5999755859375</AltitudeMeters>
            <DistanceMeters>5037.4064321177</DistanceMeters>
          </Trackpoint>
          <Trackpoint>
            <Time>2022-08-20T11:51:41.000Z</Time>
            <Position>
              <LatitudeDegrees>42.806064672768115997314453125</LatitudeDegrees>
              <LongitudeDegrees>-0.33789941109716892242431640625</LongitudeDegrees>
            </Position>
            <AltitudeMeters>1494.5999755859375</AltitudeMeters>
            <DistanceMeters>5040.6512848314</DistanceMeters>
          </Trackpoint>
          <Trackpoint>
            <Time>2022-08-20T11:51:42.000Z</Time>
            <Position>
              <LatitudeDegrees>42.8060651756823062896728515625</LatitudeDegrees>
              <LongitudeDegrees>-0.33791097812354564666748046875</LongitudeDegrees>
            </Position>
            <AltitudeMeters>1495</AltitudeMeters>
            <DistanceMeters>5041.6015519751</DistanceMeters>
          </Trackpoint>
          <Trackpoint>
            <Time>2022-08-20T11:51:48.000Z</Time>
            <Position>
              <LatitudeDegrees>42.80609006993472576141357421875</LatitudeDegrees>
              <LongitudeDegrees>-0.33793888986110687255859375</LongitudeDegrees>
            </Position>
            <AltitudeMeters>1495.4000244140625</AltitudeMeters>
            <DistanceMeters>5045.189990216</DistanceMeters>
          </Trackpoint>
          <Trackpoint>
            <Time>2022-08-20T11:52:00.000Z</Time>
            <Position>
              <LatitudeDegrees>42.80613499693572521209716796875</LatitudeDegrees>
              <LongitudeDegrees>-0.3380124829709529876708984375</LongitudeDegrees>
            </Position>
            <AltitudeMeters>1496.800048828125</AltitudeMeters>
            <DistanceMeters>5053.0076341944</DistanceMeters>
          </Trackpoint>
          <Trackpoint>
            <Time>2022-08-20T11:52:05.000Z</Time>
            <Position>
              <LatitudeDegrees>42.80613248236477375030517578125</LatitudeDegrees>
              <LongitudeDegrees>-0.33808884210884571075439453125</LongitudeDegrees>
            </Position>
            <AltitudeMeters>1498.5999755859375</AltitudeMeters>
            <DistanceMeters>5059.2490883342</DistanceMeters>
          </Trackpoint>
          <Trackpoint>
            <Time>2022-08-20T11:52:20.000Z</Time>
            <Position>
              <LatitudeDegrees>42.80619165860116481781005859375</LatitudeDegrees>
              <LongitudeDegrees>-0.33829771913588047027587890625</LongitudeDegrees>
            </Position>
            <AltitudeMeters>1502.199951171875</AltitudeMeters>
            <DistanceMeters>5077.5332752209</DistanceMeters>
          </Trackpoint>
          <Trackpoint>
            <Time>2022-08-20T11:52:30.000Z</Time>
            <Position>
              <LatitudeDegrees>42.8062753938138484954833984375</LatitudeDegrees>
              <LongitudeDegrees>-0.3383843041956424713134765625</LongitudeDegrees>
            </Position>
            <AltitudeMeters>1502.199951171875</AltitudeMeters>
            <DistanceMeters>5089.2316002509</DistanceMeters>
          </Trackpoint>
          <Trackpoint>
            <Time>2022-08-20T11:52:37.000Z</Time>
            <Position>
              <LatitudeDegrees>42.8063226677477359771728515625</LatitudeDegrees>
              <LongitudeDegrees>-0.3384540416300296783447265625</LongitudeDegrees>
            </Position>
            <AltitudeMeters>1502.5999755859375</AltitudeMeters>
            <DistanceMeters>5096.9854540646</DistanceMeters>
          </Trackpoint>
          <Trackpoint>
            <Time>2022-08-20T11:52:48.000Z</Time>
            <Position>
              <LatitudeDegrees>42.80644194222986698150634765625</LatitudeDegrees>
              <LongitudeDegrees>-0.33854565583169460296630859375</LongitudeDegrees>
            </Position>
            <AltitudeMeters>1503.800048828125</AltitudeMeters>
            <DistanceMeters>5112.2232477239</DistanceMeters>
          </Trackpoint>
          <Trackpoint>
            <Time>2022-08-20T11:52:53.000Z</Time>
            <Position>
              <LatitudeDegrees>42.80649944208562374114990234375</LatitudeDegrees>
              <LongitudeDegrees>-0.3385777585208415985107421875</LongitudeDegrees>
            </Position>
            <AltitudeMeters>1504.199951171875</AltitudeMeters>
            <DistanceMeters>5119.1386858769</DistanceMeters>
          </Trackpoint>
          <Trackpoint>
            <Time>2022-08-20T11:53:07.000Z</Time>
            <Position>
              <LatitudeDegrees>42.8066678345203399658203125</LatitudeDegrees>
              <LongitudeDegrees>-0.33865545876324176788330078125</LongitudeDegrees>
            </Position>
            <AltitudeMeters>1505.5999755859375</AltitudeMeters>
            <DistanceMeters>5138.9261595562</DistanceMeters>
          </Trackpoint>
          <Trackpoint>
            <Time>2022-08-20T11:53:09.000Z</Time>
            <Position>
              <LatitudeDegrees>42.80668350867927074432373046875</LatitudeDegrees>
              <LongitudeDegrees>-0.33866819925606250762939453125</LongitudeDegrees>
            </Position>
            <AltitudeMeters>1506</AltitudeMeters>
            <DistanceMeters>5140.9575986852</DistanceMeters>
          </Trackpoint>
          <Trackpoint>
            <Time>2022-08-20T11:53:10.000Z</Time>
            <Position>
              <LatitudeDegrees>42.80669323168694972991943359375</LatitudeDegrees>
              <LongitudeDegrees>-0.33867138437926769256591796875</LongitudeDegrees>
            </Position>
            <AltitudeMeters>1506.199951171875</AltitudeMeters>
            <DistanceMeters>5142.0739098198</DistanceMeters>
          </Trackpoint>
          <Trackpoint>
            <Time>2022-08-20T11:53:12.000Z</Time>
            <Position>
              <LatitudeDegrees>42.8067139349877834320068359375</LatitudeDegrees>
              <LongitudeDegrees>-0.338665433228015899658203125</LongitudeDegrees>
            </Position>
            <AltitudeMeters>1506.199951171875</AltitudeMeters>
            <DistanceMeters>5144.4285789976</DistanceMeters>
          </Trackpoint>
          <Trackpoint>
            <Time>2022-08-20T11:53:25.000Z</Time>
            <Position>
              <LatitudeDegrees>42.8068866021931171417236328125</LatitudeDegrees>
              <LongitudeDegrees>-0.33859477378427982330322265625</LongitudeDegrees>
            </Position>
            <AltitudeMeters>1504.800048828125</AltitudeMeters>
            <DistanceMeters>5164.4942972375</DistanceMeters>
          </Trackpoint>
          <Trackpoint>
            <Time>2022-08-20T11:53:39.000Z</Time>
            <Position>
              <LatitudeDegrees>42.8070673160254955291748046875</LatitudeDegrees>
              <LongitudeDegrees>-0.33858597278594970703125</LongitudeDegrees>
            </Position>
            <AltitudeMeters>1504.5999755859375</AltitudeMeters>
            <DistanceMeters>5184.6209015015</DistanceMeters>
          </Trackpoint>
          <Trackpoint>
            <Time>2022-08-20T11:53:57.000Z</Time>
            <Position>
              <LatitudeDegrees>42.8071238100528717041015625</LatitudeDegrees>
              <LongitudeDegrees>-0.33880214206874370574951171875</LongitudeDegrees>
            </Position>
            <AltitudeMeters>1511.5999755859375</AltitudeMeters>
            <DistanceMeters>5203.359244343</DistanceMeters>
          </Trackpoint>
          <Trackpoint>
            <Time>2022-08-20T11:54:02.000Z</Time>
            <Position>
              <LatitudeDegrees>42.807134874165058135986328125</LatitudeDegrees>
              <LongitudeDegrees>-0.338858552277088165283203125</LongitudeDegrees>
            </Position>
            <AltitudeMeters>1514</AltitudeMeters>
            <DistanceMeters>5208.1267072332</DistanceMeters>
          </Trackpoint>
          <Trackpoint>
            <Time>2022-08-20T11:54:09.000Z</Time>
            <Position>
              <LatitudeDegrees>42.80717351473867893218994140625</LatitudeDegrees>
              <LongitudeDegrees>-0.33893977291882038116455078125</LongitudeDegrees>
            </Position>
            <AltitudeMeters>1516.800048828125</AltitudeMeters>
            <DistanceMeters>5216.0316505595</DistanceMeters>
          </Trackpoint>
          <Trackpoint>
            <Time>2022-08-20T11:54:12.000Z</Time>
            <Position>
              <LatitudeDegrees>42.8071930445730686187744140625</LatitudeDegrees>
              <LongitudeDegrees>-0.3389733843505382537841796875</LongitudeDegrees>
            </Position>
            <AltitudeMeters>1518</AltitudeMeters>
            <DistanceMeters>5219.5321953363</DistanceMeters>
          </Trackpoint>
          <Trackpoint>
            <Time>2022-08-20T11:54:25.000Z</Time>
            <Position>
              <LatitudeDegrees>42.8073452599346637725830078125</LatitudeDegrees>
              <LongitudeDegrees>-0.33899727277457714080810546875</LongitudeDegrees>
            </Position>
            <AltitudeMeters>1519.5999755859375</AltitudeMeters>
            <DistanceMeters>5236.5857181968</DistanceMeters>
          </Trackpoint>
          <Trackpoint>
            <Time>2022-08-20T11:54:33.000Z</Time>
            <Position>
              <LatitudeDegrees>42.8074163384735584259033203125</LatitudeDegrees>
              <LongitudeDegrees>-0.3390166349709033966064453125</LongitudeDegrees>
            </Position>
            <AltitudeMeters>1519.5999755859375</AltitudeMeters>
            <DistanceMeters>5244.6534806505</DistanceMeters>
          </Trackpoint>
          <Trackpoint>
            <Time>2022-08-20T11:54:35.000Z</Time>
            <Position>
              <LatitudeDegrees>42.8074243851006031036376953125</LatitudeDegrees>
              <LongitudeDegrees>-0.33902225084602832794189453125</LongitudeDegrees>
            </Position>
            <AltitudeMeters>1519.800048828125</AltitudeMeters>
            <DistanceMeters>5245.659148867</DistanceMeters>
          </Trackpoint>
          <Trackpoint>
            <Time>2022-08-20T11:54:41.000Z</Time>
            <Position>
              <LatitudeDegrees>42.8074639476835727691650390625</LatitudeDegrees>
              <LongitudeDegrees>-0.33905468881130218505859375</LongitudeDegrees>
            </Position>
            <AltitudeMeters>1520.800048828125</AltitudeMeters>
            <DistanceMeters>5250.7976256376</DistanceMeters>
          </Trackpoint>
          <Trackpoint>
            <Time>2022-08-20T11:54:43.000Z</Time>
            <Position>
              <LatitudeDegrees>42.80747543089091777801513671875</LatitudeDegrees>
              <LongitudeDegrees>-0.33905695192515850067138671875</LongitudeDegrees>
            </Position>
            <AltitudeMeters>1520.800048828125</AltitudeMeters>
            <DistanceMeters>5252.0866307057</DistanceMeters>
          </Trackpoint>
          <Trackpoint>
            <Time>2022-08-20T11:54:44.000Z</Time>
            <Position>
              <LatitudeDegrees>42.80747878365218639373779296875</LatitudeDegrees>
              <LongitudeDegrees>-0.33906147815287113189697265625</LongitudeDegrees>
            </Position>
            <AltitudeMeters>1521</AltitudeMeters>
            <DistanceMeters>5252.607113456</DistanceMeters>
          </Trackpoint>
          <Trackpoint>
            <Time>2022-08-20T11:54:47.000Z</Time>
            <Position>
              <LatitudeDegrees>42.807483561336994171142578125</LatitudeDegrees>
              <LongitudeDegrees>-0.339052341878414154052734375</LongitudeDegrees>
            </Position>
            <AltitudeMeters>1520.800048828125</AltitudeMeters>
            <DistanceMeters>5253.5185776807</DistanceMeters>
          </Trackpoint>
          <Trackpoint>
            <Time>2022-08-20T11:54:52.000Z</Time>
            <Position>
              <LatitudeDegrees>42.8074991516768932342529296875</LatitudeDegrees>
              <LongitudeDegrees>-0.3390390984714031219482421875</LongitudeDegrees>
            </Position>
            <AltitudeMeters>1520.4000244140625</AltitudeMeters>
            <DistanceMeters>5255.561099484</DistanceMeters>
          </Trackpoint>
          <Trackpoint>
            <Time>2022-08-20T11:54:56.000Z</Time>
            <Position>
              <LatitudeDegrees>42.80750677920877933502197265625</LatitudeDegrees>
              <LongitudeDegrees>-0.3390245139598846435546875</LongitudeDegrees>
            </Position>
            <AltitudeMeters>1519.800048828125</AltitudeMeters>
            <DistanceMeters>5257.02092757</DistanceMeters>
          </Trackpoint>
          <Trackpoint>
            <Time>2022-08-20T11:54:58.000Z</Time>
            <Position>
              <LatitudeDegrees>42.80752555467188358306884765625</LatitudeDegrees>
              <LongitudeDegrees>-0.33901286311447620391845703125</LongitudeDegrees>
            </Position>
            <AltitudeMeters>1519.4000244140625</AltitudeMeters>
            <DistanceMeters>5259.3173518869</DistanceMeters>
          </Trackpoint>
          <Trackpoint>
            <Time>2022-08-20T11:55:01.000Z</Time>
            <Position>
              <LatitudeDegrees>42.80755522660911083221435546875</LatitudeDegrees>
              <LongitudeDegrees>-0.33901219256222248077392578125</LongitudeDegrees>
            </Position>
            <AltitudeMeters>1519.4000244140625</AltitudeMeters>
            <DistanceMeters>5262.6228613026</DistanceMeters>
          </Trackpoint>
          <Trackpoint>
            <Time>2022-08-20T11:55:21.000Z</Time>
            <Position>
              <LatitudeDegrees>42.80763267539441585540771484375</LatitudeDegrees>
              <LongitudeDegrees>-0.3392350673675537109375</LongitudeDegrees>
            </Position>
            <AltitudeMeters>1528.199951171875</AltitudeMeters>
            <DistanceMeters>5282.760006403</DistanceMeters>
          </Trackpoint>
          <Trackpoint>
            <Time>2022-08-20T11:55:23.000Z</Time>
            <Position>
              <LatitudeDegrees>42.8076396323740482330322265625</LatitudeDegrees>
              <LongitudeDegrees>-0.339256860315799713134765625</LongitudeDegrees>
            </Position>
            <AltitudeMeters>1529.199951171875</AltitudeMeters>
            <DistanceMeters>5284.7005068222</DistanceMeters>
          </Trackpoint>
          <Trackpoint>
            <Time>2022-08-20T11:55:38.000Z</Time>
            <Position>
              <LatitudeDegrees>42.8076882474124431610107421875</LatitudeDegrees>
              <LongitudeDegrees>-0.3393891267478466033935546875</LongitudeDegrees>
            </Position>
            <AltitudeMeters>1534.4000244140625</AltitudeMeters>
            <DistanceMeters>5296.7801179608</DistanceMeters>
          </Trackpoint>
          <Trackpoint>
            <Time>2022-08-20T11:55:39.000Z</Time>
            <Position>
              <LatitudeDegrees>42.80769386328756809234619140625</LatitudeDegrees>
              <LongitudeDegrees>-0.3393891267478466033935546875</LongitudeDegrees>
            </Position>
            <AltitudeMeters>1534.4000244140625</AltitudeMeters>
            <DistanceMeters>5297.410453874</DistanceMeters>
          </Trackpoint>
          <Trackpoint>
            <Time>2022-08-20T11:55:42.000Z</Time>
            <Position>
              <LatitudeDegrees>42.80771079473197460174560546875</LatitudeDegrees>
              <LongitudeDegrees>-0.3393887914717197418212890625</LongitudeDegrees>
            </Position>
            <AltitudeMeters>1534.5999755859375</AltitudeMeters>
            <DistanceMeters>5299.296680297</DistanceMeters>
          </Trackpoint>
          <Trackpoint>
            <Time>2022-08-20T11:55:45.000Z</Time>
            <Position>
              <LatitudeDegrees>42.80773929320275783538818359375</LatitudeDegrees>
              <LongitudeDegrees>-0.33937931992113590240478515625</LongitudeDegrees>
            </Position>
            <AltitudeMeters>1534.4000244140625</AltitudeMeters>
            <DistanceMeters>5302.5595716724</DistanceMeters>
          </Trackpoint>
          <Trackpoint>
            <Time>2022-08-20T11:55:49.000Z</Time>
            <Position>
              <LatitudeDegrees>42.8077593259513378143310546875</LatitudeDegrees>
              <LongitudeDegrees>-0.339354760944843292236328125</LongitudeDegrees>
            </Position>
            <AltitudeMeters>1533.800048828125</AltitudeMeters>
            <DistanceMeters>5305.5585641929</DistanceMeters>
          </Trackpoint>
          <Trackpoint>
            <Time>2022-08-20T11:55:56.000Z</Time>
            <Position>
              <LatitudeDegrees>42.8077988885343074798583984375</LatitudeDegrees>
              <LongitudeDegrees>-0.3393049724400043487548828125</LongitudeDegrees>
            </Position>
            <AltitudeMeters>1532.4000244140625</AltitudeMeters>
            <DistanceMeters>5311.5520309772</DistanceMeters>
          </Trackpoint>
          <Trackpoint>
            <Time>2022-08-20T11:56:01.000Z</Time>
            <Position>
              <LatitudeDegrees>42.8078263811767101287841796875</LatitudeDegrees>
              <LongitudeDegrees>-0.3392788209021091461181640625</LongitudeDegrees>
            </Position>
            <AltitudeMeters>1531.800048828125</AltitudeMeters>
            <DistanceMeters>5315.2835692493</DistanceMeters>
          </Trackpoint>
          <Trackpoint>
            <Time>2022-08-20T11:56:08.000Z</Time>
            <Position>
              <LatitudeDegrees>42.8078485094010829925537109375</LatitudeDegrees>
              <LongitudeDegrees>-0.3392030484974384307861328125</LongitudeDegrees>
            </Position>
            <AltitudeMeters>1529.5999755859375</AltitudeMeters>
            <DistanceMeters>5321.9429014543</DistanceMeters>
          </Trackpoint>
          <Trackpoint>
            <Time>2022-08-20T11:56:13.000Z</Time>
            <Position>
              <LatitudeDegrees>42.8078562207520008087158203125</LatitudeDegrees>
              <LongitudeDegrees>-0.33918678760528564453125</LongitudeDegrees>
            </Position>
            <AltitudeMeters>1529</AltitudeMeters>
            <DistanceMeters>5323.5216038007</DistanceMeters>
          </Trackpoint>
          <Trackpoint>
            <Time>2022-08-20T11:56:18.000Z</Time>
            <Position>
              <LatitudeDegrees>42.8078639321029186248779296875</LatitudeDegrees>
              <LongitudeDegrees>-0.339130796492099761962890625</LongitudeDegrees>
            </Position>
            <AltitudeMeters>1527.4000244140625</AltitudeMeters>
            <DistanceMeters>5328.1730619764</DistanceMeters>
          </Trackpoint>
          <Trackpoint>
            <Time>2022-08-20T11:56:37.000Z</Time>
            <Position>
              <LatitudeDegrees>42.807967029511928558349609375</LatitudeDegrees>
              <LongitudeDegrees>-0.338922254741191864013671875</LongitudeDegrees>
            </Position>
            <AltitudeMeters>1525.4000244140625</AltitudeMeters>
            <DistanceMeters>5348.7069695294</DistanceMeters>
          </Trackpoint>
          <Trackpoint>
            <Time>2022-08-20T11:56:40.000Z</Time>
            <Position>
              <LatitudeDegrees>42.80795873142778873443603515625</LatitudeDegrees>
              <LongitudeDegrees>-0.33889451064169406890869140625</LongitudeDegrees>
            </Position>
            <AltitudeMeters>1524.4000244140625</AltitudeMeters>
            <DistanceMeters>5351.1519461358</DistanceMeters>
          </Trackpoint>
          <Trackpoint>
            <Time>2022-08-20T11:56:42.000Z</Time>
            <Position>
              <LatitudeDegrees>42.80795152299106121063232421875</LatitudeDegrees>
              <LongitudeDegrees>-0.33888914622366428375244140625</LongitudeDegrees>
            </Position>
            <AltitudeMeters>1524</AltitudeMeters>
            <DistanceMeters>5352.0634103605</DistanceMeters>
          </Trackpoint>
          <Trackpoint>
            <Time>2022-08-20T11:56:43.000Z</Time>
            <Position>
              <LatitudeDegrees>42.80794800259172916412353515625</LatitudeDegrees>
              <LongitudeDegrees>-0.338883362710475921630859375</LongitudeDegrees>
            </Position>
            <AltitudeMeters>1523.800048828125</AltitudeMeters>
            <DistanceMeters>5352.6792538558</DistanceMeters>
          </Trackpoint>
          <Trackpoint>
            <Time>2022-08-20T11:56:44.000Z</Time>
            <Position>
              <LatitudeDegrees>42.80793325044214725494384765625</LatitudeDegrees>
              <LongitudeDegrees>-0.3388904035091400146484375</LongitudeDegrees>
            </Position>
            <AltitudeMeters>1523.4000244140625</AltitudeMeters>
            <DistanceMeters>5354.4159304325</DistanceMeters>
          </Trackpoint>
          <Trackpoint>
            <Time>2022-08-20T11:56:45.000Z</Time>
            <Position>
              <LatitudeDegrees>42.80793182551860809326171875</LatitudeDegrees>
              <LongitudeDegrees>-0.3388905711472034454345703125</LongitudeDegrees>
            </Position>
            <AltitudeMeters>1523.4000244140625</AltitudeMeters>
            <DistanceMeters>5354.5503185008</DistanceMeters>
          </Trackpoint>
          <Trackpoint>
            <Time>2022-08-20T11:56:46.000Z</Time>
            <Position>
              <LatitudeDegrees>42.80792268924415111541748046875</LatitudeDegrees>
              <LongitudeDegrees>-0.33888847567141056060791015625</LongitudeDegrees>
            </Position>
            <AltitudeMeters>1523</AltitudeMeters>
            <DistanceMeters>5355.5781895744</DistanceMeters>
          </Trackpoint>
          <Trackpoint>
            <Time>2022-08-20T11:56:47.000Z</Time>
            <Position>
              <LatitudeDegrees>42.80792352743446826934814453125</LatitudeDegrees>
              <LongitudeDegrees>-0.33889300189912319183349609375</LongitudeDegrees>
            </Position>
            <AltitudeMeters>1523.199951171875</AltitudeMeters>
            <DistanceMeters>5355.9582964318</DistanceMeters>
          </Trackpoint>
          <Trackpoint>
            <Time>2022-08-20T11:56:48.000Z</Time>
            <Position>
              <LatitudeDegrees>42.80791933648288249969482421875</LatitudeDegrees>
              <LongitudeDegrees>-0.33890238963067531585693359375</LongitudeDegrees>
            </Position>
            <AltitudeMeters>1523.199951171875</AltitudeMeters>
            <DistanceMeters>5356.8597989998</DistanceMeters>
          </Trackpoint>
          <Trackpoint>
            <Time>2022-08-20T11:56:54.000Z</Time>
            <Position>
              <LatitudeDegrees>42.80795998871326446533203125</LatitudeDegrees>
              <LongitudeDegrees>-0.33892317675054073333740234375</LongitudeDegrees>
            </Position>
            <AltitudeMeters>1525.199951171875</AltitudeMeters>
            <DistanceMeters>5361.6921667097</DistanceMeters>
          </Trackpoint>
          <Trackpoint>
            <Time>2022-08-20T11:56:55.000Z</Time>
            <Position>
              <LatitudeDegrees>42.80796728096902370452880859375</LatitudeDegrees>
              <LongitudeDegrees>-0.33892183564603328704833984375</LongitudeDegrees>
            </Position>
            <AltitudeMeters>1525.4000244140625</AltitudeMeters>
            <DistanceMeters>5362.5096174158</DistanceMeters>
          </Trackpoint>
          <Trackpoint>
            <Time>2022-08-20T11:56:56.000Z</Time>
            <Position>
              <LatitudeDegrees>42.80797096900641918182373046875</LatitudeDegrees>
              <LongitudeDegrees>-0.33892351202666759490966796875</LongitudeDegrees>
            </Position>
            <AltitudeMeters>1525.4000244140625</AltitudeMeters>
            <DistanceMeters>5362.9450845274</DistanceMeters>
          </Trackpoint>
          <Trackpoint>
            <Time>2022-08-20T11:56:57.000Z</Time>
            <Position>
              <LatitudeDegrees>42.807974405586719512939453125</LatitudeDegrees>
              <LongitudeDegrees>-0.33892502076923847198486328125</LongitudeDegrees>
            </Position>
            <AltitudeMeters>1525.5999755859375</AltitudeMeters>
            <DistanceMeters>5363.3482487322</DistanceMeters>
          </Trackpoint>
          <Trackpoint>
            <Time>2022-08-20T11:56:59.000Z</Time>
            <Position>
              <LatitudeDegrees>42.8079903312027454376220703125</LatitudeDegrees>
              <LongitudeDegrees>-0.33893323503434658050537109375</LongitudeDegrees>
            </Position>
            <AltitudeMeters>1526.4000244140625</AltitudeMeters>
            <DistanceMeters>5365.2440257298</DistanceMeters>
          </Trackpoint>
          <Trackpoint>
            <Time>2022-08-20T11:57:06.000Z</Time>
            <Position>
              <LatitudeDegrees>42.80802595429122447967529296875</LatitudeDegrees>
              <LongitudeDegrees>-0.3389566205441951751708984375</LongitudeDegrees>
            </Position>
            <AltitudeMeters>1528.199951171875</AltitudeMeters>
            <DistanceMeters>5369.6440807176</DistanceMeters>
          </Trackpoint>
          <Trackpoint>
            <Time>2022-08-20T11:57:16.000Z</Time>
            <Position>
              <LatitudeDegrees>42.808046825230121612548828125</LatitudeDegrees>
              <LongitudeDegrees>-0.339028201997280120849609375</LongitudeDegrees>
            </Position>
            <AltitudeMeters>1530</AltitudeMeters>
            <DistanceMeters>5375.9330977175</DistanceMeters>
          </Trackpoint>
          <Trackpoint>
            <Time>2022-08-20T11:57:19.000Z</Time>
            <Position>
              <LatitudeDegrees>42.808042466640472412109375</LatitudeDegrees>
              <LongitudeDegrees>-0.3390588797628879547119140625</LongitudeDegrees>
            </Position>
            <AltitudeMeters>1530.4000244140625</AltitudeMeters>
            <DistanceMeters>5378.4847021374</DistanceMeters>
          </Trackpoint>
          <Trackpoint>
            <Time>2022-08-20T11:57:21.000Z</Time>
            <Position>
              <LatitudeDegrees>42.8080486692488193511962890625</LatitudeDegrees>
              <LongitudeDegrees>-0.33908109180629253387451171875</LongitudeDegrees>
            </Position>
            <AltitudeMeters>1531</AltitudeMeters>
            <DistanceMeters>5380.422874421</DistanceMeters>
          </Trackpoint>
          <Trackpoint>
            <Time>2022-08-20T11:57:22.000Z</Time>
            <Position>
              <LatitudeDegrees>42.808051519095897674560546875</LatitudeDegrees>
              <LongitudeDegrees>-0.33908955752849578857421875</LongitudeDegrees>
            </Position>
            <AltitudeMeters>1531.199951171875</AltitudeMeters>
            <DistanceMeters>5381.1830881359</DistanceMeters>
          </Trackpoint>
          <Trackpoint>
            <Time>2022-08-20T11:57:27.000Z</Time>
            <Position>
              <LatitudeDegrees>42.80807666480541229248046875</LatitudeDegrees>
              <LongitudeDegrees>-0.33912702463567256927490234375</LongitudeDegrees>
            </Position>
            <AltitudeMeters>1532.5999755859375</AltitudeMeters>
            <DistanceMeters>5385.329564417</DistanceMeters>
          </Trackpoint>
          <Trackpoint>
            <Time>2022-08-20T11:57:30.000Z</Time>
            <Position>
              <LatitudeDegrees>42.80808546580374240875244140625</LatitudeDegrees>
              <LongitudeDegrees>-0.339148230850696563720703125</LongitudeDegrees>
            </Position>
            <AltitudeMeters>1533.4000244140625</AltitudeMeters>
            <DistanceMeters>5387.3183262133</DistanceMeters>
          </Trackpoint>
          <Trackpoint>
            <Time>2022-08-20T11:57:44.000Z</Time>
            <Position>
              <LatitudeDegrees>42.808106839656829833984375</LatitudeDegrees>
              <LongitudeDegrees>-0.33930840902030467987060546875</LongitudeDegrees>
            </Position>
            <AltitudeMeters>1538.5999755859375</AltitudeMeters>
            <DistanceMeters>5400.6118808925</DistanceMeters>
          </Trackpoint>
          <Trackpoint>
            <Time>2022-08-20T11:57:45.000Z</Time>
            <Position>
              <LatitudeDegrees>42.808112204074859619140625</LatitudeDegrees>
              <LongitudeDegrees>-0.3393153659999370574951171875</LongitudeDegrees>
            </Position>
            <AltitudeMeters>1539</AltitudeMeters>
            <DistanceMeters>5401.4403045822</DistanceMeters>
          </Trackpoint>
          <Trackpoint>
            <Time>2022-08-20T11:57:55.000Z</Time>
            <Position>
              <LatitudeDegrees>42.80816408805549144744873046875</LatitudeDegrees>
              <LongitudeDegrees>-0.3393478877842426300048828125</LongitudeDegrees>
            </Position>
            <AltitudeMeters>1541.4000244140625</AltitudeMeters>
            <DistanceMeters>5407.7964482252</DistanceMeters>
          </Trackpoint>
          <Trackpoint>
            <Time>2022-08-20T11:57:56.000Z</Time>
            <Position>
              <LatitudeDegrees>42.80817381106317043304443359375</LatitudeDegrees>
              <LongitudeDegrees>-0.33934545703232288360595703125</LongitudeDegrees>
            </Position>
            <AltitudeMeters>1541.800048828125</AltitudeMeters>
            <DistanceMeters>5408.8964619722</DistanceMeters>
          </Trackpoint>
          <Trackpoint>
            <Time>2022-08-20T11:57:59.000Z</Time>
            <Position>
              <LatitudeDegrees>42.8081985376775264739990234375</LatitudeDegrees>
              <LongitudeDegrees>-0.33933221362531185150146484375</LongitudeDegrees>
            </Position>
            <AltitudeMeters>1542.4000244140625</AltitudeMeters>
            <DistanceMeters>5411.8529994737</DistanceMeters>
          </Trackpoint>
          <Trackpoint>
            <Time>2022-08-20T11:58:05.000Z</Time>
            <Position>
              <LatitudeDegrees>42.808248661458492279052734375</LatitudeDegrees>
              <LongitudeDegrees>-0.33931888639926910400390625</LongitudeDegrees>
            </Position>
            <AltitudeMeters>1544.4000244140625</AltitudeMeters>
            <DistanceMeters>5417.536359698</DistanceMeters>
          </Trackpoint>
          <Trackpoint>
            <Time>2022-08-20T11:58:09.000Z</Time>
            <Position>
              <LatitudeDegrees>42.808282189071178436279296875</LatitudeDegrees>
              <LongitudeDegrees>-0.33931293524801731109619140625</LongitudeDegrees>
            </Position>
            <AltitudeMeters>1545.800048828125</AltitudeMeters>
            <DistanceMeters>5421.299225609</DistanceMeters>
          </Trackpoint>
          <Trackpoint>
            <Time>2022-08-20T11:58:14.000Z</Time>
            <Position>
              <LatitudeDegrees>42.80832032673060894012451171875</LatitudeDegrees>
              <LongitudeDegrees>-0.33930421806871891021728515625</LongitudeDegrees>
            </Position>
            <AltitudeMeters>1547.5999755859375</AltitudeMeters>
            <DistanceMeters>5425.6027923608</DistanceMeters>
          </Trackpoint>
          <Trackpoint>
            <Time>2022-08-20T11:58:16.000Z</Time>
            <Position>
              <LatitudeDegrees>42.8083349950611591339111328125</LatitudeDegrees>
              <LongitudeDegrees>-0.33929667435586452484130859375</LongitudeDegrees>
            </Position>
            <AltitudeMeters>1548</AltitudeMeters>
            <DistanceMeters>5427.349837248</DistanceMeters>
          </Trackpoint>
          <Trackpoint>
            <Time>2022-08-20T11:58:20.000Z</Time>
            <Position>
              <LatitudeDegrees>42.8083628229796886444091796875</LatitudeDegrees>
              <LongitudeDegrees>-0.33927194774150848388671875</LongitudeDegrees>
            </Position>
            <AltitudeMeters>1548.4000244140625</AltitudeMeters>
            <DistanceMeters>5431.0473412353</DistanceMeters>
          </Trackpoint>
          <Trackpoint>
            <Time>2022-08-20T11:58:22.000Z</Time>
            <Position>
              <LatitudeDegrees>42.808375395834445953369140625</LatitudeDegrees>
              <LongitudeDegrees>-0.33926079981029033660888671875</LongitudeDegrees>
            </Position>
            <AltitudeMeters>1548.5999755859375</AltitudeMeters>
            <DistanceMeters>5432.7150533042</DistanceMeters>
          </Trackpoint>
          <Trackpoint>
            <Time>2022-08-20T11:58:24.000Z</Time>
            <Position>
              <LatitudeDegrees>42.8083909861743450164794921875</LatitudeDegrees>
              <LongitudeDegrees>-0.33925744704902172088623046875</LongitudeDegrees>
            </Position>
            <AltitudeMeters>1549.4000244140625</AltitudeMeters>
            <DistanceMeters>5434.4672593397</DistanceMeters>
          </Trackpoint>
          <Trackpoint>
            <Time>2022-08-20T11:58:31.000Z</Time>
            <Position>
              <LatitudeDegrees>42.80843415297567844390869140625</LatitudeDegrees>
              <LongitudeDegrees>-0.3392409346997737884521484375</LongitudeDegrees>
            </Position>
            <AltitudeMeters>1551</AltitudeMeters>
            <DistanceMeters>5439.4568405602</DistanceMeters>
          </Trackpoint>
          <Trackpoint>
            <Time>2022-08-20T11:58:32.000Z</Time>
            <Position>
              <LatitudeDegrees>42.8084459714591503143310546875</LatitudeDegrees>
              <LongitudeDegrees>-0.33923305571079254150390625</LongitudeDegrees>
            </Position>
            <AltitudeMeters>1551.199951171875</AltitudeMeters>
            <DistanceMeters>5440.9228413084</DistanceMeters>
          </Trackpoint>
          <Trackpoint>
            <Time>2022-08-20T11:58:33.000Z</Time>
            <Position>
              <LatitudeDegrees>42.8084526769816875457763671875</LatitudeDegrees>
              <LongitudeDegrees>-0.3392255119979381561279296875</LongitudeDegrees>
            </Position>
            <AltitudeMeters>1551.199951171875</AltitudeMeters>
            <DistanceMeters>5441.8919274502</DistanceMeters>
          </Trackpoint>
          <Trackpoint>
            <Time>2022-08-20T11:58:37.000Z</Time>
            <Position>
              <LatitudeDegrees>42.80847220681607723236083984375</LatitudeDegrees>
              <LongitudeDegrees>-0.33922257833182811737060546875</LongitudeDegrees>
            </Position>
            <AltitudeMeters>1552</AltitudeMeters>
            <DistanceMeters>5444.0754751054</DistanceMeters>
          </Trackpoint>
          <Trackpoint>
            <Time>2022-08-20T11:58:48.000Z</Time>
            <Position>
              <LatitudeDegrees>42.8085418604314327239990234375</LatitudeDegrees>
              <LongitudeDegrees>-0.339178405702114105224609375</LongitudeDegrees>
            </Position>
            <AltitudeMeters>1553.5999755859375</AltitudeMeters>
            <DistanceMeters>5452.6262954734</DistanceMeters>
          </Trackpoint>
          <Trackpoint>
            <Time>2022-08-20T11:58:53.000Z</Time>
            <Position>
              <LatitudeDegrees>42.80858804471790790557861328125</LatitudeDegrees>
              <LongitudeDegrees>-0.3391691856086254119873046875</LongitudeDegrees>
            </Position>
            <AltitudeMeters>1555.5999755859375</AltitudeMeters>
            <DistanceMeters>5457.8207028905</DistanceMeters>
          </Trackpoint>
          <Trackpoint>
            <Time>2022-08-20T11:58:54.000Z</Time>
            <Position>
              <LatitudeDegrees>42.80859776772558689117431640625</LatitudeDegrees>
              <LongitudeDegrees>-0.33916734158992767333984375</LongitudeDegrees>
            </Position>
            <AltitudeMeters>1556</AltitudeMeters>
            <DistanceMeters>5458.9124767181</DistanceMeters>
          </Trackpoint>
          <Trackpoint>
            <Time>2022-08-20T11:59:12.000Z</Time>
            <Position>
              <LatitudeDegrees>42.808762975037097930908203125</LatitudeDegrees>
              <LongitudeDegrees>-0.3392506577074527740478515625</LongitudeDegrees>
            </Position>
            <AltitudeMeters>1563.800048828125</AltitudeMeters>
            <DistanceMeters>5478.5184016916</DistanceMeters>
          </Trackpoint>
          <Trackpoint>
            <Time>2022-08-20T11:59:21.000Z</Time>
            <Position>
              <LatitudeDegrees>42.80882156454026699066162109375</LatitudeDegrees>
              <LongitudeDegrees>-0.3391950018703937530517578125</LongitudeDegrees>
            </Position>
            <AltitudeMeters>1563.4000244140625</AltitudeMeters>
            <DistanceMeters>5486.4666351306</DistanceMeters>
          </Trackpoint>
          <Trackpoint>
            <Time>2022-08-20T11:59:23.000Z</Time>
            <Position>
              <LatitudeDegrees>42.80882977880537509918212890625</LatitudeDegrees>
              <LongitudeDegrees>-0.3391809202730655670166015625</LongitudeDegrees>
            </Position>
            <AltitudeMeters>1563</AltitudeMeters>
            <DistanceMeters>5487.9326358788</DistanceMeters>
          </Trackpoint>
          <Trackpoint>
            <Time>2022-08-20T11:59:24.000Z</Time>
            <Position>
              <LatitudeDegrees>42.808845452964305877685546875</LatitudeDegrees>
              <LongitudeDegrees>-0.33916625194251537322998046875</LongitudeDegrees>
            </Position>
            <AltitudeMeters>1563</AltitudeMeters>
            <DistanceMeters>5490.048981294</DistanceMeters>
          </Trackpoint>
          <Trackpoint>
            <Time>2022-08-20T11:59:25.000Z</Time>
            <Position>
              <LatitudeDegrees>42.80887302942574024200439453125</LatitudeDegrees>
              <LongitudeDegrees>-0.33914730884134769439697265625</LongitudeDegrees>
            </Position>
            <AltitudeMeters>1562.800048828125</AltitudeMeters>
            <DistanceMeters>5493.4870578006</DistanceMeters>
          </Trackpoint>
          <Trackpoint>
            <Time>2022-08-20T11:59:26.000Z</Time>
            <Position>
              <LatitudeDegrees>42.80887856148183345794677734375</LatitudeDegrees>
              <LongitudeDegrees>-0.339141190052032470703125</LongitudeDegrees>
            </Position>
            <AltitudeMeters>1562.800048828125</AltitudeMeters>
            <DistanceMeters>5494.2706681618</DistanceMeters>
          </Trackpoint>
          <Trackpoint>
            <Time>2022-08-20T11:59:27.000Z</Time>
            <Position>
              <LatitudeDegrees>42.8088918887078762054443359375</LatitudeDegrees>
              <LongitudeDegrees>-0.33912979066371917724609375</LongitudeDegrees>
            </Position>
            <AltitudeMeters>1562.800048828125</AltitudeMeters>
            <DistanceMeters>5496.0228741973</DistanceMeters>
          </Trackpoint>
          <Trackpoint>
            <Time>2022-08-20T11:59:28.000Z</Time>
            <Position>
              <LatitudeDegrees>42.80890018679201602935791015625</LatitudeDegrees>
              <LongitudeDegrees>-0.33912434242665767669677734375</LongitudeDegrees>
            </Position>
            <AltitudeMeters>1562.800048828125</AltitudeMeters>
            <DistanceMeters>5497.0507452709</DistanceMeters>
          </Trackpoint>
          <Trackpoint>
            <Time>2022-08-20T11:59:29.000Z</Time>
            <Position>
              <LatitudeDegrees>42.80890756286680698394775390625</LatitudeDegrees>
              <LongitudeDegrees>-0.33911931328475475311279296875</LongitudeDegrees>
            </Position>
            <AltitudeMeters>1562.800048828125</AltitudeMeters>
            <DistanceMeters>5497.9720634492</DistanceMeters>
          </Trackpoint>
          <Trackpoint>
            <Time>2022-08-20T11:59:31.000Z</Time>
            <Position>
              <LatitudeDegrees>42.808921225368976593017578125</LatitudeDegrees>
              <LongitudeDegrees>-0.33911101520061492919921875</LongitudeDegrees>
            </Position>
            <AltitudeMeters>1562.800048828125</AltitudeMeters>
            <DistanceMeters>5499.6370659923</DistanceMeters>
          </Trackpoint>
          <Trackpoint>
            <Time>2022-08-20T11:59:33.000Z</Time>
            <Position>
              <LatitudeDegrees>42.80893706716597080230712890625</LatitudeDegrees>
              <LongitudeDegrees>-0.33910288475453853607177734375</LongitudeDegrees>
            </Position>
            <AltitudeMeters>1563</AltitudeMeters>
            <DistanceMeters>5501.5208972062</DistanceMeters>
          </Trackpoint>
          <Trackpoint>
            <Time>2022-08-20T11:59:34.000Z</Time>
            <Position>
              <LatitudeDegrees>42.8089445270597934722900390625</LatitudeDegrees>
              <LongitudeDegrees>-0.33909919671714305877685546875</LongitudeDegrees>
            </Position>
            <AltitudeMeters>1563</AltitudeMeters>
            <DistanceMeters>5502.4021387021</DistanceMeters>
          </Trackpoint>
          <Trackpoint>
            <Time>2022-08-20T11:59:36.000Z</Time>
            <Position>
              <LatitudeDegrees>42.80896388925611972808837890625</LatitudeDegrees>
              <LongitudeDegrees>-0.33909492194652557373046875</LongitudeDegrees>
            </Position>
            <AltitudeMeters>1563.199951171875</AltitudeMeters>
            <DistanceMeters>5504.5836176238</DistanceMeters>
          </Trackpoint>
          <Trackpoint>
            <Time>2022-08-20T11:59:41.000Z</Time>
            <Position>
              <LatitudeDegrees>42.80900043435394763946533203125</LatitudeDegrees>
              <LongitudeDegrees>-0.33910908736288547515869140625</LongitudeDegrees>
            </Position>
            <AltitudeMeters>1564.4000244140625</AltitudeMeters>
            <DistanceMeters>5508.8120394759</DistanceMeters>
          </Trackpoint>
          <Trackpoint>
            <Time>2022-08-20T11:59:43.000Z</Time>
            <Position>
              <LatitudeDegrees>42.8090186230838298797607421875</LatitudeDegrees>
              <LongitudeDegrees>-0.3391111828386783599853515625</LongitudeDegrees>
            </Position>
            <AltitudeMeters>1564.800048828125</AltitudeMeters>
            <DistanceMeters>5510.8456999715</DistanceMeters>
          </Trackpoint>
          <Trackpoint>
            <Time>2022-08-20T11:59:46.000Z</Time>
            <Position>
              <LatitudeDegrees>42.8090384043753147125244140625</LatitudeDegrees>
              <LongitudeDegrees>-0.339123420417308807373046875</LongitudeDegrees>
            </Position>
            <AltitudeMeters>1565.5999755859375</AltitudeMeters>
            <DistanceMeters>5513.2628179784</DistanceMeters>
          </Trackpoint>
          <Trackpoint>
            <Time>2022-08-20T11:59:48.000Z</Time>
            <Position>
              <LatitudeDegrees>42.8090496361255645751953125</LatitudeDegrees>
              <LongitudeDegrees>-0.33913557417690753936767578125</LongitudeDegrees>
            </Position>
            <AltitudeMeters>1566.199951171875</AltitudeMeters>
            <DistanceMeters>5514.8585878732</DistanceMeters>
          </Trackpoint>
          <Trackpoint>
            <Time>2022-08-20T11:59:50.000Z</Time>
            <Position>
              <LatitudeDegrees>42.80905835330486297607421875</LatitudeDegrees>
              <LongitudeDegrees>-0.3391430340707302093505859375</LongitudeDegrees>
            </Position>
            <AltitudeMeters>1566.800048828125</AltitudeMeters>
            <DistanceMeters>5516.0068000316</DistanceMeters>
          </Trackpoint>
          <Trackpoint>
            <Time>2022-08-20T11:59:55.000Z</Time>
            <Position>
              <LatitudeDegrees>42.80908810906112194061279296875</LatitudeDegrees>
              <LongitudeDegrees>-0.33917714841663837432861328125</LongitudeDegrees>
            </Position>
            <AltitudeMeters>1568.4000244140625</AltitudeMeters>
            <DistanceMeters>5520.3344296998</DistanceMeters>
          </Trackpoint>
          <Trackpoint>
            <Time>2022-08-20T11:59:59.000Z</Time>
            <Position>
              <LatitudeDegrees>42.8091165237128734588623046875</LatitudeDegrees>
              <LongitudeDegrees>-0.3391950018703937530517578125</LongitudeDegrees>
            </Position>
            <AltitudeMeters>1569.5999755859375</AltitudeMeters>
            <DistanceMeters>5523.8168703187</DistanceMeters>
          </Trackpoint>
          <Trackpoint>
            <Time>2022-08-20T12:00:02.000Z</Time>
            <Position>
              <LatitudeDegrees>42.80914460308849811553955078125</LatitudeDegrees>
              <LongitudeDegrees>-0.3392114304006099700927734375</LongitudeDegrees>
            </Position>
            <AltitudeMeters>1570.800048828125</AltitudeMeters>
            <DistanceMeters>5527.2179771863</DistanceMeters>
          </Trackpoint>
          <Trackpoint>
            <Time>2022-08-20T12:00:10.000Z</Time>
            <Position>
              <LatitudeDegrees>42.80922540463507175445556640625</LatitudeDegrees>
              <LongitudeDegrees>-0.3392141126096248626708984375</LongitudeDegrees>
            </Position>
            <AltitudeMeters>1573.4000244140625</AltitudeMeters>
            <DistanceMeters>5536.213951013</DistanceMeters>
          </Trackpoint>
          <Trackpoint>
            <Time>2022-08-20T12:00:11.000Z</Time>
            <Position>
              <LatitudeDegrees>42.809235043823719024658203125</LatitudeDegrees>
              <LongitudeDegrees>-0.33920765854418277740478515625</LongitudeDegrees>
            </Position>
            <AltitudeMeters>1573.5999755859375</AltitudeMeters>
            <DistanceMeters>5537.408418291</DistanceMeters>
          </Trackpoint>
          <Trackpoint>
            <Time>2022-08-20T12:00:14.000Z</Time>
            <Position>
              <LatitudeDegrees>42.80926446430385112762451171875</LatitudeDegrees>
              <LongitudeDegrees>-0.33919441513717174530029296875</LongitudeDegrees>
            </Position>
            <AltitudeMeters>1574</AltitudeMeters>
            <DistanceMeters>5540.8582937602</DistanceMeters>
          </Trackpoint>
          <Trackpoint>
            <Time>2022-08-20T12:00:17.000Z</Time>
            <Position>
              <LatitudeDegrees>42.8092801384627819061279296875</LatitudeDegrees>
              <LongitudeDegrees>-0.33919139765202999114990234375</LongitudeDegrees>
            </Position>
            <AltitudeMeters>1574.5999755859375</AltitudeMeters>
            <DistanceMeters>5542.6182131391</DistanceMeters>
          </Trackpoint>
          <Trackpoint>
            <Time>2022-08-20T12:00:19.000Z</Time>
            <Position>
              <LatitudeDegrees>42.8092985786497592926025390625</LatitudeDegrees>
              <LongitudeDegrees>-0.33917346037924289703369140625</LongitudeDegrees>
            </Position>
            <AltitudeMeters>1574.5999755859375</AltitudeMeters>
            <DistanceMeters>5545.1395567921</DistanceMeters>
          </Trackpoint>
          <Trackpoint>
            <Time>2022-08-20T12:00:25.000Z</Time>
            <Position>
              <LatitudeDegrees>42.8093663044273853302001953125</LatitudeDegrees>
              <LongitudeDegrees>-0.33909668214619159698486328125</LongitudeDegrees>
            </Position>
            <AltitudeMeters>1574.5999755859375</AltitudeMeters>
            <DistanceMeters>5554.9434403935</DistanceMeters>
          </Trackpoint>
          <Trackpoint>
            <Time>2022-08-20T12:00:40.000Z</Time>
            <Position>
              <LatitudeDegrees>42.80942455865442752838134765625</LatitudeDegrees>
              <LongitudeDegrees>-0.3388972766697406768798828125</LongitudeDegrees>
            </Position>
            <AltitudeMeters>1569.5999755859375</AltitudeMeters>
            <DistanceMeters>5572.4691078605</DistanceMeters>
          </Trackpoint>
          <Trackpoint>
            <Time>2022-08-20T12:00:42.000Z</Time>
            <Position>
              <LatitudeDegrees>42.8094343654811382293701171875</LatitudeDegrees>
              <LongitudeDegrees>-0.33889031969010829925537109375</LongitudeDegrees>
            </Position>
            <AltitudeMeters>1569.800048828125</AltitudeMeters>
            <DistanceMeters>5573.700794851</DistanceMeters>
          </Trackpoint>
          <Trackpoint>
            <Time>2022-08-20T12:00:47.000Z</Time>
            <Position>
              <LatitudeDegrees>42.80947267077863216400146484375</LatitudeDegrees>
              <LongitudeDegrees>-0.33886534161865711212158203125</LongitudeDegrees>
            </Position>
            <AltitudeMeters>1570</AltitudeMeters>
            <DistanceMeters>5578.4264037056</DistanceMeters>
          </Trackpoint>
          <Trackpoint>
            <Time>2022-08-20T12:01:03.000Z</Time>
            <Position>
              <LatitudeDegrees>42.8096559830009937286376953125</LatitudeDegrees>
              <LongitudeDegrees>-0.338833741843700408935546875</LongitudeDegrees>
            </Position>
            <AltitudeMeters>1572.800048828125</AltitudeMeters>
            <DistanceMeters>5598.9917303582</DistanceMeters>
          </Trackpoint>
          <Trackpoint>
            <Time>2022-08-20T12:01:12.000Z</Time>
            <Position>
              <LatitudeDegrees>42.80976000241935253143310546875</LatitudeDegrees>
              <LongitudeDegrees>-0.33883885480463504791259765625</LongitudeDegrees>
            </Position>
            <AltitudeMeters>1574.800048828125</AltitudeMeters>
            <DistanceMeters>5610.5764183605</DistanceMeters>
          </Trackpoint>
          <Trackpoint>
            <Time>2022-08-20T12:01:13.000Z</Time>
            <Position>
              <LatitudeDegrees>42.80977022834122180938720703125</LatitudeDegrees>
              <LongitudeDegrees>-0.3388362564146518707275390625</LongitudeDegrees>
            </Position>
            <AltitudeMeters>1575</AltitudeMeters>
            <DistanceMeters>5611.7324682356</DistanceMeters>
          </Trackpoint>
          <Trackpoint>
            <Time>2022-08-20T12:01:14.000Z</Time>
            <Position>
              <LatitudeDegrees>42.80977693386375904083251953125</LatitudeDegrees>
              <LongitudeDegrees>-0.33883349038660526275634765625</LongitudeDegrees>
            </Position>
            <AltitudeMeters>1575</AltitudeMeters>
            <DistanceMeters>5612.5102954154</DistanceMeters>
          </Trackpoint>
          <Trackpoint>
            <Time>2022-08-20T12:01:16.000Z</Time>
            <Position>
              <LatitudeDegrees>42.80978900380432605743408203125</LatitudeDegrees>
              <LongitudeDegrees>-0.33882779069244861602783203125</LongitudeDegrees>
            </Position>
            <AltitudeMeters>1574.800048828125</AltitudeMeters>
            <DistanceMeters>5613.9325250465</DistanceMeters>
          </Trackpoint>
          <Trackpoint>
            <Time>2022-08-20T12:01:18.000Z</Time>
            <Position>
              <LatitudeDegrees>42.80980694107711315155029296875</LatitudeDegrees>
              <LongitudeDegrees>-0.33885008655488491058349609375</LongitudeDegrees>
            </Position>
            <AltitudeMeters>1576.199951171875</AltitudeMeters>
            <DistanceMeters>5616.6336917882</DistanceMeters>
          </Trackpoint>
          <Trackpoint>
            <Time>2022-08-20T12:01:23.000Z</Time>
            <Position>
              <LatitudeDegrees>42.80983326025307178497314453125</LatitudeDegrees>
              <LongitudeDegrees>-0.33885058946907520294189453125</LongitudeDegrees>
            </Position>
            <AltitudeMeters>1576.4000244140625</AltitudeMeters>
            <DistanceMeters>5619.5626118318</DistanceMeters>
          </Trackpoint>
          <Trackpoint>
            <Time>2022-08-20T12:01:27.000Z</Time>
            <Position>
              <LatitudeDegrees>42.8098541311919689178466796875</LatitudeDegrees>
              <LongitudeDegrees>-0.3388443030416965484619140625</LongitudeDegrees>
            </Position>
            <AltitudeMeters>1576.4000244140625</AltitudeMeters>
            <DistanceMeters>5621.9401794657</DistanceMeters>
          </Trackpoint>
          <Trackpoint>
            <Time>2022-08-20T12:01:30.000Z</Time>
            <Position>
              <LatitudeDegrees>42.80986729077994823455810546875</LatitudeDegrees>
              <LongitudeDegrees>-0.33884656615555286407470703125</LongitudeDegrees>
            </Position>
            <AltitudeMeters>1576.5999755859375</AltitudeMeters>
            <DistanceMeters>5623.4184482165</DistanceMeters>
          </Trackpoint>
          <Trackpoint>
            <Time>2022-08-20T12:01:43.000Z</Time>
            <Position>
              <LatitudeDegrees>42.80996653251349925994873046875</LatitudeDegrees>
              <LongitudeDegrees>-0.33877171576023101806640625</LongitudeDegrees>
            </Position>
            <AltitudeMeters>1574</AltitudeMeters>
            <DistanceMeters>5636.0423457558</DistanceMeters>
          </Trackpoint>
          <Trackpoint>
            <Time>2022-08-20T12:01:47.000Z</Time>
            <Position>
              <LatitudeDegrees>42.80998346395790576934814453125</LatitudeDegrees>
              <LongitudeDegrees>-0.338765680789947509765625</LongitudeDegrees>
            </Position>
            <AltitudeMeters>1573.800048828125</AltitudeMeters>
            <DistanceMeters>5637.9921309191</DistanceMeters>
          </Trackpoint>
          <Trackpoint>
            <Time>2022-08-20T12:01:49.000Z</Time>
            <Position>
              <LatitudeDegrees>42.80999285168945789337158203125</LatitudeDegrees>
              <LongitudeDegrees>-0.33876006491482257843017578125</LongitudeDegrees>
            </Position>
            <AltitudeMeters>1573.5999755859375</AltitudeMeters>
            <DistanceMeters>5639.1324514915</DistanceMeters>
          </Trackpoint>
          <Trackpoint>
            <Time>2022-08-20T12:01:53.000Z</Time>
            <Position>
              <LatitudeDegrees>42.81002554111182689666748046875</LatitudeDegrees>
              <LongitudeDegrees>-0.33873952925205230712890625</LongitudeDegrees>
            </Position>
            <AltitudeMeters>1573</AltitudeMeters>
            <DistanceMeters>5643.1393799807</DistanceMeters>
          </Trackpoint>
          <Trackpoint>
            <Time>2022-08-20T12:01:55.000Z</Time>
            <Position>
              <LatitudeDegrees>42.81004213728010654449462890625</LatitudeDegrees>
              <LongitudeDegrees>-0.33872368745505809783935546875</LongitudeDegrees>
            </Position>
            <AltitudeMeters>1572.4000244140625</AltitudeMeters>
            <DistanceMeters>5645.3961394084</DistanceMeters>
          </Trackpoint>
          <Trackpoint>
            <Time>2022-08-20T12:01:57.000Z</Time>
            <Position>
              <LatitudeDegrees>42.81005554832518100738525390625</LatitudeDegrees>
              <LongitudeDegrees>-0.33871346153318881988525390625</LongitudeDegrees>
            </Position>
            <AltitudeMeters>1572.199951171875</AltitudeMeters>
            <DistanceMeters>5647.106620267</DistanceMeters>
          </Trackpoint>
          <Trackpoint>
            <Time>2022-08-20T12:02:00.000Z</Time>
            <Position>
              <LatitudeDegrees>42.81008161604404449462890625</LatitudeDegrees>
              <LongitudeDegrees>-0.338699631392955780029296875</LongitudeDegrees>
            </Position>
            <AltitudeMeters>1571.800048828125</AltitudeMeters>
            <DistanceMeters>5650.2208299743</DistanceMeters>
          </Trackpoint>
          <Trackpoint>
            <Time>2022-08-20T12:02:01.000Z</Time>
            <Position>
              <LatitudeDegrees>42.81009192578494548797607421875</LatitudeDegrees>
              <LongitudeDegrees>-0.33869518898427486419677734375</LongitudeDegrees>
            </Position>
            <AltitudeMeters>1571.5999755859375</AltitudeMeters>
            <DistanceMeters>5651.426583808</DistanceMeters>
          </Trackpoint>
          <Trackpoint>
            <Time>2022-08-20T12:02:06.000Z</Time>
            <Position>
              <LatitudeDegrees>42.81016333959996700286865234375</LatitudeDegrees>
              <LongitudeDegrees>-0.338654704391956329345703125</LongitudeDegrees>
            </Position>
            <AltitudeMeters>1570</AltitudeMeters>
            <DistanceMeters>5660.0347663861</DistanceMeters>
          </Trackpoint>
          <Trackpoint>
            <Time>2022-08-20T12:02:07.000Z</Time>
            <Position>
              <LatitudeDegrees>42.8101815283298492431640625</LatitudeDegrees>
              <LongitudeDegrees>-0.3386448137462139129638671875</LongitudeDegrees>
            </Position>
            <AltitudeMeters>1569.800048828125</AltitudeMeters>
            <DistanceMeters>5662.2141746108</DistanceMeters>
          </Trackpoint>
          <Trackpoint>
            <Time>2022-08-20T12:02:08.000Z</Time>
            <Position>
              <LatitudeDegrees>42.8102008067071437835693359375</LatitudeDegrees>
              <LongitudeDegrees>-0.33863433636724948883056640625</LongitudeDegrees>
            </Position>
            <AltitudeMeters>1569.4000244140625</AltitudeMeters>
            <DistanceMeters>5664.526274361</DistanceMeters>
          </Trackpoint>
          <Trackpoint>
            <Time>2022-08-20T12:02:11.000Z</Time>
            <Position>
              <LatitudeDegrees>42.81024456024169921875</LatitudeDegrees>
              <LongitudeDegrees>-0.33862411044538021087646484375</LongitudeDegrees>
            </Position>
            <AltitudeMeters>1569</AltitudeMeters>
            <DistanceMeters>5669.4667497053</DistanceMeters>
          </Trackpoint>
          <Trackpoint>
            <Time>2022-08-20T12:02:13.000Z</Time>
            <Position>
              <LatitudeDegrees>42.81026928685605525970458984375</LatitudeDegrees>
              <LongitudeDegrees>-0.3386116214096546173095703125</LongitudeDegrees>
            </Position>
            <AltitudeMeters>1568.5999755859375</AltitudeMeters>
            <DistanceMeters>5672.4018294193</DistanceMeters>
          </Trackpoint>
          <Trackpoint>
            <Time>2022-08-20T12:02:15.000Z</Time>
            <Position>
              <LatitudeDegrees>42.81030415557324886322021484375</LatitudeDegrees>
              <LongitudeDegrees>-0.3385913372039794921875</LongitudeDegrees>
            </Position>
            <AltitudeMeters>1567.800048828125</AltitudeMeters>
            <DistanceMeters>5676.621700359</DistanceMeters>
          </Trackpoint>
          <Trackpoint>
            <Time>2022-08-20T12:02:16.000Z</Time>
            <Position>
              <LatitudeDegrees>42.8103168122470378875732421875</LatitudeDegrees>
              <LongitudeDegrees>-0.33857935108244419097900390625</LongitudeDegrees>
            </Position>
            <AltitudeMeters>1567.4000244140625</AltitudeMeters>
            <DistanceMeters>5678.334818815</DistanceMeters>
          </Trackpoint>
          <Trackpoint>
            <Time>2022-08-20T12:02:17.000Z</Time>
            <Position>
              <LatitudeDegrees>42.81035210005939006805419921875</LatitudeDegrees>
              <LongitudeDegrees>-0.33855982124805450439453125</LongitudeDegrees>
            </Position>
            <AltitudeMeters>1566.800048828125</AltitudeMeters>
            <DistanceMeters>5682.5728398209</DistanceMeters>
          </Trackpoint>
          <Trackpoint>
            <Time>2022-08-20T12:02:18.000Z</Time>
            <Position>
              <LatitudeDegrees>42.810366265475749969482421875</LatitudeDegrees>
              <LongitudeDegrees>-0.33855755813419818878173828125</LongitudeDegrees>
            </Position>
            <AltitudeMeters>1566.800048828125</AltitudeMeters>
            <DistanceMeters>5684.1629408883</DistanceMeters>
          </Trackpoint>
          <Trackpoint>
            <Time>2022-08-20T12:02:21.000Z</Time>
            <Position>
              <LatitudeDegrees>42.81044011004269123077392578125</LatitudeDegrees>
              <LongitudeDegrees>-0.33854213543236255645751953125</LongitudeDegrees>
            </Position>
            <AltitudeMeters>1568.199951171875</AltitudeMeters>
            <DistanceMeters>5692.4776426421</DistanceMeters>
          </Trackpoint>
          <Trackpoint>
            <Time>2022-08-20T12:02:22.000Z</Time>
            <Position>
              <LatitudeDegrees>42.81045352108776569366455078125</LatitudeDegrees>
              <LongitudeDegrees>-0.3385392017662525177001953125</LongitudeDegrees>
            </Position>
            <AltitudeMeters>1568.4000244140625</AltitudeMeters>
            <DistanceMeters>5693.9891350636</DistanceMeters>
          </Trackpoint>
          <Trackpoint>
            <Time>2022-08-20T12:02:23.000Z</Time>
            <Position>
              <LatitudeDegrees>42.81046743504703044891357421875</LatitudeDegrees>
              <LongitudeDegrees>-0.338534004986286163330078125</LongitudeDegrees>
            </Position>
            <AltitudeMeters>1568.5999755859375</AltitudeMeters>
            <DistanceMeters>5695.5961826245</DistanceMeters>
          </Trackpoint>
          <Trackpoint>
            <Time>2022-08-20T12:02:24.000Z</Time>
            <Position>
              <LatitudeDegrees>42.8104737214744091033935546875</LatitudeDegrees>
              <LongitudeDegrees>-0.338522605597972869873046875</LongitudeDegrees>
            </Position>
            <AltitudeMeters>1568.199951171875</AltitudeMeters>
            <DistanceMeters>5696.7638904403</DistanceMeters>
          </Trackpoint>
          <Trackpoint>
            <Time>2022-08-20T12:02:30.000Z</Time>
            <Position>
              <LatitudeDegrees>42.81055225990712642669677734375</LatitudeDegrees>
              <LongitudeDegrees>-0.33855068497359752655029296875</LongitudeDegrees>
            </Position>
            <AltitudeMeters>1571.800048828125</AltitudeMeters>
            <DistanceMeters>5705.8009259807</DistanceMeters>
          </Trackpoint>
          <Trackpoint>
            <Time>2022-08-20T12:02:31.000Z</Time>
            <Position>
              <LatitudeDegrees>42.81057639978826045989990234375</LatitudeDegrees>
              <LongitudeDegrees>-0.33855839632451534271240234375</LongitudeDegrees>
            </Position>
            <AltitudeMeters>1572.800048828125</AltitudeMeters>
            <DistanceMeters>5708.5616114968</DistanceMeters>
          </Trackpoint>
          <Trackpoint>
            <Time>2022-08-20T12:02:32.000Z</Time>
            <Position>
              <LatitudeDegrees>42.8106001205742359161376953125</LatitudeDegrees>
              <LongitudeDegrees>-0.338570885360240936279296875</LongitudeDegrees>
            </Position>
            <AltitudeMeters>1574</AltitudeMeters>
            <DistanceMeters>5711.3901531227</DistanceMeters>
          </Trackpoint>
          <Trackpoint>
            <Time>2022-08-20T12:02:34.000Z</Time>
            <Position>
              <LatitudeDegrees>42.81062920577824115753173828125</LatitudeDegrees>
              <LongitudeDegrees>-0.33858236856758594512939453125</LongitudeDegrees>
            </Position>
            <AltitudeMeters>1575.5999755859375</AltitudeMeters>
            <DistanceMeters>5714.7605887275</DistanceMeters>
          </Trackpoint>
          <Trackpoint>
            <Time>2022-08-20T12:02:42.000Z</Time>
            <Position>
              <LatitudeDegrees>42.81073498539626598358154296875</LatitudeDegrees>
              <LongitudeDegrees>-0.3386257030069828033447265625</LongitudeDegrees>
            </Position>
            <AltitudeMeters>1581.5999755859375</AltitudeMeters>
            <DistanceMeters>5727.0539755418</DistanceMeters>
          </Trackpoint>
          <Trackpoint>
            <Time>2022-08-20T12:02:46.000Z</Time>
            <Position>
              <LatitudeDegrees>42.81080824322998523712158203125</LatitudeDegrees>
              <LongitudeDegrees>-0.33862444572150707244873046875</LongitudeDegrees>
            </Position>
            <AltitudeMeters>1583.5999755859375</AltitudeMeters>
            <DistanceMeters>5735.2080207255</DistanceMeters>
          </Trackpoint>
          <Trackpoint>
            <Time>2022-08-20T12:02:52.000Z</Time>
            <Position>
              <LatitudeDegrees>42.810859121382236480712890625</LatitudeDegrees>
              <LongitudeDegrees>-0.3386141359806060791015625</LongitudeDegrees>
            </Position>
            <AltitudeMeters>1584.4000244140625</AltitudeMeters>
            <DistanceMeters>5740.9333309783</DistanceMeters>
          </Trackpoint>
          <Trackpoint>
            <Time>2022-08-20T12:02:55.000Z</Time>
            <Position>
              <LatitudeDegrees>42.810890637338161468505859375</LatitudeDegrees>
              <LongitudeDegrees>-0.3386119566857814788818359375</LongitudeDegrees>
            </Position>
            <AltitudeMeters>1584.800048828125</AltitudeMeters>
            <DistanceMeters>5744.4467501817</DistanceMeters>
          </Trackpoint>
          <Trackpoint>
            <Time>2022-08-20T12:03:00.000Z</Time>
            <Position>
              <LatitudeDegrees>42.8109352290630340576171875</LatitudeDegrees>
              <LongitudeDegrees>-0.33857666887342929840087890625</LongitudeDegrees>
            </Position>
            <AltitudeMeters>1583.800048828125</AltitudeMeters>
            <DistanceMeters>5750.1862378651</DistanceMeters>
          </Trackpoint>
          <Trackpoint>
            <Time>2022-08-20T12:03:03.000Z</Time>
            <Position>
              <LatitudeDegrees>42.81096314080059528350830078125</LatitudeDegrees>
              <LongitudeDegrees>-0.33855588175356388092041015625</LongitudeDegrees>
            </Position>
            <AltitudeMeters>1583.5999755859375</AltitudeMeters>
            <DistanceMeters>5753.7265409742</DistanceMeters>
          </Trackpoint>
          <Trackpoint>
            <Time>2022-08-20T12:03:11.000Z</Time>
            <Position>
              <LatitudeDegrees>42.81105534173548221588134765625</LatitudeDegrees>
              <LongitudeDegrees>-0.3385224379599094390869140625</LongitudeDegrees>
            </Position>
            <AltitudeMeters>1584.4000244140625</AltitudeMeters>
            <DistanceMeters>5764.3461748996</DistanceMeters>
          </Trackpoint>
          <Trackpoint>
            <Time>2022-08-20T12:03:19.000Z</Time>
            <Position>
              <LatitudeDegrees>42.81114335171878337860107421875</LatitudeDegrees>
              <LongitudeDegrees>-0.33845831640064716339111328125</LongitudeDegrees>
            </Position>
            <AltitudeMeters>1584</AltitudeMeters>
            <DistanceMeters>5775.453330448</DistanceMeters>
          </Trackpoint>
          <Trackpoint>
            <Time>2022-08-20T12:03:28.000Z</Time>
            <Position>
              <LatitudeDegrees>42.81127528287470340728759765625</LatitudeDegrees>
              <LongitudeDegrees>-0.33843216486275196075439453125</LongitudeDegrees>
            </Position>
            <AltitudeMeters>1584.4000244140625</AltitudeMeters>
            <DistanceMeters>5790.2921101825</DistanceMeters>
          </Trackpoint>
          <Trackpoint>
            <Time>2022-08-20T12:03:30.000Z</Time>
            <Position>
              <LatitudeDegrees>42.81130126677453517913818359375</LatitudeDegrees>
              <LongitudeDegrees>-0.3384315781295299530029296875</LongitudeDegrees>
            </Position>
            <AltitudeMeters>1584.5999755859375</AltitudeMeters>
            <DistanceMeters>5793.1837966778</DistanceMeters>
          </Trackpoint>
          <Trackpoint>
            <Time>2022-08-20T12:03:33.000Z</Time>
            <Position>
              <LatitudeDegrees>42.81134082935750484466552734375</LatitudeDegrees>
              <LongitudeDegrees>-0.33842168748378753662109375</LongitudeDegrees>
            </Position>
            <AltitudeMeters>1584.4000244140625</AltitudeMeters>
            <DistanceMeters>5797.6611585914</DistanceMeters>
          </Trackpoint>
          <Trackpoint>
            <Time>2022-08-20T12:03:42.000Z</Time>
            <Position>
              <LatitudeDegrees>42.811447866261005401611328125</LatitudeDegrees>
              <LongitudeDegrees>-0.3383551351726055145263671875</LongitudeDegrees>
            </Position>
            <AltitudeMeters>1582.5999755859375</AltitudeMeters>
            <DistanceMeters>5810.7555501969</DistanceMeters>
          </Trackpoint>
          <Trackpoint>
            <Time>2022-08-20T12:03:56.000Z</Time>
            <Position>
              <LatitudeDegrees>42.811634950339794158935546875</LatitudeDegrees>
              <LongitudeDegrees>-0.33829419873654842376708984375</LongitudeDegrees>
            </Position>
            <AltitudeMeters>1581.4000244140625</AltitudeMeters>
            <DistanceMeters>5832.1644172867</DistanceMeters>
          </Trackpoint>
          <Trackpoint>
            <Time>2022-08-20T12:04:10.000Z</Time>
            <Position>
              <LatitudeDegrees>42.81181256286799907684326171875</LatitudeDegrees>
              <LongitudeDegrees>-0.33826285041868686676025390625</LongitudeDegrees>
            </Position>
            <AltitudeMeters>1581.5999755859375</AltitudeMeters>
            <DistanceMeters>5852.0978420724</DistanceMeters>
          </Trackpoint>
          <Trackpoint>
            <Time>2022-08-20T12:04:17.000Z</Time>
            <Position>
              <LatitudeDegrees>42.81185464002192020416259765625</LatitudeDegrees>
              <LongitudeDegrees>-0.33827391453087329864501953125</LongitudeDegrees>
            </Position>
            <AltitudeMeters>1583.199951171875</AltitudeMeters>
            <DistanceMeters>5856.8681452743</DistanceMeters>
          </Trackpoint>
          <Trackpoint>
            <Time>2022-08-20T12:04:25.000Z</Time>
            <Position>
              <LatitudeDegrees>42.81189487315714359283447265625</LatitudeDegrees>
              <LongitudeDegrees>-0.33826905302703380584716796875</LongitudeDegrees>
            </Position>
            <AltitudeMeters>1583.800048828125</AltitudeMeters>
            <DistanceMeters>5861.3636220101</DistanceMeters>
          </Trackpoint>
          <Trackpoint>
            <Time>2022-08-20T12:04:33.000Z</Time>
            <Position>
              <LatitudeDegrees>42.8119289875030517578125</LatitudeDegrees>
              <LongitudeDegrees>-0.33826737664639949798583984375</LongitudeDegrees>
            </Position>
            <AltitudeMeters>1584.4000244140625</AltitudeMeters>
            <DistanceMeters>5865.1623141742</DistanceMeters>
          </Trackpoint>
          <Trackpoint>
            <Time>2022-08-20T12:04:36.000Z</Time>
            <Position>
              <LatitudeDegrees>42.81195287592709064483642578125</LatitudeDegrees>
              <LongitudeDegrees>-0.33828179351985454559326171875</LongitudeDegrees>
            </Position>
            <AltitudeMeters>1585.800048828125</AltitudeMeters>
            <DistanceMeters>5868.0695725995</DistanceMeters>
          </Trackpoint>
          <Trackpoint>
            <Time>2022-08-20T12:04:45.000Z</Time>
            <Position>
              <LatitudeDegrees>42.8120180033147335052490234375</LatitudeDegrees>
              <LongitudeDegrees>-0.33827173523604869842529296875</LongitudeDegrees>
            </Position>
            <AltitudeMeters>1586.5999755859375</AltitudeMeters>
            <DistanceMeters>5875.365619518</DistanceMeters>
          </Trackpoint>
          <Trackpoint>
            <Time>2022-08-20T12:04:51.000Z</Time>
            <Position>
              <LatitudeDegrees>42.81207324005663394927978515625</LatitudeDegrees>
              <LongitudeDegrees>-0.33823368139564990997314453125</LongitudeDegrees>
            </Position>
            <AltitudeMeters>1584.800048828125</AltitudeMeters>
            <DistanceMeters>5882.2542370653</DistanceMeters>
          </Trackpoint>
          <Trackpoint>
            <Time>2022-08-20T12:04:54.000Z</Time>
            <Position>
              <LatitudeDegrees>42.81209595501422882080078125</LatitudeDegrees>
              <LongitudeDegrees>-0.33821825869381427764892578125</LongitudeDegrees>
            </Position>
            <AltitudeMeters>1584</AltitudeMeters>
            <DistanceMeters>5885.0795844026</DistanceMeters>
          </Trackpoint>
          <Trackpoint>
            <Time>2022-08-20T12:04:56.000Z</Time>
            <Position>
              <LatitudeDegrees>42.8121216036379337310791015625</LatitudeDegrees>
              <LongitudeDegrees>-0.3382076136767864227294921875</LongitudeDegrees>
            </Position>
            <AltitudeMeters>1583.5999755859375</AltitudeMeters>
            <DistanceMeters>5888.0634837598</DistanceMeters>
          </Trackpoint>
          <Trackpoint>
            <Time>2022-08-20T12:04:57.000Z</Time>
            <Position>
              <LatitudeDegrees>42.8121299855411052703857421875</LatitudeDegrees>
              <LongitudeDegrees>-0.33820836804807186126708984375</LongitudeDegrees>
            </Position>
            <AltitudeMeters>1583.800048828125</AltitudeMeters>
            <DistanceMeters>5888.999388357</DistanceMeters>
          </Trackpoint>
          <Trackpoint>
            <Time>2022-08-20T12:04:58.000Z</Time>
            <Position>
              <LatitudeDegrees>42.812152616679668426513671875</LatitudeDegrees>
              <LongitudeDegrees>-0.3382153250277042388916015625</LongitudeDegrees>
            </Position>
            <AltitudeMeters>1585</AltitudeMeters>
            <DistanceMeters>5891.5808988481</DistanceMeters>
          </Trackpoint>
          <Trackpoint>
            <Time>2022-08-20T12:05:02.000Z</Time>
            <Position>
              <LatitudeDegrees>42.81219519674777984619140625</LatitudeDegrees>
              <LongitudeDegrees>-0.33821624703705310821533203125</LongitudeDegrees>
            </Position>
            <AltitudeMeters>1586.199951171875</AltitudeMeters>
            <DistanceMeters>5896.3208176441</DistanceMeters>
          </Trackpoint>
          <Trackpoint>
            <Time>2022-08-20T12:05:04.000Z</Time>
            <Position>
              <LatitudeDegrees>42.8122091107070446014404296875</LatitudeDegrees>
              <LongitudeDegrees>-0.338224209845066070556640625</LongitudeDegrees>
            </Position>
            <AltitudeMeters>1587.199951171875</AltitudeMeters>
            <DistanceMeters>5898.0020118407</DistanceMeters>
          </Trackpoint>
          <Trackpoint>
            <Time>2022-08-20T12:05:06.000Z</Time>
            <Position>
              <LatitudeDegrees>42.8122208453714847564697265625</LatitudeDegrees>
              <LongitudeDegrees>-0.33821825869381427764892578125</LongitudeDegrees>
            </Position>
            <AltitudeMeters>1587</AltitudeMeters>
            <DistanceMeters>5899.3953769887</DistanceMeters>
          </Trackpoint>
          <Trackpoint>
            <Time>2022-08-20T12:05:08.000Z</Time>
            <Position>
              <LatitudeDegrees>42.81223199330270290374755859375</LatitudeDegrees>
              <LongitudeDegrees>-0.3382050991058349609375</LongitudeDegrees>
            </Position>
            <AltitudeMeters>1586.199951171875</AltitudeMeters>
            <DistanceMeters>5901.0385424876</DistanceMeters>
          </Trackpoint>
          <Trackpoint>
            <Time>2022-08-20T12:05:13.000Z</Time>
            <Position>
              <LatitudeDegrees>42.81227792613208293914794921875</LatitudeDegrees>
              <LongitudeDegrees>-0.33819906413555145263671875</LongitudeDegrees>
            </Position>
            <AltitudeMeters>1586.800048828125</AltitudeMeters>
            <DistanceMeters>5906.1752616126</DistanceMeters>
          </Trackpoint>
          <Trackpoint>
            <Time>2022-08-20T12:05:20.000Z</Time>
            <Position>
              <LatitudeDegrees>42.81233131885528564453125</LatitudeDegrees>
              <LongitudeDegrees>-0.338185317814350128173828125</LongitudeDegrees>
            </Position>
            <AltitudeMeters>1587.4000244140625</AltitudeMeters>
            <DistanceMeters>5912.2227246838</DistanceMeters>
          </Trackpoint>
          <Trackpoint>
            <Time>2022-08-20T12:05:22.000Z</Time>
            <Position>
              <LatitudeDegrees>42.81233861111104488372802734375</LatitudeDegrees>
              <LongitudeDegrees>-0.338187329471111297607421875</LongitudeDegrees>
            </Position>
            <AltitudeMeters>1588</AltitudeMeters>
            <DistanceMeters>5913.0511483736</DistanceMeters>
          </Trackpoint>
          <Trackpoint>
            <Time>2022-08-20T12:05:25.000Z</Time>
            <Position>
              <LatitudeDegrees>42.812351100146770477294921875</LatitudeDegrees>
              <LongitudeDegrees>-0.33819244243204593658447265625</LongitudeDegrees>
            </Position>
            <AltitudeMeters>1588.800048828125</AltitudeMeters>
            <DistanceMeters>5914.5047775862</DistanceMeters>
          </Trackpoint>
          <Trackpoint>
            <Time>2022-08-20T12:05:28.000Z</Time>
            <Position>
              <LatitudeDegrees>42.8123603202402591705322265625</LatitudeDegrees>
              <LongitudeDegrees>-0.33818724565207958221435546875</LongitudeDegrees>
            </Position>
            <AltitudeMeters>1588.800048828125</AltitudeMeters>
            <DistanceMeters>5915.6129699866</DistanceMeters>
          </Trackpoint>
          <Trackpoint>
            <Time>2022-08-20T12:05:31.000Z</Time>
            <Position>
              <LatitudeDegrees>42.81237465329468250274658203125</LatitudeDegrees>
              <LongitudeDegrees>-0.338190011680126190185546875</LongitudeDegrees>
            </Position>
            <AltitudeMeters>1589.5999755859375</AltitudeMeters>
            <DistanceMeters>5917.2200175475</DistanceMeters>
          </Trackpoint>
          <Trackpoint>
            <Time>2022-08-20T12:05:34.000Z</Time>
            <Position>
              <LatitudeDegrees>42.81238269992172718048095703125</LatitudeDegrees>
              <LongitudeDegrees>-0.33817492425441741943359375</LongitudeDegrees>
            </Position>
            <AltitudeMeters>1588.800048828125</AltitudeMeters>
            <DistanceMeters>5918.7404449775</DistanceMeters>
          </Trackpoint>
          <Trackpoint>
            <Time>2022-08-20T12:05:36.000Z</Time>
            <Position>
              <LatitudeDegrees>42.81239862553775310516357421875</LatitudeDegrees>
              <LongitudeDegrees>-0.33816629089415073394775390625</LongitudeDegrees>
            </Position>
            <AltitudeMeters>1588.800048828125</AltitudeMeters>
            <DistanceMeters>5920.6457246762</DistanceMeters>
          </Trackpoint>
          <Trackpoint>
            <Time>2022-08-20T12:05:38.000Z</Time>
            <Position>
              <LatitudeDegrees>42.8124126233160495758056640625</LatitudeDegrees>
              <LongitudeDegrees>-0.33815212547779083251953125</LongitudeDegrees>
            </Position>
            <AltitudeMeters>1588.199951171875</AltitudeMeters>
            <DistanceMeters>5922.5838969597</DistanceMeters>
          </Trackpoint>
          <Trackpoint>
            <Time>2022-08-20T12:05:43.000Z</Time>
            <Position>
              <LatitudeDegrees>42.81245880760252475738525390625</LatitudeDegrees>
              <LongitudeDegrees>-0.3381154127418994903564453125</LongitudeDegrees>
            </Position>
            <AltitudeMeters>1587.199951171875</AltitudeMeters>
            <DistanceMeters>5928.533510364</DistanceMeters>
          </Trackpoint>
          <Trackpoint>
            <Time>2022-08-20T12:05:47.000Z</Time>
            <Position>
              <LatitudeDegrees>42.81250960193574428558349609375</LatitudeDegrees>
              <LongitudeDegrees>-0.33808029256761074066162109375</LongitudeDegrees>
            </Position>
            <AltitudeMeters>1586.4000244140625</AltitudeMeters>
            <DistanceMeters>5934.8725828652</DistanceMeters>
          </Trackpoint>
          <Trackpoint>
            <Time>2022-08-20T12:05:50.000Z</Time>
            <Position>
              <LatitudeDegrees>42.81253407709300518035888671875</LatitudeDegrees>
              <LongitudeDegrees>-0.33805665560066699981689453125</LongitudeDegrees>
            </Position>
            <AltitudeMeters>1585.5999755859375</AltitudeMeters>
            <DistanceMeters>5938.2107132299</DistanceMeters>
          </Trackpoint>
          <Trackpoint>
            <Time>2022-08-20T12:05:58.000Z</Time>
            <Position>
              <LatitudeDegrees>42.81260096468031406402587890625</LatitudeDegrees>
              <LongitudeDegrees>-0.33800250850617885589599609375</LongitudeDegrees>
            </Position>
            <AltitudeMeters>1583.800048828125</AltitudeMeters>
            <DistanceMeters>5946.8691019159</DistanceMeters>
          </Trackpoint>
          <Trackpoint>
            <Time>2022-08-20T12:06:07.000Z</Time>
            <Position>
              <LatitudeDegrees>42.8126784972846508026123046875</LatitudeDegrees>
              <LongitudeDegrees>-0.3379263170063495635986328125</LongitudeDegrees>
            </Position>
            <AltitudeMeters>1580.5999755859375</AltitudeMeters>
            <DistanceMeters>5957.5070019905</DistanceMeters>
          </Trackpoint>
          <Trackpoint>
            <Time>2022-08-20T12:06:22.000Z</Time>
            <Position>
              <LatitudeDegrees>42.81286574900150299072265625</LatitudeDegrees>
              <LongitudeDegrees>-0.3378166817128658294677734375</LongitudeDegrees>
            </Position>
            <AltitudeMeters>1578.5999755859375</AltitudeMeters>
            <DistanceMeters>5980.1895423127</DistanceMeters>
          </Trackpoint>
          <Trackpoint>
            <Time>2022-08-20T12:06:35.000Z</Time>
            <Position>
              <LatitudeDegrees>42.813054509460926055908203125</LatitudeDegrees>
              <LongitudeDegrees>-0.3377848304808139801025390625</LongitudeDegrees>
            </Position>
            <AltitudeMeters>1584.4000244140625</AltitudeMeters>
            <DistanceMeters>6001.3593957348</DistanceMeters>
          </Trackpoint>
          <Trackpoint>
            <Time>2022-08-20T12:06:47.000Z</Time>
            <Position>
              <LatitudeDegrees>42.81317177228629589080810546875</LatitudeDegrees>
              <LongitudeDegrees>-0.3377549909055233001708984375</LongitudeDegrees>
            </Position>
            <AltitudeMeters>1586.5999755859375</AltitudeMeters>
            <DistanceMeters>6014.6366376299</DistanceMeters>
          </Trackpoint>
          <Trackpoint>
            <Time>2022-08-20T12:06:53.000Z</Time>
            <Position>
              <LatitudeDegrees>42.81322776339948177337646484375</LatitudeDegrees>
              <LongitudeDegrees>-0.3377764485776424407958984375</LongitudeDegrees>
            </Position>
            <AltitudeMeters>1590</AltitudeMeters>
            <DistanceMeters>6021.1096241662</DistanceMeters>
          </Trackpoint>
          <Trackpoint>
            <Time>2022-08-20T12:06:56.000Z</Time>
            <Position>
              <LatitudeDegrees>42.8132528252899646759033203125</LatitudeDegrees>
              <LongitudeDegrees>-0.33777351491153240203857421875</LongitudeDegrees>
            </Position>
            <AltitudeMeters>1590.5999755859375</AltitudeMeters>
            <DistanceMeters>6023.9092859946</DistanceMeters>
          </Trackpoint>
          <Trackpoint>
            <Time>2022-08-20T12:06:57.000Z</Time>
            <Position>
              <LatitudeDegrees>42.8132622130215167999267578125</LatitudeDegrees>
              <LongitudeDegrees>-0.33778206445276737213134765625</LongitudeDegrees>
            </Position>
            <AltitudeMeters>1591.4000244140625</AltitudeMeters>
            <DistanceMeters>6025.1699578211</DistanceMeters>
          </Trackpoint>
          <Trackpoint>
            <Time>2022-08-20T12:06:59.000Z</Time>
            <Position>
              <LatitudeDegrees>42.8132741153240203857421875</LatitudeDegrees>
              <LongitudeDegrees>-0.33779329620301723480224609375</LongitudeDegrees>
            </Position>
            <AltitudeMeters>1592.5999755859375</AltitudeMeters>
            <DistanceMeters>6026.7798124541</DistanceMeters>
          </Trackpoint>
          <Trackpoint>
            <Time>2022-08-20T12:07:01.000Z</Time>
            <Position>
              <LatitudeDegrees>42.8132848441600799560546875</LatitudeDegrees>
              <LongitudeDegrees>-0.33779262565076351165771484375</LongitudeDegrees>
            </Position>
            <AltitudeMeters>1593</AltitudeMeters>
            <DistanceMeters>6027.9742797321</DistanceMeters>
          </Trackpoint>
          <Trackpoint>
            <Time>2022-08-20T12:07:03.000Z</Time>
            <Position>
              <LatitudeDegrees>42.81329146586358547210693359375</LatitudeDegrees>
              <LongitudeDegrees>-0.337819866836071014404296875</LongitudeDegrees>
            </Position>
            <AltitudeMeters>1595</AltitudeMeters>
            <DistanceMeters>6030.317415767</DistanceMeters>
          </Trackpoint>
          <Trackpoint>
            <Time>2022-08-20T12:07:09.000Z</Time>
            <Position>
              <LatitudeDegrees>42.8133741952478885650634765625</LatitudeDegrees>
              <LongitudeDegrees>-0.3378683142364025115966796875</LongitudeDegrees>
            </Position>
            <AltitudeMeters>1601.5999755859375</AltitudeMeters>
            <DistanceMeters>6040.3390179448</DistanceMeters>
          </Trackpoint>
          <Trackpoint>
            <Time>2022-08-20T12:07:13.000Z</Time>
            <Position>
              <LatitudeDegrees>42.81340755522251129150390625</LatitudeDegrees>
              <LongitudeDegrees>-0.33786320127546787261962890625</LongitudeDegrees>
            </Position>
            <AltitudeMeters>1602.4000244140625</AltitudeMeters>
            <DistanceMeters>6044.0741843542</DistanceMeters>
          </Trackpoint>
          <Trackpoint>
            <Time>2022-08-20T12:07:15.000Z</Time>
            <Position>
              <LatitudeDegrees>42.81342742033302783966064453125</LatitudeDegrees>
              <LongitudeDegrees>-0.3378663025796413421630859375</LongitudeDegrees>
            </Position>
            <AltitudeMeters>1603.199951171875</AltitudeMeters>
            <DistanceMeters>6046.2987027046</DistanceMeters>
          </Trackpoint>
          <Trackpoint>
            <Time>2022-08-20T12:07:28.000Z</Time>
            <Position>
              <LatitudeDegrees>42.81358617357909679412841796875</LatitudeDegrees>
              <LongitudeDegrees>-0.337697826325893402099609375</LongitudeDegrees>
            </Position>
            <AltitudeMeters>1592.800048828125</AltitudeMeters>
            <DistanceMeters>6068.6915619444</DistanceMeters>
          </Trackpoint>
          <Trackpoint>
            <Time>2022-08-20T12:07:35.000Z</Time>
            <Position>
              <LatitudeDegrees>42.8136920370161533355712890625</LatitudeDegrees>
              <LongitudeDegrees>-0.3376483730971813201904296875</LongitudeDegrees>
            </Position>
            <AltitudeMeters>1591.5999755859375</AltitudeMeters>
            <DistanceMeters>6081.1469508707</DistanceMeters>
          </Trackpoint>
          <Trackpoint>
            <Time>2022-08-20T12:07:38.000Z</Time>
            <Position>
              <LatitudeDegrees>42.8137274086475372314453125</LatitudeDegrees>
              <LongitudeDegrees>-0.33764795400202274322509765625</LongitudeDegrees>
            </Position>
            <AltitudeMeters>1591.5999755859375</AltitudeMeters>
            <DistanceMeters>6085.0845442035</DistanceMeters>
          </Trackpoint>
          <Trackpoint>
            <Time>2022-08-20T12:07:41.000Z</Time>
            <Position>
              <LatitudeDegrees>42.81376403756439685821533203125</LatitudeDegrees>
              <LongitudeDegrees>-0.3376215510070323944091796875</LongitudeDegrees>
            </Position>
            <AltitudeMeters>1590.5999755859375</AltitudeMeters>
            <DistanceMeters>6089.6960331198</DistanceMeters>
          </Trackpoint>
          <Trackpoint>
            <Time>2022-08-20T12:07:55.000Z</Time>
            <Position>
              <LatitudeDegrees>42.81394927762448787689208984375</LatitudeDegrees>
              <LongitudeDegrees>-0.33758861012756824493408203125</LongitudeDegrees>
            </Position>
            <AltitudeMeters>1587.800048828125</AltitudeMeters>
            <DistanceMeters>6110.4884341315</DistanceMeters>
          </Trackpoint>
          <Trackpoint>
            <Time>2022-08-20T12:07:59.000Z</Time>
            <Position>
              <LatitudeDegrees>42.8139729984104633331298828125</LatitudeDegrees>
              <LongitudeDegrees>-0.337595231831073760986328125</LongitudeDegrees>
            </Position>
            <AltitudeMeters>1587.5999755859375</AltitudeMeters>
            <DistanceMeters>6113.1829065216</DistanceMeters>
          </Trackpoint>
          <Trackpoint>
            <Time>2022-08-20T12:08:01.000Z</Time>
            <Position>
              <LatitudeDegrees>42.81398029066622257232666015625</LatitudeDegrees>
              <LongitudeDegrees>-0.3376136720180511474609375</LongitudeDegrees>
            </Position>
            <AltitudeMeters>1588</AltitudeMeters>
            <DistanceMeters>6114.8933873803</DistanceMeters>
          </Trackpoint>
          <Trackpoint>
            <Time>2022-08-20T12:08:04.000Z</Time>
            <Position>
              <LatitudeDegrees>42.81400308944284915924072265625</LatitudeDegrees>
              <LongitudeDegrees>-0.33761895261704921722412109375</LongitudeDegrees>
            </Position>
            <AltitudeMeters>1588.199951171875</AltitudeMeters>
            <DistanceMeters>6117.4678924026</DistanceMeters>
          </Trackpoint>
          <Trackpoint>
            <Time>2022-08-20T12:08:09.000Z</Time>
            <Position>
              <LatitudeDegrees>42.81403225846588611602783203125</LatitudeDegrees>
              <LongitudeDegrees>-0.33761710859835147857666015625</LongitudeDegrees>
            </Position>
            <AltitudeMeters>1588</AltitudeMeters>
            <DistanceMeters>6120.7183061362</DistanceMeters>
          </Trackpoint>
          <Trackpoint>
            <Time>2022-08-20T12:08:12.000Z</Time>
            <Position>
              <LatitudeDegrees>42.81404533423483371734619140625</LatitudeDegrees>
              <LongitudeDegrees>-0.337618030607700347900390625</LongitudeDegrees>
            </Position>
            <AltitudeMeters>1588.199951171875</AltitudeMeters>
            <DistanceMeters>6122.1781342222</DistanceMeters>
          </Trackpoint>
          <Trackpoint>
            <Time>2022-08-20T12:08:15.000Z</Time>
            <Position>
              <LatitudeDegrees>42.81409017741680145263671875</LatitudeDegrees>
              <LongitudeDegrees>-0.3376098163425922393798828125</LongitudeDegrees>
            </Position>
            <AltitudeMeters>1588</AltitudeMeters>
            <DistanceMeters>6127.2145500838</DistanceMeters>
          </Trackpoint>
          <Trackpoint>
            <Time>2022-08-20T12:08:18.000Z</Time>
            <Position>
              <LatitudeDegrees>42.814148180186748504638671875</LatitudeDegrees>
              <LongitudeDegrees>-0.33760319463908672332763671875</LongitudeDegrees>
            </Position>
            <AltitudeMeters>1587.5999755859375</AltitudeMeters>
            <DistanceMeters>6133.6917203887</DistanceMeters>
          </Trackpoint>
          <Trackpoint>
            <Time>2022-08-20T12:08:19.000Z</Time>
            <Position>
              <LatitudeDegrees>42.8141661174595355987548828125</LatitudeDegrees>
              <LongitudeDegrees>-0.3376027755439281463623046875</LongitudeDegrees>
            </Position>
            <AltitudeMeters>1587.5999755859375</AltitudeMeters>
            <DistanceMeters>6135.6872813905</DistanceMeters>
          </Trackpoint>
          <Trackpoint>
            <Time>2022-08-20T12:08:24.000Z</Time>
            <Position>
              <LatitudeDegrees>42.81422319822013378143310546875</LatitudeDegrees>
              <LongitudeDegrees>-0.33761291764676570892333984375</LongitudeDegrees>
            </Position>
            <AltitudeMeters>1587.5999755859375</AltitudeMeters>
            <DistanceMeters>6142.0943655568</DistanceMeters>
          </Trackpoint>
          <Trackpoint>
            <Time>2022-08-20T12:08:28.000Z</Time>
            <Position>
              <LatitudeDegrees>42.81427835114300251007080078125</LatitudeDegrees>
              <LongitudeDegrees>-0.33760487101972103118896484375</LongitudeDegrees>
            </Position>
            <AltitudeMeters>1587.5999755859375</AltitudeMeters>
            <DistanceMeters>6148.2689086772</DistanceMeters>
          </Trackpoint>
          <Trackpoint>
            <Time>2022-08-20T12:08:33.000Z</Time>
            <Position>
              <LatitudeDegrees>42.81433048658072948455810546875</LatitudeDegrees>
              <LongitudeDegrees>-0.33760202117264270782470703125</LongitudeDegrees>
            </Position>
            <AltitudeMeters>1588</AltitudeMeters>
            <DistanceMeters>6154.0772101152</DistanceMeters>
          </Trackpoint>
          <Trackpoint>
            <Time>2022-08-20T12:08:36.000Z</Time>
            <Position>
              <LatitudeDegrees>42.81437289901077747344970703125</LatitudeDegrees>
              <LongitudeDegrees>-0.33760629594326019287109375</LongitudeDegrees>
            </Position>
            <AltitudeMeters>1588.5999755859375</AltitudeMeters>
            <DistanceMeters>6158.8095023274</DistanceMeters>
          </Trackpoint>
          <Trackpoint>
            <Time>2022-08-20T12:08:39.000Z</Time>
            <Position>
              <LatitudeDegrees>42.81439502723515033721923828125</LatitudeDegrees>
              <LongitudeDegrees>-0.33763068728148937225341796875</LongitudeDegrees>
            </Position>
            <AltitudeMeters>1589.5999755859375</AltitudeMeters>
            <DistanceMeters>6161.9754752983</DistanceMeters>
          </Trackpoint>
          <Trackpoint>
            <Time>2022-08-20T12:08:40.000Z</Time>
            <Position>
              <LatitudeDegrees>42.81440240330994129180908203125</LatitudeDegrees>
              <LongitudeDegrees>-0.33763638697564601898193359375</LongitudeDegrees>
            </Position>
            <AltitudeMeters>1589.800048828125</AltitudeMeters>
            <DistanceMeters>6162.9209791682</DistanceMeters>
          </Trackpoint>
          <Trackpoint>
            <Time>2022-08-20T12:08:44.000Z</Time>
            <Position>
              <LatitudeDegrees>42.81445101834833621978759765625</LatitudeDegrees>
              <LongitudeDegrees>-0.33766119740903377532958984375</LongitudeDegrees>
            </Position>
            <AltitudeMeters>1591.4000244140625</AltitudeMeters>
            <DistanceMeters>6168.6996661029</DistanceMeters>
          </Trackpoint>
          <Trackpoint>
            <Time>2022-08-20T12:08:56.000Z</Time>
            <Position>
              <LatitudeDegrees>42.81455822288990020751953125</LatitudeDegrees>
              <LongitudeDegrees>-0.337691791355609893798828125</LongitudeDegrees>
            </Position>
            <AltitudeMeters>1594.4000244140625</AltitudeMeters>
            <DistanceMeters>6180.8908936125</DistanceMeters>
          </Trackpoint>
          <Trackpoint>
            <Time>2022-08-20T12:08:59.000Z</Time>
            <Position>
              <LatitudeDegrees>42.81458781100809574127197265625</LatitudeDegrees>
              <LongitudeDegrees>-0.337689779698848724365234375</LongitudeDegrees>
            </Position>
            <AltitudeMeters>1595.199951171875</AltitudeMeters>
            <DistanceMeters>6184.1881973654</DistanceMeters>
          </Trackpoint>
          <Trackpoint>
            <Time>2022-08-20T12:09:01.000Z</Time>
            <Position>
              <LatitudeDegrees>42.8145982883870601654052734375</LatitudeDegrees>
              <LongitudeDegrees>-0.33768567256629467010498046875</LongitudeDegrees>
            </Position>
            <AltitudeMeters>1595.4000244140625</AltitudeMeters>
            <DistanceMeters>6185.4014172384</DistanceMeters>
          </Trackpoint>
          <Trackpoint>
            <Time>2022-08-20T12:09:07.000Z</Time>
            <Position>
              <LatitudeDegrees>42.81466308049857616424560546875</LatitudeDegrees>
              <LongitudeDegrees>-0.33764342777431011199951171875</LongitudeDegrees>
            </Position>
            <AltitudeMeters>1595.800048828125</AltitudeMeters>
            <DistanceMeters>6193.3949659446</DistanceMeters>
          </Trackpoint>
          <Trackpoint>
            <Time>2022-08-20T12:09:14.000Z</Time>
            <Position>
              <LatitudeDegrees>42.81474689953029155731201171875</LatitudeDegrees>
              <LongitudeDegrees>-0.3375953994691371917724609375</LongitudeDegrees>
            </Position>
            <AltitudeMeters>1596.4000244140625</AltitudeMeters>
            <DistanceMeters>6203.5147533411</DistanceMeters>
          </Trackpoint>
          <Trackpoint>
            <Time>2022-08-20T12:09:22.000Z</Time>
            <Position>
              <LatitudeDegrees>42.81485460698604583740234375</LatitudeDegrees>
              <LongitudeDegrees>-0.3375501371920108795166015625</LongitudeDegrees>
            </Position>
            <AltitudeMeters>1598.4000244140625</AltitudeMeters>
            <DistanceMeters>6216.059719354</DistanceMeters>
          </Trackpoint>
          <Trackpoint>
            <Time>2022-08-20T12:09:25.000Z</Time>
            <Position>
              <LatitudeDegrees>42.81487866304814815521240234375</LatitudeDegrees>
              <LongitudeDegrees>-0.3375477902591228485107421875</LongitudeDegrees>
            </Position>
            <AltitudeMeters>1599.199951171875</AltitudeMeters>
            <DistanceMeters>6218.7441189149</DistanceMeters>
          </Trackpoint>
          <Trackpoint>
            <Time>2022-08-20T12:09:29.000Z</Time>
            <Position>
              <LatitudeDegrees>42.81491353176534175872802734375</LatitudeDegrees>
              <LongitudeDegrees>-0.33751132898032665252685546875</LongitudeDegrees>
            </Position>
            <AltitudeMeters>1599.4000244140625</AltitudeMeters>
            <DistanceMeters>6223.6359184382</DistanceMeters>
          </Trackpoint>
          <Trackpoint>
            <Time>2022-08-20T12:09:33.000Z</Time>
            <Position>
              <LatitudeDegrees>42.81495477072894573211669921875</LatitudeDegrees>
              <LongitudeDegrees>-0.337479226291179656982421875</LongitudeDegrees>
            </Position>
            <AltitudeMeters>1600</AltitudeMeters>
            <DistanceMeters>6228.9216593056</DistanceMeters>
          </Trackpoint>
          <Trackpoint>
            <Time>2022-08-20T12:09:35.000Z</Time>
            <Position>
              <LatitudeDegrees>42.8149741329252719879150390625</LatitudeDegrees>
              <LongitudeDegrees>-0.33746422268450260162353515625</LongitudeDegrees>
            </Position>
            <AltitudeMeters>1600.199951171875</AltitudeMeters>
            <DistanceMeters>6231.3996528451</DistanceMeters>
          </Trackpoint>
          <Trackpoint>
            <Time>2022-08-20T12:09:37.000Z</Time>
            <Position>
              <LatitudeDegrees>42.81498779542744159698486328125</LatitudeDegrees>
              <LongitudeDegrees>-0.33745869062840938568115234375</LongitudeDegrees>
            </Position>
            <AltitudeMeters>1600.5999755859375</AltitudeMeters>
            <DistanceMeters>6232.9897539125</DistanceMeters>
          </Trackpoint>
          <Trackpoint>
            <Time>2022-08-20T12:09:40.000Z</Time>
            <Position>
              <LatitudeDegrees>42.81501327641308307647705078125</LatitudeDegrees>
              <LongitudeDegrees>-0.33745466731488704681396484375</LongitudeDegrees>
            </Position>
            <AltitudeMeters>1601.4000244140625</AltitudeMeters>
            <DistanceMeters>6235.8453027264</DistanceMeters>
          </Trackpoint>
          <Trackpoint>
            <Time>2022-08-20T12:09:45.000Z</Time>
            <Position>
              <LatitudeDegrees>42.81505434773862361907958984375</LatitudeDegrees>
              <LongitudeDegrees>-0.33744745887815952301025390625</LongitudeDegrees>
            </Position>
            <AltitudeMeters>1602.5999755859375</AltitudeMeters>
            <DistanceMeters>6240.4538534527</DistanceMeters>
          </Trackpoint>
          <Trackpoint>
            <Time>2022-08-20T12:09:50.000Z</Time>
            <Position>
              <LatitudeDegrees>42.815072201192378997802734375</LatitudeDegrees>
              <LongitudeDegrees>-0.33741778694093227386474609375</LongitudeDegrees>
            </Position>
            <AltitudeMeters>1602.199951171875</AltitudeMeters>
            <DistanceMeters>6243.5868541061</DistanceMeters>
          </Trackpoint>
          <Trackpoint>
            <Time>2022-08-20T12:09:54.000Z</Time>
            <Position>
              <LatitudeDegrees>42.8150975145399570465087890625</LatitudeDegrees>
              <LongitudeDegrees>-0.33739733509719371795654296875</LongitudeDegrees>
            </Position>
            <AltitudeMeters>1602.199951171875</AltitudeMeters>
            <DistanceMeters>6246.8621755889</DistanceMeters>
          </Trackpoint>
          <Trackpoint>
            <Time>2022-08-20T12:09:57.000Z</Time>
            <Position>
              <LatitudeDegrees>42.81512525863945484161376953125</LatitudeDegrees>
              <LongitudeDegrees>-0.33737319521605968475341796875</LongitudeDegrees>
            </Position>
            <AltitudeMeters>1602.199951171875</AltitudeMeters>
            <DistanceMeters>6250.5253290931</DistanceMeters>
          </Trackpoint>
          <Trackpoint>
            <Time>2022-08-20T12:09:59.000Z</Time>
            <Position>
              <LatitudeDegrees>42.81513816677033901214599609375</LatitudeDegrees>
              <LongitudeDegrees>-0.33735374920070171356201171875</LongitudeDegrees>
            </Position>
            <AltitudeMeters>1602</AltitudeMeters>
            <DistanceMeters>6252.6671224617</DistanceMeters>
          </Trackpoint>
          <Trackpoint>
            <Time>2022-08-20T12:10:00.000Z</Time>
            <Position>
              <LatitudeDegrees>42.8151461295783519744873046875</LatitudeDegrees>
              <LongitudeDegrees>-0.3373486362397670745849609375</LongitudeDegrees>
            </Position>
            <AltitudeMeters>1602</AltitudeMeters>
            <DistanceMeters>6253.6454823663</DistanceMeters>
          </Trackpoint>
          <Trackpoint>
            <Time>2022-08-20T12:10:01.000Z</Time>
            <Position>
              <LatitudeDegrees>42.81515275128185749053955078125</LatitudeDegrees>
              <LongitudeDegrees>-0.33734100870788097381591796875</LongitudeDegrees>
            </Position>
            <AltitudeMeters>1602</AltitudeMeters>
            <DistanceMeters>6254.6098981863</DistanceMeters>
          </Trackpoint>
          <Trackpoint>
            <Time>2022-08-20T12:10:03.000Z</Time>
            <Position>
              <LatitudeDegrees>42.81516348011791706085205078125</LatitudeDegrees>
              <LongitudeDegrees>-0.3373255021870136260986328125</LongitudeDegrees>
            </Position>
            <AltitudeMeters>1601.800048828125</AltitudeMeters>
            <DistanceMeters>6256.3517666328</DistanceMeters>
          </Trackpoint>
          <Trackpoint>
            <Time>2022-08-20T12:10:05.000Z</Time>
            <Position>
              <LatitudeDegrees>42.81518460251390933990478515625</LatitudeDegrees>
              <LongitudeDegrees>-0.3373130969703197479248046875</LongitudeDegrees>
            </Position>
            <AltitudeMeters>1602</AltitudeMeters>
            <DistanceMeters>6258.9122032164</DistanceMeters>
          </Trackpoint>
          <Trackpoint>
            <Time>2022-08-20T12:10:08.000Z</Time>
            <Position>
              <LatitudeDegrees>42.8152131848037242889404296875</LatitudeDegrees>
              <LongitudeDegrees>-0.3372973389923572540283203125</LongitudeDegrees>
            </Position>
            <AltitudeMeters>1602.4000244140625</AltitudeMeters>
            <DistanceMeters>6262.3437072136</DistanceMeters>
          </Trackpoint>
          <Trackpoint>
            <Time>2022-08-20T12:10:10.000Z</Time>
            <Position>
              <LatitudeDegrees>42.81522617675364017486572265625</LatitudeDegrees>
              <LongitudeDegrees>-0.33729759044945240020751953125</LongitudeDegrees>
            </Position>
            <AltitudeMeters>1602.800048828125</AltitudeMeters>
            <DistanceMeters>6263.7911110049</DistanceMeters>
          </Trackpoint>
          <Trackpoint>
            <Time>2022-08-20T12:10:11.000Z</Time>
            <Position>
              <LatitudeDegrees>42.815231792628765106201171875</LatitudeDegrees>
              <LongitudeDegrees>-0.33729851245880126953125</LongitudeDegrees>
            </Position>
            <AltitudeMeters>1603</AltitudeMeters>
            <DistanceMeters>6264.4214469181</DistanceMeters>
          </Trackpoint>
          <Trackpoint>
            <Time>2022-08-20T12:10:15.000Z</Time>
            <Position>
              <LatitudeDegrees>42.81525953672826290130615234375</LatitudeDegrees>
              <LongitudeDegrees>-0.33729247748851776123046875</LongitudeDegrees>
            </Position>
            <AltitudeMeters>1603.5999755859375</AltitudeMeters>
            <DistanceMeters>6267.5472336531</DistanceMeters>
          </Trackpoint>
          <Trackpoint>
            <Time>2022-08-20T12:10:23.000Z</Time>
            <Position>
              <LatitudeDegrees>42.815327346324920654296875</LatitudeDegrees>
              <LongitudeDegrees>-0.33725165762007236480712890625</LongitudeDegrees>
            </Position>
            <AltitudeMeters>1604.199951171875</AltitudeMeters>
            <DistanceMeters>6275.7976103859</DistanceMeters>
          </Trackpoint>
          <Trackpoint>
            <Time>2022-08-20T12:10:30.000Z</Time>
            <Position>
              <LatitudeDegrees>42.81536984257400035858154296875</LatitudeDegrees>
              <LongitudeDegrees>-0.33722617663443088531494140625</LongitudeDegrees>
            </Position>
            <AltitudeMeters>1604.5999755859375</AltitudeMeters>
            <DistanceMeters>6280.9641281657</DistanceMeters>
          </Trackpoint>
          <Trackpoint>
            <Time>2022-08-20T12:10:34.000Z</Time>
            <Position>
              <LatitudeDegrees>42.81539767049252986907958984375</LatitudeDegrees>
              <LongitudeDegrees>-0.33719725906848907470703125</LongitudeDegrees>
            </Position>
            <AltitudeMeters>1604.4000244140625</AltitudeMeters>
            <DistanceMeters>6284.8590644201</DistanceMeters>
          </Trackpoint>
          <Trackpoint>
            <Time>2022-08-20T12:10:36.000Z</Time>
            <Position>
              <LatitudeDegrees>42.8154143504798412322998046875</LatitudeDegrees>
              <LongitudeDegrees>-0.337184853851795196533203125</LongitudeDegrees>
            </Position>
            <AltitudeMeters>1604.4000244140625</AltitudeMeters>
            <DistanceMeters>6286.9754098352</DistanceMeters>
          </Trackpoint>
          <Trackpoint>
            <Time>2022-08-20T12:10:41.000Z</Time>
            <Position>
              <LatitudeDegrees>42.8154565952718257904052734375</LatitudeDegrees>
              <LongitudeDegrees>-0.3371840156614780426025390625</LongitudeDegrees>
            </Position>
            <AltitudeMeters>1605.5999755859375</AltitudeMeters>
            <DistanceMeters>6291.6780322112</DistanceMeters>
          </Trackpoint>
          <Trackpoint>
            <Time>2022-08-20T12:10:44.000Z</Time>
            <Position>
              <LatitudeDegrees>42.81546740792691707611083984375</LatitudeDegrees>
              <LongitudeDegrees>-0.33718175254762172698974609375</LongitudeDegrees>
            </Position>
            <AltitudeMeters>1605.800048828125</AltitudeMeters>
            <DistanceMeters>6292.8949679272</DistanceMeters>
          </Trackpoint>
          <Trackpoint>
            <Time>2022-08-20T12:10:47.000Z</Time>
            <Position>
              <LatitudeDegrees>42.815487273037433624267578125</LatitudeDegrees>
              <LongitudeDegrees>-0.3371850214898586273193359375</LongitudeDegrees>
            </Position>
            <AltitudeMeters>1606.4000244140625</AltitudeMeters>
            <DistanceMeters>6295.1235419206</DistanceMeters>
          </Trackpoint>
          <Trackpoint>
            <Time>2022-08-20T12:10:49.000Z</Time>
            <Position>
              <LatitudeDegrees>42.81549557112157344818115234375</LatitudeDegrees>
              <LongitudeDegrees>-0.337184183299541473388671875</LongitudeDegrees>
            </Position>
            <AltitudeMeters>1606.4000244140625</AltitudeMeters>
            <DistanceMeters>6296.0546097692</DistanceMeters>
          </Trackpoint>
          <Trackpoint>
            <Time>2022-08-20T12:10:51.000Z</Time>
            <Position>
              <LatitudeDegrees>42.81550378538668155670166015625</LatitudeDegrees>
              <LongitudeDegrees>-0.337185524404048919677734375</LongitudeDegrees>
            </Position>
            <AltitudeMeters>1606.800048828125</AltitudeMeters>
            <DistanceMeters>6296.9759279475</DistanceMeters>
          </Trackpoint>
          <Trackpoint>
            <Time>2022-08-20T12:11:00.000Z</Time>
            <Position>
              <LatitudeDegrees>42.8155461139976978302001953125</LatitudeDegrees>
              <LongitudeDegrees>-0.33720773644745349884033203125</LongitudeDegrees>
            </Position>
            <AltitudeMeters>1608.4000244140625</AltitudeMeters>
            <DistanceMeters>6302.023984576</DistanceMeters>
          </Trackpoint>
          <Trackpoint>
            <Time>2022-08-20T12:11:04.000Z</Time>
            <Position>
              <LatitudeDegrees>42.815540917217731475830078125</LatitudeDegrees>
              <LongitudeDegrees>-0.33724646084010601043701171875</LongitudeDegrees>
            </Position>
            <AltitudeMeters>1609.4000244140625</AltitudeMeters>
            <DistanceMeters>6305.2380796978</DistanceMeters>
          </Trackpoint>
          <Trackpoint>
            <Time>2022-08-20T12:11:16.000Z</Time>
            <Position>
              <LatitudeDegrees>42.81559950672090053558349609375</LatitudeDegrees>
              <LongitudeDegrees>-0.33729323185980319976806640625</LongitudeDegrees>
            </Position>
            <AltitudeMeters>1612</AltitudeMeters>
            <DistanceMeters>6312.7961392097</DistanceMeters>
          </Trackpoint>
          <Trackpoint>
            <Time>2022-08-20T12:11:21.000Z</Time>
            <Position>
              <LatitudeDegrees>42.8156403265893459320068359375</LatitudeDegrees>
              <LongitudeDegrees>-0.33729390241205692291259765625</LongitudeDegrees>
            </Position>
            <AltitudeMeters>1612.800048828125</AltitudeMeters>
            <DistanceMeters>6317.3395690541</DistanceMeters>
          </Trackpoint>
          <Trackpoint>
            <Time>2022-08-20T12:11:25.000Z</Time>
            <Position>
              <LatitudeDegrees>42.81567125581204891204833984375</LatitudeDegrees>
              <LongitudeDegrees>-0.33730513416230678558349609375</LongitudeDegrees>
            </Position>
            <AltitudeMeters>1613.5999755859375</AltitudeMeters>
            <DistanceMeters>6320.9027540731</DistanceMeters>
          </Trackpoint>
          <Trackpoint>
            <Time>2022-08-20T12:11:28.000Z</Time>
            <Position>
              <LatitudeDegrees>42.81569774262607097625732421875</LatitudeDegrees>
              <LongitudeDegrees>-0.33730924129486083984375</LongitudeDegrees>
            </Position>
            <AltitudeMeters>1614</AltitudeMeters>
            <DistanceMeters>6323.8699622783</DistanceMeters>
          </Trackpoint>
          <Trackpoint>
            <Time>2022-08-20T12:11:57.000Z</Time>
            <Position>
              <LatitudeDegrees>42.81581860966980457305908203125</LatitudeDegrees>
              <LongitudeDegrees>-0.33731653355062007904052734375</LongitudeDegrees>
            </Position>
            <AltitudeMeters>1615.5999755859375</AltitudeMeters>
            <DistanceMeters>6337.3356198929</DistanceMeters>
          </Trackpoint>
          <Trackpoint>
            <Time>2022-08-20T12:12:03.000Z</Time>
            <Position>
              <LatitudeDegrees>42.8158763609826564788818359375</LatitudeDegrees>
              <LongitudeDegrees>-0.3373084031045436859130859375</LongitudeDegrees>
            </Position>
            <AltitudeMeters>1616.4000244140625</AltitudeMeters>
            <DistanceMeters>6343.7974364701</DistanceMeters>
          </Trackpoint>
          <Trackpoint>
            <Time>2022-08-20T12:12:22.000Z</Time>
            <Position>
              <LatitudeDegrees>42.81604592688381671905517578125</LatitudeDegrees>
              <LongitudeDegrees>-0.3374016098678112030029296875</LongitudeDegrees>
            </Position>
            <AltitudeMeters>1619</AltitudeMeters>
            <DistanceMeters>6364.1469142415</DistanceMeters>
          </Trackpoint>
          <Trackpoint>
            <Time>2022-08-20T12:12:37.000Z</Time>
            <Position>
              <LatitudeDegrees>42.81622161157429218292236328125</LatitudeDegrees>
              <LongitudeDegrees>-0.33748987130820751190185546875</LongitudeDegrees>
            </Position>
            <AltitudeMeters>1619.4000244140625</AltitudeMeters>
            <DistanceMeters>6384.9865998556</DistanceMeters>
          </Trackpoint>
          <Trackpoint>
            <Time>2022-08-20T12:12:38.000Z</Time>
            <Position>
              <LatitudeDegrees>42.816226892173290252685546875</LatitudeDegrees>
              <LongitudeDegrees>-0.33750646747648715972900390625</LongitudeDegrees>
            </Position>
            <AltitudeMeters>1620</AltitudeMeters>
            <DistanceMeters>6386.4648686064</DistanceMeters>
          </Trackpoint>
          <Trackpoint>
            <Time>2022-08-20T12:12:42.000Z</Time>
            <Position>
              <LatitudeDegrees>42.81627911143004894256591796875</LatitudeDegrees>
              <LongitudeDegrees>-0.337536893784999847412109375</LongitudeDegrees>
            </Position>
            <AltitudeMeters>1620.5999755859375</AltitudeMeters>
            <DistanceMeters>6392.7846809542</DistanceMeters>
          </Trackpoint>
          <Trackpoint>
            <Time>2022-08-20T12:12:58.000Z</Time>
            <Position>
              <LatitudeDegrees>42.81641858629882335662841796875</LatitudeDegrees>
              <LongitudeDegrees>-0.33766035921871662139892578125</LongitudeDegrees>
            </Position>
            <AltitudeMeters>1622.800048828125</AltitudeMeters>
            <DistanceMeters>6411.2941677186</DistanceMeters>
          </Trackpoint>
          <Trackpoint>
            <Time>2022-08-20T12:13:04.000Z</Time>
            <Position>
              <LatitudeDegrees>42.81644624657928943634033203125</LatitudeDegrees>
              <LongitudeDegrees>-0.337737388908863067626953125</LongitudeDegrees>
            </Position>
            <AltitudeMeters>1625</AltitudeMeters>
            <DistanceMeters>6418.2965469636</DistanceMeters>
          </Trackpoint>
          <Trackpoint>
            <Time>2022-08-20T12:13:05.000Z</Time>
            <Position>
              <LatitudeDegrees>42.816451527178287506103515625</LatitudeDegrees>
              <LongitudeDegrees>-0.33775339834392070770263671875</LongitudeDegrees>
            </Position>
            <AltitudeMeters>1625.800048828125</AltitudeMeters>
            <DistanceMeters>6419.7314188845</DistanceMeters>
          </Trackpoint>
          <Trackpoint>
            <Time>2022-08-20T12:13:07.000Z</Time>
            <Position>
              <LatitudeDegrees>42.81646871007978916168212890625</LatitudeDegrees>
              <LongitudeDegrees>-0.3377784602344036102294921875</LongitudeDegrees>
            </Position>
            <AltitudeMeters>1627.5999755859375</AltitudeMeters>
            <DistanceMeters>6422.5343042739</DistanceMeters>
          </Trackpoint>
          <Trackpoint>
            <Time>2022-08-20T12:13:10.000Z</Time>
            <Position>
              <LatitudeDegrees>42.8164868988096714019775390625</LatitudeDegrees>
              <LongitudeDegrees>-0.337811820209026336669921875</LongitudeDegrees>
            </Position>
            <AltitudeMeters>1630.199951171875</AltitudeMeters>
            <DistanceMeters>6425.9287670506</DistanceMeters>
          </Trackpoint>
          <Trackpoint>
            <Time>2022-08-20T12:13:13.000Z</Time>
            <Position>
              <LatitudeDegrees>42.816507853567600250244140625</LatitudeDegrees>
              <LongitudeDegrees>-0.33781777136027812957763671875</LongitudeDegrees>
            </Position>
            <AltitudeMeters>1630.800048828125</AltitudeMeters>
            <DistanceMeters>6428.3120249224</DistanceMeters>
          </Trackpoint>
          <Trackpoint>
            <Time>2022-08-20T12:13:15.000Z</Time>
            <Position>
              <LatitudeDegrees>42.81652201898396015167236328125</LatitudeDegrees>
              <LongitudeDegrees>-0.3378227166831493377685546875</LongitudeDegrees>
            </Position>
            <AltitudeMeters>1631.199951171875</AltitudeMeters>
            <DistanceMeters>6429.9413936573</DistanceMeters>
          </Trackpoint>
          <Trackpoint>
            <Time>2022-08-20T12:13:18.000Z</Time>
            <Position>
              <LatitudeDegrees>42.81656049191951751708984375</LatitudeDegrees>
              <LongitudeDegrees>-0.33781978301703929901123046875</LongitudeDegrees>
            </Position>
            <AltitudeMeters>1630.800048828125</AltitudeMeters>
            <DistanceMeters>6434.2291944503</DistanceMeters>
          </Trackpoint>
          <Trackpoint>
            <Time>2022-08-20T12:13:22.000Z</Time>
            <Position>
              <LatitudeDegrees>42.8165931813418865203857421875</LatitudeDegrees>
              <LongitudeDegrees>-0.33779136836528778076171875</LongitudeDegrees>
            </Position>
            <AltitudeMeters>1628.5999755859375</AltitudeMeters>
            <DistanceMeters>6438.5442862949</DistanceMeters>
          </Trackpoint>
          <Trackpoint>
            <Time>2022-08-20T12:13:24.000Z</Time>
            <Position>
              <LatitudeDegrees>42.81661019660532474517822265625</LatitudeDegrees>
              <LongitudeDegrees>-0.33776630647480487823486328125</LongitudeDegrees>
            </Position>
            <AltitudeMeters>1626.5999755859375</AltitudeMeters>
            <DistanceMeters>6441.3310165907</DistanceMeters>
          </Trackpoint>
          <Trackpoint>
            <Time>2022-08-20T12:13:41.000Z</Time>
            <Position>
              <LatitudeDegrees>42.81674087047576904296875</LatitudeDegrees>
              <LongitudeDegrees>-0.33760202117264270782470703125</LongitudeDegrees>
            </Position>
            <AltitudeMeters>1620.199951171875</AltitudeMeters>
            <DistanceMeters>6461.1159801684</DistanceMeters>
          </Trackpoint>
          <Trackpoint>
            <Time>2022-08-20T12:13:43.000Z</Time>
            <Position>
              <LatitudeDegrees>42.816753946244716644287109375</LatitudeDegrees>
              <LongitudeDegrees>-0.33759095706045627593994140625</LongitudeDegrees>
            </Position>
            <AltitudeMeters>1620</AltitudeMeters>
            <DistanceMeters>6462.826461027</DistanceMeters>
          </Trackpoint>
          <Trackpoint>
            <Time>2022-08-20T12:13:46.000Z</Time>
            <Position>
              <LatitudeDegrees>42.81677565537393093109130859375</LatitudeDegrees>
              <LongitudeDegrees>-0.33756740391254425048828125</LongitudeDegrees>
            </Position>
            <AltitudeMeters>1620</AltitudeMeters>
            <DistanceMeters>6465.9115381042</DistanceMeters>
          </Trackpoint>
          <Trackpoint>
            <Time>2022-08-20T12:13:48.000Z</Time>
            <Position>
              <LatitudeDegrees>42.81678772531449794769287109375</LatitudeDegrees>
              <LongitudeDegrees>-0.33756061457097530364990234375</LongitudeDegrees>
            </Position>
            <AltitudeMeters>1620.199951171875</AltitudeMeters>
            <DistanceMeters>6467.3651673168</DistanceMeters>
          </Trackpoint>
          <Trackpoint>
            <Time>2022-08-20T12:13:52.000Z</Time>
            <Position>
              <LatitudeDegrees>42.81681404449045658111572265625</LatitudeDegrees>
              <LongitudeDegrees>-0.337550640106201171875</LongitudeDegrees>
            </Position>
            <AltitudeMeters>1620.5999755859375</AltitudeMeters>
            <DistanceMeters>6470.4060221767</DistanceMeters>
          </Trackpoint>
          <Trackpoint>
            <Time>2022-08-20T12:13:59.000Z</Time>
            <Position>
              <LatitudeDegrees>42.8168449737131595611572265625</LatitudeDegrees>
              <LongitudeDegrees>-0.33754636533558368682861328125</LongitudeDegrees>
            </Position>
            <AltitudeMeters>1621.5999755859375</AltitudeMeters>
            <DistanceMeters>6473.866351838</DistanceMeters>
          </Trackpoint>
          <Trackpoint>
            <Time>2022-08-20T12:14:06.000Z</Time>
            <Position>
              <LatitudeDegrees>42.816913537681102752685546875</LatitudeDegrees>
              <LongitudeDegrees>-0.33754996955394744873046875</LongitudeDegrees>
            </Position>
            <AltitudeMeters>1623.800048828125</AltitudeMeters>
            <DistanceMeters>6481.5028584788</DistanceMeters>
          </Trackpoint>
          <Trackpoint>
            <Time>2022-08-20T12:14:11.000Z</Time>
            <Position>
              <LatitudeDegrees>42.8169728815555572509765625</LatitudeDegrees>
              <LongitudeDegrees>-0.33753924071788787841796875</LongitudeDegrees>
            </Position>
            <AltitudeMeters>1625.4000244140625</AltitudeMeters>
            <DistanceMeters>6488.1655798296</DistanceMeters>
          </Trackpoint>
          <Trackpoint>
            <Time>2022-08-20T12:14:19.000Z</Time>
            <Position>
              <LatitudeDegrees>42.81702174805104732513427734375</LatitudeDegrees>
              <LongitudeDegrees>-0.33751568756997585296630859375</LongitudeDegrees>
            </Position>
            <AltitudeMeters>1626.199951171875</AltitudeMeters>
            <DistanceMeters>6493.934883234</DistanceMeters>
          </Trackpoint>
          <Trackpoint>
            <Time>2022-08-20T12:14:27.000Z</Time>
            <Position>
              <LatitudeDegrees>42.8170977719128131866455078125</LatitudeDegrees>
              <LongitudeDegrees>-0.33746388740837574005126953125</LongitudeDegrees>
            </Position>
            <AltitudeMeters>1627.5999755859375</AltitudeMeters>
            <DistanceMeters>6503.3946959996</DistanceMeters>
          </Trackpoint>
          <Trackpoint>
            <Time>2022-08-20T12:14:30.000Z</Time>
            <Position>
              <LatitudeDegrees>42.817118726670742034912109375</LatitudeDegrees>
              <LongitudeDegrees>-0.3374572657048702239990234375</LongitudeDegrees>
            </Position>
            <AltitudeMeters>1628.199951171875</AltitudeMeters>
            <DistanceMeters>6505.7874075295</DistanceMeters>
          </Trackpoint>
          <Trackpoint>
            <Time>2022-08-20T12:14:35.000Z</Time>
            <Position>
              <LatitudeDegrees>42.8171567805111408233642578125</LatitudeDegrees>
              <LongitudeDegrees>-0.33741426654160022735595703125</LongitudeDegrees>
            </Position>
            <AltitudeMeters>1628.4000244140625</AltitudeMeters>
            <DistanceMeters>6511.2882971088</DistanceMeters>
          </Trackpoint>
          <Trackpoint>
            <Time>2022-08-20T12:14:39.000Z</Time>
            <Position>
              <LatitudeDegrees>42.817201875150203704833984375</LatitudeDegrees>
              <LongitudeDegrees>-0.33736799843609333038330078125</LongitudeDegrees>
            </Position>
            <AltitudeMeters>1629</AltitudeMeters>
            <DistanceMeters>6517.5694119767</DistanceMeters>
          </Trackpoint>
          <Trackpoint>
            <Time>2022-08-20T12:14:43.000Z</Time>
            <Position>
              <LatitudeDegrees>42.8172503225505352020263671875</LatitudeDegrees>
              <LongitudeDegrees>-0.337322317063808441162109375</LongitudeDegrees>
            </Position>
            <AltitudeMeters>1629.5999755859375</AltitudeMeters>
            <DistanceMeters>6524.1255666327</DistanceMeters>
          </Trackpoint>
          <Trackpoint>
            <Time>2022-08-20T12:14:53.000Z</Time>
            <Position>
              <LatitudeDegrees>42.81734503805637359619140625</LatitudeDegrees>
              <LongitudeDegrees>-0.33722944557666778564453125</LongitudeDegrees>
            </Position>
            <AltitudeMeters>1630.5999755859375</AltitudeMeters>
            <DistanceMeters>6537.1112374861</DistanceMeters>
          </Trackpoint>
          <Trackpoint>
            <Time>2022-08-20T12:14:56.000Z</Time>
            <Position>
              <LatitudeDegrees>42.817369513213634490966796875</LatitudeDegrees>
              <LongitudeDegrees>-0.3371845185756683349609375</LongitudeDegrees>
            </Position>
            <AltitudeMeters>1630.5999755859375</AltitudeMeters>
            <DistanceMeters>6541.6804318066</DistanceMeters>
          </Trackpoint>
          <Trackpoint>
            <Time>2022-08-20T12:14:58.000Z</Time>
            <Position>
              <LatitudeDegrees>42.8173928149044513702392578125</LatitudeDegrees>
              <LongitudeDegrees>-0.33715291880071163177490234375</LongitudeDegrees>
            </Position>
            <AltitudeMeters>1630.800048828125</AltitudeMeters>
            <DistanceMeters>6545.3386517686</DistanceMeters>
          </Trackpoint>
          <Trackpoint>
            <Time>2022-08-20T12:15:00.000Z</Time>
            <Position>
              <LatitudeDegrees>42.81741879880428314208984375</LatitudeDegrees>
              <LongitudeDegrees>-0.3371280245482921600341796875</LongitudeDegrees>
            </Position>
            <AltitudeMeters>1631.4000244140625</AltitudeMeters>
            <DistanceMeters>6548.8738498958</DistanceMeters>
          </Trackpoint>
          <Trackpoint>
            <Time>2022-08-20T12:15:04.000Z</Time>
            <Position>
              <LatitudeDegrees>42.81743933446705341339111328125</LatitudeDegrees>
              <LongitudeDegrees>-0.33709759823977947235107421875</LongitudeDegrees>
            </Position>
            <AltitudeMeters>1631.5999755859375</AltitudeMeters>
            <DistanceMeters>6552.2496396511</DistanceMeters>
          </Trackpoint>
          <Trackpoint>
            <Time>2022-08-20T12:15:09.000Z</Time>
            <Position>
              <LatitudeDegrees>42.81744855456054210662841796875</LatitudeDegrees>
              <LongitudeDegrees>-0.337062142789363861083984375</LongitudeDegrees>
            </Position>
            <AltitudeMeters>1631.4000244140625</AltitudeMeters>
            <DistanceMeters>6555.3200467589</DistanceMeters>
          </Trackpoint>
          <Trackpoint>
            <Time>2022-08-20T12:15:13.000Z</Time>
            <Position>
              <LatitudeDegrees>42.81745500862598419189453125</LatitudeDegrees>
              <LongitudeDegrees>-0.33703406341373920440673828125</LongitudeDegrees>
            </Position>
            <AltitudeMeters>1631.199951171875</AltitudeMeters>
            <DistanceMeters>6557.7202944068</DistanceMeters>
          </Trackpoint>
          <Trackpoint>
            <Time>2022-08-20T12:15:17.000Z</Time>
            <Position>
              <LatitudeDegrees>42.8174716047942638397216796875</LatitudeDegrees>
              <LongitudeDegrees>-0.33700606785714626312255859375</LongitudeDegrees>
            </Position>
            <AltitudeMeters>1631.4000244140625</AltitudeMeters>
            <DistanceMeters>6560.6584491135</DistanceMeters>
          </Trackpoint>
          <Trackpoint>
            <Time>2022-08-20T12:15:20.000Z</Time>
            <Position>
              <LatitudeDegrees>42.81748862005770206451416015625</LatitudeDegrees>
              <LongitudeDegrees>-0.33697991631925106048583984375</LongitudeDegrees>
            </Position>
            <AltitudeMeters>1631.800048828125</AltitudeMeters>
            <DistanceMeters>6563.5139979274</DistanceMeters>
          </Trackpoint>
          <Trackpoint>
            <Time>2022-08-20T12:15:25.000Z</Time>
            <Position>
              <LatitudeDegrees>42.81747923232614994049072265625</LatitudeDegrees>
              <LongitudeDegrees>-0.3369345702230930328369140625</LongitudeDegrees>
            </Position>
            <AltitudeMeters>1631.199951171875</AltitudeMeters>
            <DistanceMeters>6567.3599393226</DistanceMeters>
          </Trackpoint>
          <Trackpoint>
            <Time>2022-08-20T12:15:28.000Z</Time>
            <Position>
              <LatitudeDegrees>42.81747118569910526275634765625</LatitudeDegrees>
              <LongitudeDegrees>-0.33690665848553180694580078125</LongitudeDegrees>
            </Position>
            <AltitudeMeters>1630.5999755859375</AltitudeMeters>
            <DistanceMeters>6569.8086064618</DistanceMeters>
          </Trackpoint>
          <Trackpoint>
            <Time>2022-08-20T12:15:32.000Z</Time>
            <Position>
              <LatitudeDegrees>42.81747110188007354736328125</LatitudeDegrees>
              <LongitudeDegrees>-0.336861647665500640869140625</LongitudeDegrees>
            </Position>
            <AltitudeMeters>1630.4000244140625</AltitudeMeters>
            <DistanceMeters>6573.4828362156</DistanceMeters>
          </Trackpoint>
          <Trackpoint>
            <Time>2022-08-20T12:15:39.000Z</Time>
            <Position>
              <LatitudeDegrees>42.81751091592013835906982421875</LatitudeDegrees>
              <LongitudeDegrees>-0.33682082779705524444580078125</LongitudeDegrees>
            </Position>
            <AltitudeMeters>1631.4000244140625</AltitudeMeters>
            <DistanceMeters>6579.0270566491</DistanceMeters>
          </Trackpoint>
          <Trackpoint>
            <Time>2022-08-20T12:15:43.000Z</Time>
            <Position>
              <LatitudeDegrees>42.81753958202898502349853515625</LatitudeDegrees>
              <LongitudeDegrees>-0.33682535402476787567138671875</LongitudeDegrees>
            </Position>
            <AltitudeMeters>1632.4000244140625</AltitudeMeters>
            <DistanceMeters>6582.2383410182</DistanceMeters>
          </Trackpoint>
          <Trackpoint>
            <Time>2022-08-20T12:15:46.000Z</Time>
            <Position>
              <LatitudeDegrees>42.817557938396930694580078125</LatitudeDegrees>
              <LongitudeDegrees>-0.33682149834930896759033203125</LongitudeDegrees>
            </Position>
            <AltitudeMeters>1632.800048828125</AltitudeMeters>
            <DistanceMeters>6584.3072190316</DistanceMeters>
          </Trackpoint>
          <Trackpoint>
            <Time>2022-08-20T12:15:53.000Z</Time>
            <Position>
              <LatitudeDegrees>42.8175953216850757598876953125</LatitudeDegrees>
              <LongitudeDegrees>-0.33677606843411922454833984375</LongitudeDegrees>
            </Position>
            <AltitudeMeters>1634</AltitudeMeters>
            <DistanceMeters>6589.8814896605</DistanceMeters>
          </Trackpoint>
          <Trackpoint>
            <Time>2022-08-20T12:16:01.000Z</Time>
            <Position>
              <LatitudeDegrees>42.817631699144840240478515625</LatitudeDegrees>
              <LongitudeDegrees>-0.336737595498561859130859375</LongitudeDegrees>
            </Position>
            <AltitudeMeters>1635.5999755859375</AltitudeMeters>
            <DistanceMeters>6595.0058883861</DistanceMeters>
          </Trackpoint>
          <Trackpoint>
            <Time>2022-08-20T12:16:19.000Z</Time>
            <Position>
              <LatitudeDegrees>42.8177560865879058837890625</LatitudeDegrees>
              <LongitudeDegrees>-0.33667347393929958343505859375</LongitudeDegrees>
            </Position>
            <AltitudeMeters>1641.5999755859375</AltitudeMeters>
            <DistanceMeters>6609.8071952408</DistanceMeters>
          </Trackpoint>
          <Trackpoint>
            <Time>2022-08-20T12:16:33.000Z</Time>
            <Position>
              <LatitudeDegrees>42.817814759910106658935546875</LatitudeDegrees>
              <LongitudeDegrees>-0.336630642414093017578125</LongitudeDegrees>
            </Position>
            <AltitudeMeters>1644.4000244140625</AltitudeMeters>
            <DistanceMeters>6617.2144041938</DistanceMeters>
          </Trackpoint>
          <Trackpoint>
            <Time>2022-08-20T12:16:38.000Z</Time>
            <Position>
              <LatitudeDegrees>42.81787251122295856475830078125</LatitudeDegrees>
              <LongitudeDegrees>-0.33661413006484508514404296875</LongitudeDegrees>
            </Position>
            <AltitudeMeters>1647.199951171875</AltitudeMeters>
            <DistanceMeters>6623.7815683532</DistanceMeters>
          </Trackpoint>
          <Trackpoint>
            <Time>2022-08-20T12:16:42.000Z</Time>
            <Position>
              <LatitudeDegrees>42.81790302135050296783447265625</LatitudeDegrees>
              <LongitudeDegrees>-0.3365768305957317352294921875</LongitudeDegrees>
            </Position>
            <AltitudeMeters>1648.4000244140625</AltitudeMeters>
            <DistanceMeters>6628.3428506429</DistanceMeters>
          </Trackpoint>
          <Trackpoint>
            <Time>2022-08-20T12:16:45.000Z</Time>
            <Position>
              <LatitudeDegrees>42.81791307963430881500244140625</LatitudeDegrees>
              <LongitudeDegrees>-0.3365354239940643310546875</LongitudeDegrees>
            </Position>
            <AltitudeMeters>1648.5999755859375</AltitudeMeters>
            <DistanceMeters>6631.9035004891</DistanceMeters>
          </Trackpoint>
          <Trackpoint>
            <Time>2022-08-20T12:16:48.000Z</Time>
            <Position>
              <LatitudeDegrees>42.81791442073881626129150390625</LatitudeDegrees>
              <LongitudeDegrees>-0.3364913351833820343017578125</LongitudeDegrees>
            </Position>
            <AltitudeMeters>1648.4000244140625</AltitudeMeters>
            <DistanceMeters>6635.5070057169</DistanceMeters>
          </Trackpoint>
          <Trackpoint>
            <Time>2022-08-20T12:16:56.000Z</Time>
            <Position>
              <LatitudeDegrees>42.81792984344065189361572265625</LatitudeDegrees>
              <LongitudeDegrees>-0.33644163049757480621337890625</LongitudeDegrees>
            </Position>
            <AltitudeMeters>1648.800048828125</AltitudeMeters>
            <DistanceMeters>6639.911163321</DistanceMeters>
          </Trackpoint>
          <Trackpoint>
            <Time>2022-08-20T12:16:59.000Z</Time>
            <Position>
              <LatitudeDegrees>42.81793504022061824798583984375</LatitudeDegrees>
              <LongitudeDegrees>-0.33641447313129901885986328125</LongitudeDegrees>
            </Position>
            <AltitudeMeters>1649</AltitudeMeters>
            <DistanceMeters>6642.203652032</DistanceMeters>
          </Trackpoint>
          <Trackpoint>
            <Time>2022-08-20T12:17:07.000Z</Time>
            <Position>
              <LatitudeDegrees>42.81801517121493816375732421875</LatitudeDegrees>
              <LongitudeDegrees>-0.33637021668255329132080078125</LongitudeDegrees>
            </Position>
            <AltitudeMeters>1652</AltitudeMeters>
            <DistanceMeters>6651.8267198346</DistanceMeters>
          </Trackpoint>
          <Trackpoint>
            <Time>2022-08-20T12:17:09.000Z</Time>
            <Position>
              <LatitudeDegrees>42.81804065220057964324951171875</LatitudeDegrees>
              <LongitudeDegrees>-0.3363575600087642669677734375</LongitudeDegrees>
            </Position>
            <AltitudeMeters>1653</AltitudeMeters>
            <DistanceMeters>6654.8467160612</DistanceMeters>
          </Trackpoint>
          <Trackpoint>
            <Time>2022-08-20T12:17:13.000Z</Time>
            <Position>
              <LatitudeDegrees>42.818105109035968780517578125</LatitudeDegrees>
              <LongitudeDegrees>-0.33634255640208721160888671875</LongitudeDegrees>
            </Position>
            <AltitudeMeters>1655.4000244140625</AltitudeMeters>
            <DistanceMeters>6662.1247946826</DistanceMeters>
          </Trackpoint>
          <Trackpoint>
            <Time>2022-08-20T12:17:17.000Z</Time>
            <Position>
              <LatitudeDegrees>42.81813972629606723785400390625</LatitudeDegrees>
              <LongitudeDegrees>-0.336333252489566802978515625</LongitudeDegrees>
            </Position>
            <AltitudeMeters>1656.800048828125</AltitudeMeters>
            <DistanceMeters>6666.0520546137</DistanceMeters>
          </Trackpoint>
          <Trackpoint>
            <Time>2022-08-20T12:17:19.000Z</Time>
            <Position>
              <LatitudeDegrees>42.81816755421459674835205078125</LatitudeDegrees>
              <LongitudeDegrees>-0.336326546967029571533203125</LongitudeDegrees>
            </Position>
            <AltitudeMeters>1657.199951171875</AltitudeMeters>
            <DistanceMeters>6669.1965631136</DistanceMeters>
          </Trackpoint>
          <Trackpoint>
            <Time>2022-08-20T12:17:22.000Z</Time>
            <Position>
              <LatitudeDegrees>42.81820334494113922119140625</LatitudeDegrees>
              <LongitudeDegrees>-0.3363253735005855560302734375</LongitudeDegrees>
            </Position>
            <AltitudeMeters>1658.199951171875</AltitudeMeters>
            <DistanceMeters>6673.1808917131</DistanceMeters>
          </Trackpoint>
          <Trackpoint>
            <Time>2022-08-20T12:17:38.000Z</Time>
            <Position>
              <LatitudeDegrees>42.81837944872677326202392578125</LatitudeDegrees>
              <LongitudeDegrees>-0.33628254197537899017333984375</LongitudeDegrees>
            </Position>
            <AltitudeMeters>1662</AltitudeMeters>
            <DistanceMeters>6693.091199493</DistanceMeters>
          </Trackpoint>
          <Trackpoint>
            <Time>2022-08-20T12:17:44.000Z</Time>
            <Position>
              <LatitudeDegrees>42.81842865049839019775390625</LatitudeDegrees>
              <LongitudeDegrees>-0.3362459130585193634033203125</LongitudeDegrees>
            </Position>
            <AltitudeMeters>1662.4000244140625</AltitudeMeters>
            <DistanceMeters>6699.3312066746</DistanceMeters>
          </Trackpoint>
          <Trackpoint>
            <Time>2022-08-20T12:17:51.000Z</Time>
            <Position>
              <LatitudeDegrees>42.81847852282226085662841796875</LatitudeDegrees>
              <LongitudeDegrees>-0.3361979685723781585693359375</LongitudeDegrees>
            </Position>
            <AltitudeMeters>1662.5999755859375</AltitudeMeters>
            <DistanceMeters>6706.1227919443</DistanceMeters>
          </Trackpoint>
          <Trackpoint>
            <Time>2022-08-20T12:17:54.000Z</Time>
            <Position>
              <LatitudeDegrees>42.81850484199821949005126953125</LatitudeDegrees>
              <LongitudeDegrees>-0.33617676235735416412353515625</LongitudeDegrees>
            </Position>
            <AltitudeMeters>1662.800048828125</AltitudeMeters>
            <DistanceMeters>6709.5265528169</DistanceMeters>
          </Trackpoint>
          <Trackpoint>
            <Time>2022-08-20T12:17:56.000Z</Time>
            <Position>
              <LatitudeDegrees>42.81851875595748424530029296875</LatitudeDegrees>
              <LongitudeDegrees>-0.3361641056835651397705078125</LongitudeDegrees>
            </Position>
            <AltitudeMeters>1663</AltitudeMeters>
            <DistanceMeters>6711.388688514</DistanceMeters>
          </Trackpoint>
          <Trackpoint>
            <Time>2022-08-20T12:17:59.000Z</Time>
            <Position>
              <LatitudeDegrees>42.81853551976382732391357421875</LatitudeDegrees>
              <LongitudeDegrees>-0.3361483477056026458740234375</LongitudeDegrees>
            </Position>
            <AltitudeMeters>1663</AltitudeMeters>
            <DistanceMeters>6713.6534364956</DistanceMeters>
          </Trackpoint>
          <Trackpoint>
            <Time>2022-08-20T12:18:00.000Z</Time>
            <Position>
              <LatitudeDegrees>42.818545661866664886474609375</LatitudeDegrees>
              <LongitudeDegrees>-0.33614105544984340667724609375</LongitudeDegrees>
            </Position>
            <AltitudeMeters>1663.199951171875</AltitudeMeters>
            <DistanceMeters>6714.9283536536</DistanceMeters>
          </Trackpoint>
          <Trackpoint>
            <Time>2022-08-20T12:18:02.000Z</Time>
            <Position>
              <LatitudeDegrees>42.81856284476816654205322265625</LatitudeDegrees>
              <LongitudeDegrees>-0.336120016872882843017578125</LongitudeDegrees>
            </Position>
            <AltitudeMeters>1663.199951171875</AltitudeMeters>
            <DistanceMeters>6717.4993487833</DistanceMeters>
          </Trackpoint>
          <Trackpoint>
            <Time>2022-08-20T12:18:05.000Z</Time>
            <Position>
              <LatitudeDegrees>42.81857348978519439697265625</LatitudeDegrees>
              <LongitudeDegrees>-0.33609084784984588623046875</LongitudeDegrees>
            </Position>
            <AltitudeMeters>1662.5999755859375</AltitudeMeters>
            <DistanceMeters>6720.1600967857</DistanceMeters>
          </Trackpoint>
          <Trackpoint>
            <Time>2022-08-20T12:18:08.000Z</Time>
            <Position>
              <LatitudeDegrees>42.818599306046962738037109375</LatitudeDegrees>
              <LongitudeDegrees>-0.33605237491428852081298828125</LongitudeDegrees>
            </Position>
            <AltitudeMeters>1662.4000244140625</AltitudeMeters>
            <DistanceMeters>6724.4161904579</DistanceMeters>
          </Trackpoint>
          <Trackpoint>
            <Time>2022-08-20T12:18:13.000Z</Time>
            <Position>
              <LatitudeDegrees>42.8186273016035556793212890625</LatitudeDegrees>
              <LongitudeDegrees>-0.3360420651733875274658203125</LongitudeDegrees>
            </Position>
            <AltitudeMeters>1663</AltitudeMeters>
            <DistanceMeters>6727.6443026332</DistanceMeters>
          </Trackpoint>
          <Trackpoint>
            <Time>2022-08-20T12:18:16.000Z</Time>
            <Position>
              <LatitudeDegrees>42.81865839846432209014892578125</LatitudeDegrees>
              <LongitudeDegrees>-0.33604365773499011993408203125</LongitudeDegrees>
            </Position>
            <AltitudeMeters>1664.199951171875</AltitudeMeters>
            <DistanceMeters>6731.108544483</DistanceMeters>
          </Trackpoint>
          <Trackpoint>
            <Time>2022-08-20T12:18:24.000Z</Time>
            <Position>
              <LatitudeDegrees>42.81870366074144840240478515625</LatitudeDegrees>
              <LongitudeDegrees>-0.33605254255235195159912109375</LongitudeDegrees>
            </Position>
            <AltitudeMeters>1665.800048828125</AltitudeMeters>
            <DistanceMeters>6736.1975777155</DistanceMeters>
          </Trackpoint>
          <Trackpoint>
            <Time>2022-08-20T12:18:27.000Z</Time>
            <Position>
              <LatitudeDegrees>42.8187265433371067047119140625</LatitudeDegrees>
              <LongitudeDegrees>-0.33603862859308719635009765625</LongitudeDegrees>
            </Position>
            <AltitudeMeters>1666.4000244140625</AltitudeMeters>
            <DistanceMeters>6738.9843080113</DistanceMeters>
          </Trackpoint>
          <Trackpoint>
            <Time>2022-08-20T12:18:30.000Z</Time>
            <Position>
              <LatitudeDegrees>42.81875797547399997711181640625</LatitudeDegrees>
              <LongitudeDegrees>-0.3360360302031040191650390625</LongitudeDegrees>
            </Position>
            <AltitudeMeters>1668.4000244140625</AltitudeMeters>
            <DistanceMeters>6742.4887200824</DistanceMeters>
          </Trackpoint>
          <Trackpoint>
            <Time>2022-08-20T12:18:36.000Z</Time>
            <Position>
              <LatitudeDegrees>42.8188060037791728973388671875</LatitudeDegrees>
              <LongitudeDegrees>-0.33601935021579265594482421875</LongitudeDegrees>
            </Position>
            <AltitudeMeters>1670.800048828125</AltitudeMeters>
            <DistanceMeters>6748.0060009066</DistanceMeters>
          </Trackpoint>
          <Trackpoint>
            <Time>2022-08-20T12:18:38.000Z</Time>
            <Position>
              <LatitudeDegrees>42.81883190385997295379638671875</LatitudeDegrees>
              <LongitudeDegrees>-0.336007364094257354736328125</LongitudeDegrees>
            </Position>
            <AltitudeMeters>1672</AltitudeMeters>
            <DistanceMeters>6751.0498239026</DistanceMeters>
          </Trackpoint>
          <Trackpoint>
            <Time>2022-08-20T12:18:42.000Z</Time>
            <Position>
              <LatitudeDegrees>42.81886962242424488067626953125</LatitudeDegrees>
              <LongitudeDegrees>-0.33595782704651355743408203125</LongitudeDegrees>
            </Position>
            <AltitudeMeters>1671.800048828125</AltitudeMeters>
            <DistanceMeters>6756.879850295</DistanceMeters>
          </Trackpoint>
          <Trackpoint>
            <Time>2022-08-20T12:18:44.000Z</Time>
            <Position>
              <LatitudeDegrees>42.81889091245830059051513671875</LatitudeDegrees>
              <LongitudeDegrees>-0.33593804575502872467041015625</LongitudeDegrees>
            </Position>
            <AltitudeMeters>1672.199951171875</AltitudeMeters>
            <DistanceMeters>6759.7495941366</DistanceMeters>
          </Trackpoint>
          <Trackpoint>
            <Time>2022-08-20T12:18:46.000Z</Time>
            <Position>
              <LatitudeDegrees>42.8189280442893505096435546875</LatitudeDegrees>
              <LongitudeDegrees>-0.335934944450855255126953125</LongitudeDegrees>
            </Position>
            <AltitudeMeters>1674.5999755859375</AltitudeMeters>
            <DistanceMeters>6763.8906224108</DistanceMeters>
          </Trackpoint>
          <Trackpoint>
            <Time>2022-08-20T12:18:47.000Z</Time>
            <Position>
              <LatitudeDegrees>42.8189595602452754974365234375</LatitudeDegrees>
              <LongitudeDegrees>-0.335920192301273345947265625</LongitudeDegrees>
            </Position>
            <AltitudeMeters>1676</AltitudeMeters>
            <DistanceMeters>6767.6003173444</DistanceMeters>
          </Trackpoint>
          <Trackpoint>
            <Time>2022-08-20T12:18:51.000Z</Time>
            <Position>
              <LatitudeDegrees>42.81901211477816104888916015625</LatitudeDegrees>
              <LongitudeDegrees>-0.33587987534701824188232421875</LongitudeDegrees>
            </Position>
            <AltitudeMeters>1678.800048828125</AltitudeMeters>
            <DistanceMeters>6774.311652629</DistanceMeters>
          </Trackpoint>
          <Trackpoint>
            <Time>2022-08-20T12:18:53.000Z</Time>
            <Position>
              <LatitudeDegrees>42.81902007758617401123046875</LatitudeDegrees>
              <LongitudeDegrees>-0.33583796583116054534912109375</LongitudeDegrees>
            </Position>
            <AltitudeMeters>1677.4000244140625</AltitudeMeters>
            <DistanceMeters>6777.8468507562</DistanceMeters>
          </Trackpoint>
          <Trackpoint>
            <Time>2022-08-20T12:18:59.000Z</Time>
            <Position>
              <LatitudeDegrees>42.81904597766697406768798828125</LatitudeDegrees>
              <LongitudeDegrees>-0.33572648651897907257080078125</LongitudeDegrees>
            </Position>
            <AltitudeMeters>1674.199951171875</AltitudeMeters>
            <DistanceMeters>6787.3940802824</DistanceMeters>
          </Trackpoint>
          <Trackpoint>
            <Time>2022-08-20T12:19:00.000Z</Time>
            <Position>
              <LatitudeDegrees>42.8190500847995281219482421875</LatitudeDegrees>
              <LongitudeDegrees>-0.3357148356735706329345703125</LongitudeDegrees>
            </Position>
            <AltitudeMeters>1674</AltitudeMeters>
            <DistanceMeters>6788.4522529899</DistanceMeters>
          </Trackpoint>
          <Trackpoint>
            <Time>2022-08-20T12:19:03.000Z</Time>
            <Position>
              <LatitudeDegrees>42.81907497905194759368896484375</LatitudeDegrees>
              <LongitudeDegrees>-0.33566647209227085113525390625</LongitudeDegrees>
            </Position>
            <AltitudeMeters>1674.800048828125</AltitudeMeters>
            <DistanceMeters>6793.27714025</DistanceMeters>
          </Trackpoint>
          <Trackpoint>
            <Time>2022-08-20T12:19:06.000Z</Time>
            <Position>
              <LatitudeDegrees>42.8191027231514453887939453125</LatitudeDegrees>
              <LongitudeDegrees>-0.3356414102017879486083984375</LongitudeDegrees>
            </Position>
            <AltitudeMeters>1676.4000244140625</AltitudeMeters>
            <DistanceMeters>6796.9819636189</DistanceMeters>
          </Trackpoint>
          <Trackpoint>
            <Time>2022-08-20T12:19:10.000Z</Time>
            <Position>
              <LatitudeDegrees>42.81914002262055873870849609375</LatitudeDegrees>
              <LongitudeDegrees>-0.33560268580913543701171875</LongitudeDegrees>
            </Position>
            <AltitudeMeters>1678.199951171875</AltitudeMeters>
            <DistanceMeters>6802.2006522047</DistanceMeters>
          </Trackpoint>
          <Trackpoint>
            <Time>2022-08-20T12:19:17.000Z</Time>
            <Position>
              <LatitudeDegrees>42.8191650845110416412353515625</LatitudeDegrees>
              <LongitudeDegrees>-0.3355418331921100616455078125</LongitudeDegrees>
            </Position>
            <AltitudeMeters>1678.800048828125</AltitudeMeters>
            <DistanceMeters>6807.8975017498</DistanceMeters>
          </Trackpoint>
          <Trackpoint>
            <Time>2022-08-20T12:19:19.000Z</Time>
            <Position>
              <LatitudeDegrees>42.81916734762489795684814453125</LatitudeDegrees>
              <LongitudeDegrees>-0.3355307690799236297607421875</LongitudeDegrees>
            </Position>
            <AltitudeMeters>1678.800048828125</AltitudeMeters>
            <DistanceMeters>6808.833406347</DistanceMeters>
          </Trackpoint>
          <Trackpoint>
            <Time>2022-08-20T12:19:22.000Z</Time>
            <Position>
              <LatitudeDegrees>42.8191902302205562591552734375</LatitudeDegrees>
              <LongitudeDegrees>-0.33548642881214618682861328125</LongitudeDegrees>
            </Position>
            <AltitudeMeters>1679.5999755859375</AltitudeMeters>
            <DistanceMeters>6813.259040291</DistanceMeters>
          </Trackpoint>
          <Trackpoint>
            <Time>2022-08-20T12:19:25.000Z</Time>
            <Position>
              <LatitudeDegrees>42.81920976005494594573974609375</LatitudeDegrees>
              <LongitudeDegrees>-0.33542641438543796539306640625</LongitudeDegrees>
            </Position>
            <AltitudeMeters>1680</AltitudeMeters>
            <DistanceMeters>6818.6194230427</DistanceMeters>
          </Trackpoint>
          <Trackpoint>
            <Time>2022-08-20T12:19:27.000Z</Time>
            <Position>
              <LatitudeDegrees>42.8192160464823246002197265625</LatitudeDegrees>
              <LongitudeDegrees>-0.33539975993335247039794921875</LongitudeDegrees>
            </Position>
            <AltitudeMeters>1680</AltitudeMeters>
            <DistanceMeters>6820.9079693799</DistanceMeters>
          </Trackpoint>
          <Trackpoint>
            <Time>2022-08-20T12:19:29.000Z</Time>
            <Position>
              <LatitudeDegrees>42.81922987662255764007568359375</LatitudeDegrees>
              <LongitudeDegrees>-0.3353695012629032135009765625</LongitudeDegrees>
            </Position>
            <AltitudeMeters>1680.5999755859375</AltitudeMeters>
            <DistanceMeters>6823.819883146</DistanceMeters>
          </Trackpoint>
          <Trackpoint>
            <Time>2022-08-20T12:19:31.000Z</Time>
            <Position>
              <LatitudeDegrees>42.819243036210536956787109375</LatitudeDegrees>
              <LongitudeDegrees>-0.3353472054004669189453125</LongitudeDegrees>
            </Position>
            <AltitudeMeters>1681.199951171875</AltitudeMeters>
            <DistanceMeters>6826.1572312691</DistanceMeters>
          </Trackpoint>
          <Trackpoint>
            <Time>2022-08-20T12:19:33.000Z</Time>
            <Position>
              <LatitudeDegrees>42.8192515857517719268798828125</LatitudeDegrees>
              <LongitudeDegrees>-0.335309319198131561279296875</LongitudeDegrees>
            </Position>
            <AltitudeMeters>1681.199951171875</AltitudeMeters>
            <DistanceMeters>6829.3923291963</DistanceMeters>
          </Trackpoint>
          <Trackpoint>
            <Time>2022-08-20T12:19:47.000Z</Time>
            <Position>
              <LatitudeDegrees>42.81938561238348484039306640625</LatitudeDegrees>
              <LongitudeDegrees>-0.3351200558245182037353515625</LongitudeDegrees>
            </Position>
            <AltitudeMeters>1678</AltitudeMeters>
            <DistanceMeters>6850.8694177986</DistanceMeters>
          </Trackpoint>
          <Trackpoint>
            <Time>2022-08-20T12:20:04.000Z</Time>
            <Position>
              <LatitudeDegrees>42.81949273310601711273193359375</LatitudeDegrees>
              <LongitudeDegrees>-0.3349046409130096435546875</LongitudeDegrees>
            </Position>
            <AltitudeMeters>1669</AltitudeMeters>
            <DistanceMeters>6872.1163371421</DistanceMeters>
          </Trackpoint>
          <Trackpoint>
            <Time>2022-08-20T12:20:06.000Z</Time>
            <Position>
              <LatitudeDegrees>42.81952089630067348480224609375</LatitudeDegrees>
              <LongitudeDegrees>-0.3348877094686031341552734375</LongitudeDegrees>
            </Position>
            <AltitudeMeters>1669</AltitudeMeters>
            <DistanceMeters>6875.5412560171</DistanceMeters>
          </Trackpoint>
          <Trackpoint>
            <Time>2022-08-20T12:20:19.000Z</Time>
            <Position>
              <LatitudeDegrees>42.81958476640284061431884765625</LatitudeDegrees>
              <LongitudeDegrees>-0.3346409462392330169677734375</LongitudeDegrees>
            </Position>
            <AltitudeMeters>1662.800048828125</AltitudeMeters>
            <DistanceMeters>6896.9043097192</DistanceMeters>
          </Trackpoint>
          <Trackpoint>
            <Time>2022-08-20T12:20:20.000Z</Time>
            <Position>
              <LatitudeDegrees>42.81958476640284061431884765625</LatitudeDegrees>
              <LongitudeDegrees>-0.334622673690319061279296875</LongitudeDegrees>
            </Position>
            <AltitudeMeters>1662.5999755859375</AltitudeMeters>
            <DistanceMeters>6898.3947454962</DistanceMeters>
          </Trackpoint>
          <Trackpoint>
            <Time>2022-08-20T12:20:35.000Z</Time>
            <Position>
              <LatitudeDegrees>42.8196565993130207061767578125</LatitudeDegrees>
              <LongitudeDegrees>-0.33441320993006229400634765625</LongitudeDegrees>
            </Position>
            <AltitudeMeters>1666.5999755859375</AltitudeMeters>
            <DistanceMeters>6917.2723231158</DistanceMeters>
          </Trackpoint>
          <Trackpoint>
            <Time>2022-08-20T12:20:42.000Z</Time>
            <Position>
              <LatitudeDegrees>42.81972206197679042816162109375</LatitudeDegrees>
              <LongitudeDegrees>-0.33432167954742908477783203125</LongitudeDegrees>
            </Position>
            <AltitudeMeters>1665.800048828125</AltitudeMeters>
            <DistanceMeters>6927.7092676947</DistanceMeters>
          </Trackpoint>
          <Trackpoint>
            <Time>2022-08-20T12:20:45.000Z</Time>
            <Position>
              <LatitudeDegrees>42.81974402256309986114501953125</LatitudeDegrees>
              <LongitudeDegrees>-0.33428932540118694305419921875</LongitudeDegrees>
            </Position>
            <AltitudeMeters>1665.199951171875</AltitudeMeters>
            <DistanceMeters>6931.3077576031</DistanceMeters>
          </Trackpoint>
          <Trackpoint>
            <Time>2022-08-20T12:20:57.000Z</Time>
            <Position>
              <LatitudeDegrees>42.8198882751166820526123046875</LatitudeDegrees>
              <LongitudeDegrees>-0.334108360111713409423828125</LongitudeDegrees>
            </Position>
            <AltitudeMeters>1664.4000244140625</AltitudeMeters>
            <DistanceMeters>6953.1262719882</DistanceMeters>
          </Trackpoint>
          <Trackpoint>
            <Time>2022-08-20T12:21:05.000Z</Time>
            <Position>
              <LatitudeDegrees>42.81993345357477664947509765625</LatitudeDegrees>
              <LongitudeDegrees>-0.33400635235011577606201171875</LongitudeDegrees>
            </Position>
            <AltitudeMeters>1664.800048828125</AltitudeMeters>
            <DistanceMeters>6962.8543345462</DistanceMeters>
          </Trackpoint>
          <Trackpoint>
            <Time>2022-08-20T12:21:09.000Z</Time>
            <Position>
              <LatitudeDegrees>42.81997201032936573028564453125</LatitudeDegrees>
              <LongitudeDegrees>-0.33396779559552669525146484375</LongitudeDegrees>
            </Position>
            <AltitudeMeters>1665.5999755859375</AltitudeMeters>
            <DistanceMeters>6968.1758305509</DistanceMeters>
          </Trackpoint>
          <Trackpoint>
            <Time>2022-08-20T12:21:21.000Z</Time>
            <Position>
              <LatitudeDegrees>42.8200981579720973968505859375</LatitudeDegrees>
              <LongitudeDegrees>-0.33383720554411411285400390625</LongitudeDegrees>
            </Position>
            <AltitudeMeters>1668.4000244140625</AltitudeMeters>
            <DistanceMeters>6985.8050149045</DistanceMeters>
          </Trackpoint>
          <Trackpoint>
            <Time>2022-08-20T12:21:29.000Z</Time>
            <Position>
              <LatitudeDegrees>42.8201611898839473724365234375</LatitudeDegrees>
              <LongitudeDegrees>-0.33376093022525310516357421875</LongitudeDegrees>
            </Position>
            <AltitudeMeters>1669.4000244140625</AltitudeMeters>
            <DistanceMeters>6995.1852635616</DistanceMeters>
          </Trackpoint>
          <Trackpoint>
            <Time>2022-08-20T12:21:34.000Z</Time>
            <Position>
              <LatitudeDegrees>42.82016831450164318084716796875</LatitudeDegrees>
              <LongitudeDegrees>-0.3337021730840206146240234375</LongitudeDegrees>
            </Position>
            <AltitudeMeters>1668.4000244140625</AltitudeMeters>
            <DistanceMeters>7000.0474379857</DistanceMeters>
          </Trackpoint>
          <Trackpoint>
            <Time>2022-08-20T12:21:49.000Z</Time>
            <Position>
              <LatitudeDegrees>42.82028448767960071563720703125</LatitudeDegrees>
              <LongitudeDegrees>-0.3335174359381198883056640625</LongitudeDegrees>
            </Position>
            <AltitudeMeters>1668.199951171875</AltitudeMeters>
            <DistanceMeters>7019.9132493436</DistanceMeters>
          </Trackpoint>
          <Trackpoint>
            <Time>2022-08-20T12:21:55.000Z</Time>
            <Position>
              <LatitudeDegrees>42.82032153569161891937255859375</LatitudeDegrees>
              <LongitudeDegrees>-0.33345214091241359710693359375</LongitudeDegrees>
            </Position>
            <AltitudeMeters>1666.800048828125</AltitudeMeters>
            <DistanceMeters>7026.6527808194</DistanceMeters>
          </Trackpoint>
          <Trackpoint>
            <Time>2022-08-20T12:22:05.000Z</Time>
            <Position>
              <LatitudeDegrees>42.8203791193664073944091796875</LatitudeDegrees>
              <LongitudeDegrees>-0.33335256390273571014404296875</LongitudeDegrees>
            </Position>
            <AltitudeMeters>1664.5999755859375</AltitudeMeters>
            <DistanceMeters>7037.0050244041</DistanceMeters>
          </Trackpoint>
          <Trackpoint>
            <Time>2022-08-20T12:22:09.000Z</Time>
            <Position>
              <LatitudeDegrees>42.820396386086940765380859375</LatitudeDegrees>
              <LongitudeDegrees>-0.33328391611576080322265625</LongitudeDegrees>
            </Position>
            <AltitudeMeters>1662</AltitudeMeters>
            <DistanceMeters>7042.9295418644</DistanceMeters>
          </Trackpoint>
          <Trackpoint>
            <Time>2022-08-20T12:22:24.000Z</Time>
            <Position>
              <LatitudeDegrees>42.820514403283596038818359375</LatitudeDegrees>
              <LongitudeDegrees>-0.33309373073279857635498046875</LongitudeDegrees>
            </Position>
            <AltitudeMeters>1660.4000244140625</AltitudeMeters>
            <DistanceMeters>7063.2670348623</DistanceMeters>
          </Trackpoint>
          <Trackpoint>
            <Time>2022-08-20T12:22:33.000Z</Time>
            <Position>
              <LatitudeDegrees>42.82058170996606349945068359375</LatitudeDegrees>
              <LongitudeDegrees>-0.33299624919891357421875</LongitudeDegrees>
            </Position>
            <AltitudeMeters>1660</AltitudeMeters>
            <DistanceMeters>7074.1963464234</DistanceMeters>
          </Trackpoint>
          <Trackpoint>
            <Time>2022-08-20T12:22:35.000Z</Time>
            <Position>
              <LatitudeDegrees>42.8205940313637256622314453125</LatitudeDegrees>
              <LongitudeDegrees>-0.33297185786068439483642578125</LongitudeDegrees>
            </Position>
            <AltitudeMeters>1659.800048828125</AltitudeMeters>
            <DistanceMeters>7076.6153316519</DistanceMeters>
          </Trackpoint>
          <Trackpoint>
            <Time>2022-08-20T12:22:38.000Z</Time>
            <Position>
              <LatitudeDegrees>42.82060886733233928680419921875</LatitudeDegrees>
              <LongitudeDegrees>-0.33294671215116977691650390625</LongitudeDegrees>
            </Position>
            <AltitudeMeters>1659.5999755859375</AltitudeMeters>
            <DistanceMeters>7079.2487892098</DistanceMeters>
          </Trackpoint>
          <Trackpoint>
            <Time>2022-08-20T12:22:40.000Z</Time>
            <Position>
              <LatitudeDegrees>42.8206262178719043731689453125</LatitudeDegrees>
              <LongitudeDegrees>-0.33292039297521114349365234375</LongitudeDegrees>
            </Position>
            <AltitudeMeters>1659.4000244140625</AltitudeMeters>
            <DistanceMeters>7082.1373512455</DistanceMeters>
          </Trackpoint>
          <Trackpoint>
            <Time>2022-08-20T12:22:50.000Z</Time>
            <Position>
              <LatitudeDegrees>42.82073996029794216156005859375</LatitudeDegrees>
              <LongitudeDegrees>-0.33277270384132862091064453125</LongitudeDegrees>
            </Position>
            <AltitudeMeters>1660.4000244140625</AltitudeMeters>
            <DistanceMeters>7099.6202007694</DistanceMeters>
          </Trackpoint>
          <Trackpoint>
            <Time>2022-08-20T12:22:58.000Z</Time>
            <Position>
              <LatitudeDegrees>42.8208267129957675933837890625</LatitudeDegrees>
              <LongitudeDegrees>-0.33266357146203517913818359375</LongitudeDegrees>
            </Position>
            <AltitudeMeters>1661.800048828125</AltitudeMeters>
            <DistanceMeters>7112.7586535437</DistanceMeters>
          </Trackpoint>
          <Trackpoint>
            <Time>2022-08-20T12:23:02.000Z</Time>
            <Position>
              <LatitudeDegrees>42.82086669467389583587646484375</LatitudeDegrees>
              <LongitudeDegrees>-0.33263373188674449920654296875</LongitudeDegrees>
            </Position>
            <AltitudeMeters>1662.5999755859375</AltitudeMeters>
            <DistanceMeters>7117.8316918705</DistanceMeters>
          </Trackpoint>
          <Trackpoint>
            <Time>2022-08-20T12:23:07.000Z</Time>
            <Position>
              <LatitudeDegrees>42.8208682872354984283447265625</LatitudeDegrees>
              <LongitudeDegrees>-0.33258008770644664764404296875</LongitudeDegrees>
            </Position>
            <AltitudeMeters>1662.4000244140625</AltitudeMeters>
            <DistanceMeters>7122.215297997</DistanceMeters>
          </Trackpoint>
          <Trackpoint>
            <Time>2022-08-20T12:23:12.000Z</Time>
            <Position>
              <LatitudeDegrees>42.820869795978069305419921875</LatitudeDegrees>
              <LongitudeDegrees>-0.33251437358558177947998046875</LongitudeDegrees>
            </Position>
            <AltitudeMeters>1662</AltitudeMeters>
            <DistanceMeters>7127.5824149006</DistanceMeters>
          </Trackpoint>
          <Trackpoint>
            <Time>2022-08-20T12:23:14.000Z</Time>
            <Position>
              <LatitudeDegrees>42.82086585648357868194580078125</LatitudeDegrees>
              <LongitudeDegrees>-0.33247984014451503753662109375</LongitudeDegrees>
            </Position>
            <AltitudeMeters>1661.800048828125</AltitudeMeters>
            <DistanceMeters>7130.436382131</DistanceMeters>
          </Trackpoint>
          <Trackpoint>
            <Time>2022-08-20T12:23:23.000Z</Time>
            <Position>
              <LatitudeDegrees>42.82085604965686798095703125</LatitudeDegrees>
              <LongitudeDegrees>-0.33234891481697559356689453125</LongitudeDegrees>
            </Position>
            <AltitudeMeters>1661.800048828125</AltitudeMeters>
            <DistanceMeters>7141.1811263037</DistanceMeters>
          </Trackpoint>
          <Trackpoint>
            <Time>2022-08-20T12:23:35.000Z</Time>
            <Position>
              <LatitudeDegrees>42.82099594362080097198486328125</LatitudeDegrees>
              <LongitudeDegrees>-0.33216585405170917510986328125</LongitudeDegrees>
            </Position>
            <AltitudeMeters>1664.800048828125</AltitudeMeters>
            <DistanceMeters>7162.7630718382</DistanceMeters>
          </Trackpoint>
          <Trackpoint>
            <Time>2022-08-20T12:23:36.000Z</Time>
            <Position>
              <LatitudeDegrees>42.82099342904984951019287109375</LatitudeDegrees>
              <LongitudeDegrees>-0.33215277828276157379150390625</LongitudeDegrees>
            </Position>
            <AltitudeMeters>1664.5999755859375</AltitudeMeters>
            <DistanceMeters>7163.8630855852</DistanceMeters>
          </Trackpoint>
          <Trackpoint>
            <Time>2022-08-20T12:23:45.000Z</Time>
            <Position>
              <LatitudeDegrees>42.82100818119943141937255859375</LatitudeDegrees>
              <LongitudeDegrees>-0.332015566527843475341796875</LongitudeDegrees>
            </Position>
            <AltitudeMeters>1664.199951171875</AltitudeMeters>
            <DistanceMeters>7175.1840340865</DistanceMeters>
          </Trackpoint>
          <Trackpoint>
            <Time>2022-08-20T12:23:52.000Z</Time>
            <Position>
              <LatitudeDegrees>42.82107339240610599517822265625</LatitudeDegrees>
              <LongitudeDegrees>-0.3319007344543933868408203125</LongitudeDegrees>
            </Position>
            <AltitudeMeters>1665.199951171875</AltitudeMeters>
            <DistanceMeters>7187.0403066881</DistanceMeters>
          </Trackpoint>
          <Trackpoint>
            <Time>2022-08-20T12:23:56.000Z</Time>
            <Position>
              <LatitudeDegrees>42.82110021449625492095947265625</LatitudeDegrees>
              <LongitudeDegrees>-0.33183242194354534149169921875</LongitudeDegrees>
            </Position>
            <AltitudeMeters>1665.4000244140625</AltitudeMeters>
            <DistanceMeters>7193.3665456023</DistanceMeters>
          </Trackpoint>
          <Trackpoint>
            <Time>2022-08-20T12:24:06.000Z</Time>
            <Position>
              <LatitudeDegrees>42.8211542777717113494873046875</LatitudeDegrees>
              <LongitudeDegrees>-0.3316975571215152740478515625</LongitudeDegrees>
            </Position>
            <AltitudeMeters>1665.5999755859375</AltitudeMeters>
            <DistanceMeters>7205.9136708796</DistanceMeters>
          </Trackpoint>
          <Trackpoint>
            <Time>2022-08-20T12:24:12.000Z</Time>
            <Position>
              <LatitudeDegrees>42.82117397524416446685791015625</LatitudeDegrees>
              <LongitudeDegrees>-0.3316331841051578521728515625</LongitudeDegrees>
            </Position>
            <AltitudeMeters>1665.5999755859375</AltitudeMeters>
            <DistanceMeters>7211.607349342</DistanceMeters>
          </Trackpoint>
          <Trackpoint>
            <Time>2022-08-20T12:24:17.000Z</Time>
            <Position>
              <LatitudeDegrees>42.82118730247020721435546875</LatitudeDegrees>
              <LongitudeDegrees>-0.33157208003103733062744140625</LongitudeDegrees>
            </Position>
            <AltitudeMeters>1665.4000244140625</AltitudeMeters>
            <DistanceMeters>7216.8121768446</DistanceMeters>
          </Trackpoint>
          <Trackpoint>
            <Time>2022-08-20T12:24:22.000Z</Time>
            <Position>
              <LatitudeDegrees>42.82121144235134124755859375</LatitudeDegrees>
              <LongitudeDegrees>-0.33151768147945404052734375</LongitudeDegrees>
            </Position>
            <AltitudeMeters>1665.199951171875</AltitudeMeters>
            <DistanceMeters>7222.002236385</DistanceMeters>
          </Trackpoint>
          <Trackpoint>
            <Time>2022-08-20T12:24:24.000Z</Time>
            <Position>
              <LatitudeDegrees>42.82122158445417881011962890625</LatitudeDegrees>
              <LongitudeDegrees>-0.33149848692119121551513671875</LongitudeDegrees>
            </Position>
            <AltitudeMeters>1665.199951171875</AltitudeMeters>
            <DistanceMeters>7223.9310680248</DistanceMeters>
          </Trackpoint>
          <Trackpoint>
            <Time>2022-08-20T12:24:31.000Z</Time>
            <Position>
              <LatitudeDegrees>42.821333147585391998291015625</LatitudeDegrees>
              <LongitudeDegrees>-0.331400334835052490234375</LongitudeDegrees>
            </Position>
            <AltitudeMeters>1666.4000244140625</AltitudeMeters>
            <DistanceMeters>7238.7088678854</DistanceMeters>
          </Trackpoint>
          <Trackpoint>
            <Time>2022-08-20T12:24:45.000Z</Time>
            <Position>
              <LatitudeDegrees>42.8214441239833831787109375</LatitudeDegrees>
              <LongitudeDegrees>-0.33119388855993747711181640625</LongitudeDegrees>
            </Position>
            <AltitudeMeters>1666.5999755859375</AltitudeMeters>
            <DistanceMeters>7259.6043759247</DistanceMeters>
          </Trackpoint>
          <Trackpoint>
            <Time>2022-08-20T12:24:48.000Z</Time>
            <Position>
              <LatitudeDegrees>42.82145627774298191070556640625</LatitudeDegrees>
              <LongitudeDegrees>-0.3311624564230442047119140625</LongitudeDegrees>
            </Position>
            <AltitudeMeters>1666.5999755859375</AltitudeMeters>
            <DistanceMeters>7262.5054156083</DistanceMeters>
          </Trackpoint>
          <Trackpoint>
            <Time>2022-08-20T12:24:51.000Z</Time>
            <Position>
              <LatitudeDegrees>42.82147874124348163604736328125</LatitudeDegrees>
              <LongitudeDegrees>-0.33111576922237873077392578125</LongitudeDegrees>
            </Position>
            <AltitudeMeters>1666.5999755859375</AltitudeMeters>
            <DistanceMeters>7267.0637273459</DistanceMeters>
          </Trackpoint>
          <Trackpoint>
            <Time>2022-08-20T12:24:56.000Z</Time>
            <Position>
              <LatitudeDegrees>42.82151226885616779327392578125</LatitudeDegrees>
              <LongitudeDegrees>-0.33106095157563686370849609375</LongitudeDegrees>
            </Position>
            <AltitudeMeters>1666.800048828125</AltitudeMeters>
            <DistanceMeters>7272.8906551324</DistanceMeters>
          </Trackpoint>
          <Trackpoint>
            <Time>2022-08-20T12:25:00.000Z</Time>
            <Position>
              <LatitudeDegrees>42.8215317986905574798583984375</LatitudeDegrees>
              <LongitudeDegrees>-0.33098350279033184051513671875</LongitudeDegrees>
            </Position>
            <AltitudeMeters>1666.800048828125</AltitudeMeters>
            <DistanceMeters>7279.5770524041</DistanceMeters>
          </Trackpoint>
          <Trackpoint>
            <Time>2022-08-20T12:25:13.000Z</Time>
            <Position>
              <LatitudeDegrees>42.82163933850824832916259765625</LatitudeDegrees>
              <LongitudeDegrees>-0.33077336847782135009765625</LongitudeDegrees>
            </Position>
            <AltitudeMeters>1668.5999755859375</AltitudeMeters>
            <DistanceMeters>7300.4948045322</DistanceMeters>
          </Trackpoint>
          <Trackpoint>
            <Time>2022-08-20T12:25:18.000Z</Time>
            <Position>
              <LatitudeDegrees>42.82167571596801280975341796875</LatitudeDegrees>
              <LongitudeDegrees>-0.330713689327239990234375</LongitudeDegrees>
            </Position>
            <AltitudeMeters>1669.800048828125</AltitudeMeters>
            <DistanceMeters>7306.8296020599</DistanceMeters>
          </Trackpoint>
          <Trackpoint>
            <Time>2022-08-20T12:25:20.000Z</Time>
            <Position>
              <LatitudeDegrees>42.8216860257089138031005859375</LatitudeDegrees>
              <LongitudeDegrees>-0.33069198019802570343017578125</LongitudeDegrees>
            </Position>
            <AltitudeMeters>1670.199951171875</AltitudeMeters>
            <DistanceMeters>7308.9416763396</DistanceMeters>
          </Trackpoint>
          <Trackpoint>
            <Time>2022-08-20T12:25:23.000Z</Time>
            <Position>
              <LatitudeDegrees>42.82170471735298633575439453125</LatitudeDegrees>
              <LongitudeDegrees>-0.33065208233892917633056640625</LongitudeDegrees>
            </Position>
            <AltitudeMeters>1670.800048828125</AltitudeMeters>
            <DistanceMeters>7312.8063556845</DistanceMeters>
          </Trackpoint>
          <Trackpoint>
            <Time>2022-08-20T12:25:33.000Z</Time>
            <Position>
              <LatitudeDegrees>42.82177093438804149627685546875</LatitudeDegrees>
              <LongitudeDegrees>-0.33053188584744930267333984375</LongitudeDegrees>
            </Position>
            <AltitudeMeters>1673.4000244140625</AltitudeMeters>
            <DistanceMeters>7325.0784221336</DistanceMeters>
          </Trackpoint>
          <Trackpoint>
            <Time>2022-08-20T12:25:34.000Z</Time>
            <Position>
              <LatitudeDegrees>42.82177696935832500457763671875</LatitudeDegrees>
              <LongitudeDegrees>-0.33051746897399425506591796875</LongitudeDegrees>
            </Position>
            <AltitudeMeters>1673.5999755859375</AltitudeMeters>
            <DistanceMeters>7326.4323444054</DistanceMeters>
          </Trackpoint>
          <Trackpoint>
            <Time>2022-08-20T12:25:37.000Z</Time>
            <Position>
              <LatitudeDegrees>42.82179608009755611419677734375</LatitudeDegrees>
              <LongitudeDegrees>-0.330469273030757904052734375</LongitudeDegrees>
            </Position>
            <AltitudeMeters>1674.800048828125</AltitudeMeters>
            <DistanceMeters>7330.9056708411</DistanceMeters>
          </Trackpoint>
          <Trackpoint>
            <Time>2022-08-20T12:25:43.000Z</Time>
            <Position>
              <LatitudeDegrees>42.82185324467718601226806640625</LatitudeDegrees>
              <LongitudeDegrees>-0.33040179871022701263427734375</LongitudeDegrees>
            </Position>
            <AltitudeMeters>1677.199951171875</AltitudeMeters>
            <DistanceMeters>7339.3218409692</DistanceMeters>
          </Trackpoint>
          <Trackpoint>
            <Time>2022-08-20T12:25:49.000Z</Time>
            <Position>
              <LatitudeDegrees>42.8218801505863666534423828125</LatitudeDegrees>
              <LongitudeDegrees>-0.330344550311565399169921875</LongitudeDegrees>
            </Position>
            <AltitudeMeters>1678.5999755859375</AltitudeMeters>
            <DistanceMeters>7344.8741991151</DistanceMeters>
          </Trackpoint>
          <Trackpoint>
            <Time>2022-08-20T12:25:58.000Z</Time>
            <Position>
              <LatitudeDegrees>42.821939326822757720947265625</LatitudeDegrees>
              <LongitudeDegrees>-0.3302199952304363250732421875</LongitudeDegrees>
            </Position>
            <AltitudeMeters>1681.5999755859375</AltitudeMeters>
            <DistanceMeters>7356.9892666972</DistanceMeters>
          </Trackpoint>
          <Trackpoint>
            <Time>2022-08-20T12:26:03.000Z</Time>
            <Position>
              <LatitudeDegrees>42.82196656800806522369384765625</LatitudeDegrees>
              <LongitudeDegrees>-0.33015838824212551116943359375</LongitudeDegrees>
            </Position>
            <AltitudeMeters>1682</AltitudeMeters>
            <DistanceMeters>7362.8609642255</DistanceMeters>
          </Trackpoint>
          <Trackpoint>
            <Time>2022-08-20T12:26:12.000Z</Time>
            <Position>
              <LatitudeDegrees>42.8220290131866931915283203125</LatitudeDegrees>
              <LongitudeDegrees>-0.33008077181875705718994140625</LongitudeDegrees>
            </Position>
            <AltitudeMeters>1683.800048828125</AltitudeMeters>
            <DistanceMeters>7372.2662089775</DistanceMeters>
          </Trackpoint>
          <Trackpoint>
            <Time>2022-08-20T12:26:18.000Z</Time>
            <Position>
              <LatitudeDegrees>42.822067402303218841552734375</LatitudeDegrees>
              <LongitudeDegrees>-0.33001103438436985015869140625</LongitudeDegrees>
            </Position>
            <AltitudeMeters>1684.5999755859375</AltitudeMeters>
            <DistanceMeters>7379.3837035402</DistanceMeters>
          </Trackpoint>
          <Trackpoint>
            <Time>2022-08-20T12:26:19.000Z</Time>
            <Position>
              <LatitudeDegrees>42.82207645475864410400390625</LatitudeDegrees>
              <LongitudeDegrees>-0.329997539520263671875</LongitudeDegrees>
            </Position>
            <AltitudeMeters>1684.800048828125</AltitudeMeters>
            <DistanceMeters>7380.8741393171</DistanceMeters>
          </Trackpoint>
          <Trackpoint>
            <Time>2022-08-20T12:26:29.000Z</Time>
            <Position>
              <LatitudeDegrees>42.82208609394729137420654296875</LatitudeDegrees>
              <LongitudeDegrees>-0.32993459142744541168212890625</LongitudeDegrees>
            </Position>
            <AltitudeMeters>1684.5999755859375</AltitudeMeters>
            <DistanceMeters>7386.1238815305</DistanceMeters>
          </Trackpoint>
          <Trackpoint>
            <Time>2022-08-20T12:26:31.000Z</Time>
            <Position>
              <LatitudeDegrees>42.8220498003065586090087890625</LatitudeDegrees>
              <LongitudeDegrees>-0.3299229405820369720458984375</LongitudeDegrees>
            </Position>
            <AltitudeMeters>1683.199951171875</AltitudeMeters>
            <DistanceMeters>7390.2736231826</DistanceMeters>
          </Trackpoint>
          <Trackpoint>
            <Time>2022-08-20T12:26:34.000Z</Time>
            <Position>
              <LatitudeDegrees>42.8220342099666595458984375</LatitudeDegrees>
              <LongitudeDegrees>-0.329880528151988983154296875</LongitudeDegrees>
            </Position>
            <AltitudeMeters>1682.800048828125</AltitudeMeters>
            <DistanceMeters>7394.1476375152</DistanceMeters>
          </Trackpoint>
          <Trackpoint>
            <Time>2022-08-20T12:26:39.000Z</Time>
            <Position>
              <LatitudeDegrees>42.82203043811023235321044921875</LatitudeDegrees>
              <LongitudeDegrees>-0.32978455536067485809326171875</LongitudeDegrees>
            </Position>
            <AltitudeMeters>1682.4000244140625</AltitudeMeters>
            <DistanceMeters>7401.9941055866</DistanceMeters>
          </Trackpoint>
          <Trackpoint>
            <Time>2022-08-20T12:26:42.000Z</Time>
            <Position>
              <LatitudeDegrees>42.82203965820372104644775390625</LatitudeDegrees>
              <LongitudeDegrees>-0.3297596611082553863525390625</LongitudeDegrees>
            </Position>
            <AltitudeMeters>1682.4000244140625</AltitudeMeters>
            <DistanceMeters>7404.2707838421</DistanceMeters>
          </Trackpoint>
          <Trackpoint>
            <Time>2022-08-20T12:26:44.000Z</Time>
            <Position>
              <LatitudeDegrees>42.82204502262175083160400390625</LatitudeDegrees>
              <LongitudeDegrees>-0.32974985428154468536376953125</LongitudeDegrees>
            </Position>
            <AltitudeMeters>1682.5999755859375</AltitudeMeters>
            <DistanceMeters>7405.2764520586</DistanceMeters>
          </Trackpoint>
          <Trackpoint>
            <Time>2022-08-20T12:26:50.000Z</Time>
            <Position>
              <LatitudeDegrees>42.82204016111791133880615234375</LatitudeDegrees>
              <LongitudeDegrees>-0.32966435886919498443603515625</LongitudeDegrees>
            </Position>
            <AltitudeMeters>1682.199951171875</AltitudeMeters>
            <DistanceMeters>7412.2775416122</DistanceMeters>
          </Trackpoint>
          <Trackpoint>
            <Time>2022-08-20T12:27:06.000Z</Time>
            <Position>
              <LatitudeDegrees>42.82204887829720973968505859375</LatitudeDegrees>
              <LongitudeDegrees>-0.3294149972498416900634765625</LongitudeDegrees>
            </Position>
            <AltitudeMeters>1683.199951171875</AltitudeMeters>
            <DistanceMeters>7432.6576151184</DistanceMeters>
          </Trackpoint>
          <Trackpoint>
            <Time>2022-08-20T12:27:18.000Z</Time>
            <Position>
              <LatitudeDegrees>42.8220937214791774749755859375</LatitudeDegrees>
              <LongitudeDegrees>-0.329245515167713165283203125</LongitudeDegrees>
            </Position>
            <AltitudeMeters>1683.800048828125</AltitudeMeters>
            <DistanceMeters>7447.366203475</DistanceMeters>
          </Trackpoint>
          <Trackpoint>
            <Time>2022-08-20T12:27:21.000Z</Time>
            <Position>
              <LatitudeDegrees>42.82209598459303379058837890625</LatitudeDegrees>
              <LongitudeDegrees>-0.3292185254395008087158203125</LongitudeDegrees>
            </Position>
            <AltitudeMeters>1683.5999755859375</AltitudeMeters>
            <DistanceMeters>7449.5825882758</DistanceMeters>
          </Trackpoint>
          <Trackpoint>
            <Time>2022-08-20T12:27:23.000Z</Time>
            <Position>
              <LatitudeDegrees>42.82210067845880985260009765625</LatitudeDegrees>
              <LongitudeDegrees>-0.3291943855583667755126953125</LongitudeDegrees>
            </Position>
            <AltitudeMeters>1683.800048828125</AltitudeMeters>
            <DistanceMeters>7451.6206842412</DistanceMeters>
          </Trackpoint>
          <Trackpoint>
            <Time>2022-08-20T12:27:27.000Z</Time>
            <Position>
              <LatitudeDegrees>42.82211375422775745391845703125</LatitudeDegrees>
              <LongitudeDegrees>-0.32915926538407802581787109375</LongitudeDegrees>
            </Position>
            <AltitudeMeters>1683.800048828125</AltitudeMeters>
            <DistanceMeters>7454.834779363</DistanceMeters>
          </Trackpoint>
          <Trackpoint>
            <Time>2022-08-20T12:27:29.000Z</Time>
            <Position>
              <LatitudeDegrees>42.82211476005613803863525390625</LatitudeDegrees>
              <LongitudeDegrees>-0.32914099283516407012939453125</LongitudeDegrees>
            </Position>
            <AltitudeMeters>1683.800048828125</AltitudeMeters>
            <DistanceMeters>7456.32521514</DistanceMeters>
          </Trackpoint>
          <Trackpoint>
            <Time>2022-08-20T12:27:35.000Z</Time>
            <Position>
              <LatitudeDegrees>42.82213118858635425567626953125</LatitudeDegrees>
              <LongitudeDegrees>-0.32907242886722087860107421875</LongitudeDegrees>
            </Position>
            <AltitudeMeters>1684.199951171875</AltitudeMeters>
            <DistanceMeters>7462.2130384618</DistanceMeters>
          </Trackpoint>
          <Trackpoint>
            <Time>2022-08-20T12:27:37.000Z</Time>
            <Position>
              <LatitudeDegrees>42.82213102094829082489013671875</LatitudeDegrees>
              <LongitudeDegrees>-0.32905097119510173797607421875</LongitudeDegrees>
            </Position>
            <AltitudeMeters>1684.4000244140625</AltitudeMeters>
            <DistanceMeters>7463.9652444973</DistanceMeters>
          </Trackpoint>
          <Trackpoint>
            <Time>2022-08-20T12:27:40.000Z</Time>
            <Position>
              <LatitudeDegrees>42.82213822938501834869384765625</LatitudeDegrees>
              <LongitudeDegrees>-0.32900721766054630279541015625</LongitudeDegrees>
            </Position>
            <AltitudeMeters>1684.5999755859375</AltitudeMeters>
            <DistanceMeters>7467.6259320615</DistanceMeters>
          </Trackpoint>
          <Trackpoint>
            <Time>2022-08-20T12:27:54.000Z</Time>
            <Position>
              <LatitudeDegrees>42.82217024825513362884521484375</LatitudeDegrees>
              <LongitudeDegrees>-0.3288041241466999053955078125</LongitudeDegrees>
            </Position>
            <AltitudeMeters>1687</AltitudeMeters>
            <DistanceMeters>7484.5844070692</DistanceMeters>
          </Trackpoint>
          <Trackpoint>
            <Time>2022-08-20T12:28:05.000Z</Time>
            <Position>
              <LatitudeDegrees>42.822230346500873565673828125</LatitudeDegrees>
              <LongitudeDegrees>-0.32869088463485240936279296875</LongitudeDegrees>
            </Position>
            <AltitudeMeters>1689.800048828125</AltitudeMeters>
            <DistanceMeters>7495.9951332619</DistanceMeters>
          </Trackpoint>
          <Trackpoint>
            <Time>2022-08-20T12:28:08.000Z</Time>
            <Position>
              <LatitudeDegrees>42.82224065624177455902099609375</LatitudeDegrees>
              <LongitudeDegrees>-0.32865048386156558990478515625</LongitudeDegrees>
            </Position>
            <AltitudeMeters>1690.4000244140625</AltitudeMeters>
            <DistanceMeters>7499.486637694</DistanceMeters>
          </Trackpoint>
          <Trackpoint>
            <Time>2022-08-20T12:28:10.000Z</Time>
            <Position>
              <LatitudeDegrees>42.82222942449152469635009765625</LatitudeDegrees>
              <LongitudeDegrees>-0.32861662097275257110595703125</LongitudeDegrees>
            </Position>
            <AltitudeMeters>1690.5999755859375</AltitudeMeters>
            <DistanceMeters>7502.5185707111</DistanceMeters>
          </Trackpoint>
          <Trackpoint>
            <Time>2022-08-20T12:28:14.000Z</Time>
            <Position>
              <LatitudeDegrees>42.8222124092280864715576171875</LatitudeDegrees>
              <LongitudeDegrees>-0.32854445278644561767578125</LongitudeDegrees>
            </Position>
            <AltitudeMeters>1691</AltitudeMeters>
            <DistanceMeters>7508.7077212405</DistanceMeters>
          </Trackpoint>
          <Trackpoint>
            <Time>2022-08-20T12:28:21.000Z</Time>
            <Position>
              <LatitudeDegrees>42.8222067095339298248291015625</LatitudeDegrees>
              <LongitudeDegrees>-0.328445546329021453857421875</LongitudeDegrees>
            </Position>
            <AltitudeMeters>1691.5999755859375</AltitudeMeters>
            <DistanceMeters>7516.8067628683</DistanceMeters>
          </Trackpoint>
          <Trackpoint>
            <Time>2022-08-20T12:28:30.000Z</Time>
            <Position>
              <LatitudeDegrees>42.82227669842541217803955078125</LatitudeDegrees>
              <LongitudeDegrees>-0.32833633013069629669189453125</LongitudeDegrees>
            </Position>
            <AltitudeMeters>1693.800048828125</AltitudeMeters>
            <DistanceMeters>7528.6466491311</DistanceMeters>
          </Trackpoint>
          <Trackpoint>
            <Time>2022-08-20T12:28:36.000Z</Time>
            <Position>
              <LatitudeDegrees>42.8223082982003688812255859375</LatitudeDegrees>
              <LongitudeDegrees>-0.32826323993504047393798828125</LongitudeDegrees>
            </Position>
            <AltitudeMeters>1695</AltitudeMeters>
            <DistanceMeters>7535.5731775651</DistanceMeters>
          </Trackpoint>
          <Trackpoint>
            <Time>2022-08-20T12:28:40.000Z</Time>
            <Position>
              <LatitudeDegrees>42.822327911853790283203125</LatitudeDegrees>
              <LongitudeDegrees>-0.32821948640048503875732421875</LongitudeDegrees>
            </Position>
            <AltitudeMeters>1695.5999755859375</AltitudeMeters>
            <DistanceMeters>7539.7586701646</DistanceMeters>
          </Trackpoint>
          <Trackpoint>
            <Time>2022-08-20T12:28:47.000Z</Time>
            <Position>
              <LatitudeDegrees>42.82236747443675994873046875</LatitudeDegrees>
              <LongitudeDegrees>-0.32813885249197483062744140625</LongitudeDegrees>
            </Position>
            <AltitudeMeters>1697.199951171875</AltitudeMeters>
            <DistanceMeters>7547.6784498952</DistanceMeters>
          </Trackpoint>
          <Trackpoint>
            <Time>2022-08-20T12:28:52.000Z</Time>
            <Position>
              <LatitudeDegrees>42.82239966094493865966796875</LatitudeDegrees>
              <LongitudeDegrees>-0.32808822579681873321533203125</LongitudeDegrees>
            </Position>
            <AltitudeMeters>1698.4000244140625</AltitudeMeters>
            <DistanceMeters>7553.1480607825</DistanceMeters>
          </Trackpoint>
          <Trackpoint>
            <Time>2022-08-20T12:29:03.000Z</Time>
            <Position>
              <LatitudeDegrees>42.8224883414804935455322265625</LatitudeDegrees>
              <LongitudeDegrees>-0.32795797102153301239013671875</LongitudeDegrees>
            </Position>
            <AltitudeMeters>1702.199951171875</AltitudeMeters>
            <DistanceMeters>7567.6563715701</DistanceMeters>
          </Trackpoint>
          <Trackpoint>
            <Time>2022-08-20T12:29:08.000Z</Time>
            <Position>
              <LatitudeDegrees>42.822518013417720794677734375</LatitudeDegrees>
              <LongitudeDegrees>-0.32792142592370510101318359375</LongitudeDegrees>
            </Position>
            <AltitudeMeters>1703.4000244140625</AltitudeMeters>
            <DistanceMeters>7572.1074374781</DistanceMeters>
          </Trackpoint>
          <Trackpoint>
            <Time>2022-08-20T12:29:16.000Z</Time>
            <Position>
              <LatitudeDegrees>42.822572998702526092529296875</LatitudeDegrees>
              <LongitudeDegrees>-0.32785789109766483306884765625</LongitudeDegrees>
            </Position>
            <AltitudeMeters>1705.800048828125</AltitudeMeters>
            <DistanceMeters>7580.1297410635</DistanceMeters>
          </Trackpoint>
          <Trackpoint>
            <Time>2022-08-20T12:29:28.000Z</Time>
            <Position>
              <LatitudeDegrees>42.8226703964173793792724609375</LatitudeDegrees>
              <LongitudeDegrees>-0.32770332880318164825439453125</LongitudeDegrees>
            </Position>
            <AltitudeMeters>1710</AltitudeMeters>
            <DistanceMeters>7596.765116704</DistanceMeters>
          </Trackpoint>
          <Trackpoint>
            <Time>2022-08-20T12:29:39.000Z</Time>
            <Position>
              <LatitudeDegrees>42.82269202172756195068359375</LatitudeDegrees>
              <LongitudeDegrees>-0.327550359070301055908203125</LongitudeDegrees>
            </Position>
            <AltitudeMeters>1709.800048828125</AltitudeMeters>
            <DistanceMeters>7609.4830854595</DistanceMeters>
          </Trackpoint>
          <Trackpoint>
            <Time>2022-08-20T12:29:50.000Z</Time>
            <Position>
              <LatitudeDegrees>42.82269730232656002044677734375</LatitudeDegrees>
              <LongitudeDegrees>-0.3273890912532806396484375</LongitudeDegrees>
            </Position>
            <AltitudeMeters>1708.4000244140625</AltitudeMeters>
            <DistanceMeters>7622.6616840286</DistanceMeters>
          </Trackpoint>
          <Trackpoint>
            <Time>2022-08-20T12:29:54.000Z</Time>
            <Position>
              <LatitudeDegrees>42.82268464565277099609375</LatitudeDegrees>
              <LongitudeDegrees>-0.32734123058617115020751953125</LongitudeDegrees>
            </Position>
            <AltitudeMeters>1707.199951171875</AltitudeMeters>
            <DistanceMeters>7626.8146884842</DistanceMeters>
          </Trackpoint>
          <Trackpoint>
            <Time>2022-08-20T12:30:05.000Z</Time>
            <Position>
              <LatitudeDegrees>42.8226351924240589141845703125</LatitudeDegrees>
              <LongitudeDegrees>-0.32717744819819927215576171875</LongitudeDegrees>
            </Position>
            <AltitudeMeters>1703.199951171875</AltitudeMeters>
            <DistanceMeters>7641.2734332345</DistanceMeters>
          </Trackpoint>
          <Trackpoint>
            <Time>2022-08-20T12:30:20.000Z</Time>
            <Position>
              <LatitudeDegrees>42.82267366535961627960205078125</LatitudeDegrees>
              <LongitudeDegrees>-0.3269446827471256256103515625</LongitudeDegrees>
            </Position>
            <AltitudeMeters>1702.4000244140625</AltitudeMeters>
            <DistanceMeters>7660.7518236164</DistanceMeters>
          </Trackpoint>
          <Trackpoint>
            <Time>2022-08-20T12:30:23.000Z</Time>
            <Position>
              <LatitudeDegrees>42.8226801194250583648681640625</LatitudeDegrees>
              <LongitudeDegrees>-0.32692532055079936981201171875</LongitudeDegrees>
            </Position>
            <AltitudeMeters>1702.5999755859375</AltitudeMeters>
            <DistanceMeters>7662.4885001931</DistanceMeters>
          </Trackpoint>
          <Trackpoint>
            <Time>2022-08-20T12:30:26.000Z</Time>
            <Position>
              <LatitudeDegrees>42.82269646413624286651611328125</LatitudeDegrees>
              <LongitudeDegrees>-0.32690419815480709075927734375</LongitudeDegrees>
            </Position>
            <AltitudeMeters>1703</AltitudeMeters>
            <DistanceMeters>7664.9954770987</DistanceMeters>
          </Trackpoint>
          <Trackpoint>
            <Time>2022-08-20T12:30:28.000Z</Time>
            <Position>
              <LatitudeDegrees>42.82270987518131732940673828125</LatitudeDegrees>
              <LongitudeDegrees>-0.326895229518413543701171875</LongitudeDegrees>
            </Position>
            <AltitudeMeters>1703.5999755859375</AltitudeMeters>
            <DistanceMeters>7666.6577656993</DistanceMeters>
          </Trackpoint>
          <Trackpoint>
            <Time>2022-08-20T12:30:31.000Z</Time>
            <Position>
              <LatitudeDegrees>42.82274574972689151763916015625</LatitudeDegrees>
              <LongitudeDegrees>-0.326878465712070465087890625</LongitudeDegrees>
            </Position>
            <AltitudeMeters>1705.199951171875</AltitudeMeters>
            <DistanceMeters>7670.8797759907</DistanceMeters>
          </Trackpoint>
          <Trackpoint>
            <Time>2022-08-20T12:30:33.000Z</Time>
            <Position>
              <LatitudeDegrees>42.822768129408359527587890625</LatitudeDegrees>
              <LongitudeDegrees>-0.3268581815063953399658203125</LongitudeDegrees>
            </Position>
            <AltitudeMeters>1706</AltitudeMeters>
            <DistanceMeters>7673.8712314485</DistanceMeters>
          </Trackpoint>
          <Trackpoint>
            <Time>2022-08-20T12:30:48.000Z</Time>
            <Position>
              <LatitudeDegrees>42.82285630702972412109375</LatitudeDegrees>
              <LongitudeDegrees>-0.326738990843296051025390625</LongitudeDegrees>
            </Position>
            <AltitudeMeters>1708.800048828125</AltitudeMeters>
            <DistanceMeters>7687.6913308282</DistanceMeters>
          </Trackpoint>
          <Trackpoint>
            <Time>2022-08-20T12:30:55.000Z</Time>
            <Position>
              <LatitudeDegrees>42.82285773195326328277587890625</LatitudeDegrees>
              <LongitudeDegrees>-0.32673664391040802001953125</LongitudeDegrees>
            </Position>
            <AltitudeMeters>1708.800048828125</AltitudeMeters>
            <DistanceMeters>7687.9240977904</DistanceMeters>
          </Trackpoint>
          <Trackpoint>
            <Time>2022-08-20T12:31:00.000Z</Time>
            <Position>
              <LatitudeDegrees>42.82285119406878948211669921875</LatitudeDegrees>
              <LongitudeDegrees>-0.32668794505298137664794921875</LongitudeDegrees>
            </Position>
            <AltitudeMeters>1708</AltitudeMeters>
            <DistanceMeters>7691.9669233324</DistanceMeters>
          </Trackpoint>
          <Trackpoint>
            <Time>2022-08-20T12:31:01.000Z</Time>
            <Position>
              <LatitudeDegrees>42.82285186462104320526123046875</LatitudeDegrees>
              <LongitudeDegrees>-0.32667218707501888275146484375</LongitudeDegrees>
            </Position>
            <AltitudeMeters>1707.800048828125</AltitudeMeters>
            <DistanceMeters>7693.2559284006</DistanceMeters>
          </Trackpoint>
          <Trackpoint>
            <Time>2022-08-20T12:31:07.000Z</Time>
            <Position>
              <LatitudeDegrees>42.82284733839333057403564453125</LatitudeDegrees>
              <LongitudeDegrees>-0.326598174870014190673828125</LongitudeDegrees>
            </Position>
            <AltitudeMeters>1707.4000244140625</AltitudeMeters>
            <DistanceMeters>7699.3190498082</DistanceMeters>
          </Trackpoint>
          <Trackpoint>
            <Time>2022-08-20T12:31:12.000Z</Time>
            <Position>
              <LatitudeDegrees>42.82281246967613697052001953125</LatitudeDegrees>
              <LongitudeDegrees>-0.32652818597853183746337890625</LongitudeDegrees>
            </Position>
            <AltitudeMeters>1706.800048828125</AltitudeMeters>
            <DistanceMeters>7706.2253414164</DistanceMeters>
          </Trackpoint>
          <Trackpoint>
            <Time>2022-08-20T12:31:19.000Z</Time>
            <Position>
              <LatitudeDegrees>42.82283007167279720306396484375</LatitudeDegrees>
              <LongitudeDegrees>-0.32644084654748439788818359375</LongitudeDegrees>
            </Position>
            <AltitudeMeters>1708.4000244140625</AltitudeMeters>
            <DistanceMeters>7713.620349391</DistanceMeters>
          </Trackpoint>
          <Trackpoint>
            <Time>2022-08-20T12:31:21.000Z</Time>
            <Position>
              <LatitudeDegrees>42.82282303087413311004638671875</LatitudeDegrees>
              <LongitudeDegrees>-0.32641620375216007232666015625</LongitudeDegrees>
            </Position>
            <AltitudeMeters>1708.4000244140625</AltitudeMeters>
            <DistanceMeters>7715.7789413962</DistanceMeters>
          </Trackpoint>
          <Trackpoint>
            <Time>2022-08-20T12:31:22.000Z</Time>
            <Position>
              <LatitudeDegrees>42.8228162415325641632080078125</LatitudeDegrees>
              <LongitudeDegrees>-0.3263995237648487091064453125</LongitudeDegrees>
            </Position>
            <AltitudeMeters>1708.4000244140625</AltitudeMeters>
            <DistanceMeters>7717.340389647</DistanceMeters>
          </Trackpoint>
          <Trackpoint>
            <Time>2022-08-20T12:31:30.000Z</Time>
            <Position>
              <LatitudeDegrees>42.82278279773890972137451171875</LatitudeDegrees>
              <LongitudeDegrees>-0.32631176523864269256591796875</LongitudeDegrees>
            </Position>
            <AltitudeMeters>1708.4000244140625</AltitudeMeters>
            <DistanceMeters>7725.4137465555</DistanceMeters>
          </Trackpoint>
          <Trackpoint>
            <Time>2022-08-20T12:31:41.000Z</Time>
            <Position>
              <LatitudeDegrees>42.82273736782371997833251953125</LatitudeDegrees>
              <LongitudeDegrees>-0.326159633696079254150390625</LongitudeDegrees>
            </Position>
            <AltitudeMeters>1712.5999755859375</AltitudeMeters>
            <DistanceMeters>7738.8229554118</DistanceMeters>
          </Trackpoint>
          <Trackpoint>
            <Time>2022-08-20T12:31:43.000Z</Time>
            <Position>
              <LatitudeDegrees>42.8227297402918338775634765625</LatitudeDegrees>
              <LongitudeDegrees>-0.326124764978885650634765625</LongitudeDegrees>
            </Position>
            <AltitudeMeters>1713.5999755859375</AltitudeMeters>
            <DistanceMeters>7741.7916848723</DistanceMeters>
          </Trackpoint>
          <Trackpoint>
            <Time>2022-08-20T12:31:47.000Z</Time>
            <Position>
              <LatitudeDegrees>42.82269780524075031280517578125</LatitudeDegrees>
              <LongitudeDegrees>-0.32608352601528167724609375</LongitudeDegrees>
            </Position>
            <AltitudeMeters>1713.800048828125</AltitudeMeters>
            <DistanceMeters>7746.6871749276</DistanceMeters>
          </Trackpoint>
          <Trackpoint>
            <Time>2022-08-20T12:31:50.000Z</Time>
            <Position>
              <LatitudeDegrees>42.82267785631120204925537109375</LatitudeDegrees>
              <LongitudeDegrees>-0.32606014050543308258056640625</LongitudeDegrees>
            </Position>
            <AltitudeMeters>1714</AltitudeMeters>
            <DistanceMeters>7749.6145530285</DistanceMeters>
          </Trackpoint>
          <Trackpoint>
            <Time>2022-08-20T12:31:53.000Z</Time>
            <Position>
              <LatitudeDegrees>42.8226737491786479949951171875</LatitudeDegrees>
              <LongitudeDegrees>-0.3260199911892414093017578125</LongitudeDegrees>
            </Position>
            <AltitudeMeters>1716</AltitudeMeters>
            <DistanceMeters>7752.9227931422</DistanceMeters>
          </Trackpoint>
          <Trackpoint>
            <Time>2022-08-20T12:31:54.000Z</Time>
            <Position>
              <LatitudeDegrees>42.8226616792380809783935546875</LatitudeDegrees>
              <LongitudeDegrees>-0.32600448466837406158447265625</LongitudeDegrees>
            </Position>
            <AltitudeMeters>1716.199951171875</AltitudeMeters>
            <DistanceMeters>7754.770323628</DistanceMeters>
          </Trackpoint>
          <Trackpoint>
            <Time>2022-08-20T12:31:56.000Z</Time>
            <Position>
              <LatitudeDegrees>42.82264583744108676910400390625</LatitudeDegrees>
              <LongitudeDegrees>-0.32599031925201416015625</LongitudeDegrees>
            </Position>
            <AltitudeMeters>1716.199951171875</AltitudeMeters>
            <DistanceMeters>7756.8781181176</DistanceMeters>
          </Trackpoint>
          <Trackpoint>
            <Time>2022-08-20T12:32:01.000Z</Time>
            <Position>
              <LatitudeDegrees>42.82262337394058704376220703125</LatitudeDegrees>
              <LongitudeDegrees>-0.3259696997702121734619140625</LongitudeDegrees>
            </Position>
            <AltitudeMeters>1715.800048828125</AltitudeMeters>
            <DistanceMeters>7759.8921282208</DistanceMeters>
          </Trackpoint>
          <Trackpoint>
            <Time>2022-08-20T12:32:02.000Z</Time>
            <Position>
              <LatitudeDegrees>42.8226180933415889739990234375</LatitudeDegrees>
              <LongitudeDegrees>-0.325963832437992095947265625</LongitudeDegrees>
            </Position>
            <AltitudeMeters>1715.800048828125</AltitudeMeters>
            <DistanceMeters>7760.640369318</DistanceMeters>
          </Trackpoint>
          <Trackpoint>
            <Time>2022-08-20T12:32:04.000Z</Time>
            <Position>
              <LatitudeDegrees>42.822618596255779266357421875</LatitudeDegrees>
              <LongitudeDegrees>-0.32594447024166584014892578125</LongitudeDegrees>
            </Position>
            <AltitudeMeters>1716.5999755859375</AltitudeMeters>
            <DistanceMeters>7762.2219290466</DistanceMeters>
          </Trackpoint>
          <Trackpoint>
            <Time>2022-08-20T12:32:05.000Z</Time>
            <Position>
              <LatitudeDegrees>42.82261650077998638153076171875</LatitudeDegrees>
              <LongitudeDegrees>-0.3259412012994289398193359375</LongitudeDegrees>
            </Position>
            <AltitudeMeters>1716.800048828125</AltitudeMeters>
            <DistanceMeters>7762.5774864544</DistanceMeters>
          </Trackpoint>
          <Trackpoint>
            <Time>2022-08-20T12:32:11.000Z</Time>
            <Position>
              <LatitudeDegrees>42.8225934505462646484375</LatitudeDegrees>
              <LongitudeDegrees>-0.32589166425168514251708984375</LongitudeDegrees>
            </Position>
            <AltitudeMeters>1717.5999755859375</AltitudeMeters>
            <DistanceMeters>7767.3666820202</DistanceMeters>
          </Trackpoint>
          <Trackpoint>
            <Time>2022-08-20T12:32:14.000Z</Time>
            <Position>
              <LatitudeDegrees>42.82257534563541412353515625</LatitudeDegrees>
              <LongitudeDegrees>-0.325883366167545318603515625</LongitudeDegrees>
            </Position>
            <AltitudeMeters>1717.199951171875</AltitudeMeters>
            <DistanceMeters>7769.4915439503</DistanceMeters>
          </Trackpoint>
          <Trackpoint>
            <Time>2022-08-20T12:32:19.000Z</Time>
            <Position>
              <LatitudeDegrees>42.8225664608180522918701171875</LatitudeDegrees>
              <LongitudeDegrees>-0.325823687016963958740234375</LongitudeDegrees>
            </Position>
            <AltitudeMeters>1719.4000244140625</AltitudeMeters>
            <DistanceMeters>7774.4629943651</DistanceMeters>
          </Trackpoint>
          <Trackpoint>
            <Time>2022-08-20T12:32:21.000Z</Time>
            <Position>
              <LatitudeDegrees>42.82255849801003932952880859375</LatitudeDegrees>
              <LongitudeDegrees>-0.32580315135419368743896484375</LongitudeDegrees>
            </Position>
            <AltitudeMeters>1720</AltitudeMeters>
            <DistanceMeters>7776.3587713627</DistanceMeters>
          </Trackpoint>
          <Trackpoint>
            <Time>2022-08-20T12:32:26.000Z</Time>
            <Position>
              <LatitudeDegrees>42.82252983190119266510009765625</LatitudeDegrees>
              <LongitudeDegrees>-0.325767695903778076171875</LongitudeDegrees>
            </Position>
            <AltitudeMeters>1720.5999755859375</AltitudeMeters>
            <DistanceMeters>7780.6665326249</DistanceMeters>
          </Trackpoint>
          <Trackpoint>
            <Time>2022-08-20T12:32:34.000Z</Time>
            <Position>
              <LatitudeDegrees>42.82250560820102691650390625</LatitudeDegrees>
              <LongitudeDegrees>-0.32570776529610157012939453125</LongitudeDegrees>
            </Position>
            <AltitudeMeters>1722.800048828125</AltitudeMeters>
            <DistanceMeters>7786.2529397163</DistanceMeters>
          </Trackpoint>
          <Trackpoint>
            <Time>2022-08-20T12:33:04.000Z</Time>
            <Position>
              <LatitudeDegrees>42.82247384078800678253173828125</LatitudeDegrees>
              <LongitudeDegrees>-0.3254791907966136932373046875</LongitudeDegrees>
            </Position>
            <AltitudeMeters>1732.5999755859375</AltitudeMeters>
            <DistanceMeters>7805.2449741907</DistanceMeters>
          </Trackpoint>
          <Trackpoint>
            <Time>2022-08-20T12:33:34.000Z</Time>
            <Position>
              <LatitudeDegrees>42.82249362207949161529541015625</LatitudeDegrees>
              <LongitudeDegrees>-0.32534700818359851837158203125</LongitudeDegrees>
            </Position>
            <AltitudeMeters>1740.199951171875</AltitudeMeters>
            <DistanceMeters>7816.2582383206</DistanceMeters>
          </Trackpoint>
          <Trackpoint>
            <Time>2022-08-20T12:33:46.000Z</Time>
            <Position>
              <LatitudeDegrees>42.82251826487481594085693359375</LatitudeDegrees>
              <LongitudeDegrees>-0.3252964653074741363525390625</LongitudeDegrees>
            </Position>
            <AltitudeMeters>1744</AltitudeMeters>
            <DistanceMeters>7821.2133142889</DistanceMeters>
          </Trackpoint>
          <Trackpoint>
            <Time>2022-08-20T12:34:08.000Z</Time>
            <Position>
              <LatitudeDegrees>42.8223453462123870849609375</LatitudeDegrees>
              <LongitudeDegrees>-0.32525002956390380859375</LongitudeDegrees>
            </Position>
            <AltitudeMeters>1736</AltitudeMeters>
            <DistanceMeters>7840.8293693823</DistanceMeters>
          </Trackpoint>
          <Trackpoint>
            <Time>2022-08-20T12:34:12.000Z</Time>
            <Position>
              <LatitudeDegrees>42.8223378024995326995849609375</LatitudeDegrees>
              <LongitudeDegrees>-0.32521507702767848968505859375</LongitudeDegrees>
            </Position>
            <AltitudeMeters>1737.199951171875</AltitudeMeters>
            <DistanceMeters>7843.8041760845</DistanceMeters>
          </Trackpoint>
          <Trackpoint>
            <Time>2022-08-20T12:34:16.000Z</Time>
            <Position>
              <LatitudeDegrees>42.822307460010051727294921875</LatitudeDegrees>
              <LongitudeDegrees>-0.32519445754587650299072265625</LongitudeDegrees>
            </Position>
            <AltitudeMeters>1737</AltitudeMeters>
            <DistanceMeters>7847.5766289305</DistanceMeters>
          </Trackpoint>
          <Trackpoint>
            <Time>2022-08-20T12:34:19.000Z</Time>
            <Position>
              <LatitudeDegrees>42.82228969037532806396484375</LatitudeDegrees>
              <LongitudeDegrees>-0.325177945196628570556640625</LongitudeDegrees>
            </Position>
            <AltitudeMeters>1737.5999755859375</AltitudeMeters>
            <DistanceMeters>7849.9693404605</DistanceMeters>
          </Trackpoint>
          <Trackpoint>
            <Time>2022-08-20T12:34:44.000Z</Time>
            <Position>
              <LatitudeDegrees>42.8221530653536319732666015625</LatitudeDegrees>
              <LongitudeDegrees>-0.3250421583652496337890625</LongitudeDegrees>
            </Position>
            <AltitudeMeters>1742.800048828125</AltitudeMeters>
            <DistanceMeters>7868.7872693515</DistanceMeters>
          </Trackpoint>
          <Trackpoint>
            <Time>2022-08-20T12:34:56.000Z</Time>
            <Position>
              <LatitudeDegrees>42.82207787968218326568603515625</LatitudeDegrees>
              <LongitudeDegrees>-0.32496512867510318756103515625</LongitudeDegrees>
            </Position>
            <AltitudeMeters>1745.4000244140625</AltitudeMeters>
            <DistanceMeters>7879.2548835769</DistanceMeters>
          </Trackpoint>
          <Trackpoint>
            <Time>2022-08-20T12:34:59.000Z</Time>
            <Position>
              <LatitudeDegrees>42.822066061198711395263671875</LatitudeDegrees>
              <LongitudeDegrees>-0.3249447606503963470458984375</LongitudeDegrees>
            </Position>
            <AltitudeMeters>1746.4000244140625</AltitudeMeters>
            <DistanceMeters>7881.3754915249</DistanceMeters>
          </Trackpoint>
          <Trackpoint>
            <Time>2022-08-20T12:35:03.000Z</Time>
            <Position>
              <LatitudeDegrees>42.82206237316131591796875</LatitudeDegrees>
              <LongitudeDegrees>-0.3249065391719341278076171875</LongitudeDegrees>
            </Position>
            <AltitudeMeters>1748.5999755859375</AltitudeMeters>
            <DistanceMeters>7884.5214355458</DistanceMeters>
          </Trackpoint>
          <Trackpoint>
            <Time>2022-08-20T12:35:27.000Z</Time>
            <Position>
              <LatitudeDegrees>42.821966819465160369873046875</LatitudeDegrees>
              <LongitudeDegrees>-0.3247425891458988189697265625</LongitudeDegrees>
            </Position>
            <AltitudeMeters>1753</AltitudeMeters>
            <DistanceMeters>7901.6167388199</DistanceMeters>
          </Trackpoint>
          <Trackpoint>
            <Time>2022-08-20T12:35:34.000Z</Time>
            <Position>
              <LatitudeDegrees>42.8219378180801868438720703125</LatitudeDegrees>
              <LongitudeDegrees>-0.3247137553989887237548828125</LongitudeDegrees>
            </Position>
            <AltitudeMeters>1754</AltitudeMeters>
            <DistanceMeters>7905.6123833427</DistanceMeters>
          </Trackpoint>
          <Trackpoint>
            <Time>2022-08-20T12:35:46.000Z</Time>
            <Position>
              <LatitudeDegrees>42.82186531461775302886962890625</LatitudeDegrees>
              <LongitudeDegrees>-0.324617363512516021728515625</LongitudeDegrees>
            </Position>
            <AltitudeMeters>1758.199951171875</AltitudeMeters>
            <DistanceMeters>7916.8841700496</DistanceMeters>
          </Trackpoint>
          <Trackpoint>
            <Time>2022-08-20T12:36:00.000Z</Time>
            <Position>
              <LatitudeDegrees>42.82176959328353404998779296875</LatitudeDegrees>
              <LongitudeDegrees>-0.32456330023705959320068359375</LongitudeDegrees>
            </Position>
            <AltitudeMeters>1761.199951171875</AltitudeMeters>
            <DistanceMeters>7928.4165143849</DistanceMeters>
          </Trackpoint>
          <Trackpoint>
            <Time>2022-08-20T12:36:22.000Z</Time>
            <Position>
              <LatitudeDegrees>42.82169960439205169677734375</LatitudeDegrees>
              <LongitudeDegrees>-0.3244931437075138092041015625</LongitudeDegrees>
            </Position>
            <AltitudeMeters>1765.800048828125</AltitudeMeters>
            <DistanceMeters>7938.0849864124</DistanceMeters>
          </Trackpoint>
          <Trackpoint>
            <Time>2022-08-20T12:36:24.000Z</Time>
            <Position>
              <LatitudeDegrees>42.82168393023312091827392578125</LatitudeDegrees>
              <LongitudeDegrees>-0.32449674792587757110595703125</LongitudeDegrees>
            </Position>
            <AltitudeMeters>1765.800048828125</AltitudeMeters>
            <DistanceMeters>7939.855137967</DistanceMeters>
          </Trackpoint>
          <Trackpoint>
            <Time>2022-08-20T12:36:27.000Z</Time>
            <Position>
              <LatitudeDegrees>42.82166096381843090057373046875</LatitudeDegrees>
              <LongitudeDegrees>-0.3245068900287151336669921875</LongitudeDegrees>
            </Position>
            <AltitudeMeters>1765.199951171875</AltitudeMeters>
            <DistanceMeters>7942.542899332</DistanceMeters>
          </Trackpoint>
          <Trackpoint>
            <Time>2022-08-20T12:36:33.000Z</Time>
            <Position>
              <LatitudeDegrees>42.8216394223272800445556640625</LatitudeDegrees>
              <LongitudeDegrees>-0.32448803074657917022705078125</LongitudeDegrees>
            </Position>
            <AltitudeMeters>1766</AltitudeMeters>
            <DistanceMeters>7945.3937007631</DistanceMeters>
          </Trackpoint>
          <Trackpoint>
            <Time>2022-08-20T12:36:53.000Z</Time>
            <Position>
              <LatitudeDegrees>42.821511514484882354736328125</LatitudeDegrees>
              <LongitudeDegrees>-0.324489958584308624267578125</LongitudeDegrees>
            </Position>
            <AltitudeMeters>1763.5999755859375</AltitudeMeters>
            <DistanceMeters>7959.6312270937</DistanceMeters>
          </Trackpoint>
          <Trackpoint>
            <Time>2022-08-20T12:37:10.000Z</Time>
            <Position>
              <LatitudeDegrees>42.8214288689196109771728515625</LatitudeDegrees>
              <LongitudeDegrees>-0.32441812567412853240966796875</LongitudeDegrees>
            </Position>
            <AltitudeMeters>1766.800048828125</AltitudeMeters>
            <DistanceMeters>7970.5402773481</DistanceMeters>
          </Trackpoint>
          <Trackpoint>
            <Time>2022-08-20T12:37:13.000Z</Time>
            <Position>
              <LatitudeDegrees>42.82140883617103099822998046875</LatitudeDegrees>
              <LongitudeDegrees>-0.3244026191532611846923828125</LongitudeDegrees>
            </Position>
            <AltitudeMeters>1767.5999755859375</AltitudeMeters>
            <DistanceMeters>7973.1042382783</DistanceMeters>
          </Trackpoint>
          <Trackpoint>
            <Time>2022-08-20T12:37:40.000Z</Time>
            <Position>
              <LatitudeDegrees>42.82136675901710987091064453125</LatitudeDegrees>
              <LongitudeDegrees>-0.32417915761470794677734375</LongitudeDegrees>
            </Position>
            <AltitudeMeters>1777</AltitudeMeters>
            <DistanceMeters>7991.938715256</DistanceMeters>
          </Trackpoint>
          <Trackpoint>
            <Time>2022-08-20T12:38:04.000Z</Time>
            <Position>
              <LatitudeDegrees>42.821252010762691497802734375</LatitudeDegrees>
              <LongitudeDegrees>-0.324006490409374237060546875</LongitudeDegrees>
            </Position>
            <AltitudeMeters>1782</AltitudeMeters>
            <DistanceMeters>8010.9602058116</DistanceMeters>
          </Trackpoint>
          <Trackpoint>
            <Time>2022-08-20T12:38:10.000Z</Time>
            <Position>
              <LatitudeDegrees>42.82122552394866943359375</LatitudeDegrees>
              <LongitudeDegrees>-0.323962233960628509521484375</LongitudeDegrees>
            </Position>
            <AltitudeMeters>1782</AltitudeMeters>
            <DistanceMeters>8015.6232974981</DistanceMeters>
          </Trackpoint>
          <Trackpoint>
            <Time>2022-08-20T12:38:25.000Z</Time>
            <Position>
              <LatitudeDegrees>42.8211958520114421844482421875</LatitudeDegrees>
              <LongitudeDegrees>-0.32379417680203914642333984375</LongitudeDegrees>
            </Position>
            <AltitudeMeters>1783.4000244140625</AltitudeMeters>
            <DistanceMeters>8029.734684593</DistanceMeters>
          </Trackpoint>
          <Trackpoint>
            <Time>2022-08-20T12:38:43.000Z</Time>
            <Position>
              <LatitudeDegrees>42.82111027278006076812744140625</LatitudeDegrees>
              <LongitudeDegrees>-0.323582030832767486572265625</LongitudeDegrees>
            </Position>
            <AltitudeMeters>1785.4000244140625</AltitudeMeters>
            <DistanceMeters>8049.500241182</DistanceMeters>
          </Trackpoint>
          <Trackpoint>
            <Time>2022-08-20T12:38:50.000Z</Time>
            <Position>
              <LatitudeDegrees>42.82109585590660572052001953125</LatitudeDegrees>
              <LongitudeDegrees>-0.3235091082751750946044921875</LongitudeDegrees>
            </Position>
            <AltitudeMeters>1786.5999755859375</AltitudeMeters>
            <DistanceMeters>8055.6660032459</DistanceMeters>
          </Trackpoint>
          <Trackpoint>
            <Time>2022-08-20T12:38:57.000Z</Time>
            <Position>
              <LatitudeDegrees>42.82110339961946010589599609375</LatitudeDegrees>
              <LongitudeDegrees>-0.32341145910322666168212890625</LongitudeDegrees>
            </Position>
            <AltitudeMeters>1788.5999755859375</AltitudeMeters>
            <DistanceMeters>8063.6815502577</DistanceMeters>
          </Trackpoint>
          <Trackpoint>
            <Time>2022-08-20T12:39:02.000Z</Time>
            <Position>
              <LatitudeDegrees>42.82109132967889308929443359375</LatitudeDegrees>
              <LongitudeDegrees>-0.323345325887203216552734375</LongitudeDegrees>
            </Position>
            <AltitudeMeters>1789.199951171875</AltitudeMeters>
            <DistanceMeters>8069.2452812047</DistanceMeters>
          </Trackpoint>
          <Trackpoint>
            <Time>2022-08-20T12:39:10.000Z</Time>
            <Position>
              <LatitudeDegrees>42.82104103825986385345458984375</LatitudeDegrees>
              <LongitudeDegrees>-0.3232274763286113739013671875</LongitudeDegrees>
            </Position>
            <AltitudeMeters>1789.5999755859375</AltitudeMeters>
            <DistanceMeters>8080.375988676</DistanceMeters>
          </Trackpoint>
          <Trackpoint>
            <Time>2022-08-20T12:39:20.000Z</Time>
            <Position>
              <LatitudeDegrees>42.8209785930812358856201171875</LatitudeDegrees>
              <LongitudeDegrees>-0.323115997016429901123046875</LongitudeDegrees>
            </Position>
            <AltitudeMeters>1789.4000244140625</AltitudeMeters>
            <DistanceMeters>8091.8273977648</DistanceMeters>
          </Trackpoint>
          <Trackpoint>
            <Time>2022-08-20T12:39:26.000Z</Time>
            <Position>
              <LatitudeDegrees>42.8209661878645420074462890625</LatitudeDegrees>
              <LongitudeDegrees>-0.322984568774700164794921875</LongitudeDegrees>
            </Position>
            <AltitudeMeters>1790.199951171875</AltitudeMeters>
            <DistanceMeters>8102.645845934</DistanceMeters>
          </Trackpoint>
          <Trackpoint>
            <Time>2022-08-20T12:39:42.000Z</Time>
            <Position>
              <LatitudeDegrees>42.820989824831485748291015625</LatitudeDegrees>
              <LongitudeDegrees>-0.32273638062179088592529296875</LongitudeDegrees>
            </Position>
            <AltitudeMeters>1792.800048828125</AltitudeMeters>
            <DistanceMeters>8123.0776944555</DistanceMeters>
          </Trackpoint>
          <Trackpoint>
            <Time>2022-08-20T12:39:48.000Z</Time>
            <Position>
              <LatitudeDegrees>42.82100583426654338836669921875</LatitudeDegrees>
              <LongitudeDegrees>-0.3226444311439990997314453125</LongitudeDegrees>
            </Position>
            <AltitudeMeters>1794.4000244140625</AltitudeMeters>
            <DistanceMeters>8130.7930210149</DistanceMeters>
          </Trackpoint>
          <Trackpoint>
            <Time>2022-08-20T12:39:58.000Z</Time>
            <Position>
              <LatitudeDegrees>42.82103818841278553009033203125</LatitudeDegrees>
              <LongitudeDegrees>-0.322521217167377471923828125</LongitudeDegrees>
            </Position>
            <AltitudeMeters>1796</AltitudeMeters>
            <DistanceMeters>8141.4775063279</DistanceMeters>
          </Trackpoint>
          <Trackpoint>
            <Time>2022-08-20T12:40:01.000Z</Time>
            <Position>
              <LatitudeDegrees>42.8210406191647052764892578125</LatitudeDegrees>
              <LongitudeDegrees>-0.32252012751996517181396484375</LongitudeDegrees>
            </Position>
            <AltitudeMeters>1796</AltitudeMeters>
            <DistanceMeters>8141.762586471</DistanceMeters>
          </Trackpoint>
          <Trackpoint>
            <Time>2022-08-20T12:40:06.000Z</Time>
            <Position>
              <LatitudeDegrees>42.82103835605084896087646484375</LatitudeDegrees>
              <LongitudeDegrees>-0.3225277550518512725830078125</LongitudeDegrees>
            </Position>
            <AltitudeMeters>1795.800048828125</AltitudeMeters>
            <DistanceMeters>8142.4345268123</DistanceMeters>
          </Trackpoint>
          <Trackpoint>
            <Time>2022-08-20T12:40:09.000Z</Time>
            <Position>
              <LatitudeDegrees>42.82103785313665866851806640625</LatitudeDegrees>
              <LongitudeDegrees>-0.3225227259099483489990234375</LongitudeDegrees>
            </Position>
            <AltitudeMeters>1795.800048828125</AltitudeMeters>
            <DistanceMeters>8142.8594991983</DistanceMeters>
          </Trackpoint>
          <Trackpoint>
            <Time>2022-08-20T12:40:43.000Z</Time>
            <Position>
              <LatitudeDegrees>42.82100868411362171173095703125</LatitudeDegrees>
              <LongitudeDegrees>-0.32253286801278591156005859375</LongitudeDegrees>
            </Position>
            <AltitudeMeters>1794.800048828125</AltitudeMeters>
            <DistanceMeters>8146.2111279212</DistanceMeters>
          </Trackpoint>
          <Trackpoint>
            <Time>2022-08-20T12:45:03.000Z</Time>
            <Position>
              <LatitudeDegrees>42.8210096061229705810546875</LatitudeDegrees>
              <LongitudeDegrees>-0.32254393212497234344482421875</LongitudeDegrees>
            </Position>
            <AltitudeMeters>1794.800048828125</AltitudeMeters>
            <DistanceMeters>8147.1126304891</DistanceMeters>
          </Trackpoint>
          <Trackpoint>
            <Time>2022-08-20T12:45:04.000Z</Time>
            <Position>
              <LatitudeDegrees>42.82101295888423919677734375</LatitudeDegrees>
              <LongitudeDegrees>-0.3225415013730525970458984375</LongitudeDegrees>
            </Position>
            <AltitudeMeters>1795</AltitudeMeters>
            <DistanceMeters>8147.526842334</DistanceMeters>
          </Trackpoint>
          <Trackpoint>
            <Time>2022-08-20T12:45:06.000Z</Time>
            <Position>
              <LatitudeDegrees>42.8210131265223026275634765625</LatitudeDegrees>
              <LongitudeDegrees>-0.32253722660243511199951171875</LongitudeDegrees>
            </Position>
            <AltitudeMeters>1795</AltitudeMeters>
            <DistanceMeters>8147.8694660252</DistanceMeters>
          </Trackpoint>
          <Trackpoint>
            <Time>2022-08-20T12:45:12.000Z</Time>
            <Position>
              <LatitudeDegrees>42.821013294160366058349609375</LatitudeDegrees>
              <LongitudeDegrees>-0.32252549193799495697021484375</LongitudeDegrees>
            </Position>
            <AltitudeMeters>1795</AltitudeMeters>
            <DistanceMeters>8148.8291887963</DistanceMeters>
          </Trackpoint>
          <Trackpoint>
            <Time>2022-08-20T12:45:13.000Z</Time>
            <Position>
              <LatitudeDegrees>42.82101153396070003509521484375</LatitudeDegrees>
              <LongitudeDegrees>-0.32251912169158458709716796875</LongitudeDegrees>
            </Position>
            <AltitudeMeters>1795</AltitudeMeters>
            <DistanceMeters>8149.3832849965</DistanceMeters>
          </Trackpoint>
          <Trackpoint>
            <Time>2022-08-20T12:45:15.000Z</Time>
            <Position>
              <LatitudeDegrees>42.8210114501416683197021484375</LatitudeDegrees>
              <LongitudeDegrees>-0.322511829435825347900390625</LongitudeDegrees>
            </Position>
            <AltitudeMeters>1795</AltitudeMeters>
            <DistanceMeters>8149.9767266375</DistanceMeters>
          </Trackpoint>
          <Trackpoint>
            <Time>2022-08-20T12:45:17.000Z</Time>
            <Position>
              <LatitudeDegrees>42.82102092169225215911865234375</LatitudeDegrees>
              <LongitudeDegrees>-0.3225039504468441009521484375</LongitudeDegrees>
            </Position>
            <AltitudeMeters>1795.4000244140625</AltitudeMeters>
            <DistanceMeters>8151.208413628</DistanceMeters>
          </Trackpoint>
          <Trackpoint>
            <Time>2022-08-20T12:45:22.000Z</Time>
            <Position>
              <LatitudeDegrees>42.82103869132697582244873046875</LatitudeDegrees>
              <LongitudeDegrees>-0.32245449721813201904296875</LongitudeDegrees>
            </Position>
            <AltitudeMeters>1796.199951171875</AltitudeMeters>
            <DistanceMeters>8155.7038903638</DistanceMeters>
          </Trackpoint>
          <Trackpoint>
            <Time>2022-08-20T12:45:25.000Z</Time>
            <Position>
              <LatitudeDegrees>42.82106299884617328643798828125</LatitudeDegrees>
              <LongitudeDegrees>-0.3224231489002704620361328125</LongitudeDegrees>
            </Position>
            <AltitudeMeters>1797.5999755859375</AltitudeMeters>
            <DistanceMeters>8159.4269492327</DistanceMeters>
          </Trackpoint>
          <Trackpoint>
            <Time>2022-08-20T12:45:27.000Z</Time>
            <Position>
              <LatitudeDegrees>42.82106752507388591766357421875</LatitudeDegrees>
              <LongitudeDegrees>-0.32240747474133968353271484375</LongitudeDegrees>
            </Position>
            <AltitudeMeters>1798</AltitudeMeters>
            <DistanceMeters>8160.8007345058</DistanceMeters>
          </Trackpoint>
          <Trackpoint>
            <Time>2022-08-20T12:45:33.000Z</Time>
            <Position>
              <LatitudeDegrees>42.82108915038406848907470703125</LatitudeDegrees>
              <LongitudeDegrees>-0.32235927879810333251953125</LongitudeDegrees>
            </Position>
            <AltitudeMeters>1799.5999755859375</AltitudeMeters>
            <DistanceMeters>8165.414181176</DistanceMeters>
          </Trackpoint>
          <Trackpoint>
            <Time>2022-08-20T12:45:42.000Z</Time>
            <Position>
              <LatitudeDegrees>42.8211210854351520538330078125</LatitudeDegrees>
              <LongitudeDegrees>-0.322281159460544586181640625</LongitudeDegrees>
            </Position>
            <AltitudeMeters>1802.199951171875</AltitudeMeters>
            <DistanceMeters>8172.7157954718</DistanceMeters>
          </Trackpoint>
          <Trackpoint>
            <Time>2022-08-20T12:45:45.000Z</Time>
            <Position>
              <LatitudeDegrees>42.8211348317563533782958984375</LatitudeDegrees>
              <LongitudeDegrees>-0.3222555108368396759033203125</LongitudeDegrees>
            </Position>
            <AltitudeMeters>1803.199951171875</AltitudeMeters>
            <DistanceMeters>8175.3077786651</DistanceMeters>
          </Trackpoint>
          <Trackpoint>
            <Time>2022-08-20T12:45:46.000Z</Time>
            <Position>
              <LatitudeDegrees>42.8211368434131145477294921875</LatitudeDegrees>
              <LongitudeDegrees>-0.3222504816949367523193359375</LongitudeDegrees>
            </Position>
            <AltitudeMeters>1803.4000244140625</AltitudeMeters>
            <DistanceMeters>8175.7733125894</DistanceMeters>
          </Trackpoint>
          <Trackpoint>
            <Time>2022-08-20T12:46:15.000Z</Time>
            <Position>
              <LatitudeDegrees>42.8212069161236286163330078125</LatitudeDegrees>
              <LongitudeDegrees>-0.32205082476139068603515625</LongitudeDegrees>
            </Position>
            <AltitudeMeters>1807.800048828125</AltitudeMeters>
            <DistanceMeters>8193.8428865761</DistanceMeters>
          </Trackpoint>
          <Trackpoint>
            <Time>2022-08-20T12:46:28.000Z</Time>
            <Position>
              <LatitudeDegrees>42.82124354504048824310302734375</LatitudeDegrees>
              <LongitudeDegrees>-0.32196097075939178466796875</LongitudeDegrees>
            </Position>
            <AltitudeMeters>1810.800048828125</AltitudeMeters>
            <DistanceMeters>8202.2354187484</DistanceMeters>
          </Trackpoint>
          <Trackpoint>
            <Time>2022-08-20T12:46:35.000Z</Time>
            <Position>
              <LatitudeDegrees>42.82123767770826816558837890625</LatitudeDegrees>
              <LongitudeDegrees>-0.3218890540301799774169921875</LongitudeDegrees>
            </Position>
            <AltitudeMeters>1810.4000244140625</AltitudeMeters>
            <DistanceMeters>8208.1423820443</DistanceMeters>
          </Trackpoint>
          <Trackpoint>
            <Time>2022-08-20T12:46:50.000Z</Time>
            <Position>
              <LatitudeDegrees>42.8212545253336429595947265625</LatitudeDegrees>
              <LongitudeDegrees>-0.3218072466552257537841796875</LongitudeDegrees>
            </Position>
            <AltitudeMeters>1810</AltitudeMeters>
            <DistanceMeters>8215.0786812949</DistanceMeters>
          </Trackpoint>
          <Trackpoint>
            <Time>2022-08-20T12:47:13.000Z</Time>
            <Position>
              <LatitudeDegrees>42.82136089168488979339599609375</LatitudeDegrees>
              <LongitudeDegrees>-0.32160800881683826446533203125</LongitudeDegrees>
            </Position>
            <AltitudeMeters>1813.5999755859375</AltitudeMeters>
            <DistanceMeters>8235.1960858508</DistanceMeters>
          </Trackpoint>
          <Trackpoint>
            <Time>2022-08-20T12:47:35.000Z</Time>
            <Position>
              <LatitudeDegrees>42.8214479796588420867919921875</LatitudeDegrees>
              <LongitudeDegrees>-0.32139074988663196563720703125</LongitudeDegrees>
            </Position>
            <AltitudeMeters>1815.199951171875</AltitudeMeters>
            <DistanceMeters>8255.4084265979</DistanceMeters>
          </Trackpoint>
          <Trackpoint>
            <Time>2022-08-20T12:47:46.000Z</Time>
            <Position>
              <LatitudeDegrees>42.8214865364134311676025390625</LatitudeDegrees>
              <LongitudeDegrees>-0.3212664462625980377197265625</LongitudeDegrees>
            </Position>
            <AltitudeMeters>1815.800048828125</AltitudeMeters>
            <DistanceMeters>8266.4266091936</DistanceMeters>
          </Trackpoint>
          <Trackpoint>
            <Time>2022-08-20T12:48:07.000Z</Time>
            <Position>
              <LatitudeDegrees>42.821508832275867462158203125</LatitudeDegrees>
              <LongitudeDegrees>-0.32102060504257678985595703125</LongitudeDegrees>
            </Position>
            <AltitudeMeters>1815.4000244140625</AltitudeMeters>
            <DistanceMeters>8286.6492228228</DistanceMeters>
          </Trackpoint>
          <Trackpoint>
            <Time>2022-08-20T12:48:15.000Z</Time>
            <Position>
              <LatitudeDegrees>42.821502126753330230712890625</LatitudeDegrees>
              <LongitudeDegrees>-0.3209462575614452362060546875</LongitudeDegrees>
            </Position>
            <AltitudeMeters>1816.199951171875</AltitudeMeters>
            <DistanceMeters>8292.7649874218</DistanceMeters>
          </Trackpoint>
          <Trackpoint>
            <Time>2022-08-20T12:48:19.000Z</Time>
            <Position>
              <LatitudeDegrees>42.82150221057236194610595703125</LatitudeDegrees>
              <LongitudeDegrees>-0.32089118845760822296142578125</LongitudeDegrees>
            </Position>
            <AltitudeMeters>1817</AltitudeMeters>
            <DistanceMeters>8297.2604641576</DistanceMeters>
          </Trackpoint>
          <Trackpoint>
            <Time>2022-08-20T12:48:23.000Z</Time>
            <Position>
              <LatitudeDegrees>42.82150447368621826171875</LatitudeDegrees>
              <LongitudeDegrees>-0.32084709964692592620849609375</LongitudeDegrees>
            </Position>
            <AltitudeMeters>1817.5999755859375</AltitudeMeters>
            <DistanceMeters>8300.8689777341</DistanceMeters>
          </Trackpoint>
          <Trackpoint>
            <Time>2022-08-20T12:48:45.000Z</Time>
            <Position>
              <LatitudeDegrees>42.82142057083547115325927734375</LatitudeDegrees>
              <LongitudeDegrees>-0.32062380574643611907958984375</LongitudeDegrees>
            </Position>
            <AltitudeMeters>1818.800048828125</AltitudeMeters>
            <DistanceMeters>8321.3509273815</DistanceMeters>
          </Trackpoint>
          <Trackpoint>
            <Time>2022-08-20T12:48:46.000Z</Time>
            <Position>
              <LatitudeDegrees>42.82141369767487049102783203125</LatitudeDegrees>
              <LongitudeDegrees>-0.32060754485428333282470703125</LongitudeDegrees>
            </Position>
            <AltitudeMeters>1818.800048828125</AltitudeMeters>
            <DistanceMeters>8322.8831871099</DistanceMeters>
          </Trackpoint>
          <Trackpoint>
            <Time>2022-08-20T12:49:03.000Z</Time>
            <Position>
              <LatitudeDegrees>42.82137103378772735595703125</LatitudeDegrees>
              <LongitudeDegrees>-0.3203719295561313629150390625</LongitudeDegrees>
            </Position>
            <AltitudeMeters>1822.800048828125</AltitudeMeters>
            <DistanceMeters>8342.6959722018</DistanceMeters>
          </Trackpoint>
          <Trackpoint>
            <Time>2022-08-20T12:49:22.000Z</Time>
            <Position>
              <LatitudeDegrees>42.821231894195079803466796875</LatitudeDegrees>
              <LongitudeDegrees>-0.32022231258451938629150390625</LongitudeDegrees>
            </Position>
            <AltitudeMeters>1822.4000244140625</AltitudeMeters>
            <DistanceMeters>8362.4199107881</DistanceMeters>
          </Trackpoint>
          <Trackpoint>
            <Time>2022-08-20T12:49:38.000Z</Time>
            <Position>
              <LatitudeDegrees>42.82107322476804256439208984375</LatitudeDegrees>
              <LongitudeDegrees>-0.32010412774980068206787109375</LongitudeDegrees>
            </Position>
            <AltitudeMeters>1819.5999755859375</AltitudeMeters>
            <DistanceMeters>8382.5440472506</DistanceMeters>
          </Trackpoint>
          <Trackpoint>
            <Time>2022-08-20T12:49:55.000Z</Time>
            <Position>
              <LatitudeDegrees>42.82091212458908557891845703125</LatitudeDegrees>
              <LongitudeDegrees>-0.31998912803828716278076171875</LongitudeDegrees>
            </Position>
            <AltitudeMeters>1816</AltitudeMeters>
            <DistanceMeters>8402.7840681981</DistanceMeters>
          </Trackpoint>
          <Trackpoint>
            <Time>2022-08-20T12:50:10.000Z</Time>
            <Position>
              <LatitudeDegrees>42.8207834623754024505615234375</LatitudeDegrees>
              <LongitudeDegrees>-0.319800786674022674560546875</LongitudeDegrees>
            </Position>
            <AltitudeMeters>1818.5999755859375</AltitudeMeters>
            <DistanceMeters>8423.7955040687</DistanceMeters>
          </Trackpoint>
          <Trackpoint>
            <Time>2022-08-20T12:50:26.000Z</Time>
            <Position>
              <LatitudeDegrees>42.82074750401079654693603515625</LatitudeDegrees>
              <LongitudeDegrees>-0.31960389576852321624755859375</LongitudeDegrees>
            </Position>
            <AltitudeMeters>1821.199951171875</AltitudeMeters>
            <DistanceMeters>8440.3601623153</DistanceMeters>
          </Trackpoint>
          <Trackpoint>
            <Time>2022-08-20T12:50:27.000Z</Time>
            <Position>
              <LatitudeDegrees>42.82074364833533763885498046875</LatitudeDegrees>
              <LongitudeDegrees>-0.319596268236637115478515625</LongitudeDegrees>
            </Position>
            <AltitudeMeters>1821.4000244140625</AltitudeMeters>
            <DistanceMeters>8441.1203760303</DistanceMeters>
          </Trackpoint>
          <Trackpoint>
            <Time>2022-08-20T12:50:41.000Z</Time>
            <Position>
              <LatitudeDegrees>42.820680029690265655517578125</LatitudeDegrees>
              <LongitudeDegrees>-0.31946559436619281768798828125</LongitudeDegrees>
            </Position>
            <AltitudeMeters>1822.4000244140625</AltitudeMeters>
            <DistanceMeters>8453.9246748364</DistanceMeters>
          </Trackpoint>
          <Trackpoint>
            <Time>2022-08-20T12:50:43.000Z</Time>
            <Position>
              <LatitudeDegrees>42.8206651099026203155517578125</LatitudeDegrees>
              <LongitudeDegrees>-0.319462157785892486572265625</LongitudeDegrees>
            </Position>
            <AltitudeMeters>1822</AltitudeMeters>
            <DistanceMeters>8455.6085525052</DistanceMeters>
          </Trackpoint>
          <Trackpoint>
            <Time>2022-08-20T12:50:44.000Z</Time>
            <Position>
              <LatitudeDegrees>42.8206570632755756378173828125</LatitudeDegrees>
              <LongitudeDegrees>-0.3194619901478290557861328125</LongitudeDegrees>
            </Position>
            <AltitudeMeters>1821.5999755859375</AltitudeMeters>
            <DistanceMeters>8456.4999821025</DistanceMeters>
          </Trackpoint>
          <Trackpoint>
            <Time>2022-08-20T12:50:45.000Z</Time>
            <Position>
              <LatitudeDegrees>42.82064625062048435211181640625</LatitudeDegrees>
              <LongitudeDegrees>-0.31946249306201934814453125</LongitudeDegrees>
            </Position>
            <AltitudeMeters>1821.199951171875</AltitudeMeters>
            <DistanceMeters>8457.7094747168</DistanceMeters>
          </Trackpoint>
          <Trackpoint>
            <Time>2022-08-20T12:51:01.000Z</Time>
            <Position>
              <LatitudeDegrees>42.82046712934970855712890625</LatitudeDegrees>
              <LongitudeDegrees>-0.3194894827902317047119140625</LongitudeDegrees>
            </Position>
            <AltitudeMeters>1819.4000244140625</AltitudeMeters>
            <DistanceMeters>8477.7670908695</DistanceMeters>
          </Trackpoint>
          <Trackpoint>
            <Time>2022-08-20T12:51:18.000Z</Time>
            <Position>
              <LatitudeDegrees>42.8202879242599010467529296875</LatitudeDegrees>
              <LongitudeDegrees>-0.31942888163030147552490234375</LongitudeDegrees>
            </Position>
            <AltitudeMeters>1821.199951171875</AltitudeMeters>
            <DistanceMeters>8498.3172632546</DistanceMeters>
          </Trackpoint>
          <Trackpoint>
            <Time>2022-08-20T12:51:35.000Z</Time>
            <Position>
              <LatitudeDegrees>42.8201430849730968475341796875</LatitudeDegrees>
              <LongitudeDegrees>-0.31929594464600086212158203125</LongitudeDegrees>
            </Position>
            <AltitudeMeters>1827.199951171875</AltitudeMeters>
            <DistanceMeters>8517.7510975956</DistanceMeters>
          </Trackpoint>
          <Trackpoint>
            <Time>2022-08-20T12:51:53.000Z</Time>
            <Position>
              <LatitudeDegrees>42.82015155069530010223388671875</LatitudeDegrees>
              <LongitudeDegrees>-0.3191022388637065887451171875</LongitudeDegrees>
            </Position>
            <AltitudeMeters>1830.199951171875</AltitudeMeters>
            <DistanceMeters>8533.5932222828</DistanceMeters>
          </Trackpoint>
          <Trackpoint>
            <Time>2022-08-20T12:51:55.000Z</Time>
            <Position>
              <LatitudeDegrees>42.82015574164688587188720703125</LatitudeDegrees>
              <LongitudeDegrees>-0.31908740289509296417236328125</LongitudeDegrees>
            </Position>
            <AltitudeMeters>1830.5999755859375</AltitudeMeters>
            <DistanceMeters>8534.8926930578</DistanceMeters>
          </Trackpoint>
          <Trackpoint>
            <Time>2022-08-20T12:51:57.000Z</Time>
            <Position>
              <LatitudeDegrees>42.82015859149396419525146484375</LatitudeDegrees>
              <LongitudeDegrees>-0.31907265074551105499267578125</LongitudeDegrees>
            </Position>
            <AltitudeMeters>1831</AltitudeMeters>
            <DistanceMeters>8536.1389567331</DistanceMeters>
          </Trackpoint>
          <Trackpoint>
            <Time>2022-08-20T12:52:00.000Z</Time>
            <Position>
              <LatitudeDegrees>42.82015708275139331817626953125</LatitudeDegrees>
              <LongitudeDegrees>-0.31903962604701519012451171875</LongitudeDegrees>
            </Position>
            <AltitudeMeters>1831.800048828125</AltitudeMeters>
            <DistanceMeters>8538.8401234748</DistanceMeters>
          </Trackpoint>
          <Trackpoint>
            <Time>2022-08-20T12:52:07.000Z</Time>
            <Position>
              <LatitudeDegrees>42.82015641219913959503173828125</LatitudeDegrees>
              <LongitudeDegrees>-0.31896620057523250579833984375</LongitudeDegrees>
            </Position>
            <AltitudeMeters>1832.5999755859375</AltitudeMeters>
            <DistanceMeters>8544.8343435384</DistanceMeters>
          </Trackpoint>
          <Trackpoint>
            <Time>2022-08-20T12:52:09.000Z</Time>
            <Position>
              <LatitudeDegrees>42.8201538138091564178466796875</LatitudeDegrees>
              <LongitudeDegrees>-0.31894088722765445709228515625</LongitudeDegrees>
            </Position>
            <AltitudeMeters>1832.800048828125</AltitudeMeters>
            <DistanceMeters>8546.920607387</DistanceMeters>
          </Trackpoint>
          <Trackpoint>
            <Time>2022-08-20T12:52:18.000Z</Time>
            <Position>
              <LatitudeDegrees>42.8201719187200069427490234375</LatitudeDegrees>
              <LongitudeDegrees>-0.31884952448308467864990234375</LongitudeDegrees>
            </Position>
            <AltitudeMeters>1834</AltitudeMeters>
            <DistanceMeters>8554.6464604334</DistanceMeters>
          </Trackpoint>
          <Trackpoint>
            <Time>2022-08-20T12:52:19.000Z</Time>
            <Position>
              <LatitudeDegrees>42.82017267309129238128662109375</LatitudeDegrees>
              <LongitudeDegrees>-0.31883762218058109283447265625</LongitudeDegrees>
            </Position>
            <AltitudeMeters>1834.199951171875</AltitudeMeters>
            <DistanceMeters>8555.6155465752</DistanceMeters>
          </Trackpoint>
          <Trackpoint>
            <Time>2022-08-20T12:52:30.000Z</Time>
            <Position>
              <LatitudeDegrees>42.820174433290958404541015625</LatitudeDegrees>
              <LongitudeDegrees>-0.31873167492449283599853515625</LongitudeDegrees>
            </Position>
            <AltitudeMeters>1838</AltitudeMeters>
            <DistanceMeters>8564.267153573</DistanceMeters>
          </Trackpoint>
          <Trackpoint>
            <Time>2022-08-20T12:52:31.000Z</Time>
            <Position>
              <LatitudeDegrees>42.82017409801483154296875</LatitudeDegrees>
              <LongitudeDegrees>-0.3187206946313381195068359375</LongitudeDegrees>
            </Position>
            <AltitudeMeters>1838.199951171875</AltitudeMeters>
            <DistanceMeters>8565.1636338034</DistanceMeters>
          </Trackpoint>
          <Trackpoint>
            <Time>2022-08-20T12:52:32.000Z</Time>
            <Position>
              <LatitudeDegrees>42.82017585821449756622314453125</LatitudeDegrees>
              <LongitudeDegrees>-0.31871306709945201873779296875</LongitudeDegrees>
            </Position>
            <AltitudeMeters>1838.4000244140625</AltitudeMeters>
            <DistanceMeters>8565.8081363374</DistanceMeters>
          </Trackpoint>
          <Trackpoint>
            <Time>2022-08-20T12:52:53.000Z</Time>
            <Position>
              <LatitudeDegrees>42.82021324150264263153076171875</LatitudeDegrees>
              <LongitudeDegrees>-0.31846613623201847076416015625</LongitudeDegrees>
            </Position>
            <AltitudeMeters>1846.199951171875</AltitudeMeters>
            <DistanceMeters>8586.3921159533</DistanceMeters>
          </Trackpoint>
          <Trackpoint>
            <Time>2022-08-20T12:53:12.000Z</Time>
            <Position>
              <LatitudeDegrees>42.8201782889664173126220703125</LatitudeDegrees>
              <LongitudeDegrees>-0.3182948939502239227294921875</LongitudeDegrees>
            </Position>
            <AltitudeMeters>1850.4000244140625</AltitudeMeters>
            <DistanceMeters>8600.9038495765</DistanceMeters>
          </Trackpoint>
          <Trackpoint>
            <Time>2022-08-20T12:53:42.000Z</Time>
            <Position>
              <LatitudeDegrees>42.82015926204621791839599609375</LatitudeDegrees>
              <LongitudeDegrees>-0.318074114620685577392578125</LongitudeDegrees>
            </Position>
            <AltitudeMeters>1857.199951171875</AltitudeMeters>
            <DistanceMeters>8619.0522106104</DistanceMeters>
          </Trackpoint>
          <Trackpoint>
            <Time>2022-08-20T12:54:14.000Z</Time>
            <Position>
              <LatitudeDegrees>42.82017854042351245880126953125</LatitudeDegrees>
              <LongitudeDegrees>-0.3178513236343860626220703125</LongitudeDegrees>
            </Position>
            <AltitudeMeters>1864.5999755859375</AltitudeMeters>
            <DistanceMeters>8637.3667455352</DistanceMeters>
          </Trackpoint>
          <Trackpoint>
            <Time>2022-08-20T12:54:34.000Z</Time>
            <Position>
              <LatitudeDegrees>42.820175774395465850830078125</LatitudeDegrees>
              <LongitudeDegrees>-0.31770153902471065521240234375</LongitudeDegrees>
            </Position>
            <AltitudeMeters>1868.800048828125</AltitudeMeters>
            <DistanceMeters>8649.5990129732</DistanceMeters>
          </Trackpoint>
          <Trackpoint>
            <Time>2022-08-20T12:55:05.000Z</Time>
            <Position>
              <LatitudeDegrees>42.820222377777099609375</LatitudeDegrees>
              <LongitudeDegrees>-0.3174644149839878082275390625</LongitudeDegrees>
            </Position>
            <AltitudeMeters>1873.5999755859375</AltitudeMeters>
            <DistanceMeters>8669.6404151255</DistanceMeters>
          </Trackpoint>
          <Trackpoint>
            <Time>2022-08-20T12:55:16.000Z</Time>
            <Position>
              <LatitudeDegrees>42.8202574141323566436767578125</LatitudeDegrees>
              <LongitudeDegrees>-0.317436419427394866943359375</LongitudeDegrees>
            </Position>
            <AltitudeMeters>1874.4000244140625</AltitudeMeters>
            <DistanceMeters>8674.1589328957</DistanceMeters>
          </Trackpoint>
          <Trackpoint>
            <Time>2022-08-20T12:55:40.000Z</Time>
            <Position>
              <LatitudeDegrees>42.82032002694904804229736328125</LatitudeDegrees>
              <LongitudeDegrees>-0.3172664344310760498046875</LongitudeDegrees>
            </Position>
            <AltitudeMeters>1876.5999755859375</AltitudeMeters>
            <DistanceMeters>8689.6878797832</DistanceMeters>
          </Trackpoint>
          <Trackpoint>
            <Time>2022-08-20T12:55:51.000Z</Time>
            <Position>
              <LatitudeDegrees>42.8203392215073108673095703125</LatitudeDegrees>
              <LongitudeDegrees>-0.31718437559902667999267578125</LongitudeDegrees>
            </Position>
            <AltitudeMeters>1877.5999755859375</AltitudeMeters>
            <DistanceMeters>8696.7198566466</DistanceMeters>
          </Trackpoint>
          <Trackpoint>
            <Time>2022-08-20T12:56:14.000Z</Time>
            <Position>
              <LatitudeDegrees>42.8203958831727504730224609375</LatitudeDegrees>
              <LongitudeDegrees>-0.3169413842260837554931640625</LongitudeDegrees>
            </Position>
            <AltitudeMeters>1881.199951171875</AltitudeMeters>
            <DistanceMeters>8717.5356964828</DistanceMeters>
          </Trackpoint>
          <Trackpoint>
            <Time>2022-08-20T12:56:36.000Z</Time>
            <Position>
              <LatitudeDegrees>42.820414490997791290283203125</LatitudeDegrees>
              <LongitudeDegrees>-0.31671599484980106353759765625</LongitudeDegrees>
            </Position>
            <AltitudeMeters>1884.199951171875</AltitudeMeters>
            <DistanceMeters>8736.0524997322</DistanceMeters>
          </Trackpoint>
          <Trackpoint>
            <Time>2022-08-20T12:56:51.000Z</Time>
            <Position>
              <LatitudeDegrees>42.82032472081482410430908203125</LatitudeDegrees>
              <LongitudeDegrees>-0.3165578283369541168212890625</LongitudeDegrees>
            </Position>
            <AltitudeMeters>1883.199951171875</AltitudeMeters>
            <DistanceMeters>8752.3791291011</DistanceMeters>
          </Trackpoint>
          <Trackpoint>
            <Time>2022-08-20T12:57:06.000Z</Time>
            <Position>
              <LatitudeDegrees>42.82033461146056652069091796875</LatitudeDegrees>
              <LongitudeDegrees>-0.31636722385883331298828125</LongitudeDegrees>
            </Position>
            <AltitudeMeters>1886.800048828125</AltitudeMeters>
            <DistanceMeters>8767.978568194</DistanceMeters>
          </Trackpoint>
          <Trackpoint>
            <Time>2022-08-20T12:57:07.000Z</Time>
            <Position>
              <LatitudeDegrees>42.82033712603151798248291015625</LatitudeDegrees>
              <LongitudeDegrees>-0.316361524164676666259765625</LongitudeDegrees>
            </Position>
            <AltitudeMeters>1886.800048828125</AltitudeMeters>
            <DistanceMeters>8768.5244551078</DistanceMeters>
          </Trackpoint>
          <Trackpoint>
            <Time>2022-08-20T12:57:08.000Z</Time>
            <Position>
              <LatitudeDegrees>42.82033829949796199798583984375</LatitudeDegrees>
              <LongitudeDegrees>-0.31635825522243976593017578125</LongitudeDegrees>
            </Position>
            <AltitudeMeters>1887</AltitudeMeters>
            <DistanceMeters>8768.8249559637</DistanceMeters>
          </Trackpoint>
          <Trackpoint>
            <Time>2022-08-20T12:57:10.000Z</Time>
            <Position>
              <LatitudeDegrees>42.82034416683018207550048828125</LatitudeDegrees>
              <LongitudeDegrees>-0.3163397312164306640625</LongitudeDegrees>
            </Position>
            <AltitudeMeters>1887.4000244140625</AltitudeMeters>
            <DistanceMeters>8770.4763441937</DistanceMeters>
          </Trackpoint>
          <Trackpoint>
            <Time>2022-08-20T12:57:12.000Z</Time>
            <Position>
              <LatitudeDegrees>42.82034601084887981414794921875</LatitudeDegrees>
              <LongitudeDegrees>-0.31632036902010440826416015625</LongitudeDegrees>
            </Position>
            <AltitudeMeters>1887.800048828125</AltitudeMeters>
            <DistanceMeters>8772.0721140885</DistanceMeters>
          </Trackpoint>
          <Trackpoint>
            <Time>2022-08-20T12:57:23.000Z</Time>
            <Position>
              <LatitudeDegrees>42.82035506330430507659912109375</LatitudeDegrees>
              <LongitudeDegrees>-0.3162074647843837738037109375</LongitudeDegrees>
            </Position>
            <AltitudeMeters>1891</AltitudeMeters>
            <DistanceMeters>8781.3448907977</DistanceMeters>
          </Trackpoint>
          <Trackpoint>
            <Time>2022-08-20T12:57:37.000Z</Time>
            <Position>
              <LatitudeDegrees>42.82034617848694324493408203125</LatitudeDegrees>
              <LongitudeDegrees>-0.31596229411661624908447265625</LongitudeDegrees>
            </Position>
            <AltitudeMeters>1896.5999755859375</AltitudeMeters>
            <DistanceMeters>8801.3844905846</DistanceMeters>
          </Trackpoint>
          <Trackpoint>
            <Time>2022-08-20T12:57:54.000Z</Time>
            <Position>
              <LatitudeDegrees>42.82028985209763050079345703125</LatitudeDegrees>
              <LongitudeDegrees>-0.3157246671617031097412109375</LongitudeDegrees>
            </Position>
            <AltitudeMeters>1899.5999755859375</AltitudeMeters>
            <DistanceMeters>8821.7720951205</DistanceMeters>
          </Trackpoint>
          <Trackpoint>
            <Time>2022-08-20T12:58:10.000Z</Time>
            <Position>
              <LatitudeDegrees>42.82026671804487705230712890625</LatitudeDegrees>
              <LongitudeDegrees>-0.31547605991363525390625</LongitudeDegrees>
            </Position>
            <AltitudeMeters>1903.4000244140625</AltitudeMeters>
            <DistanceMeters>8842.2306647982</DistanceMeters>
          </Trackpoint>
          <Trackpoint>
            <Time>2022-08-20T12:58:24.000Z</Time>
            <Position>
              <LatitudeDegrees>42.82024157233536243438720703125</LatitudeDegrees>
              <LongitudeDegrees>-0.3152291290462017059326171875</LongitudeDegrees>
            </Position>
            <AltitudeMeters>1906.199951171875</AltitudeMeters>
            <DistanceMeters>8862.583248581</DistanceMeters>
          </Trackpoint>
          <Trackpoint>
            <Time>2022-08-20T12:58:27.000Z</Time>
            <Position>
              <LatitudeDegrees>42.82023821957409381866455078125</LatitudeDegrees>
              <LongitudeDegrees>-0.3151774965226650238037109375</LongitudeDegrees>
            </Position>
            <AltitudeMeters>1906.5999755859375</AltitudeMeters>
            <DistanceMeters>8866.8138054607</DistanceMeters>
          </Trackpoint>
          <Trackpoint>
            <Time>2022-08-20T12:58:44.000Z</Time>
            <Position>
              <LatitudeDegrees>42.820126153528690338134765625</LatitudeDegrees>
              <LongitudeDegrees>-0.3149723075330257415771484375</LongitudeDegrees>
            </Position>
            <AltitudeMeters>1903.5999755859375</AltitudeMeters>
            <DistanceMeters>8887.6989392297</DistanceMeters>
          </Trackpoint>
          <Trackpoint>
            <Time>2022-08-20T12:58:58.000Z</Time>
            <Position>
              <LatitudeDegrees>42.82006077468395233154296875</LatitudeDegrees>
              <LongitudeDegrees>-0.314772985875606536865234375</LongitudeDegrees>
            </Position>
            <AltitudeMeters>1902</AltitudeMeters>
            <DistanceMeters>8905.5239853658</DistanceMeters>
          </Trackpoint>
          <Trackpoint>
            <Time>2022-08-20T12:59:17.000Z</Time>
            <Position>
              <LatitudeDegrees>42.82003370113670825958251953125</LatitudeDegrees>
              <LongitudeDegrees>-0.31452856957912445068359375</LongitudeDegrees>
            </Position>
            <AltitudeMeters>1903.199951171875</AltitudeMeters>
            <DistanceMeters>8925.7041337169</DistanceMeters>
          </Trackpoint>
          <Trackpoint>
            <Time>2022-08-20T12:59:25.000Z</Time>
            <Position>
              <LatitudeDegrees>42.82007376663386821746826171875</LatitudeDegrees>
              <LongitudeDegrees>-0.3144620172679424285888671875</LongitudeDegrees>
            </Position>
            <AltitudeMeters>1905</AltitudeMeters>
            <DistanceMeters>8932.7335418215</DistanceMeters>
          </Trackpoint>
          <Trackpoint>
            <Time>2022-08-20T12:59:27.000Z</Time>
            <Position>
              <LatitudeDegrees>42.82007762230932712554931640625</LatitudeDegrees>
              <LongitudeDegrees>-0.31445304863154888153076171875</LongitudeDegrees>
            </Position>
            <AltitudeMeters>1905.199951171875</AltitudeMeters>
            <DistanceMeters>8933.5834865935</DistanceMeters>
          </Trackpoint>
          <Trackpoint>
            <Time>2022-08-20T12:59:29.000Z</Time>
            <Position>
              <LatitudeDegrees>42.8200891055166721343994140625</LatitudeDegrees>
              <LongitudeDegrees>-0.314439721405506134033203125</LongitudeDegrees>
            </Position>
            <AltitudeMeters>1905.5999755859375</AltitudeMeters>
            <DistanceMeters>8935.261993028</DistanceMeters>
          </Trackpoint>
          <Trackpoint>
            <Time>2022-08-20T12:59:34.000Z</Time>
            <Position>
              <LatitudeDegrees>42.8201058693230152130126953125</LatitudeDegrees>
              <LongitudeDegrees>-0.314425639808177947998046875</LongitudeDegrees>
            </Position>
            <AltitudeMeters>1907.199951171875</AltitudeMeters>
            <DistanceMeters>8937.4537960913</DistanceMeters>
          </Trackpoint>
          <Trackpoint>
            <Time>2022-08-20T12:59:47.000Z</Time>
            <Position>
              <LatitudeDegrees>42.82018541358411312103271484375</LatitudeDegrees>
              <LongitudeDegrees>-0.31435162760317325592041015625</LongitudeDegrees>
            </Position>
            <AltitudeMeters>1914.199951171875</AltitudeMeters>
            <DistanceMeters>8948.1728768668</DistanceMeters>
          </Trackpoint>
          <Trackpoint>
            <Time>2022-08-20T12:59:52.000Z</Time>
            <Position>
              <LatitudeDegrees>42.82017569057643413543701171875</LatitudeDegrees>
              <LongitudeDegrees>-0.31429387629032135009765625</LongitudeDegrees>
            </Position>
            <AltitudeMeters>1914.199951171875</AltitudeMeters>
            <DistanceMeters>8953.0089804627</DistanceMeters>
          </Trackpoint>
          <Trackpoint>
            <Time>2022-08-20T13:00:08.000Z</Time>
            <Position>
              <LatitudeDegrees>42.820147611200809478759765625</LatitudeDegrees>
              <LongitudeDegrees>-0.31411726959049701690673828125</LongitudeDegrees>
            </Position>
            <AltitudeMeters>1913</AltitudeMeters>
            <DistanceMeters>8967.7623178006</DistanceMeters>
          </Trackpoint>
          <Trackpoint>
            <Time>2022-08-20T13:00:23.000Z</Time>
            <Position>
              <LatitudeDegrees>42.8201397322118282318115234375</LatitudeDegrees>
              <LongitudeDegrees>-0.31395801343023777008056640625</LongitudeDegrees>
            </Position>
            <AltitudeMeters>1914</AltitudeMeters>
            <DistanceMeters>8980.7931104646</DistanceMeters>
          </Trackpoint>
          <Trackpoint>
            <Time>2022-08-20T13:00:39.000Z</Time>
            <Position>
              <LatitudeDegrees>42.82016010023653507232666015625</LatitudeDegrees>
              <LongitudeDegrees>-0.313785262405872344970703125</LongitudeDegrees>
            </Position>
            <AltitudeMeters>1917.199951171875</AltitudeMeters>
            <DistanceMeters>8995.0774938019</DistanceMeters>
          </Trackpoint>
          <Trackpoint>
            <Time>2022-08-20T13:01:13.000Z</Time>
            <Position>
              <LatitudeDegrees>42.82014031894505023956298828125</LatitudeDegrees>
              <LongitudeDegrees>-0.31354025937616825103759765625</LongitudeDegrees>
            </Position>
            <AltitudeMeters>1919.4000244140625</AltitudeMeters>
            <DistanceMeters>9015.2000596876</DistanceMeters>
          </Trackpoint>
          <Trackpoint>
            <Time>2022-08-20T13:01:30.000Z</Time>
            <Position>
              <LatitudeDegrees>42.82011978328227996826171875</LatitudeDegrees>
              <LongitudeDegrees>-0.31335510313510894775390625</LongitudeDegrees>
            </Position>
            <AltitudeMeters>1920.800048828125</AltitudeMeters>
            <DistanceMeters>9030.4878469219</DistanceMeters>
          </Trackpoint>
          <Trackpoint>
            <Time>2022-08-20T13:01:48.000Z</Time>
            <Position>
              <LatitudeDegrees>42.8201373852789402008056640625</LatitudeDegrees>
              <LongitudeDegrees>-0.3132084198296070098876953125</LongitudeDegrees>
            </Position>
            <AltitudeMeters>1925.199951171875</AltitudeMeters>
            <DistanceMeters>9042.622278367</DistanceMeters>
          </Trackpoint>
          <Trackpoint>
            <Time>2022-08-20T13:02:20.000Z</Time>
            <Position>
              <LatitudeDegrees>42.8201883472502231597900390625</LatitudeDegrees>
              <LongitudeDegrees>-0.31296643428504467010498046875</LongitudeDegrees>
            </Position>
            <AltitudeMeters>1933.4000244140625</AltitudeMeters>
            <DistanceMeters>9063.1759657801</DistanceMeters>
          </Trackpoint>
          <Trackpoint>
            <Time>2022-08-20T13:02:44.000Z</Time>
            <Position>
              <LatitudeDegrees>42.8201524727046489715576171875</LatitudeDegrees>
              <LongitudeDegrees>-0.3127272985875606536865234375</LongitudeDegrees>
            </Position>
            <AltitudeMeters>1930.5999755859375</AltitudeMeters>
            <DistanceMeters>9083.1030473915</DistanceMeters>
          </Trackpoint>
          <Trackpoint>
            <Time>2022-08-20T13:02:49.000Z</Time>
            <Position>
              <LatitudeDegrees>42.82015339471399784088134765625</LatitudeDegrees>
              <LongitudeDegrees>-0.3126783482730388641357421875</LongitudeDegrees>
            </Position>
            <AltitudeMeters>1931.4000244140625</AltitudeMeters>
            <DistanceMeters>9087.1009512555</DistanceMeters>
          </Trackpoint>
          <Trackpoint>
            <Time>2022-08-20T13:03:00.000Z</Time>
            <Position>
              <LatitudeDegrees>42.8201325237751007080078125</LatitudeDegrees>
              <LongitudeDegrees>-0.31259863637387752532958984375</LongitudeDegrees>
            </Position>
            <AltitudeMeters>1929.800048828125</AltitudeMeters>
            <DistanceMeters>9094.0105108767</DistanceMeters>
          </Trackpoint>
          <Trackpoint>
            <Time>2022-08-20T13:03:23.000Z</Time>
            <Position>
              <LatitudeDegrees>42.8201269917190074920654296875</LatitudeDegrees>
              <LongitudeDegrees>-0.31236008740961551666259765625</LongitudeDegrees>
            </Position>
            <AltitudeMeters>1931.800048828125</AltitudeMeters>
            <DistanceMeters>9113.4949270563</DistanceMeters>
          </Trackpoint>
          <Trackpoint>
            <Time>2022-08-20T13:03:27.000Z</Time>
            <Position>
              <LatitudeDegrees>42.8201283328235149383544921875</LatitudeDegrees>
              <LongitudeDegrees>-0.31230979599058628082275390625</LongitudeDegrees>
            </Position>
            <AltitudeMeters>1932.199951171875</AltitudeMeters>
            <DistanceMeters>9117.604214458</DistanceMeters>
          </Trackpoint>
          <Trackpoint>
            <Time>2022-08-20T13:03:35.000Z</Time>
            <Position>
              <LatitudeDegrees>42.82013797201216220855712890625</LatitudeDegrees>
              <LongitudeDegrees>-0.31223586760461330413818359375</LongitudeDegrees>
            </Position>
            <AltitudeMeters>1934</AltitudeMeters>
            <DistanceMeters>9123.7339899909</DistanceMeters>
          </Trackpoint>
          <Trackpoint>
            <Time>2022-08-20T13:03:50.000Z</Time>
            <Position>
              <LatitudeDegrees>42.82014233060181140899658203125</LatitudeDegrees>
              <LongitudeDegrees>-0.312128327786922454833984375</LongitudeDegrees>
            </Position>
            <AltitudeMeters>1935.800048828125</AltitudeMeters>
            <DistanceMeters>9132.5264006067</DistanceMeters>
          </Trackpoint>
          <Trackpoint>
            <Time>2022-08-20T13:04:11.000Z</Time>
            <Position>
              <LatitudeDegrees>42.8200730122625827789306640625</LatitudeDegrees>
              <LongitudeDegrees>-0.3119038604199886322021484375</LongitudeDegrees>
            </Position>
            <AltitudeMeters>1934.5999755859375</AltitudeMeters>
            <DistanceMeters>9152.4097045774</DistanceMeters>
          </Trackpoint>
          <Trackpoint>
            <Time>2022-08-20T13:04:25.000Z</Time>
            <Position>
              <LatitudeDegrees>42.8200854174792766571044921875</LatitudeDegrees>
              <LongitudeDegrees>-0.3117415867745876312255859375</LongitudeDegrees>
            </Position>
            <AltitudeMeters>1940.5999755859375</AltitudeMeters>
            <DistanceMeters>9165.729385951</DistanceMeters>
          </Trackpoint>
          <Trackpoint>
            <Time>2022-08-20T13:04:48.000Z</Time>
            <Position>
              <LatitudeDegrees>42.82006387598812580108642578125</LatitudeDegrees>
              <LongitudeDegrees>-0.3115005232393741607666015625</LongitudeDegrees>
            </Position>
            <AltitudeMeters>1945.800048828125</AltitudeMeters>
            <DistanceMeters>9185.5549285004</DistanceMeters>
          </Trackpoint>
          <Trackpoint>
            <Time>2022-08-20T13:05:05.000Z</Time>
            <Position>
              <LatitudeDegrees>42.82004308886826038360595703125</LatitudeDegrees>
              <LongitudeDegrees>-0.311343781650066375732421875</LongitudeDegrees>
            </Position>
            <AltitudeMeters>1948.4000244140625</AltitudeMeters>
            <DistanceMeters>9198.5586668663</DistanceMeters>
          </Trackpoint>
          <Trackpoint>
            <Time>2022-08-20T13:05:33.000Z</Time>
            <Position>
              <LatitudeDegrees>42.82002716325223445892333984375</LatitudeDegrees>
              <LongitudeDegrees>-0.311117134988307952880859375</LongitudeDegrees>
            </Position>
            <AltitudeMeters>1954.5999755859375</AltitudeMeters>
            <DistanceMeters>9217.1465334706</DistanceMeters>
          </Trackpoint>
          <Trackpoint>
            <Time>2022-08-20T13:05:55.000Z</Time>
            <Position>
              <LatitudeDegrees>42.8199662268161773681640625</LatitudeDegrees>
              <LongitudeDegrees>-0.31088336370885372161865234375</LongitudeDegrees>
            </Position>
            <AltitudeMeters>1956.5999755859375</AltitudeMeters>
            <DistanceMeters>9237.4010490888</DistanceMeters>
          </Trackpoint>
          <Trackpoint>
            <Time>2022-08-20T13:06:15.000Z</Time>
            <Position>
              <LatitudeDegrees>42.8199446015059947967529296875</LatitudeDegrees>
              <LongitudeDegrees>-0.31066878698766231536865234375</LongitudeDegrees>
            </Position>
            <AltitudeMeters>1959</AltitudeMeters>
            <DistanceMeters>9255.0836797457</DistanceMeters>
          </Trackpoint>
          <Trackpoint>
            <Time>2022-08-20T13:06:39.000Z</Time>
            <Position>
              <LatitudeDegrees>42.819949798285961151123046875</LatitudeDegrees>
              <LongitudeDegrees>-0.31042085029184818267822265625</LongitudeDegrees>
            </Position>
            <AltitudeMeters>1965.800048828125</AltitudeMeters>
            <DistanceMeters>9275.3335136047</DistanceMeters>
          </Trackpoint>
          <Trackpoint>
            <Time>2022-08-20T13:06:41.000Z</Time>
            <Position>
              <LatitudeDegrees>42.8199449367821216583251953125</LatitudeDegrees>
              <LongitudeDegrees>-0.3103999793529510498046875</LongitudeDegrees>
            </Position>
            <AltitudeMeters>1965.800048828125</AltitudeMeters>
            <DistanceMeters>9277.1214305662</DistanceMeters>
          </Trackpoint>
          <Trackpoint>
            <Time>2022-08-20T13:06:44.000Z</Time>
            <Position>
              <LatitudeDegrees>42.81993278302252292633056640625</LatitudeDegrees>
              <LongitudeDegrees>-0.31036435626447200775146484375</LongitudeDegrees>
            </Position>
            <AltitudeMeters>1965.5999755859375</AltitudeMeters>
            <DistanceMeters>9280.3299017202</DistanceMeters>
          </Trackpoint>
          <Trackpoint>
            <Time>2022-08-20T13:07:03.000Z</Time>
            <Position>
              <LatitudeDegrees>42.81994384713470935821533203125</LatitudeDegrees>
              <LongitudeDegrees>-0.31015782617032527923583984375</LongitudeDegrees>
            </Position>
            <AltitudeMeters>1971.5999755859375</AltitudeMeters>
            <DistanceMeters>9297.2361129931</DistanceMeters>
          </Trackpoint>
          <Trackpoint>
            <Time>2022-08-20T13:07:05.000Z</Time>
            <Position>
              <LatitudeDegrees>42.819944433867931365966796875</LatitudeDegrees>
              <LongitudeDegrees>-0.31014273874461650848388671875</LongitudeDegrees>
            </Position>
            <AltitudeMeters>1972.199951171875</AltitudeMeters>
            <DistanceMeters>9298.4677999837</DistanceMeters>
          </Trackpoint>
          <Trackpoint>
            <Time>2022-08-20T13:07:32.000Z</Time>
            <Position>
              <LatitudeDegrees>42.81991350464522838592529296875</LatitudeDegrees>
              <LongitudeDegrees>-0.3098968975245952606201171875</LongitudeDegrees>
            </Position>
            <AltitudeMeters>1975.800048828125</AltitudeMeters>
            <DistanceMeters>9318.831029352</DistanceMeters>
          </Trackpoint>
          <Trackpoint>
            <Time>2022-08-20T13:07:54.000Z</Time>
            <Position>
              <LatitudeDegrees>42.8198316134512424468994140625</LatitudeDegrees>
              <LongitudeDegrees>-0.30975817702710628509521484375</LongitudeDegrees>
            </Position>
            <AltitudeMeters>1971.5999755859375</AltitudeMeters>
            <DistanceMeters>9333.3679426743</DistanceMeters>
          </Trackpoint>
          <Trackpoint>
            <Time>2022-08-20T13:08:14.000Z</Time>
            <Position>
              <LatitudeDegrees>42.8197933919727802276611328125</LatitudeDegrees>
              <LongitudeDegrees>-0.3095093183219432830810546875</LongitudeDegrees>
            </Position>
            <AltitudeMeters>1977.800048828125</AltitudeMeters>
            <DistanceMeters>9354.1251358239</DistanceMeters>
          </Trackpoint>
          <Trackpoint>
            <Time>2022-08-20T13:08:35.000Z</Time>
            <Position>
              <LatitudeDegrees>42.819768749177455902099609375</LatitudeDegrees>
              <LongitudeDegrees>-0.3092645667493343353271484375</LongitudeDegrees>
            </Position>
            <AltitudeMeters>1982.4000244140625</AltitudeMeters>
            <DistanceMeters>9374.2940942414</DistanceMeters>
          </Trackpoint>
          <Trackpoint>
            <Time>2022-08-20T13:08:54.000Z</Time>
            <Position>
              <LatitudeDegrees>42.81976397149264812469482421875</LatitudeDegrees>
              <LongitudeDegrees>-0.30901788733899593353271484375</LongitudeDegrees>
            </Position>
            <AltitudeMeters>1985.4000244140625</AltitudeMeters>
            <DistanceMeters>9394.4402059221</DistanceMeters>
          </Trackpoint>
          <Trackpoint>
            <Time>2022-08-20T13:09:05.000Z</Time>
            <Position>
              <LatitudeDegrees>42.81975634396076202392578125</LatitudeDegrees>
              <LongitudeDegrees>-0.30887405388057231903076171875</LongitudeDegrees>
            </Position>
            <AltitudeMeters>1986.800048828125</AltitudeMeters>
            <DistanceMeters>9406.2127847925</DistanceMeters>
          </Trackpoint>
          <Trackpoint>
            <Time>2022-08-20T13:09:07.000Z</Time>
            <Position>
              <LatitudeDegrees>42.819758020341396331787109375</LatitudeDegrees>
              <LongitudeDegrees>-0.308860056102275848388671875</LongitudeDegrees>
            </Position>
            <AltitudeMeters>1987</AltitudeMeters>
            <DistanceMeters>9407.3766196032</DistanceMeters>
          </Trackpoint>
          <Trackpoint>
            <Time>2022-08-20T13:09:08.000Z</Time>
            <Position>
              <LatitudeDegrees>42.81975634396076202392578125</LatitudeDegrees>
              <LongitudeDegrees>-0.308854021131992340087890625</LongitudeDegrees>
            </Position>
            <AltitudeMeters>1987</AltitudeMeters>
            <DistanceMeters>9407.9141718762</DistanceMeters>
          </Trackpoint>
          <Trackpoint>
            <Time>2022-08-20T13:09:13.000Z</Time>
            <Position>
              <LatitudeDegrees>42.81975760124623775482177734375</LatitudeDegrees>
              <LongitudeDegrees>-0.30879811383783817291259765625</LongitudeDegrees>
            </Position>
            <AltitudeMeters>1988</AltitudeMeters>
            <DistanceMeters>9412.4804007918</DistanceMeters>
          </Trackpoint>
          <Trackpoint>
            <Time>2022-08-20T13:09:19.000Z</Time>
            <Position>
              <LatitudeDegrees>42.819770760834217071533203125</LatitudeDegrees>
              <LongitudeDegrees>-0.3087328188121318817138671875</LongitudeDegrees>
            </Position>
            <AltitudeMeters>1990.4000244140625</AltitudeMeters>
            <DistanceMeters>9418.0091265729</DistanceMeters>
          </Trackpoint>
          <Trackpoint>
            <Time>2022-08-20T13:09:27.000Z</Time>
            <Position>
              <LatitudeDegrees>42.81978727318346500396728515625</LatitudeDegrees>
              <LongitudeDegrees>-0.3086332418024539947509765625</LongitudeDegrees>
            </Position>
            <AltitudeMeters>1993.5999755859375</AltitudeMeters>
            <DistanceMeters>9426.3438958009</DistanceMeters>
          </Trackpoint>
          <Trackpoint>
            <Time>2022-08-20T13:09:45.000Z</Time>
            <Position>
              <LatitudeDegrees>42.8198081441223621368408203125</LatitudeDegrees>
              <LongitudeDegrees>-0.30838840641081333160400390625</LongitudeDegrees>
            </Position>
            <AltitudeMeters>1995.5999755859375</AltitudeMeters>
            <DistanceMeters>9446.4666860621</DistanceMeters>
          </Trackpoint>
          <Trackpoint>
            <Time>2022-08-20T13:10:28.000Z</Time>
            <Position>
              <LatitudeDegrees>42.81982608139514923095703125</LatitudeDegrees>
              <LongitudeDegrees>-0.3083023242652416229248046875</LongitudeDegrees>
            </Position>
            <AltitudeMeters>1997</AltitudeMeters>
            <DistanceMeters>9453.7726276072</DistanceMeters>
          </Trackpoint>
          <Trackpoint>
            <Time>2022-08-20T13:10:46.000Z</Time>
            <Position>
              <LatitudeDegrees>42.8198212198913097381591796875</LatitudeDegrees>
              <LongitudeDegrees>-0.30836476944386959075927734375</LongitudeDegrees>
            </Position>
            <AltitudeMeters>1996.800048828125</AltitudeMeters>
            <DistanceMeters>9458.8996689108</DistanceMeters>
          </Trackpoint>
          <Trackpoint>
            <Time>2022-08-20T13:10:57.000Z</Time>
            <Position>
              <LatitudeDegrees>42.81982398591935634613037109375</LatitudeDegrees>
              <LongitudeDegrees>-0.3083749115467071533203125</LongitudeDegrees>
            </Position>
            <AltitudeMeters>1997.199951171875</AltitudeMeters>
            <DistanceMeters>9459.7809104067</DistanceMeters>
          </Trackpoint>
          <Trackpoint>
            <Time>2022-08-20T13:11:01.000Z</Time>
            <Position>
              <LatitudeDegrees>42.8198037855327129364013671875</LatitudeDegrees>
              <LongitudeDegrees>-0.30836963094770908355712890625</LongitudeDegrees>
            </Position>
            <AltitudeMeters>1995</AltitudeMeters>
            <DistanceMeters>9462.0694567439</DistanceMeters>
          </Trackpoint>
          <Trackpoint>
            <Time>2022-08-20T13:11:05.000Z</Time>
            <Position>
              <LatitudeDegrees>42.81979800201952457427978515625</LatitudeDegrees>
              <LongitudeDegrees>-0.30836057849228382110595703125</LongitudeDegrees>
            </Position>
            <AltitudeMeters>1994.4000244140625</AltitudeMeters>
            <DistanceMeters>9463.0478166486</DistanceMeters>
          </Trackpoint>
          <Trackpoint>
            <Time>2022-08-20T13:11:07.000Z</Time>
            <Position>
              <LatitudeDegrees>42.819794900715351104736328125</LatitudeDegrees>
              <LongitudeDegrees>-0.3083633445203304290771484375</LongitudeDegrees>
            </Position>
            <AltitudeMeters>1994.199951171875</AltitudeMeters>
            <DistanceMeters>9463.4509808533</DistanceMeters>
          </Trackpoint>
          <Trackpoint>
            <Time>2022-08-20T13:11:46.000Z</Time>
            <Position>
              <LatitudeDegrees>42.8198473714292049407958984375</LatitudeDegrees>
              <LongitudeDegrees>-0.30829872004687786102294921875</LongitudeDegrees>
            </Position>
            <AltitudeMeters>1999.5999755859375</AltitudeMeters>
            <DistanceMeters>9471.3204321845</DistanceMeters>
          </Trackpoint>
          <Trackpoint>
            <Time>2022-08-20T13:12:03.000Z</Time>
            <Position>
              <LatitudeDegrees>42.81981342472136020660400390625</LatitudeDegrees>
              <LongitudeDegrees>-0.30831112526357173919677734375</LongitudeDegrees>
            </Position>
            <AltitudeMeters>1995.5999755859375</AltitudeMeters>
            <DistanceMeters>9475.2338718031</DistanceMeters>
          </Trackpoint>
          <Trackpoint>
            <Time>2022-08-20T13:12:09.000Z</Time>
            <Position>
              <LatitudeDegrees>42.81983152963221073150634765625</LatitudeDegrees>
              <LongitudeDegrees>-0.3083164058625698089599609375</LongitudeDegrees>
            </Position>
            <AltitudeMeters>1997.800048828125</AltitudeMeters>
            <DistanceMeters>9477.2940018788</DistanceMeters>
          </Trackpoint>
          <Trackpoint>
            <Time>2022-08-20T13:12:12.000Z</Time>
            <Position>
              <LatitudeDegrees>42.8198376484215259552001953125</LatitudeDegrees>
              <LongitudeDegrees>-0.30831665731966495513916015625</LongitudeDegrees>
            </Position>
            <AltitudeMeters>1998.5999755859375</AltitudeMeters>
            <DistanceMeters>9477.96594222</DistanceMeters>
          </Trackpoint>
          <Trackpoint>
            <Time>2022-08-20T13:12:15.000Z</Time>
            <Position>
              <LatitudeDegrees>42.81984477303922176361083984375</LatitudeDegrees>
              <LongitudeDegrees>-0.3083083592355251312255859375</LongitudeDegrees>
            </Position>
            <AltitudeMeters>1999.4000244140625</AltitudeMeters>
            <DistanceMeters>9479.0069077206</DistanceMeters>
          </Trackpoint>
          <Trackpoint>
            <Time>2022-08-20T13:12:23.000Z</Time>
            <Position>
              <LatitudeDegrees>42.81983840279281139373779296875</LatitudeDegrees>
              <LongitudeDegrees>-0.3083123825490474700927734375</LongitudeDegrees>
            </Position>
            <AltitudeMeters>1998.5999755859375</AltitudeMeters>
            <DistanceMeters>9479.7847349004</DistanceMeters>
          </Trackpoint>
          <Trackpoint>
            <Time>2022-08-20T13:12:33.000Z</Time>
            <Position>
              <LatitudeDegrees>42.81985634006559848785400390625</LatitudeDegrees>
              <LongitudeDegrees>-0.30827374197542667388916015625</LongitudeDegrees>
            </Position>
            <AltitudeMeters>2000.4000244140625</AltitudeMeters>
            <DistanceMeters>9483.5174829435</DistanceMeters>
          </Trackpoint>
          <Trackpoint>
            <Time>2022-08-20T13:12:35.000Z</Time>
            <Position>
              <LatitudeDegrees>42.81986824236810207366943359375</LatitudeDegrees>
              <LongitudeDegrees>-0.3082515299320220947265625</LongitudeDegrees>
            </Position>
            <AltitudeMeters>2001.199951171875</AltitudeMeters>
            <DistanceMeters>9485.7622062351</DistanceMeters>
          </Trackpoint>
          <Trackpoint>
            <Time>2022-08-20T13:12:40.000Z</Time>
            <Position>
              <LatitudeDegrees>42.8198865987360477447509765625</LatitudeDegrees>
              <LongitudeDegrees>-0.308210961520671844482421875</LongitudeDegrees>
            </Position>
            <AltitudeMeters>2002.5999755859375</AltitudeMeters>
            <DistanceMeters>9489.6548233846</DistanceMeters>
          </Trackpoint>
          <Trackpoint>
            <Time>2022-08-20T13:12:42.000Z</Time>
            <Position>
              <LatitudeDegrees>42.81988777220249176025390625</LatitudeDegrees>
              <LongitudeDegrees>-0.30819361098110675811767578125</LongitudeDegrees>
            </Position>
            <AltitudeMeters>2002</AltitudeMeters>
            <DistanceMeters>9491.0770530157</DistanceMeters>
          </Trackpoint>
          <Trackpoint>
            <Time>2022-08-20T13:12:46.000Z</Time>
            <Position>
              <LatitudeDegrees>42.8199144266545772552490234375</LatitudeDegrees>
              <LongitudeDegrees>-0.30816041864454746246337890625</LongitudeDegrees>
            </Position>
            <AltitudeMeters>2004.199951171875</AltitudeMeters>
            <DistanceMeters>9495.0952337833</DistanceMeters>
          </Trackpoint>
          <Trackpoint>
            <Time>2022-08-20T13:12:48.000Z</Time>
            <Position>
              <LatitudeDegrees>42.81992222182452678680419921875</LatitudeDegrees>
              <LongitudeDegrees>-0.3081413917243480682373046875</LongitudeDegrees>
            </Position>
            <AltitudeMeters>2004.5999755859375</AltitudeMeters>
            <DistanceMeters>9496.8730208222</DistanceMeters>
          </Trackpoint>
          <Trackpoint>
            <Time>2022-08-20T13:12:54.000Z</Time>
            <Position>
              <LatitudeDegrees>42.8199600242078304290771484375</LatitudeDegrees>
              <LongitudeDegrees>-0.30807073228061199188232421875</LongitudeDegrees>
            </Position>
            <AltitudeMeters>2006.5999755859375</AltitudeMeters>
            <DistanceMeters>9504.0133157462</DistanceMeters>
          </Trackpoint>
          <Trackpoint>
            <Time>2022-08-20T13:13:03.000Z</Time>
            <Position>
              <LatitudeDegrees>42.81998944468796253204345703125</LatitudeDegrees>
              <LongitudeDegrees>-0.30796118080615997314453125</LongitudeDegrees>
            </Position>
            <AltitudeMeters>2005.4000244140625</AltitudeMeters>
            <DistanceMeters>9513.5378182506</DistanceMeters>
          </Trackpoint>
          <Trackpoint>
            <Time>2022-08-20T13:13:08.000Z</Time>
            <Position>
              <LatitudeDegrees>42.8199930489063262939453125</LatitudeDegrees>
              <LongitudeDegrees>-0.30791021883487701416015625</LongitudeDegrees>
            </Position>
            <AltitudeMeters>2003</AltitudeMeters>
            <DistanceMeters>9517.7168334268</DistanceMeters>
          </Trackpoint>
          <Trackpoint>
            <Time>2022-08-20T13:13:14.000Z</Time>
            <Position>
              <LatitudeDegrees>42.82000537030398845672607421875</LatitudeDegrees>
              <LongitudeDegrees>-0.30783268623054027557373046875</LongitudeDegrees>
            </Position>
            <AltitudeMeters>2000.199951171875</AltitudeMeters>
            <DistanceMeters>9524.1940037317</DistanceMeters>
          </Trackpoint>
          <Trackpoint>
            <Time>2022-08-20T13:13:15.000Z</Time>
            <Position>
              <LatitudeDegrees>42.82000310719013214111328125</LatitudeDegrees>
              <LongitudeDegrees>-0.3078228794038295745849609375</LongitudeDegrees>
            </Position>
            <AltitudeMeters>1999.4000244140625</AltitudeMeters>
            <DistanceMeters>9525.0332569489</DistanceMeters>
          </Trackpoint>
          <Trackpoint>
            <Time>2022-08-20T13:13:18.000Z</Time>
            <Position>
              <LatitudeDegrees>42.82001945190131664276123046875</LatitudeDegrees>
              <LongitudeDegrees>-0.30778289772570133209228515625</LongitudeDegrees>
            </Position>
            <AltitudeMeters>1999.800048828125</AltitudeMeters>
            <DistanceMeters>9528.7696319545</DistanceMeters>
          </Trackpoint>
          <Trackpoint>
            <Time>2022-08-20T13:13:22.000Z</Time>
            <Position>
              <LatitudeDegrees>42.82005314715206623077392578125</LatitudeDegrees>
              <LongitudeDegrees>-0.30774132348597049713134765625</LongitudeDegrees>
            </Position>
            <AltitudeMeters>2002.5999755859375</AltitudeMeters>
            <DistanceMeters>9533.8284101313</DistanceMeters>
          </Trackpoint>
          <Trackpoint>
            <Time>2022-08-20T13:13:41.000Z</Time>
            <Position>
              <LatitudeDegrees>42.82013445161283016204833984375</LatitudeDegrees>
              <LongitudeDegrees>-0.30751937068998813629150390625</LongitudeDegrees>
            </Position>
            <AltitudeMeters>2006</AltitudeMeters>
            <DistanceMeters>9554.082256993</DistanceMeters>
          </Trackpoint>
          <Trackpoint>
            <Time>2022-08-20T13:14:03.000Z</Time>
            <Position>
              <LatitudeDegrees>42.82014350406825542449951171875</LatitudeDegrees>
              <LongitudeDegrees>-0.307259447872638702392578125</LongitudeDegrees>
            </Position>
            <AltitudeMeters>2006.199951171875</AltitudeMeters>
            <DistanceMeters>9575.3262010834</DistanceMeters>
          </Trackpoint>
          <Trackpoint>
            <Time>2022-08-20T13:14:21.000Z</Time>
            <Position>
              <LatitudeDegrees>42.8200984932482242584228515625</LatitudeDegrees>
              <LongitudeDegrees>-0.30706666409969329833984375</LongitudeDegrees>
            </Position>
            <AltitudeMeters>2006.199951171875</AltitudeMeters>
            <DistanceMeters>9591.8428172432</DistanceMeters>
          </Trackpoint>
          <Trackpoint>
            <Time>2022-08-20T13:14:37.000Z</Time>
            <Position>
              <LatitudeDegrees>42.82004468142986297607421875</LatitudeDegrees>
              <LongitudeDegrees>-0.30683004297316074371337890625</LongitudeDegrees>
            </Position>
            <AltitudeMeters>2005.199951171875</AltitudeMeters>
            <DistanceMeters>9612.0672169279</DistanceMeters>
          </Trackpoint>
          <Trackpoint>
            <Time>2022-08-20T13:14:43.000Z</Time>
            <Position>
              <LatitudeDegrees>42.82005700282752513885498046875</LatitudeDegrees>
              <LongitudeDegrees>-0.30673968605697154998779296875</LongitudeDegrees>
            </Position>
            <AltitudeMeters>2006</AltitudeMeters>
            <DistanceMeters>9619.5701161377</DistanceMeters>
          </Trackpoint>
          <Trackpoint>
            <Time>2022-08-20T13:14:51.000Z</Time>
            <Position>
              <LatitudeDegrees>42.82002749852836132049560546875</LatitudeDegrees>
              <LongitudeDegrees>-0.30662787146866321563720703125</LongitudeDegrees>
            </Position>
            <AltitudeMeters>2005.199951171875</AltitudeMeters>
            <DistanceMeters>9629.27122209</DistanceMeters>
          </Trackpoint>
          <Trackpoint>
            <Time>2022-08-20T13:15:07.000Z</Time>
            <Position>
              <LatitudeDegrees>42.81996614299714565277099609375</LatitudeDegrees>
              <LongitudeDegrees>-0.30640541575849056243896484375</LongitudeDegrees>
            </Position>
            <AltitudeMeters>2005.800048828125</AltitudeMeters>
            <DistanceMeters>9648.6736667007</DistanceMeters>
          </Trackpoint>
          <Trackpoint>
            <Time>2022-08-20T13:15:18.000Z</Time>
            <Position>
              <LatitudeDegrees>42.81999480910599231719970703125</LatitudeDegrees>
              <LongitudeDegrees>-0.30624867416918277740478515625</LongitudeDegrees>
            </Position>
            <AltitudeMeters>2010</AltitudeMeters>
            <DistanceMeters>9661.8615123288</DistanceMeters>
          </Trackpoint>
          <Trackpoint>
            <Time>2022-08-20T13:15:33.000Z</Time>
            <Position>
              <LatitudeDegrees>42.81999464146792888641357421875</LatitudeDegrees>
              <LongitudeDegrees>-0.30603275634348392486572265625</LongitudeDegrees>
            </Position>
            <AltitudeMeters>2017.199951171875</AltitudeMeters>
            <DistanceMeters>9679.4886476707</DistanceMeters>
          </Trackpoint>
          <Trackpoint>
            <Time>2022-08-20T13:15:35.000Z</Time>
            <Position>
              <LatitudeDegrees>42.819992043077945709228515625</LatitudeDegrees>
              <LongitudeDegrees>-0.3060033358633518218994140625</LongitudeDegrees>
            </Position>
            <AltitudeMeters>2018.4000244140625</AltitudeMeters>
            <DistanceMeters>9681.9076328992</DistanceMeters>
          </Trackpoint>
          <Trackpoint>
            <Time>2022-08-20T13:15:52.000Z</Time>
            <Position>
              <LatitudeDegrees>42.81998223625123500823974609375</LatitudeDegrees>
              <LongitudeDegrees>-0.30574626289308071136474609375</LongitudeDegrees>
            </Position>
            <AltitudeMeters>2027.800048828125</AltitudeMeters>
            <DistanceMeters>9702.9229363403</DistanceMeters>
          </Trackpoint>
          <Trackpoint>
            <Time>2022-08-20T13:16:05.000Z</Time>
            <Position>
              <LatitudeDegrees>42.820040993392467498779296875</LatitudeDegrees>
              <LongitudeDegrees>-0.30549664981663227081298828125</LongitudeDegrees>
            </Position>
            <AltitudeMeters>2037.199951171875</AltitudeMeters>
            <DistanceMeters>9724.32484274</DistanceMeters>
          </Trackpoint>
          <Trackpoint>
            <Time>2022-08-20T13:16:15.000Z</Time>
            <Position>
              <LatitudeDegrees>42.81996178440749645233154296875</LatitudeDegrees>
              <LongitudeDegrees>-0.30538081191480159759521484375</LongitudeDegrees>
            </Position>
            <AltitudeMeters>2035.800048828125</AltitudeMeters>
            <DistanceMeters>9737.2540644927</DistanceMeters>
          </Trackpoint>
          <Trackpoint>
            <Time>2022-08-20T13:16:30.000Z</Time>
            <Position>
              <LatitudeDegrees>42.81985022127628326416015625</LatitudeDegrees>
              <LongitudeDegrees>-0.30517864041030406951904296875</LongitudeDegrees>
            </Position>
            <AltitudeMeters>2031.199951171875</AltitudeMeters>
            <DistanceMeters>9757.9085531439</DistanceMeters>
          </Trackpoint>
          <Trackpoint>
            <Time>2022-08-20T13:16:44.000Z</Time>
            <Position>
              <LatitudeDegrees>42.81976045109331607818603515625</LatitudeDegrees>
              <LongitudeDegrees>-0.3049545921385288238525390625</LongitudeDegrees>
            </Position>
            <AltitudeMeters>2025.800048828125</AltitudeMeters>
            <DistanceMeters>9778.7506218353</DistanceMeters>
          </Trackpoint>
          <Trackpoint>
            <Time>2022-08-20T13:16:59.000Z</Time>
            <Position>
              <LatitudeDegrees>42.81966456212103366851806640625</LatitudeDegrees>
              <LongitudeDegrees>-0.30473859049379825592041015625</LongitudeDegrees>
            </Position>
            <AltitudeMeters>2023.800048828125</AltitudeMeters>
            <DistanceMeters>9799.363096863</DistanceMeters>
          </Trackpoint>
          <Trackpoint>
            <Time>2022-08-20T13:17:15.000Z</Time>
            <Position>
              <LatitudeDegrees>42.81962667591869831085205078125</LatitudeDegrees>
              <LongitudeDegrees>-0.304491408169269561767578125</LongitudeDegrees>
            </Position>
            <AltitudeMeters>2023.5999755859375</AltitudeMeters>
            <DistanceMeters>9819.9790762961</DistanceMeters>
          </Trackpoint>
          <Trackpoint>
            <Time>2022-08-20T13:17:31.000Z</Time>
            <Position>
              <LatitudeDegrees>42.81954151578247547149658203125</LatitudeDegrees>
              <LongitudeDegrees>-0.3042818605899810791015625</LongitudeDegrees>
            </Position>
            <AltitudeMeters>2027.199951171875</AltitudeMeters>
            <DistanceMeters>9839.5370424012</DistanceMeters>
          </Trackpoint>
          <Trackpoint>
            <Time>2022-08-20T13:17:41.000Z</Time>
            <Position>
              <LatitudeDegrees>42.81947295181453227996826171875</LatitudeDegrees>
              <LongitudeDegrees>-0.304144062101840972900390625</LongitudeDegrees>
            </Position>
            <AltitudeMeters>2030.5999755859375</AltitudeMeters>
            <DistanceMeters>9853.1311776964</DistanceMeters>
          </Trackpoint>
          <Trackpoint>
            <Time>2022-08-20T13:17:57.000Z</Time>
            <Position>
              <LatitudeDegrees>42.81937144696712493896484375</LatitudeDegrees>
              <LongitudeDegrees>-0.30392638407647609710693359375</LongitudeDegrees>
            </Position>
            <AltitudeMeters>2036.4000244140625</AltitudeMeters>
            <DistanceMeters>9874.1894063496</DistanceMeters>
          </Trackpoint>
          <Trackpoint>
            <Time>2022-08-20T13:18:01.000Z</Time>
            <Position>
              <LatitudeDegrees>42.819357700645923614501953125</LatitudeDegrees>
              <LongitudeDegrees>-0.30388883315026760101318359375</LongitudeDegrees>
            </Position>
            <AltitudeMeters>2037.5999755859375</AltitudeMeters>
            <DistanceMeters>9877.6156432616</DistanceMeters>
          </Trackpoint>
          <Trackpoint>
            <Time>2022-08-20T13:18:20.000Z</Time>
            <Position>
              <LatitudeDegrees>42.81927564181387424468994140625</LatitudeDegrees>
              <LongitudeDegrees>-0.30367023311555385589599609375</LongitudeDegrees>
            </Position>
            <AltitudeMeters>2046.199951171875</AltitudeMeters>
            <DistanceMeters>9897.6633524167</DistanceMeters>
          </Trackpoint>
          <Trackpoint>
            <Time>2022-08-20T13:18:30.000Z</Time>
            <Position>
              <LatitudeDegrees>42.81924462877213954925537109375</LatitudeDegrees>
              <LongitudeDegrees>-0.30358381569385528564453125</LongitudeDegrees>
            </Position>
            <AltitudeMeters>2050.199951171875</AltitudeMeters>
            <DistanceMeters>9905.5178722789</DistanceMeters>
          </Trackpoint>
          <Trackpoint>
            <Time>2022-08-20T13:18:34.000Z</Time>
            <Position>
              <LatitudeDegrees>42.81923373229801654815673828125</LatitudeDegrees>
              <LongitudeDegrees>-0.30354559421539306640625</LongitudeDegrees>
            </Position>
            <AltitudeMeters>2050.60009765625</AltitudeMeters>
            <DistanceMeters>9908.8641081926</DistanceMeters>
          </Trackpoint>
          <Trackpoint>
            <Time>2022-08-20T13:18:37.000Z</Time>
            <Position>
              <LatitudeDegrees>42.819232307374477386474609375</LatitudeDegrees>
              <LongitudeDegrees>-0.30351147986948490142822265625</LongitudeDegrees>
            </Position>
            <AltitudeMeters>2051.60009765625</AltitudeMeters>
            <DistanceMeters>9911.6540769908</DistanceMeters>
          </Trackpoint>
          <Trackpoint>
            <Time>2022-08-20T13:18:39.000Z</Time>
            <Position>
              <LatitudeDegrees>42.81922669149935245513916015625</LatitudeDegrees>
              <LongitudeDegrees>-0.30348985455930233001708984375</LongitudeDegrees>
            </Position>
            <AltitudeMeters>2051.800048828125</AltitudeMeters>
            <DistanceMeters>9913.5258861852</DistanceMeters>
          </Trackpoint>
          <Trackpoint>
            <Time>2022-08-20T13:18:41.000Z</Time>
            <Position>
              <LatitudeDegrees>42.81921562738716602325439453125</LatitudeDegrees>
              <LongitudeDegrees>-0.3034716658294200897216796875</LongitudeDegrees>
            </Position>
            <AltitudeMeters>2051.39990234375</AltitudeMeters>
            <DistanceMeters>9915.454717825</DistanceMeters>
          </Trackpoint>
          <Trackpoint>
            <Time>2022-08-20T13:18:46.000Z</Time>
            <Position>
              <LatitudeDegrees>42.81919081695377826690673828125</LatitudeDegrees>
              <LongitudeDegrees>-0.30342564918100833892822265625</LongitudeDegrees>
            </Position>
            <AltitudeMeters>2050.800048828125</AltitudeMeters>
            <DistanceMeters>9920.1178095116</DistanceMeters>
          </Trackpoint>
          <Trackpoint>
            <Time>2022-08-20T13:18:53.000Z</Time>
            <Position>
              <LatitudeDegrees>42.81916969455778598785400390625</LatitudeDegrees>
              <LongitudeDegrees>-0.30336597003042697906494140625</LongitudeDegrees>
            </Position>
            <AltitudeMeters>2051</AltitudeMeters>
            <DistanceMeters>9925.5284941107</DistanceMeters>
          </Trackpoint>
          <Trackpoint>
            <Time>2022-08-20T13:18:54.000Z</Time>
            <Position>
              <LatitudeDegrees>42.8191650845110416412353515625</LatitudeDegrees>
              <LongitudeDegrees>-0.30335851013660430908203125</LongitudeDegrees>
            </Position>
            <AltitudeMeters>2050.800048828125</AltitudeMeters>
            <DistanceMeters>9926.3235446444</DistanceMeters>
          </Trackpoint>
          <Trackpoint>
            <Time>2022-08-20T13:18:55.000Z</Time>
            <Position>
              <LatitudeDegrees>42.81915745697915554046630859375</LatitudeDegrees>
              <LongitudeDegrees>-0.30335423536598682403564453125</LongitudeDegrees>
            </Position>
            <AltitudeMeters>2050.39990234375</AltitudeMeters>
            <DistanceMeters>9927.235008869</DistanceMeters>
          </Trackpoint>
          <Trackpoint>
            <Time>2022-08-20T13:18:57.000Z</Time>
            <Position>
              <LatitudeDegrees>42.81913851387798786163330078125</LatitudeDegrees>
              <LongitudeDegrees>-0.3033472783863544464111328125</LongitudeDegrees>
            </Position>
            <AltitudeMeters>2049.199951171875</AltitudeMeters>
            <DistanceMeters>9929.4185565242</DistanceMeters>
          </Trackpoint>
          <Trackpoint>
            <Time>2022-08-20T13:18:59.000Z</Time>
            <Position>
              <LatitudeDegrees>42.81912493519484996795654296875</LatitudeDegrees>
              <LongitudeDegrees>-0.30334032140672206878662109375</LongitudeDegrees>
            </Position>
            <AltitudeMeters>2048.39990234375</AltitudeMeters>
            <DistanceMeters>9931.0340106685</DistanceMeters>
          </Trackpoint>
          <Trackpoint>
            <Time>2022-08-20T13:19:00.000Z</Time>
            <Position>
              <LatitudeDegrees>42.81912057660520076751708984375</LatitudeDegrees>
              <LongitudeDegrees>-0.3033325262367725372314453125</LongitudeDegrees>
            </Position>
            <AltitudeMeters>2048.199951171875</AltitudeMeters>
            <DistanceMeters>9931.840339078</DistanceMeters>
          </Trackpoint>
          <Trackpoint>
            <Time>2022-08-20T13:19:04.000Z</Time>
            <Position>
              <LatitudeDegrees>42.81909341923892498016357421875</LatitudeDegrees>
              <LongitudeDegrees>-0.30330880545079708099365234375</LongitudeDegrees>
            </Position>
            <AltitudeMeters>2046.800048828125</AltitudeMeters>
            <DistanceMeters>9935.4300353166</DistanceMeters>
          </Trackpoint>
          <Trackpoint>
            <Time>2022-08-20T13:19:13.000Z</Time>
            <Position>
              <LatitudeDegrees>42.81903709284961223602294921875</LatitudeDegrees>
              <LongitudeDegrees>-0.30325298197567462921142578125</LongitudeDegrees>
            </Position>
            <AltitudeMeters>2044.4000244140625</AltitudeMeters>
            <DistanceMeters>9943.1809771034</DistanceMeters>
          </Trackpoint>
          <Trackpoint>
            <Time>2022-08-20T13:19:16.000Z</Time>
            <Position>
              <LatitudeDegrees>42.81902611255645751953125</LatitudeDegrees>
              <LongitudeDegrees>-0.30322683043777942657470703125</LongitudeDegrees>
            </Position>
            <AltitudeMeters>2044.5999755859375</AltitudeMeters>
            <DistanceMeters>9945.6406826177</DistanceMeters>
          </Trackpoint>
          <Trackpoint>
            <Time>2022-08-20T13:19:21.000Z</Time>
            <Position>
              <LatitudeDegrees>42.81900532543659210205078125</LatitudeDegrees>
              <LongitudeDegrees>-0.303194224834442138671875</LongitudeDegrees>
            </Position>
            <AltitudeMeters>2044.199951171875</AltitudeMeters>
            <DistanceMeters>9949.1656486015</DistanceMeters>
          </Trackpoint>
          <Trackpoint>
            <Time>2022-08-20T13:19:28.000Z</Time>
            <Position>
              <LatitudeDegrees>42.8189515136182308197021484375</LatitudeDegrees>
              <LongitudeDegrees>-0.30316832475364208221435546875</LongitudeDegrees>
            </Position>
            <AltitudeMeters>2041.5999755859375</AltitudeMeters>
            <DistanceMeters>9955.5161069628</DistanceMeters>
          </Trackpoint>
          <Trackpoint>
            <Time>2022-08-20T13:19:47.000Z</Time>
            <Position>
              <LatitudeDegrees>42.81877809204161167144775390625</LatitudeDegrees>
              <LongitudeDegrees>-0.303195901215076446533203125</LongitudeDegrees>
            </Position>
            <AltitudeMeters>2032</AltitudeMeters>
            <DistanceMeters>9974.9490119666</DistanceMeters>
          </Trackpoint>
          <Trackpoint>
            <Time>2022-08-20T13:19:53.000Z</Time>
            <Position>
              <LatitudeDegrees>42.81872260384261608123779296875</LatitudeDegrees>
              <LongitudeDegrees>-0.3031987510621547698974609375</LongitudeDegrees>
            </Position>
            <AltitudeMeters>2028.5999755859375</AltitudeMeters>
            <DistanceMeters>9981.130132693</DistanceMeters>
          </Trackpoint>
          <Trackpoint>
            <Time>2022-08-20T13:20:10.000Z</Time>
            <Position>
              <LatitudeDegrees>42.818601988255977630615234375</LatitudeDegrees>
              <LongitudeDegrees>-0.3030234016478061676025390625</LongitudeDegrees>
            </Position>
            <AltitudeMeters>2033</AltitudeMeters>
            <DistanceMeters>10000.755852569</DistanceMeters>
          </Trackpoint>
          <Trackpoint>
            <Time>2022-08-20T13:20:17.000Z</Time>
            <Position>
              <LatitudeDegrees>42.81858614645898342132568359375</LatitudeDegrees>
              <LongitudeDegrees>-0.3029164485633373260498046875</LongitudeDegrees>
            </Position>
            <AltitudeMeters>2036</AltitudeMeters>
            <DistanceMeters>10009.66406854</DistanceMeters>
          </Trackpoint>
          <Trackpoint>
            <Time>2022-08-20T13:20:28.000Z</Time>
            <Position>
              <LatitudeDegrees>42.8185200132429599761962890625</LatitudeDegrees>
              <LongitudeDegrees>-0.302774794399738311767578125</LongitudeDegrees>
            </Position>
            <AltitudeMeters>2037</AltitudeMeters>
            <DistanceMeters>10023.372639613</DistanceMeters>
          </Trackpoint>
          <Trackpoint>
            <Time>2022-08-20T13:20:31.000Z</Time>
            <Position>
              <LatitudeDegrees>42.81852227635681629180908203125</LatitudeDegrees>
              <LongitudeDegrees>-0.30273078940808773040771484375</LongitudeDegrees>
            </Position>
            <AltitudeMeters>2037.199951171875</AltitudeMeters>
            <DistanceMeters>10026.976144841</DistanceMeters>
          </Trackpoint>
          <Trackpoint>
            <Time>2022-08-20T13:20:39.000Z</Time>
            <Position>
              <LatitudeDegrees>42.81850568018853664398193359375</LatitudeDegrees>
              <LongitudeDegrees>-0.3026069886982440948486328125</LongitudeDegrees>
            </Position>
            <AltitudeMeters>2038.5999755859375</AltitudeMeters>
            <DistanceMeters>10037.251340887</DistanceMeters>
          </Trackpoint>
          <Trackpoint>
            <Time>2022-08-20T13:20:43.000Z</Time>
            <Position>
              <LatitudeDegrees>42.81848958693444728851318359375</LatitudeDegrees>
              <LongitudeDegrees>-0.3025456331670284271240234375</LongitudeDegrees>
            </Position>
            <AltitudeMeters>2038.5999755859375</AltitudeMeters>
            <DistanceMeters>10042.570290924</DistanceMeters>
          </Trackpoint>
          <Trackpoint>
            <Time>2022-08-20T13:20:58.000Z</Time>
            <Position>
              <LatitudeDegrees>42.81842588447034358978271484375</LatitudeDegrees>
              <LongitudeDegrees>-0.302310772240161895751953125</LongitudeDegrees>
            </Position>
            <AltitudeMeters>2038.5999755859375</AltitudeMeters>
            <DistanceMeters>10063.013627198</DistanceMeters>
          </Trackpoint>
          <Trackpoint>
            <Time>2022-08-20T13:21:00.000Z</Time>
            <Position>
              <LatitudeDegrees>42.818417586386203765869140625</LatitudeDegrees>
              <LongitudeDegrees>-0.30227095820009708404541015625</LongitudeDegrees>
            </Position>
            <AltitudeMeters>2038.800048828125</AltitudeMeters>
            <DistanceMeters>10066.393427</DistanceMeters>
          </Trackpoint>
          <Trackpoint>
            <Time>2022-08-20T13:21:05.000Z</Time>
            <Position>
              <LatitudeDegrees>42.81839914619922637939453125</LatitudeDegrees>
              <LongitudeDegrees>-0.30219451524317264556884765625</LongitudeDegrees>
            </Position>
            <AltitudeMeters>2039.800048828125</AltitudeMeters>
            <DistanceMeters>10072.963340652</DistanceMeters>
          </Trackpoint>
          <Trackpoint>
            <Time>2022-08-20T13:21:20.000Z</Time>
            <Position>
              <LatitudeDegrees>42.81835581175982952117919921875</LatitudeDegrees>
              <LongitudeDegrees>-0.3019602410495281219482421875</LongitudeDegrees>
            </Position>
            <AltitudeMeters>2042.800048828125</AltitudeMeters>
            <DistanceMeters>10092.688881555</DistanceMeters>
          </Trackpoint>
          <Trackpoint>
            <Time>2022-08-20T13:21:35.000Z</Time>
            <Position>
              <LatitudeDegrees>42.81828037463128566741943359375</LatitudeDegrees>
              <LongitudeDegrees>-0.30173979699611663818359375</LongitudeDegrees>
            </Position>
            <AltitudeMeters>2044.5999755859375</AltitudeMeters>
            <DistanceMeters>10112.548328142</DistanceMeters>
          </Trackpoint>
          <Trackpoint>
            <Time>2022-08-20T13:21:38.000Z</Time>
            <Position>
              <LatitudeDegrees>42.818272747099399566650390625</LatitudeDegrees>
              <LongitudeDegrees>-0.30170895159244537353515625</LongitudeDegrees>
            </Position>
            <AltitudeMeters>2045.199951171875</AltitudeMeters>
            <DistanceMeters>10115.205680166</DistanceMeters>
          </Trackpoint>
          <Trackpoint>
            <Time>2022-08-20T13:21:46.000Z</Time>
            <Position>
              <LatitudeDegrees>42.81827769242227077484130859375</LatitudeDegrees>
              <LongitudeDegrees>-0.30158020555973052978515625</LongitudeDegrees>
            </Position>
            <AltitudeMeters>2048.800048828125</AltitudeMeters>
            <DistanceMeters>10125.731363417</DistanceMeters>
          </Trackpoint>
          <Trackpoint>
            <Time>2022-08-20T13:21:49.000Z</Time>
            <Position>
              <LatitudeDegrees>42.81828339211642742156982421875</LatitudeDegrees>
              <LongitudeDegrees>-0.3015339374542236328125</LongitudeDegrees>
            </Position>
            <AltitudeMeters>2050.60009765625</AltitudeMeters>
            <DistanceMeters>10129.562012738</DistanceMeters>
          </Trackpoint>
          <Trackpoint>
            <Time>2022-08-20T13:21:53.000Z</Time>
            <Position>
              <LatitudeDegrees>42.81829051673412322998046875</LatitudeDegrees>
              <LongitudeDegrees>-0.30149169266223907470703125</LongitudeDegrees>
            </Position>
            <AltitudeMeters>2052.199951171875</AltitudeMeters>
            <DistanceMeters>10133.102315847</DistanceMeters>
          </Trackpoint>
          <Trackpoint>
            <Time>2022-08-20T13:22:01.000Z</Time>
            <Position>
              <LatitudeDegrees>42.818294875323772430419921875</LatitudeDegrees>
              <LongitudeDegrees>-0.30139890499413013458251953125</LongitudeDegrees>
            </Position>
            <AltitudeMeters>2055</AltitudeMeters>
            <DistanceMeters>10140.693754964</DistanceMeters>
          </Trackpoint>
          <Trackpoint>
            <Time>2022-08-20T13:22:16.000Z</Time>
            <Position>
              <LatitudeDegrees>42.8182323463261127471923828125</LatitudeDegrees>
              <LongitudeDegrees>-0.3012400679290294647216796875</LongitudeDegrees>
            </Position>
            <AltitudeMeters>2056.800048828125</AltitudeMeters>
            <DistanceMeters>10155.410935862</DistanceMeters>
          </Trackpoint>
          <Trackpoint>
            <Time>2022-08-20T13:22:28.000Z</Time>
            <Position>
              <LatitudeDegrees>42.81822748482227325439453125</LatitudeDegrees>
              <LongitudeDegrees>-0.3011324442923069000244140625</LongitudeDegrees>
            </Position>
            <AltitudeMeters>2057.199951171875</AltitudeMeters>
            <DistanceMeters>10164.214123696</DistanceMeters>
          </Trackpoint>
          <Trackpoint>
            <Time>2022-08-20T13:22:40.000Z</Time>
            <Position>
              <LatitudeDegrees>42.81818985007703304290771484375</LatitudeDegrees>
              <LongitudeDegrees>-0.301001854240894317626953125</LongitudeDegrees>
            </Position>
            <AltitudeMeters>2056.199951171875</AltitudeMeters>
            <DistanceMeters>10175.669474886</DistanceMeters>
          </Trackpoint>
          <Trackpoint>
            <Time>2022-08-20T13:22:42.000Z</Time>
            <Position>
              <LatitudeDegrees>42.81817384064197540283203125</LatitudeDegrees>
              <LongitudeDegrees>-0.3009741939604282379150390625</LongitudeDegrees>
            </Position>
            <AltitudeMeters>2055</AltitudeMeters>
            <DistanceMeters>10178.54550514</DistanceMeters>
          </Trackpoint>
          <Trackpoint>
            <Time>2022-08-20T13:22:51.000Z</Time>
            <Position>
              <LatitudeDegrees>42.81812732107937335968017578125</LatitudeDegrees>
              <LongitudeDegrees>-0.3008689172565937042236328125</LongitudeDegrees>
            </Position>
            <AltitudeMeters>2052.60009765625</AltitudeMeters>
            <DistanceMeters>10188.579714244</DistanceMeters>
          </Trackpoint>
          <Trackpoint>
            <Time>2022-08-20T13:22:54.000Z</Time>
            <Position>
              <LatitudeDegrees>42.81811357475817203521728515625</LatitudeDegrees>
              <LongitudeDegrees>-0.30084385536611080169677734375</LongitudeDegrees>
            </Position>
            <AltitudeMeters>2052.199951171875</AltitudeMeters>
            <DistanceMeters>10191.136621623</DistanceMeters>
          </Trackpoint>
          <Trackpoint>
            <Time>2022-08-20T13:23:03.000Z</Time>
            <Position>
              <LatitudeDegrees>42.8180767782032489776611328125</LatitudeDegrees>
              <LongitudeDegrees>-0.30076238326728343963623046875</LongitudeDegrees>
            </Position>
            <AltitudeMeters>2051.39990234375</AltitudeMeters>
            <DistanceMeters>10198.947910027</DistanceMeters>
          </Trackpoint>
          <Trackpoint>
            <Time>2022-08-20T13:23:09.000Z</Time>
            <Position>
              <LatitudeDegrees>42.81806630082428455352783203125</LatitudeDegrees>
              <LongitudeDegrees>-0.300694406032562255859375</LongitudeDegrees>
            </Position>
            <AltitudeMeters>2052</AltitudeMeters>
            <DistanceMeters>10204.619341266</DistanceMeters>
          </Trackpoint>
          <Trackpoint>
            <Time>2022-08-20T13:23:31.000Z</Time>
            <Position>
              <LatitudeDegrees>42.8180211223661899566650390625</LatitudeDegrees>
              <LongitudeDegrees>-0.300455354154109954833984375</LongitudeDegrees>
            </Position>
            <AltitudeMeters>2052.60009765625</AltitudeMeters>
            <DistanceMeters>10224.773295432</DistanceMeters>
          </Trackpoint>
          <Trackpoint>
            <Time>2022-08-20T13:23:53.000Z</Time>
            <Position>
              <LatitudeDegrees>42.81799924559891223907470703125</LatitudeDegrees>
              <LongitudeDegrees>-0.300208590924739837646484375</LongitudeDegrees>
            </Position>
            <AltitudeMeters>2055.199951171875</AltitudeMeters>
            <DistanceMeters>10245.065893738</DistanceMeters>
          </Trackpoint>
          <Trackpoint>
            <Time>2022-08-20T13:24:13.000Z</Time>
            <Position>
              <LatitudeDegrees>42.81798114068806171417236328125</LatitudeDegrees>
              <LongitudeDegrees>-0.29996576718986034393310546875</LongitudeDegrees>
            </Position>
            <AltitudeMeters>2060.199951171875</AltitudeMeters>
            <DistanceMeters>10264.992975349</DistanceMeters>
          </Trackpoint>
          <Trackpoint>
            <Time>2022-08-20T13:24:25.000Z</Time>
            <Position>
              <LatitudeDegrees>42.8180036880075931549072265625</LatitudeDegrees>
              <LongitudeDegrees>-0.299853868782520294189453125</LongitudeDegrees>
            </Position>
            <AltitudeMeters>2064</AltitudeMeters>
            <DistanceMeters>10274.468048964</DistanceMeters>
          </Trackpoint>
          <Trackpoint>
            <Time>2022-08-20T13:24:46.000Z</Time>
            <Position>
              <LatitudeDegrees>42.8179228864610195159912109375</LatitudeDegrees>
              <LongitudeDegrees>-0.299692265689373016357421875</LongitudeDegrees>
            </Position>
            <AltitudeMeters>2066.800048828125</AltitudeMeters>
            <DistanceMeters>10290.435364904</DistanceMeters>
          </Trackpoint>
          <Trackpoint>
            <Time>2022-08-20T13:24:58.000Z</Time>
            <Position>
              <LatitudeDegrees>42.81790821813046932220458984375</LatitudeDegrees>
              <LongitudeDegrees>-0.2996166609227657318115234375</LongitudeDegrees>
            </Position>
            <AltitudeMeters>2068.60009765625</AltitudeMeters>
            <DistanceMeters>10296.819859016</DistanceMeters>
          </Trackpoint>
          <Trackpoint>
            <Time>2022-08-20T13:25:14.000Z</Time>
            <Position>
              <LatitudeDegrees>42.81796672381460666656494140625</LatitudeDegrees>
              <LongitudeDegrees>-0.29952974058687686920166015625</LongitudeDegrees>
            </Position>
            <AltitudeMeters>2072.800048828125</AltitudeMeters>
            <DistanceMeters>10306.451368519</DistanceMeters>
          </Trackpoint>
          <Trackpoint>
            <Time>2022-08-20T13:25:36.000Z</Time>
            <Position>
              <LatitudeDegrees>42.8178942203521728515625</LatitudeDegrees>
              <LongitudeDegrees>-0.2993906848132610321044921875</LongitudeDegrees>
            </Position>
            <AltitudeMeters>2076.39990234375</AltitudeMeters>
            <DistanceMeters>10320.379834419</DistanceMeters>
          </Trackpoint>
          <Trackpoint>
            <Time>2022-08-20T13:25:40.000Z</Time>
            <Position>
              <LatitudeDegrees>42.81787754036486148834228515625</LatitudeDegrees>
              <LongitudeDegrees>-0.29936025850474834442138671875</LongitudeDegrees>
            </Position>
            <AltitudeMeters>2076.60009765625</AltitudeMeters>
            <DistanceMeters>10323.479512037</DistanceMeters>
          </Trackpoint>
          <Trackpoint>
            <Time>2022-08-20T13:26:04.000Z</Time>
            <Position>
              <LatitudeDegrees>42.8178394027054309844970703125</LatitudeDegrees>
              <LongitudeDegrees>-0.299110226333141326904296875</LongitudeDegrees>
            </Position>
            <AltitudeMeters>2079.199951171875</AltitudeMeters>
            <DistanceMeters>10344.329161435</DistanceMeters>
          </Trackpoint>
          <Trackpoint>
            <Time>2022-08-20T13:26:12.000Z</Time>
            <Position>
              <LatitudeDegrees>42.8178145922720432281494140625</LatitudeDegrees>
              <LongitudeDegrees>-0.29902565293014049530029296875</LongitudeDegrees>
            </Position>
            <AltitudeMeters>2079.800048828125</AltitudeMeters>
            <DistanceMeters>10351.76617819</DistanceMeters>
          </Trackpoint>
          <Trackpoint>
            <Time>2022-08-20T13:26:17.000Z</Time>
            <Position>
              <LatitudeDegrees>42.81778651289641857147216796875</LatitudeDegrees>
              <LongitudeDegrees>-0.2989764511585235595703125</LongitudeDegrees>
            </Position>
            <AltitudeMeters>2079.60009765625</AltitudeMeters>
            <DistanceMeters>10356.855211422</DistanceMeters>
          </Trackpoint>
          <Trackpoint>
            <Time>2022-08-20T13:26:34.000Z</Time>
            <Position>
              <LatitudeDegrees>42.81776840798556804656982421875</LatitudeDegrees>
              <LongitudeDegrees>-0.29874284751713275909423828125</LongitudeDegrees>
            </Position>
            <AltitudeMeters>2085.39990234375</AltitudeMeters>
            <DistanceMeters>10376.033193943</DistanceMeters>
          </Trackpoint>
          <Trackpoint>
            <Time>2022-08-20T13:26:37.000Z</Time>
            <Position>
              <LatitudeDegrees>42.81777276657521724700927734375</LatitudeDegrees>
              <LongitudeDegrees>-0.2987134270370006561279296875</LongitudeDegrees>
            </Position>
            <AltitudeMeters>2086.60009765625</AltitudeMeters>
            <DistanceMeters>10378.481861082</DistanceMeters>
          </Trackpoint>
          <Trackpoint>
            <Time>2022-08-20T13:26:43.000Z</Time>
            <Position>
              <LatitudeDegrees>42.81775214709341526031494140625</LatitudeDegrees>
              <LongitudeDegrees>-0.298663638532161712646484375</LongitudeDegrees>
            </Position>
            <AltitudeMeters>2088</AltitudeMeters>
            <DistanceMeters>10383.149791508</DistanceMeters>
          </Trackpoint>
          <Trackpoint>
            <Time>2022-08-20T13:27:00.000Z</Time>
            <Position>
              <LatitudeDegrees>42.81764351762831211090087890625</LatitudeDegrees>
              <LongitudeDegrees>-0.29856548644602298736572265625</LongitudeDegrees>
            </Position>
            <AltitudeMeters>2088.800048828125</AltitudeMeters>
            <DistanceMeters>10397.654367372</DistanceMeters>
          </Trackpoint>
          <Trackpoint>
            <Time>2022-08-20T13:27:25.000Z</Time>
            <Position>
              <LatitudeDegrees>42.81762910075485706329345703125</LatitudeDegrees>
              <LongitudeDegrees>-0.2983925677835941314697265625</LongitudeDegrees>
            </Position>
            <AltitudeMeters>2094.60009765625</AltitudeMeters>
            <DistanceMeters>10411.86268849</DistanceMeters>
          </Trackpoint>
          <Trackpoint>
            <Time>2022-08-20T13:27:38.000Z</Time>
            <Position>
              <LatitudeDegrees>42.81756925396621227264404296875</LatitudeDegrees>
              <LongitudeDegrees>-0.298289470374584197998046875</LongitudeDegrees>
            </Position>
            <AltitudeMeters>2097</AltitudeMeters>
            <DistanceMeters>10422.596501668</DistanceMeters>
          </Trackpoint>
          <Trackpoint>
            <Time>2022-08-20T13:27:41.000Z</Time>
            <Position>
              <LatitudeDegrees>42.81755450181663036346435546875</LatitudeDegrees>
              <LongitudeDegrees>-0.29825569130480289459228515625</LongitudeDegrees>
            </Position>
            <AltitudeMeters>2097.199951171875</AltitudeMeters>
            <DistanceMeters>10425.804972822</DistanceMeters>
          </Trackpoint>
          <Trackpoint>
            <Time>2022-08-20T13:27:45.000Z</Time>
            <Position>
              <LatitudeDegrees>42.81753321178257465362548828125</LatitudeDegrees>
              <LongitudeDegrees>-0.29820439405739307403564453125</LongitudeDegrees>
            </Position>
            <AltitudeMeters>2097.39990234375</AltitudeMeters>
            <DistanceMeters>10430.616741312</DistanceMeters>
          </Trackpoint>
          <Trackpoint>
            <Time>2022-08-20T13:28:11.000Z</Time>
            <Position>
              <LatitudeDegrees>42.8175540827214717864990234375</LatitudeDegrees>
              <LongitudeDegrees>-0.29796903021633625030517578125</LongitudeDegrees>
            </Position>
            <AltitudeMeters>2102.39990234375</AltitudeMeters>
            <DistanceMeters>10449.972355782</DistanceMeters>
          </Trackpoint>
          <Trackpoint>
            <Time>2022-08-20T13:28:27.000Z</Time>
            <Position>
              <LatitudeDegrees>42.81752684153616428375244140625</LatitudeDegrees>
              <LongitudeDegrees>-0.2977359294891357421875</LongitudeDegrees>
            </Position>
            <AltitudeMeters>2105.199951171875</AltitudeMeters>
            <DistanceMeters>10469.24310807</DistanceMeters>
          </Trackpoint>
          <Trackpoint>
            <Time>2022-08-20T13:28:29.000Z</Time>
            <Position>
              <LatitudeDegrees>42.81751477159559726715087890625</LatitudeDegrees>
              <LongitudeDegrees>-0.2977039106190204620361328125</LongitudeDegrees>
            </Position>
            <AltitudeMeters>2105.60009765625</AltitudeMeters>
            <DistanceMeters>10472.181262777</DistanceMeters>
          </Trackpoint>
          <Trackpoint>
            <Time>2022-08-20T13:28:34.000Z</Time>
            <Position>
              <LatitudeDegrees>42.8174779750406742095947265625</LatitudeDegrees>
              <LongitudeDegrees>-0.29762822203338146209716796875</LongitudeDegrees>
            </Position>
            <AltitudeMeters>2106.199951171875</AltitudeMeters>
            <DistanceMeters>10479.594564689</DistanceMeters>
          </Trackpoint>
          <Trackpoint>
            <Time>2022-08-20T13:28:37.000Z</Time>
            <Position>
              <LatitudeDegrees>42.8174531646072864532470703125</LatitudeDegrees>
              <LongitudeDegrees>-0.29759251512587070465087890625</LongitudeDegrees>
            </Position>
            <AltitudeMeters>2106.39990234375</AltitudeMeters>
            <DistanceMeters>10483.609373084</DistanceMeters>
          </Trackpoint>
          <Trackpoint>
            <Time>2022-08-20T13:28:45.000Z</Time>
            <Position>
              <LatitudeDegrees>42.8174022026360034942626953125</LatitudeDegrees>
              <LongitudeDegrees>-0.2975097857415676116943359375</LongitudeDegrees>
            </Position>
            <AltitudeMeters>2106.39990234375</AltitudeMeters>
            <DistanceMeters>10492.428958023</DistanceMeters>
          </Trackpoint>
          <Trackpoint>
            <Time>2022-08-20T13:28:49.000Z</Time>
            <Position>
              <LatitudeDegrees>42.8173961676657199859619140625</LatitudeDegrees>
              <LongitudeDegrees>-0.2974588237702846527099609375</LongitudeDegrees>
            </Position>
            <AltitudeMeters>2107.199951171875</AltitudeMeters>
            <DistanceMeters>10496.644547002</DistanceMeters>
          </Trackpoint>
          <Trackpoint>
            <Time>2022-08-20T13:29:00.000Z</Time>
            <Position>
              <LatitudeDegrees>42.8173723630607128143310546875</LatitudeDegrees>
              <LongitudeDegrees>-0.2973448298871517181396484375</LongitudeDegrees>
            </Position>
            <AltitudeMeters>2108.39990234375</AltitudeMeters>
            <DistanceMeters>10506.321421122</DistanceMeters>
          </Trackpoint>
          <Trackpoint>
            <Time>2022-08-20T13:29:05.000Z</Time>
            <Position>
              <LatitudeDegrees>42.8173478879034519195556640625</LatitudeDegrees>
              <LongitudeDegrees>-0.29733426868915557861328125</LongitudeDegrees>
            </Position>
            <AltitudeMeters>2107.60009765625</AltitudeMeters>
            <DistanceMeters>10509.178550644</DistanceMeters>
          </Trackpoint>
          <Trackpoint>
            <Time>2022-08-20T13:29:09.000Z</Time>
            <Position>
              <LatitudeDegrees>42.81733372248709201812744140625</LatitudeDegrees>
              <LongitudeDegrees>-0.29732831753790378570556640625</LongitudeDegrees>
            </Position>
            <AltitudeMeters>2107</AltitudeMeters>
            <DistanceMeters>10510.829938874</DistanceMeters>
          </Trackpoint>
          <Trackpoint>
            <Time>2022-08-20T13:29:20.000Z</Time>
            <Position>
              <LatitudeDegrees>42.8172888793051242828369140625</LatitudeDegrees>
              <LongitudeDegrees>-0.297228991985321044921875</LongitudeDegrees>
            </Position>
            <AltitudeMeters>2107</AltitudeMeters>
            <DistanceMeters>10520.351596686</DistanceMeters>
          </Trackpoint>
          <Trackpoint>
            <Time>2022-08-20T13:29:28.000Z</Time>
            <Position>
              <LatitudeDegrees>42.81726834364235401153564453125</LatitudeDegrees>
              <LongitudeDegrees>-0.29714408330619335174560546875</LongitudeDegrees>
            </Position>
            <AltitudeMeters>2107.60009765625</AltitudeMeters>
            <DistanceMeters>10527.650737116</DistanceMeters>
          </Trackpoint>
          <Trackpoint>
            <Time>2022-08-20T13:29:32.000Z</Time>
            <Position>
              <LatitudeDegrees>42.81728871166706085205078125</LatitudeDegrees>
              <LongitudeDegrees>-0.2970967255532741546630859375</LongitudeDegrees>
            </Position>
            <AltitudeMeters>2108.39990234375</AltitudeMeters>
            <DistanceMeters>10532.134145436</DistanceMeters>
          </Trackpoint>
          <Trackpoint>
            <Time>2022-08-20T13:29:35.000Z</Time>
            <Position>
              <LatitudeDegrees>42.81727471388876438140869140625</LatitudeDegrees>
              <LongitudeDegrees>-0.2970477752387523651123046875</LongitudeDegrees>
            </Position>
            <AltitudeMeters>2108.800048828125</AltitudeMeters>
            <DistanceMeters>10536.424051705</DistanceMeters>
          </Trackpoint>
          <Trackpoint>
            <Time>2022-08-20T13:29:40.000Z</Time>
            <Position>
              <LatitudeDegrees>42.81723448075354099273681640625</LatitudeDegrees>
              <LongitudeDegrees>-0.29699094593524932861328125</LongitudeDegrees>
            </Position>
            <AltitudeMeters>2108.800048828125</AltitudeMeters>
            <DistanceMeters>10542.871878621</DistanceMeters>
          </Trackpoint>
          <Trackpoint>
            <Time>2022-08-20T13:29:41.000Z</Time>
            <Position>
              <LatitudeDegrees>42.81722626648843288421630859375</LatitudeDegrees>
              <LongitudeDegrees>-0.2969810552895069122314453125</LongitudeDegrees>
            </Position>
            <AltitudeMeters>2108.800048828125</AltitudeMeters>
            <DistanceMeters>10544.088814337</DistanceMeters>
          </Trackpoint>
          <Trackpoint>
            <Time>2022-08-20T13:29:50.000Z</Time>
            <Position>
              <LatitudeDegrees>42.817207239568233489990234375</LatitudeDegrees>
              <LongitudeDegrees>-0.29688055627048015594482421875</LongitudeDegrees>
            </Position>
            <AltitudeMeters>2109.60009765625</AltitudeMeters>
            <DistanceMeters>10552.561659652</DistanceMeters>
          </Trackpoint>
          <Trackpoint>
            <Time>2022-08-20T13:30:01.000Z</Time>
            <Position>
              <LatitudeDegrees>42.81720497645437717437744140625</LatitudeDegrees>
              <LongitudeDegrees>-0.29677611775696277618408203125</LongitudeDegrees>
            </Position>
            <AltitudeMeters>2110.199951171875</AltitudeMeters>
            <DistanceMeters>10561.092391512</DistanceMeters>
          </Trackpoint>
          <Trackpoint>
            <Time>2022-08-20T13:30:26.000Z</Time>
            <Position>
              <LatitudeDegrees>42.8171292878687381744384765625</LatitudeDegrees>
              <LongitudeDegrees>-0.29656539671123027801513671875</LongitudeDegrees>
            </Position>
            <AltitudeMeters>2112.60009765625</AltitudeMeters>
            <DistanceMeters>10580.248230997</DistanceMeters>
          </Trackpoint>
          <Trackpoint>
            <Time>2022-08-20T13:30:49.000Z</Time>
            <Position>
              <LatitudeDegrees>42.81713490374386310577392578125</LatitudeDegrees>
              <LongitudeDegrees>-0.296329446136951446533203125</LongitudeDegrees>
            </Position>
            <AltitudeMeters>2117.199951171875</AltitudeMeters>
            <DistanceMeters>10599.522028878</DistanceMeters>
          </Trackpoint>
          <Trackpoint>
            <Time>2022-08-20T13:31:00.000Z</Time>
            <Position>
              <LatitudeDegrees>42.8171329759061336517333984375</LatitudeDegrees>
              <LongitudeDegrees>-0.296170525252819061279296875</LongitudeDegrees>
            </Position>
            <AltitudeMeters>2121.39990234375</AltitudeMeters>
            <DistanceMeters>10612.498656542</DistanceMeters>
          </Trackpoint>
          <Trackpoint>
            <Time>2022-08-20T13:31:04.000Z</Time>
            <Position>
              <LatitudeDegrees>42.81713373027741909027099609375</LatitudeDegrees>
              <LongitudeDegrees>-0.29611243866384029388427734375</LongitudeDegrees>
            </Position>
            <AltitudeMeters>2123</AltitudeMeters>
            <DistanceMeters>10617.242384032</DistanceMeters>
          </Trackpoint>
          <Trackpoint>
            <Time>2022-08-20T13:31:16.000Z</Time>
            <Position>
              <LatitudeDegrees>42.81715736724436283111572265625</LatitudeDegrees>
              <LongitudeDegrees>-0.2959145419299602508544921875</LongitudeDegrees>
            </Position>
            <AltitudeMeters>2126.800048828125</AltitudeMeters>
            <DistanceMeters>10633.612097483</DistanceMeters>
          </Trackpoint>
          <Trackpoint>
            <Time>2022-08-20T13:31:32.000Z</Time>
            <Position>
              <LatitudeDegrees>42.81717547215521335601806640625</LatitudeDegrees>
              <LongitudeDegrees>-0.29567104764282703399658203125</LongitudeDegrees>
            </Position>
            <AltitudeMeters>2129</AltitudeMeters>
            <DistanceMeters>10653.593709779</DistanceMeters>
          </Trackpoint>
          <Trackpoint>
            <Time>2022-08-20T13:31:46.000Z</Time>
            <Position>
              <LatitudeDegrees>42.81720514409244060516357421875</LatitudeDegrees>
              <LongitudeDegrees>-0.29542596079409122467041015625</LongitudeDegrees>
            </Position>
            <AltitudeMeters>2128.60009765625</AltitudeMeters>
            <DistanceMeters>10673.874289699</DistanceMeters>
          </Trackpoint>
          <Trackpoint>
            <Time>2022-08-20T13:32:00.000Z</Time>
            <Position>
              <LatitudeDegrees>42.81725090928375720977783203125</LatitudeDegrees>
              <LongitudeDegrees>-0.29517902992665767669677734375</LongitudeDegrees>
            </Position>
            <AltitudeMeters>2128.39990234375</AltitudeMeters>
            <DistanceMeters>10694.667993561</DistanceMeters>
          </Trackpoint>
          <Trackpoint>
            <Time>2022-08-20T13:32:14.000Z</Time>
            <Position>
              <LatitudeDegrees>42.81731964088976383209228515625</LatitudeDegrees>
              <LongitudeDegrees>-0.29495489783585071563720703125</LongitudeDegrees>
            </Position>
            <AltitudeMeters>2131.39990234375</AltitudeMeters>
            <DistanceMeters>10714.501505354</DistanceMeters>
          </Trackpoint>
          <Trackpoint>
            <Time>2022-08-20T13:32:26.000Z</Time>
            <Position>
              <LatitudeDegrees>42.817303799092769622802734375</LatitudeDegrees>
              <LongitudeDegrees>-0.29480301775038242340087890625</LongitudeDegrees>
            </Position>
            <AltitudeMeters>2130.800048828125</AltitudeMeters>
            <DistanceMeters>10727.025579285</DistanceMeters>
          </Trackpoint>
          <Trackpoint>
            <Time>2022-08-20T13:32:27.000Z</Time>
            <Position>
              <LatitudeDegrees>42.81730907969176769256591796875</LatitudeDegrees>
              <LongitudeDegrees>-0.294795222580432891845703125</LongitudeDegrees>
            </Position>
            <AltitudeMeters>2131</AltitudeMeters>
            <DistanceMeters>10727.891313854</DistanceMeters>
          </Trackpoint>
          <Trackpoint>
            <Time>2022-08-20T13:32:29.000Z</Time>
            <Position>
              <LatitudeDegrees>42.81731293536722660064697265625</LatitudeDegrees>
              <LongitudeDegrees>-0.29478239826858043670654296875</LongitudeDegrees>
            </Position>
            <AltitudeMeters>2131.199951171875</AltitudeMeters>
            <DistanceMeters>10729.023687845</DistanceMeters>
          </Trackpoint>
          <Trackpoint>
            <Time>2022-08-20T13:32:32.000Z</Time>
            <Position>
              <LatitudeDegrees>42.8173271007835865020751953125</LatitudeDegrees>
              <LongitudeDegrees>-0.2947618626058101654052734375</LongitudeDegrees>
            </Position>
            <AltitudeMeters>2132.199951171875</AltitudeMeters>
            <DistanceMeters>10731.326002957</DistanceMeters>
          </Trackpoint>
          <Trackpoint>
            <Time>2022-08-20T13:32:34.000Z</Time>
            <Position>
              <LatitudeDegrees>42.81734168529510498046875</LatitudeDegrees>
              <LongitudeDegrees>-0.29474736191332340240478515625</LongitudeDegrees>
            </Position>
            <AltitudeMeters>2133.199951171875</AltitudeMeters>
            <DistanceMeters>10733.335093341</DistanceMeters>
          </Trackpoint>
          <Trackpoint>
            <Time>2022-08-20T13:32:44.000Z</Time>
            <Position>
              <LatitudeDegrees>42.8173971734941005706787109375</LatitudeDegrees>
              <LongitudeDegrees>-0.29461450874805450439453125</LongitudeDegrees>
            </Position>
            <AltitudeMeters>2137.60009765625</AltitudeMeters>
            <DistanceMeters>10745.81691648</DistanceMeters>
          </Trackpoint>
          <Trackpoint>
            <Time>2022-08-20T13:32:58.000Z</Time>
            <Position>
              <LatitudeDegrees>42.81745056621730327606201171875</LatitudeDegrees>
              <LongitudeDegrees>-0.29442683793604373931884765625</LongitudeDegrees>
            </Position>
            <AltitudeMeters>2143</AltitudeMeters>
            <DistanceMeters>10762.250769537</DistanceMeters>
          </Trackpoint>
          <Trackpoint>
            <Time>2022-08-20T13:33:06.000Z</Time>
            <Position>
              <LatitudeDegrees>42.8174756281077861785888671875</LatitudeDegrees>
              <LongitudeDegrees>-0.29432675801217555999755859375</LongitudeDegrees>
            </Position>
            <AltitudeMeters>2145</AltitudeMeters>
            <DistanceMeters>10770.884614627</DistanceMeters>
          </Trackpoint>
          <Trackpoint>
            <Time>2022-08-20T13:33:10.000Z</Time>
            <Position>
              <LatitudeDegrees>42.81748124398291110992431640625</LatitudeDegrees>
              <LongitudeDegrees>-0.29428317211568355560302734375</LongitudeDegrees>
            </Position>
            <AltitudeMeters>2145.60009765625</AltitudeMeters>
            <DistanceMeters>10774.496879908</DistanceMeters>
          </Trackpoint>
          <Trackpoint>
            <Time>2022-08-20T13:33:16.000Z</Time>
            <Position>
              <LatitudeDegrees>42.81750655733048915863037109375</LatitudeDegrees>
              <LongitudeDegrees>-0.294230282306671142578125</LongitudeDegrees>
            </Position>
            <AltitudeMeters>2147.60009765625</AltitudeMeters>
            <DistanceMeters>10779.652900181</DistanceMeters>
          </Trackpoint>
          <Trackpoint>
            <Time>2022-08-20T13:33:20.000Z</Time>
            <Position>
              <LatitudeDegrees>42.817524410784244537353515625</LatitudeDegrees>
              <LongitudeDegrees>-0.294207818806171417236328125</LongitudeDegrees>
            </Position>
            <AltitudeMeters>2149</AltitudeMeters>
            <DistanceMeters>10782.35573792</DistanceMeters>
          </Trackpoint>
          <Trackpoint>
            <Time>2022-08-20T13:33:34.000Z</Time>
            <Position>
              <LatitudeDegrees>42.817551903426647186279296875</LatitudeDegrees>
              <LongitudeDegrees>-0.2942906320095062255859375</LongitudeDegrees>
            </Position>
            <AltitudeMeters>2151.199951171875</AltitudeMeters>
            <DistanceMeters>10789.7769532</DistanceMeters>
          </Trackpoint>
          <Trackpoint>
            <Time>2022-08-20T13:33:36.000Z</Time>
            <Position>
              <LatitudeDegrees>42.817561291158199310302734375</LatitudeDegrees>
              <LongitudeDegrees>-0.29430781491100788116455078125</LongitudeDegrees>
            </Position>
            <AltitudeMeters>2151.800048828125</AltitudeMeters>
            <DistanceMeters>10791.523998087</DistanceMeters>
          </Trackpoint>
          <Trackpoint>
            <Time>2022-08-20T13:33:44.000Z</Time>
            <Position>
              <LatitudeDegrees>42.817580066621303558349609375</LatitudeDegrees>
              <LongitudeDegrees>-0.29437285847961902618408203125</LongitudeDegrees>
            </Position>
            <AltitudeMeters>2153.39990234375</AltitudeMeters>
            <DistanceMeters>10797.231141482</DistanceMeters>
          </Trackpoint>
          <Trackpoint>
            <Time>2022-08-20T13:34:14.000Z</Time>
            <Position>
              <LatitudeDegrees>42.81757528893649578094482421875</LatitudeDegrees>
              <LongitudeDegrees>-0.29458500444889068603515625</LongitudeDegrees>
            </Position>
            <AltitudeMeters>2150.199951171875</AltitudeMeters>
            <DistanceMeters>10814.559908376</DistanceMeters>
          </Trackpoint>
          <Trackpoint>
            <Time>2022-08-20T13:34:40.000Z</Time>
            <Position>
              <LatitudeDegrees>42.81761568970978260040283203125</LatitudeDegrees>
              <LongitudeDegrees>-0.2945928834378719329833984375</LongitudeDegrees>
            </Position>
            <AltitudeMeters>2152.60009765625</AltitudeMeters>
            <DistanceMeters>10819.103338221</DistanceMeters>
          </Trackpoint>
          <Trackpoint>
            <Time>2022-08-20T13:34:43.000Z</Time>
            <Position>
              <LatitudeDegrees>42.8176322020590305328369140625</LatitudeDegrees>
              <LongitudeDegrees>-0.294571258127689361572265625</LongitudeDegrees>
            </Position>
            <AltitudeMeters>2153.800048828125</AltitudeMeters>
            <DistanceMeters>10821.653172537</DistanceMeters>
          </Trackpoint>
          <Trackpoint>
            <Time>2022-08-20T13:34:45.000Z</Time>
            <Position>
              <LatitudeDegrees>42.817642427980899810791015625</LatitudeDegrees>
              <LongitudeDegrees>-0.29454854317009449005126953125</LongitudeDegrees>
            </Position>
            <AltitudeMeters>2154.800048828125</AltitudeMeters>
            <DistanceMeters>10823.832580761</DistanceMeters>
          </Trackpoint>
          <Trackpoint>
            <Time>2022-08-20T13:34:47.000Z</Time>
            <Position>
              <LatitudeDegrees>42.8176496364176273345947265625</LatitudeDegrees>
              <LongitudeDegrees>-0.29452289454638957977294921875</LongitudeDegrees>
            </Position>
            <AltitudeMeters>2155.60009765625</AltitudeMeters>
            <DistanceMeters>10826.07529175</DistanceMeters>
          </Trackpoint>
          <Trackpoint>
            <Time>2022-08-20T13:35:02.000Z</Time>
            <Position>
              <LatitudeDegrees>42.81769414432346820831298828125</LatitudeDegrees>
              <LongitudeDegrees>-0.2943052165210247039794921875</LongitudeDegrees>
            </Position>
            <AltitudeMeters>2161.199951171875</AltitudeMeters>
            <DistanceMeters>10844.524673894</DistanceMeters>
          </Trackpoint>
          <Trackpoint>
            <Time>2022-08-20T13:35:07.000Z</Time>
            <Position>
              <LatitudeDegrees>42.81772213988006114959716796875</LatitudeDegrees>
              <LongitudeDegrees>-0.2942213974893093109130859375</LongitudeDegrees>
            </Position>
            <AltitudeMeters>2163.60009765625</AltitudeMeters>
            <DistanceMeters>10852.043803406</DistanceMeters>
          </Trackpoint>
          <Trackpoint>
            <Time>2022-08-20T13:35:13.000Z</Time>
            <Position>
              <LatitudeDegrees>42.817750386893749237060546875</LatitudeDegrees>
              <LongitudeDegrees>-0.29411167837679386138916015625</LongitudeDegrees>
            </Position>
            <AltitudeMeters>2165.60009765625</AltitudeMeters>
            <DistanceMeters>10861.537443013</DistanceMeters>
          </Trackpoint>
          <Trackpoint>
            <Time>2022-08-20T13:35:20.000Z</Time>
            <Position>
              <LatitudeDegrees>42.817759104073047637939453125</LatitudeDegrees>
              <LongitudeDegrees>-0.29399483464658260345458984375</LongitudeDegrees>
            </Position>
            <AltitudeMeters>2168</AltitudeMeters>
            <DistanceMeters>10871.126198842</DistanceMeters>
          </Trackpoint>
          <Trackpoint>
            <Time>2022-08-20T13:35:23.000Z</Time>
            <Position>
              <LatitudeDegrees>42.81777595169842243194580078125</LatitudeDegrees>
              <LongitudeDegrees>-0.29394588433206081390380859375</LongitudeDegrees>
            </Position>
            <AltitudeMeters>2169.800048828125</AltitudeMeters>
            <DistanceMeters>10875.540596305</DistanceMeters>
          </Trackpoint>
          <Trackpoint>
            <Time>2022-08-20T13:35:28.000Z</Time>
            <Position>
              <LatitudeDegrees>42.81777712516486644744873046875</LatitudeDegrees>
              <LongitudeDegrees>-0.293869189918041229248046875</LongitudeDegrees>
            </Position>
            <AltitudeMeters>2169.800048828125</AltitudeMeters>
            <DistanceMeters>10881.803714704</DistanceMeters>
          </Trackpoint>
          <Trackpoint>
            <Time>2022-08-20T13:35:43.000Z</Time>
            <Position>
              <LatitudeDegrees>42.8177632950246334075927734375</LatitudeDegrees>
              <LongitudeDegrees>-0.29361781664192676544189453125</LongitudeDegrees>
            </Position>
            <AltitudeMeters>2164.39990234375</AltitudeMeters>
            <DistanceMeters>10902.384403849</DistanceMeters>
          </Trackpoint>
          <Trackpoint>
            <Time>2022-08-20T13:35:44.000Z</Time>
            <Position>
              <LatitudeDegrees>42.81776706688106060028076171875</LatitudeDegrees>
              <LongitudeDegrees>-0.293601639568805694580078125</LongitudeDegrees>
            </Position>
            <AltitudeMeters>2164.39990234375</AltitudeMeters>
            <DistanceMeters>10903.768013695</DistanceMeters>
          </Trackpoint>
          <Trackpoint>
            <Time>2022-08-20T13:35:46.000Z</Time>
            <Position>
              <LatitudeDegrees>42.8177612833678722381591796875</LatitudeDegrees>
              <LongitudeDegrees>-0.29357003979384899139404296875</LongitudeDegrees>
            </Position>
            <AltitudeMeters>2163.39990234375</AltitudeMeters>
            <DistanceMeters>10906.42706425</DistanceMeters>
          </Trackpoint>
          <Trackpoint>
            <Time>2022-08-20T13:36:01.000Z</Time>
            <Position>
              <LatitudeDegrees>42.817784249782562255859375</LatitudeDegrees>
              <LongitudeDegrees>-0.2933359332382678985595703125</LongitudeDegrees>
            </Position>
            <AltitudeMeters>2161.60009765625</AltitudeMeters>
            <DistanceMeters>10925.710230168</DistanceMeters>
          </Trackpoint>
          <Trackpoint>
            <Time>2022-08-20T13:36:11.000Z</Time>
            <Position>
              <LatitudeDegrees>42.8177931345999240875244140625</LatitudeDegrees>
              <LongitudeDegrees>-0.293150357902050018310546875</LongitudeDegrees>
            </Position>
            <AltitudeMeters>2159.39990234375</AltitudeMeters>
            <DistanceMeters>10940.893108401</DistanceMeters>
          </Trackpoint>
          <Trackpoint>
            <Time>2022-08-20T13:36:14.000Z</Time>
            <Position>
              <LatitudeDegrees>42.81779967248439788818359375</LatitudeDegrees>
              <LongitudeDegrees>-0.29308833181858062744140625</LongitudeDegrees>
            </Position>
            <AltitudeMeters>2158.800048828125</AltitudeMeters>
            <DistanceMeters>10946.008688675</DistanceMeters>
          </Trackpoint>
          <Trackpoint>
            <Time>2022-08-20T13:36:22.000Z</Time>
            <Position>
              <LatitudeDegrees>42.81782825477421283721923828125</LatitudeDegrees>
              <LongitudeDegrees>-0.292949192225933074951171875</LongitudeDegrees>
            </Position>
            <AltitudeMeters>2160</AltitudeMeters>
            <DistanceMeters>10957.805021919</DistanceMeters>
          </Trackpoint>
          <Trackpoint>
            <Time>2022-08-20T13:36:26.000Z</Time>
            <Position>
              <LatitudeDegrees>42.81783680431544780731201171875</LatitudeDegrees>
              <LongitudeDegrees>-0.29288322664797306060791015625</LongitudeDegrees>
            </Position>
            <AltitudeMeters>2161</AltitudeMeters>
            <DistanceMeters>10963.273807267</DistanceMeters>
          </Trackpoint>
          <Trackpoint>
            <Time>2022-08-20T13:36:29.000Z</Time>
            <Position>
              <LatitudeDegrees>42.81784300692379474639892578125</LatitudeDegrees>
              <LongitudeDegrees>-0.29282907955348491668701171875</LongitudeDegrees>
            </Position>
            <AltitudeMeters>2161.800048828125</AltitudeMeters>
            <DistanceMeters>10967.747133702</DistanceMeters>
          </Trackpoint>
          <Trackpoint>
            <Time>2022-08-20T13:36:35.000Z</Time>
            <Position>
              <LatitudeDegrees>42.8178474493324756622314453125</LatitudeDegrees>
              <LongitudeDegrees>-0.29271525330841541290283203125</LongitudeDegrees>
            </Position>
            <AltitudeMeters>2162.60009765625</AltitudeMeters>
            <DistanceMeters>10977.052961613</DistanceMeters>
          </Trackpoint>
          <Trackpoint>
            <Time>2022-08-20T13:36:48.000Z</Time>
            <Position>
              <LatitudeDegrees>42.81784258782863616943359375</LatitudeDegrees>
              <LongitudeDegrees>-0.29246178455650806427001953125</LongitudeDegrees>
            </Position>
            <AltitudeMeters>2162.199951171875</AltitudeMeters>
            <DistanceMeters>10997.753741252</DistanceMeters>
          </Trackpoint>
          <Trackpoint>
            <Time>2022-08-20T13:37:01.000Z</Time>
            <Position>
              <LatitudeDegrees>42.8177954815328121185302734375</LatitudeDegrees>
              <LongitudeDegrees>-0.29221200384199619293212890625</LongitudeDegrees>
            </Position>
            <AltitudeMeters>2156.39990234375</AltitudeMeters>
            <DistanceMeters>11018.80939686</DistanceMeters>
          </Trackpoint>
          <Trackpoint>
            <Time>2022-08-20T13:37:13.000Z</Time>
            <Position>
              <LatitudeDegrees>42.81774678267538547515869140625</LatitudeDegrees>
              <LongitudeDegrees>-0.292001031339168548583984375</LongitudeDegrees>
            </Position>
            <AltitudeMeters>2152</AltitudeMeters>
            <DistanceMeters>11036.866473042</DistanceMeters>
          </Trackpoint>
          <Trackpoint>
            <Time>2022-08-20T13:37:18.000Z</Time>
            <Position>
              <LatitudeDegrees>42.81775139272212982177734375</LatitudeDegrees>
              <LongitudeDegrees>-0.291904471814632415771484375</LongitudeDegrees>
            </Position>
            <AltitudeMeters>2153</AltitudeMeters>
            <DistanceMeters>11044.766845715</DistanceMeters>
          </Trackpoint>
          <Trackpoint>
            <Time>2022-08-20T13:37:23.000Z</Time>
            <Position>
              <LatitudeDegrees>42.8177552483975887298583984375</LatitudeDegrees>
              <LongitudeDegrees>-0.29181956313550472259521484375</LongitudeDegrees>
            </Position>
            <AltitudeMeters>2154.800048828125</AltitudeMeters>
            <DistanceMeters>11051.712251993</DistanceMeters>
          </Trackpoint>
          <Trackpoint>
            <Time>2022-08-20T13:37:36.000Z</Time>
            <Position>
              <LatitudeDegrees>42.81771727837622165679931640625</LatitudeDegrees>
              <LongitudeDegrees>-0.2915800921618938446044921875</LongitudeDegrees>
            </Position>
            <AltitudeMeters>2156.39990234375</AltitudeMeters>
            <DistanceMeters>11071.714867499</DistanceMeters>
          </Trackpoint>
          <Trackpoint>
            <Time>2022-08-20T13:37:40.000Z</Time>
            <Position>
              <LatitudeDegrees>42.81771023757755756378173828125</LatitudeDegrees>
              <LongitudeDegrees>-0.2915230952203273773193359375</LongitudeDegrees>
            </Position>
            <AltitudeMeters>2156</AltitudeMeters>
            <DistanceMeters>11076.43378353</DistanceMeters>
          </Trackpoint>
          <Trackpoint>
            <Time>2022-08-20T13:37:44.000Z</Time>
            <Position>
              <LatitudeDegrees>42.81770043075084686279296875</LatitudeDegrees>
              <LongitudeDegrees>-0.29145059175789356231689453125</LongitudeDegrees>
            </Position>
            <AltitudeMeters>2155.199951171875</AltitudeMeters>
            <DistanceMeters>11082.452808924</DistanceMeters>
          </Trackpoint>
          <Trackpoint>
            <Time>2022-08-20T13:38:00.000Z</Time>
            <Position>
              <LatitudeDegrees>42.81763697974383831024169921875</LatitudeDegrees>
              <LongitudeDegrees>-0.29121019877493381500244140625</LongitudeDegrees>
            </Position>
            <AltitudeMeters>2146.60009765625</AltitudeMeters>
            <DistanceMeters>11103.310902149</DistanceMeters>
          </Trackpoint>
          <Trackpoint>
            <Time>2022-08-20T13:38:04.000Z</Time>
            <Position>
              <LatitudeDegrees>42.8176124207675457000732421875</LatitudeDegrees>
              <LongitudeDegrees>-0.29115957207977771759033203125</LongitudeDegrees>
            </Position>
            <AltitudeMeters>2142.60009765625</AltitudeMeters>
            <DistanceMeters>11108.265066839</DistanceMeters>
          </Trackpoint>
          <Trackpoint>
            <Time>2022-08-20T13:38:14.000Z</Time>
            <Position>
              <LatitudeDegrees>42.81762172468006610870361328125</LatitudeDegrees>
              <LongitudeDegrees>-0.2910265512764453887939453125</LongitudeDegrees>
            </Position>
            <AltitudeMeters>2140.199951171875</AltitudeMeters>
            <DistanceMeters>11119.173703206</DistanceMeters>
          </Trackpoint>
          <Trackpoint>
            <Time>2022-08-20T13:38:21.000Z</Time>
            <Position>
              <LatitudeDegrees>42.817633040249347686767578125</LatitudeDegrees>
              <LongitudeDegrees>-0.290936529636383056640625</LongitudeDegrees>
            </Position>
            <AltitudeMeters>2141.199951171875</AltitudeMeters>
            <DistanceMeters>11126.630121962</DistanceMeters>
          </Trackpoint>
          <Trackpoint>
            <Time>2022-08-20T13:38:27.000Z</Time>
            <Position>
              <LatitudeDegrees>42.81765843741595745086669921875</LatitudeDegrees>
              <LongitudeDegrees>-0.29088799841701984405517578125</LongitudeDegrees>
            </Position>
            <AltitudeMeters>2143.60009765625</AltitudeMeters>
            <DistanceMeters>11131.497864826</DistanceMeters>
          </Trackpoint>
          <Trackpoint>
            <Time>2022-08-20T13:38:30.000Z</Time>
            <Position>
              <LatitudeDegrees>42.817670591175556182861328125</LatitudeDegrees>
              <LongitudeDegrees>-0.2908480167388916015625</LongitudeDegrees>
            </Position>
            <AltitudeMeters>2144.800048828125</AltitudeMeters>
            <DistanceMeters>11135.031785555</DistanceMeters>
          </Trackpoint>
          <Trackpoint>
            <Time>2022-08-20T13:38:49.000Z</Time>
            <Position>
              <LatitudeDegrees>42.8177022747695446014404296875</LatitudeDegrees>
              <LongitudeDegrees>-0.2905950509011745452880859375</LongitudeDegrees>
            </Position>
            <AltitudeMeters>2148.39990234375</AltitudeMeters>
            <DistanceMeters>11155.983398288</DistanceMeters>
          </Trackpoint>
          <Trackpoint>
            <Time>2022-08-20T13:38:58.000Z</Time>
            <Position>
              <LatitudeDegrees>42.81772817485034465789794921875</LatitudeDegrees>
              <LongitudeDegrees>-0.29043386690318584442138671875</LongitudeDegrees>
            </Position>
            <AltitudeMeters>2150.60009765625</AltitudeMeters>
            <DistanceMeters>11169.455089955</DistanceMeters>
          </Trackpoint>
          <Trackpoint>
            <Time>2022-08-20T13:39:00.000Z</Time>
            <Position>
              <LatitudeDegrees>42.8177371434867382049560546875</LatitudeDegrees>
              <LongitudeDegrees>-0.29039480723440647125244140625</LongitudeDegrees>
            </Position>
            <AltitudeMeters>2151.199951171875</AltitudeMeters>
            <DistanceMeters>11172.798626202</DistanceMeters>
          </Trackpoint>
          <Trackpoint>
            <Time>2022-08-20T13:39:05.000Z</Time>
            <Position>
              <LatitudeDegrees>42.8177398256957530975341796875</LatitudeDegrees>
              <LongitudeDegrees>-0.2903020195662975311279296875</LongitudeDegrees>
            </Position>
            <AltitudeMeters>2151.39990234375</AltitudeMeters>
            <DistanceMeters>11180.380543285</DistanceMeters>
          </Trackpoint>
          <Trackpoint>
            <Time>2022-08-20T13:39:06.000Z</Time>
            <Position>
              <LatitudeDegrees>42.81773538328707218170166015625</LatitudeDegrees>
              <LongitudeDegrees>-0.2902859263122081756591796875</LongitudeDegrees>
            </Position>
            <AltitudeMeters>2151</AltitudeMeters>
            <DistanceMeters>11181.783595908</DistanceMeters>
          </Trackpoint>
          <Trackpoint>
            <Time>2022-08-20T13:39:07.000Z</Time>
            <Position>
              <LatitudeDegrees>42.81773253343999385833740234375</LatitudeDegrees>
              <LongitudeDegrees>-0.29027041979134082794189453125</LongitudeDegrees>
            </Position>
            <AltitudeMeters>2150.800048828125</AltitudeMeters>
            <DistanceMeters>11183.089997243</DistanceMeters>
          </Trackpoint>
          <Trackpoint>
            <Time>2022-08-20T13:39:21.000Z</Time>
            <Position>
              <LatitudeDegrees>42.81773823313415050506591796875</LatitudeDegrees>
              <LongitudeDegrees>-0.29000915586948394775390625</LongitudeDegrees>
            </Position>
            <AltitudeMeters>2152.800048828125</AltitudeMeters>
            <DistanceMeters>11204.429790004</DistanceMeters>
          </Trackpoint>
          <Trackpoint>
            <Time>2022-08-20T13:39:35.000Z</Time>
            <Position>
              <LatitudeDegrees>42.81768643297255039215087890625</LatitudeDegrees>
              <LongitudeDegrees>-0.28976549394428730010986328125</LongitudeDegrees>
            </Position>
            <AltitudeMeters>2149.800048828125</AltitudeMeters>
            <DistanceMeters>11225.14147225</DistanceMeters>
          </Trackpoint>
          <Trackpoint>
            <Time>2022-08-20T13:39:43.000Z</Time>
            <Position>
              <LatitudeDegrees>42.81767897307872772216796875</LatitudeDegrees>
              <LongitudeDegrees>-0.28965250588953495025634765625</LongitudeDegrees>
            </Position>
            <AltitudeMeters>2149.800048828125</AltitudeMeters>
            <DistanceMeters>11234.403530672</DistanceMeters>
          </Trackpoint>
          <Trackpoint>
            <Time>2022-08-20T13:39:46.000Z</Time>
            <Position>
              <LatitudeDegrees>42.81768056564033031463623046875</LatitudeDegrees>
              <LongitudeDegrees>-0.28961679898202419281005859375</LongitudeDegrees>
            </Position>
            <AltitudeMeters>2150</AltitudeMeters>
            <DistanceMeters>11237.324732863</DistanceMeters>
          </Trackpoint>
          <Trackpoint>
            <Time>2022-08-20T13:39:56.000Z</Time>
            <Position>
              <LatitudeDegrees>42.81770437024533748626708984375</LatitudeDegrees>
              <LongitudeDegrees>-0.28943876735866069793701171875</LongitudeDegrees>
            </Position>
            <AltitudeMeters>2152.60009765625</AltitudeMeters>
            <DistanceMeters>11252.099477123</DistanceMeters>
          </Trackpoint>
          <Trackpoint>
            <Time>2022-08-20T13:40:10.000Z</Time>
            <Position>
              <LatitudeDegrees>42.81770177185535430908203125</LatitudeDegrees>
              <LongitudeDegrees>-0.28918680734932422637939453125</LongitudeDegrees>
            </Position>
            <AltitudeMeters>2152</AltitudeMeters>
            <DistanceMeters>11272.672266991</DistanceMeters>
          </Trackpoint>
          <Trackpoint>
            <Time>2022-08-20T13:40:26.000Z</Time>
            <Position>
              <LatitudeDegrees>42.81767235137522220611572265625</LatitudeDegrees>
              <LongitudeDegrees>-0.28896602801978588104248046875</LongitudeDegrees>
            </Position>
            <AltitudeMeters>2151.39990234375</AltitudeMeters>
            <DistanceMeters>11290.992471173</DistanceMeters>
          </Trackpoint>
          <Trackpoint>
            <Time>2022-08-20T13:40:27.000Z</Time>
            <Position>
              <LatitudeDegrees>42.81767218373715877532958984375</LatitudeDegrees>
              <LongitudeDegrees>-0.28896217234432697296142578125</LongitudeDegrees>
            </Position>
            <AltitudeMeters>2151.60009765625</AltitudeMeters>
            <DistanceMeters>11291.307639129</DistanceMeters>
          </Trackpoint>
          <Trackpoint>
            <Time>2022-08-20T13:40:31.000Z</Time>
            <Position>
              <LatitudeDegrees>42.8176586888730525970458984375</LatitudeDegrees>
              <LongitudeDegrees>-0.28891347348690032958984375</LongitudeDegrees>
            </Position>
            <AltitudeMeters>2151.39990234375</AltitudeMeters>
            <DistanceMeters>11295.55736299</DistanceMeters>
          </Trackpoint>
          <Trackpoint>
            <Time>2022-08-20T13:40:38.000Z</Time>
            <Position>
              <LatitudeDegrees>42.81763228587806224822998046875</LatitudeDegrees>
              <LongitudeDegrees>-0.2887936122715473175048828125</LongitudeDegrees>
            </Position>
            <AltitudeMeters>2151.199951171875</AltitudeMeters>
            <DistanceMeters>11305.774392093</DistanceMeters>
          </Trackpoint>
          <Trackpoint>
            <Time>2022-08-20T13:40:52.000Z</Time>
            <Position>
              <LatitudeDegrees>42.81756824813783168792724609375</LatitudeDegrees>
              <LongitudeDegrees>-0.28856604360044002532958984375</LongitudeDegrees>
            </Position>
            <AltitudeMeters>2148.800048828125</AltitudeMeters>
            <DistanceMeters>11325.67426577</DistanceMeters>
          </Trackpoint>
          <Trackpoint>
            <Time>2022-08-20T13:41:08.000Z</Time>
            <Position>
              <LatitudeDegrees>42.8174665756523609161376953125</LatitudeDegrees>
              <LongitudeDegrees>-0.2883522212505340576171875</LongitudeDegrees>
            </Position>
            <AltitudeMeters>2147</AltitudeMeters>
            <DistanceMeters>11346.478389495</DistanceMeters>
          </Trackpoint>
          <Trackpoint>
            <Time>2022-08-20T13:41:10.000Z</Time>
            <Position>
              <LatitudeDegrees>42.817463390529155731201171875</LatitudeDegrees>
              <LongitudeDegrees>-0.2883265726268291473388671875</LongitudeDegrees>
            </Position>
            <AltitudeMeters>2147.39990234375</AltitudeMeters>
            <DistanceMeters>11348.603251425</DistanceMeters>
          </Trackpoint>
          <Trackpoint>
            <Time>2022-08-20T13:41:11.000Z</Time>
            <Position>
              <LatitudeDegrees>42.81746179796755313873291015625</LatitudeDegrees>
              <LongitudeDegrees>-0.28830922208726406097412109375</LongitudeDegrees>
            </Position>
            <AltitudeMeters>2147.800048828125</AltitudeMeters>
            <DistanceMeters>11350.031816186</DistanceMeters>
          </Trackpoint>
          <Trackpoint>
            <Time>2022-08-20T13:41:17.000Z</Time>
            <Position>
              <LatitudeDegrees>42.817454673349857330322265625</LatitudeDegrees>
              <LongitudeDegrees>-0.28822389431297779083251953125</LongitudeDegrees>
            </Position>
            <AltitudeMeters>2148.39990234375</AltitudeMeters>
            <DistanceMeters>11357.043216628</DistanceMeters>
          </Trackpoint>
          <Trackpoint>
            <Time>2022-08-20T13:41:27.000Z</Time>
            <Position>
              <LatitudeDegrees>42.81737982295453548431396484375</LatitudeDegrees>
              <LongitudeDegrees>-0.2880871854722499847412109375</LongitudeDegrees>
            </Position>
            <AltitudeMeters>2146.60009765625</AltitudeMeters>
            <DistanceMeters>11370.970710017</DistanceMeters>
          </Trackpoint>
          <Trackpoint>
            <Time>2022-08-20T13:41:40.000Z</Time>
            <Position>
              <LatitudeDegrees>42.8171996958553791046142578125</LatitudeDegrees>
              <LongitudeDegrees>-0.2881136722862720489501953125</LongitudeDegrees>
            </Position>
            <AltitudeMeters>2140.199951171875</AltitudeMeters>
            <DistanceMeters>11391.135414631</DistanceMeters>
          </Trackpoint>
          <Trackpoint>
            <Time>2022-08-20T13:41:55.000Z</Time>
            <Position>
              <LatitudeDegrees>42.817065753042697906494140625</LatitudeDegrees>
              <LongitudeDegrees>-0.287952236831188201904296875</LongitudeDegrees>
            </Position>
            <AltitudeMeters>2141</AltitudeMeters>
            <DistanceMeters>11411.033926936</DistanceMeters>
          </Trackpoint>
          <Trackpoint>
            <Time>2022-08-20T13:42:12.000Z</Time>
            <Position>
              <LatitudeDegrees>42.81692133285105228424072265625</LatitudeDegrees>
              <LongitudeDegrees>-0.28783614747226238250732421875</LongitudeDegrees>
            </Position>
            <AltitudeMeters>2139.800048828125</AltitudeMeters>
            <DistanceMeters>11429.694280034</DistanceMeters>
          </Trackpoint>
          <Trackpoint>
            <Time>2022-08-20T13:42:15.000Z</Time>
            <Position>
              <LatitudeDegrees>42.8168865479528903961181640625</LatitudeDegrees>
              <LongitudeDegrees>-0.28783178888261318206787109375</LongitudeDegrees>
            </Position>
            <AltitudeMeters>2139.39990234375</AltitudeMeters>
            <DistanceMeters>11433.582254824</DistanceMeters>
          </Trackpoint>
          <Trackpoint>
            <Time>2022-08-20T13:42:17.000Z</Time>
            <Position>
              <LatitudeDegrees>42.81686760485172271728515625</LatitudeDegrees>
              <LongitudeDegrees>-0.28782189823687076568603515625</LongitudeDegrees>
            </Position>
            <AltitudeMeters>2139.39990234375</AltitudeMeters>
            <DistanceMeters>11435.841014039</DistanceMeters>
          </Trackpoint>
          <Trackpoint>
            <Time>2022-08-20T13:42:23.000Z</Time>
            <Position>
              <LatitudeDegrees>42.81684807501733303070068359375</LatitudeDegrees>
              <LongitudeDegrees>-0.28778962790966033935546875</LongitudeDegrees>
            </Position>
            <AltitudeMeters>2139.800048828125</AltitudeMeters>
            <DistanceMeters>11439.256692414</DistanceMeters>
          </Trackpoint>
          <Trackpoint>
            <Time>2022-08-20T13:42:25.000Z</Time>
            <Position>
              <LatitudeDegrees>42.8168476559221744537353515625</LatitudeDegrees>
              <LongitudeDegrees>-0.2877887897193431854248046875</LongitudeDegrees>
            </Position>
            <AltitudeMeters>2139.800048828125</AltitudeMeters>
            <DistanceMeters>11439.391080483</DistanceMeters>
          </Trackpoint>
          <Trackpoint>
            <Time>2022-08-20T13:42:26.000Z</Time>
            <Position>
              <LatitudeDegrees>42.8168449737131595611572265625</LatitudeDegrees>
              <LongitudeDegrees>-0.28778669424355030059814453125</LongitudeDegrees>
            </Position>
            <AltitudeMeters>2139.800048828125</AltitudeMeters>
            <DistanceMeters>11439.720262677</DistanceMeters>
          </Trackpoint>
          <Trackpoint>
            <Time>2022-08-22T06:13:25.000Z</Time>
            <Position>
              <LatitudeDegrees>42.81706877052783966064453125</LatitudeDegrees>
              <LongitudeDegrees>-0.28778501786291599273681640625</LongitudeDegrees>
            </Position>
            <AltitudeMeters>2142.800048828125</AltitudeMeters>
            <DistanceMeters>11464.629590501</DistanceMeters>
          </Trackpoint>
          <Trackpoint>
            <Time>2022-08-22T06:13:27.000Z</Time>
            <Position>
              <LatitudeDegrees>42.8170850314199924468994140625</LatitudeDegrees>
              <LongitudeDegrees>-0.28778686188161373138427734375</LongitudeDegrees>
            </Position>
            <AltitudeMeters>2143</AltitudeMeters>
            <DistanceMeters>11466.44507333</DistanceMeters>
          </Trackpoint>
          <Trackpoint>
            <Time>2022-08-22T06:13:32.000Z</Time>
            <Position>
              <LatitudeDegrees>42.8171158768236637115478515625</LatitudeDegrees>
              <LongitudeDegrees>-0.287823490798473358154296875</LongitudeDegrees>
            </Position>
            <AltitudeMeters>2143</AltitudeMeters>
            <DistanceMeters>11470.998429841</DistanceMeters>
          </Trackpoint>
          <Trackpoint>
            <Time>2022-08-22T06:13:49.000Z</Time>
            <Position>
              <LatitudeDegrees>42.8172137774527072906494140625</LatitudeDegrees>
              <LongitudeDegrees>-0.28803060762584209442138671875</LongitudeDegrees>
            </Position>
            <AltitudeMeters>2142.39990234375</AltitudeMeters>
            <DistanceMeters>11491.114936639</DistanceMeters>
          </Trackpoint>
          <Trackpoint>
            <Time>2022-08-22T06:13:51.000Z</Time>
            <Position>
              <LatitudeDegrees>42.817237079143524169921875</LatitudeDegrees>
              <LongitudeDegrees>-0.28804334811866283416748046875</LongitudeDegrees>
            </Position>
            <AltitudeMeters>2142.60009765625</AltitudeMeters>
            <DistanceMeters>11493.909756154</DistanceMeters>
          </Trackpoint>
          <Trackpoint>
            <Time>2022-08-22T06:13:52.000Z</Time>
            <Position>
              <LatitudeDegrees>42.81724889762699604034423828125</LatitudeDegrees>
              <LongitudeDegrees>-0.28804804198443889617919921875</LongitudeDegrees>
            </Position>
            <AltitudeMeters>2142.60009765625</AltitudeMeters>
            <DistanceMeters>11495.280250919</DistanceMeters>
          </Trackpoint>
          <Trackpoint>
            <Time>2022-08-22T06:13:53.000Z</Time>
            <Position>
              <LatitudeDegrees>42.81726281158626079559326171875</LatitudeDegrees>
              <LongitudeDegrees>-0.2880503050982952117919921875</LongitudeDegrees>
            </Position>
            <AltitudeMeters>2142.800048828125</AltitudeMeters>
            <DistanceMeters>11496.84169917</DistanceMeters>
          </Trackpoint>
          <Trackpoint>
            <Time>2022-08-22T06:14:07.000Z</Time>
            <Position>
              <LatitudeDegrees>42.81744838692247867584228515625</LatitudeDegrees>
              <LongitudeDegrees>-0.28809380717575550079345703125</LongitudeDegrees>
            </Position>
            <AltitudeMeters>2149</AltitudeMeters>
            <DistanceMeters>11517.799560423</DistanceMeters>
          </Trackpoint>
          <Trackpoint>
            <Time>2022-08-22T06:14:14.000Z</Time>
            <Position>
              <LatitudeDegrees>42.81751778908073902130126953125</LatitudeDegrees>
              <LongitudeDegrees>-0.2881760336458683013916015625</LongitudeDegrees>
            </Position>
            <AltitudeMeters>2151.39990234375</AltitudeMeters>
            <DistanceMeters>11528.033368443</DistanceMeters>
          </Trackpoint>
          <Trackpoint>
            <Time>2022-08-22T06:14:17.000Z</Time>
            <Position>
              <LatitudeDegrees>42.81751938164234161376953125</LatitudeDegrees>
              <LongitudeDegrees>-0.28820394538342952728271484375</LongitudeDegrees>
            </Position>
            <AltitudeMeters>2151.199951171875</AltitudeMeters>
            <DistanceMeters>11530.317965604</DistanceMeters>
          </Trackpoint>
          <Trackpoint>
            <Time>2022-08-22T06:14:23.000Z</Time>
            <Position>
              <LatitudeDegrees>42.81752315349876880645751953125</LatitudeDegrees>
              <LongitudeDegrees>-0.2882125787436962127685546875</LongitudeDegrees>
            </Position>
            <AltitudeMeters>2151.39990234375</AltitudeMeters>
            <DistanceMeters>11531.13541631</DistanceMeters>
          </Trackpoint>
          <Trackpoint>
            <Time>2022-08-22T06:14:29.000Z</Time>
            <Position>
              <LatitudeDegrees>42.8175151906907558441162109375</LatitudeDegrees>
              <LongitudeDegrees>-0.28827753849327564239501953125</LongitudeDegrees>
            </Position>
            <AltitudeMeters>2150.800048828125</AltitudeMeters>
            <DistanceMeters>11536.512618628</DistanceMeters>
          </Trackpoint>
          <Trackpoint>
            <Time>2022-08-22T06:14:37.000Z</Time>
            <Position>
              <LatitudeDegrees>42.81751644797623157501220703125</LatitudeDegrees>
              <LongitudeDegrees>-0.28835800476372241973876953125</LongitudeDegrees>
            </Position>
            <AltitudeMeters>2149.199951171875</AltitudeMeters>
            <DistanceMeters>11543.083906596</DistanceMeters>
          </Trackpoint>
          <Trackpoint>
            <Time>2022-08-22T06:14:55.000Z</Time>
            <Position>
              <LatitudeDegrees>42.8175564296543598175048828125</LatitudeDegrees>
              <LongitudeDegrees>-0.28814124874770641326904296875</LongitudeDegrees>
            </Position>
            <AltitudeMeters>2153.199951171875</AltitudeMeters>
            <DistanceMeters>11561.331015371</DistanceMeters>
          </Trackpoint>
          <Trackpoint>
            <Time>2022-08-22T06:14:59.000Z</Time>
            <Position>
              <LatitudeDegrees>42.81757361255586147308349609375</LatitudeDegrees>
              <LongitudeDegrees>-0.288088358938694000244140625</LongitudeDegrees>
            </Position>
            <AltitudeMeters>2154</AltitudeMeters>
            <DistanceMeters>11566.053757034</DistanceMeters>
          </Trackpoint>
          <Trackpoint>
            <Time>2022-08-22T06:15:20.000Z</Time>
            <Position>
              <LatitudeDegrees>42.81768140383064746856689453125</LatitudeDegrees>
              <LongitudeDegrees>-0.28789599426090717315673828125</LongitudeDegrees>
            </Position>
            <AltitudeMeters>2156.60009765625</AltitudeMeters>
            <DistanceMeters>11585.817029195</DistanceMeters>
          </Trackpoint>
          <Trackpoint>
            <Time>2022-08-22T06:15:26.000Z</Time>
            <Position>
              <LatitudeDegrees>42.8176985867321491241455078125</LatitudeDegrees>
              <LongitudeDegrees>-0.28783899731934070587158203125</LongitudeDegrees>
            </Position>
            <AltitudeMeters>2156.60009765625</AltitudeMeters>
            <DistanceMeters>11590.84806331</DistanceMeters>
          </Trackpoint>
          <Trackpoint>
            <Time>2022-08-22T06:15:33.000Z</Time>
            <Position>
              <LatitudeDegrees>42.81773672439157962799072265625</LatitudeDegrees>
              <LongitudeDegrees>-0.28780731372535228729248046875</LongitudeDegrees>
            </Position>
            <AltitudeMeters>2157.39990234375</AltitudeMeters>
            <DistanceMeters>11595.818605449</DistanceMeters>
          </Trackpoint>
          <Trackpoint>
            <Time>2022-08-22T06:15:58.000Z</Time>
            <Position>
              <LatitudeDegrees>42.81789346598088741302490234375</LatitudeDegrees>
              <LongitudeDegrees>-0.28770170174539089202880859375</LongitudeDegrees>
            </Position>
            <AltitudeMeters>2161.199951171875</AltitudeMeters>
            <DistanceMeters>11615.278907243</DistanceMeters>
          </Trackpoint>
          <Trackpoint>
            <Time>2022-08-22T06:16:26.000Z</Time>
            <Position>
              <LatitudeDegrees>42.81805825419723987579345703125</LatitudeDegrees>
              <LongitudeDegrees>-0.28761067427694797515869140625</LongitudeDegrees>
            </Position>
            <AltitudeMeters>2167.60009765625</AltitudeMeters>
            <DistanceMeters>11635.068206251</DistanceMeters>
          </Trackpoint>
          <Trackpoint>
            <Time>2022-08-22T06:16:53.000Z</Time>
            <Position>
              <LatitudeDegrees>42.81811608932912349700927734375</LatitudeDegrees>
              <LongitudeDegrees>-0.28742962516844272613525390625</LongitudeDegrees>
            </Position>
            <AltitudeMeters>2171.199951171875</AltitudeMeters>
            <DistanceMeters>11651.190014161</DistanceMeters>
          </Trackpoint>
          <Trackpoint>
            <Time>2022-08-22T06:17:17.000Z</Time>
            <Position>
              <LatitudeDegrees>42.8182863257825374603271484375</LatitudeDegrees>
              <LongitudeDegrees>-0.2873633243143558502197265625</LongitudeDegrees>
            </Position>
            <AltitudeMeters>2181.800048828125</AltitudeMeters>
            <DistanceMeters>11670.89563131</DistanceMeters>
          </Trackpoint>
          <Trackpoint>
            <Time>2022-08-22T06:17:51.000Z</Time>
            <Position>
              <LatitudeDegrees>42.818452455103397369384765625</LatitudeDegrees>
              <LongitudeDegrees>-0.28735117055475711822509765625</LongitudeDegrees>
            </Position>
            <AltitudeMeters>2191.39990234375</AltitudeMeters>
            <DistanceMeters>11689.412922222</DistanceMeters>
          </Trackpoint>
          <Trackpoint>
            <Time>2022-08-22T06:18:08.000Z</Time>
            <Position>
              <LatitudeDegrees>42.8185642696917057037353515625</LatitudeDegrees>
              <LongitudeDegrees>-0.28725494630634784698486328125</LongitudeDegrees>
            </Position>
            <AltitudeMeters>2196.800048828125</AltitudeMeters>
            <DistanceMeters>11704.13010312</DistanceMeters>
          </Trackpoint>
          <Trackpoint>
            <Time>2022-08-22T06:18:24.000Z</Time>
            <Position>
              <LatitudeDegrees>42.81865102238953113555908203125</LatitudeDegrees>
              <LongitudeDegrees>-0.2871705405414104461669921875</LongitudeDegrees>
            </Position>
            <AltitudeMeters>2201.199951171875</AltitudeMeters>
            <DistanceMeters>11715.992847799</DistanceMeters>
          </Trackpoint>
          <Trackpoint>
            <Time>2022-08-22T06:18:58.000Z</Time>
            <Position>
              <LatitudeDegrees>42.8187989629805088043212890625</LatitudeDegrees>
              <LongitudeDegrees>-0.28703198768198490142822265625</LongitudeDegrees>
            </Position>
            <AltitudeMeters>2207.39990234375</AltitudeMeters>
            <DistanceMeters>11735.9701664</DistanceMeters>
          </Trackpoint>
          <Trackpoint>
            <Time>2022-08-22T06:19:24.000Z</Time>
            <Position>
              <LatitudeDegrees>42.8189169801771640777587890625</LatitudeDegrees>
              <LongitudeDegrees>-0.2868513576686382293701171875</LongitudeDegrees>
            </Position>
            <AltitudeMeters>2213.199951171875</AltitudeMeters>
            <DistanceMeters>11755.718811964</DistanceMeters>
          </Trackpoint>
          <Trackpoint>
            <Time>2022-08-22T06:19:36.000Z</Time>
            <Position>
              <LatitudeDegrees>42.8189863823354244232177734375</LatitudeDegrees>
              <LongitudeDegrees>-0.28679913841187953948974609375</LongitudeDegrees>
            </Position>
            <AltitudeMeters>2217.199951171875</AltitudeMeters>
            <DistanceMeters>11764.541979708</DistanceMeters>
          </Trackpoint>
          <Trackpoint>
            <Time>2022-08-22T06:19:38.000Z</Time>
            <Position>
              <LatitudeDegrees>42.8189994581043720245361328125</LatitudeDegrees>
              <LongitudeDegrees>-0.28678639791905879974365234375</LongitudeDegrees>
            </Position>
            <AltitudeMeters>2218.60009765625</AltitudeMeters>
            <DistanceMeters>11766.329896669</DistanceMeters>
          </Trackpoint>
          <Trackpoint>
            <Time>2022-08-22T06:19:39.000Z</Time>
            <Position>
              <LatitudeDegrees>42.81900473870337009429931640625</LatitudeDegrees>
              <LongitudeDegrees>-0.28677801601588726043701171875</LongitudeDegrees>
            </Position>
            <AltitudeMeters>2219</AltitudeMeters>
            <DistanceMeters>11767.236393749</DistanceMeters>
          </Trackpoint>
          <Trackpoint>
            <Time>2022-08-22T06:19:40.000Z</Time>
            <Position>
              <LatitudeDegrees>42.81900859437882900238037109375</LatitudeDegrees>
              <LongitudeDegrees>-0.2867742441594600677490234375</LongitudeDegrees>
            </Position>
            <AltitudeMeters>2219.39990234375</AltitudeMeters>
            <DistanceMeters>11767.773946022</DistanceMeters>
          </Trackpoint>
          <Trackpoint>
            <Time>2022-08-22T06:19:42.000Z</Time>
            <Position>
              <LatitudeDegrees>42.819015718996524810791015625</LatitudeDegrees>
              <LongitudeDegrees>-0.2867725677788257598876953125</LongitudeDegrees>
            </Position>
            <AltitudeMeters>2220</AltitudeMeters>
            <DistanceMeters>11768.580274432</DistanceMeters>
          </Trackpoint>
          <Trackpoint>
            <Time>2022-08-22T06:20:26.000Z</Time>
            <Position>
              <LatitudeDegrees>42.819168604910373687744140625</LatitudeDegrees>
              <LongitudeDegrees>-0.28670333325862884521484375</LongitudeDegrees>
            </Position>
            <AltitudeMeters>2233.199951171875</AltitudeMeters>
            <DistanceMeters>11786.510886293</DistanceMeters>
          </Trackpoint>
          <Trackpoint>
            <Time>2022-08-22T06:20:35.000Z</Time>
            <Position>
              <LatitudeDegrees>42.81920238398015499114990234375</LatitudeDegrees>
              <LongitudeDegrees>-0.28667072765529155731201171875</LongitudeDegrees>
            </Position>
            <AltitudeMeters>2236.60009765625</AltitudeMeters>
            <DistanceMeters>11791.115516516</DistanceMeters>
          </Trackpoint>
          <Trackpoint>
            <Time>2022-08-22T06:20:41.000Z</Time>
            <Position>
              <LatitudeDegrees>42.8192286193370819091796875</LatitudeDegrees>
              <LongitudeDegrees>-0.28666754253208637237548828125</LongitudeDegrees>
            </Position>
            <AltitudeMeters>2238.39990234375</AltitudeMeters>
            <DistanceMeters>11794.047518012</DistanceMeters>
          </Trackpoint>
          <Trackpoint>
            <Time>2022-08-22T06:21:24.000Z</Time>
            <Position>
              <LatitudeDegrees>42.8193689323961734771728515625</LatitudeDegrees>
              <LongitudeDegrees>-0.28676007874310016632080078125</LongitudeDegrees>
            </Position>
            <AltitudeMeters>2243.60009765625</AltitudeMeters>
            <DistanceMeters>11811.395555011</DistanceMeters>
          </Trackpoint>
          <Trackpoint>
            <Time>2022-08-22T06:22:01.000Z</Time>
            <Position>
              <LatitudeDegrees>42.81953263096511363983154296875</LatitudeDegrees>
              <LongitudeDegrees>-0.28681389056146144866943359375</LongitudeDegrees>
            </Position>
            <AltitudeMeters>2252</AltitudeMeters>
            <DistanceMeters>11830.137752686</DistanceMeters>
          </Trackpoint>
          <Trackpoint>
            <Time>2022-08-22T06:22:29.000Z</Time>
            <Position>
              <LatitudeDegrees>42.819658778607845306396484375</LatitudeDegrees>
              <LongitudeDegrees>-0.28675965964794158935546875</LongitudeDegrees>
            </Position>
            <AltitudeMeters>2259</AltitudeMeters>
            <DistanceMeters>11844.859841356</DistanceMeters>
          </Trackpoint>
          <Trackpoint>
            <Time>2022-08-22T06:23:10.000Z</Time>
            <Position>
              <LatitudeDegrees>42.8198188729584217071533203125</LatitudeDegrees>
              <LongitudeDegrees>-0.2867594920098781585693359375</LongitudeDegrees>
            </Position>
            <AltitudeMeters>2270.39990234375</AltitudeMeters>
            <DistanceMeters>11862.678553931</DistanceMeters>
          </Trackpoint>
          <Trackpoint>
            <Time>2022-08-22T06:23:47.000Z</Time>
            <Position>
              <LatitudeDegrees>42.81994946300983428955078125</LatitudeDegrees>
              <LongitudeDegrees>-0.28673023916780948638916015625</LongitudeDegrees>
            </Position>
            <AltitudeMeters>2278.39990234375</AltitudeMeters>
            <DistanceMeters>11877.408614243</DistanceMeters>
          </Trackpoint>
          <Trackpoint>
            <Time>2022-08-22T06:24:25.000Z</Time>
            <Position>
              <LatitudeDegrees>42.82005012966692447662353515625</LatitudeDegrees>
              <LongitudeDegrees>-0.286623202264308929443359375</LongitudeDegrees>
            </Position>
            <AltitudeMeters>2284.60009765625</AltitudeMeters>
            <DistanceMeters>11891.618206401</DistanceMeters>
          </Trackpoint>
          <Trackpoint>
            <Time>2022-08-22T06:24:58.000Z</Time>
            <Position>
              <LatitudeDegrees>42.82015331089496612548828125</LatitudeDegrees>
              <LongitudeDegrees>-0.2864567376673221588134765625</LongitudeDegrees>
            </Position>
            <AltitudeMeters>2293.800048828125</AltitudeMeters>
            <DistanceMeters>11909.410547166</DistanceMeters>
          </Trackpoint>
          <Trackpoint>
            <Time>2022-08-22T06:25:23.000Z</Time>
            <Position>
              <LatitudeDegrees>42.82016831450164318084716796875</LatitudeDegrees>
              <LongitudeDegrees>-0.2862341143190860748291015625</LongitudeDegrees>
            </Position>
            <AltitudeMeters>2297.39990234375</AltitudeMeters>
            <DistanceMeters>11927.661614528</DistanceMeters>
          </Trackpoint>
          <Trackpoint>
            <Time>2022-08-22T06:25:45.000Z</Time>
            <Position>
              <LatitudeDegrees>42.8202976472675800323486328125</LatitudeDegrees>
              <LongitudeDegrees>-0.28609371744096279144287109375</LongitudeDegrees>
            </Position>
            <AltitudeMeters>2307.60009765625</AltitudeMeters>
            <DistanceMeters>11946.06247718</DistanceMeters>
          </Trackpoint>
          <Trackpoint>
            <Time>2022-08-22T06:25:58.000Z</Time>
            <Position>
              <LatitudeDegrees>42.8203345276415348052978515625</LatitudeDegrees>
              <LongitudeDegrees>-0.2859675697982311248779296875</LongitudeDegrees>
            </Position>
            <AltitudeMeters>2310.199951171875</AltitudeMeters>
            <DistanceMeters>11957.148881939</DistanceMeters>
          </Trackpoint>
          <Trackpoint>
            <Time>2022-08-22T06:26:15.000Z</Time>
            <Position>
              <LatitudeDegrees>42.820407785475254058837890625</LatitudeDegrees>
              <LongitudeDegrees>-0.28573262505233287811279296875</LongitudeDegrees>
            </Position>
            <AltitudeMeters>2312.199951171875</AltitudeMeters>
            <DistanceMeters>11977.990733999</DistanceMeters>
          </Trackpoint>
          <Trackpoint>
            <Time>2022-08-22T06:26:23.000Z</Time>
            <Position>
              <LatitudeDegrees>42.8204515390098094940185546875</LatitudeDegrees>
              <LongitudeDegrees>-0.28564025647938251495361328125</LongitudeDegrees>
            </Position>
            <AltitudeMeters>2311.800048828125</AltitudeMeters>
            <DistanceMeters>11986.967112562</DistanceMeters>
          </Trackpoint>
          <Trackpoint>
            <Time>2022-08-22T06:26:29.000Z</Time>
            <Position>
              <LatitudeDegrees>42.82047090120613574981689453125</LatitudeDegrees>
              <LongitudeDegrees>-0.28557638637721538543701171875</LongitudeDegrees>
            </Position>
            <AltitudeMeters>2311</AltitudeMeters>
            <DistanceMeters>11992.609011131</DistanceMeters>
          </Trackpoint>
          <Trackpoint>
            <Time>2022-08-22T06:26:43.000Z</Time>
            <Position>
              <LatitudeDegrees>42.8205739147961139678955078125</LatitudeDegrees>
              <LongitudeDegrees>-0.28540648519992828369140625</LongitudeDegrees>
            </Position>
            <AltitudeMeters>2310</AltitudeMeters>
            <DistanceMeters>12010.6049735</DistanceMeters>
          </Trackpoint>
          <Trackpoint>
            <Time>2022-08-22T06:26:51.000Z</Time>
            <Position>
              <LatitudeDegrees>42.82068095169961452484130859375</LatitudeDegrees>
              <LongitudeDegrees>-0.2853131107985973358154296875</LongitudeDegrees>
            </Position>
            <AltitudeMeters>2310</AltitudeMeters>
            <DistanceMeters>12024.748320112</DistanceMeters>
          </Trackpoint>
          <Trackpoint>
            <Time>2022-08-22T06:26:55.000Z</Time>
            <Position>
              <LatitudeDegrees>42.8207435645163059234619140625</LatitudeDegrees>
              <LongitudeDegrees>-0.285284109413623809814453125</LongitudeDegrees>
            </Position>
            <AltitudeMeters>2310.39990234375</AltitudeMeters>
            <DistanceMeters>12032.108444336</DistanceMeters>
          </Trackpoint>
          <Trackpoint>
            <Time>2022-08-22T06:26:56.000Z</Time>
            <Position>
              <LatitudeDegrees>42.820762507617473602294921875</LatitudeDegrees>
              <LongitudeDegrees>-0.2852795831859111785888671875</LongitudeDegrees>
            </Position>
            <AltitudeMeters>2310.60009765625</AltitudeMeters>
            <DistanceMeters>12034.248128601</DistanceMeters>
          </Trackpoint>
          <Trackpoint>
            <Time>2022-08-22T06:26:59.000Z</Time>
            <Position>
              <LatitudeDegrees>42.82081690616905689239501953125</LatitudeDegrees>
              <LongitudeDegrees>-0.2852649986743927001953125</LongitudeDegrees>
            </Position>
            <AltitudeMeters>2311.199951171875</AltitudeMeters>
            <DistanceMeters>12040.418282756</DistanceMeters>
          </Trackpoint>
          <Trackpoint>
            <Time>2022-08-22T06:27:01.000Z</Time>
            <Position>
              <LatitudeDegrees>42.82085630111396312713623046875</LatitudeDegrees>
              <LongitudeDegrees>-0.28525225818157196044921875</LongitudeDegrees>
            </Position>
            <AltitudeMeters>2311.60009765625</AltitudeMeters>
            <DistanceMeters>12044.924793814</DistanceMeters>
          </Trackpoint>
          <Trackpoint>
            <Time>2022-08-22T06:27:06.000Z</Time>
            <Position>
              <LatitudeDegrees>42.82092654146254062652587890625</LatitudeDegrees>
              <LongitudeDegrees>-0.2851903997361660003662109375</LongitudeDegrees>
            </Position>
            <AltitudeMeters>2311.39990234375</AltitudeMeters>
            <DistanceMeters>12054.232077163</DistanceMeters>
          </Trackpoint>
          <Trackpoint>
            <Time>2022-08-22T06:27:07.000Z</Time>
            <Position>
              <LatitudeDegrees>42.82094447873532772064208984375</LatitudeDegrees>
              <LongitudeDegrees>-0.28518117964267730712890625</LongitudeDegrees>
            </Position>
            <AltitudeMeters>2311.60009765625</AltitudeMeters>
            <DistanceMeters>12056.365421609</DistanceMeters>
          </Trackpoint>
          <Trackpoint>
            <Time>2022-08-22T06:27:08.000Z</Time>
            <Position>
              <LatitudeDegrees>42.82095939852297306060791015625</LatitudeDegrees>
              <LongitudeDegrees>-0.28517589904367923736572265625</LongitudeDegrees>
            </Position>
            <AltitudeMeters>2311.800048828125</AltitudeMeters>
            <DistanceMeters>12058.078540065</DistanceMeters>
          </Trackpoint>
          <Trackpoint>
            <Time>2022-08-22T06:27:09.000Z</Time>
            <Position>
              <LatitudeDegrees>42.820976078510284423828125</LatitudeDegrees>
              <LongitudeDegrees>-0.28516785241663455963134765625</LongitudeDegrees>
            </Position>
            <AltitudeMeters>2312.199951171875</AltitudeMeters>
            <DistanceMeters>12060.049055955</DistanceMeters>
          </Trackpoint>
          <Trackpoint>
            <Time>2022-08-22T06:27:14.000Z</Time>
            <Position>
              <LatitudeDegrees>42.82104288227856159210205078125</LatitudeDegrees>
              <LongitudeDegrees>-0.28510482050478458404541015625</LongitudeDegrees>
            </Position>
            <AltitudeMeters>2312.39990234375</AltitudeMeters>
            <DistanceMeters>12069.091086265</DistanceMeters>
          </Trackpoint>
          <Trackpoint>
            <Time>2022-08-22T06:27:16.000Z</Time>
            <Position>
              <LatitudeDegrees>42.82107054255902767181396484375</LatitudeDegrees>
              <LongitudeDegrees>-0.28507900424301624298095703125</LongitudeDegrees>
            </Position>
            <AltitudeMeters>2312.39990234375</AltitudeMeters>
            <DistanceMeters>12072.821414373</DistanceMeters>
          </Trackpoint>
          <Trackpoint>
            <Time>2022-08-22T06:27:18.000Z</Time>
            <Position>
              <LatitudeDegrees>42.82110088504850864410400390625</LatitudeDegrees>
              <LongitudeDegrees>-0.2850740589201450347900390625</LongitudeDegrees>
            </Position>
            <AltitudeMeters>2313.800048828125</AltitudeMeters>
            <DistanceMeters>12076.222521241</DistanceMeters>
          </Trackpoint>
          <Trackpoint>
            <Time>2022-08-22T06:27:21.000Z</Time>
            <Position>
              <LatitudeDegrees>42.8211465664207935333251953125</LatitudeDegrees>
              <LongitudeDegrees>-0.28507523238658905029296875</LongitudeDegrees>
            </Position>
            <AltitudeMeters>2316</AltitudeMeters>
            <DistanceMeters>12081.308004398</DistanceMeters>
          </Trackpoint>
          <Trackpoint>
            <Time>2022-08-22T06:27:25.000Z</Time>
            <Position>
              <LatitudeDegrees>42.82121538184583187103271484375</LatitudeDegrees>
              <LongitudeDegrees>-0.2850438840687274932861328125</LongitudeDegrees>
            </Position>
            <AltitudeMeters>2317.39990234375</AltitudeMeters>
            <DistanceMeters>12089.383598003</DistanceMeters>
          </Trackpoint>
          <Trackpoint>
            <Time>2022-08-22T06:27:28.000Z</Time>
            <Position>
              <LatitudeDegrees>42.8212536871433258056640625</LatitudeDegrees>
              <LongitudeDegrees>-0.2850331552326679229736328125</LongitudeDegrees>
            </Position>
            <AltitudeMeters>2317.39990234375</AltitudeMeters>
            <DistanceMeters>12093.736194972</DistanceMeters>
          </Trackpoint>
          <Trackpoint>
            <Time>2022-08-22T06:27:29.000Z</Time>
            <Position>
              <LatitudeDegrees>42.82126366160809993743896484375</LatitudeDegrees>
              <LongitudeDegrees>-0.285029970109462738037109375</LongitudeDegrees>
            </Position>
            <AltitudeMeters>2317.39990234375</AltitudeMeters>
            <DistanceMeters>12094.880468141</DistanceMeters>
          </Trackpoint>
          <Trackpoint>
            <Time>2022-08-22T06:27:34.000Z</Time>
            <Position>
              <LatitudeDegrees>42.82131797634065151214599609375</LatitudeDegrees>
              <LongitudeDegrees>-0.28504438698291778564453125</LongitudeDegrees>
            </Position>
            <AltitudeMeters>2319</AltitudeMeters>
            <DistanceMeters>12101.039636197</DistanceMeters>
          </Trackpoint>
          <Trackpoint>
            <Time>2022-08-22T06:27:35.000Z</Time>
            <Position>
              <LatitudeDegrees>42.82132987864315509796142578125</LatitudeDegrees>
              <LongitudeDegrees>-0.28504061512649059295654296875</LongitudeDegrees>
            </Position>
            <AltitudeMeters>2319</AltitudeMeters>
            <DistanceMeters>12102.403526129</DistanceMeters>
          </Trackpoint>
          <Trackpoint>
            <Time>2022-08-22T06:27:37.000Z</Time>
            <Position>
              <LatitudeDegrees>42.82136030495166778564453125</LatitudeDegrees>
              <LongitudeDegrees>-0.28502427041530609130859375</LongitudeDegrees>
            </Position>
            <AltitudeMeters>2318.60009765625</AltitudeMeters>
            <DistanceMeters>12106.041945026</DistanceMeters>
          </Trackpoint>
          <Trackpoint>
            <Time>2022-08-22T06:27:42.000Z</Time>
            <Position>
              <LatitudeDegrees>42.8214419446885585784912109375</LatitudeDegrees>
              <LongitudeDegrees>-0.28498345054686069488525390625</LongitudeDegrees>
            </Position>
            <AltitudeMeters>2317.800048828125</AltitudeMeters>
            <DistanceMeters>12115.720685286</DistanceMeters>
          </Trackpoint>
          <Trackpoint>
            <Time>2022-08-22T06:27:43.000Z</Time>
            <Position>
              <LatitudeDegrees>42.8214543499052524566650390625</LatitudeDegrees>
              <LongitudeDegrees>-0.28498495928943157196044921875</LongitudeDegrees>
            </Position>
            <AltitudeMeters>2318.199951171875</AltitudeMeters>
            <DistanceMeters>12117.104295132</DistanceMeters>
          </Trackpoint>
          <Trackpoint>
            <Time>2022-08-22T06:27:50.000Z</Time>
            <Position>
              <LatitudeDegrees>42.8215395100414752960205078125</LatitudeDegrees>
              <LongitudeDegrees>-0.28497791849076747894287109375</LongitudeDegrees>
            </Position>
            <AltitudeMeters>2321.39990234375</AltitudeMeters>
            <DistanceMeters>12126.60031237</DistanceMeters>
          </Trackpoint>
          <Trackpoint>
            <Time>2022-08-22T06:27:52.000Z</Time>
            <Position>
              <LatitudeDegrees>42.82156951725482940673828125</LatitudeDegrees>
              <LongitudeDegrees>-0.2849717997014522552490234375</LongitudeDegrees>
            </Position>
            <AltitudeMeters>2322.39990234375</AltitudeMeters>
            <DistanceMeters>12129.976102125</DistanceMeters>
          </Trackpoint>
          <Trackpoint>
            <Time>2022-08-22T06:27:54.000Z</Time>
            <Position>
              <LatitudeDegrees>42.82159893773496150970458984375</LatitudeDegrees>
              <LongitudeDegrees>-0.284941457211971282958984375</LongitudeDegrees>
            </Position>
            <AltitudeMeters>2321.800048828125</AltitudeMeters>
            <DistanceMeters>12134.083191459</DistanceMeters>
          </Trackpoint>
          <Trackpoint>
            <Time>2022-08-22T06:28:08.000Z</Time>
            <Position>
              <LatitudeDegrees>42.82175936736166477203369140625</LatitudeDegrees>
              <LongitudeDegrees>-0.2848165668547153472900390625</LongitudeDegrees>
            </Position>
            <AltitudeMeters>2321.60009765625</AltitudeMeters>
            <DistanceMeters>12154.645444236</DistanceMeters>
          </Trackpoint>
          <Trackpoint>
            <Time>2022-08-22T06:28:10.000Z</Time>
            <Position>
              <LatitudeDegrees>42.82177462242543697357177734375</LatitudeDegrees>
              <LongitudeDegrees>-0.28480298817157745361328125</LongitudeDegrees>
            </Position>
            <AltitudeMeters>2321.800048828125</AltitudeMeters>
            <DistanceMeters>12156.672433329</DistanceMeters>
          </Trackpoint>
          <Trackpoint>
            <Time>2022-08-22T06:28:11.000Z</Time>
            <Position>
              <LatitudeDegrees>42.8217820823192596435546875</LatitudeDegrees>
              <LongitudeDegrees>-0.28480005450546741485595703125</LongitudeDegrees>
            </Position>
            <AltitudeMeters>2322.199951171875</AltitudeMeters>
            <DistanceMeters>12157.532936826</DistanceMeters>
          </Trackpoint>
          <Trackpoint>
            <Time>2022-08-22T06:28:17.000Z</Time>
            <Position>
              <LatitudeDegrees>42.82182843424379825592041015625</LatitudeDegrees>
              <LongitudeDegrees>-0.28482712805271148681640625</LongitudeDegrees>
            </Position>
            <AltitudeMeters>2327</AltitudeMeters>
            <DistanceMeters>12163.14434276</DistanceMeters>
          </Trackpoint>
          <Trackpoint>
            <Time>2022-08-22T06:28:20.000Z</Time>
            <Position>
              <LatitudeDegrees>42.82185290940105915069580078125</LatitudeDegrees>
              <LongitudeDegrees>-0.284844227135181427001953125</LongitudeDegrees>
            </Position>
            <AltitudeMeters>2329.800048828125</AltitudeMeters>
            <DistanceMeters>12166.202963233</DistanceMeters>
          </Trackpoint>
          <Trackpoint>
            <Time>2022-08-22T06:28:23.000Z</Time>
            <Position>
              <LatitudeDegrees>42.821864895522594451904296875</LatitudeDegrees>
              <LongitudeDegrees>-0.284869372844696044921875</LongitudeDegrees>
            </Position>
            <AltitudeMeters>2330.800048828125</AltitudeMeters>
            <DistanceMeters>12168.649785801</DistanceMeters>
          </Trackpoint>
          <Trackpoint>
            <Time>2022-08-22T06:28:31.000Z</Time>
            <Position>
              <LatitudeDegrees>42.82190437428653240203857421875</LatitudeDegrees>
              <LongitudeDegrees>-0.28489091433584690093994140625</LongitudeDegrees>
            </Position>
            <AltitudeMeters>2332.60009765625</AltitudeMeters>
            <DistanceMeters>12173.383032008</DistanceMeters>
          </Trackpoint>
          <Trackpoint>
            <Time>2022-08-22T06:28:34.000Z</Time>
            <Position>
              <LatitudeDegrees>42.82192331738770008087158203125</LatitudeDegrees>
              <LongitudeDegrees>-0.28490516357123851776123046875</LongitudeDegrees>
            </Position>
            <AltitudeMeters>2333.60009765625</AltitudeMeters>
            <DistanceMeters>12175.790792187</DistanceMeters>
          </Trackpoint>
          <Trackpoint>
            <Time>2022-08-22T06:28:37.000Z</Time>
            <Position>
              <LatitudeDegrees>42.8219431824982166290283203125</LatitudeDegrees>
              <LongitudeDegrees>-0.28491455130279064178466796875</LongitudeDegrees>
            </Position>
            <AltitudeMeters>2334.39990234375</AltitudeMeters>
            <DistanceMeters>12178.130071205</DistanceMeters>
          </Trackpoint>
          <Trackpoint>
            <Time>2022-08-22T06:28:39.000Z</Time>
            <Position>
              <LatitudeDegrees>42.82195986248552799224853515625</LatitudeDegrees>
              <LongitudeDegrees>-0.28490985743701457977294921875</LongitudeDegrees>
            </Position>
            <AltitudeMeters>2334.800048828125</AltitudeMeters>
            <DistanceMeters>12180.025848203</DistanceMeters>
          </Trackpoint>
          <Trackpoint>
            <Time>2022-08-22T06:28:45.000Z</Time>
            <Position>
              <LatitudeDegrees>42.82197696156799793243408203125</LatitudeDegrees>
              <LongitudeDegrees>-0.28496635146439075469970703125</LongitudeDegrees>
            </Position>
            <AltitudeMeters>2336.800048828125</AltitudeMeters>
            <DistanceMeters>12185.015429423</DistanceMeters>
          </Trackpoint>
          <Trackpoint>
            <Time>2022-08-22T06:28:47.000Z</Time>
            <Position>
              <LatitudeDegrees>42.8219767101109027862548828125</LatitudeDegrees>
              <LongitudeDegrees>-0.28498277999460697174072265625</LongitudeDegrees>
            </Position>
            <AltitudeMeters>2337.199951171875</AltitudeMeters>
            <DistanceMeters>12186.355946194</DistanceMeters>
          </Trackpoint>
          <Trackpoint>
            <Time>2022-08-22T06:28:51.000Z</Time>
            <Position>
              <LatitudeDegrees>42.82198484055697917938232421875</LatitudeDegrees>
              <LongitudeDegrees>-0.285007841885089874267578125</LongitudeDegrees>
            </Position>
            <AltitudeMeters>2338</AltitudeMeters>
            <DistanceMeters>12188.592609412</DistanceMeters>
          </Trackpoint>
          <Trackpoint>
            <Time>2022-08-22T06:29:07.000Z</Time>
            <Position>
              <LatitudeDegrees>42.82207184471189975738525390625</LatitudeDegrees>
              <LongitudeDegrees>-0.28497573919594287872314453125</LongitudeDegrees>
            </Position>
            <AltitudeMeters>2340.199951171875</AltitudeMeters>
            <DistanceMeters>12198.625018496</DistanceMeters>
          </Trackpoint>
          <Trackpoint>
            <Time>2022-08-22T06:29:16.000Z</Time>
            <Position>
              <LatitudeDegrees>42.82210637815296649932861328125</LatitudeDegrees>
              <LongitudeDegrees>-0.28502116911113262176513671875</LongitudeDegrees>
            </Position>
            <AltitudeMeters>2342.39990234375</AltitudeMeters>
            <DistanceMeters>12203.966838557</DistanceMeters>
          </Trackpoint>
          <Trackpoint>
            <Time>2022-08-22T06:29:29.000Z</Time>
            <Position>
              <LatitudeDegrees>42.82215080223977565765380859375</LatitudeDegrees>
              <LongitudeDegrees>-0.2851082570850849151611328125</LongitudeDegrees>
            </Position>
            <AltitudeMeters>2345.60009765625</AltitudeMeters>
            <DistanceMeters>12212.627312848</DistanceMeters>
          </Trackpoint>
          <Trackpoint>
            <Time>2022-08-22T06:29:34.000Z</Time>
            <Position>
              <LatitudeDegrees>42.82216890715062618255615234375</LatitudeDegrees>
              <LongitudeDegrees>-0.28515041805803775787353515625</LongitudeDegrees>
            </Position>
            <AltitudeMeters>2346.39990234375</AltitudeMeters>
            <DistanceMeters>12216.615039596</DistanceMeters>
          </Trackpoint>
          <Trackpoint>
            <Time>2022-08-22T06:29:44.000Z</Time>
            <Position>
              <LatitudeDegrees>42.82224233262240886688232421875</LatitudeDegrees>
              <LongitudeDegrees>-0.2851454727351665496826171875</LongitudeDegrees>
            </Position>
            <AltitudeMeters>2348.39990234375</AltitudeMeters>
            <DistanceMeters>12224.797275645</DistanceMeters>
          </Trackpoint>
          <Trackpoint>
            <Time>2022-08-22T06:29:51.000Z</Time>
            <Position>
              <LatitudeDegrees>42.8222730942070484161376953125</LatitudeDegrees>
              <LongitudeDegrees>-0.28516550548374652862548828125</LongitudeDegrees>
            </Position>
            <AltitudeMeters>2349.60009765625</AltitudeMeters>
            <DistanceMeters>12228.591210522</DistanceMeters>
          </Trackpoint>
          <Trackpoint>
            <Time>2022-08-22T06:29:57.000Z</Time>
            <Position>
              <LatitudeDegrees>42.82230687327682971954345703125</LatitudeDegrees>
              <LongitudeDegrees>-0.285156704485416412353515625</LongitudeDegrees>
            </Position>
            <AltitudeMeters>2350.39990234375</AltitudeMeters>
            <DistanceMeters>12232.418322226</DistanceMeters>
          </Trackpoint>
          <Trackpoint>
            <Time>2022-08-22T06:30:09.000Z</Time>
            <Position>
              <LatitudeDegrees>42.82238096930086612701416015625</LatitudeDegrees>
              <LongitudeDegrees>-0.28510968200862407684326171875</LongitudeDegrees>
            </Position>
            <AltitudeMeters>2355</AltitudeMeters>
            <DistanceMeters>12241.515113997</DistanceMeters>
          </Trackpoint>
          <Trackpoint>
            <Time>2022-08-22T06:30:24.000Z</Time>
            <Position>
              <LatitudeDegrees>42.822488844394683837890625</LatitudeDegrees>
              <LongitudeDegrees>-0.2850998751819133758544921875</LongitudeDegrees>
            </Position>
            <AltitudeMeters>2363.39990234375</AltitudeMeters>
            <DistanceMeters>12253.548663177</DistanceMeters>
          </Trackpoint>
          <Trackpoint>
            <Time>2022-08-22T06:30:56.000Z</Time>
            <Position>
              <LatitudeDegrees>42.8226214461028575897216796875</LatitudeDegrees>
              <LongitudeDegrees>-0.2851655893027782440185546875</LongitudeDegrees>
            </Position>
            <AltitudeMeters>2376.60009765625</AltitudeMeters>
            <DistanceMeters>12269.251953518</DistanceMeters>
          </Trackpoint>
          <Trackpoint>
            <Time>2022-08-22T06:31:33.000Z</Time>
            <Position>
              <LatitudeDegrees>42.82275413163006305694580078125</LatitudeDegrees>
              <LongitudeDegrees>-0.2851253561675548553466796875</LongitudeDegrees>
            </Position>
            <AltitudeMeters>2387</AltitudeMeters>
            <DistanceMeters>12284.380612333</DistanceMeters>
          </Trackpoint>
          <Trackpoint>
            <Time>2022-08-22T06:32:00.000Z</Time>
            <Position>
              <LatitudeDegrees>42.822866030037403106689453125</LatitudeDegrees>
              <LongitudeDegrees>-0.2849697880446910858154296875</LongitudeDegrees>
            </Position>
            <AltitudeMeters>2393.39990234375</AltitudeMeters>
            <DistanceMeters>12302.168384777</DistanceMeters>
          </Trackpoint>
          <Trackpoint>
            <Time>2022-08-22T06:32:26.000Z</Time>
            <Position>
              <LatitudeDegrees>42.82295110635459423065185546875</LatitudeDegrees>
              <LongitudeDegrees>-0.284757055342197418212890625</LongitudeDegrees>
            </Position>
            <AltitudeMeters>2395.39990234375</AltitudeMeters>
            <DistanceMeters>12321.949011974</DistanceMeters>
          </Trackpoint>
          <Trackpoint>
            <Time>2022-08-22T06:32:42.000Z</Time>
            <Position>
              <LatitudeDegrees>42.82304070889949798583984375</LatitudeDegrees>
              <LongitudeDegrees>-0.28475143946707248687744140625</LongitudeDegrees>
            </Position>
            <AltitudeMeters>2401.39990234375</AltitudeMeters>
            <DistanceMeters>12331.932697856</DistanceMeters>
          </Trackpoint>
          <Trackpoint>
            <Time>2022-08-22T06:33:10.000Z</Time>
            <Position>
              <LatitudeDegrees>42.8231840394437313079833984375</LatitudeDegrees>
              <LongitudeDegrees>-0.2846427261829376220703125</LongitudeDegrees>
            </Position>
            <AltitudeMeters>2408.39990234375</AltitudeMeters>
            <DistanceMeters>12350.187970277</DistanceMeters>
          </Trackpoint>
          <Trackpoint>
            <Time>2022-08-22T06:33:35.000Z</Time>
            <Position>
              <LatitudeDegrees>42.82330348156392574310302734375</LatitudeDegrees>
              <LongitudeDegrees>-0.28452445752918720245361328125</LongitudeDegrees>
            </Position>
            <AltitudeMeters>2410.60009765625</AltitudeMeters>
            <DistanceMeters>12366.618526122</DistanceMeters>
          </Trackpoint>
          <Trackpoint>
            <Time>2022-08-22T06:33:40.000Z</Time>
            <Position>
              <LatitudeDegrees>42.82332242466509342193603515625</LatitudeDegrees>
              <LongitudeDegrees>-0.28451733291149139404296875</LongitudeDegrees>
            </Position>
            <AltitudeMeters>2411.39990234375</AltitudeMeters>
            <DistanceMeters>12368.806205375</DistanceMeters>
          </Trackpoint>
          <Trackpoint>
            <Time>2022-08-22T06:33:45.000Z</Time>
            <Position>
              <LatitudeDegrees>42.8233483247458934783935546875</LatitudeDegrees>
              <LongitudeDegrees>-0.2845258824527263641357421875</LongitudeDegrees>
            </Position>
            <AltitudeMeters>2413.199951171875</AltitudeMeters>
            <DistanceMeters>12371.771891545</DistanceMeters>
          </Trackpoint>
          <Trackpoint>
            <Time>2022-08-22T06:33:47.000Z</Time>
            <Position>
              <LatitudeDegrees>42.8233577124774456024169921875</LatitudeDegrees>
              <LongitudeDegrees>-0.2845247089862823486328125</LongitudeDegrees>
            </Position>
            <AltitudeMeters>2413.800048828125</AltitudeMeters>
            <DistanceMeters>12372.821495911</DistanceMeters>
          </Trackpoint>
          <Trackpoint>
            <Time>2022-08-22T06:34:18.000Z</Time>
            <Position>
              <LatitudeDegrees>42.8234986960887908935546875</LatitudeDegrees>
              <LongitudeDegrees>-0.284590423107147216796875</LongitudeDegrees>
            </Position>
            <AltitudeMeters>2421.60009765625</AltitudeMeters>
            <DistanceMeters>12389.404950862</DistanceMeters>
          </Trackpoint>
          <Trackpoint>
            <Time>2022-08-22T06:34:31.000Z</Time>
            <Position>
              <LatitudeDegrees>42.82355837523937225341796875</LatitudeDegrees>
              <LongitudeDegrees>-0.28461925685405731201171875</LongitudeDegrees>
            </Position>
            <AltitudeMeters>2424.800048828125</AltitudeMeters>
            <DistanceMeters>12396.452320615</DistanceMeters>
          </Trackpoint>
          <Trackpoint>
            <Time>2022-08-22T06:34:36.000Z</Time>
            <Position>
              <LatitudeDegrees>42.8235867060720920562744140625</LatitudeDegrees>
              <LongitudeDegrees>-0.28458975255489349365234375</LongitudeDegrees>
            </Position>
            <AltitudeMeters>2424</AltitudeMeters>
            <DistanceMeters>12400.420752713</DistanceMeters>
          </Trackpoint>
          <Trackpoint>
            <Time>2022-08-22T06:34:43.000Z</Time>
            <Position>
              <LatitudeDegrees>42.82362517900764942169189453125</LatitudeDegrees>
              <LongitudeDegrees>-0.2845852263271808624267578125</LongitudeDegrees>
            </Position>
            <AltitudeMeters>2425</AltitudeMeters>
            <DistanceMeters>12404.719070571</DistanceMeters>
          </Trackpoint>
          <Trackpoint>
            <Time>2022-08-22T06:35:00.000Z</Time>
            <Position>
              <LatitudeDegrees>42.823727019131183624267578125</LatitudeDegrees>
              <LongitudeDegrees>-0.28457768261432647705078125</LongitudeDegrees>
            </Position>
            <AltitudeMeters>2427.199951171875</AltitudeMeters>
            <DistanceMeters>12416.070686793</DistanceMeters>
          </Trackpoint>
          <Trackpoint>
            <Time>2022-08-22T06:35:04.000Z</Time>
            <Position>
              <LatitudeDegrees>42.82376867718994617462158203125</LatitudeDegrees>
              <LongitudeDegrees>-0.284551195800304412841796875</LongitudeDegrees>
            </Position>
            <AltitudeMeters>2426.800048828125</AltitudeMeters>
            <DistanceMeters>12421.188031973</DistanceMeters>
          </Trackpoint>
          <Trackpoint>
            <Time>2022-08-22T06:35:06.000Z</Time>
            <Position>
              <LatitudeDegrees>42.8237878717482089996337890625</LatitudeDegrees>
              <LongitudeDegrees>-0.2845409698784351348876953125</LongitudeDegrees>
            </Position>
            <AltitudeMeters>2426.800048828125</AltitudeMeters>
            <DistanceMeters>12423.480520684</DistanceMeters>
          </Trackpoint>
          <Trackpoint>
            <Time>2022-08-22T06:35:07.000Z</Time>
            <Position>
              <LatitudeDegrees>42.82380421645939350128173828125</LatitudeDegrees>
              <LongitudeDegrees>-0.28454591520130634307861328125</LongitudeDegrees>
            </Position>
            <AltitudeMeters>2427.39990234375</AltitudeMeters>
            <DistanceMeters>12425.342656381</DistanceMeters>
          </Trackpoint>
          <Trackpoint>
            <Time>2022-08-22T06:35:08.000Z</Time>
            <Position>
              <LatitudeDegrees>42.82381611876189708709716796875</LatitudeDegrees>
              <LongitudeDegrees>-0.28454549610614776611328125</LongitudeDegrees>
            </Position>
            <AltitudeMeters>2427.60009765625</AltitudeMeters>
            <DistanceMeters>12426.666225355</DistanceMeters>
          </Trackpoint>
          <Trackpoint>
            <Time>2022-08-22T06:35:09.000Z</Time>
            <Position>
              <LatitudeDegrees>42.82382869161665439605712890625</LatitudeDegrees>
              <LongitudeDegrees>-0.28454281389713287353515625</LongitudeDegrees>
            </Position>
            <AltitudeMeters>2427.60009765625</AltitudeMeters>
            <DistanceMeters>12428.082091511</DistanceMeters>
          </Trackpoint>
          <Trackpoint>
            <Time>2022-08-22T06:35:10.000Z</Time>
            <Position>
              <LatitudeDegrees>42.8238395042717456817626953125</LatitudeDegrees>
              <LongitudeDegrees>-0.28453937731683254241943359375</LongitudeDegrees>
            </Position>
            <AltitudeMeters>2427.60009765625</AltitudeMeters>
            <DistanceMeters>12429.321088281</DistanceMeters>
          </Trackpoint>
          <Trackpoint>
            <Time>2022-08-22T06:35:11.000Z</Time>
            <Position>
              <LatitudeDegrees>42.8238519094884395599365234375</LatitudeDegrees>
              <LongitudeDegrees>-0.28453434817492961883544921875</LongitudeDegrees>
            </Position>
            <AltitudeMeters>2427.39990234375</AltitudeMeters>
            <DistanceMeters>12430.765369299</DistanceMeters>
          </Trackpoint>
          <Trackpoint>
            <Time>2022-08-22T06:35:16.000Z</Time>
            <Position>
              <LatitudeDegrees>42.82390127889811992645263671875</LatitudeDegrees>
              <LongitudeDegrees>-0.28453954495489597320556640625</LongitudeDegrees>
            </Position>
            <AltitudeMeters>2428</AltitudeMeters>
            <DistanceMeters>12436.276918732</DistanceMeters>
          </Trackpoint>
          <Trackpoint>
            <Time>2022-08-22T06:35:18.000Z</Time>
            <Position>
              <LatitudeDegrees>42.82390949316322803497314453125</LatitudeDegrees>
              <LongitudeDegrees>-0.2845466695725917816162109375</LongitudeDegrees>
            </Position>
            <AltitudeMeters>2428.39990234375</AltitudeMeters>
            <DistanceMeters>12437.36454919</DistanceMeters>
          </Trackpoint>
          <Trackpoint>
            <Time>2022-08-22T06:35:34.000Z</Time>
            <Position>
              <LatitudeDegrees>42.82403178513050079345703125</LatitudeDegrees>
              <LongitudeDegrees>-0.28454926796257495880126953125</LongitudeDegrees>
            </Position>
            <AltitudeMeters>2431.39990234375</AltitudeMeters>
            <DistanceMeters>12450.977602808</DistanceMeters>
          </Trackpoint>
          <Trackpoint>
            <Time>2022-08-22T06:35:36.000Z</Time>
            <Position>
              <LatitudeDegrees>42.82405550591647624969482421875</LatitudeDegrees>
              <LongitudeDegrees>-0.28454205952584743499755859375</LongitudeDegrees>
            </Position>
            <AltitudeMeters>2432.199951171875</AltitudeMeters>
            <DistanceMeters>12453.682110511</DistanceMeters>
          </Trackpoint>
          <Trackpoint>
            <Time>2022-08-22T06:35:39.000Z</Time>
            <Position>
              <LatitudeDegrees>42.824091129004955291748046875</LatitudeDegrees>
              <LongitudeDegrees>-0.28454842977225780487060546875</LongitudeDegrees>
            </Position>
            <AltitudeMeters>2434.199951171875</AltitudeMeters>
            <DistanceMeters>12457.680014375</DistanceMeters>
          </Trackpoint>
          <Trackpoint>
            <Time>2022-08-22T06:35:40.000Z</Time>
            <Position>
              <LatitudeDegrees>42.8241020254790782928466796875</LatitudeDegrees>
              <LongitudeDegrees>-0.2845567278563976287841796875</LongitudeDegrees>
            </Position>
            <AltitudeMeters>2434.60009765625</AltitudeMeters>
            <DistanceMeters>12459.070135363</DistanceMeters>
          </Trackpoint>
          <Trackpoint>
            <Time>2022-08-22T06:35:41.000Z</Time>
            <Position>
              <LatitudeDegrees>42.824111916124820709228515625</LatitudeDegrees>
              <LongitudeDegrees>-0.2845676243305206298828125</LongitudeDegrees>
            </Position>
            <AltitudeMeters>2434.800048828125</AltitudeMeters>
            <DistanceMeters>12460.486001518</DistanceMeters>
          </Trackpoint>
          <Trackpoint>
            <Time>2022-08-22T06:35:45.000Z</Time>
            <Position>
              <LatitudeDegrees>42.82411627471446990966796875</LatitudeDegrees>
              <LongitudeDegrees>-0.28461397625505924224853515625</LongitudeDegrees>
            </Position>
            <AltitudeMeters>2435.39990234375</AltitudeMeters>
            <DistanceMeters>12464.29892993</DistanceMeters>
          </Trackpoint>
          <Trackpoint>
            <Time>2022-08-22T06:35:47.000Z</Time>
            <Position>
              <LatitudeDegrees>42.824117951095104217529296875</LatitudeDegrees>
              <LongitudeDegrees>-0.284637697041034698486328125</LongitudeDegrees>
            </Position>
            <AltitudeMeters>2435.800048828125</AltitudeMeters>
            <DistanceMeters>12466.244078261</DistanceMeters>
          </Trackpoint>
          <Trackpoint>
            <Time>2022-08-22T06:35:49.000Z</Time>
            <Position>
              <LatitudeDegrees>42.82412298023700714111328125</LatitudeDegrees>
              <LongitudeDegrees>-0.284651778638362884521484375</LongitudeDegrees>
            </Position>
            <AltitudeMeters>2436</AltitudeMeters>
            <DistanceMeters>12467.522531951</DistanceMeters>
          </Trackpoint>
          <Trackpoint>
            <Time>2022-08-22T06:36:00.000Z</Time>
            <Position>
              <LatitudeDegrees>42.82415558584034442901611328125</LatitudeDegrees>
              <LongitudeDegrees>-0.28472914360463619232177734375</LongitudeDegrees>
            </Position>
            <AltitudeMeters>2439</AltitudeMeters>
            <DistanceMeters>12474.806811543</DistanceMeters>
          </Trackpoint>
          <Trackpoint>
            <Time>2022-08-22T06:36:03.000Z</Time>
            <Position>
              <LatitudeDegrees>42.82415776513516902923583984375</LatitudeDegrees>
              <LongitudeDegrees>-0.28476719744503498077392578125</LongitudeDegrees>
            </Position>
            <AltitudeMeters>2440.39990234375</AltitudeMeters>
            <DistanceMeters>12477.923919539</DistanceMeters>
          </Trackpoint>
          <Trackpoint>
            <Time>2022-08-22T06:36:08.000Z</Time>
            <Position>
              <LatitudeDegrees>42.8241955675184726715087890625</LatitudeDegrees>
              <LongitudeDegrees>-0.28480298817157745361328125</LongitudeDegrees>
            </Position>
            <AltitudeMeters>2443.39990234375</AltitudeMeters>
            <DistanceMeters>12483.046555788</DistanceMeters>
          </Trackpoint>
          <Trackpoint>
            <Time>2022-08-22T06:36:09.000Z</Time>
            <Position>
              <LatitudeDegrees>42.8242056258022785186767578125</LatitudeDegrees>
              <LongitudeDegrees>-0.28480743058025836944580078125</LongitudeDegrees>
            </Position>
            <AltitudeMeters>2444</AltitudeMeters>
            <DistanceMeters>12484.225806301</DistanceMeters>
          </Trackpoint>
          <Trackpoint>
            <Time>2022-08-22T06:36:11.000Z</Time>
            <Position>
              <LatitudeDegrees>42.82422649674117565155029296875</LatitudeDegrees>
              <LongitudeDegrees>-0.2848145551979541778564453125</LongitudeDegrees>
            </Position>
            <AltitudeMeters>2445</AltitudeMeters>
            <DistanceMeters>12486.622288853</DistanceMeters>
          </Trackpoint>
          <Trackpoint>
            <Time>2022-08-22T06:36:12.000Z</Time>
            <Position>
              <LatitudeDegrees>42.82423923723399639129638671875</LatitudeDegrees>
              <LongitudeDegrees>-0.28481681831181049346923828125</LongitudeDegrees>
            </Position>
            <AltitudeMeters>2445.60009765625</AltitudeMeters>
            <DistanceMeters>12488.057160773</DistanceMeters>
          </Trackpoint>
          <Trackpoint>
            <Time>2022-08-22T06:36:14.000Z</Time>
            <Position>
              <LatitudeDegrees>42.82426513731479644775390625</LatitudeDegrees>
              <LongitudeDegrees>-0.28482402674853801727294921875</LongitudeDegrees>
            </Position>
            <AltitudeMeters>2447</AltitudeMeters>
            <DistanceMeters>12490.998387258</DistanceMeters>
          </Trackpoint>
          <Trackpoint>
            <Time>2022-08-22T06:36:20.000Z</Time>
            <Position>
              <LatitudeDegrees>42.8243373893201351165771484375</LatitudeDegrees>
              <LongitudeDegrees>-0.284811370074748992919921875</LongitudeDegrees>
            </Position>
            <AltitudeMeters>2449.39990234375</AltitudeMeters>
            <DistanceMeters>12499.106343629</DistanceMeters>
          </Trackpoint>
          <Trackpoint>
            <Time>2022-08-22T06:36:22.000Z</Time>
            <Position>
              <LatitudeDegrees>42.82435658387839794158935546875</LatitudeDegrees>
              <LongitudeDegrees>-0.28480608947575092315673828125</LongitudeDegrees>
            </Position>
            <AltitudeMeters>2450</AltitudeMeters>
            <DistanceMeters>12501.285751853</DistanceMeters>
          </Trackpoint>
          <Trackpoint>
            <Time>2022-08-22T06:36:24.000Z</Time>
            <Position>
              <LatitudeDegrees>42.82437988556921482086181640625</LatitudeDegrees>
              <LongitudeDegrees>-0.28480038978159427642822265625</LongitudeDegrees>
            </Position>
            <AltitudeMeters>2450.800048828125</AltitudeMeters>
            <DistanceMeters>12503.922636163</DistanceMeters>
          </Trackpoint>
          <Trackpoint>
            <Time>2022-08-22T06:36:26.000Z</Time>
            <Position>
              <LatitudeDegrees>42.824402935802936553955078125</LatitudeDegrees>
              <LongitudeDegrees>-0.2847920916974544525146484375</LongitudeDegrees>
            </Position>
            <AltitudeMeters>2451.39990234375</AltitudeMeters>
            <DistanceMeters>12506.576587863</DistanceMeters>
          </Trackpoint>
          <Trackpoint>
            <Time>2022-08-22T06:36:31.000Z</Time>
            <Position>
              <LatitudeDegrees>42.82447158358991146087646484375</LatitudeDegrees>
              <LongitudeDegrees>-0.28475512750446796417236328125</LongitudeDegrees>
            </Position>
            <AltitudeMeters>2452.800048828125</AltitudeMeters>
            <DistanceMeters>12514.790766531</DistanceMeters>
          </Trackpoint>
          <Trackpoint>
            <Time>2022-08-22T06:36:35.000Z</Time>
            <Position>
              <LatitudeDegrees>42.82451860606670379638671875</LatitudeDegrees>
              <LongitudeDegrees>-0.2847414650022983551025390625</LongitudeDegrees>
            </Position>
            <AltitudeMeters>2454.199951171875</AltitudeMeters>
            <DistanceMeters>12520.142719677</DistanceMeters>
          </Trackpoint>
          <Trackpoint>
            <Time>2022-08-22T06:36:39.000Z</Time>
            <Position>
              <LatitudeDegrees>42.824561856687068939208984375</LatitudeDegrees>
              <LongitudeDegrees>-0.28474741615355014801025390625</LongitudeDegrees>
            </Position>
            <AltitudeMeters>2456</AltitudeMeters>
            <DistanceMeters>12524.979756794</DistanceMeters>
          </Trackpoint>
          <Trackpoint>
            <Time>2022-08-22T06:36:44.000Z</Time>
            <Position>
              <LatitudeDegrees>42.8246118128299713134765625</LatitudeDegrees>
              <LongitudeDegrees>-0.2847473323345184326171875</LongitudeDegrees>
            </Position>
            <AltitudeMeters>2457.199951171875</AltitudeMeters>
            <DistanceMeters>12530.540240742</DistanceMeters>
          </Trackpoint>
          <Trackpoint>
            <Time>2022-08-22T06:36:49.000Z</Time>
            <Position>
              <LatitudeDegrees>42.82465682365000247955322265625</LatitudeDegrees>
              <LongitudeDegrees>-0.284765772521495819091796875</LongitudeDegrees>
            </Position>
            <AltitudeMeters>2459.199951171875</AltitudeMeters>
            <DistanceMeters>12535.77189074</DistanceMeters>
          </Trackpoint>
          <Trackpoint>
            <Time>2022-08-22T06:36:51.000Z</Time>
            <Position>
              <LatitudeDegrees>42.82466738484799861907958984375</LatitudeDegrees>
              <LongitudeDegrees>-0.28477189131081104278564453125</LongitudeDegrees>
            </Position>
            <AltitudeMeters>2459.800048828125</AltitudeMeters>
            <DistanceMeters>12537.05034443</DistanceMeters>
          </Trackpoint>
          <Trackpoint>
            <Time>2022-08-22T06:36:52.000Z</Time>
            <Position>
              <LatitudeDegrees>42.824672162532806396484375</LatitudeDegrees>
              <LongitudeDegrees>-0.28477641753852367401123046875</LongitudeDegrees>
            </Position>
            <AltitudeMeters>2460.199951171875</AltitudeMeters>
            <DistanceMeters>12537.694846964</DistanceMeters>
          </Trackpoint>
          <Trackpoint>
            <Time>2022-08-22T06:36:54.000Z</Time>
            <Position>
              <LatitudeDegrees>42.8246823884546756744384765625</LatitudeDegrees>
              <LongitudeDegrees>-0.28478329069912433624267578125</LongitudeDegrees>
            </Position>
            <AltitudeMeters>2460.800048828125</AltitudeMeters>
            <DistanceMeters>12538.962661464</DistanceMeters>
          </Trackpoint>
          <Trackpoint>
            <Time>2022-08-22T06:36:58.000Z</Time>
            <Position>
              <LatitudeDegrees>42.8247135691344738006591796875</LatitudeDegrees>
              <LongitudeDegrees>-0.28479519300162792205810546875</LongitudeDegrees>
            </Position>
            <AltitudeMeters>2462.39990234375</AltitudeMeters>
            <DistanceMeters>12542.566166692</DistanceMeters>
          </Trackpoint>
          <Trackpoint>
            <Time>2022-08-22T06:37:06.000Z</Time>
            <Position>
              <LatitudeDegrees>42.824781797826290130615234375</LatitudeDegrees>
              <LongitudeDegrees>-0.2847800217568874359130859375</LongitudeDegrees>
            </Position>
            <AltitudeMeters>2463.39990234375</AltitudeMeters>
            <DistanceMeters>12550.260397074</DistanceMeters>
          </Trackpoint>
          <Trackpoint>
            <Time>2022-08-22T06:37:08.000Z</Time>
            <Position>
              <LatitudeDegrees>42.8248004056513309478759765625</LatitudeDegrees>
              <LongitudeDegrees>-0.2847793512046337127685546875</LongitudeDegrees>
            </Position>
            <AltitudeMeters>2464</AltitudeMeters>
            <DistanceMeters>12552.333635214</DistanceMeters>
          </Trackpoint>
          <Trackpoint>
            <Time>2022-08-22T06:37:09.000Z</Time>
            <Position>
              <LatitudeDegrees>42.8248102962970733642578125</LatitudeDegrees>
              <LongitudeDegrees>-0.28477742336690425872802734375</LongitudeDegrees>
            </Position>
            <AltitudeMeters>2464.199951171875</AltitudeMeters>
            <DistanceMeters>12553.44589439</DistanceMeters>
          </Trackpoint>
          <Trackpoint>
            <Time>2022-08-22T06:37:10.000Z</Time>
            <Position>
              <LatitudeDegrees>42.8248178400099277496337890625</LatitudeDegrees>
              <LongitudeDegrees>-0.28477608226239681243896484375</LongitudeDegrees>
            </Position>
            <AltitudeMeters>2464.199951171875</AltitudeMeters>
            <DistanceMeters>12554.290510302</DistanceMeters>
          </Trackpoint>
          <Trackpoint>
            <Time>2022-08-22T06:37:12.000Z</Time>
            <Position>
              <LatitudeDegrees>42.8248342685401439666748046875</LatitudeDegrees>
              <LongitudeDegrees>-0.2847662754356861114501953125</LongitudeDegrees>
            </Position>
            <AltitudeMeters>2464</AltitudeMeters>
            <DistanceMeters>12556.286071303</DistanceMeters>
          </Trackpoint>
          <Trackpoint>
            <Time>2022-08-22T06:37:13.000Z</Time>
            <Position>
              <LatitudeDegrees>42.82484315335750579833984375</LatitudeDegrees>
              <LongitudeDegrees>-0.28476434759795665740966796875</LongitudeDegrees>
            </Position>
            <AltitudeMeters>2464</AltitudeMeters>
            <DistanceMeters>12557.287239863</DistanceMeters>
          </Trackpoint>
          <Trackpoint>
            <Time>2022-08-22T06:37:14.000Z</Time>
            <Position>
              <LatitudeDegrees>42.8248527087271213531494140625</LatitudeDegrees>
              <LongitudeDegrees>-0.284767448902130126953125</LongitudeDegrees>
            </Position>
            <AltitudeMeters>2464.39990234375</AltitudeMeters>
            <DistanceMeters>12558.374870322</DistanceMeters>
          </Trackpoint>
          <Trackpoint>
            <Time>2022-08-22T06:37:16.000Z</Time>
            <Position>
              <LatitudeDegrees>42.824865616858005523681640625</LatitudeDegrees>
              <LongitudeDegrees>-0.2847689576447010040283203125</LongitudeDegrees>
            </Position>
            <AltitudeMeters>2464.800048828125</AltitudeMeters>
            <DistanceMeters>12559.81915134</DistanceMeters>
          </Trackpoint>
          <Trackpoint>
            <Time>2022-08-22T06:37:18.000Z</Time>
            <Position>
              <LatitudeDegrees>42.8248838894069194793701171875</LatitudeDegrees>
              <LongitudeDegrees>-0.28476317413151264190673828125</LongitudeDegrees>
            </Position>
            <AltitudeMeters>2464.800048828125</AltitudeMeters>
            <DistanceMeters>12561.909739056</DistanceMeters>
          </Trackpoint>
          <Trackpoint>
            <Time>2022-08-22T06:37:22.000Z</Time>
            <Position>
              <LatitudeDegrees>42.824921272695064544677734375</LatitudeDegrees>
              <LongitudeDegrees>-0.2847421355545520782470703125</LongitudeDegrees>
            </Position>
            <AltitudeMeters>2464.199951171875</AltitudeMeters>
            <DistanceMeters>12566.412240762</DistanceMeters>
          </Trackpoint>
          <Trackpoint>
            <Time>2022-08-22T06:37:27.000Z</Time>
            <Position>
              <LatitudeDegrees>42.82495907507836818695068359375</LatitudeDegrees>
              <LongitudeDegrees>-0.28472193516790866851806640625</LongitudeDegrees>
            </Position>
            <AltitudeMeters>2463.800048828125</AltitudeMeters>
            <DistanceMeters>12570.931757652</DistanceMeters>
          </Trackpoint>
          <Trackpoint>
            <Time>2022-08-22T06:37:29.000Z</Time>
            <Position>
              <LatitudeDegrees>42.82497550360858440399169921875</LatitudeDegrees>
              <LongitudeDegrees>-0.28472176752984523773193359375</LongitudeDegrees>
            </Position>
            <AltitudeMeters>2464.199951171875</AltitudeMeters>
            <DistanceMeters>12572.762101434</DistanceMeters>
          </Trackpoint>
          <Trackpoint>
            <Time>2022-08-22T06:37:31.000Z</Time>
            <Position>
              <LatitudeDegrees>42.82499126158654689788818359375</LatitudeDegrees>
              <LongitudeDegrees>-0.28470852412283420562744140625</LongitudeDegrees>
            </Position>
            <AltitudeMeters>2463.800048828125</AltitudeMeters>
            <DistanceMeters>12574.82223151</DistanceMeters>
          </Trackpoint>
          <Trackpoint>
            <Time>2022-08-22T06:37:35.000Z</Time>
            <Position>
              <LatitudeDegrees>42.8250179998576641082763671875</LatitudeDegrees>
              <LongitudeDegrees>-0.28467960655689239501953125</LongitudeDegrees>
            </Position>
            <AltitudeMeters>2462.60009765625</AltitudeMeters>
            <DistanceMeters>12578.620923674</DistanceMeters>
          </Trackpoint>
          <Trackpoint>
            <Time>2022-08-22T06:37:38.000Z</Time>
            <Position>
              <LatitudeDegrees>42.82504222355782985687255859375</LatitudeDegrees>
              <LongitudeDegrees>-0.28465672396123409271240234375</LongitudeDegrees>
            </Position>
            <AltitudeMeters>2462</AltitudeMeters>
            <DistanceMeters>12581.900378056</DistanceMeters>
          </Trackpoint>
          <Trackpoint>
            <Time>2022-08-22T06:37:39.000Z</Time>
            <Position>
              <LatitudeDegrees>42.82505479641258716583251953125</LatitudeDegrees>
              <LongitudeDegrees>-0.2846542932093143463134765625</LongitudeDegrees>
            </Position>
            <AltitudeMeters>2462.199951171875</AltitudeMeters>
            <DistanceMeters>12583.313051725</DistanceMeters>
          </Trackpoint>
          <Trackpoint>
            <Time>2022-08-22T06:37:40.000Z</Time>
            <Position>
              <LatitudeDegrees>42.8250642679631710052490234375</LatitudeDegrees>
              <LongitudeDegrees>-0.2846479229629039764404296875</LongitudeDegrees>
            </Position>
            <AltitudeMeters>2462.199951171875</AltitudeMeters>
            <DistanceMeters>12584.484619742</DistanceMeters>
          </Trackpoint>
          <Trackpoint>
            <Time>2022-08-22T06:37:42.000Z</Time>
            <Position>
              <LatitudeDegrees>42.82507809810340404510498046875</LatitudeDegrees>
              <LongitudeDegrees>-0.28464297764003276824951171875</LongitudeDegrees>
            </Position>
            <AltitudeMeters>2462.199951171875</AltitudeMeters>
            <DistanceMeters>12586.074720809</DistanceMeters>
          </Trackpoint>
          <Trackpoint>
            <Time>2022-08-22T06:37:45.000Z</Time>
            <Position>
              <LatitudeDegrees>42.82509796321392059326171875</LatitudeDegrees>
              <LongitudeDegrees>-0.28465320356190204620361328125</LongitudeDegrees>
            </Position>
            <AltitudeMeters>2463</AltitudeMeters>
            <DistanceMeters>12588.437047468</DistanceMeters>
          </Trackpoint>
          <Trackpoint>
            <Time>2022-08-22T06:38:05.000Z</Time>
            <Position>
              <LatitudeDegrees>42.82522729597985744476318359375</LatitudeDegrees>
              <LongitudeDegrees>-0.284489504992961883544921875</LongitudeDegrees>
            </Position>
            <AltitudeMeters>2464.39990234375</AltitudeMeters>
            <DistanceMeters>12608.078405004</DistanceMeters>
          </Trackpoint>
          <Trackpoint>
            <Time>2022-08-22T06:38:09.000Z</Time>
            <Position>
              <LatitudeDegrees>42.82525344751775264739990234375</LatitudeDegrees>
              <LongitudeDegrees>-0.28447148390114307403564453125</LongitudeDegrees>
            </Position>
            <AltitudeMeters>2465.199951171875</AltitudeMeters>
            <DistanceMeters>12611.339912332</DistanceMeters>
          </Trackpoint>
          <Trackpoint>
            <Time>2022-08-22T06:38:13.000Z</Time>
            <Position>
              <LatitudeDegrees>42.825282029807567596435546875</LatitudeDegrees>
              <LongitudeDegrees>-0.28444734402000904083251953125</LongitudeDegrees>
            </Position>
            <AltitudeMeters>2465.800048828125</AltitudeMeters>
            <DistanceMeters>12615.082324464</DistanceMeters>
          </Trackpoint>
          <Trackpoint>
            <Time>2022-08-22T06:38:17.000Z</Time>
            <Position>
              <LatitudeDegrees>42.825320251286029815673828125</LatitudeDegrees>
              <LongitudeDegrees>-0.28443912975490093231201171875</LongitudeDegrees>
            </Position>
            <AltitudeMeters>2467.39990234375</AltitudeMeters>
            <DistanceMeters>12619.389037481</DistanceMeters>
          </Trackpoint>
          <Trackpoint>
            <Time>2022-08-22T06:38:19.000Z</Time>
            <Position>
              <LatitudeDegrees>42.82533475197851657867431640625</LatitudeDegrees>
              <LongitudeDegrees>-0.28444281779229640960693359375</LongitudeDegrees>
            </Position>
            <AltitudeMeters>2468</AltitudeMeters>
            <DistanceMeters>12621.03220298</DistanceMeters>
          </Trackpoint>
          <Trackpoint>
            <Time>2022-08-22T06:38:21.000Z</Time>
            <Position>
              <LatitudeDegrees>42.8253472410142421722412109375</LatitudeDegrees>
              <LongitudeDegrees>-0.2844350226223468780517578125</LongitudeDegrees>
            </Position>
            <AltitudeMeters>2468.39990234375</AltitudeMeters>
            <DistanceMeters>12622.561513216</DistanceMeters>
          </Trackpoint>
          <Trackpoint>
            <Time>2022-08-22T06:38:23.000Z</Time>
            <Position>
              <LatitudeDegrees>42.82535335980355739593505859375</LatitudeDegrees>
              <LongitudeDegrees>-0.284429155290126800537109375</LongitudeDegrees>
            </Position>
            <AltitudeMeters>2468.39990234375</AltitudeMeters>
            <DistanceMeters>12623.389936906</DistanceMeters>
          </Trackpoint>
          <Trackpoint>
            <Time>2022-08-22T06:38:26.000Z</Time>
            <Position>
              <LatitudeDegrees>42.82535076141357421875</LatitudeDegrees>
              <LongitudeDegrees>-0.28445505537092685699462890625</LongitudeDegrees>
            </Position>
            <AltitudeMeters>2469</AltitudeMeters>
            <DistanceMeters>12625.523281353</DistanceMeters>
          </Trackpoint>
          <Trackpoint>
            <Time>2022-08-22T06:38:28.000Z</Time>
            <Position>
              <LatitudeDegrees>42.82534648664295673370361328125</LatitudeDegrees>
              <LongitudeDegrees>-0.28448003344237804412841796875</LongitudeDegrees>
            </Position>
            <AltitudeMeters>2469.39990234375</AltitudeMeters>
            <DistanceMeters>12627.616027652</DistanceMeters>
          </Trackpoint>
          <Trackpoint>
            <Time>2022-08-22T06:38:30.000Z</Time>
            <Position>
              <LatitudeDegrees>42.8253413736820220947265625</LatitudeDegrees>
              <LongitudeDegrees>-0.2845017425715923309326171875</LongitudeDegrees>
            </Position>
            <AltitudeMeters>2469.800048828125</AltitudeMeters>
            <DistanceMeters>12629.475737113</DistanceMeters>
          </Trackpoint>
          <Trackpoint>
            <Time>2022-08-22T06:38:35.000Z</Time>
            <Position>
              <LatitudeDegrees>42.825366519391536712646484375</LatitudeDegrees>
              <LongitudeDegrees>-0.28454038314521312713623046875</LongitudeDegrees>
            </Position>
            <AltitudeMeters>2471.800048828125</AltitudeMeters>
            <DistanceMeters>12633.69239699</DistanceMeters>
          </Trackpoint>
          <Trackpoint>
            <Time>2022-08-22T06:38:38.000Z</Time>
            <Position>
              <LatitudeDegrees>42.82537817023694515228271484375</LatitudeDegrees>
              <LongitudeDegrees>-0.2845506928861141204833984375</LongitudeDegrees>
            </Position>
            <AltitudeMeters>2472.800048828125</AltitudeMeters>
            <DistanceMeters>12635.242235799</DistanceMeters>
          </Trackpoint>
          <Trackpoint>
            <Time>2022-08-22T06:38:59.000Z</Time>
            <Position>
              <LatitudeDegrees>42.8255185671150684356689453125</LatitudeDegrees>
              <LongitudeDegrees>-0.28452579863369464874267578125</LongitudeDegrees>
            </Position>
            <AltitudeMeters>2481.800048828125</AltitudeMeters>
            <DistanceMeters>12651.000060587</DistanceMeters>
          </Trackpoint>
          <Trackpoint>
            <Time>2022-08-22T06:39:15.000Z</Time>
            <Position>
              <LatitudeDegrees>42.82562174834311008453369140625</LatitudeDegrees>
              <LongitudeDegrees>-0.28439621441066265106201171875</LongitudeDegrees>
            </Position>
            <AltitudeMeters>2485.60009765625</AltitudeMeters>
            <DistanceMeters>12666.6136756</DistanceMeters>
          </Trackpoint>
          <Trackpoint>
            <Time>2022-08-22T06:39:20.000Z</Time>
            <Position>
              <LatitudeDegrees>42.8256597183644771575927734375</LatitudeDegrees>
              <LongitudeDegrees>-0.2843532152473926544189453125</LongitudeDegrees>
            </Position>
            <AltitudeMeters>2487.39990234375</AltitudeMeters>
            <DistanceMeters>12672.106351214</DistanceMeters>
          </Trackpoint>
          <Trackpoint>
            <Time>2022-08-22T06:39:22.000Z</Time>
            <Position>
              <LatitudeDegrees>42.82567061483860015869140625</LatitudeDegrees>
              <LongitudeDegrees>-0.28436821885406970977783203125</LongitudeDegrees>
            </Position>
            <AltitudeMeters>2488.39990234375</AltitudeMeters>
            <DistanceMeters>12673.827358208</DistanceMeters>
          </Trackpoint>
          <Trackpoint>
            <Time>2022-08-22T06:39:25.000Z</Time>
            <Position>
              <LatitudeDegrees>42.82568402588367462158203125</LatitudeDegrees>
              <LongitudeDegrees>-0.2843827195465564727783203125</LongitudeDegrees>
            </Position>
            <AltitudeMeters>2489.39990234375</AltitudeMeters>
            <DistanceMeters>12675.732637907</DistanceMeters>
          </Trackpoint>
          <Trackpoint>
            <Time>2022-08-22T06:39:27.000Z</Time>
            <Position>
              <LatitudeDegrees>42.82569467090070247650146484375</LatitudeDegrees>
              <LongitudeDegrees>-0.2843786962330341339111328125</LongitudeDegrees>
            </Position>
            <AltitudeMeters>2490</AltitudeMeters>
            <DistanceMeters>12676.964324897</DistanceMeters>
          </Trackpoint>
          <Trackpoint>
            <Time>2022-08-22T06:39:28.000Z</Time>
            <Position>
              <LatitudeDegrees>42.8257016278803348541259765625</LatitudeDegrees>
              <LongitudeDegrees>-0.28437995351850986480712890625</LongitudeDegrees>
            </Position>
            <AltitudeMeters>2490.39990234375</AltitudeMeters>
            <DistanceMeters>12677.747935258</DistanceMeters>
          </Trackpoint>
          <Trackpoint>
            <Time>2022-08-22T06:39:29.000Z</Time>
            <Position>
              <LatitudeDegrees>42.82571017742156982421875</LatitudeDegrees>
              <LongitudeDegrees>-0.28437324799597263336181640625</LongitudeDegrees>
            </Position>
            <AltitudeMeters>2490.800048828125</AltitudeMeters>
            <DistanceMeters>12678.84383679</DistanceMeters>
          </Trackpoint>
          <Trackpoint>
            <Time>2022-08-22T06:39:30.000Z</Time>
            <Position>
              <LatitudeDegrees>42.82571478746831417083740234375</LatitudeDegrees>
              <LongitudeDegrees>-0.284375511109828948974609375</LongitudeDegrees>
            </Position>
            <AltitudeMeters>2491.199951171875</AltitudeMeters>
            <DistanceMeters>12679.381389063</DistanceMeters>
          </Trackpoint>
          <Trackpoint>
            <Time>2022-08-22T06:39:31.000Z</Time>
            <Position>
              <LatitudeDegrees>42.82571931369602680206298828125</LatitudeDegrees>
              <LongitudeDegrees>-0.28437090106308460235595703125</LongitudeDegrees>
            </Position>
            <AltitudeMeters>2491.39990234375</AltitudeMeters>
            <DistanceMeters>12680.011724976</DistanceMeters>
          </Trackpoint>
          <Trackpoint>
            <Time>2022-08-22T06:39:33.000Z</Time>
            <Position>
              <LatitudeDegrees>42.8257224150002002716064453125</LatitudeDegrees>
              <LongitudeDegrees>-0.2843672968447208404541015625</LongitudeDegrees>
            </Position>
            <AltitudeMeters>2491.39990234375</AltitudeMeters>
            <DistanceMeters>12680.4772589</DistanceMeters>
          </Trackpoint>
          <Trackpoint>
            <Time>2022-08-22T06:39:34.000Z</Time>
            <Position>
              <LatitudeDegrees>42.82572367228567600250244140625</LatitudeDegrees>
              <LongitudeDegrees>-0.2843669615685939788818359375</LongitudeDegrees>
            </Position>
            <AltitudeMeters>2491.60009765625</AltitudeMeters>
            <DistanceMeters>12680.611646969</DistanceMeters>
          </Trackpoint>
          <Trackpoint>
            <Time>2022-08-22T06:39:35.000Z</Time>
            <Position>
              <LatitudeDegrees>42.82572736032307147979736328125</LatitudeDegrees>
              <LongitudeDegrees>-0.2843766845762729644775390625</LongitudeDegrees>
            </Position>
            <AltitudeMeters>2491.800048828125</AltitudeMeters>
            <DistanceMeters>12681.503076566</DistanceMeters>
          </Trackpoint>
          <Trackpoint>
            <Time>2022-08-22T06:39:38.000Z</Time>
            <Position>
              <LatitudeDegrees>42.82574010081589221954345703125</LatitudeDegrees>
              <LongitudeDegrees>-0.2843850664794445037841796875</LongitudeDegrees>
            </Position>
            <AltitudeMeters>2492.800048828125</AltitudeMeters>
            <DistanceMeters>12683.076048576</DistanceMeters>
          </Trackpoint>
          <Trackpoint>
            <Time>2022-08-22T06:39:47.000Z</Time>
            <Position>
              <LatitudeDegrees>42.825782261788845062255859375</LatitudeDegrees>
              <LongitudeDegrees>-0.28437995351850986480712890625</LongitudeDegrees>
            </Position>
            <AltitudeMeters>2495.199951171875</AltitudeMeters>
            <DistanceMeters>12687.787304025</DistanceMeters>
          </Trackpoint>
          <Trackpoint>
            <Time>2022-08-22T06:39:53.000Z</Time>
            <Position>
              <LatitudeDegrees>42.82580480910837650299072265625</LatitudeDegrees>
              <LongitudeDegrees>-0.28437676839530467987060546875</LongitudeDegrees>
            </Position>
            <AltitudeMeters>2496.60009765625</AltitudeMeters>
            <DistanceMeters>12690.312226592</DistanceMeters>
          </Trackpoint>
          <Trackpoint>
            <Time>2022-08-22T06:40:12.000Z</Time>
            <Position>
              <LatitudeDegrees>42.82589483074843883514404296875</LatitudeDegrees>
              <LongitudeDegrees>-0.28426545672118663787841796875</LongitudeDegrees>
            </Position>
            <AltitudeMeters>2501</AltitudeMeters>
            <DistanceMeters>12703.838103597</DistanceMeters>
          </Trackpoint>
          <Trackpoint>
            <Time>2022-08-22T06:40:16.000Z</Time>
            <Position>
              <LatitudeDegrees>42.825911343097686767578125</LatitudeDegrees>
              <LongitudeDegrees>-0.2842162549495697021484375</LongitudeDegrees>
            </Position>
            <AltitudeMeters>2501.39990234375</AltitudeMeters>
            <DistanceMeters>12708.254546183</DistanceMeters>
          </Trackpoint>
          <Trackpoint>
            <Time>2022-08-22T06:40:25.000Z</Time>
            <Position>
              <LatitudeDegrees>42.8259440325200557708740234375</LatitudeDegrees>
              <LongitudeDegrees>-0.28423544950783252716064453125</LongitudeDegrees>
            </Position>
            <AltitudeMeters>2503.39990234375</AltitudeMeters>
            <DistanceMeters>12712.215006104</DistanceMeters>
          </Trackpoint>
          <Trackpoint>
            <Time>2022-08-22T06:40:28.000Z</Time>
            <Position>
              <LatitudeDegrees>42.82595585100352764129638671875</LatitudeDegrees>
              <LongitudeDegrees>-0.2842492796480655670166015625</LongitudeDegrees>
            </Position>
            <AltitudeMeters>2504</AltitudeMeters>
            <DistanceMeters>12713.946475243</DistanceMeters>
          </Trackpoint>
          <Trackpoint>
            <Time>2022-08-22T06:40:31.000Z</Time>
            <Position>
              <LatitudeDegrees>42.82596892677247524261474609375</LatitudeDegrees>
              <LongitudeDegrees>-0.28424634598195552825927734375</LongitudeDegrees>
            </Position>
            <AltitudeMeters>2504.60009765625</AltitudeMeters>
            <DistanceMeters>12715.418622772</DistanceMeters>
          </Trackpoint>
          <Trackpoint>
            <Time>2022-08-22T06:40:46.000Z</Time>
            <Position>
              <LatitudeDegrees>42.8260342217981815338134765625</LatitudeDegrees>
              <LongitudeDegrees>-0.28428808785974979400634765625</LongitudeDegrees>
            </Position>
            <AltitudeMeters>2508</AltitudeMeters>
            <DistanceMeters>12723.444865065</DistanceMeters>
          </Trackpoint>
          <Trackpoint>
            <Time>2022-08-22T06:41:10.000Z</Time>
            <Position>
              <LatitudeDegrees>42.82610806636512279510498046875</LatitudeDegrees>
              <LongitudeDegrees>-0.28413369320333003997802734375</LongitudeDegrees>
            </Position>
            <AltitudeMeters>2510</AltitudeMeters>
            <DistanceMeters>12738.49152837</DistanceMeters>
          </Trackpoint>
          <Trackpoint>
            <Time>2022-08-22T06:41:21.000Z</Time>
            <Position>
              <LatitudeDegrees>42.8261606208980083465576171875</LatitudeDegrees>
              <LongitudeDegrees>-0.284221284091472625732421875</LongitudeDegrees>
            </Position>
            <AltitudeMeters>2513</AltitudeMeters>
            <DistanceMeters>12747.729180798</DistanceMeters>
          </Trackpoint>
          <Trackpoint>
            <Time>2022-08-22T06:41:24.000Z</Time>
            <Position>
              <LatitudeDegrees>42.82616908662021160125732421875</LatitudeDegrees>
              <LongitudeDegrees>-0.28423712588846683502197265625</LongitudeDegrees>
            </Position>
            <AltitudeMeters>2513.60009765625</AltitudeMeters>
            <DistanceMeters>12749.330599454</DistanceMeters>
          </Trackpoint>
          <Trackpoint>
            <Time>2022-08-22T06:41:26.000Z</Time>
            <Position>
              <LatitudeDegrees>42.8261757083237171173095703125</LatitudeDegrees>
              <LongitudeDegrees>-0.28425154276192188262939453125</LongitudeDegrees>
            </Position>
            <AltitudeMeters>2514</AltitudeMeters>
            <DistanceMeters>12750.717468692</DistanceMeters>
          </Trackpoint>
          <Trackpoint>
            <Time>2022-08-22T06:41:30.000Z</Time>
            <Position>
              <LatitudeDegrees>42.826185934245586395263671875</LatitudeDegrees>
              <LongitudeDegrees>-0.284245423972606658935546875</LongitudeDegrees>
            </Position>
            <AltitudeMeters>2514.39990234375</AltitudeMeters>
            <DistanceMeters>12751.960104226</DistanceMeters>
          </Trackpoint>
          <Trackpoint>
            <Time>2022-08-22T06:41:44.000Z</Time>
            <Position>
              <LatitudeDegrees>42.82627545297145843505859375</LatitudeDegrees>
              <LongitudeDegrees>-0.28423896990716457366943359375</LongitudeDegrees>
            </Position>
            <AltitudeMeters>2518.199951171875</AltitudeMeters>
            <DistanceMeters>12761.937909235</DistanceMeters>
          </Trackpoint>
          <Trackpoint>
            <Time>2022-08-22T06:41:51.000Z</Time>
            <Position>
              <LatitudeDegrees>42.8263064660131931304931640625</LatitudeDegrees>
              <LongitudeDegrees>-0.28423972427845001220703125</LongitudeDegrees>
            </Position>
            <AltitudeMeters>2519.39990234375</AltitudeMeters>
            <DistanceMeters>12765.39040122</DistanceMeters>
          </Trackpoint>
          <Trackpoint>
            <Time>2022-08-22T06:41:58.000Z</Time>
            <Position>
              <LatitudeDegrees>42.8263418376445770263671875</LatitudeDegrees>
              <LongitudeDegrees>-0.28427517972886562347412109375</LongitudeDegrees>
            </Position>
            <AltitudeMeters>2521.39990234375</AltitudeMeters>
            <DistanceMeters>12770.277583659</DistanceMeters>
          </Trackpoint>
          <Trackpoint>
            <Time>2022-08-22T06:42:07.000Z</Time>
            <Position>
              <LatitudeDegrees>42.826390452682971954345703125</LatitudeDegrees>
              <LongitudeDegrees>-0.28429160825908184051513671875</LongitudeDegrees>
            </Position>
            <AltitudeMeters>2524.199951171875</AltitudeMeters>
            <DistanceMeters>12775.851854288</DistanceMeters>
          </Trackpoint>
          <Trackpoint>
            <Time>2022-08-22T06:42:20.000Z</Time>
            <Position>
              <LatitudeDegrees>42.826478965580463409423828125</LatitudeDegrees>
              <LongitudeDegrees>-0.28431759215891361236572265625</LongitudeDegrees>
            </Position>
            <AltitudeMeters>2529</AltitudeMeters>
            <DistanceMeters>12785.929167407</DistanceMeters>
          </Trackpoint>
          <Trackpoint>
            <Time>2022-08-22T06:42:47.000Z</Time>
            <Position>
              <LatitudeDegrees>42.82658097334206104278564453125</LatitudeDegrees>
              <LongitudeDegrees>-0.28434877283871173858642578125</LongitudeDegrees>
            </Position>
            <AltitudeMeters>2533.800048828125</AltitudeMeters>
            <DistanceMeters>12797.56441154</DistanceMeters>
          </Trackpoint>
          <Trackpoint>
            <Time>2022-08-22T06:43:15.000Z</Time>
            <Position>
              <LatitudeDegrees>42.8267493657767772674560546875</LatitudeDegrees>
              <LongitudeDegrees>-0.28435028158128261566162109375</LongitudeDegrees>
            </Position>
            <AltitudeMeters>2541.60009765625</AltitudeMeters>
            <DistanceMeters>12816.307331908</DistanceMeters>
          </Trackpoint>
          <Trackpoint>
            <Time>2022-08-22T06:43:19.000Z</Time>
            <Position>
              <LatitudeDegrees>42.8267924487590789794921875</LatitudeDegrees>
              <LongitudeDegrees>-0.284298397600650787353515625</LongitudeDegrees>
            </Position>
            <AltitudeMeters>2541.39990234375</AltitudeMeters>
            <DistanceMeters>12822.704542741</DistanceMeters>
          </Trackpoint>
          <Trackpoint>
            <Time>2022-08-22T06:43:24.000Z</Time>
            <Position>
              <LatitudeDegrees>42.8268147446215152740478515625</LatitudeDegrees>
              <LongitudeDegrees>-0.28429227881133556365966796875</LongitudeDegrees>
            </Position>
            <AltitudeMeters>2541.800048828125</AltitudeMeters>
            <DistanceMeters>12825.234824187</DistanceMeters>
          </Trackpoint>
          <Trackpoint>
            <Time>2022-08-22T06:43:40.000Z</Time>
            <Position>
              <LatitudeDegrees>42.8269398026168346405029296875</LatitudeDegrees>
              <LongitudeDegrees>-0.28434793464839458465576171875</LongitudeDegrees>
            </Position>
            <AltitudeMeters>2545.39990234375</AltitudeMeters>
            <DistanceMeters>12839.876649376</DistanceMeters>
          </Trackpoint>
          <Trackpoint>
            <Time>2022-08-22T06:43:41.000Z</Time>
            <Position>
              <LatitudeDegrees>42.82694860361516475677490234375</LatitudeDegrees>
              <LongitudeDegrees>-0.28436000458896160125732421875</LongitudeDegrees>
            </Position>
            <AltitudeMeters>2546</AltitudeMeters>
            <DistanceMeters>12841.266770363</DistanceMeters>
          </Trackpoint>
          <Trackpoint>
            <Time>2022-08-22T06:43:42.000Z</Time>
            <Position>
              <LatitudeDegrees>42.82695966772735118865966796875</LatitudeDegrees>
              <LongitudeDegrees>-0.2843718230724334716796875</LongitudeDegrees>
            </Position>
            <AltitudeMeters>2546.39990234375</AltitudeMeters>
            <DistanceMeters>12842.831107512</DistanceMeters>
          </Trackpoint>
          <Trackpoint>
            <Time>2022-08-22T06:43:44.000Z</Time>
            <Position>
              <LatitudeDegrees>42.82698749564588069915771484375</LatitudeDegrees>
              <LongitudeDegrees>-0.2843793667852878570556640625</LongitudeDegrees>
            </Position>
            <AltitudeMeters>2547</AltitudeMeters>
            <DistanceMeters>12845.989941866</DistanceMeters>
          </Trackpoint>
          <Trackpoint>
            <Time>2022-08-22T06:43:46.000Z</Time>
            <Position>
              <LatitudeDegrees>42.8270098753273487091064453125</LatitudeDegrees>
              <LongitudeDegrees>-0.284391604363918304443359375</LongitudeDegrees>
            </Position>
            <AltitudeMeters>2547.800048828125</AltitudeMeters>
            <DistanceMeters>12848.674341426</DistanceMeters>
          </Trackpoint>
          <Trackpoint>
            <Time>2022-08-22T06:43:47.000Z</Time>
            <Position>
              <LatitudeDegrees>42.8270216099917888641357421875</LatitudeDegrees>
              <LongitudeDegrees>-0.28439504094421863555908203125</LongitudeDegrees>
            </Position>
            <AltitudeMeters>2548.199951171875</AltitudeMeters>
            <DistanceMeters>12850.011485822</DistanceMeters>
          </Trackpoint>
          <Trackpoint>
            <Time>2022-08-22T06:43:48.000Z</Time>
            <Position>
              <LatitudeDegrees>42.82703460194170475006103515625</LatitudeDegrees>
              <LongitudeDegrees>-0.28440057300031185150146484375</LongitudeDegrees>
            </Position>
            <AltitudeMeters>2548.39990234375</AltitudeMeters>
            <DistanceMeters>12851.525962437</DistanceMeters>
          </Trackpoint>
          <Trackpoint>
            <Time>2022-08-22T06:43:50.000Z</Time>
            <Position>
              <LatitudeDegrees>42.82705404795706272125244140625</LatitudeDegrees>
              <LongitudeDegrees>-0.28440929017961025238037109375</LongitudeDegrees>
            </Position>
            <AltitudeMeters>2548.39990234375</AltitudeMeters>
            <DistanceMeters>12853.804622999</DistanceMeters>
          </Trackpoint>
          <Trackpoint>
            <Time>2022-08-22T06:43:59.000Z</Time>
            <Position>
              <LatitudeDegrees>42.82712646760046482086181640625</LatitudeDegrees>
              <LongitudeDegrees>-0.28448305092751979827880859375</LongitudeDegrees>
            </Position>
            <AltitudeMeters>2549.39990234375</AltitudeMeters>
            <DistanceMeters>12863.865793753</DistanceMeters>
          </Trackpoint>
          <Trackpoint>
            <Time>2022-08-22T06:44:02.000Z</Time>
            <Position>
              <LatitudeDegrees>42.82715278677642345428466796875</LatitudeDegrees>
              <LongitudeDegrees>-0.28447307646274566650390625</LongitudeDegrees>
            </Position>
            <AltitudeMeters>2549</AltitudeMeters>
            <DistanceMeters>12866.905163457</DistanceMeters>
          </Trackpoint>
          <Trackpoint>
            <Time>2022-08-22T06:44:06.000Z</Time>
            <Position>
              <LatitudeDegrees>42.8271999768912792205810546875</LatitudeDegrees>
              <LongitudeDegrees>-0.28447173535823822021484375</LongitudeDegrees>
            </Position>
            <AltitudeMeters>2548.60009765625</AltitudeMeters>
            <DistanceMeters>12872.158344742</DistanceMeters>
          </Trackpoint>
          <Trackpoint>
            <Time>2022-08-22T06:44:10.000Z</Time>
            <Position>
              <LatitudeDegrees>42.82725353725254535675048828125</LatitudeDegrees>
              <LongitudeDegrees>-0.28447567485272884368896484375</LongitudeDegrees>
            </Position>
            <AltitudeMeters>2549</AltitudeMeters>
            <DistanceMeters>12878.127656399</DistanceMeters>
          </Trackpoint>
          <Trackpoint>
            <Time>2022-08-22T06:44:12.000Z</Time>
            <Position>
              <LatitudeDegrees>42.827281616628170013427734375</LatitudeDegrees>
              <LongitudeDegrees>-0.2844866551458835601806640625</LongitudeDegrees>
            </Position>
            <AltitudeMeters>2549.800048828125</AltitudeMeters>
            <DistanceMeters>12881.380847077</DistanceMeters>
          </Trackpoint>
          <Trackpoint>
            <Time>2022-08-22T06:44:13.000Z</Time>
            <Position>
              <LatitudeDegrees>42.82729201018810272216796875</LatitudeDegrees>
              <LongitudeDegrees>-0.2844960428774356842041015625</LongitudeDegrees>
            </Position>
            <AltitudeMeters>2550.199951171875</AltitudeMeters>
            <DistanceMeters>12882.770968064</DistanceMeters>
          </Trackpoint>
          <Trackpoint>
            <Time>2022-08-22T06:44:20.000Z</Time>
            <Position>
              <LatitudeDegrees>42.8273223526775836944580078125</LatitudeDegrees>
              <LongitudeDegrees>-0.2846304886043071746826171875</LongitudeDegrees>
            </Position>
            <AltitudeMeters>2555.39990234375</AltitudeMeters>
            <DistanceMeters>12894.253482866</DistanceMeters>
          </Trackpoint>
          <Trackpoint>
            <Time>2022-08-22T06:44:25.000Z</Time>
            <Position>
              <LatitudeDegrees>42.82735370099544525146484375</LatitudeDegrees>
              <LongitudeDegrees>-0.28466393239796161651611328125</LongitudeDegrees>
            </Position>
            <AltitudeMeters>2556.60009765625</AltitudeMeters>
            <DistanceMeters>12898.683195736</DistanceMeters>
          </Trackpoint>
          <Trackpoint>
            <Time>2022-08-22T06:44:28.000Z</Time>
            <Position>
              <LatitudeDegrees>42.82738211564719676971435546875</LatitudeDegrees>
              <LongitudeDegrees>-0.28465974144637584686279296875</LongitudeDegrees>
            </Position>
            <AltitudeMeters>2556.199951171875</AltitudeMeters>
            <DistanceMeters>12901.86339787</DistanceMeters>
          </Trackpoint>
          <Trackpoint>
            <Time>2022-08-22T06:44:32.000Z</Time>
            <Position>
              <LatitudeDegrees>42.82740575261414051055908203125</LatitudeDegrees>
              <LongitudeDegrees>-0.284667201340198516845703125</LongitudeDegrees>
            </Position>
            <AltitudeMeters>2556.199951171875</AltitudeMeters>
            <DistanceMeters>12904.562892581</DistanceMeters>
          </Trackpoint>
          <Trackpoint>
            <Time>2022-08-22T06:44:34.000Z</Time>
            <Position>
              <LatitudeDegrees>42.8274120390415191650390625</LatitudeDegrees>
              <LongitudeDegrees>-0.28467549942433834075927734375</LongitudeDegrees>
            </Position>
            <AltitudeMeters>2556.39990234375</AltitudeMeters>
            <DistanceMeters>12905.541252485</DistanceMeters>
          </Trackpoint>
          <Trackpoint>
            <Time>2022-08-22T06:44:37.000Z</Time>
            <Position>
              <LatitudeDegrees>42.82742704264819622039794921875</LatitudeDegrees>
              <LongitudeDegrees>-0.2846854738891124725341796875</LongitudeDegrees>
            </Position>
            <AltitudeMeters>2556.800048828125</AltitudeMeters>
            <DistanceMeters>12907.39853254</DistanceMeters>
          </Trackpoint>
          <Trackpoint>
            <Time>2022-08-22T06:44:42.000Z</Time>
            <Position>
              <LatitudeDegrees>42.82747196964919567108154296875</LatitudeDegrees>
              <LongitudeDegrees>-0.2847287245094776153564453125</LongitudeDegrees>
            </Position>
            <AltitudeMeters>2558.199951171875</AltitudeMeters>
            <DistanceMeters>12913.51872511</DistanceMeters>
          </Trackpoint>
          <Trackpoint>
            <Time>2022-08-22T06:44:47.000Z</Time>
            <Position>
              <LatitudeDegrees>42.82752594910562038421630859375</LatitudeDegrees>
              <LongitudeDegrees>-0.28474473394453525543212890625</LongitudeDegrees>
            </Position>
            <AltitudeMeters>2559</AltitudeMeters>
            <DistanceMeters>12919.666887436</DistanceMeters>
          </Trackpoint>
          <Trackpoint>
            <Time>2022-08-22T06:44:52.000Z</Time>
            <Position>
              <LatitudeDegrees>42.82754355110228061676025390625</LatitudeDegrees>
              <LongitudeDegrees>-0.2848008088767528533935546875</LongitudeDegrees>
            </Position>
            <AltitudeMeters>2564</AltitudeMeters>
            <DistanceMeters>12924.645598097</DistanceMeters>
          </Trackpoint>
          <Trackpoint>
            <Time>2022-08-22T06:44:54.000Z</Time>
            <Position>
              <LatitudeDegrees>42.82755008898675441741943359375</LatitudeDegrees>
              <LongitudeDegrees>-0.28480307199060916900634765625</LongitudeDegrees>
            </Position>
            <AltitudeMeters>2564.39990234375</AltitudeMeters>
            <DistanceMeters>12925.393839194</DistanceMeters>
          </Trackpoint>
          <Trackpoint>
            <Time>2022-08-22T06:45:10.000Z</Time>
            <Position>
              <LatitudeDegrees>42.8277179785072803497314453125</LatitudeDegrees>
              <LongitudeDegrees>-0.2847964502871036529541015625</LongitudeDegrees>
            </Position>
            <AltitudeMeters>2564.60009765625</AltitudeMeters>
            <DistanceMeters>12944.088035846</DistanceMeters>
          </Trackpoint>
          <Trackpoint>
            <Time>2022-08-22T06:45:14.000Z</Time>
            <Position>
              <LatitudeDegrees>42.82773591578006744384765625</LatitudeDegrees>
              <LongitudeDegrees>-0.28479904867708683013916015625</LongitudeDegrees>
            </Position>
            <AltitudeMeters>2564.800048828125</AltitudeMeters>
            <DistanceMeters>12946.097126229</DistanceMeters>
          </Trackpoint>
          <Trackpoint>
            <Time>2022-08-22T06:45:38.000Z</Time>
            <Position>
              <LatitudeDegrees>42.82769300043582916259765625</LatitudeDegrees>
              <LongitudeDegrees>-0.28487616218626499176025390625</LongitudeDegrees>
            </Position>
            <AltitudeMeters>2572.199951171875</AltitudeMeters>
            <DistanceMeters>12953.99978456</DistanceMeters>
          </Trackpoint>
          <Trackpoint>
            <Time>2022-08-22T06:45:52.000Z</Time>
            <Position>
              <LatitudeDegrees>42.82770096324384212493896484375</LatitudeDegrees>
              <LongitudeDegrees>-0.2849550358951091766357421875</LongitudeDegrees>
            </Position>
            <AltitudeMeters>2579.60009765625</AltitudeMeters>
            <DistanceMeters>12960.499222813</DistanceMeters>
          </Trackpoint>
          <Trackpoint>
            <Time>2022-08-22T06:46:11.000Z</Time>
            <Position>
              <LatitudeDegrees>42.82785502262413501739501953125</LatitudeDegrees>
              <LongitudeDegrees>-0.28505084104835987091064453125</LongitudeDegrees>
            </Position>
            <AltitudeMeters>2583.60009765625</AltitudeMeters>
            <DistanceMeters>12979.345682078</DistanceMeters>
          </Trackpoint>
          <Trackpoint>
            <Time>2022-08-22T06:46:22.000Z</Time>
            <Position>
              <LatitudeDegrees>42.8278919868171215057373046875</LatitudeDegrees>
              <LongitudeDegrees>-0.28515360318124294281005859375</LongitudeDegrees>
            </Position>
            <AltitudeMeters>2584.800048828125</AltitudeMeters>
            <DistanceMeters>12988.68879446</DistanceMeters>
          </Trackpoint>
          <Trackpoint>
            <Time>2022-08-22T06:46:29.000Z</Time>
            <Position>
              <LatitudeDegrees>42.82795946113765239715576171875</LatitudeDegrees>
              <LongitudeDegrees>-0.2851984463632106781005859375</LongitudeDegrees>
            </Position>
            <AltitudeMeters>2588</AltitudeMeters>
            <DistanceMeters>12997.044123358</DistanceMeters>
          </Trackpoint>
          <Trackpoint>
            <Time>2022-08-22T06:46:31.000Z</Time>
            <Position>
              <LatitudeDegrees>42.82797689549624919891357421875</LatitudeDegrees>
              <LongitudeDegrees>-0.28520590625703334808349609375</LongitudeDegrees>
            </Position>
            <AltitudeMeters>2588.800048828125</AltitudeMeters>
            <DistanceMeters>12999.077783854</DistanceMeters>
          </Trackpoint>
          <Trackpoint>
            <Time>2022-08-22T06:46:32.000Z</Time>
            <Position>
              <LatitudeDegrees>42.8279855288565158843994140625</LatitudeDegrees>
              <LongitudeDegrees>-0.28521110303699970245361328125</LongitudeDegrees>
            </Position>
            <AltitudeMeters>2589.39990234375</AltitudeMeters>
            <DistanceMeters>13000.12738822</DistanceMeters>
          </Trackpoint>
          <Trackpoint>
            <Time>2022-08-22T06:46:34.000Z</Time>
            <Position>
              <LatitudeDegrees>42.82800153829157352447509765625</LatitudeDegrees>
              <LongitudeDegrees>-0.28522434644401073455810546875</LongitudeDegrees>
            </Position>
            <AltitudeMeters>2590.60009765625</AltitudeMeters>
            <DistanceMeters>13002.213652069</DistanceMeters>
          </Trackpoint>
          <Trackpoint>
            <Time>2022-08-22T06:46:36.000Z</Time>
            <Position>
              <LatitudeDegrees>42.8280214034020900726318359375</LatitudeDegrees>
              <LongitudeDegrees>-0.28524295426905155181884765625</LongitudeDegrees>
            </Position>
            <AltitudeMeters>2592.60009765625</AltitudeMeters>
            <DistanceMeters>13004.89468561</DistanceMeters>
          </Trackpoint>
          <Trackpoint>
            <Time>2022-08-22T06:46:39.000Z</Time>
            <Position>
              <LatitudeDegrees>42.8280482254922389984130859375</LatitudeDegrees>
              <LongitudeDegrees>-0.28525586239993572235107421875</LongitudeDegrees>
            </Position>
            <AltitudeMeters>2594.39990234375</AltitudeMeters>
            <DistanceMeters>13008.060658581</DistanceMeters>
          </Trackpoint>
          <Trackpoint>
            <Time>2022-08-22T06:46:40.000Z</Time>
            <Position>
              <LatitudeDegrees>42.82805635593831539154052734375</LatitudeDegrees>
              <LongitudeDegrees>-0.28526776470243930816650390625</LongitudeDegrees>
            </Position>
            <AltitudeMeters>2595.39990234375</AltitudeMeters>
            <DistanceMeters>13009.387634431</DistanceMeters>
          </Trackpoint>
          <Trackpoint>
            <Time>2022-08-22T06:46:41.000Z</Time>
            <Position>
              <LatitudeDegrees>42.8280653245747089385986328125</LatitudeDegrees>
              <LongitudeDegrees>-0.28527908027172088623046875</LongitudeDegrees>
            </Position>
            <AltitudeMeters>2596.60009765625</AltitudeMeters>
            <DistanceMeters>13010.751524363</DistanceMeters>
          </Trackpoint>
          <Trackpoint>
            <Time>2022-08-22T06:46:45.000Z</Time>
            <Position>
              <LatitudeDegrees>42.828084267675876617431640625</LatitudeDegrees>
              <LongitudeDegrees>-0.28529441915452480316162109375</LongitudeDegrees>
            </Position>
            <AltitudeMeters>2598</AltitudeMeters>
            <DistanceMeters>13013.203876481</DistanceMeters>
          </Trackpoint>
          <Trackpoint>
            <Time>2022-08-22T06:46:49.000Z</Time>
            <Position>
              <LatitudeDegrees>42.82810798846185207366943359375</LatitudeDegrees>
              <LongitudeDegrees>-0.2852899767458438873291015625</LongitudeDegrees>
            </Position>
            <AltitudeMeters>2598.199951171875</AltitudeMeters>
            <DistanceMeters>13015.86971034</DistanceMeters>
          </Trackpoint>
          <Trackpoint>
            <Time>2022-08-22T06:46:50.000Z</Time>
            <Position>
              <LatitudeDegrees>42.8281149454414844512939453125</LatitudeDegrees>
              <LongitudeDegrees>-0.28529475443065166473388671875</LongitudeDegrees>
            </Position>
            <AltitudeMeters>2598.60009765625</AltitudeMeters>
            <DistanceMeters>13016.73544491</DistanceMeters>
          </Trackpoint>
          <Trackpoint>
            <Time>2022-08-22T06:46:52.000Z</Time>
            <Position>
              <LatitudeDegrees>42.82812709920108318328857421875</LatitudeDegrees>
              <LongitudeDegrees>-0.28529978357255458831787109375</LongitudeDegrees>
            </Position>
            <AltitudeMeters>2599.199951171875</AltitudeMeters>
            <DistanceMeters>13018.151311065</DistanceMeters>
          </Trackpoint>
          <Trackpoint>
            <Time>2022-08-22T06:46:53.000Z</Time>
            <Position>
              <LatitudeDegrees>42.82813129015266895294189453125</LatitudeDegrees>
              <LongitudeDegrees>-0.285298526287078857421875</LongitudeDegrees>
            </Position>
            <AltitudeMeters>2599.199951171875</AltitudeMeters>
            <DistanceMeters>13018.635854136</DistanceMeters>
          </Trackpoint>
          <Trackpoint>
            <Time>2022-08-22T06:46:54.000Z</Time>
            <Position>
              <LatitudeDegrees>42.828144617378711700439453125</LatitudeDegrees>
              <LongitudeDegrees>-0.2852929942309856414794921875</LongitudeDegrees>
            </Position>
            <AltitudeMeters>2599.199951171875</AltitudeMeters>
            <DistanceMeters>13020.185692945</DistanceMeters>
          </Trackpoint>
          <Trackpoint>
            <Time>2022-08-22T06:46:55.000Z</Time>
            <Position>
              <LatitudeDegrees>42.82816381193697452545166015625</LatitudeDegrees>
              <LongitudeDegrees>-0.2852688543498516082763671875</LongitudeDegrees>
            </Position>
            <AltitudeMeters>2598.60009765625</AltitudeMeters>
            <DistanceMeters>13023.09295137</DistanceMeters>
          </Trackpoint>
          <Trackpoint>
            <Time>2022-08-22T06:46:59.000Z</Time>
            <Position>
              <LatitudeDegrees>42.82819113694131374359130859375</LatitudeDegrees>
              <LongitudeDegrees>-0.2852473966777324676513671875</LongitudeDegrees>
            </Position>
            <AltitudeMeters>2598.199951171875</AltitudeMeters>
            <DistanceMeters>13026.602513205</DistanceMeters>
          </Trackpoint>
          <Trackpoint>
            <Time>2022-08-22T06:47:00.000Z</Time>
            <Position>
              <LatitudeDegrees>42.82820588909089565277099609375</LatitudeDegrees>
              <LongitudeDegrees>-0.2852356620132923126220703125</LongitudeDegrees>
            </Position>
            <AltitudeMeters>2598</AltitudeMeters>
            <DistanceMeters>13028.503047492</DistanceMeters>
          </Trackpoint>
          <Trackpoint>
            <Time>2022-08-22T06:47:02.000Z</Time>
            <Position>
              <LatitudeDegrees>42.82821360044181346893310546875</LatitudeDegrees>
              <LongitudeDegrees>-0.28523088432848453521728515625</LongitudeDegrees>
            </Position>
            <AltitudeMeters>2598</AltitudeMeters>
            <DistanceMeters>13029.44376397</DistanceMeters>
          </Trackpoint>
          <Trackpoint>
            <Time>2022-08-22T06:47:05.000Z</Time>
            <Position>
              <LatitudeDegrees>42.82821477390825748443603515625</LatitudeDegrees>
              <LongitudeDegrees>-0.2852286212146282196044921875</LongitudeDegrees>
            </Position>
            <AltitudeMeters>2598</AltitudeMeters>
            <DistanceMeters>13029.676530932</DistanceMeters>
          </Trackpoint>
          <Trackpoint>
            <Time>2022-08-22T06:47:06.000Z</Time>
            <Position>
              <LatitudeDegrees>42.8282135166227817535400390625</LatitudeDegrees>
              <LongitudeDegrees>-0.28522811830043792724609375</LongitudeDegrees>
            </Position>
            <AltitudeMeters>2597.800048828125</AltitudeMeters>
            <DistanceMeters>13029.810919</DistanceMeters>
          </Trackpoint>
          <Trackpoint>
            <Time>2022-08-22T06:47:07.000Z</Time>
            <Position>
              <LatitudeDegrees>42.82821292988955974578857421875</LatitudeDegrees>
              <LongitudeDegrees>-0.2852306328713893890380859375</LongitudeDegrees>
            </Position>
            <AltitudeMeters>2598</AltitudeMeters>
            <DistanceMeters>13030.023405193</DistanceMeters>
          </Trackpoint>
          <Trackpoint>
            <Time>2022-08-22T06:47:08.000Z</Time>
            <Position>
              <LatitudeDegrees>42.82821678556501865386962890625</LatitudeDegrees>
              <LongitudeDegrees>-0.2852316386997699737548828125</LongitudeDegrees>
            </Position>
            <AltitudeMeters>2598</AltitudeMeters>
            <DistanceMeters>13030.448377579</DistanceMeters>
          </Trackpoint>
          <Trackpoint>
            <Time>2022-08-22T06:47:12.000Z</Time>
            <Position>
              <LatitudeDegrees>42.8282467089593410491943359375</LatitudeDegrees>
              <LongitudeDegrees>-0.2851974405348300933837890625</LongitudeDegrees>
            </Position>
            <AltitudeMeters>2597.199951171875</AltitudeMeters>
            <DistanceMeters>13034.794746169</DistanceMeters>
          </Trackpoint>
          <Trackpoint>
            <Time>2022-08-22T06:47:13.000Z</Time>
            <Position>
              <LatitudeDegrees>42.8282510675489902496337890625</LatitudeDegrees>
              <LongitudeDegrees>-0.28518629260361194610595703125</LongitudeDegrees>
            </Position>
            <AltitudeMeters>2596.800048828125</AltitudeMeters>
            <DistanceMeters>13035.822617243</DistanceMeters>
          </Trackpoint>
          <Trackpoint>
            <Time>2022-08-22T06:47:14.000Z</Time>
            <Position>
              <LatitudeDegrees>42.82825492322444915771484375</LatitudeDegrees>
              <LongitudeDegrees>-0.28517170809209346771240234375</LongitudeDegrees>
            </Position>
            <AltitudeMeters>2596.39990234375</AltitudeMeters>
            <DistanceMeters>13037.086865451</DistanceMeters>
          </Trackpoint>
          <Trackpoint>
            <Time>2022-08-22T06:47:16.000Z</Time>
            <Position>
              <LatitudeDegrees>42.8282678313553333282470703125</LatitudeDegrees>
              <LongitudeDegrees>-0.285158716142177581787109375</LongitudeDegrees>
            </Position>
            <AltitudeMeters>2596</AltitudeMeters>
            <DistanceMeters>13038.87225532</DistanceMeters>
          </Trackpoint>
          <Trackpoint>
            <Time>2022-08-22T06:47:18.000Z</Time>
            <Position>
              <LatitudeDegrees>42.82828149385750293731689453125</LatitudeDegrees>
              <LongitudeDegrees>-0.2851478196680545806884765625</LongitudeDegrees>
            </Position>
            <AltitudeMeters>2595.800048828125</AltitudeMeters>
            <DistanceMeters>13040.634738312</DistanceMeters>
          </Trackpoint>
          <Trackpoint>
            <Time>2022-08-22T06:47:22.000Z</Time>
            <Position>
              <LatitudeDegrees>42.82830462791025638580322265625</LatitudeDegrees>
              <LongitudeDegrees>-0.28512996621429920196533203125</LongitudeDegrees>
            </Position>
            <AltitudeMeters>2595.60009765625</AltitudeMeters>
            <DistanceMeters>13043.592802556</DistanceMeters>
          </Trackpoint>
          <Trackpoint>
            <Time>2022-08-22T06:47:24.000Z</Time>
            <Position>
              <LatitudeDegrees>42.82831954769790172576904296875</LatitudeDegrees>
              <LongitudeDegrees>-0.28512979857623577117919921875</LongitudeDegrees>
            </Position>
            <AltitudeMeters>2596</AltitudeMeters>
            <DistanceMeters>13045.255091157</DistanceMeters>
          </Trackpoint>
          <Trackpoint>
            <Time>2022-08-22T06:47:25.000Z</Time>
            <Position>
              <LatitudeDegrees>42.82832340337336063385009765625</LatitudeDegrees>
              <LongitudeDegrees>-0.28512845747172832489013671875</LongitudeDegrees>
            </Position>
            <AltitudeMeters>2596</AltitudeMeters>
            <DistanceMeters>13045.690558268</DistanceMeters>
          </Trackpoint>
          <Trackpoint>
            <Time>2022-08-22T06:47:28.000Z</Time>
            <Position>
              <LatitudeDegrees>42.82832524739205837249755859375</LatitudeDegrees>
              <LongitudeDegrees>-0.28515745885670185089111328125</LongitudeDegrees>
            </Position>
            <AltitudeMeters>2597.199951171875</AltitudeMeters>
            <DistanceMeters>13048.068125902</DistanceMeters>
          </Trackpoint>
          <Trackpoint>
            <Time>2022-08-22T06:47:29.000Z</Time>
            <Position>
              <LatitudeDegrees>42.82832524739205837249755859375</LatitudeDegrees>
              <LongitudeDegrees>-0.28515745885670185089111328125</LongitudeDegrees>
            </Position>
            <AltitudeMeters>2597.199951171875</AltitudeMeters>
            <DistanceMeters>13048.068125902</DistanceMeters>
          </Trackpoint>
          <Trackpoint>
            <Time>2022-08-22T06:47:30.000Z</Time>
            <Position>
              <LatitudeDegrees>42.82832709141075611114501953125</LatitudeDegrees>
              <LongitudeDegrees>-0.28516416437923908233642578125</LongitudeDegrees>
            </Position>
            <AltitudeMeters>2597.60009765625</AltitudeMeters>
            <DistanceMeters>13048.653909911</DistanceMeters>
          </Trackpoint>
          <Trackpoint>
            <Time>2022-08-22T06:47:31.000Z</Time>
            <Position>
              <LatitudeDegrees>42.82833731733262538909912109375</LatitudeDegrees>
              <LongitudeDegrees>-0.28515980578958988189697265625</LongitudeDegrees>
            </Position>
            <AltitudeMeters>2597.60009765625</AltitudeMeters>
            <DistanceMeters>13049.848377189</DistanceMeters>
          </Trackpoint>
          <Trackpoint>
            <Time>2022-08-22T06:47:33.000Z</Time>
            <Position>
              <LatitudeDegrees>42.82834134064614772796630859375</LatitudeDegrees>
              <LongitudeDegrees>-0.2851531840860843658447265625</LongitudeDegrees>
            </Position>
            <AltitudeMeters>2597.39990234375</AltitudeMeters>
            <DistanceMeters>13050.546678075</DistanceMeters>
          </Trackpoint>
          <Trackpoint>
            <Time>2022-08-22T06:47:54.000Z</Time>
            <Position>
              <LatitudeDegrees>42.82851040363311767578125</LatitudeDegrees>
              <LongitudeDegrees>-0.28510632924735546112060546875</LongitudeDegrees>
            </Position>
            <AltitudeMeters>2597.800048828125</AltitudeMeters>
            <DistanceMeters>13069.748424123</DistanceMeters>
          </Trackpoint>
          <Trackpoint>
            <Time>2022-08-22T06:48:01.000Z</Time>
            <Position>
              <LatitudeDegrees>42.82858206890523433685302734375</LatitudeDegrees>
              <LongitudeDegrees>-0.28502619825303554534912109375</LongitudeDegrees>
            </Position>
            <AltitudeMeters>2594.800048828125</AltitudeMeters>
            <DistanceMeters>13080.063529103</DistanceMeters>
          </Trackpoint>
          <Trackpoint>
            <Time>2022-08-22T06:48:07.000Z</Time>
            <Position>
              <LatitudeDegrees>42.82864241860806941986083984375</LatitudeDegrees>
              <LongitudeDegrees>-0.285023264586925506591796875</LongitudeDegrees>
            </Position>
            <AltitudeMeters>2595.39990234375</AltitudeMeters>
            <DistanceMeters>13086.784276262</DistanceMeters>
          </Trackpoint>
          <Trackpoint>
            <Time>2022-08-22T06:48:11.000Z</Time>
            <Position>
              <LatitudeDegrees>42.8286637924611568450927734375</LatitudeDegrees>
              <LongitudeDegrees>-0.2850157208740711212158203125</LongitudeDegrees>
            </Position>
            <AltitudeMeters>2595.39990234375</AltitudeMeters>
            <DistanceMeters>13089.24030783</DistanceMeters>
          </Trackpoint>
          <Trackpoint>
            <Time>2022-08-22T06:48:13.000Z</Time>
            <Position>
              <LatitudeDegrees>42.82867728732526302337646484375</LatitudeDegrees>
              <LongitudeDegrees>-0.285012535750865936279296875</LongitudeDegrees>
            </Position>
            <AltitudeMeters>2595.39990234375</AltitudeMeters>
            <DistanceMeters>13090.76370195</DistanceMeters>
          </Trackpoint>
          <Trackpoint>
            <Time>2022-08-22T06:48:15.000Z</Time>
            <Position>
              <LatitudeDegrees>42.828683741390705108642578125</LatitudeDegrees>
              <LongitudeDegrees>-0.28500541113317012786865234375</LongitudeDegrees>
            </Position>
            <AltitudeMeters>2595.199951171875</AltitudeMeters>
            <DistanceMeters>13091.685020129</DistanceMeters>
          </Trackpoint>
          <Trackpoint>
            <Time>2022-08-22T06:48:17.000Z</Time>
            <Position>
              <LatitudeDegrees>42.82869639806449413299560546875</LatitudeDegrees>
              <LongitudeDegrees>-0.285002477467060089111328125</LongitudeDegrees>
            </Position>
            <AltitudeMeters>2595.199951171875</AltitudeMeters>
            <DistanceMeters>13093.11358489</DistanceMeters>
          </Trackpoint>
          <Trackpoint>
            <Time>2022-08-22T06:48:29.000Z</Time>
            <Position>
              <LatitudeDegrees>42.82887610606849193572998046875</LatitudeDegrees>
              <LongitudeDegrees>-0.28497037477791309356689453125</LongitudeDegrees>
            </Position>
            <AltitudeMeters>2603</AltitudeMeters>
            <DistanceMeters>13113.286124761</DistanceMeters>
          </Trackpoint>
          <Trackpoint>
            <Time>2022-08-22T06:48:30.000Z</Time>
            <Position>
              <LatitudeDegrees>42.82888256013393402099609375</LatitudeDegrees>
              <LongitudeDegrees>-0.284972302615642547607421875</LongitudeDegrees>
            </Position>
            <AltitudeMeters>2603.39990234375</AltitudeMeters>
            <DistanceMeters>13114.022198526</DistanceMeters>
          </Trackpoint>
          <Trackpoint>
            <Time>2022-08-22T06:48:34.000Z</Time>
            <Position>
              <LatitudeDegrees>42.82889555208384990692138671875</LatitudeDegrees>
              <LongitudeDegrees>-0.2849962748587131500244140625</LongitudeDegrees>
            </Position>
            <AltitudeMeters>2605.39990234375</AltitudeMeters>
            <DistanceMeters>13116.456069958</DistanceMeters>
          </Trackpoint>
          <Trackpoint>
            <Time>2022-08-22T06:48:50.000Z</Time>
            <Position>
              <LatitudeDegrees>42.82899965532124042510986328125</LatitudeDegrees>
              <LongitudeDegrees>-0.284935422241687774658203125</LongitudeDegrees>
            </Position>
            <AltitudeMeters>2608.199951171875</AltitudeMeters>
            <DistanceMeters>13129.062788223</DistanceMeters>
          </Trackpoint>
          <Trackpoint>
            <Time>2022-08-22T06:48:57.000Z</Time>
            <Position>
              <LatitudeDegrees>42.829054892063140869140625</LatitudeDegrees>
              <LongitudeDegrees>-0.284863002598285675048828125</LongitudeDegrees>
            </Position>
            <AltitudeMeters>2610.199951171875</AltitudeMeters>
            <DistanceMeters>13137.591932132</DistanceMeters>
          </Trackpoint>
          <Trackpoint>
            <Time>2022-08-22T06:49:00.000Z</Time>
            <Position>
              <LatitudeDegrees>42.82906939275562763214111328125</LatitudeDegrees>
              <LongitudeDegrees>-0.284857638180255889892578125</LongitudeDegrees>
            </Position>
            <AltitudeMeters>2611</AltitudeMeters>
            <DistanceMeters>13139.265050089</DistanceMeters>
          </Trackpoint>
          <Trackpoint>
            <Time>2022-08-22T06:49:03.000Z</Time>
            <Position>
              <LatitudeDegrees>42.82907106913626194000244140625</LatitudeDegrees>
              <LongitudeDegrees>-0.284880436956882476806640625</LongitudeDegrees>
            </Position>
            <AltitudeMeters>2611.39990234375</AltitudeMeters>
            <DistanceMeters>13141.134445602</DistanceMeters>
          </Trackpoint>
          <Trackpoint>
            <Time>2022-08-22T06:49:08.000Z</Time>
            <Position>
              <LatitudeDegrees>42.82909655012190341949462890625</LatitudeDegrees>
              <LongitudeDegrees>-0.28487817384302616119384765625</LongitudeDegrees>
            </Position>
            <AltitudeMeters>2613</AltitudeMeters>
            <DistanceMeters>13143.975728471</DistanceMeters>
          </Trackpoint>
          <Trackpoint>
            <Time>2022-08-22T06:49:31.000Z</Time>
            <Position>
              <LatitudeDegrees>42.82919059507548809051513671875</LatitudeDegrees>
              <LongitudeDegrees>-0.284815728664398193359375</LongitudeDegrees>
            </Position>
            <AltitudeMeters>2617.60009765625</AltitudeMeters>
            <DistanceMeters>13155.61834319</DistanceMeters>
          </Trackpoint>
          <Trackpoint>
            <Time>2022-08-22T06:49:58.000Z</Time>
            <Position>
              <LatitudeDegrees>42.8292226977646350860595703125</LatitudeDegrees>
              <LongitudeDegrees>-0.28492863290011882781982421875</LongitudeDegrees>
            </Position>
            <AltitudeMeters>2621.60009765625</AltitudeMeters>
            <DistanceMeters>13165.502948753</DistanceMeters>
          </Trackpoint>
          <Trackpoint>
            <Time>2022-08-22T06:50:07.000Z</Time>
            <Position>
              <LatitudeDegrees>42.82923661172389984130859375</LatitudeDegrees>
              <LongitudeDegrees>-0.28500415384769439697265625</LongitudeDegrees>
            </Position>
            <AltitudeMeters>2623.60009765625</AltitudeMeters>
            <DistanceMeters>13171.859092396</DistanceMeters>
          </Trackpoint>
          <Trackpoint>
            <Time>2022-08-22T06:50:10.000Z</Time>
            <Position>
              <LatitudeDegrees>42.8292589075863361358642578125</LatitudeDegrees>
              <LongitudeDegrees>-0.28497909195721149444580078125</LongitudeDegrees>
            </Position>
            <AltitudeMeters>2624.39990234375</AltitudeMeters>
            <DistanceMeters>13175.075995814</DistanceMeters>
          </Trackpoint>
          <Trackpoint>
            <Time>2022-08-22T06:50:42.000Z</Time>
            <Position>
              <LatitudeDegrees>42.8294379450380802154541015625</LatitudeDegrees>
              <LongitudeDegrees>-0.28492628596723079681396484375</LongitudeDegrees>
            </Position>
            <AltitudeMeters>2632.199951171875</AltitudeMeters>
            <DistanceMeters>13195.464043265</DistanceMeters>
          </Trackpoint>
          <Trackpoint>
            <Time>2022-08-22T06:50:54.000Z</Time>
            <Position>
              <LatitudeDegrees>42.8294925950467586517333984375</LatitudeDegrees>
              <LongitudeDegrees>-0.28489141725003719329833984375</LongitudeDegrees>
            </Position>
            <AltitudeMeters>2634</AltitudeMeters>
            <DistanceMeters>13202.179413826</DistanceMeters>
          </Trackpoint>
          <Trackpoint>
            <Time>2022-08-22T06:51:26.000Z</Time>
            <Position>
              <LatitudeDegrees>42.8296270407736301422119140625</LatitudeDegrees>
              <LongitudeDegrees>-0.2849858812987804412841796875</LongitudeDegrees>
            </Position>
            <AltitudeMeters>2640.800048828125</AltitudeMeters>
            <DistanceMeters>13219.013095208</DistanceMeters>
          </Trackpoint>
          <Trackpoint>
            <Time>2022-08-22T06:51:37.000Z</Time>
            <Position>
              <LatitudeDegrees>42.8296739794313907623291015625</LatitudeDegrees>
              <LongitudeDegrees>-0.28498663567006587982177734375</LongitudeDegrees>
            </Position>
            <AltitudeMeters>2642.39990234375</AltitudeMeters>
            <DistanceMeters>13224.236972218</DistanceMeters>
          </Trackpoint>
          <Trackpoint>
            <Time>2022-08-22T06:51:46.000Z</Time>
            <Position>
              <LatitudeDegrees>42.8297410346567630767822265625</LatitudeDegrees>
              <LongitudeDegrees>-0.28496333397924900054931640625</LongitudeDegrees>
            </Position>
            <AltitudeMeters>2644.60009765625</AltitudeMeters>
            <DistanceMeters>13231.939413535</DistanceMeters>
          </Trackpoint>
          <Trackpoint>
            <Time>2022-08-22T06:51:57.000Z</Time>
            <Position>
              <LatitudeDegrees>42.82981395721435546875</LatitudeDegrees>
              <LongitudeDegrees>-0.2849109470844268798828125</LongitudeDegrees>
            </Position>
            <AltitudeMeters>2646.39990234375</AltitudeMeters>
            <DistanceMeters>13241.113798666</DistanceMeters>
          </Trackpoint>
          <Trackpoint>
            <Time>2022-08-22T06:52:16.000Z</Time>
            <Position>
              <LatitudeDegrees>42.82993222586810588836669921875</LatitudeDegrees>
              <LongitudeDegrees>-0.284951515495777130126953125</LongitudeDegrees>
            </Position>
            <AltitudeMeters>2650.39990234375</AltitudeMeters>
            <DistanceMeters>13254.68765883</DistanceMeters>
          </Trackpoint>
          <Trackpoint>
            <Time>2022-08-22T06:52:40.000Z</Time>
            <Position>
              <LatitudeDegrees>42.830061055719852447509765625</LatitudeDegrees>
              <LongitudeDegrees>-0.28509643860161304473876953125</LongitudeDegrees>
            </Position>
            <AltitudeMeters>2656.199951171875</AltitudeMeters>
            <DistanceMeters>13273.276497019</DistanceMeters>
          </Trackpoint>
          <Trackpoint>
            <Time>2022-08-22T06:52:44.000Z</Time>
            <Position>
              <LatitudeDegrees>42.830079160630702972412109375</LatitudeDegrees>
              <LongitudeDegrees>-0.28510733507573604583740234375</LongitudeDegrees>
            </Position>
            <AltitudeMeters>2657</AltitudeMeters>
            <DistanceMeters>13275.478575821</DistanceMeters>
          </Trackpoint>
          <Trackpoint>
            <Time>2022-08-22T06:52:47.000Z</Time>
            <Position>
              <LatitudeDegrees>42.83008846454322338104248046875</LatitudeDegrees>
              <LongitudeDegrees>-0.2851209975779056549072265625</LongitudeDegrees>
            </Position>
            <AltitudeMeters>2657.39990234375</AltitudeMeters>
            <DistanceMeters>13276.999003251</DistanceMeters>
          </Trackpoint>
          <Trackpoint>
            <Time>2022-08-22T06:52:52.000Z</Time>
            <Position>
              <LatitudeDegrees>42.83010086975991725921630859375</LatitudeDegrees>
              <LongitudeDegrees>-0.28510247357189655303955078125</LongitudeDegrees>
            </Position>
            <AltitudeMeters>2657.60009765625</AltitudeMeters>
            <DistanceMeters>13279.043734381</DistanceMeters>
          </Trackpoint>
          <Trackpoint>
            <Time>2022-08-22T06:52:58.000Z</Time>
            <Position>
              <LatitudeDegrees>42.83013707958161830902099609375</LatitudeDegrees>
              <LongitudeDegrees>-0.2851040661334991455078125</LongitudeDegrees>
            </Position>
            <AltitudeMeters>2658.60009765625</AltitudeMeters>
            <DistanceMeters>13283.075376428</DistanceMeters>
          </Trackpoint>
          <Trackpoint>
            <Time>2022-08-22T06:53:00.000Z</Time>
            <Position>
              <LatitudeDegrees>42.8301406837999820709228515625</LatitudeDegrees>
              <LongitudeDegrees>-0.285121165215969085693359375</LongitudeDegrees>
            </Position>
            <AltitudeMeters>2659</AltitudeMeters>
            <DistanceMeters>13284.529005641</DistanceMeters>
          </Trackpoint>
          <Trackpoint>
            <Time>2022-08-22T06:53:03.000Z</Time>
            <Position>
              <LatitudeDegrees>42.8301564417779445648193359375</LatitudeDegrees>
              <LongitudeDegrees>-0.28513046912848949432373046875</LongitudeDegrees>
            </Position>
            <AltitudeMeters>2659.60009765625</AltitudeMeters>
            <DistanceMeters>13286.441381378</DistanceMeters>
          </Trackpoint>
          <Trackpoint>
            <Time>2022-08-22T06:53:05.000Z</Time>
            <Position>
              <LatitudeDegrees>42.83016356639564037322998046875</LatitudeDegrees>
              <LongitudeDegrees>-0.28513181023299694061279296875</LongitudeDegrees>
            </Position>
            <AltitudeMeters>2659.800048828125</AltitudeMeters>
            <DistanceMeters>13287.236431911</DistanceMeters>
          </Trackpoint>
          <Trackpoint>
            <Time>2022-08-22T06:53:08.000Z</Time>
            <Position>
              <LatitudeDegrees>42.83018074929714202880859375</LatitudeDegrees>
              <LongitudeDegrees>-0.28513348661363124847412109375</LongitudeDegrees>
            </Position>
            <AltitudeMeters>2660.39990234375</AltitudeMeters>
            <DistanceMeters>13289.153523749</DistanceMeters>
          </Trackpoint>
          <Trackpoint>
            <Time>2022-08-22T06:53:18.000Z</Time>
            <Position>
              <LatitudeDegrees>42.83020765520632266998291015625</LatitudeDegrees>
              <LongitudeDegrees>-0.2851592190563678741455078125</LongitudeDegrees>
            </Position>
            <AltitudeMeters>2662</AltitudeMeters>
            <DistanceMeters>13292.811743711</DistanceMeters>
          </Trackpoint>
          <Trackpoint>
            <Time>2022-08-22T06:53:49.000Z</Time>
            <Position>
              <LatitudeDegrees>42.83036657609045505523681640625</LatitudeDegrees>
              <LongitudeDegrees>-0.285249911248683929443359375</LongitudeDegrees>
            </Position>
            <AltitudeMeters>2669.60009765625</AltitudeMeters>
            <DistanceMeters>13311.986900885</DistanceMeters>
          </Trackpoint>
          <Trackpoint>
            <Time>2022-08-22T06:54:16.000Z</Time>
            <Position>
              <LatitudeDegrees>42.830472104251384735107421875</LatitudeDegrees>
              <LongitudeDegrees>-0.28537605889141559600830078125</LongitudeDegrees>
            </Position>
            <AltitudeMeters>2675.800048828125</AltitudeMeters>
            <DistanceMeters>13327.606587353</DistanceMeters>
          </Trackpoint>
          <Trackpoint>
            <Time>2022-08-22T06:54:23.000Z</Time>
            <Position>
              <LatitudeDegrees>42.8305349685251712799072265625</LatitudeDegrees>
              <LongitudeDegrees>-0.28533934615552425384521484375</LongitudeDegrees>
            </Position>
            <AltitudeMeters>2677</AltitudeMeters>
            <DistanceMeters>13335.217628043</DistanceMeters>
          </Trackpoint>
          <Trackpoint>
            <Time>2022-08-22T06:54:28.000Z</Time>
            <Position>
              <LatitudeDegrees>42.83056640066206455230712890625</LatitudeDegrees>
              <LongitudeDegrees>-0.28531872667372226715087890625</LongitudeDegrees>
            </Position>
            <AltitudeMeters>2677.60009765625</AltitudeMeters>
            <DistanceMeters>13339.098628882</DistanceMeters>
          </Trackpoint>
          <Trackpoint>
            <Time>2022-08-22T06:54:31.000Z</Time>
            <Position>
              <LatitudeDegrees>42.83057260327041149139404296875</LatitudeDegrees>
              <LongitudeDegrees>-0.28531738556921482086181640625</LongitudeDegrees>
            </Position>
            <AltitudeMeters>2677.800048828125</AltitudeMeters>
            <DistanceMeters>13339.783876264</DistanceMeters>
          </Trackpoint>
          <Trackpoint>
            <Time>2022-08-22T06:54:34.000Z</Time>
            <Position>
              <LatitudeDegrees>42.8305785544216632843017578125</LatitudeDegrees>
              <LongitudeDegrees>-0.28533113189041614532470703125</LongitudeDegrees>
            </Position>
            <AltitudeMeters>2678.60009765625</AltitudeMeters>
            <DistanceMeters>13341.083347039</DistanceMeters>
          </Trackpoint>
          <Trackpoint>
            <Time>2022-08-22T06:54:37.000Z</Time>
            <Position>
              <LatitudeDegrees>42.83059942536056041717529296875</LatitudeDegrees>
              <LongitudeDegrees>-0.28531654737889766693115234375</LongitudeDegrees>
            </Position>
            <AltitudeMeters>2679</AltitudeMeters>
            <DistanceMeters>13343.696149709</DistanceMeters>
          </Trackpoint>
          <Trackpoint>
            <Time>2022-08-22T06:54:38.000Z</Time>
            <Position>
              <LatitudeDegrees>42.83060881309211254119873046875</LatitudeDegrees>
              <LongitudeDegrees>-0.28530992567539215087890625</LongitudeDegrees>
            </Position>
            <AltitudeMeters>2679.199951171875</AltitudeMeters>
            <DistanceMeters>13344.871565251</DistanceMeters>
          </Trackpoint>
          <Trackpoint>
            <Time>2022-08-22T06:54:39.000Z</Time>
            <Position>
              <LatitudeDegrees>42.83061786554753780364990234375</LatitudeDegrees>
              <LongitudeDegrees>-0.28530196286737918853759765625</LongitudeDegrees>
            </Position>
            <AltitudeMeters>2679.199951171875</AltitudeMeters>
            <DistanceMeters>13346.069806526</DistanceMeters>
          </Trackpoint>
          <Trackpoint>
            <Time>2022-08-22T06:54:40.000Z</Time>
            <Position>
              <LatitudeDegrees>42.83062524162232875823974609375</LatitudeDegrees>
              <LongitudeDegrees>-0.2852966822683811187744140625</LongitudeDegrees>
            </Position>
            <AltitudeMeters>2679.39990234375</AltitudeMeters>
            <DistanceMeters>13346.991124705</DistanceMeters>
          </Trackpoint>
          <Trackpoint>
            <Time>2022-08-22T06:54:41.000Z</Time>
            <Position>
              <LatitudeDegrees>42.8306345455348491668701171875</LatitudeDegrees>
              <LongitudeDegrees>-0.28528788127005100250244140625</LongitudeDegrees>
            </Position>
            <AltitudeMeters>2679.60009765625</AltitudeMeters>
            <DistanceMeters>13348.251796531</DistanceMeters>
          </Trackpoint>
          <Trackpoint>
            <Time>2022-08-22T06:54:42.000Z</Time>
            <Position>
              <LatitudeDegrees>42.83064552582800388336181640625</LatitudeDegrees>
              <LongitudeDegrees>-0.28527799062430858612060546875</LongitudeDegrees>
            </Position>
            <AltitudeMeters>2679.60009765625</AltitudeMeters>
            <DistanceMeters>13349.711624617</DistanceMeters>
          </Trackpoint>
          <Trackpoint>
            <Time>2022-08-22T06:54:55.000Z</Time>
            <Position>
              <LatitudeDegrees>42.83076739870011806488037109375</LatitudeDegrees>
              <LongitudeDegrees>-0.2851354144513607025146484375</LongitudeDegrees>
            </Position>
            <AltitudeMeters>2681.199951171875</AltitudeMeters>
            <DistanceMeters>13367.584227229</DistanceMeters>
          </Trackpoint>
          <Trackpoint>
            <Time>2022-08-22T06:54:57.000Z</Time>
            <Position>
              <LatitudeDegrees>42.83078961074352264404296875</LatitudeDegrees>
              <LongitudeDegrees>-0.28514840640127658843994140625</LongitudeDegrees>
            </Position>
            <AltitudeMeters>2682.199951171875</AltitudeMeters>
            <DistanceMeters>13370.275346199</DistanceMeters>
          </Trackpoint>
          <Trackpoint>
            <Time>2022-08-22T06:55:01.000Z</Time>
            <Position>
              <LatitudeDegrees>42.8308452665805816650390625</LatitudeDegrees>
              <LongitudeDegrees>-0.28517221100628376007080078125</LongitudeDegrees>
            </Position>
            <AltitudeMeters>2684.39990234375</AltitudeMeters>
            <DistanceMeters>13376.767833922</DistanceMeters>
          </Trackpoint>
          <Trackpoint>
            <Time>2022-08-22T06:55:04.000Z</Time>
            <Position>
              <LatitudeDegrees>42.83086781390011310577392578125</LatitudeDegrees>
              <LongitudeDegrees>-0.28519065119326114654541015625</LongitudeDegrees>
            </Position>
            <AltitudeMeters>2685.60009765625</AltitudeMeters>
            <DistanceMeters>13379.693669268</DistanceMeters>
          </Trackpoint>
          <Trackpoint>
            <Time>2022-08-22T06:55:10.000Z</Time>
            <Position>
              <LatitudeDegrees>42.830916680395603179931640625</LatitudeDegrees>
              <LongitudeDegrees>-0.2851914055645465850830078125</LongitudeDegrees>
            </Position>
            <AltitudeMeters>2687.39990234375</AltitudeMeters>
            <DistanceMeters>13385.133481811</DistanceMeters>
          </Trackpoint>
          <Trackpoint>
            <Time>2022-08-22T06:55:15.000Z</Time>
            <Position>
              <LatitudeDegrees>42.830937467515468597412109375</LatitudeDegrees>
              <LongitudeDegrees>-0.28517891652882099151611328125</LongitudeDegrees>
            </Position>
            <AltitudeMeters>2687.60009765625</AltitudeMeters>
            <DistanceMeters>13387.661978226</DistanceMeters>
          </Trackpoint>
          <Trackpoint>
            <Time>2022-08-22T06:55:19.000Z</Time>
            <Position>
              <LatitudeDegrees>42.83093352802097797393798828125</LatitudeDegrees>
              <LongitudeDegrees>-0.2852199040353298187255859375</LongitudeDegrees>
            </Position>
            <AltitudeMeters>2688.199951171875</AltitudeMeters>
            <DistanceMeters>13391.03643024</DistanceMeters>
          </Trackpoint>
          <Trackpoint>
            <Time>2022-08-22T06:55:31.000Z</Time>
            <Position>
              <LatitudeDegrees>42.83093855716288089752197265625</LatitudeDegrees>
              <LongitudeDegrees>-0.28527346439659595489501953125</LongitudeDegrees>
            </Position>
            <AltitudeMeters>2689.39990234375</AltitudeMeters>
            <DistanceMeters>13395.444686643</DistanceMeters>
          </Trackpoint>
          <Trackpoint>
            <Time>2022-08-22T06:56:14.000Z</Time>
            <Position>
              <LatitudeDegrees>42.8310464322566986083984375</LatitudeDegrees>
              <LongitudeDegrees>-0.28533297590911388397216796875</LongitudeDegrees>
            </Position>
            <AltitudeMeters>2693</AltitudeMeters>
            <DistanceMeters>13408.396935875</DistanceMeters>
          </Trackpoint>
          <Trackpoint>
            <Time>2022-08-22T06:56:19.000Z</Time>
            <Position>
              <LatitudeDegrees>42.83107928931713104248046875</LatitudeDegrees>
              <LongitudeDegrees>-0.28534839861094951629638671875</LongitudeDegrees>
            </Position>
            <AltitudeMeters>2694.199951171875</AltitudeMeters>
            <DistanceMeters>13412.263951079</DistanceMeters>
          </Trackpoint>
          <Trackpoint>
            <Time>2022-08-22T06:56:23.000Z</Time>
            <Position>
              <LatitudeDegrees>42.83108809031546115875244140625</LatitudeDegrees>
              <LongitudeDegrees>-0.28537563979625701904296875</LongitudeDegrees>
            </Position>
            <AltitudeMeters>2695</AltitudeMeters>
            <DistanceMeters>13414.690390825</DistanceMeters>
          </Trackpoint>
          <Trackpoint>
            <Time>2022-08-22T06:56:28.000Z</Time>
            <Position>
              <LatitudeDegrees>42.8310935385525226593017578125</LatitudeDegrees>
              <LongitudeDegrees>-0.2854146994650363922119140625</LongitudeDegrees>
            </Position>
            <AltitudeMeters>2696.199951171875</AltitudeMeters>
            <DistanceMeters>13417.935243539</DistanceMeters>
          </Trackpoint>
          <Trackpoint>
            <Time>2022-08-22T06:56:33.000Z</Time>
            <Position>
              <LatitudeDegrees>42.83110535703599452972412109375</LatitudeDegrees>
              <LongitudeDegrees>-0.28546859510242938995361328125</LongitudeDegrees>
            </Position>
            <AltitudeMeters>2697.800048828125</AltitudeMeters>
            <DistanceMeters>13422.527109009</DistanceMeters>
          </Trackpoint>
          <Trackpoint>
            <Time>2022-08-22T06:56:42.000Z</Time>
            <Position>
              <LatitudeDegrees>42.83113201148808002471923828125</LatitudeDegrees>
              <LongitudeDegrees>-0.28552827425301074981689453125</LongitudeDegrees>
            </Position>
            <AltitudeMeters>2700.199951171875</AltitudeMeters>
            <DistanceMeters>13428.231087045</DistanceMeters>
          </Trackpoint>
          <Trackpoint>
            <Time>2022-08-22T06:56:52.000Z</Time>
            <Position>
              <LatitudeDegrees>42.8311592526733875274658203125</LatitudeDegrees>
              <LongitudeDegrees>-0.285609662532806396484375</LongitudeDegrees>
            </Position>
            <AltitudeMeters>2703</AltitudeMeters>
            <DistanceMeters>13435.533319676</DistanceMeters>
          </Trackpoint>
          <Trackpoint>
            <Time>2022-08-22T06:57:04.000Z</Time>
            <Position>
              <LatitudeDegrees>42.8312824666500091552734375</LatitudeDegrees>
              <LongitudeDegrees>-0.285608656704425811767578125</LongitudeDegrees>
            </Position>
            <AltitudeMeters>2705.800048828125</AltitudeMeters>
            <DistanceMeters>13449.247488706</DistanceMeters>
          </Trackpoint>
          <Trackpoint>
            <Time>2022-08-22T06:57:10.000Z</Time>
            <Position>
              <LatitudeDegrees>42.83131808973848819732666015625</LatitudeDegrees>
              <LongitudeDegrees>-0.2856034599244594573974609375</LongitudeDegrees>
            </Position>
            <AltitudeMeters>2706.60009765625</AltitudeMeters>
            <DistanceMeters>13453.235215454</DistanceMeters>
          </Trackpoint>
          <Trackpoint>
            <Time>2022-08-22T06:57:13.000Z</Time>
            <Position>
              <LatitudeDegrees>42.83133384771645069122314453125</LatitudeDegrees>
              <LongitudeDegrees>-0.28559717349708080291748046875</LongitudeDegrees>
            </Position>
            <AltitudeMeters>2706.800048828125</AltitudeMeters>
            <DistanceMeters>13455.063090801</DistanceMeters>
          </Trackpoint>
          <Trackpoint>
            <Time>2022-08-22T06:57:17.000Z</Time>
            <Position>
              <LatitudeDegrees>42.8313798643648624420166015625</LatitudeDegrees>
              <LongitudeDegrees>-0.28557169251143932342529296875</LongitudeDegrees>
            </Position>
            <AltitudeMeters>2707.39990234375</AltitudeMeters>
            <DistanceMeters>13460.590999871</DistanceMeters>
          </Trackpoint>
          <Trackpoint>
            <Time>2022-08-22T06:57:21.000Z</Time>
            <Position>
              <LatitudeDegrees>42.83141263760626316070556640625</LatitudeDegrees>
              <LongitudeDegrees>-0.28554772026836872100830078125</LongitudeDegrees>
            </Position>
            <AltitudeMeters>2707.60009765625</AltitudeMeters>
            <DistanceMeters>13464.730937683</DistanceMeters>
          </Trackpoint>
          <Trackpoint>
            <Time>2022-08-22T06:57:23.000Z</Time>
            <Position>
              <LatitudeDegrees>42.8314247913658618927001953125</LatitudeDegrees>
              <LongitudeDegrees>-0.2855467982590198516845703125</LongitudeDegrees>
            </Position>
            <AltitudeMeters>2707.800048828125</AltitudeMeters>
            <DistanceMeters>13466.088190642</DistanceMeters>
          </Trackpoint>
          <Trackpoint>
            <Time>2022-08-22T06:57:29.000Z</Time>
            <Position>
              <LatitudeDegrees>42.8314502723515033721923828125</LatitudeDegrees>
              <LongitudeDegrees>-0.28551855124533176422119140625</LongitudeDegrees>
            </Position>
            <AltitudeMeters>2707.800048828125</AltitudeMeters>
            <DistanceMeters>13469.743941336</DistanceMeters>
          </Trackpoint>
          <Trackpoint>
            <Time>2022-08-22T06:57:33.000Z</Time>
            <Position>
              <LatitudeDegrees>42.83145069144666194915771484375</LatitudeDegrees>
              <LongitudeDegrees>-0.28555107302963733673095703125</LongitudeDegrees>
            </Position>
            <AltitudeMeters>2708.60009765625</AltitudeMeters>
            <DistanceMeters>13472.397893036</DistanceMeters>
          </Trackpoint>
          <Trackpoint>
            <Time>2022-08-22T06:57:43.000Z</Time>
            <Position>
              <LatitudeDegrees>42.83147935755550861358642578125</LatitudeDegrees>
              <LongitudeDegrees>-0.2856735326349735260009765625</LongitudeDegrees>
            </Position>
            <AltitudeMeters>2711.800048828125</AltitudeMeters>
            <DistanceMeters>13482.889634162</DistanceMeters>
          </Trackpoint>
          <Trackpoint>
            <Time>2022-08-22T06:57:44.000Z</Time>
            <Position>
              <LatitudeDegrees>42.8314911760389804840087890625</LatitudeDegrees>
              <LongitudeDegrees>-0.285662300884723663330078125</LongitudeDegrees>
            </Position>
            <AltitudeMeters>2711.60009765625</AltitudeMeters>
            <DistanceMeters>13484.491052818</DistanceMeters>
          </Trackpoint>
          <Trackpoint>
            <Time>2022-08-22T06:57:46.000Z</Time>
            <Position>
              <LatitudeDegrees>42.83149897120893001556396484375</LatitudeDegrees>
              <LongitudeDegrees>-0.28565349988639354705810546875</LongitudeDegrees>
            </Position>
            <AltitudeMeters>2711.60009765625</AltitudeMeters>
            <DistanceMeters>13485.615424065</DistanceMeters>
          </Trackpoint>
          <Trackpoint>
            <Time>2022-08-22T06:57:50.000Z</Time>
            <Position>
              <LatitudeDegrees>42.83154004253447055816650390625</LatitudeDegrees>
              <LongitudeDegrees>-0.28563891537487506866455078125</LongitudeDegrees>
            </Position>
            <AltitudeMeters>2711.60009765625</AltitudeMeters>
            <DistanceMeters>13490.339121652</DistanceMeters>
          </Trackpoint>
          <Trackpoint>
            <Time>2022-08-22T06:57:54.000Z</Time>
            <Position>
              <LatitudeDegrees>42.8315682895481586456298828125</LatitudeDegrees>
              <LongitudeDegrees>-0.285629443824291229248046875</LongitudeDegrees>
            </Position>
            <AltitudeMeters>2711.60009765625</AltitudeMeters>
            <DistanceMeters>13493.57700966</DistanceMeters>
          </Trackpoint>
          <Trackpoint>
            <Time>2022-08-22T06:57:56.000Z</Time>
            <Position>
              <LatitudeDegrees>42.83159083686769008636474609375</LatitudeDegrees>
              <LongitudeDegrees>-0.285626091063022613525390625</LongitudeDegrees>
            </Position>
            <AltitudeMeters>2711.60009765625</AltitudeMeters>
            <DistanceMeters>13496.100143405</DistanceMeters>
          </Trackpoint>
          <Trackpoint>
            <Time>2022-08-22T06:58:05.000Z</Time>
            <Position>
              <LatitudeDegrees>42.83165973611176013946533203125</LatitudeDegrees>
              <LongitudeDegrees>-0.28566255234181880950927734375</LongitudeDegrees>
            </Position>
            <AltitudeMeters>2713.39990234375</AltitudeMeters>
            <DistanceMeters>13504.326405792</DistanceMeters>
          </Trackpoint>
          <Trackpoint>
            <Time>2022-08-22T06:58:45.000Z</Time>
            <Position>
              <LatitudeDegrees>42.831742130219936370849609375</LatitudeDegrees>
              <LongitudeDegrees>-0.28577738441526889801025390625</LongitudeDegrees>
            </Position>
            <AltitudeMeters>2717.800048828125</AltitudeMeters>
            <DistanceMeters>13517.439748071</DistanceMeters>
          </Trackpoint>
          <Trackpoint>
            <Time>2022-08-22T06:59:04.000Z</Time>
            <Position>
              <LatitudeDegrees>42.83191680908203125</LatitudeDegrees>
              <LongitudeDegrees>-0.28577369637787342071533203125</LongitudeDegrees>
            </Position>
            <AltitudeMeters>2719.60009765625</AltitudeMeters>
            <DistanceMeters>13536.884266597</DistanceMeters>
          </Trackpoint>
          <Trackpoint>
            <Time>2022-08-22T06:59:09.000Z</Time>
            <Position>
              <LatitudeDegrees>42.83195897005498409271240234375</LatitudeDegrees>
              <LongitudeDegrees>-0.28580655343830585479736328125</LongitudeDegrees>
            </Position>
            <AltitudeMeters>2721</AltitudeMeters>
            <DistanceMeters>13542.288271336</DistanceMeters>
          </Trackpoint>
          <Trackpoint>
            <Time>2022-08-22T06:59:21.000Z</Time>
            <Position>
              <LatitudeDegrees>42.83204949460923671722412109375</LatitudeDegrees>
              <LongitudeDegrees>-0.28580211102962493896484375</LongitudeDegrees>
            </Position>
            <AltitudeMeters>2722.199951171875</AltitudeMeters>
            <DistanceMeters>13552.370063858</DistanceMeters>
          </Trackpoint>
          <Trackpoint>
            <Time>2022-08-22T06:59:24.000Z</Time>
            <Position>
              <LatitudeDegrees>42.83206441439688205718994140625</LatitudeDegrees>
              <LongitudeDegrees>-0.285840667784214019775390625</LongitudeDegrees>
            </Position>
            <AltitudeMeters>2723.800048828125</AltitudeMeters>
            <DistanceMeters>13555.929445441</DistanceMeters>
          </Trackpoint>
          <Trackpoint>
            <Time>2022-08-22T06:59:38.000Z</Time>
            <Position>
              <LatitudeDegrees>42.83214840106666088104248046875</LatitudeDegrees>
              <LongitudeDegrees>-0.2859462797641754150390625</LongitudeDegrees>
            </Position>
            <AltitudeMeters>2729.39990234375</AltitudeMeters>
            <DistanceMeters>13568.64563901</DistanceMeters>
          </Trackpoint>
          <Trackpoint>
            <Time>2022-08-22T06:59:41.000Z</Time>
            <Position>
              <LatitudeDegrees>42.8321580402553081512451171875</LatitudeDegrees>
              <LongitudeDegrees>-0.28596706688404083251953125</LongitudeDegrees>
            </Position>
            <AltitudeMeters>2731.39990234375</AltitudeMeters>
            <DistanceMeters>13570.65248083</DistanceMeters>
          </Trackpoint>
          <Trackpoint>
            <Time>2022-08-22T07:00:07.000Z</Time>
            <Position>
              <LatitudeDegrees>42.83217119984328746795654296875</LatitudeDegrees>
              <LongitudeDegrees>-0.2861690707504749298095703125</LongitudeDegrees>
            </Position>
            <AltitudeMeters>2748.199951171875</AltitudeMeters>
            <DistanceMeters>13587.205414393</DistanceMeters>
          </Trackpoint>
          <Trackpoint>
            <Time>2022-08-22T07:00:08.000Z</Time>
            <Position>
              <LatitudeDegrees>42.83217522315680980682373046875</LatitudeDegrees>
              <LongitudeDegrees>-0.286176614463329315185546875</LongitudeDegrees>
            </Position>
            <AltitudeMeters>2749.199951171875</AltitudeMeters>
            <DistanceMeters>13587.965628108</DistanceMeters>
          </Trackpoint>
          <Trackpoint>
            <Time>2022-08-22T07:00:10.000Z</Time>
            <Position>
              <LatitudeDegrees>42.83217958174645900726318359375</LatitudeDegrees>
              <LongitudeDegrees>-0.28618809767067432403564453125</LongitudeDegrees>
            </Position>
            <AltitudeMeters>2750.60009765625</AltitudeMeters>
            <DistanceMeters>13589.015232475</DistanceMeters>
          </Trackpoint>
          <Trackpoint>
            <Time>2022-08-22T07:00:18.000Z</Time>
            <Position>
              <LatitudeDegrees>42.832204811275005340576171875</LatitudeDegrees>
              <LongitudeDegrees>-0.28622833080589771270751953125</LongitudeDegrees>
            </Position>
            <AltitudeMeters>2756.199951171875</AltitudeMeters>
            <DistanceMeters>13593.335552834</DistanceMeters>
          </Trackpoint>
          <Trackpoint>
            <Time>2022-08-22T07:00:38.000Z</Time>
            <Position>
              <LatitudeDegrees>42.83220489509403705596923828125</LatitudeDegrees>
              <LongitudeDegrees>-0.2863564901053905487060546875</LongitudeDegrees>
            </Position>
            <AltitudeMeters>2767</AltitudeMeters>
            <DistanceMeters>13603.796263439</DistanceMeters>
          </Trackpoint>
          <Trackpoint>
            <Time>2022-08-22T07:01:14.000Z</Time>
            <Position>
              <LatitudeDegrees>42.83217706717550754547119140625</LatitudeDegrees>
              <LongitudeDegrees>-0.2865690551698207855224609375</LongitudeDegrees>
            </Position>
            <AltitudeMeters>2773</AltitudeMeters>
            <DistanceMeters>13621.421093358</DistanceMeters>
          </Trackpoint>
          <Trackpoint>
            <Time>2022-08-22T07:01:51.000Z</Time>
            <Position>
              <LatitudeDegrees>42.83222015015780925750732421875</LatitudeDegrees>
              <LongitudeDegrees>-0.28679586946964263916015625</LongitudeDegrees>
            </Position>
            <AltitudeMeters>2781.199951171875</AltitudeMeters>
            <DistanceMeters>13640.545322914</DistanceMeters>
          </Trackpoint>
          <Trackpoint>
            <Time>2022-08-22T07:02:07.000Z</Time>
            <Position>
              <LatitudeDegrees>42.83226189203560352325439453125</LatitudeDegrees>
              <LongitudeDegrees>-0.286819003522396087646484375</LongitudeDegrees>
            </Position>
            <AltitudeMeters>2784.800048828125</AltitudeMeters>
            <DistanceMeters>13645.561077391</DistanceMeters>
          </Trackpoint>
          <Trackpoint>
            <Time>2022-08-22T07:02:53.000Z</Time>
            <Position>
              <LatitudeDegrees>42.8323246724903583526611328125</LatitudeDegrees>
              <LongitudeDegrees>-0.28703751973807811737060546875</LongitudeDegrees>
            </Position>
            <AltitudeMeters>2788.60009765625</AltitudeMeters>
            <DistanceMeters>13664.716916876</DistanceMeters>
          </Trackpoint>
          <Trackpoint>
            <Time>2022-08-22T07:03:04.000Z</Time>
            <Position>
              <LatitudeDegrees>42.83234470523893833160400390625</LatitudeDegrees>
              <LongitudeDegrees>-0.28701178729534149169921875</LongitudeDegrees>
            </Position>
            <AltitudeMeters>2789.39990234375</AltitudeMeters>
            <DistanceMeters>13667.778488262</DistanceMeters>
          </Trackpoint>
          <Trackpoint>
            <Time>2022-08-22T07:03:54.000Z</Time>
            <Position>
              <LatitudeDegrees>42.8323726169764995574951171875</LatitudeDegrees>
              <LongitudeDegrees>-0.286924950778484344482421875</LongitudeDegrees>
            </Position>
            <AltitudeMeters>2791</AltitudeMeters>
            <DistanceMeters>13675.51718757</DistanceMeters>
          </Trackpoint>
          <Trackpoint>
            <Time>2022-08-22T07:04:07.000Z</Time>
            <Position>
              <LatitudeDegrees>42.83228301443159580230712890625</LatitudeDegrees>
              <LongitudeDegrees>-0.28682646341621875762939453125</LongitudeDegrees>
            </Position>
            <AltitudeMeters>2786.60009765625</AltitudeMeters>
            <DistanceMeters>13688.32642209</DistanceMeters>
          </Trackpoint>
          <Trackpoint>
            <Time>2022-08-22T07:04:13.000Z</Time>
            <Position>
              <LatitudeDegrees>42.83226122148334980010986328125</LatitudeDegrees>
              <LongitudeDegrees>-0.2867819555103778839111328125</LongitudeDegrees>
            </Position>
            <AltitudeMeters>2784.199951171875</AltitudeMeters>
            <DistanceMeters>13692.694551154</DistanceMeters>
          </Trackpoint>
          <Trackpoint>
            <Time>2022-08-22T07:04:24.000Z</Time>
            <Position>
              <LatitudeDegrees>42.83228494226932525634765625</LatitudeDegrees>
              <LongitudeDegrees>-0.28665262274444103240966796875</LongitudeDegrees>
            </Position>
            <AltitudeMeters>2784.39990234375</AltitudeMeters>
            <DistanceMeters>13703.575836112</DistanceMeters>
          </Trackpoint>
          <Trackpoint>
            <Time>2022-08-22T07:04:26.000Z</Time>
            <Position>
              <LatitudeDegrees>42.83228552900254726409912109375</LatitudeDegrees>
              <LongitudeDegrees>-0.28664105571806430816650390625</LongitudeDegrees>
            </Position>
            <AltitudeMeters>2784.199951171875</AltitudeMeters>
            <DistanceMeters>13704.526103256</DistanceMeters>
          </Trackpoint>
          <Trackpoint>
            <Time>2022-08-22T07:04:28.000Z</Time>
            <Position>
              <LatitudeDegrees>42.8322780691087245941162109375</LatitudeDegrees>
              <LongitudeDegrees>-0.2866032533347606658935546875</LongitudeDegrees>
            </Position>
            <AltitudeMeters>2782.800048828125</AltitudeMeters>
            <DistanceMeters>13707.721884296</DistanceMeters>
          </Trackpoint>
          <Trackpoint>
            <Time>2022-08-22T07:04:34.000Z</Time>
            <Position>
              <LatitudeDegrees>42.83230061642825603485107421875</LatitudeDegrees>
              <LongitudeDegrees>-0.2865229547023773193359375</LongitudeDegrees>
            </Position>
            <AltitudeMeters>2781.199951171875</AltitudeMeters>
            <DistanceMeters>13714.739721351</DistanceMeters>
          </Trackpoint>
          <Trackpoint>
            <Time>2022-08-22T07:04:36.000Z</Time>
            <Position>
              <LatitudeDegrees>42.832306735217571258544921875</LatitudeDegrees>
              <LongitudeDegrees>-0.28650510124862194061279296875</LongitudeDegrees>
            </Position>
            <AltitudeMeters>2781</AltitudeMeters>
            <DistanceMeters>13716.343956928</DistanceMeters>
          </Trackpoint>
          <Trackpoint>
            <Time>2022-08-22T07:04:39.000Z</Time>
            <Position>
              <LatitudeDegrees>42.8323179669678211212158203125</LatitudeDegrees>
              <LongitudeDegrees>-0.28646034188568592071533203125</LongitudeDegrees>
            </Position>
            <AltitudeMeters>2779.60009765625</AltitudeMeters>
            <DistanceMeters>13720.206299</DistanceMeters>
          </Trackpoint>
          <Trackpoint>
            <Time>2022-08-22T07:04:40.000Z</Time>
            <Position>
              <LatitudeDegrees>42.832324840128421783447265625</LatitudeDegrees>
              <LongitudeDegrees>-0.2864426560699939727783203125</LongitudeDegrees>
            </Position>
            <AltitudeMeters>2779</AltitudeMeters>
            <DistanceMeters>13721.841200413</DistanceMeters>
          </Trackpoint>
          <Trackpoint>
            <Time>2022-08-22T07:04:41.000Z</Time>
            <Position>
              <LatitudeDegrees>42.83234084956347942352294921875</LatitudeDegrees>
              <LongitudeDegrees>-0.2864037640392780303955078125</LongitudeDegrees>
            </Position>
            <AltitudeMeters>2777.199951171875</AltitudeMeters>
            <DistanceMeters>13725.482100331</DistanceMeters>
          </Trackpoint>
          <Trackpoint>
            <Time>2022-08-22T07:04:42.000Z</Time>
            <Position>
              <LatitudeDegrees>42.83234084956347942352294921875</LatitudeDegrees>
              <LongitudeDegrees>-0.2864037640392780303955078125</LongitudeDegrees>
            </Position>
            <AltitudeMeters>2777.199951171875</AltitudeMeters>
            <DistanceMeters>13725.577127046</DistanceMeters>
          </Trackpoint>
          <Trackpoint>
            <Time>2022-08-22T07:04:43.000Z</Time>
            <Position>
              <LatitudeDegrees>42.83234604634344577789306640625</LatitudeDegrees>
              <LongitudeDegrees>-0.2863940410315990447998046875</LongitudeDegrees>
            </Position>
            <AltitudeMeters>2776.800048828125</AltitudeMeters>
            <DistanceMeters>13726.560091023</DistanceMeters>
          </Trackpoint>
          <Trackpoint>
            <Time>2022-08-22T07:04:45.000Z</Time>
            <Position>
              <LatitudeDegrees>42.83234260976314544677734375</LatitudeDegrees>
              <LongitudeDegrees>-0.286379791796207427978515625</LongitudeDegrees>
            </Position>
            <AltitudeMeters>2776.199951171875</AltitudeMeters>
            <DistanceMeters>13727.784424592</DistanceMeters>
          </Trackpoint>
          <Trackpoint>
            <Time>2022-08-22T07:04:47.000Z</Time>
            <Position>
              <LatitudeDegrees>42.832336239516735076904296875</LatitudeDegrees>
              <LongitudeDegrees>-0.28637350536882877349853515625</LongitudeDegrees>
            </Position>
            <AltitudeMeters>2776</AltitudeMeters>
            <DistanceMeters>13728.655358815</DistanceMeters>
          </Trackpoint>
          <Trackpoint>
            <Time>2022-08-22T07:04:49.000Z</Time>
            <Position>
              <LatitudeDegrees>42.83233045600354671478271484375</LatitudeDegrees>
              <LongitudeDegrees>-0.28636244125664234161376953125</LongitudeDegrees>
            </Position>
            <AltitudeMeters>2775.39990234375</AltitudeMeters>
            <DistanceMeters>13729.763551216</DistanceMeters>
          </Trackpoint>
          <Trackpoint>
            <Time>2022-08-22T07:04:50.000Z</Time>
            <Position>
              <LatitudeDegrees>42.83232475630939006805419921875</LatitudeDegrees>
              <LongitudeDegrees>-0.2863531373441219329833984375</LongitudeDegrees>
            </Position>
            <AltitudeMeters>2775</AltitudeMeters>
            <DistanceMeters>13730.7510978</DistanceMeters>
          </Trackpoint>
          <Trackpoint>
            <Time>2022-08-22T07:04:52.000Z</Time>
            <Position>
              <LatitudeDegrees>42.83231151290237903594970703125</LatitudeDegrees>
              <LongitudeDegrees>-0.2863313443958759307861328125</LongitudeDegrees>
            </Position>
            <AltitudeMeters>2773.800048828125</AltitudeMeters>
            <DistanceMeters>13733.06319755</DistanceMeters>
          </Trackpoint>
          <Trackpoint>
            <Time>2022-08-22T07:04:55.000Z</Time>
            <Position>
              <LatitudeDegrees>42.832294665277004241943359375</LatitudeDegrees>
              <LongitudeDegrees>-0.28631717897951602935791015625</LongitudeDegrees>
            </Position>
            <AltitudeMeters>2771.39990234375</AltitudeMeters>
            <DistanceMeters>13735.265276352</DistanceMeters>
          </Trackpoint>
          <Trackpoint>
            <Time>2022-08-22T07:04:56.000Z</Time>
            <Position>
              <LatitudeDegrees>42.8322901390492916107177734375</LatitudeDegrees>
              <LongitudeDegrees>-0.286315418779850006103515625</LongitudeDegrees>
            </Position>
            <AltitudeMeters>2770.800048828125</AltitudeMeters>
            <DistanceMeters>13735.785759103</DistanceMeters>
          </Trackpoint>
          <Trackpoint>
            <Time>2022-08-22T07:04:59.000Z</Time>
            <Position>
              <LatitudeDegrees>42.83228200860321521759033203125</LatitudeDegrees>
              <LongitudeDegrees>-0.28630024753510951995849609375</LongitudeDegrees>
            </Position>
            <AltitudeMeters>2768.800048828125</AltitudeMeters>
            <DistanceMeters>13737.320962656</DistanceMeters>
          </Trackpoint>
          <Trackpoint>
            <Time>2022-08-22T07:05:02.000Z</Time>
            <Position>
              <LatitudeDegrees>42.83226675353944301605224609375</LatitudeDegrees>
              <LongitudeDegrees>-0.28628884814679622650146484375</LongitudeDegrees>
            </Position>
            <AltitudeMeters>2766.60009765625</AltitudeMeters>
            <DistanceMeters>13739.254470259</DistanceMeters>
          </Trackpoint>
          <Trackpoint>
            <Time>2022-08-22T07:05:07.000Z</Time>
            <Position>
              <LatitudeDegrees>42.8322371654212474822998046875</LatitudeDegrees>
              <LongitudeDegrees>-0.286295972764492034912109375</LongitudeDegrees>
            </Position>
            <AltitudeMeters>2765.199951171875</AltitudeMeters>
            <DistanceMeters>13742.599356612</DistanceMeters>
          </Trackpoint>
          <Trackpoint>
            <Time>2022-08-22T07:05:10.000Z</Time>
            <Position>
              <LatitudeDegrees>42.83222702331840991973876953125</LatitudeDegrees>
              <LongitudeDegrees>-0.28628222644329071044921875</LongitudeDegrees>
            </Position>
            <AltitudeMeters>2763.199951171875</AltitudeMeters>
            <DistanceMeters>13744.189457679</DistanceMeters>
          </Trackpoint>
          <Trackpoint>
            <Time>2022-08-22T07:05:16.000Z</Time>
            <Position>
              <LatitudeDegrees>42.83223909325897693634033203125</LatitudeDegrees>
              <LongitudeDegrees>-0.28624962083995342254638671875</LongitudeDegrees>
            </Position>
            <AltitudeMeters>2760.800048828125</AltitudeMeters>
            <DistanceMeters>13747.170329233</DistanceMeters>
          </Trackpoint>
          <Trackpoint>
            <Time>2022-08-22T07:05:28.000Z</Time>
            <Position>
              <LatitudeDegrees>42.83231788314878940582275390625</LatitudeDegrees>
              <LongitudeDegrees>-0.286189019680023193359375</LongitudeDegrees>
            </Position>
            <AltitudeMeters>2760.39990234375</AltitudeMeters>
            <DistanceMeters>13757.238677566</DistanceMeters>
          </Trackpoint>
          <Trackpoint>
            <Time>2022-08-22T07:05:32.000Z</Time>
            <Position>
              <LatitudeDegrees>42.832348980009555816650390625</LatitudeDegrees>
              <LongitudeDegrees>-0.28617627918720245361328125</LongitudeDegrees>
            </Position>
            <AltitudeMeters>2759.60009765625</AltitudeMeters>
            <DistanceMeters>13760.85344182</DistanceMeters>
          </Trackpoint>
          <Trackpoint>
            <Time>2022-08-22T07:05:33.000Z</Time>
            <Position>
              <LatitudeDegrees>42.83236079849302768707275390625</LatitudeDegrees>
              <LongitudeDegrees>-0.28617116622626781463623046875</LongitudeDegrees>
            </Position>
            <AltitudeMeters>2759.199951171875</AltitudeMeters>
            <DistanceMeters>13762.233784578</DistanceMeters>
          </Trackpoint>
          <Trackpoint>
            <Time>2022-08-22T07:05:34.000Z</Time>
            <Position>
              <LatitudeDegrees>42.832365743815898895263671875</LatitudeDegrees>
              <LongitudeDegrees>-0.2861663885414600372314453125</LongitudeDegrees>
            </Position>
            <AltitudeMeters>2758.800048828125</AltitudeMeters>
            <DistanceMeters>13762.912411058</DistanceMeters>
          </Trackpoint>
          <Trackpoint>
            <Time>2022-08-22T07:05:36.000Z</Time>
            <Position>
              <LatitudeDegrees>42.83237957395613193511962890625</LatitudeDegrees>
              <LongitudeDegrees>-0.28615557588636875152587890625</LongitudeDegrees>
            </Position>
            <AltitudeMeters>2758</AltitudeMeters>
            <DistanceMeters>13764.685111428</DistanceMeters>
          </Trackpoint>
          <Trackpoint>
            <Time>2022-08-22T07:05:53.000Z</Time>
            <Position>
              <LatitudeDegrees>42.83252625726163387298583984375</LatitudeDegrees>
              <LongitudeDegrees>-0.28611551038920879364013671875</LongitudeDegrees>
            </Position>
            <AltitudeMeters>2756.199951171875</AltitudeMeters>
            <DistanceMeters>13781.335136858</DistanceMeters>
          </Trackpoint>
          <Trackpoint>
            <Time>2022-08-22T07:06:02.000Z</Time>
            <Position>
              <LatitudeDegrees>42.83263371326029300689697265625</LatitudeDegrees>
              <LongitudeDegrees>-0.28609841130673885345458984375</LongitudeDegrees>
            </Position>
            <AltitudeMeters>2754.39990234375</AltitudeMeters>
            <DistanceMeters>13793.376562748</DistanceMeters>
          </Trackpoint>
          <Trackpoint>
            <Time>2022-08-22T07:06:07.000Z</Time>
            <Position>
              <LatitudeDegrees>42.8326700069010257720947265625</LatitudeDegrees>
              <LongitudeDegrees>-0.2861050330102443695068359375</LongitudeDegrees>
            </Position>
            <AltitudeMeters>2754.39990234375</AltitudeMeters>
            <DistanceMeters>13797.450538755</DistanceMeters>
          </Trackpoint>
          <Trackpoint>
            <Time>2022-08-22T07:06:10.000Z</Time>
            <Position>
              <LatitudeDegrees>42.83268190920352935791015625</LatitudeDegrees>
              <LongitudeDegrees>-0.28609572909772396087646484375</LongitudeDegrees>
            </Position>
            <AltitudeMeters>2753.60009765625</AltitudeMeters>
            <DistanceMeters>13798.9768938</DistanceMeters>
          </Trackpoint>
          <Trackpoint>
            <Time>2022-08-22T07:06:23.000Z</Time>
            <Position>
              <LatitudeDegrees>42.8327642194926738739013671875</LatitudeDegrees>
              <LongitudeDegrees>-0.28616555035114288330078125</LongitudeDegrees>
            </Position>
            <AltitudeMeters>2758.60009765625</AltitudeMeters>
            <DistanceMeters>13809.766088183</DistanceMeters>
          </Trackpoint>
          <Trackpoint>
            <Time>2022-08-22T07:06:52.000Z</Time>
            <Position>
              <LatitudeDegrees>42.8329405747354030609130859375</LatitudeDegrees>
              <LongitudeDegrees>-0.28609354980289936065673828125</LongitudeDegrees>
            </Position>
            <AltitudeMeters>2755</AltitudeMeters>
            <DistanceMeters>13830.255751773</DistanceMeters>
          </Trackpoint>
          <Trackpoint>
            <Time>2022-08-22T07:07:20.000Z</Time>
            <Position>
              <LatitudeDegrees>42.83310678787529468536376953125</LatitudeDegrees>
              <LongitudeDegrees>-0.28600017540156841278076171875</LongitudeDegrees>
            </Position>
            <AltitudeMeters>2754.39990234375</AltitudeMeters>
            <DistanceMeters>13850.263783883</DistanceMeters>
          </Trackpoint>
          <Trackpoint>
            <Time>2022-08-22T07:07:50.000Z</Time>
            <Position>
              <LatitudeDegrees>42.83319287002086639404296875</LatitudeDegrees>
              <LongitudeDegrees>-0.2860616147518157958984375</LongitudeDegrees>
            </Position>
            <AltitudeMeters>2761.39990234375</AltitudeMeters>
            <DistanceMeters>13861.07764027</DistanceMeters>
          </Trackpoint>
          <Trackpoint>
            <Time>2022-08-22T07:08:19.000Z</Time>
            <Position>
              <LatitudeDegrees>42.83331717364490032196044921875</LatitudeDegrees>
              <LongitudeDegrees>-0.28618290089070796966552734375</LongitudeDegrees>
            </Position>
            <AltitudeMeters>2776</AltitudeMeters>
            <DistanceMeters>13878.089810914</DistanceMeters>
          </Trackpoint>
          <Trackpoint>
            <Time>2022-08-22T07:08:41.000Z</Time>
            <Position>
              <LatitudeDegrees>42.83336461521685123443603515625</LatitudeDegrees>
              <LongitudeDegrees>-0.28628893196582794189453125</LongitudeDegrees>
            </Position>
            <AltitudeMeters>2779.60009765625</AltitudeMeters>
            <DistanceMeters>13888.227874343</DistanceMeters>
          </Trackpoint>
          <Trackpoint>
            <Time>2022-08-22T07:08:44.000Z</Time>
            <Position>
              <LatitudeDegrees>42.83335790969431400299072265625</LatitudeDegrees>
              <LongitudeDegrees>-0.28629773296415805816650390625</LongitudeDegrees>
            </Position>
            <AltitudeMeters>2780</AltitudeMeters>
            <DistanceMeters>13889.260128682</DistanceMeters>
          </Trackpoint>
          <Trackpoint>
            <Time>2022-08-22T07:08:48.000Z</Time>
            <Position>
              <LatitudeDegrees>42.8333630226552486419677734375</LatitudeDegrees>
              <LongitudeDegrees>-0.2862989902496337890625</LongitudeDegrees>
            </Position>
            <AltitudeMeters>2780</AltitudeMeters>
            <DistanceMeters>13889.830288968</DistanceMeters>
          </Trackpoint>
          <Trackpoint>
            <Time>2022-08-22T07:08:52.000Z</Time>
            <Position>
              <LatitudeDegrees>42.83336495049297809600830078125</LatitudeDegrees>
              <LongitudeDegrees>-0.2863293327391147613525390625</LongitudeDegrees>
            </Position>
            <AltitudeMeters>2781.39990234375</AltitudeMeters>
            <DistanceMeters>13892.315560037</DistanceMeters>
          </Trackpoint>
          <Trackpoint>
            <Time>2022-08-22T07:08:59.000Z</Time>
            <Position>
              <LatitudeDegrees>42.8333921916782855987548828125</LatitudeDegrees>
              <LongitudeDegrees>-0.286365039646625518798828125</LongitudeDegrees>
            </Position>
            <AltitudeMeters>2783.199951171875</AltitudeMeters>
            <DistanceMeters>13896.521498666</DistanceMeters>
          </Trackpoint>
          <Trackpoint>
            <Time>2022-08-22T07:09:05.000Z</Time>
            <Position>
              <LatitudeDegrees>42.8334223665297031402587890625</LatitudeDegrees>
              <LongitudeDegrees>-0.28639596886932849884033203125</LongitudeDegrees>
            </Position>
            <AltitudeMeters>2784</AltitudeMeters>
            <DistanceMeters>13900.723141137</DistanceMeters>
          </Trackpoint>
          <Trackpoint>
            <Time>2022-08-22T07:09:13.000Z</Time>
            <Position>
              <LatitudeDegrees>42.83345513977110385894775390625</LatitudeDegrees>
              <LongitudeDegrees>-0.2864382974803447723388671875</LongitudeDegrees>
            </Position>
            <AltitudeMeters>2786.800048828125</AltitudeMeters>
            <DistanceMeters>13905.747889263</DistanceMeters>
          </Trackpoint>
          <Trackpoint>
            <Time>2022-08-22T07:09:22.000Z</Time>
            <Position>
              <LatitudeDegrees>42.8335018269717693328857421875</LatitudeDegrees>
              <LongitudeDegrees>-0.2864855714142322540283203125</LongitudeDegrees>
            </Position>
            <AltitudeMeters>2790.60009765625</AltitudeMeters>
            <DistanceMeters>13912.220178242</DistanceMeters>
          </Trackpoint>
          <Trackpoint>
            <Time>2022-08-22T07:09:38.000Z</Time>
            <Position>
              <LatitudeDegrees>42.83359126187860965728759765625</LatitudeDegrees>
              <LongitudeDegrees>-0.28647878207266330718994140625</LongitudeDegrees>
            </Position>
            <AltitudeMeters>2791.199951171875</AltitudeMeters>
            <DistanceMeters>13922.190287644</DistanceMeters>
          </Trackpoint>
          <Trackpoint>
            <Time>2022-08-22T07:10:03.000Z</Time>
            <Position>
              <LatitudeDegrees>42.83375923521816730499267578125</LatitudeDegrees>
              <LongitudeDegrees>-0.28640904463827610015869140625</LongitudeDegrees>
            </Position>
            <AltitudeMeters>2790.199951171875</AltitudeMeters>
            <DistanceMeters>13941.733473497</DistanceMeters>
          </Trackpoint>
          <Trackpoint>
            <Time>2022-08-22T07:10:14.000Z</Time>
            <Position>
              <LatitudeDegrees>42.83380843698978424072265625</LatitudeDegrees>
              <LongitudeDegrees>-0.286446176469326019287109375</LongitudeDegrees>
            </Position>
            <AltitudeMeters>2792.800048828125</AltitudeMeters>
            <DistanceMeters>13947.992265043</DistanceMeters>
          </Trackpoint>
          <Trackpoint>
            <Time>2022-08-22T07:10:52.000Z</Time>
            <Position>
              <LatitudeDegrees>42.83396140672266483306884765625</LatitudeDegrees>
              <LongitudeDegrees>-0.2864359505474567413330078125</LongitudeDegrees>
            </Position>
            <AltitudeMeters>2796.60009765625</AltitudeMeters>
            <DistanceMeters>13965.038373098</DistanceMeters>
          </Trackpoint>
          <Trackpoint>
            <Time>2022-08-22T07:11:07.000Z</Time>
            <Position>
              <LatitudeDegrees>42.83399426378309726715087890625</LatitudeDegrees>
              <LongitudeDegrees>-0.2864996530115604400634765625</LongitudeDegrees>
            </Position>
            <AltitudeMeters>2799.199951171875</AltitudeMeters>
            <DistanceMeters>13971.395937267</DistanceMeters>
          </Trackpoint>
          <Trackpoint>
            <Time>2022-08-22T07:11:54.000Z</Time>
            <Position>
              <LatitudeDegrees>42.8340355865657329559326171875</LatitudeDegrees>
              <LongitudeDegrees>-0.2867078594863414764404296875</LongitudeDegrees>
            </Position>
            <AltitudeMeters>2804.39990234375</AltitudeMeters>
            <DistanceMeters>13989.001543588</DistanceMeters>
          </Trackpoint>
          <Trackpoint>
            <Time>2022-08-22T07:12:03.000Z</Time>
            <Position>
              <LatitudeDegrees>42.8340503387153148651123046875</LatitudeDegrees>
              <LongitudeDegrees>-0.28680198825895786285400390625</LongitudeDegrees>
            </Position>
            <AltitudeMeters>2806</AltitudeMeters>
            <DistanceMeters>13996.858362446</DistanceMeters>
          </Trackpoint>
          <Trackpoint>
            <Time>2022-08-22T07:12:04.000Z</Time>
            <Position>
              <LatitudeDegrees>42.834056876599788665771484375</LatitudeDegrees>
              <LongitudeDegrees>-0.286823697388172149658203125</LongitudeDegrees>
            </Position>
            <AltitudeMeters>2806.39990234375</AltitudeMeters>
            <DistanceMeters>13998.775454283</DistanceMeters>
          </Trackpoint>
          <Trackpoint>
            <Time>2022-08-22T07:12:08.000Z</Time>
            <Position>
              <LatitudeDegrees>42.834072299301624298095703125</LatitudeDegrees>
              <LongitudeDegrees>-0.28685278259217739105224609375</LongitudeDegrees>
            </Position>
            <AltitudeMeters>2807</AltitudeMeters>
            <DistanceMeters>14001.705915458</DistanceMeters>
          </Trackpoint>
          <Trackpoint>
            <Time>2022-08-22T07:12:21.000Z</Time>
            <Position>
              <LatitudeDegrees>42.834140025079250335693359375</LatitudeDegrees>
              <LongitudeDegrees>-0.28694414533674716949462890625</LongitudeDegrees>
            </Position>
            <AltitudeMeters>2809.199951171875</AltitudeMeters>
            <DistanceMeters>14012.308955198</DistanceMeters>
          </Trackpoint>
          <Trackpoint>
            <Time>2022-08-22T07:12:23.000Z</Time>
            <Position>
              <LatitudeDegrees>42.83415016718208789825439453125</LatitudeDegrees>
              <LongitudeDegrees>-0.28695738874375820159912109375</LongitudeDegrees>
            </Position>
            <AltitudeMeters>2809.39990234375</AltitudeMeters>
            <DistanceMeters>14013.876175921</DistanceMeters>
          </Trackpoint>
          <Trackpoint>
            <Time>2022-08-22T07:12:27.000Z</Time>
            <Position>
              <LatitudeDegrees>42.834169864654541015625</LatitudeDegrees>
              <LongitudeDegrees>-0.2869856357574462890625</LongitudeDegrees>
            </Position>
            <AltitudeMeters>2810.199951171875</AltitudeMeters>
            <DistanceMeters>14017.059216255</DistanceMeters>
          </Trackpoint>
          <Trackpoint>
            <Time>2022-08-22T07:12:28.000Z</Time>
            <Position>
              <LatitudeDegrees>42.8341743908822536468505859375</LatitudeDegrees>
              <LongitudeDegrees>-0.286987982690334320068359375</LongitudeDegrees>
            </Position>
            <AltitudeMeters>2810.39990234375</AltitudeMeters>
            <DistanceMeters>14017.596768528</DistanceMeters>
          </Trackpoint>
          <Trackpoint>
            <Time>2022-08-22T07:12:36.000Z</Time>
            <Position>
              <LatitudeDegrees>42.83419744111597537994384765625</LatitudeDegrees>
              <LongitudeDegrees>-0.28700550086796283721923828125</LongitudeDegrees>
            </Position>
            <AltitudeMeters>2811.199951171875</AltitudeMeters>
            <DistanceMeters>14020.533386141</DistanceMeters>
          </Trackpoint>
          <Trackpoint>
            <Time>2022-08-22T07:12:52.000Z</Time>
            <Position>
              <LatitudeDegrees>42.83423583023250102996826171875</LatitudeDegrees>
              <LongitudeDegrees>-0.2871279604732990264892578125</LongitudeDegrees>
            </Position>
            <AltitudeMeters>2814.800048828125</AltitudeMeters>
            <DistanceMeters>14031.403046678</DistanceMeters>
          </Trackpoint>
          <Trackpoint>
            <Time>2022-08-22T07:12:57.000Z</Time>
            <Position>
              <LatitudeDegrees>42.8342424519360065460205078125</LatitudeDegrees>
              <LongitudeDegrees>-0.2871564589440822601318359375</LongitudeDegrees>
            </Position>
            <AltitudeMeters>2815.39990234375</AltitudeMeters>
            <DistanceMeters>14033.842477017</DistanceMeters>
          </Trackpoint>
          <Trackpoint>
            <Time>2022-08-22T07:13:01.000Z</Time>
            <Position>
              <LatitudeDegrees>42.8342364169657230377197265625</LatitudeDegrees>
              <LongitudeDegrees>-0.28717934153974056243896484375</LongitudeDegrees>
            </Position>
            <AltitudeMeters>2816.39990234375</AltitudeMeters>
            <DistanceMeters>14035.826693066</DistanceMeters>
          </Trackpoint>
          <Trackpoint>
            <Time>2022-08-22T07:13:02.000Z</Time>
            <Position>
              <LatitudeDegrees>42.83423717133700847625732421875</LatitudeDegrees>
              <LongitudeDegrees>-0.28718654997646808624267578125</LongitudeDegrees>
            </Position>
            <AltitudeMeters>2816.800048828125</AltitudeMeters>
            <DistanceMeters>14036.420134707</DistanceMeters>
          </Trackpoint>
          <Trackpoint>
            <Time>2022-08-22T07:13:03.000Z</Time>
            <Position>
              <LatitudeDegrees>42.834239266812801361083984375</LatitudeDegrees>
              <LongitudeDegrees>-0.28719283640384674072265625</LongitudeDegrees>
            </Position>
            <AltitudeMeters>2817</AltitudeMeters>
            <DistanceMeters>14036.982320331</DistanceMeters>
          </Trackpoint>
          <Trackpoint>
            <Time>2022-08-22T07:13:06.000Z</Time>
            <Position>
              <LatitudeDegrees>42.83423834480345249176025390625</LatitudeDegrees>
              <LongitudeDegrees>-0.287215970456600189208984375</LongitudeDegrees>
            </Position>
            <AltitudeMeters>2817.39990234375</AltitudeMeters>
            <DistanceMeters>14038.87332807</DistanceMeters>
          </Trackpoint>
          <Trackpoint>
            <Time>2022-08-22T07:13:07.000Z</Time>
            <Position>
              <LatitudeDegrees>42.8342384286224842071533203125</LatitudeDegrees>
              <LongitudeDegrees>-0.287226699292659759521484375</LongitudeDegrees>
            </Position>
            <AltitudeMeters>2817.60009765625</AltitudeMeters>
            <DistanceMeters>14039.744262294</DistanceMeters>
          </Trackpoint>
          <Trackpoint>
            <Time>2022-08-22T07:13:12.000Z</Time>
            <Position>
              <LatitudeDegrees>42.834236584603786468505859375</LatitudeDegrees>
              <LongitudeDegrees>-0.2872721292078495025634765625</LongitudeDegrees>
            </Position>
            <AltitudeMeters>2818.60009765625</AltitudeMeters>
            <DistanceMeters>14043.456390612</DistanceMeters>
          </Trackpoint>
          <Trackpoint>
            <Time>2022-08-22T07:13:13.000Z</Time>
            <Position>
              <LatitudeDegrees>42.834235914051532745361328125</LatitudeDegrees>
              <LongitudeDegrees>-0.28728428296744823455810546875</LongitudeDegrees>
            </Position>
            <AltitudeMeters>2819</AltitudeMeters>
            <DistanceMeters>14044.453039201</DistanceMeters>
          </Trackpoint>
          <Trackpoint>
            <Time>2022-08-22T07:13:14.000Z</Time>
            <Position>
              <LatitudeDegrees>42.834235914051532745361328125</LatitudeDegrees>
              <LongitudeDegrees>-0.28728428296744823455810546875</LongitudeDegrees>
            </Position>
            <AltitudeMeters>2819</AltitudeMeters>
            <DistanceMeters>14044.548065915</DistanceMeters>
          </Trackpoint>
          <Trackpoint>
            <Time>2022-08-22T07:13:17.000Z</Time>
            <Position>
              <LatitudeDegrees>42.83423247747123241424560546875</LatitudeDegrees>
              <LongitudeDegrees>-0.28729149140417575836181640625</LongitudeDegrees>
            </Position>
            <AltitudeMeters>2819.199951171875</AltitudeMeters>
            <DistanceMeters>14045.246366801</DistanceMeters>
          </Trackpoint>
          <Trackpoint>
            <Time>2022-08-22T07:13:18.000Z</Time>
            <Position>
              <LatitudeDegrees>42.83423130400478839874267578125</LatitudeDegrees>
              <LongitudeDegrees>-0.2872982807457447052001953125</LongitudeDegrees>
            </Position>
            <AltitudeMeters>2819.39990234375</AltitudeMeters>
            <DistanceMeters>14045.816527088</DistanceMeters>
          </Trackpoint>
          <Trackpoint>
            <Time>2022-08-22T07:13:25.000Z</Time>
            <Position>
              <LatitudeDegrees>42.8342417813837528228759765625</LatitudeDegrees>
              <LongitudeDegrees>-0.28733256272971630096435546875</LongitudeDegrees>
            </Position>
            <AltitudeMeters>2820</AltitudeMeters>
            <DistanceMeters>14048.846970577</DistanceMeters>
          </Trackpoint>
          <Trackpoint>
            <Time>2022-08-22T07:13:32.000Z</Time>
            <Position>
              <LatitudeDegrees>42.83428679220378398895263671875</LatitudeDegrees>
              <LongitudeDegrees>-0.2873569540679454803466796875</LongitudeDegrees>
            </Position>
            <AltitudeMeters>2820.199951171875</AltitudeMeters>
            <DistanceMeters>14054.237590764</DistanceMeters>
          </Trackpoint>
          <Trackpoint>
            <Time>2022-08-22T07:13:39.000Z</Time>
            <Position>
              <LatitudeDegrees>42.834337167441844940185546875</LatitudeDegrees>
              <LongitudeDegrees>-0.287360809743404388427734375</LongitudeDegrees>
            </Position>
            <AltitudeMeters>2820.199951171875</AltitudeMeters>
            <DistanceMeters>14059.853018347</DistanceMeters>
          </Trackpoint>
          <Trackpoint>
            <Time>2022-08-22T07:13:40.000Z</Time>
            <Position>
              <LatitudeDegrees>42.8343403525650501251220703125</LatitudeDegrees>
              <LongitudeDegrees>-0.28735318221151828765869140625</LongitudeDegrees>
            </Position>
            <AltitudeMeters>2820.199951171875</AltitudeMeters>
            <DistanceMeters>14060.570454307</DistanceMeters>
          </Trackpoint>
          <Trackpoint>
            <Time>2022-08-22T07:13:41.000Z</Time>
            <Position>
              <LatitudeDegrees>42.8343403525650501251220703125</LatitudeDegrees>
              <LongitudeDegrees>-0.28735318221151828765869140625</LongitudeDegrees>
            </Position>
            <AltitudeMeters>2820.199951171875</AltitudeMeters>
            <DistanceMeters>14060.570454307</DistanceMeters>
          </Trackpoint>
          <Trackpoint>
            <Time>2022-08-22T07:13:42.000Z</Time>
            <Position>
              <LatitudeDegrees>42.83434194512665271759033203125</LatitudeDegrees>
              <LongitudeDegrees>-0.28735284693539142608642578125</LongitudeDegrees>
            </Position>
            <AltitudeMeters>2820</AltitudeMeters>
            <DistanceMeters>14060.760507736</DistanceMeters>
          </Trackpoint>
          <Trackpoint>
            <Time>2022-08-22T07:13:47.000Z</Time>
            <Position>
              <LatitudeDegrees>42.83433741889894008636474609375</LatitudeDegrees>
              <LongitudeDegrees>-0.287376902997493743896484375</LongitudeDegrees>
            </Position>
            <AltitudeMeters>2820.39990234375</AltitudeMeters>
            <DistanceMeters>14062.785268143</DistanceMeters>
          </Trackpoint>
          <Trackpoint>
            <Time>2022-08-22T07:14:01.000Z</Time>
            <Position>
              <LatitudeDegrees>42.83438486047089099884033203125</LatitudeDegrees>
              <LongitudeDegrees>-0.2873914875090122222900390625</LongitudeDegrees>
            </Position>
            <AltitudeMeters>2820.199951171875</AltitudeMeters>
            <DistanceMeters>14068.198455565</DistanceMeters>
          </Trackpoint>
          <Trackpoint>
            <Time>2022-08-22T07:14:24.000Z</Time>
            <Position>
              <LatitudeDegrees>42.83437295816838741302490234375</LatitudeDegrees>
              <LongitudeDegrees>-0.28722359798848628997802734375</LongitudeDegrees>
            </Position>
            <AltitudeMeters>2817.39990234375</AltitudeMeters>
            <DistanceMeters>14081.96585563</DistanceMeters>
          </Trackpoint>
          <Trackpoint>
            <Time>2022-08-22T07:14:44.000Z</Time>
            <Position>
              <LatitudeDegrees>42.83435552380979061126708984375</LatitudeDegrees>
              <LongitudeDegrees>-0.28709828853607177734375</LongitudeDegrees>
            </Position>
            <AltitudeMeters>2814.800048828125</AltitudeMeters>
            <DistanceMeters>14092.37637807</DistanceMeters>
          </Trackpoint>
          <Trackpoint>
            <Time>2022-08-22T07:14:50.000Z</Time>
            <Position>
              <LatitudeDegrees>42.83435367979109287261962890625</LatitudeDegrees>
              <LongitudeDegrees>-0.287060402333736419677734375</LongitudeDegrees>
            </Position>
            <AltitudeMeters>2814.199951171875</AltitudeMeters>
            <DistanceMeters>14095.476055688</DistanceMeters>
          </Trackpoint>
          <Trackpoint>
            <Time>2022-08-22T07:15:07.000Z</Time>
            <Position>
              <LatitudeDegrees>42.8343443758785724639892578125</LatitudeDegrees>
              <LongitudeDegrees>-0.28692419640719890594482421875</LongitudeDegrees>
            </Position>
            <AltitudeMeters>2811.199951171875</AltitudeMeters>
            <DistanceMeters>14106.641593534</DistanceMeters>
          </Trackpoint>
          <Trackpoint>
            <Time>2022-08-22T07:15:09.000Z</Time>
            <Position>
              <LatitudeDegrees>42.8343348205089569091796875</LatitudeDegrees>
              <LongitudeDegrees>-0.28690994717180728912353515625</LongitudeDegrees>
            </Position>
            <AltitudeMeters>2810.800048828125</AltitudeMeters>
            <DistanceMeters>14108.214565545</DistanceMeters>
          </Trackpoint>
          <Trackpoint>
            <Time>2022-08-22T07:15:15.000Z</Time>
            <Position>
              <LatitudeDegrees>42.83433775417506694793701171875</LatitudeDegrees>
              <LongitudeDegrees>-0.28691145591437816619873046875</LongitudeDegrees>
            </Position>
            <AltitudeMeters>2810.800048828125</AltitudeMeters>
            <DistanceMeters>14108.557189236</DistanceMeters>
          </Trackpoint>
          <Trackpoint>
            <Time>2022-08-22T07:15:16.000Z</Time>
            <Position>
              <LatitudeDegrees>42.83433993346989154815673828125</LatitudeDegrees>
              <LongitudeDegrees>-0.286901481449604034423828125</LongitudeDegrees>
            </Position>
            <AltitudeMeters>2810.60009765625</AltitudeMeters>
            <DistanceMeters>14109.396442453</DistanceMeters>
          </Trackpoint>
          <Trackpoint>
            <Time>2022-08-22T07:15:17.000Z</Time>
            <Position>
              <LatitudeDegrees>42.83433373086154460906982421875</LatitudeDegrees>
              <LongitudeDegrees>-0.28689469210803508758544921875</LongitudeDegrees>
            </Position>
            <AltitudeMeters>2810.39990234375</AltitudeMeters>
            <DistanceMeters>14110.282792638</DistanceMeters>
          </Trackpoint>
          <Trackpoint>
            <Time>2022-08-22T07:15:20.000Z</Time>
            <Position>
              <LatitudeDegrees>42.83432208001613616943359375</LatitudeDegrees>
              <LongitudeDegrees>-0.28689720667898654937744140625</LongitudeDegrees>
            </Position>
            <AltitudeMeters>2810.39990234375</AltitudeMeters>
            <DistanceMeters>14111.596087959</DistanceMeters>
          </Trackpoint>
          <Trackpoint>
            <Time>2022-08-22T07:15:26.000Z</Time>
            <Position>
              <LatitudeDegrees>42.83429517410695552825927734375</LatitudeDegrees>
              <LongitudeDegrees>-0.28689284808933734893798828125</LongitudeDegrees>
            </Position>
            <AltitudeMeters>2810.199951171875</AltitudeMeters>
            <DistanceMeters>14114.610098063</DistanceMeters>
          </Trackpoint>
          <Trackpoint>
            <Time>2022-08-22T07:15:27.000Z</Time>
            <Position>
              <LatitudeDegrees>42.8342994488775730133056640625</LatitudeDegrees>
              <LongitudeDegrees>-0.2868895791471004486083984375</LongitudeDegrees>
            </Position>
            <AltitudeMeters>2810.199951171875</AltitudeMeters>
            <DistanceMeters>14115.147650336</DistanceMeters>
          </Trackpoint>
          <Trackpoint>
            <Time>2022-08-22T07:15:32.000Z</Time>
            <Position>
              <LatitudeDegrees>42.83432434312999248504638671875</LatitudeDegrees>
              <LongitudeDegrees>-0.28686569072306156158447265625</LongitudeDegrees>
            </Position>
            <AltitudeMeters>2810</AltitudeMeters>
            <DistanceMeters>14118.536788462</DistanceMeters>
          </Trackpoint>
          <Trackpoint>
            <Time>2022-08-22T07:15:33.000Z</Time>
            <Position>
              <LatitudeDegrees>42.834330461919307708740234375</LatitudeDegrees>
              <LongitudeDegrees>-0.286859907209873199462890625</LongitudeDegrees>
            </Position>
            <AltitudeMeters>2810</AltitudeMeters>
            <DistanceMeters>14119.365212151</DistanceMeters>
          </Trackpoint>
          <Trackpoint>
            <Time>2022-08-22T07:15:35.000Z</Time>
            <Position>
              <LatitudeDegrees>42.83434898592531681060791015625</LatitudeDegrees>
              <LongitudeDegrees>-0.28685160912573337554931640625</LongitudeDegrees>
            </Position>
            <AltitudeMeters>2810</AltitudeMeters>
            <DistanceMeters>14121.536317838</DistanceMeters>
          </Trackpoint>
          <Trackpoint>
            <Time>2022-08-22T07:15:37.000Z</Time>
            <Position>
              <LatitudeDegrees>42.83436491154134273529052734375</LatitudeDegrees>
              <LongitudeDegrees>-0.28685496188700199127197265625</LongitudeDegrees>
            </Position>
            <AltitudeMeters>2810.199951171875</AltitudeMeters>
            <DistanceMeters>14123.329278299</DistanceMeters>
          </Trackpoint>
          <Trackpoint>
            <Time>2022-08-22T07:15:46.000Z</Time>
            <Position>
              <LatitudeDegrees>42.83440732397139072418212890625</LatitudeDegrees>
              <LongitudeDegrees>-0.2869284711778163909912109375</LongitudeDegrees>
            </Position>
            <AltitudeMeters>2811.39990234375</AltitudeMeters>
            <DistanceMeters>14130.962828148</DistanceMeters>
          </Trackpoint>
          <Trackpoint>
            <Time>2022-08-22T07:15:53.000Z</Time>
            <Position>
              <LatitudeDegrees>42.83443364314734935760498046875</LatitudeDegrees>
              <LongitudeDegrees>-0.28701053000986576080322265625</LongitudeDegrees>
            </Position>
            <AltitudeMeters>2813.199951171875</AltitudeMeters>
            <DistanceMeters>14138.274329536</DistanceMeters>
          </Trackpoint>
          <Trackpoint>
            <Time>2022-08-22T07:15:54.000Z</Time>
            <Position>
              <LatitudeDegrees>42.8344338946044445037841796875</LatitudeDegrees>
              <LongitudeDegrees>-0.28703249059617519378662109375</LongitudeDegrees>
            </Position>
            <AltitudeMeters>2813.60009765625</AltitudeMeters>
            <DistanceMeters>14140.067289997</DistanceMeters>
          </Trackpoint>
          <Trackpoint>
            <Time>2022-08-22T07:15:56.000Z</Time>
            <Position>
              <LatitudeDegrees>42.83444252796471118927001953125</LatitudeDegrees>
              <LongitudeDegrees>-0.28704104013741016387939453125</LongitudeDegrees>
            </Position>
            <AltitudeMeters>2813.800048828125</AltitudeMeters>
            <DistanceMeters>14141.254173279</DistanceMeters>
          </Trackpoint>
          <Trackpoint>
            <Time>2022-08-22T07:15:58.000Z</Time>
            <Position>
              <LatitudeDegrees>42.834456525743007659912109375</LatitudeDegrees>
              <LongitudeDegrees>-0.28705847449600696563720703125</LongitudeDegrees>
            </Position>
            <AltitudeMeters>2814.199951171875</AltitudeMeters>
            <DistanceMeters>14143.364108749</DistanceMeters>
          </Trackpoint>
          <Trackpoint>
            <Time>2022-08-22T07:16:01.000Z</Time>
            <Position>
              <LatitudeDegrees>42.83447320573031902313232421875</LatitudeDegrees>
              <LongitudeDegrees>-0.2870790101587772369384765625</LongitudeDegrees>
            </Position>
            <AltitudeMeters>2814.39990234375</AltitudeMeters>
            <DistanceMeters>14145.863871317</DistanceMeters>
          </Trackpoint>
          <Trackpoint>
            <Time>2022-08-22T07:16:04.000Z</Time>
            <Position>
              <LatitudeDegrees>42.8345009498298168182373046875</LatitudeDegrees>
              <LongitudeDegrees>-0.2870964445173740386962890625</LongitudeDegrees>
            </Position>
            <AltitudeMeters>2814.800048828125</AltitudeMeters>
            <DistanceMeters>14149.263650405</DistanceMeters>
          </Trackpoint>
          <Trackpoint>
            <Time>2022-08-22T07:16:09.000Z</Time>
            <Position>
              <LatitudeDegrees>42.8345116786658763885498046875</LatitudeDegrees>
              <LongitudeDegrees>-0.28716576285660266876220703125</LongitudeDegrees>
            </Position>
            <AltitudeMeters>2816</AltitudeMeters>
            <DistanceMeters>14155.04624265</DistanceMeters>
          </Trackpoint>
          <Trackpoint>
            <Time>2022-08-22T07:16:10.000Z</Time>
            <Position>
              <LatitudeDegrees>42.83451251685619354248046875</LatitudeDegrees>
              <LongitudeDegrees>-0.287175066769123077392578125</LongitudeDegrees>
            </Position>
            <AltitudeMeters>2816.199951171875</AltitudeMeters>
            <DistanceMeters>14155.818243327</DistanceMeters>
          </Trackpoint>
          <Trackpoint>
            <Time>2022-08-22T07:16:11.000Z</Time>
            <Position>
              <LatitudeDegrees>42.83450857736170291900634765625</LatitudeDegrees>
              <LongitudeDegrees>-0.287183113396167755126953125</LongitudeDegrees>
            </Position>
            <AltitudeMeters>2816.39990234375</AltitudeMeters>
            <DistanceMeters>14156.613293861</DistanceMeters>
          </Trackpoint>
          <Trackpoint>
            <Time>2022-08-22T07:16:16.000Z</Time>
            <Position>
              <LatitudeDegrees>42.83450807444751262664794921875</LatitudeDegrees>
              <LongitudeDegrees>-0.28720733709633350372314453125</LongitudeDegrees>
            </Position>
            <AltitudeMeters>2816.800048828125</AltitudeMeters>
            <DistanceMeters>14158.592953725</DistanceMeters>
          </Trackpoint>
          <Trackpoint>
            <Time>2022-08-22T07:16:21.000Z</Time>
            <Position>
              <LatitudeDegrees>42.8345039673149585723876953125</LatitudeDegrees>
              <LongitudeDegrees>-0.287243463099002838134765625</LongitudeDegrees>
            </Position>
            <AltitudeMeters>2817.199951171875</AltitudeMeters>
            <DistanceMeters>14161.576853082</DistanceMeters>
          </Trackpoint>
          <Trackpoint>
            <Time>2022-08-22T07:16:22.000Z</Time>
            <Position>
              <LatitudeDegrees>42.83450857736170291900634765625</LatitudeDegrees>
              <LongitudeDegrees>-0.28724907897412776947021484375</LongitudeDegrees>
            </Position>
            <AltitudeMeters>2817.199951171875</AltitudeMeters>
            <DistanceMeters>14162.262100465</DistanceMeters>
          </Trackpoint>
          <Trackpoint>
            <Time>2022-08-22T07:16:24.000Z</Time>
            <Position>
              <LatitudeDegrees>42.83452031202614307403564453125</LatitudeDegrees>
              <LongitudeDegrees>-0.2872624062001705169677734375</LongitudeDegrees>
            </Position>
            <AltitudeMeters>2817.199951171875</AltitudeMeters>
            <DistanceMeters>14163.961990009</DistanceMeters>
          </Trackpoint>
          <Trackpoint>
            <Time>2022-08-22T07:16:28.000Z</Time>
            <Position>
              <LatitudeDegrees>42.8345386683940887451171875</LatitudeDegrees>
              <LongitudeDegrees>-0.28729853220283985137939453125</LongitudeDegrees>
            </Position>
            <AltitudeMeters>2817.39990234375</AltitudeMeters>
            <DistanceMeters>14167.54791093</DistanceMeters>
          </Trackpoint>
          <Trackpoint>
            <Time>2022-08-22T07:16:29.000Z</Time>
            <Position>
              <LatitudeDegrees>42.8345413506031036376953125</LatitudeDegrees>
              <LongitudeDegrees>-0.2873113565146923065185546875</LongitudeDegrees>
            </Position>
            <AltitudeMeters>2817.60009765625</AltitudeMeters>
            <DistanceMeters>14168.639684758</DistanceMeters>
          </Trackpoint>
          <Trackpoint>
            <Time>2022-08-22T07:16:33.000Z</Time>
            <Position>
              <LatitudeDegrees>42.8345482237637042999267578125</LatitudeDegrees>
              <LongitudeDegrees>-0.28733256272971630096435546875</LongitudeDegrees>
            </Position>
            <AltitudeMeters>2817.800048828125</AltitudeMeters>
            <DistanceMeters>14170.533078628</DistanceMeters>
          </Trackpoint>
          <Trackpoint>
            <Time>2022-08-22T07:16:46.000Z</Time>
            <Position>
              <LatitudeDegrees>42.8345762193202972412109375</LatitudeDegrees>
              <LongitudeDegrees>-0.28738838620483875274658203125</LongitudeDegrees>
            </Position>
            <AltitudeMeters>2818</AltitudeMeters>
            <DistanceMeters>14176.052813941</DistanceMeters>
          </Trackpoint>
          <Trackpoint>
            <Time>2022-08-22T07:16:52.000Z</Time>
            <Position>
              <LatitudeDegrees>42.834574878215789794921875</LatitudeDegrees>
              <LongitudeDegrees>-0.28742945753037929534912109375</LongitudeDegrees>
            </Position>
            <AltitudeMeters>2818.60009765625</AltitudeMeters>
            <DistanceMeters>14179.408481583</DistanceMeters>
          </Trackpoint>
          <Trackpoint>
            <Time>2022-08-22T07:17:10.000Z</Time>
            <Position>
              <LatitudeDegrees>42.834590636193752288818359375</LatitudeDegrees>
              <LongitudeDegrees>-0.287568680942058563232421875</LongitudeDegrees>
            </Position>
            <AltitudeMeters>2820.199951171875</AltitudeMeters>
            <DistanceMeters>14190.906714022</DistanceMeters>
          </Trackpoint>
          <Trackpoint>
            <Time>2022-08-22T07:17:15.000Z</Time>
            <Position>
              <LatitudeDegrees>42.834589965641498565673828125</LatitudeDegrees>
              <LongitudeDegrees>-0.287618301808834075927734375</LongitudeDegrees>
            </Position>
            <AltitudeMeters>2820.800048828125</AltitudeMeters>
            <DistanceMeters>14194.958464135</DistanceMeters>
          </Trackpoint>
          <Trackpoint>
            <Time>2022-08-22T07:17:19.000Z</Time>
            <Position>
              <LatitudeDegrees>42.83460798673331737518310546875</LatitudeDegrees>
              <LongitudeDegrees>-0.28763699345290660858154296875</LongitudeDegrees>
            </Position>
            <AltitudeMeters>2820.800048828125</AltitudeMeters>
            <DistanceMeters>14197.479807788</DistanceMeters>
          </Trackpoint>
          <Trackpoint>
            <Time>2022-08-22T07:17:21.000Z</Time>
            <Position>
              <LatitudeDegrees>42.83461687155067920684814453125</LatitudeDegrees>
              <LongitudeDegrees>-0.28764101676642894744873046875</LongitudeDegrees>
            </Position>
            <AltitudeMeters>2821</AltitudeMeters>
            <DistanceMeters>14198.520773288</DistanceMeters>
          </Trackpoint>
          <Trackpoint>
            <Time>2022-08-22T07:17:41.000Z</Time>
            <Position>
              <LatitudeDegrees>42.83461402170360088348388671875</LatitudeDegrees>
              <LongitudeDegrees>-0.28778702951967716217041015625</LongitudeDegrees>
            </Position>
            <AltitudeMeters>2824.800048828125</AltitudeMeters>
            <DistanceMeters>14210.441987281</DistanceMeters>
          </Trackpoint>
          <Trackpoint>
            <Time>2022-08-22T07:17:45.000Z</Time>
            <Position>
              <LatitudeDegrees>42.83461100421845912933349609375</LatitudeDegrees>
              <LongitudeDegrees>-0.28781502507627010345458984375</LongitudeDegrees>
            </Position>
            <AltitudeMeters>2825.39990234375</AltitudeMeters>
            <DistanceMeters>14212.750178153</DistanceMeters>
          </Trackpoint>
          <Trackpoint>
            <Time>2022-08-22T07:17:53.000Z</Time>
            <Position>
              <LatitudeDegrees>42.8346444480121135711669921875</LatitudeDegrees>
              <LongitudeDegrees>-0.28786162845790386199951171875</LongitudeDegrees>
            </Position>
            <AltitudeMeters>2827.199951171875</AltitudeMeters>
            <DistanceMeters>14218.072522543</DistanceMeters>
          </Trackpoint>
          <Trackpoint>
            <Time>2022-08-22T07:17:57.000Z</Time>
            <Position>
              <LatitudeDegrees>42.834651656448841094970703125</LatitudeDegrees>
              <LongitudeDegrees>-0.28788752853870391845703125</LongitudeDegrees>
            </Position>
            <AltitudeMeters>2828.199951171875</AltitudeMeters>
            <DistanceMeters>14220.333279777</DistanceMeters>
          </Trackpoint>
          <Trackpoint>
            <Time>2022-08-22T07:18:04.000Z</Time>
            <Position>
              <LatitudeDegrees>42.8346595354378223419189453125</LatitudeDegrees>
              <LongitudeDegrees>-0.28789683245122432708740234375</LongitudeDegrees>
            </Position>
            <AltitudeMeters>2830</AltitudeMeters>
            <DistanceMeters>14221.497114587</DistanceMeters>
          </Trackpoint>
          <Trackpoint>
            <Time>2022-08-22T07:18:10.000Z</Time>
            <Position>
              <LatitudeDegrees>42.83467881381511688232421875</LatitudeDegrees>
              <LongitudeDegrees>-0.28793455101549625396728515625</LongitudeDegrees>
            </Position>
            <AltitudeMeters>2835.39990234375</AltitudeMeters>
            <DistanceMeters>14225.250369075</DistanceMeters>
          </Trackpoint>
          <Trackpoint>
            <Time>2022-08-22T07:18:15.000Z</Time>
            <Position>
              <LatitudeDegrees>42.834673784673213958740234375</LatitudeDegrees>
              <LongitudeDegrees>-0.28796271421015262603759765625</LongitudeDegrees>
            </Position>
            <AltitudeMeters>2837.800048828125</AltitudeMeters>
            <DistanceMeters>14227.616515181</DistanceMeters>
          </Trackpoint>
          <Trackpoint>
            <Time>2022-08-22T07:18:21.000Z</Time>
            <Position>
              <LatitudeDegrees>42.8346796520054340362548828125</LatitudeDegrees>
              <LongitudeDegrees>-0.2879574336111545562744140625</LongitudeDegrees>
            </Position>
            <AltitudeMeters>2837.800048828125</AltitudeMeters>
            <DistanceMeters>14228.394342361</DistanceMeters>
          </Trackpoint>
          <Trackpoint>
            <Time>2022-08-22T07:18:27.000Z</Time>
            <Position>
              <LatitudeDegrees>42.834695242345333099365234375</LatitudeDegrees>
              <LongitudeDegrees>-0.28798031620681285858154296875</LongitudeDegrees>
            </Position>
            <AltitudeMeters>2841.60009765625</AltitudeMeters>
            <DistanceMeters>14230.942405344</DistanceMeters>
          </Trackpoint>
          <Trackpoint>
            <Time>2022-08-22T07:18:31.000Z</Time>
            <Position>
              <LatitudeDegrees>42.834703288972377777099609375</LatitudeDegrees>
              <LongitudeDegrees>-0.287995822727680206298828125</LongitudeDegrees>
            </Position>
            <AltitudeMeters>2843.800048828125</AltitudeMeters>
            <DistanceMeters>14232.492244153</DistanceMeters>
          </Trackpoint>
          <Trackpoint>
            <Time>2022-08-22T07:18:38.000Z</Time>
            <Position>
              <LatitudeDegrees>42.83469624817371368408203125</LatitudeDegrees>
              <LongitudeDegrees>-0.28800378553569316864013671875</LongitudeDegrees>
            </Position>
            <AltitudeMeters>2844.800048828125</AltitudeMeters>
            <DistanceMeters>14233.515713189</DistanceMeters>
          </Trackpoint>
          <Trackpoint>
            <Time>2022-08-22T07:19:03.000Z</Time>
            <Position>
              <LatitudeDegrees>42.83469767309725284576416015625</LatitudeDegrees>
              <LongitudeDegrees>-0.288104452192783355712890625</LongitudeDegrees>
            </Position>
            <AltitudeMeters>2865.60009765625</AltitudeMeters>
            <DistanceMeters>14241.733738604</DistanceMeters>
          </Trackpoint>
          <Trackpoint>
            <Time>2022-08-22T07:19:04.000Z</Time>
            <Position>
              <LatitudeDegrees>42.83469448797404766082763671875</LatitudeDegrees>
              <LongitudeDegrees>-0.2881200425326824188232421875</LongitudeDegrees>
            </Position>
            <AltitudeMeters>2868</AltitudeMeters>
            <DistanceMeters>14243.053891911</DistanceMeters>
          </Trackpoint>
          <Trackpoint>
            <Time>2022-08-22T07:19:11.000Z</Time>
            <Position>
              <LatitudeDegrees>42.8347104974091053009033203125</LatitudeDegrees>
              <LongitudeDegrees>-0.28816505335271358489990234375</LongitudeDegrees>
            </Position>
            <AltitudeMeters>2866.800048828125</AltitudeMeters>
            <DistanceMeters>14247.136724398</DistanceMeters>
          </Trackpoint>
          <Trackpoint>
            <Time>2022-08-22T07:19:17.000Z</Time>
            <Position>
              <LatitudeDegrees>42.83471636474132537841796875</LatitudeDegrees>
              <LongitudeDegrees>-0.2881961502134799957275390625</LongitudeDegrees>
            </Position>
            <AltitudeMeters>2866.39990234375</AltitudeMeters>
            <DistanceMeters>14249.758153049</DistanceMeters>
          </Trackpoint>
          <Trackpoint>
            <Time>2022-08-22T07:19:34.000Z</Time>
            <Position>
              <LatitudeDegrees>42.83470823429524898529052734375</LatitudeDegrees>
              <LongitudeDegrees>-0.288180895149707794189453125</LongitudeDegrees>
            </Position>
            <AltitudeMeters>2867.199951171875</AltitudeMeters>
            <DistanceMeters>14251.296294794</DistanceMeters>
          </Trackpoint>
          <Trackpoint>
            <Time>2022-08-22T07:19:39.000Z</Time>
            <Position>
              <LatitudeDegrees>42.83470161259174346923828125</LatitudeDegrees>
              <LongitudeDegrees>-0.2882139198482036590576171875</LongitudeDegrees>
            </Position>
            <AltitudeMeters>2868.199951171875</AltitudeMeters>
            <DistanceMeters>14254.08949834</DistanceMeters>
          </Trackpoint>
          <Trackpoint>
            <Time>2022-08-22T07:19:44.000Z</Time>
            <Position>
              <LatitudeDegrees>42.83470052294433116912841796875</LatitudeDegrees>
              <LongitudeDegrees>-0.28824887238442897796630859375</LongitudeDegrees>
            </Position>
            <AltitudeMeters>2868.60009765625</AltitudeMeters>
            <DistanceMeters>14256.94346557</DistanceMeters>
          </Trackpoint>
          <Trackpoint>
            <Time>2022-08-22T07:20:28.000Z</Time>
            <Position>
              <LatitudeDegrees>42.83464972861111164093017578125</LatitudeDegrees>
              <LongitudeDegrees>-0.2883373014628887176513671875</LongitudeDegrees>
            </Position>
            <AltitudeMeters>2873.199951171875</AltitudeMeters>
            <DistanceMeters>14266.111450711</DistanceMeters>
          </Trackpoint>
          <Trackpoint>
            <Time>2022-08-22T07:20:44.000Z</Time>
            <Position>
              <LatitudeDegrees>42.83462273888289928436279296875</LatitudeDegrees>
              <LongitudeDegrees>-0.2883409895002841949462890625</LongitudeDegrees>
            </Position>
            <AltitudeMeters>2875.800048828125</AltitudeMeters>
            <DistanceMeters>14269.12995152</DistanceMeters>
          </Trackpoint>
          <Trackpoint>
            <Time>2022-08-22T07:20:50.000Z</Time>
            <Position>
              <LatitudeDegrees>42.834619469940662384033203125</LatitudeDegrees>
              <LongitudeDegrees>-0.288382060825824737548828125</LongitudeDegrees>
            </Position>
            <AltitudeMeters>2875.39990234375</AltitudeMeters>
            <DistanceMeters>14272.501726459</DistanceMeters>
          </Trackpoint>
          <Trackpoint>
            <Time>2022-08-22T07:20:52.000Z</Time>
            <Position>
              <LatitudeDegrees>42.834616117179393768310546875</LatitudeDegrees>
              <LongitudeDegrees>-0.288400836288928985595703125</LongitudeDegrees>
            </Position>
            <AltitudeMeters>2875.60009765625</AltitudeMeters>
            <DistanceMeters>14274.07469847</DistanceMeters>
          </Trackpoint>
          <Trackpoint>
            <Time>2022-08-22T07:21:03.000Z</Time>
            <Position>
              <LatitudeDegrees>42.83458267338573932647705078125</LatitudeDegrees>
              <LongitudeDegrees>-0.2884301729500293731689453125</LongitudeDegrees>
            </Position>
            <AltitudeMeters>2878.39990234375</AltitudeMeters>
            <DistanceMeters>14278.500332414</DistanceMeters>
          </Trackpoint>
          <Trackpoint>
            <Time>2022-08-22T07:21:45.000Z</Time>
            <Position>
              <LatitudeDegrees>42.83461980521678924560546875</LatitudeDegrees>
              <LongitudeDegrees>-0.28854358009994029998779296875</LongitudeDegrees>
            </Position>
            <AltitudeMeters>2879.39990234375</AltitudeMeters>
            <DistanceMeters>14288.637059689</DistanceMeters>
          </Trackpoint>
          <Trackpoint>
            <Time>2022-08-22T07:22:21.000Z</Time>
            <Position>
              <LatitudeDegrees>42.83460077829658985137939453125</LatitudeDegrees>
              <LongitudeDegrees>-0.28866847045719623565673828125</LongitudeDegrees>
            </Position>
            <AltitudeMeters>2894.199951171875</AltitudeMeters>
            <DistanceMeters>14299.04801582</DistanceMeters>
          </Trackpoint>
          <Trackpoint>
            <Time>2022-08-22T07:22:28.000Z</Time>
            <Position>
              <LatitudeDegrees>42.83463589847087860107421875</LatitudeDegrees>
              <LongitudeDegrees>-0.28868858702480792999267578125</LongitudeDegrees>
            </Position>
            <AltitudeMeters>2896.199951171875</AltitudeMeters>
            <DistanceMeters>14303.287102057</DistanceMeters>
          </Trackpoint>
          <Trackpoint>
            <Time>2022-08-22T07:23:03.000Z</Time>
            <Position>
              <LatitudeDegrees>42.8346890397369861602783203125</LatitudeDegrees>
              <LongitudeDegrees>-0.288759581744670867919921875</LongitudeDegrees>
            </Position>
            <AltitudeMeters>2904.199951171875</AltitudeMeters>
            <DistanceMeters>14311.568068215</DistanceMeters>
          </Trackpoint>
          <Trackpoint>
            <Time>2022-08-22T07:23:18.000Z</Time>
            <Position>
              <LatitudeDegrees>42.8346836753189563751220703125</LatitudeDegrees>
              <LongitudeDegrees>-0.28882370330393314361572265625</LongitudeDegrees>
            </Position>
            <AltitudeMeters>2912.199951171875</AltitudeMeters>
            <DistanceMeters>14316.834983331</DistanceMeters>
          </Trackpoint>
          <Trackpoint>
            <Time>2022-08-22T07:23:43.000Z</Time>
            <Position>
              <LatitudeDegrees>42.834740169346332550048828125</LatitudeDegrees>
              <LongitudeDegrees>-0.2889123000204563140869140625</LongitudeDegrees>
            </Position>
            <AltitudeMeters>2921.60009765625</AltitudeMeters>
            <DistanceMeters>14326.418087078</DistanceMeters>
          </Trackpoint>
          <Trackpoint>
            <Time>2022-08-22T07:26:13.000Z</Time>
            <Position>
              <LatitudeDegrees>42.8347259201109409332275390625</LatitudeDegrees>
              <LongitudeDegrees>-0.288945995271205902099609375</LongitudeDegrees>
            </Position>
            <AltitudeMeters>2924.39990234375</AltitudeMeters>
            <DistanceMeters>14329.592605201</DistanceMeters>
          </Trackpoint>
          <Trackpoint>
            <Time>2022-08-22T07:28:00.000Z</Time>
            <Position>
              <LatitudeDegrees>42.834724076092243194580078125</LatitudeDegrees>
              <LongitudeDegrees>-0.28896577656269073486328125</LongitudeDegrees>
            </Position>
            <AltitudeMeters>2925.60009765625</AltitudeMeters>
            <DistanceMeters>14331.221973936</DistanceMeters>
          </Trackpoint>
          <Trackpoint>
            <Time>2022-08-22T07:28:10.000Z</Time>
            <Position>
              <LatitudeDegrees>42.83472382463514804840087890625</LatitudeDegrees>
              <LongitudeDegrees>-0.2890514396131038665771484375</LongitudeDegrees>
            </Position>
            <AltitudeMeters>2930.199951171875</AltitudeMeters>
            <DistanceMeters>14338.214028989</DistanceMeters>
          </Trackpoint>
          <Trackpoint>
            <Time>2022-08-22T07:28:25.000Z</Time>
            <Position>
              <LatitudeDegrees>42.83478383906185626983642578125</LatitudeDegrees>
              <LongitudeDegrees>-0.28929996304214000701904296875</LongitudeDegrees>
            </Position>
            <AltitudeMeters>2950</AltitudeMeters>
            <DistanceMeters>14359.569895651</DistanceMeters>
          </Trackpoint>
          <Trackpoint>
            <Time>2022-08-22T07:28:50.000Z</Time>
            <Position>
              <LatitudeDegrees>42.834687195718288421630859375</LatitudeDegrees>
              <LongitudeDegrees>-0.28949911706149578094482421875</LongitudeDegrees>
            </Position>
            <AltitudeMeters>2964.39990234375</AltitudeMeters>
            <DistanceMeters>14379.061262359</DistanceMeters>
          </Trackpoint>
          <Trackpoint>
            <Time>2022-08-22T07:29:28.000Z</Time>
            <Position>
              <LatitudeDegrees>42.83476036973297595977783203125</LatitudeDegrees>
              <LongitudeDegrees>-0.28929711319506168365478515625</LongitudeDegrees>
            </Position>
            <AltitudeMeters>2950.800048828125</AltitudeMeters>
            <DistanceMeters>14397.450588958</DistanceMeters>
          </Trackpoint>
          <Trackpoint>
            <Time>2022-08-22T07:29:45.000Z</Time>
            <Position>
              <LatitudeDegrees>42.83484519459307193756103515625</LatitudeDegrees>
              <LongitudeDegrees>-0.28921010904014110565185546875</LongitudeDegrees>
            </Position>
            <AltitudeMeters>2937.800048828125</AltitudeMeters>
            <DistanceMeters>14409.26451555</DistanceMeters>
          </Trackpoint>
          <Trackpoint>
            <Time>2022-08-22T07:29:51.000Z</Time>
            <Position>
              <LatitudeDegrees>42.83487000502645969390869140625</LatitudeDegrees>
              <LongitudeDegrees>-0.28919552452862262725830078125</LongitudeDegrees>
            </Position>
            <AltitudeMeters>2935.800048828125</AltitudeMeters>
            <DistanceMeters>14412.272527617</DistanceMeters>
          </Trackpoint>
          <Trackpoint>
            <Time>2022-08-22T07:30:05.000Z</Time>
            <Position>
              <LatitudeDegrees>42.8348710946738719940185546875</LatitudeDegrees>
              <LongitudeDegrees>-0.28925503604114055633544921875</LongitudeDegrees>
            </Position>
            <AltitudeMeters>2942.39990234375</AltitudeMeters>
            <DistanceMeters>14417.130986202</DistanceMeters>
          </Trackpoint>
          <Trackpoint>
            <Time>2022-08-22T07:30:20.000Z</Time>
            <Position>
              <LatitudeDegrees>42.83490906469523906707763671875</LatitudeDegrees>
              <LongitudeDegrees>-0.2892797626554965972900390625</LongitudeDegrees>
            </Position>
            <AltitudeMeters>2944.39990234375</AltitudeMeters>
            <DistanceMeters>14421.813402844</DistanceMeters>
          </Trackpoint>
          <Trackpoint>
            <Time>2022-08-22T07:30:28.000Z</Time>
            <Position>
              <LatitudeDegrees>42.83487595617771148681640625</LatitudeDegrees>
              <LongitudeDegrees>-0.28932929970324039459228515625</LongitudeDegrees>
            </Position>
            <AltitudeMeters>2950.39990234375</AltitudeMeters>
            <DistanceMeters>14427.283839146</DistanceMeters>
          </Trackpoint>
          <Trackpoint>
            <Time>2022-08-22T07:30:29.000Z</Time>
            <Position>
              <LatitudeDegrees>42.83487671054899692535400390625</LatitudeDegrees>
              <LongitudeDegrees>-0.289341621100902557373046875</LongitudeDegrees>
            </Position>
            <AltitudeMeters>2951.39990234375</AltitudeMeters>
            <DistanceMeters>14428.293986976</DistanceMeters>
          </Trackpoint>
          <Trackpoint>
            <Time>2022-08-22T07:30:42.000Z</Time>
            <Position>
              <LatitudeDegrees>42.83485391177237033843994140625</LatitudeDegrees>
              <LongitudeDegrees>-0.2893203310668468475341796875</LongitudeDegrees>
            </Position>
            <AltitudeMeters>2950</AltitudeMeters>
            <DistanceMeters>14431.368802423</DistanceMeters>
          </Trackpoint>
          <Trackpoint>
            <Time>2022-08-22T07:31:03.000Z</Time>
            <Position>
              <LatitudeDegrees>42.8348851762712001800537109375</LatitudeDegrees>
              <LongitudeDegrees>-0.28931974433362483978271484375</LongitudeDegrees>
            </Position>
            <AltitudeMeters>2949.199951171875</AltitudeMeters>
            <DistanceMeters>14434.848649045</DistanceMeters>
          </Trackpoint>
          <Trackpoint>
            <Time>2022-08-22T07:31:56.000Z</Time>
            <Position>
              <LatitudeDegrees>42.83488006331026554107666015625</LatitudeDegrees>
              <LongitudeDegrees>-0.2894641645252704620361328125</LongitudeDegrees>
            </Position>
            <AltitudeMeters>2957.199951171875</AltitudeMeters>
            <DistanceMeters>14446.649956981</DistanceMeters>
          </Trackpoint>
          <Trackpoint>
            <Time>2022-08-22T07:32:26.000Z</Time>
            <Position>
              <LatitudeDegrees>42.8348583541810512542724609375</LatitudeDegrees>
              <LongitudeDegrees>-0.2895040623843669891357421875</LongitudeDegrees>
            </Position>
            <AltitudeMeters>2959.39990234375</AltitudeMeters>
            <DistanceMeters>14450.703935166</DistanceMeters>
          </Trackpoint>
          <Trackpoint>
            <Time>2022-08-22T07:33:12.000Z</Time>
            <Position>
              <LatitudeDegrees>42.83490336500108242034912109375</LatitudeDegrees>
              <LongitudeDegrees>-0.28955728746950626373291015625</LongitudeDegrees>
            </Position>
            <AltitudeMeters>2958.800048828125</AltitudeMeters>
            <DistanceMeters>14457.334730157</DistanceMeters>
          </Trackpoint>
          <Trackpoint>
            <Time>2022-08-22T07:33:57.000Z</Time>
            <Position>
              <LatitudeDegrees>42.83498517237603664398193359375</LatitudeDegrees>
              <LongitudeDegrees>-0.28963725082576274871826171875</LongitudeDegrees>
            </Position>
            <AltitudeMeters>2956.800048828125</AltitudeMeters>
            <DistanceMeters>14468.537408516</DistanceMeters>
          </Trackpoint>
          <Trackpoint>
            <Time>2022-08-22T07:34:28.000Z</Time>
            <Position>
              <LatitudeDegrees>42.8350749425590038299560546875</LatitudeDegrees>
              <LongitudeDegrees>-0.2896772325038909912109375</LongitudeDegrees>
            </Position>
            <AltitudeMeters>2952.60009765625</AltitudeMeters>
            <DistanceMeters>14479.04806764</DistanceMeters>
          </Trackpoint>
          <Trackpoint>
            <Time>2022-08-22T07:34:34.000Z</Time>
            <Position>
              <LatitudeDegrees>42.835097573697566986083984375</LatitudeDegrees>
              <LongitudeDegrees>-0.28971268795430660247802734375</LongitudeDegrees>
            </Position>
            <AltitudeMeters>2951.39990234375</AltitudeMeters>
            <DistanceMeters>14482.884605741</DistanceMeters>
          </Trackpoint>
          <Trackpoint>
            <Time>2022-08-22T07:34:56.000Z</Time>
            <Position>
              <LatitudeDegrees>42.83513001166284084320068359375</LatitudeDegrees>
              <LongitudeDegrees>-0.28977320529520511627197265625</LongitudeDegrees>
            </Position>
            <AltitudeMeters>2949.800048828125</AltitudeMeters>
            <DistanceMeters>14489.003322677</DistanceMeters>
          </Trackpoint>
          <Trackpoint>
            <Time>2022-08-22T07:35:02.000Z</Time>
            <Position>
              <LatitudeDegrees>42.83517770469188690185546875</LatitudeDegrees>
              <LongitudeDegrees>-0.289758704602718353271484375</LongitudeDegrees>
            </Position>
            <AltitudeMeters>2948.800048828125</AltitudeMeters>
            <DistanceMeters>14494.442305158</DistanceMeters>
          </Trackpoint>
          <Trackpoint>
            <Time>2022-08-22T07:35:05.000Z</Time>
            <Position>
              <LatitudeDegrees>42.83520452678203582763671875</LatitudeDegrees>
              <LongitudeDegrees>-0.28976499103009700775146484375</LongitudeDegrees>
            </Position>
            <AltitudeMeters>2948</AltitudeMeters>
            <DistanceMeters>14497.471258387</DistanceMeters>
          </Trackpoint>
          <Trackpoint>
            <Time>2022-08-22T07:35:07.000Z</Time>
            <Position>
              <LatitudeDegrees>42.8352231346070766448974609375</LatitudeDegrees>
              <LongitudeDegrees>-0.289761386811733245849609375</LongitudeDegrees>
            </Position>
            <AltitudeMeters>2947.60009765625</AltitudeMeters>
            <DistanceMeters>14499.566161047</DistanceMeters>
          </Trackpoint>
          <Trackpoint>
            <Time>2022-08-22T07:35:11.000Z</Time>
            <Position>
              <LatitudeDegrees>42.8352405689656734466552734375</LatitudeDegrees>
              <LongitudeDegrees>-0.2897416055202484130859375</LongitudeDegrees>
            </Position>
            <AltitudeMeters>2947.39990234375</AltitudeMeters>
            <DistanceMeters>14502.094657462</DistanceMeters>
          </Trackpoint>
          <Trackpoint>
            <Time>2022-08-22T07:35:24.000Z</Time>
            <Position>
              <LatitudeDegrees>42.83527267165482044219970703125</LatitudeDegrees>
              <LongitudeDegrees>-0.28977580368518829345703125</LongitudeDegrees>
            </Position>
            <AltitudeMeters>2946.39990234375</AltitudeMeters>
            <DistanceMeters>14506.63013033</DistanceMeters>
          </Trackpoint>
          <Trackpoint>
            <Time>2022-08-22T07:35:29.000Z</Time>
            <Position>
              <LatitudeDegrees>42.83532078377902507781982421875</LatitudeDegrees>
              <LongitudeDegrees>-0.289767421782016754150390625</LongitudeDegrees>
            </Position>
            <AltitudeMeters>2945.60009765625</AltitudeMeters>
            <DistanceMeters>14512.029119751</DistanceMeters>
          </Trackpoint>
          <Trackpoint>
            <Time>2022-08-22T07:35:47.000Z</Time>
            <Position>
              <LatitudeDegrees>42.83550317399203777313232421875</LatitudeDegrees>
              <LongitudeDegrees>-0.2897696010768413543701171875</LongitudeDegrees>
            </Position>
            <AltitudeMeters>2945</AltitudeMeters>
            <DistanceMeters>14532.330393577</DistanceMeters>
          </Trackpoint>
          <Trackpoint>
            <Time>2022-08-22T07:35:55.000Z</Time>
            <Position>
              <LatitudeDegrees>42.8355795331299304962158203125</LatitudeDegrees>
              <LongitudeDegrees>-0.28979198075830936431884765625</LongitudeDegrees>
            </Position>
            <AltitudeMeters>2946.199951171875</AltitudeMeters>
            <DistanceMeters>14541.023130757</DistanceMeters>
          </Trackpoint>
          <Trackpoint>
            <Time>2022-08-22T07:35:57.000Z</Time>
            <Position>
              <LatitudeDegrees>42.83559202216565608978271484375</LatitudeDegrees>
              <LongitudeDegrees>-0.28978041373193264007568359375</LongitudeDegrees>
            </Position>
            <AltitudeMeters>2946.199951171875</AltitudeMeters>
            <DistanceMeters>14542.704324954</DistanceMeters>
          </Trackpoint>
          <Trackpoint>
            <Time>2022-08-22T07:36:07.000Z</Time>
            <Position>
              <LatitudeDegrees>42.8356435708701610565185546875</LatitudeDegrees>
              <LongitudeDegrees>-0.2897390909492969512939453125</LongitudeDegrees>
            </Position>
            <AltitudeMeters>2946.800048828125</AltitudeMeters>
            <DistanceMeters>14549.360266287</DistanceMeters>
          </Trackpoint>
          <Trackpoint>
            <Time>2022-08-22T07:36:16.000Z</Time>
            <Position>
              <LatitudeDegrees>42.835682965815067291259765625</LatitudeDegrees>
              <LongitudeDegrees>-0.28970145620405673980712890625</LongitudeDegrees>
            </Position>
            <AltitudeMeters>2947.800048828125</AltitudeMeters>
            <DistanceMeters>14554.713906417</DistanceMeters>
          </Trackpoint>
          <Trackpoint>
            <Time>2022-08-22T07:36:36.000Z</Time>
            <Position>
              <LatitudeDegrees>42.83577340655028820037841796875</LatitudeDegrees>
              <LongitudeDegrees>-0.2896351553499698638916015625</LongitudeDegrees>
            </Position>
            <AltitudeMeters>2949.60009765625</AltitudeMeters>
            <DistanceMeters>14566.142424505</DistanceMeters>
          </Trackpoint>
          <Trackpoint>
            <Time>2022-08-22T07:37:14.000Z</Time>
            <Position>
              <LatitudeDegrees>42.835926711559295654296875</LatitudeDegrees>
              <LongitudeDegrees>-0.28965778648853302001953125</LongitudeDegrees>
            </Position>
            <AltitudeMeters>2957.60009765625</AltitudeMeters>
            <DistanceMeters>14583.305206727</DistanceMeters>
          </Trackpoint>
          <Trackpoint>
            <Time>2022-08-22T07:37:15.000Z</Time>
            <Position>
              <LatitudeDegrees>42.83594322390854358673095703125</LatitudeDegrees>
              <LongitudeDegrees>-0.28966809622943401336669921875</LongitudeDegrees>
            </Position>
            <AltitudeMeters>2959.39990234375</AltitudeMeters>
            <DistanceMeters>14585.329967134</DistanceMeters>
          </Trackpoint>
          <Trackpoint>
            <Time>2022-08-22T07:37:51.000Z</Time>
            <Position>
              <LatitudeDegrees>42.8361189924180507659912109375</LatitudeDegrees>
              <LongitudeDegrees>-0.2896180562674999237060546875</LongitudeDegrees>
            </Position>
            <AltitudeMeters>2970.800048828125</AltitudeMeters>
            <DistanceMeters>14605.315194458</DistanceMeters>
          </Trackpoint>
          <Trackpoint>
            <Time>2022-08-22T07:38:03.000Z</Time>
            <Position>
              <LatitudeDegrees>42.836171798408031463623046875</LatitudeDegrees>
              <LongitudeDegrees>-0.2895459719002246856689453125</LongitudeDegrees>
            </Position>
            <AltitudeMeters>2971.800048828125</AltitudeMeters>
            <DistanceMeters>14613.630982178</DistanceMeters>
          </Trackpoint>
          <Trackpoint>
            <Time>2022-08-22T07:38:06.000Z</Time>
            <Position>
              <LatitudeDegrees>42.83618177287280559539794921875</LatitudeDegrees>
              <LongitudeDegrees>-0.28954538516700267791748046875</LongitudeDegrees>
            </Position>
            <AltitudeMeters>2972.60009765625</AltitudeMeters>
            <DistanceMeters>14614.739174578</DistanceMeters>
          </Trackpoint>
          <Trackpoint>
            <Time>2022-08-22T07:38:31.000Z</Time>
            <Position>
              <LatitudeDegrees>42.83624983392655849456787109375</LatitudeDegrees>
              <LongitudeDegrees>-0.2894707024097442626953125</LongitudeDegrees>
            </Position>
            <AltitudeMeters>2976.39990234375</AltitudeMeters>
            <DistanceMeters>14624.463059113</DistanceMeters>
          </Trackpoint>
          <Trackpoint>
            <Time>2022-08-22T07:38:50.000Z</Time>
            <Position>
              <LatitudeDegrees>42.83625536598265171051025390625</LatitudeDegrees>
              <LongitudeDegrees>-0.2894876338541507720947265625</LongitudeDegrees>
            </Position>
            <AltitudeMeters>2977.800048828125</AltitudeMeters>
            <DistanceMeters>14625.971561438</DistanceMeters>
          </Trackpoint>
          <Trackpoint>
            <Time>2022-08-22T07:39:02.000Z</Time>
            <Position>
              <LatitudeDegrees>42.83629895187914371490478515625</LatitudeDegrees>
              <LongitudeDegrees>-0.28944061137735843658447265625</LongitudeDegrees>
            </Position>
            <AltitudeMeters>2980.800048828125</AltitudeMeters>
            <DistanceMeters>14632.156333367</DistanceMeters>
          </Trackpoint>
          <Trackpoint>
            <Time>2022-08-22T07:39:21.000Z</Time>
            <Position>
              <LatitudeDegrees>42.836398780345916748046875</LatitudeDegrees>
              <LongitudeDegrees>-0.2894158847630023956298828125</LongitudeDegrees>
            </Position>
            <AltitudeMeters>2990.800048828125</AltitudeMeters>
            <DistanceMeters>14643.449329852</DistanceMeters>
          </Trackpoint>
          <Trackpoint>
            <Time>2022-08-22T07:39:31.000Z</Time>
            <Position>
              <LatitudeDegrees>42.8364629857242107391357421875</LatitudeDegrees>
              <LongitudeDegrees>-0.28945754282176494598388671875</LongitudeDegrees>
            </Position>
            <AltitudeMeters>2998</AltitudeMeters>
            <DistanceMeters>14651.362836037</DistanceMeters>
          </Trackpoint>
          <Trackpoint>
            <Time>2022-08-22T07:39:34.000Z</Time>
            <Position>
              <LatitudeDegrees>42.83648050390183925628662109375</LatitudeDegrees>
              <LongitudeDegrees>-0.28946039266884326934814453125</LongitudeDegrees>
            </Position>
            <AltitudeMeters>2999.39990234375</AltitudeMeters>
            <DistanceMeters>14653.326466003</DistanceMeters>
          </Trackpoint>
          <Trackpoint>
            <Time>2022-08-22T07:39:36.000Z</Time>
            <Position>
              <LatitudeDegrees>42.83648486249148845672607421875</LatitudeDegrees>
              <LongitudeDegrees>-0.2894648350775241851806640625</LongitudeDegrees>
            </Position>
            <AltitudeMeters>2999.800048828125</AltitudeMeters>
            <DistanceMeters>14653.927467715</DistanceMeters>
          </Trackpoint>
          <Trackpoint>
            <Time>2022-08-22T07:39:41.000Z</Time>
            <Position>
              <LatitudeDegrees>42.8365092538297176361083984375</LatitudeDegrees>
              <LongitudeDegrees>-0.28944681398570537567138671875</LongitudeDegrees>
            </Position>
            <AltitudeMeters>3001.60009765625</AltitudeMeters>
            <DistanceMeters>14657.015470423</DistanceMeters>
          </Trackpoint>
          <Trackpoint>
            <Time>2022-08-22T07:40:21.000Z</Time>
            <Position>
              <LatitudeDegrees>42.836621068418025970458984375</LatitudeDegrees>
              <LongitudeDegrees>-0.289355032145977020263671875</LongitudeDegrees>
            </Position>
            <AltitudeMeters>3008.800048828125</AltitudeMeters>
            <DistanceMeters>14671.541198156</DistanceMeters>
          </Trackpoint>
          <Trackpoint>
            <Time>2022-08-22T07:41:13.000Z</Time>
            <Position>
              <LatitudeDegrees>42.836741767823696136474609375</LatitudeDegrees>
              <LongitudeDegrees>-0.28938160277903079986572265625</LongitudeDegrees>
            </Position>
            <AltitudeMeters>3020.199951171875</AltitudeMeters>
            <DistanceMeters>14685.149607605</DistanceMeters>
          </Trackpoint>
          <Trackpoint>
            <Time>2022-08-22T07:41:24.000Z</Time>
            <Position>
              <LatitudeDegrees>42.8368207253515720367431640625</LatitudeDegrees>
              <LongitudeDegrees>-0.2893662638962268829345703125</LongitudeDegrees>
            </Position>
            <AltitudeMeters>3024</AltitudeMeters>
            <DistanceMeters>14694.026343888</DistanceMeters>
          </Trackpoint>
          <Trackpoint>
            <Time>2022-08-22T07:42:02.000Z</Time>
            <Position>
              <LatitudeDegrees>42.836956679821014404296875</LatitudeDegrees>
              <LongitudeDegrees>-0.28921999968588352203369140625</LongitudeDegrees>
            </Position>
            <AltitudeMeters>3031.199951171875</AltitudeMeters>
            <DistanceMeters>14713.300141769</DistanceMeters>
          </Trackpoint>
          <Trackpoint>
            <Time>2022-08-22T07:42:27.000Z</Time>
            <Position>
              <LatitudeDegrees>42.83699800260365009307861328125</LatitudeDegrees>
              <LongitudeDegrees>-0.28921580873429775238037109375</LongitudeDegrees>
            </Position>
            <AltitudeMeters>3032.199951171875</AltitudeMeters>
            <DistanceMeters>14717.912609666</DistanceMeters>
          </Trackpoint>
          <Trackpoint>
            <Time>2022-08-22T07:42:32.000Z</Time>
            <Position>
              <LatitudeDegrees>42.83698995597660541534423828125</LatitudeDegrees>
              <LongitudeDegrees>-0.28921530582010746002197265625</LongitudeDegrees>
            </Position>
            <AltitudeMeters>3032</AltitudeMeters>
            <DistanceMeters>14718.804039264</DistanceMeters>
          </Trackpoint>
          <Trackpoint>
            <Time>2022-08-22T07:42:33.000Z</Time>
            <Position>
              <LatitudeDegrees>42.83699029125273227691650390625</LatitudeDegrees>
              <LongitudeDegrees>-0.28921413235366344451904296875</LongitudeDegrees>
            </Position>
            <AltitudeMeters>3032.199951171875</AltitudeMeters>
            <DistanceMeters>14718.804039264</DistanceMeters>
          </Trackpoint>
          <Trackpoint>
            <Time>2022-08-22T07:42:38.000Z</Time>
            <Position>
              <LatitudeDegrees>42.836983837187290191650390625</LatitudeDegrees>
              <LongitudeDegrees>-0.28920709155499935150146484375</LongitudeDegrees>
            </Position>
            <AltitudeMeters>3032.199951171875</AltitudeMeters>
            <DistanceMeters>14719.725357442</DistanceMeters>
          </Trackpoint>
          <Trackpoint>
            <Time>2022-08-22T07:43:08.000Z</Time>
            <Position>
              <LatitudeDegrees>42.837041504681110382080078125</LatitudeDegrees>
              <LongitudeDegrees>-0.28914204798638820648193359375</LongitudeDegrees>
            </Position>
            <AltitudeMeters>3035.60009765625</AltitudeMeters>
            <DistanceMeters>14728.054707796</DistanceMeters>
          </Trackpoint>
          <Trackpoint>
            <Time>2022-08-22T07:43:17.000Z</Time>
            <Position>
              <LatitudeDegrees>42.8370641358196735382080078125</LatitudeDegrees>
              <LongitudeDegrees>-0.2891235239803791046142578125</LongitudeDegrees>
            </Position>
            <AltitudeMeters>3038.39990234375</AltitudeMeters>
            <DistanceMeters>14730.991325409</DistanceMeters>
          </Trackpoint>
          <Trackpoint>
            <Time>2022-08-22T07:43:45.000Z</Time>
            <Position>
              <LatitudeDegrees>42.8371298499405384063720703125</LatitudeDegrees>
              <LongitudeDegrees>-0.28912025503814220428466796875</LongitudeDegrees>
            </Position>
            <AltitudeMeters>3045.199951171875</AltitudeMeters>
            <DistanceMeters>14738.310233351</DistanceMeters>
          </Trackpoint>
          <Trackpoint>
            <Time>2022-08-22T07:44:23.000Z</Time>
            <Position>
              <LatitudeDegrees>42.837251387536525726318359375</LatitudeDegrees>
              <LongitudeDegrees>-0.289132408797740936279296875</LongitudeDegrees>
            </Position>
            <AltitudeMeters>3057.60009765625</AltitudeMeters>
            <DistanceMeters>14751.874111022</DistanceMeters>
          </Trackpoint>
          <Trackpoint>
            <Time>2022-08-22T07:44:28.000Z</Time>
            <Position>
              <LatitudeDegrees>42.8372840769588947296142578125</LatitudeDegrees>
              <LongitudeDegrees>-0.28915160335600376129150390625</LongitudeDegrees>
            </Position>
            <AltitudeMeters>3059.60009765625</AltitudeMeters>
            <DistanceMeters>14755.835710807</DistanceMeters>
          </Trackpoint>
          <Trackpoint>
            <Time>2022-08-22T07:44:46.000Z</Time>
            <Position>
              <LatitudeDegrees>42.83733746968209743499755859375</LatitudeDegrees>
              <LongitudeDegrees>-0.2891047485172748565673828125</LongitudeDegrees>
            </Position>
            <AltitudeMeters>3066.39990234375</AltitudeMeters>
            <DistanceMeters>14762.902913423</DistanceMeters>
          </Trackpoint>
          <Trackpoint>
            <Time>2022-08-22T07:44:57.000Z</Time>
            <Position>
              <LatitudeDegrees>42.8373621962964534759521484375</LatitudeDegrees>
              <LongitudeDegrees>-0.2890973724424839019775390625</LongitudeDegrees>
            </Position>
            <AltitudeMeters>3068</AltitudeMeters>
            <DistanceMeters>14765.720259194</DistanceMeters>
          </Trackpoint>
          <Trackpoint>
            <Time>2022-08-22T07:44:59.000Z</Time>
            <Position>
              <LatitudeDegrees>42.83736110664904117584228515625</LatitudeDegrees>
              <LongitudeDegrees>-0.2890960313379764556884765625</LongitudeDegrees>
            </Position>
            <AltitudeMeters>3068</AltitudeMeters>
            <DistanceMeters>14765.854647262</DistanceMeters>
          </Trackpoint>
          <Trackpoint>
            <Time>2022-08-22T07:45:01.000Z</Time>
            <Position>
              <LatitudeDegrees>42.837358675897121429443359375</LatitudeDegrees>
              <LongitudeDegrees>-0.28909879736602306365966796875</LongitudeDegrees>
            </Position>
            <AltitudeMeters>3067.800048828125</AltitudeMeters>
            <DistanceMeters>14766.21020467</DistanceMeters>
          </Trackpoint>
          <Trackpoint>
            <Time>2022-08-22T07:45:12.000Z</Time>
            <Position>
              <LatitudeDegrees>42.83734853379428386688232421875</LatitudeDegrees>
              <LongitudeDegrees>-0.289125032722949981689453125</LongitudeDegrees>
            </Position>
            <AltitudeMeters>3064.800048828125</AltitudeMeters>
            <DistanceMeters>14768.632920024</DistanceMeters>
          </Trackpoint>
          <Trackpoint>
            <Time>2022-08-22T07:45:27.000Z</Time>
            <Position>
              <LatitudeDegrees>42.837357334792613983154296875</LatitudeDegrees>
              <LongitudeDegrees>-0.2891184948384761810302734375</LongitudeDegrees>
            </Position>
            <AltitudeMeters>3066</AltitudeMeters>
            <DistanceMeters>14769.749231159</DistanceMeters>
          </Trackpoint>
          <Trackpoint>
            <Time>2022-08-22T07:45:36.000Z</Time>
            <Position>
              <LatitudeDegrees>42.8374041058123111724853515625</LatitudeDegrees>
              <LongitudeDegrees>-0.28912939131259918212890625</LongitudeDegrees>
            </Position>
            <AltitudeMeters>3067.39990234375</AltitudeMeters>
            <DistanceMeters>14775.029844387</DistanceMeters>
          </Trackpoint>
          <Trackpoint>
            <Time>2022-08-22T07:45:43.000Z</Time>
            <Position>
              <LatitudeDegrees>42.8374543972313404083251953125</LatitudeDegrees>
              <LongitudeDegrees>-0.2891422994434833526611328125</LongitudeDegrees>
            </Position>
            <AltitudeMeters>3068.60009765625</AltitudeMeters>
            <DistanceMeters>14780.725901327</DistanceMeters>
          </Trackpoint>
          <Trackpoint>
            <Time>2022-08-22T07:45:54.000Z</Time>
            <Position>
              <LatitudeDegrees>42.83749781548976898193359375</LatitudeDegrees>
              <LongitudeDegrees>-0.2891433052718639373779296875</LongitudeDegrees>
            </Position>
            <AltitudeMeters>3070.800048828125</AltitudeMeters>
            <DistanceMeters>14785.56013734</DistanceMeters>
          </Trackpoint>
          <Trackpoint>
            <Time>2022-08-22T07:45:56.000Z</Time>
            <Position>
              <LatitudeDegrees>42.837507538497447967529296875</LatitudeDegrees>
              <LongitudeDegrees>-0.28914548456668853759765625</LongitudeDegrees>
            </Position>
            <AltitudeMeters>3071.199951171875</AltitudeMeters>
            <DistanceMeters>14786.664247987</DistanceMeters>
          </Trackpoint>
          <Trackpoint>
            <Time>2022-08-22T07:45:57.000Z</Time>
            <Position>
              <LatitudeDegrees>42.83751524984836578369140625</LatitudeDegrees>
              <LongitudeDegrees>-0.289144814014434814453125</LongitudeDegrees>
            </Position>
            <AltitudeMeters>3071.60009765625</AltitudeMeters>
            <DistanceMeters>14787.53518221</DistanceMeters>
          </Trackpoint>
          <Trackpoint>
            <Time>2022-08-22T07:45:58.000Z</Time>
            <Position>
              <LatitudeDegrees>42.8375237993896007537841796875</LatitudeDegrees>
              <LongitudeDegrees>-0.28914489783346652984619140625</LongitudeDegrees>
            </Position>
            <AltitudeMeters>3072.199951171875</AltitudeMeters>
            <DistanceMeters>14788.49018887</DistanceMeters>
          </Trackpoint>
          <Trackpoint>
            <Time>2022-08-22T07:46:02.000Z</Time>
            <Position>
              <LatitudeDegrees>42.83756394870579242706298828125</LatitudeDegrees>
              <LongitudeDegrees>-0.28915110044181346893310546875</LongitudeDegrees>
            </Position>
            <AltitudeMeters>3074.39990234375</AltitudeMeters>
            <DistanceMeters>14792.98767386</DistanceMeters>
          </Trackpoint>
          <Trackpoint>
            <Time>2022-08-22T07:46:06.000Z</Time>
            <Position>
              <LatitudeDegrees>42.83761390484869480133056640625</LatitudeDegrees>
              <LongitudeDegrees>-0.28914858587086200714111328125</LongitudeDegrees>
            </Position>
            <AltitudeMeters>3078.199951171875</AltitudeMeters>
            <DistanceMeters>14798.553027596</DistanceMeters>
          </Trackpoint>
          <Trackpoint>
            <Time>2022-08-22T07:46:07.000Z</Time>
            <Position>
              <LatitudeDegrees>42.83762010745704174041748046875</LatitudeDegrees>
              <LongitudeDegrees>-0.28915227390825748443603515625</LongitudeDegrees>
            </Position>
            <AltitudeMeters>3078</AltitudeMeters>
            <DistanceMeters>14799.307278758</DistanceMeters>
          </Trackpoint>
          <Trackpoint>
            <Time>2022-08-22T07:46:08.000Z</Time>
            <Position>
              <LatitudeDegrees>42.83762731589376926422119140625</LatitudeDegrees>
              <LongitudeDegrees>-0.28915344737470149993896484375</LongitudeDegrees>
            </Position>
            <AltitudeMeters>3078</AltitudeMeters>
            <DistanceMeters>14800.119187362</DistanceMeters>
          </Trackpoint>
          <Trackpoint>
            <Time>2022-08-22T07:46:11.000Z</Time>
            <Position>
              <LatitudeDegrees>42.8376538865268230438232421875</LatitudeDegrees>
              <LongitudeDegrees>-0.2891614101827144622802734375</LongitudeDegrees>
            </Position>
            <AltitudeMeters>3077.60009765625</AltitudeMeters>
            <DistanceMeters>14803.148140591</DistanceMeters>
          </Trackpoint>
          <Trackpoint>
            <Time>2022-08-22T07:46:15.000Z</Time>
            <Position>
              <LatitudeDegrees>42.8376803733408451080322265625</LatitudeDegrees>
              <LongitudeDegrees>-0.2891419641673564910888671875</LongitudeDegrees>
            </Position>
            <AltitudeMeters>3078.60009765625</AltitudeMeters>
            <DistanceMeters>14806.497073995</DistanceMeters>
          </Trackpoint>
          <Trackpoint>
            <Time>2022-08-22T07:46:16.000Z</Time>
            <Position>
              <LatitudeDegrees>42.83768950961530208587646484375</LatitudeDegrees>
              <LongitudeDegrees>-0.2891379408538341522216796875</LongitudeDegrees>
            </Position>
            <AltitudeMeters>3078.800048828125</AltitudeMeters>
            <DistanceMeters>14807.567970679</DistanceMeters>
          </Trackpoint>
          <Trackpoint>
            <Time>2022-08-22T07:46:17.000Z</Time>
            <Position>
              <LatitudeDegrees>42.837693952023983001708984375</LatitudeDegrees>
              <LongitudeDegrees>-0.289134420454502105712890625</LongitudeDegrees>
            </Position>
            <AltitudeMeters>3078.800048828125</AltitudeMeters>
            <DistanceMeters>14808.138130966</DistanceMeters>
          </Trackpoint>
          <Trackpoint>
            <Time>2022-08-22T07:46:22.000Z</Time>
            <Position>
              <LatitudeDegrees>42.8377145715057849884033203125</LatitudeDegrees>
              <LongitudeDegrees>-0.28911103494465351104736328125</LongitudeDegrees>
            </Position>
            <AltitudeMeters>3079.800048828125</AltitudeMeters>
            <DistanceMeters>14811.122030323</DistanceMeters>
          </Trackpoint>
          <Trackpoint>
            <Time>2022-08-22T07:46:23.000Z</Time>
            <Position>
              <LatitudeDegrees>42.83772655762732028961181640625</LatitudeDegrees>
              <LongitudeDegrees>-0.28911120258271694183349609375</LongitudeDegrees>
            </Position>
            <AltitudeMeters>3079.800048828125</AltitudeMeters>
            <DistanceMeters>14812.452404324</DistanceMeters>
          </Trackpoint>
          <Trackpoint>
            <Time>2022-08-22T07:46:30.000Z</Time>
            <Position>
              <LatitudeDegrees>42.83777299337089061737060546875</LatitudeDegrees>
              <LongitudeDegrees>-0.28911120258271694183349609375</LongitudeDegrees>
            </Position>
            <AltitudeMeters>3079.800048828125</AltitudeMeters>
            <DistanceMeters>14817.620669615</DistanceMeters>
          </Trackpoint>
          <Trackpoint>
            <Time>2022-08-22T07:46:35.000Z</Time>
            <Position>
              <LatitudeDegrees>42.837810628116130828857421875</LatitudeDegrees>
              <LongitudeDegrees>-0.28910667635500431060791015625</LongitudeDegrees>
            </Position>
            <AltitudeMeters>3080</AltitudeMeters>
            <DistanceMeters>14821.825534616</DistanceMeters>
          </Trackpoint>
          <Trackpoint>
            <Time>2022-08-22T07:46:36.000Z</Time>
            <Position>
              <LatitudeDegrees>42.83782043494284152984619140625</LatitudeDegrees>
              <LongitudeDegrees>-0.28910516761243343353271484375</LongitudeDegrees>
            </Position>
            <AltitudeMeters>3080.199951171875</AltitudeMeters>
            <DistanceMeters>14822.925548363</DistanceMeters>
          </Trackpoint>
          <Trackpoint>
            <Time>2022-08-22T07:46:38.000Z</Time>
            <Position>
              <LatitudeDegrees>42.83782965503633022308349609375</LatitudeDegrees>
              <LongitudeDegrees>-0.2891034074127674102783203125</LongitudeDegrees>
            </Position>
            <AltitudeMeters>3080.199951171875</AltitudeMeters>
            <DistanceMeters>14823.962167434</DistanceMeters>
          </Trackpoint>
          <Trackpoint>
            <Time>2022-08-22T07:46:41.000Z</Time>
            <Position>
              <LatitudeDegrees>42.83785463310778141021728515625</LatitudeDegrees>
              <LongitudeDegrees>-0.28910734690725803375244140625</LongitudeDegrees>
            </Position>
            <AltitudeMeters>3080</AltitudeMeters>
            <DistanceMeters>14826.760216089</DistanceMeters>
          </Trackpoint>
          <Trackpoint>
            <Time>2022-08-22T07:46:42.000Z</Time>
            <Position>
              <LatitudeDegrees>42.837866954505443572998046875</LatitudeDegrees>
              <LongitudeDegrees>-0.2891127951443195343017578125</LongitudeDegrees>
            </Position>
            <AltitudeMeters>3079.800048828125</AltitudeMeters>
            <DistanceMeters>14828.198231216</DistanceMeters>
          </Trackpoint>
          <Trackpoint>
            <Time>2022-08-22T07:46:43.000Z</Time>
            <Position>
              <LatitudeDegrees>42.837866954505443572998046875</LatitudeDegrees>
              <LongitudeDegrees>-0.2891127951443195343017578125</LongitudeDegrees>
            </Position>
            <AltitudeMeters>3079.800048828125</AltitudeMeters>
            <DistanceMeters>14828.198231216</DistanceMeters>
          </Trackpoint>
          <Trackpoint>
            <Time>2022-08-22T07:46:44.000Z</Time>
            <Position>
              <LatitudeDegrees>42.83787474967539310455322265625</LatitudeDegrees>
              <LongitudeDegrees>-0.28911472298204898834228515625</LongitudeDegrees>
            </Position>
            <AltitudeMeters>3079.39990234375</AltitudeMeters>
            <DistanceMeters>14829.079472712</DistanceMeters>
          </Trackpoint>
          <Trackpoint>
            <Time>2022-08-22T07:46:46.000Z</Time>
            <Position>
              <LatitudeDegrees>42.837892435491085052490234375</LatitudeDegrees>
              <LongitudeDegrees>-0.2891246974468231201171875</LongitudeDegrees>
            </Position>
            <AltitudeMeters>3078.199951171875</AltitudeMeters>
            <DistanceMeters>14831.208580125</DistanceMeters>
          </Trackpoint>
          <Trackpoint>
            <Time>2022-08-22T07:46:47.000Z</Time>
            <Position>
              <LatitudeDegrees>42.83789486624300479888916015625</LatitudeDegrees>
              <LongitudeDegrees>-0.2891275472939014434814453125</LongitudeDegrees>
            </Position>
            <AltitudeMeters>3078</AltitudeMeters>
            <DistanceMeters>14831.564137532</DistanceMeters>
          </Trackpoint>
          <Trackpoint>
            <Time>2022-08-22T07:46:52.000Z</Time>
            <Position>
              <LatitudeDegrees>42.8379182517528533935546875</LatitudeDegrees>
              <LongitudeDegrees>-0.28913282789289951324462890625</LongitudeDegrees>
            </Position>
            <AltitudeMeters>3077</AltitudeMeters>
            <DistanceMeters>14834.201021842</DistanceMeters>
          </Trackpoint>
          <Trackpoint>
            <Time>2022-08-22T07:46:59.000Z</Time>
            <Position>
              <LatitudeDegrees>42.83797365613281726837158203125</LatitudeDegrees>
              <LongitudeDegrees>-0.28915621340274810791015625</LongitudeDegrees>
            </Position>
            <AltitudeMeters>3074</AltitudeMeters>
            <DistanceMeters>14840.656546824</DistanceMeters>
          </Trackpoint>
          <Trackpoint>
            <Time>2022-08-22T07:47:27.000Z</Time>
            <Position>
              <LatitudeDegrees>42.83810558728873729705810546875</LatitudeDegrees>
              <LongitudeDegrees>-0.28907180763781070709228515625</LongitudeDegrees>
            </Position>
            <AltitudeMeters>3073.800048828125</AltitudeMeters>
            <DistanceMeters>14856.876357153</DistanceMeters>
          </Trackpoint>
          <Trackpoint>
            <Time>2022-08-22T07:47:33.000Z</Time>
            <Position>
              <LatitudeDegrees>42.8381276316940784454345703125</LatitudeDegrees>
              <LongitudeDegrees>-0.28908270411193370819091796875</LongitudeDegrees>
            </Position>
            <AltitudeMeters>3073.199951171875</AltitudeMeters>
            <DistanceMeters>14859.489159823</DistanceMeters>
          </Trackpoint>
          <Trackpoint>
            <Time>2022-08-22T07:47:35.000Z</Time>
            <Position>
              <LatitudeDegrees>42.83814012072980403900146484375</LatitudeDegrees>
              <LongitudeDegrees>-0.2890859730541706085205078125</LongitudeDegrees>
            </Position>
            <AltitudeMeters>3073</AltitudeMeters>
            <DistanceMeters>14860.905025978</DistanceMeters>
          </Trackpoint>
          <Trackpoint>
            <Time>2022-08-22T07:47:45.000Z</Time>
            <Position>
              <LatitudeDegrees>42.83818001858890056610107421875</LatitudeDegrees>
              <LongitudeDegrees>-0.28908974491059780120849609375</LongitudeDegrees>
            </Position>
            <AltitudeMeters>3072.800048828125</AltitudeMeters>
            <DistanceMeters>14865.358120169</DistanceMeters>
          </Trackpoint>
          <Trackpoint>
            <Time>2022-08-22T07:47:53.000Z</Time>
            <Position>
              <LatitudeDegrees>42.838227041065692901611328125</LatitudeDegrees>
              <LongitudeDegrees>-0.28914682567119598388671875</LongitudeDegrees>
            </Position>
            <AltitudeMeters>3077.60009765625</AltitudeMeters>
            <DistanceMeters>14872.365011464</DistanceMeters>
          </Trackpoint>
          <Trackpoint>
            <Time>2022-08-22T07:47:58.000Z</Time>
            <Position>
              <LatitudeDegrees>42.83824724145233631134033203125</LatitudeDegrees>
              <LongitudeDegrees>-0.289183370769023895263671875</LongitudeDegrees>
            </Position>
            <AltitudeMeters>3080</AltitudeMeters>
            <DistanceMeters>14876.098968886</DistanceMeters>
          </Trackpoint>
          <Trackpoint>
            <Time>2022-08-22T07:48:02.000Z</Time>
            <Position>
              <LatitudeDegrees>42.838276326656341552734375</LatitudeDegrees>
              <LongitudeDegrees>-0.28919636271893978118896484375</LongitudeDegrees>
            </Position>
            <AltitudeMeters>3081.60009765625</AltitudeMeters>
            <DistanceMeters>14879.505381696</DistanceMeters>
          </Trackpoint>
          <Trackpoint>
            <Time>2022-08-22T07:48:20.000Z</Time>
            <Position>
              <LatitudeDegrees>42.8383415378630161285400390625</LatitudeDegrees>
              <LongitudeDegrees>-0.2894316427409648895263671875</LongitudeDegrees>
            </Position>
            <AltitudeMeters>3104</AltitudeMeters>
            <DistanceMeters>14900.033351575</DistanceMeters>
          </Trackpoint>
          <Trackpoint>
            <Time>2022-08-22T07:48:23.000Z</Time>
            <Position>
              <LatitudeDegrees>42.83837263472378253936767578125</LatitudeDegrees>
              <LongitudeDegrees>-0.2894358336925506591796875</LongitudeDegrees>
            </Position>
            <AltitudeMeters>3106.800048828125</AltitudeMeters>
            <DistanceMeters>14903.511900473</DistanceMeters>
          </Trackpoint>
          <Trackpoint>
            <Time>2022-08-22T07:48:25.000Z</Time>
            <Position>
              <LatitudeDegrees>42.8383911587297916412353515625</LatitudeDegrees>
              <LongitudeDegrees>-0.28942317701876163482666015625</LongitudeDegrees>
            </Position>
            <AltitudeMeters>3108.199951171875</AltitudeMeters>
            <DistanceMeters>14905.818134421</DistanceMeters>
          </Trackpoint>
          <Trackpoint>
            <Time>2022-08-22T07:48:28.000Z</Time>
            <Position>
              <LatitudeDegrees>42.83841839991509914398193359375</LatitudeDegrees>
              <LongitudeDegrees>-0.2894318103790283203125</LongitudeDegrees>
            </Position>
            <AltitudeMeters>3110.39990234375</AltitudeMeters>
            <DistanceMeters>14908.930893972</DistanceMeters>
          </Trackpoint>
          <Trackpoint>
            <Time>2022-08-22T07:48:39.000Z</Time>
            <Position>
              <LatitudeDegrees>42.838477157056331634521484375</LatitudeDegrees>
              <LongitudeDegrees>-0.28952543623745441436767578125</LongitudeDegrees>
            </Position>
            <AltitudeMeters>3110.60009765625</AltitudeMeters>
            <DistanceMeters>14918.988474016</DistanceMeters>
          </Trackpoint>
          <Trackpoint>
            <Time>2022-08-22T07:48:44.000Z</Time>
            <Position>
              <LatitudeDegrees>42.8384870477020740509033203125</LatitudeDegrees>
              <LongitudeDegrees>-0.289623923599720001220703125</LongitudeDegrees>
            </Position>
            <AltitudeMeters>3111</AltitudeMeters>
            <DistanceMeters>14927.101997127</DistanceMeters>
          </Trackpoint>
          <Trackpoint>
            <Time>2022-08-22T07:49:00.000Z</Time>
            <Position>
              <LatitudeDegrees>42.83859257586300373077392578125</LatitudeDegrees>
              <LongitudeDegrees>-0.28981268405914306640625</LongitudeDegrees>
            </Position>
            <AltitudeMeters>3109.39990234375</AltitudeMeters>
            <DistanceMeters>14946.474865711</DistanceMeters>
          </Trackpoint>
          <Trackpoint>
            <Time>2022-08-22T07:49:16.000Z</Time>
            <Position>
              <LatitudeDegrees>42.83871511928737163543701171875</LatitudeDegrees>
              <LongitudeDegrees>-0.28998426161706447601318359375</LongitudeDegrees>
            </Position>
            <AltitudeMeters>3113.39990234375</AltitudeMeters>
            <DistanceMeters>14966.023133536</DistanceMeters>
          </Trackpoint>
          <Trackpoint>
            <Time>2022-08-22T07:49:32.000Z</Time>
            <Position>
              <LatitudeDegrees>42.838850319385528564453125</LatitudeDegrees>
              <LongitudeDegrees>-0.290146283805370330810546875</LongitudeDegrees>
            </Position>
            <AltitudeMeters>3107.39990234375</AltitudeMeters>
            <DistanceMeters>14986.055747625</DistanceMeters>
          </Trackpoint>
          <Trackpoint>
            <Time>2022-08-22T07:49:55.000Z</Time>
            <Position>
              <LatitudeDegrees>42.83896230161190032958984375</LatitudeDegrees>
              <LongitudeDegrees>-0.2902808971703052520751953125</LongitudeDegrees>
            </Position>
            <AltitudeMeters>3104.60009765625</AltitudeMeters>
            <DistanceMeters>15002.670211408</DistanceMeters>
          </Trackpoint>
          <Trackpoint>
            <Time>2022-08-22T07:50:08.000Z</Time>
            <Position>
              <LatitudeDegrees>42.83896087668836116790771484375</LatitudeDegrees>
              <LongitudeDegrees>-0.290272347629070281982421875</LongitudeDegrees>
            </Position>
            <AltitudeMeters>3104.60009765625</AltitudeMeters>
            <DistanceMeters>15003.381326224</DistanceMeters>
          </Trackpoint>
          <Trackpoint>
            <Time>2022-08-22T07:50:14.000Z</Time>
            <Position>
              <LatitudeDegrees>42.83896104432642459869384765625</LatitudeDegrees>
              <LongitudeDegrees>-0.29027192853391170501708984375</LongitudeDegrees>
            </Position>
            <AltitudeMeters>3104.60009765625</AltitudeMeters>
            <DistanceMeters>15003.381326224</DistanceMeters>
          </Trackpoint>
          <Trackpoint>
            <Time>2022-08-22T08:12:42.000Z</Time>
            <Position>
              <LatitudeDegrees>42.83893640153110027313232421875</LatitudeDegrees>
              <LongitudeDegrees>-0.29030059464275836944580078125</LongitudeDegrees>
            </Position>
            <AltitudeMeters>3103.39990234375</AltitudeMeters>
            <DistanceMeters>15006.986084191</DistanceMeters>
          </Trackpoint>
          <Trackpoint>
            <Time>2022-08-22T08:12:43.000Z</Time>
            <Position>
              <LatitudeDegrees>42.8389348089694976806640625</LatitudeDegrees>
              <LongitudeDegrees>-0.290300510823726654052734375</LongitudeDegrees>
            </Position>
            <AltitudeMeters>3103.39990234375</AltitudeMeters>
            <DistanceMeters>15007.17613762</DistanceMeters>
          </Trackpoint>
          <Trackpoint>
            <Time>2022-08-22T08:12:48.000Z</Time>
            <Position>
              <LatitudeDegrees>42.838931120932102203369140625</LatitudeDegrees>
              <LongitudeDegrees>-0.29029204510152339935302734375</LongitudeDegrees>
            </Position>
            <AltitudeMeters>3103.39990234375</AltitudeMeters>
            <DistanceMeters>15007.982466029</DistanceMeters>
          </Trackpoint>
          <Trackpoint>
            <Time>2022-08-22T08:12:52.000Z</Time>
            <Position>
              <LatitudeDegrees>42.83893154002726078033447265625</LatitudeDegrees>
              <LongitudeDegrees>-0.29030017554759979248046875</LongitudeDegrees>
            </Position>
            <AltitudeMeters>3103.39990234375</AltitudeMeters>
            <DistanceMeters>15008.64765303</DistanceMeters>
          </Trackpoint>
          <Trackpoint>
            <Time>2022-08-22T08:12:58.000Z</Time>
            <Position>
              <LatitudeDegrees>42.8389376588165760040283203125</LatitudeDegrees>
              <LongitudeDegrees>-0.29030679725110530853271484375</LongitudeDegrees>
            </Position>
            <AltitudeMeters>3103.39990234375</AltitudeMeters>
            <DistanceMeters>15009.513387599</DistanceMeters>
          </Trackpoint>
          <Trackpoint>
            <Time>2022-08-22T08:13:08.000Z</Time>
            <Position>
              <LatitudeDegrees>42.83893707208335399627685546875</LatitudeDegrees>
              <LongitudeDegrees>-0.29030947946012020111083984375</LongitudeDegrees>
            </Position>
            <AltitudeMeters>3103.39990234375</AltitudeMeters>
            <DistanceMeters>15009.725873792</DistanceMeters>
          </Trackpoint>
          <Trackpoint>
            <Time>2022-08-22T08:13:23.000Z</Time>
            <Position>
              <LatitudeDegrees>42.83891645260155200958251953125</LatitudeDegrees>
              <LongitudeDegrees>-0.29026740230619907379150390625</LongitudeDegrees>
            </Position>
            <AltitudeMeters>3103.800048828125</AltitudeMeters>
            <DistanceMeters>15013.855984493</DistanceMeters>
          </Trackpoint>
          <Trackpoint>
            <Time>2022-08-22T08:13:24.000Z</Time>
            <Position>
              <LatitudeDegrees>42.8389007784426212310791015625</LatitudeDegrees>
              <LongitudeDegrees>-0.2902433462440967559814453125</LongitudeDegrees>
            </Position>
            <AltitudeMeters>3104.60009765625</AltitudeMeters>
            <DistanceMeters>15016.482575136</DistanceMeters>
          </Trackpoint>
          <Trackpoint>
            <Time>2022-08-22T08:13:34.000Z</Time>
            <Position>
              <LatitudeDegrees>42.8388581983745098114013671875</LatitudeDegrees>
              <LongitudeDegrees>-0.29014251194894313812255859375</LongitudeDegrees>
            </Position>
            <AltitudeMeters>3107.60009765625</AltitudeMeters>
            <DistanceMeters>15025.979543259</DistanceMeters>
          </Trackpoint>
          <Trackpoint>
            <Time>2022-08-22T08:13:42.000Z</Time>
            <Position>
              <LatitudeDegrees>42.83881821669638156890869140625</LatitudeDegrees>
              <LongitudeDegrees>-0.29010093770921230316162109375</LongitudeDegrees>
            </Position>
            <AltitudeMeters>3108.60009765625</AltitudeMeters>
            <DistanceMeters>15031.575640569</DistanceMeters>
          </Trackpoint>
          <Trackpoint>
            <Time>2022-08-22T08:13:59.000Z</Time>
            <Position>
              <LatitudeDegrees>42.83868896774947643280029296875</LatitudeDegrees>
              <LongitudeDegrees>-0.28991527855396270751953125</LongitudeDegrees>
            </Position>
            <AltitudeMeters>3114.199951171875</AltitudeMeters>
            <DistanceMeters>15052.469203825</DistanceMeters>
          </Trackpoint>
          <Trackpoint>
            <Time>2022-08-22T08:14:02.000Z</Time>
            <Position>
              <LatitudeDegrees>42.83866382203996181488037109375</LatitudeDegrees>
              <LongitudeDegrees>-0.28987596742808818817138671875</LongitudeDegrees>
            </Position>
            <AltitudeMeters>3113</AltitudeMeters>
            <DistanceMeters>15056.726358206</DistanceMeters>
          </Trackpoint>
          <Trackpoint>
            <Time>2022-08-22T08:14:10.000Z</Time>
            <Position>
              <LatitudeDegrees>42.8386110998690128326416015625</LatitudeDegrees>
              <LongitudeDegrees>-0.289772115647792816162109375</LongitudeDegrees>
            </Position>
            <AltitudeMeters>3110.199951171875</AltitudeMeters>
            <DistanceMeters>15067.035771368</DistanceMeters>
          </Trackpoint>
          <Trackpoint>
            <Time>2022-08-22T08:14:14.000Z</Time>
            <Position>
              <LatitudeDegrees>42.83856592141091823577880859375</LatitudeDegrees>
              <LongitudeDegrees>-0.2897494845092296600341796875</LongitudeDegrees>
            </Position>
            <AltitudeMeters>3110</AltitudeMeters>
            <DistanceMeters>15072.392783869</DistanceMeters>
          </Trackpoint>
          <Trackpoint>
            <Time>2022-08-22T08:14:16.000Z</Time>
            <Position>
              <LatitudeDegrees>42.838546223938465118408203125</LatitudeDegrees>
              <LongitudeDegrees>-0.28973020613193511962890625</LongitudeDegrees>
            </Position>
            <AltitudeMeters>3110.39990234375</AltitudeMeters>
            <DistanceMeters>15075.090605512</DistanceMeters>
          </Trackpoint>
          <Trackpoint>
            <Time>2022-08-22T08:14:18.000Z</Time>
            <Position>
              <LatitudeDegrees>42.83852107822895050048828125</LatitudeDegrees>
              <LongitudeDegrees>-0.28971067629754543304443359375</LongitudeDegrees>
            </Position>
            <AltitudeMeters>3110.60009765625</AltitudeMeters>
            <DistanceMeters>15078.310314778</DistanceMeters>
          </Trackpoint>
          <Trackpoint>
            <Time>2022-08-22T08:14:23.000Z</Time>
            <Position>
              <LatitudeDegrees>42.83848260529339313507080078125</LatitudeDegrees>
              <LongitudeDegrees>-0.28963674791157245635986328125</LongitudeDegrees>
            </Position>
            <AltitudeMeters>3111.199951171875</AltitudeMeters>
            <DistanceMeters>15085.708985158</DistanceMeters>
          </Trackpoint>
          <Trackpoint>
            <Time>2022-08-22T08:14:32.000Z</Time>
            <Position>
              <LatitudeDegrees>42.8384493291378021240234375</LatitudeDegrees>
              <LongitudeDegrees>-0.2894916571676731109619140625</LongitudeDegrees>
            </Position>
            <AltitudeMeters>3110.800048828125</AltitudeMeters>
            <DistanceMeters>15098.116068343</DistanceMeters>
          </Trackpoint>
          <Trackpoint>
            <Time>2022-08-22T08:14:33.000Z</Time>
            <Position>
              <LatitudeDegrees>42.83844597637653350830078125</LatitudeDegrees>
              <LongitudeDegrees>-0.28947531245648860931396484375</LongitudeDegrees>
            </Position>
            <AltitudeMeters>3110.800048828125</AltitudeMeters>
            <DistanceMeters>15099.50618933</DistanceMeters>
          </Trackpoint>
          <Trackpoint>
            <Time>2022-08-22T08:14:34.000Z</Time>
            <Position>
              <LatitudeDegrees>42.8384380973875522613525390625</LatitudeDegrees>
              <LongitudeDegrees>-0.289460308849811553955078125</LongitudeDegrees>
            </Position>
            <AltitudeMeters>3111</AltitudeMeters>
            <DistanceMeters>15101.014691655</DistanceMeters>
          </Trackpoint>
          <Trackpoint>
            <Time>2022-08-22T08:14:35.000Z</Time>
            <Position>
              <LatitudeDegrees>42.8384273685514926910400390625</LatitudeDegrees>
              <LongitudeDegrees>-0.28945150785148143768310546875</LongitudeDegrees>
            </Position>
            <AltitudeMeters>3111</AltitudeMeters>
            <DistanceMeters>15102.411293427</DistanceMeters>
          </Trackpoint>
          <Trackpoint>
            <Time>2022-08-22T08:14:40.000Z</Time>
            <Position>
              <LatitudeDegrees>42.83837799914181232452392578125</LatitudeDegrees>
              <LongitudeDegrees>-0.28939769603312015533447265625</LongitudeDegrees>
            </Position>
            <AltitudeMeters>3106.800048828125</AltitudeMeters>
            <DistanceMeters>15109.445838111</DistanceMeters>
          </Trackpoint>
          <Trackpoint>
            <Time>2022-08-22T08:14:41.000Z</Time>
            <Position>
              <LatitudeDegrees>42.83836760558187961578369140625</LatitudeDegrees>
              <LongitudeDegrees>-0.2893904037773609161376953125</LongitudeDegrees>
            </Position>
            <AltitudeMeters>3105.60009765625</AltitudeMeters>
            <DistanceMeters>15110.745308886</DistanceMeters>
          </Trackpoint>
          <Trackpoint>
            <Time>2022-08-22T08:14:44.000Z</Time>
            <Position>
              <LatitudeDegrees>42.8383388556540012359619140625</LatitudeDegrees>
              <LongitudeDegrees>-0.289401300251483917236328125</LongitudeDegrees>
            </Position>
            <AltitudeMeters>3103.199951171875</AltitudeMeters>
            <DistanceMeters>15114.067168819</DistanceMeters>
          </Trackpoint>
          <Trackpoint>
            <Time>2022-08-22T08:14:47.000Z</Time>
            <Position>
              <LatitudeDegrees>42.8383160568773746490478515625</LatitudeDegrees>
              <LongitudeDegrees>-0.289401970803737640380859375</LongitudeDegrees>
            </Position>
            <AltitudeMeters>3101.199951171875</AltitudeMeters>
            <DistanceMeters>15116.606356599</DistanceMeters>
          </Trackpoint>
          <Trackpoint>
            <Time>2022-08-22T08:14:48.000Z</Time>
            <Position>
              <LatitudeDegrees>42.838309518992900848388671875</LatitudeDegrees>
              <LongitudeDegrees>-0.28939090669155120849609375</LongitudeDegrees>
            </Position>
            <AltitudeMeters>3100.39990234375</AltitudeMeters>
            <DistanceMeters>15117.762406474</DistanceMeters>
          </Trackpoint>
          <Trackpoint>
            <Time>2022-08-22T08:14:52.000Z</Time>
            <Position>
              <LatitudeDegrees>42.8382788412272930145263671875</LatitudeDegrees>
              <LongitudeDegrees>-0.289351679384708404541015625</LongitudeDegrees>
            </Position>
            <AltitudeMeters>3094.199951171875</AltitudeMeters>
            <DistanceMeters>15122.443858763</DistanceMeters>
          </Trackpoint>
          <Trackpoint>
            <Time>2022-08-22T08:14:53.000Z</Time>
            <Position>
              <LatitudeDegrees>42.83827163279056549072265625</LatitudeDegrees>
              <LongitudeDegrees>-0.2893595583736896514892578125</LongitudeDegrees>
            </Position>
            <AltitudeMeters>3094.39990234375</AltitudeMeters>
            <DistanceMeters>15123.476113102</DistanceMeters>
          </Trackpoint>
          <Trackpoint>
            <Time>2022-08-22T08:14:54.000Z</Time>
            <Position>
              <LatitudeDegrees>42.8382647596299648284912109375</LatitudeDegrees>
              <LongitudeDegrees>-0.28936718590557575225830078125</LongitudeDegrees>
            </Position>
            <AltitudeMeters>3094.39990234375</AltitudeMeters>
            <DistanceMeters>15124.463659686</DistanceMeters>
          </Trackpoint>
          <Trackpoint>
            <Time>2022-08-22T08:14:55.000Z</Time>
            <Position>
              <LatitudeDegrees>42.8382473252713680267333984375</LatitudeDegrees>
              <LongitudeDegrees>-0.28937221504747867584228515625</LongitudeDegrees>
            </Position>
            <AltitudeMeters>3093.39990234375</AltitudeMeters>
            <DistanceMeters>15126.447875735</DistanceMeters>
          </Trackpoint>
          <Trackpoint>
            <Time>2022-08-22T08:14:57.000Z</Time>
            <Position>
              <LatitudeDegrees>42.838240452110767364501953125</LatitudeDegrees>
              <LongitudeDegrees>-0.28937623836100101470947265625</LongitudeDegrees>
            </Position>
            <AltitudeMeters>3093.199951171875</AltitudeMeters>
            <DistanceMeters>15127.276299425</DistanceMeters>
          </Trackpoint>
          <Trackpoint>
            <Time>2022-08-22T08:14:58.000Z</Time>
            <Position>
              <LatitudeDegrees>42.83823265694081783294677734375</LatitudeDegrees>
              <LongitudeDegrees>-0.2893826924264430999755859375</LongitudeDegrees>
            </Position>
            <AltitudeMeters>3093.199951171875</AltitudeMeters>
            <DistanceMeters>15128.29090709</DistanceMeters>
          </Trackpoint>
          <Trackpoint>
            <Time>2022-08-22T08:15:03.000Z</Time>
            <Position>
              <LatitudeDegrees>42.83818119205534458160400390625</LatitudeDegrees>
              <LongitudeDegrees>-0.2894034795463085174560546875</LongitudeDegrees>
            </Position>
            <AltitudeMeters>3089.199951171875</AltitudeMeters>
            <DistanceMeters>15134.265511025</DistanceMeters>
          </Trackpoint>
          <Trackpoint>
            <Time>2022-08-22T08:15:06.000Z</Time>
            <Position>
              <LatitudeDegrees>42.83815017901360988616943359375</LatitudeDegrees>
              <LongitudeDegrees>-0.2894071675837039947509765625</LongitudeDegrees>
            </Position>
            <AltitudeMeters>3086.39990234375</AltitudeMeters>
            <DistanceMeters>15137.729752875</DistanceMeters>
          </Trackpoint>
          <Trackpoint>
            <Time>2022-08-22T08:15:15.000Z</Time>
            <Position>
              <LatitudeDegrees>42.83807851374149322509765625</LatitudeDegrees>
              <LongitudeDegrees>-0.28937171213328838348388671875</LongitudeDegrees>
            </Position>
            <AltitudeMeters>3078.60009765625</AltitudeMeters>
            <DistanceMeters>15146.214845655</DistanceMeters>
          </Trackpoint>
          <Trackpoint>
            <Time>2022-08-22T08:15:28.000Z</Time>
            <Position>
              <LatitudeDegrees>42.83806376159191131591796875</LatitudeDegrees>
              <LongitudeDegrees>-0.28918244875967502593994140625</LongitudeDegrees>
            </Position>
            <AltitudeMeters>3069.800048828125</AltitudeMeters>
            <DistanceMeters>15161.748443843</DistanceMeters>
          </Trackpoint>
          <Trackpoint>
            <Time>2022-08-22T08:15:29.000Z</Time>
            <Position>
              <LatitudeDegrees>42.83805646933615207672119140625</LatitudeDegrees>
              <LongitudeDegrees>-0.28917406685650348663330078125</LongitudeDegrees>
            </Position>
            <AltitudeMeters>3070.60009765625</AltitudeMeters>
            <DistanceMeters>15162.810874808</DistanceMeters>
          </Trackpoint>
          <Trackpoint>
            <Time>2022-08-22T08:15:31.000Z</Time>
            <Position>
              <LatitudeDegrees>42.8380511887371540069580078125</LatitudeDegrees>
              <LongitudeDegrees>-0.28917205519974231719970703125</LongitudeDegrees>
            </Position>
            <AltitudeMeters>3070.800048828125</AltitudeMeters>
            <DistanceMeters>15163.41187652</DistanceMeters>
          </Trackpoint>
          <Trackpoint>
            <Time>2022-08-22T08:15:33.000Z</Time>
            <Position>
              <LatitudeDegrees>42.8380443155765533447265625</LatitudeDegrees>
              <LongitudeDegrees>-0.28916560113430023193359375</LongitudeDegrees>
            </Position>
            <AltitudeMeters>3071.60009765625</AltitudeMeters>
            <DistanceMeters>15164.333194699</DistanceMeters>
          </Trackpoint>
          <Trackpoint>
            <Time>2022-08-22T08:15:41.000Z</Time>
            <Position>
              <LatitudeDegrees>42.837998382747173309326171875</LatitudeDegrees>
              <LongitudeDegrees>-0.28913685120642185211181640625</LongitudeDegrees>
            </Position>
            <AltitudeMeters>3074.800048828125</AltitudeMeters>
            <DistanceMeters>15169.959065114</DistanceMeters>
          </Trackpoint>
          <Trackpoint>
            <Time>2022-08-22T08:15:46.000Z</Time>
            <Position>
              <LatitudeDegrees>42.8379531204700469970703125</LatitudeDegrees>
              <LongitudeDegrees>-0.28911623172461986541748046875</LongitudeDegrees>
            </Position>
            <AltitudeMeters>3077.39990234375</AltitudeMeters>
            <DistanceMeters>15175.270369927</DistanceMeters>
          </Trackpoint>
          <Trackpoint>
            <Time>2022-08-22T08:15:52.000Z</Time>
            <Position>
              <LatitudeDegrees>42.83787910826504230499267578125</LatitudeDegrees>
              <LongitudeDegrees>-0.2891047485172748565673828125</LongitudeDegrees>
            </Position>
            <AltitudeMeters>3079.800048828125</AltitudeMeters>
            <DistanceMeters>15183.561144432</DistanceMeters>
          </Trackpoint>
          <Trackpoint>
            <Time>2022-08-22T08:16:00.000Z</Time>
            <Position>
              <LatitudeDegrees>42.8378403000533580780029296875</LatitudeDegrees>
              <LongitudeDegrees>-0.28909091837704181671142578125</LongitudeDegrees>
            </Position>
            <AltitudeMeters>3080.60009765625</AltitudeMeters>
            <DistanceMeters>15188.025377704</DistanceMeters>
          </Trackpoint>
          <Trackpoint>
            <Time>2022-08-22T08:16:07.000Z</Time>
            <Position>
              <LatitudeDegrees>42.837847173213958740234375</LatitudeDegrees>
              <LongitudeDegrees>-0.2890879847109317779541015625</LongitudeDegrees>
            </Position>
            <AltitudeMeters>3080.800048828125</AltitudeMeters>
            <DistanceMeters>15188.820428238</DistanceMeters>
          </Trackpoint>
          <Trackpoint>
            <Time>2022-08-22T08:16:14.000Z</Time>
            <Position>
              <LatitudeDegrees>42.83780702389776706695556640625</LatitudeDegrees>
              <LongitudeDegrees>-0.28909209184348583221435546875</LongitudeDegrees>
            </Position>
            <AltitudeMeters>3080.60009765625</AltitudeMeters>
            <DistanceMeters>15193.301821996</DistanceMeters>
          </Trackpoint>
          <Trackpoint>
            <Time>2022-08-22T08:16:29.000Z</Time>
            <Position>
              <LatitudeDegrees>42.83762228675186634063720703125</LatitudeDegrees>
              <LongitudeDegrees>-0.28910583816468715667724609375</LongitudeDegrees>
            </Position>
            <AltitudeMeters>3080</AltitudeMeters>
            <DistanceMeters>15213.893915858</DistanceMeters>
          </Trackpoint>
          <Trackpoint>
            <Time>2022-08-22T08:16:47.000Z</Time>
            <Position>
              <LatitudeDegrees>42.83743419684469699859619140625</LatitudeDegrees>
              <LongitudeDegrees>-0.2890846319496631622314453125</LongitudeDegrees>
            </Position>
            <AltitudeMeters>3072.39990234375</AltitudeMeters>
            <DistanceMeters>15234.900193861</DistanceMeters>
          </Trackpoint>
          <Trackpoint>
            <Time>2022-08-22T08:16:56.000Z</Time>
            <Position>
              <LatitudeDegrees>42.8373722545802593231201171875</LatitudeDegrees>
              <LongitudeDegrees>-0.28908555395901203155517578125</LongitudeDegrees>
            </Position>
            <AltitudeMeters>3069</AltitudeMeters>
            <DistanceMeters>15241.79601742</DistanceMeters>
          </Trackpoint>
          <Trackpoint>
            <Time>2022-08-22T08:17:08.000Z</Time>
            <Position>
              <LatitudeDegrees>42.8373202867805957794189453125</LatitudeDegrees>
              <LongitudeDegrees>-0.28909393586218357086181640625</LongitudeDegrees>
            </Position>
            <AltitudeMeters>3066</AltitudeMeters>
            <DistanceMeters>15247.619844952</DistanceMeters>
          </Trackpoint>
          <Trackpoint>
            <Time>2022-08-22T08:17:21.000Z</Time>
            <Position>
              <LatitudeDegrees>42.83724208362400531768798828125</LatitudeDegrees>
              <LongitudeDegrees>-0.28908169828355312347412109375</LongitudeDegrees>
            </Position>
            <AltitudeMeters>3058.800048828125</AltitudeMeters>
            <DistanceMeters>15256.380875129</DistanceMeters>
          </Trackpoint>
          <Trackpoint>
            <Time>2022-08-22T08:18:17.000Z</Time>
            <Position>
              <LatitudeDegrees>42.837095148861408233642578125</LatitudeDegrees>
              <LongitudeDegrees>-0.28903425671160221099853515625</LongitudeDegrees>
            </Position>
            <AltitudeMeters>3046.800048828125</AltitudeMeters>
            <DistanceMeters>15273.186907707</DistanceMeters>
          </Trackpoint>
          <Trackpoint>
            <Time>2022-08-22T08:18:52.000Z</Time>
            <Position>
              <LatitudeDegrees>42.83695659600198268890380859375</LatitudeDegrees>
              <LongitudeDegrees>-0.28905806131660938262939453125</LongitudeDegrees>
            </Position>
            <AltitudeMeters>3032.60009765625</AltitudeMeters>
            <DistanceMeters>15288.730094806</DistanceMeters>
          </Trackpoint>
          <Trackpoint>
            <Time>2022-08-22T08:18:57.000Z</Time>
            <Position>
              <LatitudeDegrees>42.83692658878862857818603515625</LatitudeDegrees>
              <LongitudeDegrees>-0.28912997804582118988037109375</LongitudeDegrees>
            </Position>
            <AltitudeMeters>3025.60009765625</AltitudeMeters>
            <DistanceMeters>15295.48301166</DistanceMeters>
          </Trackpoint>
          <Trackpoint>
            <Time>2022-08-22T08:19:06.000Z</Time>
            <Position>
              <LatitudeDegrees>42.83687696792185306549072265625</LatitudeDegrees>
              <LongitudeDegrees>-0.28911891393363475799560546875</LongitudeDegrees>
            </Position>
            <AltitudeMeters>3019.800048828125</AltitudeMeters>
            <DistanceMeters>15301.079108971</DistanceMeters>
          </Trackpoint>
          <Trackpoint>
            <Time>2022-08-22T08:19:08.000Z</Time>
            <Position>
              <LatitudeDegrees>42.83686037175357341766357421875</LatitudeDegrees>
              <LongitudeDegrees>-0.2891322411596775054931640625</LongitudeDegrees>
            </Position>
            <AltitudeMeters>3018.800048828125</AltitudeMeters>
            <DistanceMeters>15303.223009367</DistanceMeters>
          </Trackpoint>
          <Trackpoint>
            <Time>2022-08-22T08:19:14.000Z</Time>
            <Position>
              <LatitudeDegrees>42.8369151055812835693359375</LatitudeDegrees>
              <LongitudeDegrees>-0.2890946902334690093994140625</LongitudeDegrees>
            </Position>
            <AltitudeMeters>3024.60009765625</AltitudeMeters>
            <DistanceMeters>15310.042459029</DistanceMeters>
          </Trackpoint>
          <Trackpoint>
            <Time>2022-08-22T08:19:20.000Z</Time>
            <Position>
              <LatitudeDegrees>42.83686858601868152618408203125</LatitudeDegrees>
              <LongitudeDegrees>-0.28906929306685924530029296875</LongitudeDegrees>
            </Position>
            <AltitudeMeters>3022.199951171875</AltitudeMeters>
            <DistanceMeters>15315.619159063</DistanceMeters>
          </Trackpoint>
          <Trackpoint>
            <Time>2022-08-22T08:19:34.000Z</Time>
            <Position>
              <LatitudeDegrees>42.836849726736545562744140625</LatitudeDegrees>
              <LongitudeDegrees>-0.28909779153764247894287109375</LongitudeDegrees>
            </Position>
            <AltitudeMeters>3017.39990234375</AltitudeMeters>
            <DistanceMeters>15318.752159717</DistanceMeters>
          </Trackpoint>
          <Trackpoint>
            <Time>2022-08-22T08:19:35.000Z</Time>
            <Position>
              <LatitudeDegrees>42.83684914000332355499267578125</LatitudeDegrees>
              <LongitudeDegrees>-0.28909594751894474029541015625</LongitudeDegrees>
            </Position>
            <AltitudeMeters>3017.60009765625</AltitudeMeters>
            <DistanceMeters>15318.942213145</DistanceMeters>
          </Trackpoint>
          <Trackpoint>
            <Time>2022-08-22T08:19:40.000Z</Time>
            <Position>
              <LatitudeDegrees>42.8368515707552433013916015625</LatitudeDegrees>
              <LongitudeDegrees>-0.2890790998935699462890625</LongitudeDegrees>
            </Position>
            <AltitudeMeters>3019.39990234375</AltitudeMeters>
            <DistanceMeters>15320.342044059</DistanceMeters>
          </Trackpoint>
          <Trackpoint>
            <Time>2022-08-22T08:19:41.000Z</Time>
            <Position>
              <LatitudeDegrees>42.83685165457427501678466796875</LatitudeDegrees>
              <LongitudeDegrees>-0.28907901607453823089599609375</LongitudeDegrees>
            </Position>
            <AltitudeMeters>3019.39990234375</AltitudeMeters>
            <DistanceMeters>NAN</DistanceMeters>
          </Trackpoint>
          <Trackpoint>
            <Time>2022-08-22T08:19:42.000Z</Time>
            <Position>
              <LatitudeDegrees>42.8368515707552433013916015625</LatitudeDegrees>
              <LongitudeDegrees>-0.289078764617443084716796875</LongitudeDegrees>
            </Position>
            <AltitudeMeters>3019.39990234375</AltitudeMeters>
            <DistanceMeters>NAN</DistanceMeters>
          </Trackpoint>
          <Trackpoint>
            <Time>2022-08-22T08:19:43.000Z</Time>
            <Position>
              <LatitudeDegrees>42.83685115166008472442626953125</LatitudeDegrees>
              <LongitudeDegrees>-0.2890792675316333770751953125</LongitudeDegrees>
            </Position>
            <AltitudeMeters>3019.39990234375</AltitudeMeters>
            <DistanceMeters>NAN</DistanceMeters>
          </Trackpoint>
          <Trackpoint>
            <Time>2022-08-22T08:19:44.000Z</Time>
            <Position>
              <LatitudeDegrees>42.83685098402202129364013671875</LatitudeDegrees>
              <LongitudeDegrees>-0.2890792675316333770751953125</LongitudeDegrees>
            </Position>
            <AltitudeMeters>3019.39990234375</AltitudeMeters>
            <DistanceMeters>NAN</DistanceMeters>
          </Trackpoint>
          <Trackpoint>
            <Time>2022-08-22T08:19:47.000Z</Time>
            <Position>
              <LatitudeDegrees>42.83684914000332355499267578125</LatitudeDegrees>
              <LongitudeDegrees>-0.2890789322555065155029296875</LongitudeDegrees>
            </Position>
            <AltitudeMeters>3019.199951171875</AltitudeMeters>
            <DistanceMeters>NAN</DistanceMeters>
          </Trackpoint>
          <Trackpoint>
            <Time>2022-08-22T08:19:48.000Z</Time>
            <Position>
              <LatitudeDegrees>42.83684779889881610870361328125</LatitudeDegrees>
              <LongitudeDegrees>-0.28907901607453823089599609375</LongitudeDegrees>
            </Position>
            <AltitudeMeters>3019</AltitudeMeters>
            <DistanceMeters>NAN</DistanceMeters>
          </Trackpoint>
          <Trackpoint>
            <Time>2022-08-22T08:19:50.000Z</Time>
            <Position>
              <LatitudeDegrees>42.8368462063372135162353515625</LatitudeDegrees>
              <LongitudeDegrees>-0.2890812791883945465087890625</LongitudeDegrees>
            </Position>
            <AltitudeMeters>3018.60009765625</AltitudeMeters>
            <DistanceMeters>NAN</DistanceMeters>
          </Trackpoint>
          <Trackpoint>
            <Time>2022-08-22T08:19:51.000Z</Time>
            <Position>
              <LatitudeDegrees>42.836845703423023223876953125</LatitudeDegrees>
              <LongitudeDegrees>-0.28908823616802692413330078125</LongitudeDegrees>
            </Position>
            <AltitudeMeters>3018</AltitudeMeters>
            <DistanceMeters>NAN</DistanceMeters>
          </Trackpoint>
          <Trackpoint>
            <Time>2022-08-22T08:19:52.000Z</Time>
            <Position>
              <LatitudeDegrees>42.836843691766262054443359375</LatitudeDegrees>
              <LongitudeDegrees>-0.2890940196812152862548828125</LongitudeDegrees>
            </Position>
            <AltitudeMeters>3017.199951171875</AltitudeMeters>
            <DistanceMeters>NAN</DistanceMeters>
          </Trackpoint>
          <Trackpoint>
            <Time>2022-08-22T08:19:53.000Z</Time>
            <Position>
              <LatitudeDegrees>42.83684335649013519287109375</LatitudeDegrees>
              <LongitudeDegrees>-0.2890973724424839019775390625</LongitudeDegrees>
            </Position>
            <AltitudeMeters>3016.800048828125</AltitudeMeters>
            <DistanceMeters>NAN</DistanceMeters>
          </Trackpoint>
          <Trackpoint>
            <Time>2022-08-22T08:19:55.000Z</Time>
            <Position>
              <LatitudeDegrees>42.8368452005088329315185546875</LatitudeDegrees>
              <LongitudeDegrees>-0.28910458087921142578125</LongitudeDegrees>
            </Position>
            <AltitudeMeters>3016.199951171875</AltitudeMeters>
            <DistanceMeters>NAN</DistanceMeters>
          </Trackpoint>
          <Trackpoint>
            <Time>2022-08-22T08:20:00.000Z</Time>
            <Position>
              <LatitudeDegrees>42.836845032870769500732421875</LatitudeDegrees>
              <LongitudeDegrees>-0.2891127951443195343017578125</LongitudeDegrees>
            </Position>
            <AltitudeMeters>3016.199951171875</AltitudeMeters>
            <DistanceMeters>NAN</DistanceMeters>
          </Trackpoint>
          <Trackpoint>
            <Time>2022-08-22T08:20:10.000Z</Time>
            <Position>
              <LatitudeDegrees>42.8368545882403850555419921875</LatitudeDegrees>
              <LongitudeDegrees>-0.2890832908451557159423828125</LongitudeDegrees>
            </Position>
            <AltitudeMeters>3019.39990234375</AltitudeMeters>
            <DistanceMeters>NAN</DistanceMeters>
          </Trackpoint>
          <Trackpoint>
            <Time>2022-08-22T08:20:12.000Z</Time>
            <Position>
              <LatitudeDegrees>42.8368576057255268096923828125</LatitudeDegrees>
              <LongitudeDegrees>-0.28907868079841136932373046875</LongitudeDegrees>
            </Position>
            <AltitudeMeters>3020.199951171875</AltitudeMeters>
            <DistanceMeters>NAN</DistanceMeters>
          </Trackpoint>
          <Trackpoint>
            <Time>2022-08-22T08:20:16.000Z</Time>
            <Position>
              <LatitudeDegrees>42.83685467205941677093505859375</LatitudeDegrees>
              <LongitudeDegrees>-0.2890708856284618377685546875</LongitudeDegrees>
            </Position>
            <AltitudeMeters>3020.60009765625</AltitudeMeters>
            <DistanceMeters>NAN</DistanceMeters>
          </Trackpoint>
          <Trackpoint>
            <Time>2022-08-22T08:20:17.000Z</Time>
            <Position>
              <LatitudeDegrees>42.83685467205941677093505859375</LatitudeDegrees>
              <LongitudeDegrees>-0.2890718914568424224853515625</LongitudeDegrees>
            </Position>
            <AltitudeMeters>3020.60009765625</AltitudeMeters>
            <DistanceMeters>NAN</DistanceMeters>
          </Trackpoint>
          <Trackpoint>
            <Time>2022-08-22T08:20:22.000Z</Time>
            <Position>
              <LatitudeDegrees>42.83683807589113712310791015625</LatitudeDegrees>
              <LongitudeDegrees>-0.2890856377780437469482421875</LongitudeDegrees>
            </Position>
            <AltitudeMeters>3017.39990234375</AltitudeMeters>
            <DistanceMeters>NAN</DistanceMeters>
          </Trackpoint>
          <Trackpoint>
            <Time>2022-08-22T08:20:23.000Z</Time>
            <Position>
              <LatitudeDegrees>42.83681326545774936676025390625</LatitudeDegrees>
              <LongitudeDegrees>-0.28908404521644115447998046875</LongitudeDegrees>
            </Position>
            <AltitudeMeters>3015</AltitudeMeters>
            <DistanceMeters>NAN</DistanceMeters>
          </Trackpoint>
          <Trackpoint>
            <Time>2022-08-22T08:20:26.000Z</Time>
            <Position>
              <LatitudeDegrees>42.83679013140499591827392578125</LatitudeDegrees>
              <LongitudeDegrees>-0.2890866436064243316650390625</LongitudeDegrees>
            </Position>
            <AltitudeMeters>3012.199951171875</AltitudeMeters>
            <DistanceMeters>NAN</DistanceMeters>
          </Trackpoint>
          <Trackpoint>
            <Time>2022-08-22T08:20:28.000Z</Time>
            <Position>
              <LatitudeDegrees>42.83676615916192531585693359375</LatitudeDegrees>
              <LongitudeDegrees>-0.28912008740007877349853515625</LongitudeDegrees>
            </Position>
            <AltitudeMeters>3008.199951171875</AltitudeMeters>
            <DistanceMeters>NAN</DistanceMeters>
          </Trackpoint>
          <Trackpoint>
            <Time>2022-08-22T08:20:29.000Z</Time>
            <Position>
              <LatitudeDegrees>42.83676213584840297698974609375</LatitudeDegrees>
              <LongitudeDegrees>-0.28912042267620563507080078125</LongitudeDegrees>
            </Position>
            <AltitudeMeters>3007.800048828125</AltitudeMeters>
            <DistanceMeters>NAN</DistanceMeters>
          </Trackpoint>
          <Trackpoint>
            <Time>2022-08-22T08:20:30.000Z</Time>
            <Position>
              <LatitudeDegrees>42.83676213584840297698974609375</LatitudeDegrees>
              <LongitudeDegrees>-0.28912042267620563507080078125</LongitudeDegrees>
            </Position>
            <AltitudeMeters>3007.800048828125</AltitudeMeters>
            <DistanceMeters>NAN</DistanceMeters>
          </Trackpoint>
          <Trackpoint>
            <Time>2022-08-22T08:20:32.000Z</Time>
            <Position>
              <LatitudeDegrees>42.836750485002994537353515625</LatitudeDegrees>
              <LongitudeDegrees>-0.28913148678839206695556640625</LongitudeDegrees>
            </Position>
            <AltitudeMeters>3007.39990234375</AltitudeMeters>
            <DistanceMeters>NAN</DistanceMeters>
          </Trackpoint>
          <Trackpoint>
            <Time>2022-08-22T08:20:33.000Z</Time>
            <Position>
              <LatitudeDegrees>42.83674872480332851409912109375</LatitudeDegrees>
              <LongitudeDegrees>-0.2891369350254535675048828125</LongitudeDegrees>
            </Position>
            <AltitudeMeters>3007.60009765625</AltitudeMeters>
            <DistanceMeters>NAN</DistanceMeters>
          </Trackpoint>
          <Trackpoint>
            <Time>2022-08-22T08:20:34.000Z</Time>
            <Position>
              <LatitudeDegrees>42.83674704842269420623779296875</LatitudeDegrees>
              <LongitudeDegrees>-0.28913768939673900604248046875</LongitudeDegrees>
            </Position>
            <AltitudeMeters>3007.60009765625</AltitudeMeters>
            <DistanceMeters>NAN</DistanceMeters>
          </Trackpoint>
          <Trackpoint>
            <Time>2022-08-22T08:20:36.000Z</Time>
            <Position>
              <LatitudeDegrees>42.83675040118396282196044921875</LatitudeDegrees>
              <LongitudeDegrees>-0.2891355939209461212158203125</LongitudeDegrees>
            </Position>
            <AltitudeMeters>3007.60009765625</AltitudeMeters>
            <DistanceMeters>NAN</DistanceMeters>
          </Trackpoint>
          <Trackpoint>
            <Time>2022-08-22T08:20:37.000Z</Time>
            <Position>
              <LatitudeDegrees>42.83674319274723529815673828125</LatitudeDegrees>
              <LongitudeDegrees>-0.28914414346218109130859375</LongitudeDegrees>
            </Position>
            <AltitudeMeters>3007.60009765625</AltitudeMeters>
            <DistanceMeters>NAN</DistanceMeters>
          </Trackpoint>
          <Trackpoint>
            <Time>2022-08-22T08:20:38.000Z</Time>
            <Position>
              <LatitudeDegrees>42.83674319274723529815673828125</LatitudeDegrees>
              <LongitudeDegrees>-0.28914414346218109130859375</LongitudeDegrees>
            </Position>
            <AltitudeMeters>3007.60009765625</AltitudeMeters>
            <DistanceMeters>NAN</DistanceMeters>
          </Trackpoint>
          <Trackpoint>
            <Time>2022-08-22T08:20:39.000Z</Time>
            <Position>
              <LatitudeDegrees>42.83674084581434726715087890625</LatitudeDegrees>
              <LongitudeDegrees>-0.28915076516568660736083984375</LongitudeDegrees>
            </Position>
            <AltitudeMeters>3007.800048828125</AltitudeMeters>
            <DistanceMeters>NAN</DistanceMeters>
          </Trackpoint>
          <Trackpoint>
            <Time>2022-08-22T08:20:44.000Z</Time>
            <Position>
              <LatitudeDegrees>42.83675660379230976104736328125</LatitudeDegrees>
              <LongitudeDegrees>-0.28914405964314937591552734375</LongitudeDegrees>
            </Position>
            <AltitudeMeters>3008.60009765625</AltitudeMeters>
            <DistanceMeters>NAN</DistanceMeters>
          </Trackpoint>
          <Trackpoint>
            <Time>2022-08-22T08:20:59.000Z</Time>
            <Position>
              <LatitudeDegrees>42.83657941035926342010498046875</LatitudeDegrees>
              <LongitudeDegrees>-0.2891837060451507568359375</LongitudeDegrees>
            </Position>
            <AltitudeMeters>2992</AltitudeMeters>
            <DistanceMeters>NAN</DistanceMeters>
          </Trackpoint>
          <Trackpoint>
            <Time>2022-08-22T08:21:16.000Z</Time>
            <Position>
              <LatitudeDegrees>42.836607992649078369140625</LatitudeDegrees>
              <LongitudeDegrees>-0.28931287117302417755126953125</LongitudeDegrees>
            </Position>
            <AltitudeMeters>3005.39990234375</AltitudeMeters>
            <DistanceMeters>NAN</DistanceMeters>
          </Trackpoint>
          <Trackpoint>
            <Time>2022-08-22T08:21:24.000Z</Time>
            <Position>
              <LatitudeDegrees>42.83669893629848957061767578125</LatitudeDegrees>
              <LongitudeDegrees>-0.28930868022143840789794921875</LongitudeDegrees>
            </Position>
            <AltitudeMeters>3012.800048828125</AltitudeMeters>
            <DistanceMeters>NAN</DistanceMeters>
          </Trackpoint>
          <Trackpoint>
            <Time>2022-08-22T08:21:41.000Z</Time>
            <Position>
              <LatitudeDegrees>42.836645208299160003662109375</LatitudeDegrees>
              <LongitudeDegrees>-0.28931002132594585418701171875</LongitudeDegrees>
            </Position>
            <AltitudeMeters>3008.39990234375</AltitudeMeters>
            <DistanceMeters>NAN</DistanceMeters>
          </Trackpoint>
          <Trackpoint>
            <Time>2022-08-22T08:21:59.000Z</Time>
            <Position>
              <LatitudeDegrees>42.8364924900233745574951171875</LatitudeDegrees>
              <LongitudeDegrees>-0.2892346680164337158203125</LongitudeDegrees>
            </Position>
            <AltitudeMeters>2986</AltitudeMeters>
            <DistanceMeters>NAN</DistanceMeters>
          </Trackpoint>
          <Trackpoint>
            <Time>2022-08-22T08:22:03.000Z</Time>
            <Position>
              <LatitudeDegrees>42.83646491356194019317626953125</LatitudeDegrees>
              <LongitudeDegrees>-0.2892365120351314544677734375</LongitudeDegrees>
            </Position>
            <AltitudeMeters>2983</AltitudeMeters>
            <DistanceMeters>NAN</DistanceMeters>
          </Trackpoint>
          <Trackpoint>
            <Time>2022-08-22T08:22:15.000Z</Time>
            <Position>
              <LatitudeDegrees>42.83636189997196197509765625</LatitudeDegrees>
              <LongitudeDegrees>-0.2892271243035793304443359375</LongitudeDegrees>
            </Position>
            <AltitudeMeters>2970.800048828125</AltitudeMeters>
            <DistanceMeters>NAN</DistanceMeters>
          </Trackpoint>
          <Trackpoint>
            <Time>2022-08-22T08:22:22.000Z</Time>
            <Position>
              <LatitudeDegrees>42.83630548976361751556396484375</LatitudeDegrees>
              <LongitudeDegrees>-0.289262831211090087890625</LongitudeDegrees>
            </Position>
            <AltitudeMeters>2968</AltitudeMeters>
            <DistanceMeters>NAN</DistanceMeters>
          </Trackpoint>
          <Trackpoint>
            <Time>2022-08-22T08:22:24.000Z</Time>
            <Position>
              <LatitudeDegrees>42.8362983651459217071533203125</LatitudeDegrees>
              <LongitudeDegrees>-0.2892697043716907501220703125</LongitudeDegrees>
            </Position>
            <AltitudeMeters>2967.800048828125</AltitudeMeters>
            <DistanceMeters>NAN</DistanceMeters>
          </Trackpoint>
          <Trackpoint>
            <Time>2022-08-22T08:22:26.000Z</Time>
            <Position>
              <LatitudeDegrees>42.83627850003540515899658203125</LatitudeDegrees>
              <LongitudeDegrees>-0.2892794273793697357177734375</LongitudeDegrees>
            </Position>
            <AltitudeMeters>2966.60009765625</AltitudeMeters>
            <DistanceMeters>NAN</DistanceMeters>
          </Trackpoint>
          <Trackpoint>
            <Time>2022-08-22T08:22:27.000Z</Time>
            <Position>
              <LatitudeDegrees>42.8362718783318996429443359375</LatitudeDegrees>
              <LongitudeDegrees>-0.28927900828421115875244140625</LongitudeDegrees>
            </Position>
            <AltitudeMeters>2966</AltitudeMeters>
            <DistanceMeters>NAN</DistanceMeters>
          </Trackpoint>
          <Trackpoint>
            <Time>2022-08-22T08:22:28.000Z</Time>
            <Position>
              <LatitudeDegrees>42.83626408316195011138916015625</LatitudeDegrees>
              <LongitudeDegrees>-0.28928068466484546661376953125</LongitudeDegrees>
            </Position>
            <AltitudeMeters>2965.199951171875</AltitudeMeters>
            <DistanceMeters>NAN</DistanceMeters>
          </Trackpoint>
          <Trackpoint>
            <Time>2022-08-22T08:22:30.000Z</Time>
            <Position>
              <LatitudeDegrees>42.836248576641082763671875</LatitudeDegrees>
              <LongitudeDegrees>-0.28928051702678203582763671875</LongitudeDegrees>
            </Position>
            <AltitudeMeters>2963.800048828125</AltitudeMeters>
            <DistanceMeters>NAN</DistanceMeters>
          </Trackpoint>
          <Trackpoint>
            <Time>2022-08-22T08:22:31.000Z</Time>
            <Position>
              <LatitudeDegrees>42.83623717725276947021484375</LatitudeDegrees>
              <LongitudeDegrees>-0.2892774157226085662841796875</LongitudeDegrees>
            </Position>
            <AltitudeMeters>2962.39990234375</AltitudeMeters>
            <DistanceMeters>NAN</DistanceMeters>
          </Trackpoint>
          <Trackpoint>
            <Time>2022-08-22T08:22:33.000Z</Time>
            <Position>
              <LatitudeDegrees>42.8362360037863254547119140625</LatitudeDegrees>
              <LongitudeDegrees>-0.2892787568271160125732421875</LongitudeDegrees>
            </Position>
            <AltitudeMeters>2962.39990234375</AltitudeMeters>
            <DistanceMeters>NAN</DistanceMeters>
          </Trackpoint>
          <Trackpoint>
            <Time>2022-08-22T08:22:37.000Z</Time>
            <Position>
              <LatitudeDegrees>42.8362282924354076385498046875</LatitudeDegrees>
              <LongitudeDegrees>-0.289288647472858428955078125</LongitudeDegrees>
            </Position>
            <AltitudeMeters>2962.39990234375</AltitudeMeters>
            <DistanceMeters>NAN</DistanceMeters>
          </Trackpoint>
          <Trackpoint>
            <Time>2022-08-22T08:22:46.000Z</Time>
            <Position>
              <LatitudeDegrees>42.83616651780903339385986328125</LatitudeDegrees>
              <LongitudeDegrees>-0.28933684341609477996826171875</LongitudeDegrees>
            </Position>
            <AltitudeMeters>2960.199951171875</AltitudeMeters>
            <DistanceMeters>NAN</DistanceMeters>
          </Trackpoint>
          <Trackpoint>
            <Time>2022-08-22T08:22:51.000Z</Time>
            <Position>
              <LatitudeDegrees>42.83617171458899974822998046875</LatitudeDegrees>
              <LongitudeDegrees>-0.2893273718655109405517578125</LongitudeDegrees>
            </Position>
            <AltitudeMeters>2960</AltitudeMeters>
            <DistanceMeters>NAN</DistanceMeters>
          </Trackpoint>
          <Trackpoint>
            <Time>2022-08-22T08:23:10.000Z</Time>
            <Position>
              <LatitudeDegrees>42.8361694514751434326171875</LatitudeDegrees>
              <LongitudeDegrees>-0.289371795952320098876953125</LongitudeDegrees>
            </Position>
            <AltitudeMeters>2963.39990234375</AltitudeMeters>
            <DistanceMeters>NAN</DistanceMeters>
          </Trackpoint>
          <Trackpoint>
            <Time>2022-08-22T08:23:23.000Z</Time>
            <Position>
              <LatitudeDegrees>42.83606274984776973724365234375</LatitudeDegrees>
              <LongitudeDegrees>-0.289469026029109954833984375</LongitudeDegrees>
            </Position>
            <AltitudeMeters>2959.39990234375</AltitudeMeters>
            <DistanceMeters>NAN</DistanceMeters>
          </Trackpoint>
          <Trackpoint>
            <Time>2022-08-22T08:23:30.000Z</Time>
            <Position>
              <LatitudeDegrees>42.8360391966998577117919921875</LatitudeDegrees>
              <LongitudeDegrees>-0.28951001353561878204345703125</LongitudeDegrees>
            </Position>
            <AltitudeMeters>2959.60009765625</AltitudeMeters>
            <DistanceMeters>NAN</DistanceMeters>
          </Trackpoint>
          <Trackpoint>
            <Time>2022-08-22T08:23:33.000Z</Time>
            <Position>
              <LatitudeDegrees>42.8360190801322460174560546875</LatitudeDegrees>
              <LongitudeDegrees>-0.2895305491983890533447265625</LongitudeDegrees>
            </Position>
            <AltitudeMeters>2958.800048828125</AltitudeMeters>
            <DistanceMeters>NAN</DistanceMeters>
          </Trackpoint>
          <Trackpoint>
            <Time>2022-08-22T08:23:35.000Z</Time>
            <Position>
              <LatitudeDegrees>42.836009524762630462646484375</LatitudeDegrees>
              <LongitudeDegrees>-0.2895365841686725616455078125</LongitudeDegrees>
            </Position>
            <AltitudeMeters>2958.199951171875</AltitudeMeters>
            <DistanceMeters>NAN</DistanceMeters>
          </Trackpoint>
          <Trackpoint>
            <Time>2022-08-22T08:23:49.000Z</Time>
            <Position>
              <LatitudeDegrees>42.83592528663575649261474609375</LatitudeDegrees>
              <LongitudeDegrees>-0.28955644927918910980224609375</LongitudeDegrees>
            </Position>
            <AltitudeMeters>2951.39990234375</AltitudeMeters>
            <DistanceMeters>NAN</DistanceMeters>
          </Trackpoint>
          <Trackpoint>
            <Time>2022-08-22T08:23:50.000Z</Time>
            <Position>
              <LatitudeDegrees>42.83590869046747684478759765625</LatitudeDegrees>
              <LongitudeDegrees>-0.2895583771169185638427734375</LongitudeDegrees>
            </Position>
            <AltitudeMeters>2950.800048828125</AltitudeMeters>
            <DistanceMeters>NAN</DistanceMeters>
          </Trackpoint>
          <Trackpoint>
            <Time>2022-08-22T08:23:52.000Z</Time>
            <Position>
              <LatitudeDegrees>42.8359013982117176055908203125</LatitudeDegrees>
              <LongitudeDegrees>-0.28955720365047454833984375</LongitudeDegrees>
            </Position>
            <AltitudeMeters>2950.39990234375</AltitudeMeters>
            <DistanceMeters>NAN</DistanceMeters>
          </Trackpoint>
          <Trackpoint>
            <Time>2022-08-22T08:23:53.000Z</Time>
            <Position>
              <LatitudeDegrees>42.83589125610888004302978515625</LatitudeDegrees>
              <LongitudeDegrees>-0.28955376707017421722412109375</LongitudeDegrees>
            </Position>
            <AltitudeMeters>2949.800048828125</AltitudeMeters>
            <DistanceMeters>NAN</DistanceMeters>
          </Trackpoint>
          <Trackpoint>
            <Time>2022-08-22T08:23:54.000Z</Time>
            <Position>
              <LatitudeDegrees>42.83588019199669361114501953125</LatitudeDegrees>
              <LongitudeDegrees>-0.28955049812793731689453125</LongitudeDegrees>
            </Position>
            <AltitudeMeters>2949</AltitudeMeters>
            <DistanceMeters>NAN</DistanceMeters>
          </Trackpoint>
          <Trackpoint>
            <Time>2022-08-22T08:23:55.000Z</Time>
            <Position>
              <LatitudeDegrees>42.835854627192020416259765625</LatitudeDegrees>
              <LongitudeDegrees>-0.2895292080938816070556640625</LongitudeDegrees>
            </Position>
            <AltitudeMeters>2946.60009765625</AltitudeMeters>
            <DistanceMeters>NAN</DistanceMeters>
          </Trackpoint>
          <Trackpoint>
            <Time>2022-08-22T08:24:00.000Z</Time>
            <Position>
              <LatitudeDegrees>42.83582353033125400543212890625</LatitudeDegrees>
              <LongitudeDegrees>-0.28952292166650295257568359375</LongitudeDegrees>
            </Position>
            <AltitudeMeters>2945</AltitudeMeters>
            <DistanceMeters>NAN</DistanceMeters>
          </Trackpoint>
          <Trackpoint>
            <Time>2022-08-22T08:24:01.000Z</Time>
            <Position>
              <LatitudeDegrees>42.83581498079001903533935546875</LatitudeDegrees>
              <LongitudeDegrees>-0.2895375899970531463623046875</LongitudeDegrees>
            </Position>
            <AltitudeMeters>2945.39990234375</AltitudeMeters>
            <DistanceMeters>NAN</DistanceMeters>
          </Trackpoint>
          <Trackpoint>
            <Time>2022-08-22T08:24:03.000Z</Time>
            <Position>
              <LatitudeDegrees>42.83580534160137176513671875</LatitudeDegrees>
              <LongitudeDegrees>-0.28954136185348033905029296875</LongitudeDegrees>
            </Position>
            <AltitudeMeters>2945.199951171875</AltitudeMeters>
            <DistanceMeters>NAN</DistanceMeters>
          </Trackpoint>
          <Trackpoint>
            <Time>2022-08-22T08:24:04.000Z</Time>
            <Position>
              <LatitudeDegrees>42.8357954509556293487548828125</LatitudeDegrees>
              <LongitudeDegrees>-0.28954555280506610870361328125</LongitudeDegrees>
            </Position>
            <AltitudeMeters>2945</AltitudeMeters>
            <DistanceMeters>NAN</DistanceMeters>
          </Trackpoint>
          <Trackpoint>
            <Time>2022-08-22T08:24:06.000Z</Time>
            <Position>
              <LatitudeDegrees>42.835777513682842254638671875</LatitudeDegrees>
              <LongitudeDegrees>-0.28955678455531597137451171875</LongitudeDegrees>
            </Position>
            <AltitudeMeters>2945</AltitudeMeters>
            <DistanceMeters>NAN</DistanceMeters>
          </Trackpoint>
          <Trackpoint>
            <Time>2022-08-22T08:24:08.000Z</Time>
            <Position>
              <LatitudeDegrees>42.8357671201229095458984375</LatitudeDegrees>
              <LongitudeDegrees>-0.28957304544746875762939453125</LongitudeDegrees>
            </Position>
            <AltitudeMeters>2945.60009765625</AltitudeMeters>
            <DistanceMeters>NAN</DistanceMeters>
          </Trackpoint>
          <Trackpoint>
            <Time>2022-08-22T08:24:09.000Z</Time>
            <Position>
              <LatitudeDegrees>42.8357659466564655303955078125</LatitudeDegrees>
              <LongitudeDegrees>-0.2895805053412914276123046875</LongitudeDegrees>
            </Position>
            <AltitudeMeters>2946</AltitudeMeters>
            <DistanceMeters>NAN</DistanceMeters>
          </Trackpoint>
          <Trackpoint>
            <Time>2022-08-22T08:24:11.000Z</Time>
            <Position>
              <LatitudeDegrees>42.8357542119920253753662109375</LatitudeDegrees>
              <LongitudeDegrees>-0.2895969338715076446533203125</LongitudeDegrees>
            </Position>
            <AltitudeMeters>2946.39990234375</AltitudeMeters>
            <DistanceMeters>NAN</DistanceMeters>
          </Trackpoint>
          <Trackpoint>
            <Time>2022-08-22T08:24:26.000Z</Time>
            <Position>
              <LatitudeDegrees>42.83564038574695587158203125</LatitudeDegrees>
              <LongitudeDegrees>-0.289665162563323974609375</LongitudeDegrees>
            </Position>
            <AltitudeMeters>2946</AltitudeMeters>
            <DistanceMeters>NAN</DistanceMeters>
          </Trackpoint>
          <Trackpoint>
            <Time>2022-08-22T08:24:44.000Z</Time>
            <Position>
              <LatitudeDegrees>42.8354698978364467620849609375</LatitudeDegrees>
              <LongitudeDegrees>-0.2897322177886962890625</LongitudeDegrees>
            </Position>
            <AltitudeMeters>2945.199951171875</AltitudeMeters>
            <DistanceMeters>NAN</DistanceMeters>
          </Trackpoint>
          <Trackpoint>
            <Time>2022-08-22T08:24:52.000Z</Time>
            <Position>
              <LatitudeDegrees>42.8354568220674991607666015625</LatitudeDegrees>
              <LongitudeDegrees>-0.2897541783750057220458984375</LongitudeDegrees>
            </Position>
            <AltitudeMeters>2945</AltitudeMeters>
            <DistanceMeters>NAN</DistanceMeters>
          </Trackpoint>
          <Trackpoint>
            <Time>2022-08-22T08:25:07.000Z</Time>
            <Position>
              <LatitudeDegrees>42.83536604605615139007568359375</LatitudeDegrees>
              <LongitudeDegrees>-0.2897582016885280609130859375</LongitudeDegrees>
            </Position>
            <AltitudeMeters>2944.800048828125</AltitudeMeters>
            <DistanceMeters>NAN</DistanceMeters>
          </Trackpoint>
          <Trackpoint>
            <Time>2022-08-22T08:25:12.000Z</Time>
            <Position>
              <LatitudeDegrees>42.83531642518937587738037109375</LatitudeDegrees>
              <LongitudeDegrees>-0.28975476510822772979736328125</LongitudeDegrees>
            </Position>
            <AltitudeMeters>2945.60009765625</AltitudeMeters>
            <DistanceMeters>NAN</DistanceMeters>
          </Trackpoint>
          <Trackpoint>
            <Time>2022-08-22T08:25:28.000Z</Time>
            <Position>
              <LatitudeDegrees>42.8351537324488162994384765625</LatitudeDegrees>
              <LongitudeDegrees>-0.2897280268371105194091796875</LongitudeDegrees>
            </Position>
            <AltitudeMeters>2949.800048828125</AltitudeMeters>
            <DistanceMeters>NAN</DistanceMeters>
          </Trackpoint>
          <Trackpoint>
            <Time>2022-08-22T08:25:31.000Z</Time>
            <Position>
              <LatitudeDegrees>42.83513973467051982879638671875</LatitudeDegrees>
              <LongitudeDegrees>-0.28970933519303798675537109375</LongitudeDegrees>
            </Position>
            <AltitudeMeters>2950.39990234375</AltitudeMeters>
            <DistanceMeters>NAN</DistanceMeters>
          </Trackpoint>
          <Trackpoint>
            <Time>2022-08-22T08:25:34.000Z</Time>
            <Position>
              <LatitudeDegrees>42.83513369970023632049560546875</LatitudeDegrees>
              <LongitudeDegrees>-0.28968854807317256927490234375</LongitudeDegrees>
            </Position>
            <AltitudeMeters>2950.800048828125</AltitudeMeters>
            <DistanceMeters>NAN</DistanceMeters>
          </Trackpoint>
          <Trackpoint>
            <Time>2022-08-22T08:25:37.000Z</Time>
            <Position>
              <LatitudeDegrees>42.83511475659906864166259765625</LatitudeDegrees>
              <LongitudeDegrees>-0.2896874584257602691650390625</LongitudeDegrees>
            </Position>
            <AltitudeMeters>2951.199951171875</AltitudeMeters>
            <DistanceMeters>NAN</DistanceMeters>
          </Trackpoint>
          <Trackpoint>
            <Time>2022-08-22T08:25:41.000Z</Time>
            <Position>
              <LatitudeDegrees>42.83508843742311000823974609375</LatitudeDegrees>
              <LongitudeDegrees>-0.2896871231496334075927734375</LongitudeDegrees>
            </Position>
            <AltitudeMeters>2952</AltitudeMeters>
            <DistanceMeters>NAN</DistanceMeters>
          </Trackpoint>
          <Trackpoint>
            <Time>2022-08-22T08:25:50.000Z</Time>
            <Position>
              <LatitudeDegrees>42.835025154054164886474609375</LatitudeDegrees>
              <LongitudeDegrees>-0.2896928228437900543212890625</LongitudeDegrees>
            </Position>
            <AltitudeMeters>2954.800048828125</AltitudeMeters>
            <DistanceMeters>NAN</DistanceMeters>
          </Trackpoint>
          <Trackpoint>
            <Time>2022-08-22T08:25:54.000Z</Time>
            <Position>
              <LatitudeDegrees>42.8350189514458179473876953125</LatitudeDegrees>
              <LongitudeDegrees>-0.28969801962375640869140625</LongitudeDegrees>
            </Position>
            <AltitudeMeters>2955</AltitudeMeters>
            <DistanceMeters>NAN</DistanceMeters>
          </Trackpoint>
          <Trackpoint>
            <Time>2022-08-22T08:25:57.000Z</Time>
            <Position>
              <LatitudeDegrees>42.83500160090625286102294921875</LatitudeDegrees>
              <LongitudeDegrees>-0.28969743289053440093994140625</LongitudeDegrees>
            </Position>
            <AltitudeMeters>2955.800048828125</AltitudeMeters>
            <DistanceMeters>NAN</DistanceMeters>
          </Trackpoint>
          <Trackpoint>
            <Time>2022-08-22T08:26:00.000Z</Time>
            <Position>
              <LatitudeDegrees>42.83503127284348011016845703125</LatitudeDegrees>
              <LongitudeDegrees>-0.2896785736083984375</LongitudeDegrees>
            </Position>
            <AltitudeMeters>2954.800048828125</AltitudeMeters>
            <DistanceMeters>NAN</DistanceMeters>
          </Trackpoint>
          <Trackpoint>
            <Time>2022-08-22T08:26:03.000Z</Time>
            <Position>
              <LatitudeDegrees>42.8350504674017429351806640625</LatitudeDegrees>
              <LongitudeDegrees>-0.2896619774401187896728515625</LongitudeDegrees>
            </Position>
            <AltitudeMeters>2954</AltitudeMeters>
            <DistanceMeters>NAN</DistanceMeters>
          </Trackpoint>
          <Trackpoint>
            <Time>2022-08-22T08:26:17.000Z</Time>
            <Position>
              <LatitudeDegrees>42.835055328905582427978515625</LatitudeDegrees>
              <LongitudeDegrees>-0.28963289223611354827880859375</LongitudeDegrees>
            </Position>
            <AltitudeMeters>2953.199951171875</AltitudeMeters>
            <DistanceMeters>NAN</DistanceMeters>
          </Trackpoint>
          <Trackpoint>
            <Time>2022-08-22T08:26:22.000Z</Time>
            <Position>
              <LatitudeDegrees>42.83505205996334552764892578125</LatitudeDegrees>
              <LongitudeDegrees>-0.28963775373995304107666015625</LongitudeDegrees>
            </Position>
            <AltitudeMeters>2953.39990234375</AltitudeMeters>
            <DistanceMeters>NAN</DistanceMeters>
          </Trackpoint>
          <Trackpoint>
            <Time>2022-08-22T08:26:33.000Z</Time>
            <Position>
              <LatitudeDegrees>42.83505574800074100494384765625</LatitudeDegrees>
              <LongitudeDegrees>-0.2896448783576488494873046875</LongitudeDegrees>
            </Position>
            <AltitudeMeters>2953.39990234375</AltitudeMeters>
            <DistanceMeters>NAN</DistanceMeters>
          </Trackpoint>
          <Trackpoint>
            <Time>2022-08-22T08:26:40.000Z</Time>
            <Position>
              <LatitudeDegrees>42.835052646696567535400390625</LatitudeDegrees>
              <LongitudeDegrees>-0.2896341495215892791748046875</LongitudeDegrees>
            </Position>
            <AltitudeMeters>2953.199951171875</AltitudeMeters>
            <DistanceMeters>NAN</DistanceMeters>
          </Trackpoint>
          <Trackpoint>
            <Time>2022-08-22T08:26:43.000Z</Time>
            <Position>
              <LatitudeDegrees>42.8350514732301235198974609375</LatitudeDegrees>
              <LongitudeDegrees>-0.28962853364646434783935546875</LongitudeDegrees>
            </Position>
            <AltitudeMeters>2953.199951171875</AltitudeMeters>
            <DistanceMeters>NAN</DistanceMeters>
          </Trackpoint>
          <Trackpoint>
            <Time>2022-08-22T08:26:46.000Z</Time>
            <Position>
              <LatitudeDegrees>42.83505490981042385101318359375</LatitudeDegrees>
              <LongitudeDegrees>-0.2896247617900371551513671875</LongitudeDegrees>
            </Position>
            <AltitudeMeters>2953</AltitudeMeters>
            <DistanceMeters>NAN</DistanceMeters>
          </Trackpoint>
          <Trackpoint>
            <Time>2022-08-22T08:26:51.000Z</Time>
            <Position>
              <LatitudeDegrees>42.83505968749523162841796875</LatitudeDegrees>
              <LongitudeDegrees>-0.28963071294128894805908203125</LongitudeDegrees>
            </Position>
            <AltitudeMeters>2952.800048828125</AltitudeMeters>
            <DistanceMeters>NAN</DistanceMeters>
          </Trackpoint>
          <Trackpoint>
            <Time>2022-08-22T08:26:54.000Z</Time>
            <Position>
              <LatitudeDegrees>42.83505675382912158966064453125</LatitudeDegrees>
              <LongitudeDegrees>-0.2896338142454624176025390625</LongitudeDegrees>
            </Position>
            <AltitudeMeters>2953</AltitudeMeters>
            <DistanceMeters>NAN</DistanceMeters>
          </Trackpoint>
          <Trackpoint>
            <Time>2022-08-22T08:26:56.000Z</Time>
            <Position>
              <LatitudeDegrees>42.8350548259913921356201171875</LatitudeDegrees>
              <LongitudeDegrees>-0.28963758610188961029052734375</LongitudeDegrees>
            </Position>
            <AltitudeMeters>2953.199951171875</AltitudeMeters>
            <DistanceMeters>NAN</DistanceMeters>
          </Trackpoint>
          <Trackpoint>
            <Time>2022-08-22T08:27:00.000Z</Time>
            <Position>
              <LatitudeDegrees>42.83505574800074100494384765625</LatitudeDegrees>
              <LongitudeDegrees>-0.28963842429220676422119140625</LongitudeDegrees>
            </Position>
            <AltitudeMeters>2953.199951171875</AltitudeMeters>
            <DistanceMeters>NAN</DistanceMeters>
          </Trackpoint>
          <Trackpoint>
            <Time>2022-08-22T08:27:05.000Z</Time>
            <Position>
              <LatitudeDegrees>42.8350575082004070281982421875</LatitudeDegrees>
              <LongitudeDegrees>-0.28964160941541194915771484375</LongitudeDegrees>
            </Position>
            <AltitudeMeters>2953.199951171875</AltitudeMeters>
            <DistanceMeters>NAN</DistanceMeters>
          </Trackpoint>
          <Trackpoint>
            <Time>2022-08-22T08:27:10.000Z</Time>
            <Position>
              <LatitudeDegrees>42.83504669554531574249267578125</LatitudeDegrees>
              <LongitudeDegrees>-0.28965267352759838104248046875</LongitudeDegrees>
            </Position>
            <AltitudeMeters>2954</AltitudeMeters>
            <DistanceMeters>NAN</DistanceMeters>
          </Trackpoint>
          <Trackpoint>
            <Time>2022-08-22T08:27:18.000Z</Time>
            <Position>
              <LatitudeDegrees>42.8350269980728626251220703125</LatitudeDegrees>
              <LongitudeDegrees>-0.2896609716117382049560546875</LongitudeDegrees>
            </Position>
            <AltitudeMeters>2955.199951171875</AltitudeMeters>
            <DistanceMeters>NAN</DistanceMeters>
          </Trackpoint>
          <Trackpoint>
            <Time>2022-08-22T08:27:20.000Z</Time>
            <Position>
              <LatitudeDegrees>42.83502624370157718658447265625</LatitudeDegrees>
              <LongitudeDegrees>-0.28966105543076992034912109375</LongitudeDegrees>
            </Position>
            <AltitudeMeters>2955.199951171875</AltitudeMeters>
            <DistanceMeters>NAN</DistanceMeters>
          </Trackpoint>
          <Trackpoint>
            <Time>2022-08-22T08:27:25.000Z</Time>
            <Position>
              <LatitudeDegrees>42.8350206278264522552490234375</LatitudeDegrees>
              <LongitudeDegrees>-0.289662815630435943603515625</LongitudeDegrees>
            </Position>
            <AltitudeMeters>2955.60009765625</AltitudeMeters>
            <DistanceMeters>NAN</DistanceMeters>
          </Trackpoint>
          <Trackpoint>
            <Time>2022-08-22T08:27:30.000Z</Time>
            <Position>
              <LatitudeDegrees>42.8350189514458179473876953125</LatitudeDegrees>
              <LongitudeDegrees>-0.28966457583010196685791015625</LongitudeDegrees>
            </Position>
            <AltitudeMeters>2955.800048828125</AltitudeMeters>
            <DistanceMeters>NAN</DistanceMeters>
          </Trackpoint>
          <Trackpoint>
            <Time>2022-08-22T08:27:40.000Z</Time>
            <Position>
              <LatitudeDegrees>42.83502188511192798614501953125</LatitudeDegrees>
              <LongitudeDegrees>-0.28966105543076992034912109375</LongitudeDegrees>
            </Position>
            <AltitudeMeters>2955.60009765625</AltitudeMeters>
            <DistanceMeters>NAN</DistanceMeters>
          </Trackpoint>
          <Trackpoint>
            <Time>2022-08-22T08:27:44.000Z</Time>
            <Position>
              <LatitudeDegrees>42.83503160811960697174072265625</LatitudeDegrees>
              <LongitudeDegrees>-0.289656780660152435302734375</LongitudeDegrees>
            </Position>
            <AltitudeMeters>2955</AltitudeMeters>
            <DistanceMeters>NAN</DistanceMeters>
          </Trackpoint>
          <Trackpoint>
            <Time>2022-08-22T08:28:06.000Z</Time>
            <Position>
              <LatitudeDegrees>42.835041582584381103515625</LatitudeDegrees>
              <LongitudeDegrees>-0.2896530926227569580078125</LongitudeDegrees>
            </Position>
            <AltitudeMeters>2954.39990234375</AltitudeMeters>
            <DistanceMeters>NAN</DistanceMeters>
          </Trackpoint>
          <Trackpoint>
            <Time>2022-08-22T08:28:10.000Z</Time>
            <Position>
              <LatitudeDegrees>42.83503999002277851104736328125</LatitudeDegrees>
              <LongitudeDegrees>-0.2896515838801860809326171875</LongitudeDegrees>
            </Position>
            <AltitudeMeters>2954.39990234375</AltitudeMeters>
            <DistanceMeters>NAN</DistanceMeters>
          </Trackpoint>
          <Trackpoint>
            <Time>2022-08-22T08:28:26.000Z</Time>
            <Position>
              <LatitudeDegrees>42.83503730781376361846923828125</LatitudeDegrees>
              <LongitudeDegrees>-0.289650075137615203857421875</LongitudeDegrees>
            </Position>
            <AltitudeMeters>2954.39990234375</AltitudeMeters>
            <DistanceMeters>NAN</DistanceMeters>
          </Trackpoint>
          <Trackpoint>
            <Time>2022-08-22T08:28:31.000Z</Time>
            <Position>
              <LatitudeDegrees>42.83503688871860504150390625</LatitudeDegrees>
              <LongitudeDegrees>-0.28965082950890064239501953125</LongitudeDegrees>
            </Position>
            <AltitudeMeters>2954.60009765625</AltitudeMeters>
            <DistanceMeters>NAN</DistanceMeters>
          </Trackpoint>
          <Trackpoint>
            <Time>2022-08-22T08:28:35.000Z</Time>
            <Position>
              <LatitudeDegrees>42.835037223994731903076171875</LatitudeDegrees>
              <LongitudeDegrees>-0.2896499074995517730712890625</LongitudeDegrees>
            </Position>
            <AltitudeMeters>2954.39990234375</AltitudeMeters>
            <DistanceMeters>NAN</DistanceMeters>
          </Trackpoint>
          <Trackpoint>
            <Time>2022-08-22T08:29:03.000Z</Time>
            <Position>
              <LatitudeDegrees>42.83504066057503223419189453125</LatitudeDegrees>
              <LongitudeDegrees>-0.28965669684112071990966796875</LongitudeDegrees>
            </Position>
            <AltitudeMeters>2954.39990234375</AltitudeMeters>
            <DistanceMeters>NAN</DistanceMeters>
          </Trackpoint>
          <Trackpoint>
            <Time>2022-08-22T08:29:21.000Z</Time>
            <Position>
              <LatitudeDegrees>42.8350724279880523681640625</LatitudeDegrees>
              <LongitudeDegrees>-0.28963456861674785614013671875</LongitudeDegrees>
            </Position>
            <AltitudeMeters>2952.39990234375</AltitudeMeters>
            <DistanceMeters>NAN</DistanceMeters>
          </Trackpoint>
          <Trackpoint>
            <Time>2022-08-22T08:29:44.000Z</Time>
            <Position>
              <LatitudeDegrees>42.8351419977843761444091796875</LatitudeDegrees>
              <LongitudeDegrees>-0.289592742919921875</LongitudeDegrees>
            </Position>
            <AltitudeMeters>2948.39990234375</AltitudeMeters>
            <DistanceMeters>NAN</DistanceMeters>
          </Trackpoint>
          <Trackpoint>
            <Time>2022-08-22T08:29:48.000Z</Time>
            <Position>
              <LatitudeDegrees>42.83514778129756450653076171875</LatitudeDegrees>
              <LongitudeDegrees>-0.2895868755877017974853515625</LongitudeDegrees>
            </Position>
            <AltitudeMeters>2948</AltitudeMeters>
            <DistanceMeters>NAN</DistanceMeters>
          </Trackpoint>
          <Trackpoint>
            <Time>2022-08-22T08:30:09.000Z</Time>
            <Position>
              <LatitudeDegrees>42.8351322747766971588134765625</LatitudeDegrees>
              <LongitudeDegrees>-0.2895932458341121673583984375</LongitudeDegrees>
            </Position>
            <AltitudeMeters>2948.800048828125</AltitudeMeters>
            <DistanceMeters>NAN</DistanceMeters>
          </Trackpoint>
          <Trackpoint>
            <Time>2022-08-22T08:31:02.000Z</Time>
            <Position>
              <LatitudeDegrees>42.8351248987019062042236328125</LatitudeDegrees>
              <LongitudeDegrees>-0.2895969338715076446533203125</LongitudeDegrees>
            </Position>
            <AltitudeMeters>2949.199951171875</AltitudeMeters>
            <DistanceMeters>NAN</DistanceMeters>
          </Trackpoint>
          <Trackpoint>
            <Time>2022-08-22T08:31:48.000Z</Time>
            <Position>
              <LatitudeDegrees>42.83502456732094287872314453125</LatitudeDegrees>
              <LongitudeDegrees>-0.28962786309421062469482421875</LongitudeDegrees>
            </Position>
            <AltitudeMeters>2954.60009765625</AltitudeMeters>
            <DistanceMeters>NAN</DistanceMeters>
          </Trackpoint>
          <Trackpoint>
            <Time>2022-08-22T08:31:51.000Z</Time>
            <Position>
              <LatitudeDegrees>42.8350189514458179473876953125</LatitudeDegrees>
              <LongitudeDegrees>-0.2896338142454624176025390625</LongitudeDegrees>
            </Position>
            <AltitudeMeters>2955</AltitudeMeters>
            <DistanceMeters>NAN</DistanceMeters>
          </Trackpoint>
          <Trackpoint>
            <Time>2022-08-22T08:31:53.000Z</Time>
            <Position>
              <LatitudeDegrees>42.83501652069389820098876953125</LatitudeDegrees>
              <LongitudeDegrees>-0.289636664092540740966796875</LongitudeDegrees>
            </Position>
            <AltitudeMeters>2955.199951171875</AltitudeMeters>
            <DistanceMeters>NAN</DistanceMeters>
          </Trackpoint>
          <Trackpoint>
            <Time>2022-08-22T08:31:56.000Z</Time>
            <Position>
              <LatitudeDegrees>42.83500042743980884552001953125</LatitudeDegrees>
              <LongitudeDegrees>-0.2896348200738430023193359375</LongitudeDegrees>
            </Position>
            <AltitudeMeters>2956</AltitudeMeters>
            <DistanceMeters>NAN</DistanceMeters>
          </Trackpoint>
          <Trackpoint>
            <Time>2022-08-22T08:31:59.000Z</Time>
            <Position>
              <LatitudeDegrees>42.83499531447887420654296875</LatitudeDegrees>
              <LongitudeDegrees>-0.289633981883525848388671875</LongitudeDegrees>
            </Position>
            <AltitudeMeters>2956.199951171875</AltitudeMeters>
            <DistanceMeters>NAN</DistanceMeters>
          </Trackpoint>
          <Trackpoint>
            <Time>2022-08-22T08:32:00.000Z</Time>
            <Position>
              <LatitudeDegrees>42.8349941410124301910400390625</LatitudeDegrees>
              <LongitudeDegrees>-0.2896314673125743865966796875</LongitudeDegrees>
            </Position>
            <AltitudeMeters>2956.199951171875</AltitudeMeters>
            <DistanceMeters>NAN</DistanceMeters>
          </Trackpoint>
          <Trackpoint>
            <Time>2022-08-22T08:32:05.000Z</Time>
            <Position>
              <LatitudeDegrees>42.83499204553663730621337890625</LatitudeDegrees>
              <LongitudeDegrees>-0.2896247617900371551513671875</LongitudeDegrees>
            </Position>
            <AltitudeMeters>2956.199951171875</AltitudeMeters>
            <DistanceMeters>NAN</DistanceMeters>
          </Trackpoint>
          <Trackpoint>
            <Time>2022-08-22T08:32:18.000Z</Time>
            <Position>
              <LatitudeDegrees>42.83499355427920818328857421875</LatitudeDegrees>
              <LongitudeDegrees>-0.289617888629436492919921875</LongitudeDegrees>
            </Position>
            <AltitudeMeters>2955.800048828125</AltitudeMeters>
            <DistanceMeters>NAN</DistanceMeters>
          </Trackpoint>
          <Trackpoint>
            <Time>2022-08-22T08:32:37.000Z</Time>
            <Position>
              <LatitudeDegrees>42.83497125841677188873291015625</LatitudeDegrees>
              <LongitudeDegrees>-0.28958913870155811309814453125</LongitudeDegrees>
            </Position>
            <AltitudeMeters>2956.199951171875</AltitudeMeters>
            <DistanceMeters>NAN</DistanceMeters>
          </Trackpoint>
          <Trackpoint>
            <Time>2022-08-22T08:32:39.000Z</Time>
            <Position>
              <LatitudeDegrees>42.83497142605483531951904296875</LatitudeDegrees>
              <LongitudeDegrees>-0.289586372673511505126953125</LongitudeDegrees>
            </Position>
            <AltitudeMeters>2956.199951171875</AltitudeMeters>
            <DistanceMeters>NAN</DistanceMeters>
          </Trackpoint>
          <Trackpoint>
            <Time>2022-08-22T08:32:42.000Z</Time>
            <Position>
              <LatitudeDegrees>42.834967486560344696044921875</LatitudeDegrees>
              <LongitudeDegrees>-0.28957924805581569671630859375</LongitudeDegrees>
            </Position>
            <AltitudeMeters>2956.199951171875</AltitudeMeters>
            <DistanceMeters>NAN</DistanceMeters>
          </Trackpoint>
          <Trackpoint>
            <Time>2022-08-22T08:33:02.000Z</Time>
            <Position>
              <LatitudeDegrees>42.83492180518805980682373046875</LatitudeDegrees>
              <LongitudeDegrees>-0.28953633271157741546630859375</LongitudeDegrees>
            </Position>
            <AltitudeMeters>2957.39990234375</AltitudeMeters>
            <DistanceMeters>NAN</DistanceMeters>
          </Trackpoint>
          <Trackpoint>
            <Time>2022-08-22T08:33:49.000Z</Time>
            <Position>
              <LatitudeDegrees>42.83490185625851154327392578125</LatitudeDegrees>
              <LongitudeDegrees>-0.28947782702744007110595703125</LongitudeDegrees>
            </Position>
            <AltitudeMeters>2956.60009765625</AltitudeMeters>
            <DistanceMeters>NAN</DistanceMeters>
          </Trackpoint>
          <Trackpoint>
            <Time>2022-08-22T08:34:17.000Z</Time>
            <Position>
              <LatitudeDegrees>42.83487201668322086334228515625</LatitudeDegrees>
              <LongitudeDegrees>-0.28950565494596958160400390625</LongitudeDegrees>
            </Position>
            <AltitudeMeters>2958.800048828125</AltitudeMeters>
            <DistanceMeters>NAN</DistanceMeters>
          </Trackpoint>
          <Trackpoint>
            <Time>2022-08-22T08:34:30.000Z</Time>
            <Position>
              <LatitudeDegrees>42.83485106192529201507568359375</LatitudeDegrees>
              <LongitudeDegrees>-0.28952023945748805999755859375</LongitudeDegrees>
            </Position>
            <AltitudeMeters>2960.199951171875</AltitudeMeters>
            <DistanceMeters>NAN</DistanceMeters>
          </Trackpoint>
          <Trackpoint>
            <Time>2022-08-22T08:34:37.000Z</Time>
            <Position>
              <LatitudeDegrees>42.83481384627521038055419921875</LatitudeDegrees>
              <LongitudeDegrees>-0.28951697051525115966796875</LongitudeDegrees>
            </Position>
            <AltitudeMeters>2961.800048828125</AltitudeMeters>
            <DistanceMeters>NAN</DistanceMeters>
          </Trackpoint>
          <Trackpoint>
            <Time>2022-08-22T08:34:44.000Z</Time>
            <Position>
              <LatitudeDegrees>42.83482574857771396636962890625</LatitudeDegrees>
              <LongitudeDegrees>-0.28950381092727184295654296875</LongitudeDegrees>
            </Position>
            <AltitudeMeters>2960.800048828125</AltitudeMeters>
            <DistanceMeters>NAN</DistanceMeters>
          </Trackpoint>
          <Trackpoint>
            <Time>2022-08-22T08:34:51.000Z</Time>
            <Position>
              <LatitudeDegrees>42.83483144827187061309814453125</LatitudeDegrees>
              <LongitudeDegrees>-0.2895023860037326812744140625</LongitudeDegrees>
            </Position>
            <AltitudeMeters>2960.60009765625</AltitudeMeters>
            <DistanceMeters>NAN</DistanceMeters>
          </Trackpoint>
          <Trackpoint>
            <Time>2022-08-22T08:35:00.000Z</Time>
            <Position>
              <LatitudeDegrees>42.834832705557346343994140625</LatitudeDegrees>
              <LongitudeDegrees>-0.28949417173862457275390625</LongitudeDegrees>
            </Position>
            <AltitudeMeters>2960.199951171875</AltitudeMeters>
            <DistanceMeters>NAN</DistanceMeters>
          </Trackpoint>
          <Trackpoint>
            <Time>2022-08-22T08:35:04.000Z</Time>
            <Position>
              <LatitudeDegrees>42.8348332084715366363525390625</LatitudeDegrees>
              <LongitudeDegrees>-0.2894893102347850799560546875</LongitudeDegrees>
            </Position>
            <AltitudeMeters>2960.199951171875</AltitudeMeters>
            <DistanceMeters>NAN</DistanceMeters>
          </Trackpoint>
          <Trackpoint>
            <Time>2022-08-22T08:35:08.000Z</Time>
            <Position>
              <LatitudeDegrees>42.83483664505183696746826171875</LatitudeDegrees>
              <LongitudeDegrees>-0.2894799225032329559326171875</LongitudeDegrees>
            </Position>
            <AltitudeMeters>2959.800048828125</AltitudeMeters>
            <DistanceMeters>NAN</DistanceMeters>
          </Trackpoint>
          <Trackpoint>
            <Time>2022-08-22T08:35:11.000Z</Time>
            <Position>
              <LatitudeDegrees>42.83483647741377353668212890625</LatitudeDegrees>
              <LongitudeDegrees>-0.2894735522568225860595703125</LongitudeDegrees>
            </Position>
            <AltitudeMeters>2959.60009765625</AltitudeMeters>
            <DistanceMeters>NAN</DistanceMeters>
          </Trackpoint>
          <Trackpoint>
            <Time>2022-08-22T08:35:13.000Z</Time>
            <Position>
              <LatitudeDegrees>42.834836058318614959716796875</LatitudeDegrees>
              <LongitudeDegrees>-0.289467684924602508544921875</LongitudeDegrees>
            </Position>
            <AltitudeMeters>2959.39990234375</AltitudeMeters>
            <DistanceMeters>NAN</DistanceMeters>
          </Trackpoint>
          <Trackpoint>
            <Time>2022-08-22T08:35:15.000Z</Time>
            <Position>
              <LatitudeDegrees>42.83483798615634441375732421875</LatitudeDegrees>
              <LongitudeDegrees>-0.2894648350775241851806640625</LongitudeDegrees>
            </Position>
            <AltitudeMeters>2959.199951171875</AltitudeMeters>
            <DistanceMeters>NAN</DistanceMeters>
          </Trackpoint>
          <Trackpoint>
            <Time>2022-08-22T08:35:16.000Z</Time>
            <Position>
              <LatitudeDegrees>42.83483781851828098297119140625</LatitudeDegrees>
              <LongitudeDegrees>-0.2894628234207630157470703125</LongitudeDegrees>
            </Position>
            <AltitudeMeters>2959.199951171875</AltitudeMeters>
            <DistanceMeters>NAN</DistanceMeters>
          </Trackpoint>
          <Trackpoint>
            <Time>2022-08-22T08:35:19.000Z</Time>
            <Position>
              <LatitudeDegrees>42.8348355554044246673583984375</LatitudeDegrees>
              <LongitudeDegrees>-0.2894567884504795074462890625</LongitudeDegrees>
            </Position>
            <AltitudeMeters>2959</AltitudeMeters>
            <DistanceMeters>NAN</DistanceMeters>
          </Trackpoint>
          <Trackpoint>
            <Time>2022-08-22T08:35:34.000Z</Time>
            <Position>
              <LatitudeDegrees>42.83483278937637805938720703125</LatitudeDegrees>
              <LongitudeDegrees>-0.2894111908972263336181640625</LongitudeDegrees>
            </Position>
            <AltitudeMeters>2958</AltitudeMeters>
            <DistanceMeters>NAN</DistanceMeters>
          </Trackpoint>
          <Trackpoint>
            <Time>2022-08-22T08:36:02.000Z</Time>
            <Position>
              <LatitudeDegrees>42.83481921069324016571044921875</LatitudeDegrees>
              <LongitudeDegrees>-0.28939358890056610107421875</LongitudeDegrees>
            </Position>
            <AltitudeMeters>2958</AltitudeMeters>
            <DistanceMeters>NAN</DistanceMeters>
          </Trackpoint>
          <Trackpoint>
            <Time>2022-08-22T08:36:11.000Z</Time>
            <Position>
              <LatitudeDegrees>42.83482591621577739715576171875</LatitudeDegrees>
              <LongitudeDegrees>-0.28938210569322109222412109375</LongitudeDegrees>
            </Position>
            <AltitudeMeters>2957.199951171875</AltitudeMeters>
            <DistanceMeters>NAN</DistanceMeters>
          </Trackpoint>
          <Trackpoint>
            <Time>2022-08-22T08:37:49.000Z</Time>
            <Position>
              <LatitudeDegrees>42.8348140977323055267333984375</LatitudeDegrees>
              <LongitudeDegrees>-0.28933634050190448760986328125</LongitudeDegrees>
            </Position>
            <AltitudeMeters>2952.60009765625</AltitudeMeters>
            <DistanceMeters>NAN</DistanceMeters>
          </Trackpoint>
          <Trackpoint>
            <Time>2022-08-22T08:38:03.000Z</Time>
            <Position>
              <LatitudeDegrees>42.834797836840152740478515625</LatitudeDegrees>
              <LongitudeDegrees>-0.28940255753695964813232421875</LongitudeDegrees>
            </Position>
            <AltitudeMeters>2958.800048828125</AltitudeMeters>
            <DistanceMeters>NAN</DistanceMeters>
          </Trackpoint>
          <Trackpoint>
            <Time>2022-08-22T08:38:10.000Z</Time>
            <Position>
              <LatitudeDegrees>42.83481317572295665740966796875</LatitudeDegrees>
              <LongitudeDegrees>-0.28941764496266841888427734375</LongitudeDegrees>
            </Position>
            <AltitudeMeters>2959</AltitudeMeters>
            <DistanceMeters>NAN</DistanceMeters>
          </Trackpoint>
          <Trackpoint>
            <Time>2022-08-22T08:38:15.000Z</Time>
            <Position>
              <LatitudeDegrees>42.83481351099908351898193359375</LatitudeDegrees>
              <LongitudeDegrees>-0.28942669741809368133544921875</LongitudeDegrees>
            </Position>
            <AltitudeMeters>2959.199951171875</AltitudeMeters>
            <DistanceMeters>NAN</DistanceMeters>
          </Trackpoint>
          <Trackpoint>
            <Time>2022-08-22T08:38:24.000Z</Time>
            <Position>
              <LatitudeDegrees>42.83481149934232234954833984375</LatitudeDegrees>
              <LongitudeDegrees>-0.289458297193050384521484375</LongitudeDegrees>
            </Position>
            <AltitudeMeters>2960.199951171875</AltitudeMeters>
            <DistanceMeters>NAN</DistanceMeters>
          </Trackpoint>
          <Trackpoint>
            <Time>2022-08-22T08:38:30.000Z</Time>
            <Position>
              <LatitudeDegrees>42.83480445854365825653076171875</LatitudeDegrees>
              <LongitudeDegrees>-0.2894497476518154144287109375</LongitudeDegrees>
            </Position>
            <AltitudeMeters>2960</AltitudeMeters>
            <DistanceMeters>NAN</DistanceMeters>
          </Trackpoint>
          <Trackpoint>
            <Time>2022-08-22T08:38:32.000Z</Time>
            <Position>
              <LatitudeDegrees>42.83479372970759868621826171875</LatitudeDegrees>
              <LongitudeDegrees>-0.2894465625286102294921875</LongitudeDegrees>
            </Position>
            <AltitudeMeters>2960.199951171875</AltitudeMeters>
            <DistanceMeters>NAN</DistanceMeters>
          </Trackpoint>
          <Trackpoint>
            <Time>2022-08-22T08:38:33.000Z</Time>
            <Position>
              <LatitudeDegrees>42.8347819112241268157958984375</LatitudeDegrees>
              <LongitudeDegrees>-0.2894477359950542449951171875</LongitudeDegrees>
            </Position>
            <AltitudeMeters>2960.39990234375</AltitudeMeters>
            <DistanceMeters>NAN</DistanceMeters>
          </Trackpoint>
          <Trackpoint>
            <Time>2022-08-22T08:38:39.000Z</Time>
            <Position>
              <LatitudeDegrees>42.83476774580776691436767578125</LatitudeDegrees>
              <LongitudeDegrees>-0.2894443832337856292724609375</LongitudeDegrees>
            </Position>
            <AltitudeMeters>2960.800048828125</AltitudeMeters>
            <DistanceMeters>NAN</DistanceMeters>
          </Trackpoint>
          <Trackpoint>
            <Time>2022-08-22T08:38:44.000Z</Time>
            <Position>
              <LatitudeDegrees>42.83476104028522968292236328125</LatitudeDegrees>
              <LongitudeDegrees>-0.28944849036633968353271484375</LongitudeDegrees>
            </Position>
            <AltitudeMeters>2961</AltitudeMeters>
            <DistanceMeters>NAN</DistanceMeters>
          </Trackpoint>
          <Trackpoint>
            <Time>2022-08-22T08:38:49.000Z</Time>
            <Position>
              <LatitudeDegrees>42.83475869335234165191650390625</LatitudeDegrees>
              <LongitudeDegrees>-0.289458967745304107666015625</LongitudeDegrees>
            </Position>
            <AltitudeMeters>2961.39990234375</AltitudeMeters>
            <DistanceMeters>NAN</DistanceMeters>
          </Trackpoint>
          <Trackpoint>
            <Time>2022-08-22T08:38:50.000Z</Time>
            <Position>
              <LatitudeDegrees>42.8347581066191196441650390625</LatitudeDegrees>
              <LongitudeDegrees>-0.28946039266884326934814453125</LongitudeDegrees>
            </Position>
            <AltitudeMeters>2961.39990234375</AltitudeMeters>
            <DistanceMeters>NAN</DistanceMeters>
          </Trackpoint>
          <Trackpoint>
            <Time>2022-08-22T08:38:51.000Z</Time>
            <Position>
              <LatitudeDegrees>42.83475735224783420562744140625</LatitudeDegrees>
              <LongitudeDegrees>-0.28946190141141414642333984375</LongitudeDegrees>
            </Position>
            <AltitudeMeters>2961.39990234375</AltitudeMeters>
            <DistanceMeters>NAN</DistanceMeters>
          </Trackpoint>
          <Trackpoint>
            <Time>2022-08-22T08:38:53.000Z</Time>
            <Position>
              <LatitudeDegrees>42.8347530774772167205810546875</LatitudeDegrees>
              <LongitudeDegrees>-0.28946626000106334686279296875</LongitudeDegrees>
            </Position>
            <AltitudeMeters>2961.60009765625</AltitudeMeters>
            <DistanceMeters>NAN</DistanceMeters>
          </Trackpoint>
          <Trackpoint>
            <Time>2022-08-22T08:38:54.000Z</Time>
            <Position>
              <LatitudeDegrees>42.83474989235401153564453125</LatitudeDegrees>
              <LongitudeDegrees>-0.28946810401976108551025390625</LongitudeDegrees>
            </Position>
            <AltitudeMeters>2961.800048828125</AltitudeMeters>
            <DistanceMeters>NAN</DistanceMeters>
          </Trackpoint>
          <Trackpoint>
            <Time>2022-08-22T08:39:18.000Z</Time>
            <Position>
              <LatitudeDegrees>42.83470370806753635406494140625</LatitudeDegrees>
              <LongitudeDegrees>-0.28943424113094806671142578125</LongitudeDegrees>
            </Position>
            <AltitudeMeters>2963.60009765625</AltitudeMeters>
            <DistanceMeters>NAN</DistanceMeters>
          </Trackpoint>
          <Trackpoint>
            <Time>2022-08-22T08:39:28.000Z</Time>
            <Position>
              <LatitudeDegrees>42.83470018766820430755615234375</LatitudeDegrees>
              <LongitudeDegrees>-0.28945804573595523834228515625</LongitudeDegrees>
            </Position>
            <AltitudeMeters>2963.800048828125</AltitudeMeters>
            <DistanceMeters>NAN</DistanceMeters>
          </Trackpoint>
          <Trackpoint>
            <Time>2022-08-22T08:39:36.000Z</Time>
            <Position>
              <LatitudeDegrees>42.8347286023199558258056640625</LatitudeDegrees>
              <LongitudeDegrees>-0.2894423715770244598388671875</LongitudeDegrees>
            </Position>
            <AltitudeMeters>2962.39990234375</AltitudeMeters>
            <DistanceMeters>NAN</DistanceMeters>
          </Trackpoint>
          <Trackpoint>
            <Time>2022-08-22T08:39:38.000Z</Time>
            <Position>
              <LatitudeDegrees>42.8347322903573513031005859375</LatitudeDegrees>
              <LongitudeDegrees>-0.28943591751158237457275390625</LongitudeDegrees>
            </Position>
            <AltitudeMeters>2962.199951171875</AltitudeMeters>
            <DistanceMeters>NAN</DistanceMeters>
          </Trackpoint>
          <Trackpoint>
            <Time>2022-08-22T08:39:40.000Z</Time>
            <Position>
              <LatitudeDegrees>42.83473539166152477264404296875</LatitudeDegrees>
              <LongitudeDegrees>-0.2894331514835357666015625</LongitudeDegrees>
            </Position>
            <AltitudeMeters>2962</AltitudeMeters>
            <DistanceMeters>NAN</DistanceMeters>
          </Trackpoint>
          <Trackpoint>
            <Time>2022-08-22T08:39:42.000Z</Time>
            <Position>
              <LatitudeDegrees>42.834741510450839996337890625</LatitudeDegrees>
              <LongitudeDegrees>-0.2894303016364574432373046875</LongitudeDegrees>
            </Position>
            <AltitudeMeters>2961.800048828125</AltitudeMeters>
            <DistanceMeters>NAN</DistanceMeters>
          </Trackpoint>
          <Trackpoint>
            <Time>2022-08-22T08:39:45.000Z</Time>
            <Position>
              <LatitudeDegrees>42.8347460366785526275634765625</LatitudeDegrees>
              <LongitudeDegrees>-0.28942971490323543548583984375</LongitudeDegrees>
            </Position>
            <AltitudeMeters>2961.39990234375</AltitudeMeters>
            <DistanceMeters>NAN</DistanceMeters>
          </Trackpoint>
          <Trackpoint>
            <Time>2022-08-22T08:39:46.000Z</Time>
            <Position>
              <LatitudeDegrees>42.8347497247159481048583984375</LatitudeDegrees>
              <LongitudeDegrees>-0.28942585922777652740478515625</LongitudeDegrees>
            </Position>
            <AltitudeMeters>2961.199951171875</AltitudeMeters>
            <DistanceMeters>NAN</DistanceMeters>
          </Trackpoint>
          <Trackpoint>
            <Time>2022-08-22T08:39:47.000Z</Time>
            <Position>
              <LatitudeDegrees>42.83475047908723354339599609375</LatitudeDegrees>
              <LongitudeDegrees>-0.2894242666661739349365234375</LongitudeDegrees>
            </Position>
            <AltitudeMeters>2961.199951171875</AltitudeMeters>
            <DistanceMeters>NAN</DistanceMeters>
          </Trackpoint>
          <Trackpoint>
            <Time>2022-08-22T08:40:06.000Z</Time>
            <Position>
              <LatitudeDegrees>42.83476372249424457550048828125</LatitudeDegrees>
              <LongitudeDegrees>-0.28943591751158237457275390625</LongitudeDegrees>
            </Position>
            <AltitudeMeters>2960.60009765625</AltitudeMeters>
            <DistanceMeters>NAN</DistanceMeters>
          </Trackpoint>
          <Trackpoint>
            <Time>2022-08-22T08:40:41.000Z</Time>
            <Position>
              <LatitudeDegrees>42.83476539887487888336181640625</LatitudeDegrees>
              <LongitudeDegrees>-0.289442874491214752197265625</LongitudeDegrees>
            </Position>
            <AltitudeMeters>2960.800048828125</AltitudeMeters>
            <DistanceMeters>NAN</DistanceMeters>
          </Trackpoint>
          <Trackpoint>
            <Time>2022-08-22T08:41:43.000Z</Time>
            <Position>
              <LatitudeDegrees>42.83473153598606586456298828125</LatitudeDegrees>
              <LongitudeDegrees>-0.28936902992427349090576171875</LongitudeDegrees>
            </Position>
            <AltitudeMeters>2960.39990234375</AltitudeMeters>
            <DistanceMeters>NAN</DistanceMeters>
          </Trackpoint>
          <Trackpoint>
            <Time>2022-08-22T08:42:12.000Z</Time>
            <Position>
              <LatitudeDegrees>42.83473388291895389556884765625</LatitudeDegrees>
              <LongitudeDegrees>-0.28931354172527790069580078125</LongitudeDegrees>
            </Position>
            <AltitudeMeters>2954</AltitudeMeters>
            <DistanceMeters>NAN</DistanceMeters>
          </Trackpoint>
          <Trackpoint>
            <Time>2022-08-22T08:43:18.000Z</Time>
            <Position>
              <LatitudeDegrees>42.834709994494915008544921875</LatitudeDegrees>
              <LongitudeDegrees>-0.2892831154167652130126953125</LongitudeDegrees>
            </Position>
            <AltitudeMeters>2951.800048828125</AltitudeMeters>
            <DistanceMeters>NAN</DistanceMeters>
          </Trackpoint>
          <Trackpoint>
            <Time>2022-08-22T08:43:45.000Z</Time>
            <Position>
              <LatitudeDegrees>42.8347091563045978546142578125</LatitudeDegrees>
              <LongitudeDegrees>-0.289305411279201507568359375</LongitudeDegrees>
            </Position>
            <AltitudeMeters>2954.39990234375</AltitudeMeters>
            <DistanceMeters>NAN</DistanceMeters>
          </Trackpoint>
          <Trackpoint>
            <Time>2022-08-22T08:43:53.000Z</Time>
            <Position>
              <LatitudeDegrees>42.83471711911261081695556640625</LatitudeDegrees>
              <LongitudeDegrees>-0.2892965264618396759033203125</LongitudeDegrees>
            </Position>
            <AltitudeMeters>2953</AltitudeMeters>
            <DistanceMeters>NAN</DistanceMeters>
          </Trackpoint>
          <Trackpoint>
            <Time>2022-08-22T08:44:05.000Z</Time>
            <Position>
              <LatitudeDegrees>42.83473220653831958770751953125</LatitudeDegrees>
              <LongitudeDegrees>-0.2893012203276157379150390625</LongitudeDegrees>
            </Position>
            <AltitudeMeters>2952.800048828125</AltitudeMeters>
            <DistanceMeters>NAN</DistanceMeters>
          </Trackpoint>
          <Trackpoint>
            <Time>2022-08-22T08:44:07.000Z</Time>
            <Position>
              <LatitudeDegrees>42.83473338000476360321044921875</LatitudeDegrees>
              <LongitudeDegrees>-0.28930373489856719970703125</LongitudeDegrees>
            </Position>
            <AltitudeMeters>2953</AltitudeMeters>
            <DistanceMeters>NAN</DistanceMeters>
          </Trackpoint>
          <Trackpoint>
            <Time>2022-08-22T08:44:35.000Z</Time>
            <Position>
              <LatitudeDegrees>42.834699265658855438232421875</LatitudeDegrees>
              <LongitudeDegrees>-0.2893153019249439239501953125</LongitudeDegrees>
            </Position>
            <AltitudeMeters>2956</AltitudeMeters>
            <DistanceMeters>NAN</DistanceMeters>
          </Trackpoint>
          <Trackpoint>
            <Time>2022-08-22T08:44:39.000Z</Time>
            <Position>
              <LatitudeDegrees>42.8346940688788890838623046875</LatitudeDegrees>
              <LongitudeDegrees>-0.28931924141943454742431640625</LongitudeDegrees>
            </Position>
            <AltitudeMeters>2956.60009765625</AltitudeMeters>
            <DistanceMeters>NAN</DistanceMeters>
          </Trackpoint>
          <Trackpoint>
            <Time>2022-08-22T08:44:40.000Z</Time>
            <Position>
              <LatitudeDegrees>42.8346957452595233917236328125</LatitudeDegrees>
              <LongitudeDegrees>-0.28931136243045330047607421875</LongitudeDegrees>
            </Position>
            <AltitudeMeters>2955.60009765625</AltitudeMeters>
            <DistanceMeters>NAN</DistanceMeters>
          </Trackpoint>
          <Trackpoint>
            <Time>2022-08-22T08:44:43.000Z</Time>
            <Position>
              <LatitudeDegrees>42.83469834364950656890869140625</LatitudeDegrees>
              <LongitudeDegrees>-0.28930448926985263824462890625</LongitudeDegrees>
            </Position>
            <AltitudeMeters>2954.800048828125</AltitudeMeters>
            <DistanceMeters>NAN</DistanceMeters>
          </Trackpoint>
          <Trackpoint>
            <Time>2022-08-22T08:44:54.000Z</Time>
            <Position>
              <LatitudeDegrees>42.83470739610493183135986328125</LatitudeDegrees>
              <LongitudeDegrees>-0.28930013068020343780517578125</LongitudeDegrees>
            </Position>
            <AltitudeMeters>2953.800048828125</AltitudeMeters>
            <DistanceMeters>NAN</DistanceMeters>
          </Trackpoint>
          <Trackpoint>
            <Time>2022-08-22T08:45:16.000Z</Time>
            <Position>
              <LatitudeDegrees>42.83471963368356227874755859375</LatitudeDegrees>
              <LongitudeDegrees>-0.2892730571329593658447265625</LongitudeDegrees>
            </Position>
            <AltitudeMeters>2950.199951171875</AltitudeMeters>
            <DistanceMeters>NAN</DistanceMeters>
          </Trackpoint>
          <Trackpoint>
            <Time>2022-08-22T08:45:19.000Z</Time>
            <Position>
              <LatitudeDegrees>42.834709323942661285400390625</LatitudeDegrees>
              <LongitudeDegrees>-0.2892737276852130889892578125</LongitudeDegrees>
            </Position>
            <AltitudeMeters>2950.800048828125</AltitudeMeters>
            <DistanceMeters>NAN</DistanceMeters>
          </Trackpoint>
          <Trackpoint>
            <Time>2022-08-22T08:45:21.000Z</Time>
            <Position>
              <LatitudeDegrees>42.834706641733646392822265625</LatitudeDegrees>
              <LongitudeDegrees>-0.2892754040658473968505859375</LongitudeDegrees>
            </Position>
            <AltitudeMeters>2951.199951171875</AltitudeMeters>
            <DistanceMeters>NAN</DistanceMeters>
          </Trackpoint>
          <Trackpoint>
            <Time>2022-08-22T08:45:43.000Z</Time>
            <Position>
              <LatitudeDegrees>42.8347259201109409332275390625</LatitudeDegrees>
              <LongitudeDegrees>-0.289257802069187164306640625</LongitudeDegrees>
            </Position>
            <AltitudeMeters>2948.199951171875</AltitudeMeters>
            <DistanceMeters>NAN</DistanceMeters>
          </Trackpoint>
          <Trackpoint>
            <Time>2022-08-22T08:45:53.000Z</Time>
            <Position>
              <LatitudeDegrees>42.83474746160209178924560546875</LatitudeDegrees>
              <LongitudeDegrees>-0.2892291359603404998779296875</LongitudeDegrees>
            </Position>
            <AltitudeMeters>2944</AltitudeMeters>
            <DistanceMeters>NAN</DistanceMeters>
          </Trackpoint>
          <Trackpoint>
            <Time>2022-08-22T08:46:01.000Z</Time>
            <Position>
              <LatitudeDegrees>42.83472935669124126434326171875</LatitudeDegrees>
              <LongitudeDegrees>-0.28922620229423046112060546875</LongitudeDegrees>
            </Position>
            <AltitudeMeters>2944.60009765625</AltitudeMeters>
            <DistanceMeters>NAN</DistanceMeters>
          </Trackpoint>
          <Trackpoint>
            <Time>2022-08-22T08:46:13.000Z</Time>
            <Position>
              <LatitudeDegrees>42.83472147770226001739501953125</LatitudeDegrees>
              <LongitudeDegrees>-0.2892239391803741455078125</LongitudeDegrees>
            </Position>
            <AltitudeMeters>2944.60009765625</AltitudeMeters>
            <DistanceMeters>NAN</DistanceMeters>
          </Trackpoint>
          <Trackpoint>
            <Time>2022-08-22T08:46:14.000Z</Time>
            <Position>
              <LatitudeDegrees>42.83473220653831958770751953125</LatitudeDegrees>
              <LongitudeDegrees>-0.28921656310558319091796875</LongitudeDegrees>
            </Position>
            <AltitudeMeters>2943.199951171875</AltitudeMeters>
            <DistanceMeters>NAN</DistanceMeters>
          </Trackpoint>
          <Trackpoint>
            <Time>2022-08-22T08:46:17.000Z</Time>
            <Position>
              <LatitudeDegrees>42.83472080715000629425048828125</LatitudeDegrees>
              <LongitudeDegrees>-0.289213545620441436767578125</LongitudeDegrees>
            </Position>
            <AltitudeMeters>2943.60009765625</AltitudeMeters>
            <DistanceMeters>NAN</DistanceMeters>
          </Trackpoint>
          <Trackpoint>
            <Time>2022-08-22T08:46:24.000Z</Time>
            <Position>
              <LatitudeDegrees>42.8347156941890716552734375</LatitudeDegrees>
              <LongitudeDegrees>-0.2891798503696918487548828125</LongitudeDegrees>
            </Position>
            <AltitudeMeters>2940.60009765625</AltitudeMeters>
            <DistanceMeters>NAN</DistanceMeters>
          </Trackpoint>
          <Trackpoint>
            <Time>2022-08-22T08:46:26.000Z</Time>
            <Position>
              <LatitudeDegrees>42.83470027148723602294921875</LatitudeDegrees>
              <LongitudeDegrees>-0.2891768328845500946044921875</LongitudeDegrees>
            </Position>
            <AltitudeMeters>2941.199951171875</AltitudeMeters>
            <DistanceMeters>NAN</DistanceMeters>
          </Trackpoint>
          <Trackpoint>
            <Time>2022-08-22T08:46:34.000Z</Time>
            <Position>
              <LatitudeDegrees>42.8346565179526805877685546875</LatitudeDegrees>
              <LongitudeDegrees>-0.289180018007755279541015625</LongitudeDegrees>
            </Position>
            <AltitudeMeters>2944.60009765625</AltitudeMeters>
            <DistanceMeters>NAN</DistanceMeters>
          </Trackpoint>
          <Trackpoint>
            <Time>2022-08-22T08:46:37.000Z</Time>
            <Position>
              <LatitudeDegrees>42.83464386127889156341552734375</LatitudeDegrees>
              <LongitudeDegrees>-0.2892023138701915740966796875</LongitudeDegrees>
            </Position>
            <AltitudeMeters>2947.60009765625</AltitudeMeters>
            <DistanceMeters>NAN</DistanceMeters>
          </Trackpoint>
          <Trackpoint>
            <Time>2022-08-22T08:46:41.000Z</Time>
            <Position>
              <LatitudeDegrees>42.83464252017438411712646484375</LatitudeDegrees>
              <LongitudeDegrees>-0.28922335244715213775634765625</LongitudeDegrees>
            </Position>
            <AltitudeMeters>2949.60009765625</AltitudeMeters>
            <DistanceMeters>NAN</DistanceMeters>
          </Trackpoint>
          <Trackpoint>
            <Time>2022-08-22T08:46:45.000Z</Time>
            <Position>
              <LatitudeDegrees>42.83464252017438411712646484375</LatitudeDegrees>
              <LongitudeDegrees>-0.289243049919605255126953125</LongitudeDegrees>
            </Position>
            <AltitudeMeters>2951.39990234375</AltitudeMeters>
            <DistanceMeters>NAN</DistanceMeters>
          </Trackpoint>
          <Trackpoint>
            <Time>2022-08-22T08:46:49.000Z</Time>
            <Position>
              <LatitudeDegrees>42.83464654348790645599365234375</LatitudeDegrees>
              <LongitudeDegrees>-0.28925218619406223297119140625</LongitudeDegrees>
            </Position>
            <AltitudeMeters>2952</AltitudeMeters>
            <DistanceMeters>NAN</DistanceMeters>
          </Trackpoint>
          <Trackpoint>
            <Time>2022-08-22T08:46:51.000Z</Time>
            <Position>
              <LatitudeDegrees>42.83464620821177959442138671875</LatitudeDegrees>
              <LongitudeDegrees>-0.28925411403179168701171875</LongitudeDegrees>
            </Position>
            <AltitudeMeters>2952.199951171875</AltitudeMeters>
            <DistanceMeters>NAN</DistanceMeters>
          </Trackpoint>
          <Trackpoint>
            <Time>2022-08-22T08:47:30.000Z</Time>
            <Position>
              <LatitudeDegrees>42.8346861898899078369140625</LatitudeDegrees>
              <LongitudeDegrees>-0.2892386913299560546875</LongitudeDegrees>
            </Position>
            <AltitudeMeters>2948</AltitudeMeters>
            <DistanceMeters>NAN</DistanceMeters>
          </Trackpoint>
          <Trackpoint>
            <Time>2022-08-22T08:48:18.000Z</Time>
            <Position>
              <LatitudeDegrees>42.834686525166034698486328125</LatitudeDegrees>
              <LongitudeDegrees>-0.28917859308421611785888671875</LongitudeDegrees>
            </Position>
            <AltitudeMeters>2942.39990234375</AltitudeMeters>
            <DistanceMeters>NAN</DistanceMeters>
          </Trackpoint>
          <Trackpoint>
            <Time>2022-08-22T08:48:30.000Z</Time>
            <Position>
              <LatitudeDegrees>42.834603376686573028564453125</LatitudeDegrees>
              <LongitudeDegrees>-0.2891852147877216339111328125</LongitudeDegrees>
            </Position>
            <AltitudeMeters>2948.800048828125</AltitudeMeters>
            <DistanceMeters>NAN</DistanceMeters>
          </Trackpoint>
          <Trackpoint>
            <Time>2022-08-22T08:48:36.000Z</Time>
            <Position>
              <LatitudeDegrees>42.83465308137238025665283203125</LatitudeDegrees>
              <LongitudeDegrees>-0.2891805209219455718994140625</LongitudeDegrees>
            </Position>
            <AltitudeMeters>2944.800048828125</AltitudeMeters>
            <DistanceMeters>NAN</DistanceMeters>
          </Trackpoint>
          <Trackpoint>
            <Time>2022-08-22T08:48:43.000Z</Time>
            <Position>
              <LatitudeDegrees>42.8346555121243000030517578125</LatitudeDegrees>
              <LongitudeDegrees>-0.2891691215336322784423828125</LongitudeDegrees>
            </Position>
            <AltitudeMeters>2943.60009765625</AltitudeMeters>
            <DistanceMeters>NAN</DistanceMeters>
          </Trackpoint>
          <Trackpoint>
            <Time>2022-08-22T08:48:48.000Z</Time>
            <Position>
              <LatitudeDegrees>42.83464972861111164093017578125</LatitudeDegrees>
              <LongitudeDegrees>-0.28916853480041027069091796875</LongitudeDegrees>
            </Position>
            <AltitudeMeters>2944</AltitudeMeters>
            <DistanceMeters>NAN</DistanceMeters>
          </Trackpoint>
          <Trackpoint>
            <Time>2022-08-22T08:48:53.000Z</Time>
            <Position>
              <LatitudeDegrees>42.83464319072663784027099609375</LatitudeDegrees>
              <LongitudeDegrees>-0.28915059752762317657470703125</LongitudeDegrees>
            </Position>
            <AltitudeMeters>2942.800048828125</AltitudeMeters>
            <DistanceMeters>NAN</DistanceMeters>
          </Trackpoint>
          <Trackpoint>
            <Time>2022-08-22T08:48:54.000Z</Time>
            <Position>
              <LatitudeDegrees>42.8346353955566883087158203125</LatitudeDegrees>
              <LongitudeDegrees>-0.2891369350254535675048828125</LongitudeDegrees>
            </Position>
            <AltitudeMeters>2942</AltitudeMeters>
            <DistanceMeters>NAN</DistanceMeters>
          </Trackpoint>
          <Trackpoint>
            <Time>2022-08-22T08:48:55.000Z</Time>
            <Position>
              <LatitudeDegrees>42.8346353955566883087158203125</LatitudeDegrees>
              <LongitudeDegrees>-0.2891369350254535675048828125</LongitudeDegrees>
            </Position>
            <AltitudeMeters>2942</AltitudeMeters>
            <DistanceMeters>NAN</DistanceMeters>
          </Trackpoint>
          <Trackpoint>
            <Time>2022-08-22T08:48:57.000Z</Time>
            <Position>
              <LatitudeDegrees>42.834634892642498016357421875</LatitudeDegrees>
              <LongitudeDegrees>-0.289121679961681365966796875</LongitudeDegrees>
            </Position>
            <AltitudeMeters>2940.60009765625</AltitudeMeters>
            <DistanceMeters>NAN</DistanceMeters>
          </Trackpoint>
          <Trackpoint>
            <Time>2022-08-22T08:49:08.000Z</Time>
            <Position>
              <LatitudeDegrees>42.83463950268924236297607421875</LatitudeDegrees>
              <LongitudeDegrees>-0.28909762389957904815673828125</LongitudeDegrees>
            </Position>
            <AltitudeMeters>2938.39990234375</AltitudeMeters>
            <DistanceMeters>NAN</DistanceMeters>
          </Trackpoint>
          <Trackpoint>
            <Time>2022-08-22T08:49:59.000Z</Time>
            <Position>
              <LatitudeDegrees>42.83464821986854076385498046875</LatitudeDegrees>
              <LongitudeDegrees>-0.28906074352562427520751953125</LongitudeDegrees>
            </Position>
            <AltitudeMeters>2935.800048828125</AltitudeMeters>
            <DistanceMeters>NAN</DistanceMeters>
          </Trackpoint>
          <Trackpoint>
            <Time>2022-08-22T08:50:11.000Z</Time>
            <Position>
              <LatitudeDegrees>42.83465693704783916473388671875</LatitudeDegrees>
              <LongitudeDegrees>-0.28900274075567722320556640625</LongitudeDegrees>
            </Position>
            <AltitudeMeters>2932.199951171875</AltitudeMeters>
            <DistanceMeters>NAN</DistanceMeters>
          </Trackpoint>
          <Trackpoint>
            <Time>2022-08-22T08:50:14.000Z</Time>
            <Position>
              <LatitudeDegrees>42.8346618823707103729248046875</LatitudeDegrees>
              <LongitudeDegrees>-0.28897005133330821990966796875</LongitudeDegrees>
            </Position>
            <AltitudeMeters>2929.199951171875</AltitudeMeters>
            <DistanceMeters>NAN</DistanceMeters>
          </Trackpoint>
          <Trackpoint>
            <Time>2022-08-22T08:50:19.000Z</Time>
            <Position>
              <LatitudeDegrees>42.8346593677997589111328125</LatitudeDegrees>
              <LongitudeDegrees>-0.28892344795167446136474609375</LongitudeDegrees>
            </Position>
            <AltitudeMeters>2923.800048828125</AltitudeMeters>
            <DistanceMeters>NAN</DistanceMeters>
          </Trackpoint>
          <Trackpoint>
            <Time>2022-08-22T08:50:23.000Z</Time>
            <Position>
              <LatitudeDegrees>42.83464587293565273284912109375</LatitudeDegrees>
              <LongitudeDegrees>-0.2888952009379863739013671875</LongitudeDegrees>
            </Position>
            <AltitudeMeters>2920.60009765625</AltitudeMeters>
            <DistanceMeters>NAN</DistanceMeters>
          </Trackpoint>
          <Trackpoint>
            <Time>2022-08-22T08:50:24.000Z</Time>
            <Position>
              <LatitudeDegrees>42.8346374072134494781494140625</LatitudeDegrees>
              <LongitudeDegrees>-0.288897044956684112548828125</LongitudeDegrees>
            </Position>
            <AltitudeMeters>2921</AltitudeMeters>
            <DistanceMeters>NAN</DistanceMeters>
          </Trackpoint>
          <Trackpoint>
            <Time>2022-08-22T08:50:27.000Z</Time>
            <Position>
              <LatitudeDegrees>42.83463665284216403961181640625</LatitudeDegrees>
              <LongitudeDegrees>-0.2888851426541805267333984375</LongitudeDegrees>
            </Position>
            <AltitudeMeters>2919.60009765625</AltitudeMeters>
            <DistanceMeters>NAN</DistanceMeters>
          </Trackpoint>
          <Trackpoint>
            <Time>2022-08-22T08:50:28.000Z</Time>
            <Position>
              <LatitudeDegrees>42.8346379101276397705078125</LatitudeDegrees>
              <LongitudeDegrees>-0.2888752520084381103515625</LongitudeDegrees>
            </Position>
            <AltitudeMeters>2918.39990234375</AltitudeMeters>
            <DistanceMeters>NAN</DistanceMeters>
          </Trackpoint>
          <Trackpoint>
            <Time>2022-08-22T08:50:29.000Z</Time>
            <Position>
              <LatitudeDegrees>42.83463732339441776275634765625</LatitudeDegrees>
              <LongitudeDegrees>-0.28886628337204456329345703125</LongitudeDegrees>
            </Position>
            <AltitudeMeters>2917.39990234375</AltitudeMeters>
            <DistanceMeters>NAN</DistanceMeters>
          </Trackpoint>
          <Trackpoint>
            <Time>2022-08-22T08:50:34.000Z</Time>
            <Position>
              <LatitudeDegrees>42.8346199728548526763916015625</LatitudeDegrees>
              <LongitudeDegrees>-0.28884951956570148468017578125</LongitudeDegrees>
            </Position>
            <AltitudeMeters>2915.60009765625</AltitudeMeters>
            <DistanceMeters>NAN</DistanceMeters>
          </Trackpoint>
          <Trackpoint>
            <Time>2022-08-22T08:50:52.000Z</Time>
            <Position>
              <LatitudeDegrees>42.8345931507647037506103515625</LatitudeDegrees>
              <LongitudeDegrees>-0.28874642215669155120849609375</LongitudeDegrees>
            </Position>
            <AltitudeMeters>2903.39990234375</AltitudeMeters>
            <DistanceMeters>NAN</DistanceMeters>
          </Trackpoint>
          <Trackpoint>
            <Time>2022-08-22T08:50:57.000Z</Time>
            <Position>
              <LatitudeDegrees>42.8345807455480098724365234375</LatitudeDegrees>
              <LongitudeDegrees>-0.28874826617538928985595703125</LongitudeDegrees>
            </Position>
            <AltitudeMeters>2903.800048828125</AltitudeMeters>
            <DistanceMeters>NAN</DistanceMeters>
          </Trackpoint>
          <Trackpoint>
            <Time>2022-08-22T08:51:00.000Z</Time>
            <Position>
              <LatitudeDegrees>42.8345854394137859344482421875</LatitudeDegrees>
              <LongitudeDegrees>-0.288742817938327789306640625</LongitudeDegrees>
            </Position>
            <AltitudeMeters>2903</AltitudeMeters>
            <DistanceMeters>NAN</DistanceMeters>
          </Trackpoint>
          <Trackpoint>
            <Time>2022-08-22T08:51:30.000Z</Time>
            <Position>
              <LatitudeDegrees>42.83455853350460529327392578125</LatitudeDegrees>
              <LongitudeDegrees>-0.28860962949693202972412109375</LongitudeDegrees>
            </Position>
            <AltitudeMeters>2887.60009765625</AltitudeMeters>
            <DistanceMeters>NAN</DistanceMeters>
          </Trackpoint>
          <Trackpoint>
            <Time>2022-08-22T08:51:31.000Z</Time>
            <Position>
              <LatitudeDegrees>42.83455836586654186248779296875</LatitudeDegrees>
              <LongitudeDegrees>-0.28859605081379413604736328125</LongitudeDegrees>
            </Position>
            <AltitudeMeters>2886</AltitudeMeters>
            <DistanceMeters>NAN</DistanceMeters>
          </Trackpoint>
          <Trackpoint>
            <Time>2022-08-22T08:51:35.000Z</Time>
            <Position>
              <LatitudeDegrees>42.83454872667789459228515625</LatitudeDegrees>
              <LongitudeDegrees>-0.28856671415269374847412109375</LongitudeDegrees>
            </Position>
            <AltitudeMeters>2882.60009765625</AltitudeMeters>
            <DistanceMeters>NAN</DistanceMeters>
          </Trackpoint>
          <Trackpoint>
            <Time>2022-08-22T08:51:36.000Z</Time>
            <Position>
              <LatitudeDegrees>42.8345493972301483154296875</LatitudeDegrees>
              <LongitudeDegrees>-0.28856738470494747161865234375</LongitudeDegrees>
            </Position>
            <AltitudeMeters>2882.60009765625</AltitudeMeters>
            <DistanceMeters>NAN</DistanceMeters>
          </Trackpoint>
          <Trackpoint>
            <Time>2022-08-22T08:51:37.000Z</Time>
            <Position>
              <LatitudeDegrees>42.83454780466854572296142578125</LatitudeDegrees>
              <LongitudeDegrees>-0.28856587596237659454345703125</LongitudeDegrees>
            </Position>
            <AltitudeMeters>2882.39990234375</AltitudeMeters>
            <DistanceMeters>NAN</DistanceMeters>
          </Trackpoint>
          <Trackpoint>
            <Time>2022-08-22T08:51:38.000Z</Time>
            <Position>
              <LatitudeDegrees>42.83454914577305316925048828125</LatitudeDegrees>
              <LongitudeDegrees>-0.288561768829822540283203125</LongitudeDegrees>
            </Position>
            <AltitudeMeters>2882</AltitudeMeters>
            <DistanceMeters>NAN</DistanceMeters>
          </Trackpoint>
          <Trackpoint>
            <Time>2022-08-22T08:51:39.000Z</Time>
            <Position>
              <LatitudeDegrees>42.8345499001443386077880859375</LatitudeDegrees>
              <LongitudeDegrees>-0.28855539858341217041015625</LongitudeDegrees>
            </Position>
            <AltitudeMeters>2881.199951171875</AltitudeMeters>
            <DistanceMeters>NAN</DistanceMeters>
          </Trackpoint>
          <Trackpoint>
            <Time>2022-08-22T08:51:42.000Z</Time>
            <Position>
              <LatitudeDegrees>42.83454830758273601531982421875</LatitudeDegrees>
              <LongitudeDegrees>-0.28853167779743671417236328125</LongitudeDegrees>
            </Position>
            <AltitudeMeters>2880.199951171875</AltitudeMeters>
            <DistanceMeters>NAN</DistanceMeters>
          </Trackpoint>
          <Trackpoint>
            <Time>2022-08-22T08:51:43.000Z</Time>
            <Position>
              <LatitudeDegrees>42.8345453739166259765625</LatitudeDegrees>
              <LongitudeDegrees>-0.288523547351360321044921875</LongitudeDegrees>
            </Position>
            <AltitudeMeters>2880.60009765625</AltitudeMeters>
            <DistanceMeters>NAN</DistanceMeters>
          </Trackpoint>
          <Trackpoint>
            <Time>2022-08-22T08:51:46.000Z</Time>
            <Position>
              <LatitudeDegrees>42.8345421887934207916259765625</LatitudeDegrees>
              <LongitudeDegrees>-0.28850711882114410400390625</LongitudeDegrees>
            </Position>
            <AltitudeMeters>2881.39990234375</AltitudeMeters>
            <DistanceMeters>NAN</DistanceMeters>
          </Trackpoint>
          <Trackpoint>
            <Time>2022-08-22T08:51:48.000Z</Time>
            <Position>
              <LatitudeDegrees>42.8345418535172939300537109375</LatitudeDegrees>
              <LongitudeDegrees>-0.28849345631897449493408203125</LongitudeDegrees>
            </Position>
            <AltitudeMeters>2881.60009765625</AltitudeMeters>
            <DistanceMeters>NAN</DistanceMeters>
          </Trackpoint>
          <Trackpoint>
            <Time>2022-08-22T08:51:49.000Z</Time>
            <Position>
              <LatitudeDegrees>42.83454311080276966094970703125</LatitudeDegrees>
              <LongitudeDegrees>-0.2884921990334987640380859375</LongitudeDegrees>
            </Position>
            <AltitudeMeters>2881.39990234375</AltitudeMeters>
            <DistanceMeters>NAN</DistanceMeters>
          </Trackpoint>
          <Trackpoint>
            <Time>2022-08-22T08:51:50.000Z</Time>
            <Position>
              <LatitudeDegrees>42.8345472179353237152099609375</LatitudeDegrees>
              <LongitudeDegrees>-0.2884898521006107330322265625</LongitudeDegrees>
            </Position>
            <AltitudeMeters>2881</AltitudeMeters>
            <DistanceMeters>NAN</DistanceMeters>
          </Trackpoint>
          <Trackpoint>
            <Time>2022-08-22T08:51:54.000Z</Time>
            <Position>
              <LatitudeDegrees>42.83454830758273601531982421875</LatitudeDegrees>
              <LongitudeDegrees>-0.2884583361446857452392578125</LongitudeDegrees>
            </Position>
            <AltitudeMeters>2881.60009765625</AltitudeMeters>
            <DistanceMeters>NAN</DistanceMeters>
          </Trackpoint>
          <Trackpoint>
            <Time>2022-08-22T08:51:55.000Z</Time>
            <Position>
              <LatitudeDegrees>42.834534980356693267822265625</LatitudeDegrees>
              <LongitudeDegrees>-0.288447774946689605712890625</LongitudeDegrees>
            </Position>
            <AltitudeMeters>2883.199951171875</AltitudeMeters>
            <DistanceMeters>NAN</DistanceMeters>
          </Trackpoint>
          <Trackpoint>
            <Time>2022-08-22T08:51:56.000Z</Time>
            <Position>
              <LatitudeDegrees>42.834534980356693267822265625</LatitudeDegrees>
              <LongitudeDegrees>-0.288447774946689605712890625</LongitudeDegrees>
            </Position>
            <AltitudeMeters>2883.199951171875</AltitudeMeters>
            <DistanceMeters>NAN</DistanceMeters>
          </Trackpoint>
          <Trackpoint>
            <Time>2022-08-22T08:51:59.000Z</Time>
            <Position>
              <LatitudeDegrees>42.83452534116804599761962890625</LatitudeDegrees>
              <LongitudeDegrees>-0.28842623345553874969482421875</LongitudeDegrees>
            </Position>
            <AltitudeMeters>2885.39990234375</AltitudeMeters>
            <DistanceMeters>NAN</DistanceMeters>
          </Trackpoint>
          <Trackpoint>
            <Time>2022-08-22T08:52:00.000Z</Time>
            <Position>
              <LatitudeDegrees>42.8345247544348239898681640625</LatitudeDegrees>
              <LongitudeDegrees>-0.28841550461947917938232421875</LongitudeDegrees>
            </Position>
            <AltitudeMeters>2885.60009765625</AltitudeMeters>
            <DistanceMeters>NAN</DistanceMeters>
          </Trackpoint>
          <Trackpoint>
            <Time>2022-08-22T08:52:01.000Z</Time>
            <Position>
              <LatitudeDegrees>42.83452349714934825897216796875</LatitudeDegrees>
              <LongitudeDegrees>-0.28840494342148303985595703125</LongitudeDegrees>
            </Position>
            <AltitudeMeters>2886</AltitudeMeters>
            <DistanceMeters>NAN</DistanceMeters>
          </Trackpoint>
          <Trackpoint>
            <Time>2022-08-22T08:52:03.000Z</Time>
            <Position>
              <LatitudeDegrees>42.8345190547406673431396484375</LatitudeDegrees>
              <LongitudeDegrees>-0.2883932925760746002197265625</LongitudeDegrees>
            </Position>
            <AltitudeMeters>2887</AltitudeMeters>
            <DistanceMeters>NAN</DistanceMeters>
          </Trackpoint>
          <Trackpoint>
            <Time>2022-08-22T08:52:07.000Z</Time>
            <Position>
              <LatitudeDegrees>42.83451226539909839630126953125</LatitudeDegrees>
              <LongitudeDegrees>-0.28836152516305446624755859375</LongitudeDegrees>
            </Position>
            <AltitudeMeters>2888.800048828125</AltitudeMeters>
            <DistanceMeters>NAN</DistanceMeters>
          </Trackpoint>
          <Trackpoint>
            <Time>2022-08-22T08:52:08.000Z</Time>
            <Position>
              <LatitudeDegrees>42.83450924791395664215087890625</LatitudeDegrees>
              <LongitudeDegrees>-0.2883567474782466888427734375</LongitudeDegrees>
            </Position>
            <AltitudeMeters>2889.39990234375</AltitudeMeters>
            <DistanceMeters>NAN</DistanceMeters>
          </Trackpoint>
          <Trackpoint>
            <Time>2022-08-22T08:52:13.000Z</Time>
            <Position>
              <LatitudeDegrees>42.83450036309659481048583984375</LatitudeDegrees>
              <LongitudeDegrees>-0.28834610246121883392333984375</LongitudeDegrees>
            </Position>
            <AltitudeMeters>2891.199951171875</AltitudeMeters>
            <DistanceMeters>NAN</DistanceMeters>
          </Trackpoint>
          <Trackpoint>
            <Time>2022-08-22T08:52:22.000Z</Time>
            <Position>
              <LatitudeDegrees>42.8345428593456745147705078125</LatitudeDegrees>
              <LongitudeDegrees>-0.288302600383758544921875</LongitudeDegrees>
            </Position>
            <AltitudeMeters>2885</AltitudeMeters>
            <DistanceMeters>NAN</DistanceMeters>
          </Trackpoint>
          <Trackpoint>
            <Time>2022-08-22T08:52:24.000Z</Time>
            <Position>
              <LatitudeDegrees>42.834558449685573577880859375</LatitudeDegrees>
              <LongitudeDegrees>-0.2882829867303371429443359375</LongitudeDegrees>
            </Position>
            <AltitudeMeters>2883.60009765625</AltitudeMeters>
            <DistanceMeters>NAN</DistanceMeters>
          </Trackpoint>
          <Trackpoint>
            <Time>2022-08-22T08:52:36.000Z</Time>
            <Position>
              <LatitudeDegrees>42.83461251296103000640869140625</LatitudeDegrees>
              <LongitudeDegrees>-0.288275778293609619140625</LongitudeDegrees>
            </Position>
            <AltitudeMeters>2878.199951171875</AltitudeMeters>
            <DistanceMeters>NAN</DistanceMeters>
          </Trackpoint>
          <Trackpoint>
            <Time>2022-08-22T08:52:39.000Z</Time>
            <Position>
              <LatitudeDegrees>42.834606058895587921142578125</LatitudeDegrees>
              <LongitudeDegrees>-0.28828575275838375091552734375</LongitudeDegrees>
            </Position>
            <AltitudeMeters>2878.60009765625</AltitudeMeters>
            <DistanceMeters>NAN</DistanceMeters>
          </Trackpoint>
          <Trackpoint>
            <Time>2022-08-22T08:52:41.000Z</Time>
            <Position>
              <LatitudeDegrees>42.8345911391079425811767578125</LatitudeDegrees>
              <LongitudeDegrees>-0.28828122653067111968994140625</LongitudeDegrees>
            </Position>
            <AltitudeMeters>2880.199951171875</AltitudeMeters>
            <DistanceMeters>NAN</DistanceMeters>
          </Trackpoint>
          <Trackpoint>
            <Time>2022-08-22T08:52:45.000Z</Time>
            <Position>
              <LatitudeDegrees>42.83457445912063121795654296875</LatitudeDegrees>
              <LongitudeDegrees>-0.28824585489928722381591796875</LongitudeDegrees>
            </Position>
            <AltitudeMeters>2881.800048828125</AltitudeMeters>
            <DistanceMeters>NAN</DistanceMeters>
          </Trackpoint>
          <Trackpoint>
            <Time>2022-08-22T08:52:46.000Z</Time>
            <Position>
              <LatitudeDegrees>42.8345747105777263641357421875</LatitudeDegrees>
              <LongitudeDegrees>-0.28824266977608203887939453125</LongitudeDegrees>
            </Position>
            <AltitudeMeters>2881.800048828125</AltitudeMeters>
            <DistanceMeters>NAN</DistanceMeters>
          </Trackpoint>
          <Trackpoint>
            <Time>2022-08-22T08:52:47.000Z</Time>
            <Position>
              <LatitudeDegrees>42.8345790691673755645751953125</LatitudeDegrees>
              <LongitudeDegrees>-0.28823847882449626922607421875</LongitudeDegrees>
            </Position>
            <AltitudeMeters>2881.199951171875</AltitudeMeters>
            <DistanceMeters>NAN</DistanceMeters>
          </Trackpoint>
          <Trackpoint>
            <Time>2022-08-22T08:52:48.000Z</Time>
            <Position>
              <LatitudeDegrees>42.83457797951996326446533203125</LatitudeDegrees>
              <LongitudeDegrees>-0.28823445551097393035888671875</LongitudeDegrees>
            </Position>
            <AltitudeMeters>2881.39990234375</AltitudeMeters>
            <DistanceMeters>NAN</DistanceMeters>
          </Trackpoint>
          <Trackpoint>
            <Time>2022-08-22T08:52:51.000Z</Time>
            <Position>
              <LatitudeDegrees>42.83458451740443706512451171875</LatitudeDegrees>
              <LongitudeDegrees>-0.28823110274970531463623046875</LongitudeDegrees>
            </Position>
            <AltitudeMeters>2880.60009765625</AltitudeMeters>
            <DistanceMeters>NAN</DistanceMeters>
          </Trackpoint>
          <Trackpoint>
            <Time>2022-08-22T08:52:55.000Z</Time>
            <Position>
              <LatitudeDegrees>42.83458233810961246490478515625</LatitudeDegrees>
              <LongitudeDegrees>-0.288216434419155120849609375</LongitudeDegrees>
            </Position>
            <AltitudeMeters>2878.199951171875</AltitudeMeters>
            <DistanceMeters>NAN</DistanceMeters>
          </Trackpoint>
          <Trackpoint>
            <Time>2022-08-22T08:53:27.000Z</Time>
            <Position>
              <LatitudeDegrees>42.83457848243415355682373046875</LatitudeDegrees>
              <LongitudeDegrees>-0.28804703615605831146240234375</LongitudeDegrees>
            </Position>
            <AltitudeMeters>2843</AltitudeMeters>
            <DistanceMeters>NAN</DistanceMeters>
          </Trackpoint>
          <Trackpoint>
            <Time>2022-08-22T08:53:38.000Z</Time>
            <Position>
              <LatitudeDegrees>42.8345659933984279632568359375</LatitudeDegrees>
              <LongitudeDegrees>-0.2879839204251766204833984375</LongitudeDegrees>
            </Position>
            <AltitudeMeters>2830.199951171875</AltitudeMeters>
            <DistanceMeters>NAN</DistanceMeters>
          </Trackpoint>
          <Trackpoint>
            <Time>2022-08-22T08:54:01.000Z</Time>
            <Position>
              <LatitudeDegrees>42.83446935005486011505126953125</LatitudeDegrees>
              <LongitudeDegrees>-0.28781452216207981109619140625</LongitudeDegrees>
            </Position>
            <AltitudeMeters>2826.800048828125</AltitudeMeters>
            <DistanceMeters>NAN</DistanceMeters>
          </Trackpoint>
          <Trackpoint>
            <Time>2022-08-22T08:54:20.000Z</Time>
            <Position>
              <LatitudeDegrees>42.834492735564708709716796875</LatitudeDegrees>
              <LongitudeDegrees>-0.2878105826675891876220703125</LongitudeDegrees>
            </Position>
            <AltitudeMeters>2826</AltitudeMeters>
            <DistanceMeters>NAN</DistanceMeters>
          </Trackpoint>
          <Trackpoint>
            <Time>2022-08-22T08:54:23.000Z</Time>
            <Position>
              <LatitudeDegrees>42.8344902209937572479248046875</LatitudeDegrees>
              <LongitudeDegrees>-0.28781468980014324188232421875</LongitudeDegrees>
            </Position>
            <AltitudeMeters>2826.199951171875</AltitudeMeters>
            <DistanceMeters>NAN</DistanceMeters>
          </Trackpoint>
          <Trackpoint>
            <Time>2022-08-22T08:54:49.000Z</Time>
            <Position>
              <LatitudeDegrees>42.83452852629125118255615234375</LatitudeDegrees>
              <LongitudeDegrees>-0.2878863550722599029541015625</LongitudeDegrees>
            </Position>
            <AltitudeMeters>2826.60009765625</AltitudeMeters>
            <DistanceMeters>NAN</DistanceMeters>
          </Trackpoint>
          <Trackpoint>
            <Time>2022-08-22T08:55:08.000Z</Time>
            <Position>
              <LatitudeDegrees>42.83449315465986728668212890625</LatitudeDegrees>
              <LongitudeDegrees>-0.28783095069229602813720703125</LongitudeDegrees>
            </Position>
            <AltitudeMeters>2826.39990234375</AltitudeMeters>
            <DistanceMeters>NAN</DistanceMeters>
          </Trackpoint>
          <Trackpoint>
            <Time>2022-08-22T08:56:07.000Z</Time>
            <Position>
              <LatitudeDegrees>42.8344647400081157684326171875</LatitudeDegrees>
              <LongitudeDegrees>-0.28771452605724334716796875</LongitudeDegrees>
            </Position>
            <AltitudeMeters>2823.199951171875</AltitudeMeters>
            <DistanceMeters>NAN</DistanceMeters>
          </Trackpoint>
          <Trackpoint>
            <Time>2022-08-22T08:56:14.000Z</Time>
            <Position>
              <LatitudeDegrees>42.8346700966358184814453125</LatitudeDegrees>
              <LongitudeDegrees>-0.2876000292599201202392578125</LongitudeDegrees>
            </Position>
            <AltitudeMeters>2820.39990234375</AltitudeMeters>
            <DistanceMeters>NAN</DistanceMeters>
          </Trackpoint>
          <Trackpoint>
            <Time>2022-08-22T08:56:17.000Z</Time>
            <Position>
              <LatitudeDegrees>42.83477612771093845367431640625</LatitudeDegrees>
              <LongitudeDegrees>-0.28745342977344989776611328125</LongitudeDegrees>
            </Position>
            <AltitudeMeters>2818.199951171875</AltitudeMeters>
            <DistanceMeters>NAN</DistanceMeters>
          </Trackpoint>
          <Trackpoint>
            <Time>2022-08-22T08:56:54.000Z</Time>
            <Position>
              <LatitudeDegrees>42.8344620577991008758544921875</LatitudeDegrees>
              <LongitudeDegrees>-0.287202559411525726318359375</LongitudeDegrees>
            </Position>
            <AltitudeMeters>2816.800048828125</AltitudeMeters>
            <DistanceMeters>NAN</DistanceMeters>
          </Trackpoint>
          <Trackpoint>
            <Time>2022-08-22T08:57:01.000Z</Time>
            <Position>
              <LatitudeDegrees>42.83442626707255840301513671875</LatitudeDegrees>
              <LongitudeDegrees>-0.2871192432940006256103515625</LongitudeDegrees>
            </Position>
            <AltitudeMeters>2815.199951171875</AltitudeMeters>
            <DistanceMeters>NAN</DistanceMeters>
          </Trackpoint>
          <Trackpoint>
            <Time>2022-08-22T08:57:04.000Z</Time>
            <Position>
              <LatitudeDegrees>42.83441252075135707855224609375</LatitudeDegrees>
              <LongitudeDegrees>-0.2870800159871578216552734375</LongitudeDegrees>
            </Position>
            <AltitudeMeters>2814.60009765625</AltitudeMeters>
            <DistanceMeters>NAN</DistanceMeters>
          </Trackpoint>
          <Trackpoint>
            <Time>2022-08-22T08:57:15.000Z</Time>
            <Position>
              <LatitudeDegrees>42.83437304198741912841796875</LatitudeDegrees>
              <LongitudeDegrees>-0.28693526051938533782958984375</LongitudeDegrees>
            </Position>
            <AltitudeMeters>2811.39990234375</AltitudeMeters>
            <DistanceMeters>NAN</DistanceMeters>
          </Trackpoint>
          <Trackpoint>
            <Time>2022-08-22T08:57:19.000Z</Time>
            <Position>
              <LatitudeDegrees>42.83434865064918994903564453125</LatitudeDegrees>
              <LongitudeDegrees>-0.28687993995845317840576171875</LongitudeDegrees>
            </Position>
            <AltitudeMeters>2810.199951171875</AltitudeMeters>
            <DistanceMeters>NAN</DistanceMeters>
          </Trackpoint>
          <Trackpoint>
            <Time>2022-08-22T08:57:20.000Z</Time>
            <Position>
              <LatitudeDegrees>42.83434043638408184051513671875</LatitudeDegrees>
              <LongitudeDegrees>-0.28687340207397937774658203125</LongitudeDegrees>
            </Position>
            <AltitudeMeters>2810.199951171875</AltitudeMeters>
            <DistanceMeters>NAN</DistanceMeters>
          </Trackpoint>
          <Trackpoint>
            <Time>2022-08-22T08:57:21.000Z</Time>
            <Position>
              <LatitudeDegrees>42.83432568423449993133544921875</LatitudeDegrees>
              <LongitudeDegrees>-0.28686669655144214630126953125</LongitudeDegrees>
            </Position>
            <AltitudeMeters>2810.199951171875</AltitudeMeters>
            <DistanceMeters>NAN</DistanceMeters>
          </Trackpoint>
          <Trackpoint>
            <Time>2022-08-22T08:57:23.000Z</Time>
            <Position>
              <LatitudeDegrees>42.8343185596168041229248046875</LatitudeDegrees>
              <LongitudeDegrees>-0.28685756027698516845703125</LongitudeDegrees>
            </Position>
            <AltitudeMeters>2810</AltitudeMeters>
            <DistanceMeters>NAN</DistanceMeters>
          </Trackpoint>
          <Trackpoint>
            <Time>2022-08-22T08:57:24.000Z</Time>
            <Position>
              <LatitudeDegrees>42.83431244082748889923095703125</LatitudeDegrees>
              <LongitudeDegrees>-0.2868500165641307830810546875</LongitudeDegrees>
            </Position>
            <AltitudeMeters>2810</AltitudeMeters>
            <DistanceMeters>NAN</DistanceMeters>
          </Trackpoint>
          <Trackpoint>
            <Time>2022-08-22T08:57:25.000Z</Time>
            <Position>
              <LatitudeDegrees>42.8342994488775730133056640625</LatitudeDegrees>
              <LongitudeDegrees>-0.2868359349668025970458984375</LongitudeDegrees>
            </Position>
            <AltitudeMeters>2809.800048828125</AltitudeMeters>
            <DistanceMeters>NAN</DistanceMeters>
          </Trackpoint>
          <Trackpoint>
            <Time>2022-08-22T08:57:27.000Z</Time>
            <Position>
              <LatitudeDegrees>42.8342880494892597198486328125</LatitudeDegrees>
              <LongitudeDegrees>-0.28682813979685306549072265625</LongitudeDegrees>
            </Position>
            <AltitudeMeters>2809.60009765625</AltitudeMeters>
            <DistanceMeters>NAN</DistanceMeters>
          </Trackpoint>
          <Trackpoint>
            <Time>2022-08-22T08:57:28.000Z</Time>
            <Position>
              <LatitudeDegrees>42.8342758119106292724609375</LatitudeDegrees>
              <LongitudeDegrees>-0.2868178300559520721435546875</LongitudeDegrees>
            </Position>
            <AltitudeMeters>2809.39990234375</AltitudeMeters>
            <DistanceMeters>NAN</DistanceMeters>
          </Trackpoint>
          <Trackpoint>
            <Time>2022-08-22T08:57:29.000Z</Time>
            <Position>
              <LatitudeDegrees>42.8342675976455211639404296875</LatitudeDegrees>
              <LongitudeDegrees>-0.2868040837347507476806640625</LongitudeDegrees>
            </Position>
            <AltitudeMeters>2809.199951171875</AltitudeMeters>
            <DistanceMeters>NAN</DistanceMeters>
          </Trackpoint>
          <Trackpoint>
            <Time>2022-08-22T08:57:30.000Z</Time>
            <Position>
              <LatitudeDegrees>42.83425628207623958587646484375</LatitudeDegrees>
              <LongitudeDegrees>-0.28679612092673778533935546875</LongitudeDegrees>
            </Position>
            <AltitudeMeters>2809</AltitudeMeters>
            <DistanceMeters>NAN</DistanceMeters>
          </Trackpoint>
          <Trackpoint>
            <Time>2022-08-22T08:57:36.000Z</Time>
            <Position>
              <LatitudeDegrees>42.83420900814235210418701171875</LatitudeDegrees>
              <LongitudeDegrees>-0.28670601546764373779296875</LongitudeDegrees>
            </Position>
            <AltitudeMeters>2807.39990234375</AltitudeMeters>
            <DistanceMeters>NAN</DistanceMeters>
          </Trackpoint>
          <Trackpoint>
            <Time>2022-08-22T08:57:49.000Z</Time>
            <Position>
              <LatitudeDegrees>42.8340831957757472991943359375</LatitudeDegrees>
              <LongitudeDegrees>-0.2865660376846790313720703125</LongitudeDegrees>
            </Position>
            <AltitudeMeters>2803</AltitudeMeters>
            <DistanceMeters>NAN</DistanceMeters>
          </Trackpoint>
          <Trackpoint>
            <Time>2022-08-22T08:57:53.000Z</Time>
            <Position>
              <LatitudeDegrees>42.83406869508326053619384765625</LatitudeDegrees>
              <LongitudeDegrees>-0.2865445800125598907470703125</LongitudeDegrees>
            </Position>
            <AltitudeMeters>2802.199951171875</AltitudeMeters>
            <DistanceMeters>NAN</DistanceMeters>
          </Trackpoint>
          <Trackpoint>
            <Time>2022-08-22T08:57:58.000Z</Time>
            <Position>
              <LatitudeDegrees>42.8340558707714080810546875</LatitudeDegrees>
              <LongitudeDegrees>-0.28653259389102458953857421875</LongitudeDegrees>
            </Position>
            <AltitudeMeters>2801.800048828125</AltitudeMeters>
            <DistanceMeters>NAN</DistanceMeters>
          </Trackpoint>
          <Trackpoint>
            <Time>2022-08-22T08:58:07.000Z</Time>
            <Position>
              <LatitudeDegrees>42.8340057469904422760009765625</LatitudeDegrees>
              <LongitudeDegrees>-0.28650795109570026397705078125</LongitudeDegrees>
            </Position>
            <AltitudeMeters>2799.800048828125</AltitudeMeters>
            <DistanceMeters>NAN</DistanceMeters>
          </Trackpoint>
          <Trackpoint>
            <Time>2022-08-22T08:58:11.000Z</Time>
            <Position>
              <LatitudeDegrees>42.83399392850697040557861328125</LatitudeDegrees>
              <LongitudeDegrees>-0.286507196724414825439453125</LongitudeDegrees>
            </Position>
            <AltitudeMeters>2799.39990234375</AltitudeMeters>
            <DistanceMeters>NAN</DistanceMeters>
          </Trackpoint>
          <Trackpoint>
            <Time>2022-08-22T08:58:14.000Z</Time>
            <Position>
              <LatitudeDegrees>42.833973728120326995849609375</LatitudeDegrees>
              <LongitudeDegrees>-0.2865014970302581787109375</LongitudeDegrees>
            </Position>
            <AltitudeMeters>2798.800048828125</AltitudeMeters>
            <DistanceMeters>NAN</DistanceMeters>
          </Trackpoint>
          <Trackpoint>
            <Time>2022-08-22T08:58:18.000Z</Time>
            <Position>
              <LatitudeDegrees>42.833958305418491363525390625</LatitudeDegrees>
              <LongitudeDegrees>-0.2864735014736652374267578125</LongitudeDegrees>
            </Position>
            <AltitudeMeters>2797.60009765625</AltitudeMeters>
            <DistanceMeters>NAN</DistanceMeters>
          </Trackpoint>
          <Trackpoint>
            <Time>2022-08-22T08:58:22.000Z</Time>
            <Position>
              <LatitudeDegrees>42.83394414000213146209716796875</LatitudeDegrees>
              <LongitudeDegrees>-0.28642362914979457855224609375</LongitudeDegrees>
            </Position>
            <AltitudeMeters>2795.800048828125</AltitudeMeters>
            <DistanceMeters>NAN</DistanceMeters>
          </Trackpoint>
          <Trackpoint>
            <Time>2022-08-22T08:58:24.000Z</Time>
            <Position>
              <LatitudeDegrees>42.8339271247386932373046875</LatitudeDegrees>
              <LongitudeDegrees>-0.2864108048379421234130859375</LongitudeDegrees>
            </Position>
            <AltitudeMeters>2795</AltitudeMeters>
            <DistanceMeters>NAN</DistanceMeters>
          </Trackpoint>
          <Trackpoint>
            <Time>2022-08-22T08:58:27.000Z</Time>
            <Position>
              <LatitudeDegrees>42.83391430042684078216552734375</LatitudeDegrees>
              <LongitudeDegrees>-0.286414325237274169921875</LongitudeDegrees>
            </Position>
            <AltitudeMeters>2794.800048828125</AltitudeMeters>
            <DistanceMeters>NAN</DistanceMeters>
          </Trackpoint>
          <Trackpoint>
            <Time>2022-08-22T08:58:29.000Z</Time>
            <Position>
              <LatitudeDegrees>42.8339061699807643890380859375</LatitudeDegrees>
              <LongitudeDegrees>-0.286420024931430816650390625</LongitudeDegrees>
            </Position>
            <AltitudeMeters>2794.800048828125</AltitudeMeters>
            <DistanceMeters>NAN</DistanceMeters>
          </Trackpoint>
          <Trackpoint>
            <Time>2022-08-22T08:58:30.000Z</Time>
            <Position>
              <LatitudeDegrees>42.833906672894954681396484375</LatitudeDegrees>
              <LongitudeDegrees>-0.28642237186431884765625</LongitudeDegrees>
            </Position>
            <AltitudeMeters>2794.800048828125</AltitudeMeters>
            <DistanceMeters>NAN</DistanceMeters>
          </Trackpoint>
          <Trackpoint>
            <Time>2022-08-22T08:58:35.000Z</Time>
            <Position>
              <LatitudeDegrees>42.83389284275472164154052734375</LatitudeDegrees>
              <LongitudeDegrees>-0.28641072101891040802001953125</LongitudeDegrees>
            </Position>
            <AltitudeMeters>2794</AltitudeMeters>
            <DistanceMeters>NAN</DistanceMeters>
          </Trackpoint>
          <Trackpoint>
            <Time>2022-08-22T08:58:43.000Z</Time>
            <Position>
              <LatitudeDegrees>42.83386015333235263824462890625</LatitudeDegrees>
              <LongitudeDegrees>-0.286428071558475494384765625</LongitudeDegrees>
            </Position>
            <AltitudeMeters>2793.60009765625</AltitudeMeters>
            <DistanceMeters>NAN</DistanceMeters>
          </Trackpoint>
          <Trackpoint>
            <Time>2022-08-22T08:58:44.000Z</Time>
            <Position>
              <LatitudeDegrees>42.833856381475925445556640625</LatitudeDegrees>
              <LongitudeDegrees>-0.28642999939620494842529296875</LongitudeDegrees>
            </Position>
            <AltitudeMeters>2793.60009765625</AltitudeMeters>
            <DistanceMeters>NAN</DistanceMeters>
          </Trackpoint>
          <Trackpoint>
            <Time>2022-08-22T08:58:47.000Z</Time>
            <Position>
              <LatitudeDegrees>42.8338367678225040435791015625</LatitudeDegrees>
              <LongitudeDegrees>-0.28643720783293247222900390625</LongitudeDegrees>
            </Position>
            <AltitudeMeters>2793.39990234375</AltitudeMeters>
            <DistanceMeters>NAN</DistanceMeters>
          </Trackpoint>
          <Trackpoint>
            <Time>2022-08-22T08:58:54.000Z</Time>
            <Position>
              <LatitudeDegrees>42.8337822854518890380859375</LatitudeDegrees>
              <LongitudeDegrees>-0.28644181787967681884765625</LongitudeDegrees>
            </Position>
            <AltitudeMeters>2791.800048828125</AltitudeMeters>
            <DistanceMeters>NAN</DistanceMeters>
          </Trackpoint>
          <Trackpoint>
            <Time>2022-08-22T08:58:55.000Z</Time>
            <Position>
              <LatitudeDegrees>42.8337769210338592529296875</LatitudeDegrees>
              <LongitudeDegrees>-0.28644609265029430389404296875</LongitudeDegrees>
            </Position>
            <AltitudeMeters>2791.800048828125</AltitudeMeters>
            <DistanceMeters>NAN</DistanceMeters>
          </Trackpoint>
          <Trackpoint>
            <Time>2022-08-22T08:58:57.000Z</Time>
            <Position>
              <LatitudeDegrees>42.833775244653224945068359375</LatitudeDegrees>
              <LongitudeDegrees>-0.28644760139286518096923828125</LongitudeDegrees>
            </Position>
            <AltitudeMeters>2791.800048828125</AltitudeMeters>
            <DistanceMeters>NAN</DistanceMeters>
          </Trackpoint>
          <Trackpoint>
            <Time>2022-08-22T08:58:58.000Z</Time>
            <Position>
              <LatitudeDegrees>42.8337720595300197601318359375</LatitudeDegrees>
              <LongitudeDegrees>-0.286446511745452880859375</LongitudeDegrees>
            </Position>
            <AltitudeMeters>2791.800048828125</AltitudeMeters>
            <DistanceMeters>NAN</DistanceMeters>
          </Trackpoint>
          <Trackpoint>
            <Time>2022-08-22T08:58:59.000Z</Time>
            <Position>
              <LatitudeDegrees>42.833769880235195159912109375</LatitudeDegrees>
              <LongitudeDegrees>-0.28644793666899204254150390625</LongitudeDegrees>
            </Position>
            <AltitudeMeters>2791.800048828125</AltitudeMeters>
            <DistanceMeters>NAN</DistanceMeters>
          </Trackpoint>
          <Trackpoint>
            <Time>2022-08-22T08:59:01.000Z</Time>
            <Position>
              <LatitudeDegrees>42.8337623365223407745361328125</LatitudeDegrees>
              <LongitudeDegrees>-0.28645480982959270477294921875</LongitudeDegrees>
            </Position>
            <AltitudeMeters>2791.800048828125</AltitudeMeters>
            <DistanceMeters>NAN</DistanceMeters>
          </Trackpoint>
          <Trackpoint>
            <Time>2022-08-22T08:59:02.000Z</Time>
            <Position>
              <LatitudeDegrees>42.83375320024788379669189453125</LatitudeDegrees>
              <LongitudeDegrees>-0.2864671312272548675537109375</LongitudeDegrees>
            </Position>
            <AltitudeMeters>2791.800048828125</AltitudeMeters>
            <DistanceMeters>NAN</DistanceMeters>
          </Trackpoint>
          <Trackpoint>
            <Time>2022-08-22T08:59:04.000Z</Time>
            <Position>
              <LatitudeDegrees>42.83374632708728313446044921875</LatitudeDegrees>
              <LongitudeDegrees>-0.286471657454967498779296875</LongitudeDegrees>
            </Position>
            <AltitudeMeters>2791.800048828125</AltitudeMeters>
            <DistanceMeters>NAN</DistanceMeters>
          </Trackpoint>
          <Trackpoint>
            <Time>2022-08-22T08:59:05.000Z</Time>
            <Position>
              <LatitudeDegrees>42.83374012447893619537353515625</LatitudeDegrees>
              <LongitudeDegrees>-0.286477021872997283935546875</LongitudeDegrees>
            </Position>
            <AltitudeMeters>2791.800048828125</AltitudeMeters>
            <DistanceMeters>NAN</DistanceMeters>
          </Trackpoint>
          <Trackpoint>
            <Time>2022-08-22T08:59:10.000Z</Time>
            <Position>
              <LatitudeDegrees>42.83370240591466426849365234375</LatitudeDegrees>
              <LongitudeDegrees>-0.28648531995713710784912109375</LongitudeDegrees>
            </Position>
            <AltitudeMeters>2791</AltitudeMeters>
            <DistanceMeters>NAN</DistanceMeters>
          </Trackpoint>
          <Trackpoint>
            <Time>2022-08-22T08:59:15.000Z</Time>
            <Position>
              <LatitudeDegrees>42.83365764655172824859619140625</LatitudeDegrees>
              <LongitudeDegrees>-0.28648062609136104583740234375</LongitudeDegrees>
            </Position>
            <AltitudeMeters>2791</AltitudeMeters>
            <DistanceMeters>NAN</DistanceMeters>
          </Trackpoint>
          <Trackpoint>
            <Time>2022-08-22T08:59:18.000Z</Time>
            <Position>
              <LatitudeDegrees>42.83364993520081043243408203125</LatitudeDegrees>
              <LongitudeDegrees>-0.2864451706409454345703125</LongitudeDegrees>
            </Position>
            <AltitudeMeters>2790</AltitudeMeters>
            <DistanceMeters>NAN</DistanceMeters>
          </Trackpoint>
          <Trackpoint>
            <Time>2022-08-22T08:59:26.000Z</Time>
            <Position>
              <LatitudeDegrees>42.83362805843353271484375</LatitudeDegrees>
              <LongitudeDegrees>-0.28636277653276920318603515625</LongitudeDegrees>
            </Position>
            <AltitudeMeters>2786.199951171875</AltitudeMeters>
            <DistanceMeters>NAN</DistanceMeters>
          </Trackpoint>
          <Trackpoint>
            <Time>2022-08-22T08:59:30.000Z</Time>
            <Position>
              <LatitudeDegrees>42.8336272202432155609130859375</LatitudeDegrees>
              <LongitudeDegrees>-0.28630209155380725860595703125</LongitudeDegrees>
            </Position>
            <AltitudeMeters>2783.39990234375</AltitudeMeters>
            <DistanceMeters>NAN</DistanceMeters>
          </Trackpoint>
          <Trackpoint>
            <Time>2022-08-22T08:59:33.000Z</Time>
            <Position>
              <LatitudeDegrees>42.8336201794445514678955078125</LatitudeDegrees>
              <LongitudeDegrees>-0.28627552092075347900390625</LongitudeDegrees>
            </Position>
            <AltitudeMeters>2782.39990234375</AltitudeMeters>
            <DistanceMeters>NAN</DistanceMeters>
          </Trackpoint>
          <Trackpoint>
            <Time>2022-08-22T08:59:36.000Z</Time>
            <Position>
              <LatitudeDegrees>42.8336174972355365753173828125</LatitudeDegrees>
              <LongitudeDegrees>-0.28624274767935276031494140625</LongitudeDegrees>
            </Position>
            <AltitudeMeters>2781.39990234375</AltitudeMeters>
            <DistanceMeters>NAN</DistanceMeters>
          </Trackpoint>
          <Trackpoint>
            <Time>2022-08-22T08:59:37.000Z</Time>
            <Position>
              <LatitudeDegrees>42.833621017634868621826171875</LatitudeDegrees>
              <LongitudeDegrees>-0.28622967191040515899658203125</LongitudeDegrees>
            </Position>
            <AltitudeMeters>2781</AltitudeMeters>
            <DistanceMeters>NAN</DistanceMeters>
          </Trackpoint>
          <Trackpoint>
            <Time>2022-08-22T08:59:39.000Z</Time>
            <Position>
              <LatitudeDegrees>42.83361758105456829071044921875</LatitudeDegrees>
              <LongitudeDegrees>-0.28620670549571514129638671875</LongitudeDegrees>
            </Position>
            <AltitudeMeters>2780.199951171875</AltitudeMeters>
            <DistanceMeters>NAN</DistanceMeters>
          </Trackpoint>
          <Trackpoint>
            <Time>2022-08-22T08:59:43.000Z</Time>
            <Position>
              <LatitudeDegrees>42.833613641560077667236328125</LatitudeDegrees>
              <LongitudeDegrees>-0.28616563417017459869384765625</LongitudeDegrees>
            </Position>
            <AltitudeMeters>2778.800048828125</AltitudeMeters>
            <DistanceMeters>NAN</DistanceMeters>
          </Trackpoint>
          <Trackpoint>
            <Time>2022-08-22T08:59:45.000Z</Time>
            <Position>
              <LatitudeDegrees>42.833611629903316497802734375</LatitudeDegrees>
              <LongitudeDegrees>-0.2861425839364528656005859375</LongitudeDegrees>
            </Position>
            <AltitudeMeters>2778</AltitudeMeters>
            <DistanceMeters>NAN</DistanceMeters>
          </Trackpoint>
          <Trackpoint>
            <Time>2022-08-22T08:59:49.000Z</Time>
            <Position>
              <LatitudeDegrees>42.83359075896441936492919921875</LatitudeDegrees>
              <LongitudeDegrees>-0.286113582551479339599609375</LongitudeDegrees>
            </Position>
            <AltitudeMeters>2776</AltitudeMeters>
            <DistanceMeters>NAN</DistanceMeters>
          </Trackpoint>
          <Trackpoint>
            <Time>2022-08-22T08:59:51.000Z</Time>
            <Position>
              <LatitudeDegrees>42.8335816226899623870849609375</LatitudeDegrees>
              <LongitudeDegrees>-0.2860884368419647216796875</LongitudeDegrees>
            </Position>
            <AltitudeMeters>2774.60009765625</AltitudeMeters>
            <DistanceMeters>NAN</DistanceMeters>
          </Trackpoint>
          <Trackpoint>
            <Time>2022-08-22T09:00:00.000Z</Time>
            <Position>
              <LatitudeDegrees>42.833561003208160400390625</LatitudeDegrees>
              <LongitudeDegrees>-0.2859799750149250030517578125</LongitudeDegrees>
            </Position>
            <AltitudeMeters>2770.39990234375</AltitudeMeters>
            <DistanceMeters>NAN</DistanceMeters>
          </Trackpoint>
          <Trackpoint>
            <Time>2022-08-22T09:00:10.000Z</Time>
            <Position>
              <LatitudeDegrees>42.83349352888762950897216796875</LatitudeDegrees>
              <LongitudeDegrees>-0.28585801832377910614013671875</LongitudeDegrees>
            </Position>
            <AltitudeMeters>2764.199951171875</AltitudeMeters>
            <DistanceMeters>NAN</DistanceMeters>
          </Trackpoint>
          <Trackpoint>
            <Time>2022-08-22T09:00:14.000Z</Time>
            <Position>
              <LatitudeDegrees>42.83346788026392459869384765625</LatitudeDegrees>
              <LongitudeDegrees>-0.28581225313246250152587890625</LongitudeDegrees>
            </Position>
            <AltitudeMeters>2761.800048828125</AltitudeMeters>
            <DistanceMeters>NAN</DistanceMeters>
          </Trackpoint>
          <Trackpoint>
            <Time>2022-08-22T09:00:17.000Z</Time>
            <Position>
              <LatitudeDegrees>42.83344273455440998077392578125</LatitudeDegrees>
              <LongitudeDegrees>-0.2857744507491588592529296875</LongitudeDegrees>
            </Position>
            <AltitudeMeters>2759.60009765625</AltitudeMeters>
            <DistanceMeters>NAN</DistanceMeters>
          </Trackpoint>
          <Trackpoint>
            <Time>2022-08-22T09:00:23.000Z</Time>
            <Position>
              <LatitudeDegrees>42.83341071568429470062255859375</LatitudeDegrees>
              <LongitudeDegrees>-0.28571669943630695343017578125</LongitudeDegrees>
            </Position>
            <AltitudeMeters>2756.39990234375</AltitudeMeters>
            <DistanceMeters>NAN</DistanceMeters>
          </Trackpoint>
          <Trackpoint>
            <Time>2022-08-22T09:00:25.000Z</Time>
            <Position>
              <LatitudeDegrees>42.8333898447453975677490234375</LatitudeDegrees>
              <LongitudeDegrees>-0.28569607995450496673583984375</LongitudeDegrees>
            </Position>
            <AltitudeMeters>2754.60009765625</AltitudeMeters>
            <DistanceMeters>NAN</DistanceMeters>
          </Trackpoint>
          <Trackpoint>
            <Time>2022-08-22T09:00:37.000Z</Time>
            <Position>
              <LatitudeDegrees>42.8332483582198619842529296875</LatitudeDegrees>
              <LongitudeDegrees>-0.2857451140880584716796875</LongitudeDegrees>
            </Position>
            <AltitudeMeters>2748.39990234375</AltitudeMeters>
            <DistanceMeters>NAN</DistanceMeters>
          </Trackpoint>
          <Trackpoint>
            <Time>2022-08-22T09:00:42.000Z</Time>
            <Position>
              <LatitudeDegrees>42.8331921994686126708984375</LatitudeDegrees>
              <LongitudeDegrees>-0.2857332117855548858642578125</LongitudeDegrees>
            </Position>
            <AltitudeMeters>2745</AltitudeMeters>
            <DistanceMeters>NAN</DistanceMeters>
          </Trackpoint>
          <Trackpoint>
            <Time>2022-08-22T09:00:46.000Z</Time>
            <Position>
              <LatitudeDegrees>42.833159007132053375244140625</LatitudeDegrees>
              <LongitudeDegrees>-0.28569658286869525909423828125</LongitudeDegrees>
            </Position>
            <AltitudeMeters>2743</AltitudeMeters>
            <DistanceMeters>NAN</DistanceMeters>
          </Trackpoint>
          <Trackpoint>
            <Time>2022-08-22T09:00:48.000Z</Time>
            <Position>
              <LatitudeDegrees>42.8331363759934902191162109375</LatitudeDegrees>
              <LongitudeDegrees>-0.285701863467693328857421875</LongitudeDegrees>
            </Position>
            <AltitudeMeters>2742.199951171875</AltitudeMeters>
            <DistanceMeters>NAN</DistanceMeters>
          </Trackpoint>
          <Trackpoint>
            <Time>2022-08-22T09:00:49.000Z</Time>
            <Position>
              <LatitudeDegrees>42.833119444549083709716796875</LatitudeDegrees>
              <LongitudeDegrees>-0.28571720235049724578857421875</LongitudeDegrees>
            </Position>
            <AltitudeMeters>2742</AltitudeMeters>
            <DistanceMeters>NAN</DistanceMeters>
          </Trackpoint>
          <Trackpoint>
            <Time>2022-08-22T09:00:50.000Z</Time>
            <Position>
              <LatitudeDegrees>42.833119444549083709716796875</LatitudeDegrees>
              <LongitudeDegrees>-0.28571720235049724578857421875</LongitudeDegrees>
            </Position>
            <AltitudeMeters>2742</AltitudeMeters>
            <DistanceMeters>NAN</DistanceMeters>
          </Trackpoint>
          <Trackpoint>
            <Time>2022-08-22T09:00:54.000Z</Time>
            <Position>
              <LatitudeDegrees>42.83309337683022022247314453125</LatitudeDegrees>
              <LongitudeDegrees>-0.2857338823378086090087890625</LongitudeDegrees>
            </Position>
            <AltitudeMeters>2741.39990234375</AltitudeMeters>
            <DistanceMeters>NAN</DistanceMeters>
          </Trackpoint>
          <Trackpoint>
            <Time>2022-08-22T09:00:55.000Z</Time>
            <Position>
              <LatitudeDegrees>42.8330875933170318603515625</LatitudeDegrees>
              <LongitudeDegrees>-0.28571820817887783050537109375</LongitudeDegrees>
            </Position>
            <AltitudeMeters>2740.800048828125</AltitudeMeters>
            <DistanceMeters>NAN</DistanceMeters>
          </Trackpoint>
          <Trackpoint>
            <Time>2022-08-22T09:00:58.000Z</Time>
            <Position>
              <LatitudeDegrees>42.83308331854641437530517578125</LatitudeDegrees>
              <LongitudeDegrees>-0.28570211492478847503662109375</LongitudeDegrees>
            </Position>
            <AltitudeMeters>2740.39990234375</AltitudeMeters>
            <DistanceMeters>NAN</DistanceMeters>
          </Trackpoint>
          <Trackpoint>
            <Time>2022-08-22T09:00:59.000Z</Time>
            <Position>
              <LatitudeDegrees>42.83308692276477813720703125</LatitudeDegrees>
              <LongitudeDegrees>-0.28569339774549007415771484375</LongitudeDegrees>
            </Position>
            <AltitudeMeters>2740.39990234375</AltitudeMeters>
            <DistanceMeters>NAN</DistanceMeters>
          </Trackpoint>
          <Trackpoint>
            <Time>2022-08-22T09:01:06.000Z</Time>
            <Position>
              <LatitudeDegrees>42.83307745121419429779052734375</LatitudeDegrees>
              <LongitudeDegrees>-0.2856351435184478759765625</LongitudeDegrees>
            </Position>
            <AltitudeMeters>2739</AltitudeMeters>
            <DistanceMeters>NAN</DistanceMeters>
          </Trackpoint>
          <Trackpoint>
            <Time>2022-08-22T09:01:09.000Z</Time>
            <Position>
              <LatitudeDegrees>42.8330780379474163055419921875</LatitudeDegrees>
              <LongitudeDegrees>-0.28563304804265499114990234375</LongitudeDegrees>
            </Position>
            <AltitudeMeters>2739</AltitudeMeters>
            <DistanceMeters>NAN</DistanceMeters>
          </Trackpoint>
          <Trackpoint>
            <Time>2022-08-22T09:01:12.000Z</Time>
            <Position>
              <LatitudeDegrees>42.83307996578514575958251953125</LatitudeDegrees>
              <LongitudeDegrees>-0.28563103638589382171630859375</LongitudeDegrees>
            </Position>
            <AltitudeMeters>2739</AltitudeMeters>
            <DistanceMeters>NAN</DistanceMeters>
          </Trackpoint>
          <Trackpoint>
            <Time>2022-08-22T09:01:15.000Z</Time>
            <Position>
              <LatitudeDegrees>42.83308021724224090576171875</LatitudeDegrees>
              <LongitudeDegrees>-0.28562701307237148284912109375</LongitudeDegrees>
            </Position>
            <AltitudeMeters>2739</AltitudeMeters>
            <DistanceMeters>NAN</DistanceMeters>
          </Trackpoint>
          <Trackpoint>
            <Time>2022-08-22T09:01:16.000Z</Time>
            <Position>
              <LatitudeDegrees>42.8330807201564311981201171875</LatitudeDegrees>
              <LongitudeDegrees>-0.28562642633914947509765625</LongitudeDegrees>
            </Position>
            <AltitudeMeters>2739</AltitudeMeters>
            <DistanceMeters>NAN</DistanceMeters>
          </Trackpoint>
          <Trackpoint>
            <Time>2022-08-22T09:01:25.000Z</Time>
            <Position>
              <LatitudeDegrees>42.8330473601818084716796875</LatitudeDegrees>
              <LongitudeDegrees>-0.28557672165334224700927734375</LongitudeDegrees>
            </Position>
            <AltitudeMeters>2736.800048828125</AltitudeMeters>
            <DistanceMeters>NAN</DistanceMeters>
          </Trackpoint>
          <Trackpoint>
            <Time>2022-08-22T09:01:26.000Z</Time>
            <Position>
              <LatitudeDegrees>42.833040989935398101806640625</LatitudeDegrees>
              <LongitudeDegrees>-0.2855699323117733001708984375</LongitudeDegrees>
            </Position>
            <AltitudeMeters>2736.39990234375</AltitudeMeters>
            <DistanceMeters>NAN</DistanceMeters>
          </Trackpoint>
          <Trackpoint>
            <Time>2022-08-22T09:01:34.000Z</Time>
            <Position>
              <LatitudeDegrees>42.83298558555543422698974609375</LatitudeDegrees>
              <LongitudeDegrees>-0.28557546436786651611328125</LongitudeDegrees>
            </Position>
            <AltitudeMeters>2734.199951171875</AltitudeMeters>
            <DistanceMeters>NAN</DistanceMeters>
          </Trackpoint>
          <Trackpoint>
            <Time>2022-08-22T09:01:40.000Z</Time>
            <Position>
              <LatitudeDegrees>42.832981646060943603515625</LatitudeDegrees>
              <LongitudeDegrees>-0.28558946214616298675537109375</LongitudeDegrees>
            </Position>
            <AltitudeMeters>2734.39990234375</AltitudeMeters>
            <DistanceMeters>NAN</DistanceMeters>
          </Trackpoint>
          <Trackpoint>
            <Time>2022-08-22T09:01:42.000Z</Time>
            <Position>
              <LatitudeDegrees>42.83297921530902385711669921875</LatitudeDegrees>
              <LongitudeDegrees>-0.285599939525127410888671875</LongitudeDegrees>
            </Position>
            <AltitudeMeters>2734.60009765625</AltitudeMeters>
            <DistanceMeters>NAN</DistanceMeters>
          </Trackpoint>
          <Trackpoint>
            <Time>2022-08-22T09:01:46.000Z</Time>
            <Position>
              <LatitudeDegrees>42.83296178095042705535888671875</LatitudeDegrees>
              <LongitudeDegrees>-0.28565618209540843963623046875</LongitudeDegrees>
            </Position>
            <AltitudeMeters>2735</AltitudeMeters>
            <DistanceMeters>NAN</DistanceMeters>
          </Trackpoint>
          <Trackpoint>
            <Time>2022-08-22T09:01:47.000Z</Time>
            <Position>
              <LatitudeDegrees>42.83295147120952606201171875</LatitudeDegrees>
              <LongitudeDegrees>-0.2856782265007495880126953125</LongitudeDegrees>
            </Position>
            <AltitudeMeters>2735.199951171875</AltitudeMeters>
            <DistanceMeters>NAN</DistanceMeters>
          </Trackpoint>
          <Trackpoint>
            <Time>2022-08-22T09:01:49.000Z</Time>
            <Position>
              <LatitudeDegrees>42.832943089306354522705078125</LatitudeDegrees>
              <LongitudeDegrees>-0.28569121845066547393798828125</LongitudeDegrees>
            </Position>
            <AltitudeMeters>2735.199951171875</AltitudeMeters>
            <DistanceMeters>NAN</DistanceMeters>
          </Trackpoint>
          <Trackpoint>
            <Time>2022-08-22T09:01:50.000Z</Time>
            <Position>
              <LatitudeDegrees>42.83293512649834156036376953125</LatitudeDegrees>
              <LongitudeDegrees>-0.2857033722102642059326171875</LongitudeDegrees>
            </Position>
            <AltitudeMeters>2735</AltitudeMeters>
            <DistanceMeters>NAN</DistanceMeters>
          </Trackpoint>
          <Trackpoint>
            <Time>2022-08-22T09:01:52.000Z</Time>
            <Position>
              <LatitudeDegrees>42.83291500993072986602783203125</LatitudeDegrees>
              <LongitudeDegrees>-0.2857234887778759002685546875</LongitudeDegrees>
            </Position>
            <AltitudeMeters>2734.60009765625</AltitudeMeters>
            <DistanceMeters>NAN</DistanceMeters>
          </Trackpoint>
          <Trackpoint>
            <Time>2022-08-22T09:01:53.000Z</Time>
            <Position>
              <LatitudeDegrees>42.83290394581854343414306640625</LatitudeDegrees>
              <LongitudeDegrees>-0.28573044575750827789306640625</LongitudeDegrees>
            </Position>
            <AltitudeMeters>2734.39990234375</AltitudeMeters>
            <DistanceMeters>NAN</DistanceMeters>
          </Trackpoint>
          <Trackpoint>
            <Time>2022-08-22T09:01:54.000Z</Time>
            <Position>
              <LatitudeDegrees>42.83288701437413692474365234375</LatitudeDegrees>
              <LongitudeDegrees>-0.285743437707424163818359375</LongitudeDegrees>
            </Position>
            <AltitudeMeters>2734</AltitudeMeters>
            <DistanceMeters>NAN</DistanceMeters>
          </Trackpoint>
          <Trackpoint>
            <Time>2022-08-22T09:02:05.000Z</Time>
            <Position>
              <LatitudeDegrees>42.8328054584562778472900390625</LatitudeDegrees>
              <LongitudeDegrees>-0.28581074438989162445068359375</LongitudeDegrees>
            </Position>
            <AltitudeMeters>2735.800048828125</AltitudeMeters>
            <DistanceMeters>NAN</DistanceMeters>
          </Trackpoint>
          <Trackpoint>
            <Time>2022-08-22T09:02:10.000Z</Time>
            <Position>
              <LatitudeDegrees>42.83275692723691463470458984375</LatitudeDegrees>
              <LongitudeDegrees>-0.2858103252947330474853515625</LongitudeDegrees>
            </Position>
            <AltitudeMeters>2735.199951171875</AltitudeMeters>
            <DistanceMeters>NAN</DistanceMeters>
          </Trackpoint>
          <Trackpoint>
            <Time>2022-08-22T09:02:17.000Z</Time>
            <Position>
              <LatitudeDegrees>42.832694314420223236083984375</LatitudeDegrees>
              <LongitudeDegrees>-0.285861790180206298828125</LongitudeDegrees>
            </Position>
            <AltitudeMeters>2738.199951171875</AltitudeMeters>
            <DistanceMeters>NAN</DistanceMeters>
          </Trackpoint>
          <Trackpoint>
            <Time>2022-08-22T09:02:20.000Z</Time>
            <Position>
              <LatitudeDegrees>42.83268081955611705780029296875</LatitudeDegrees>
              <LongitudeDegrees>-0.28586489148437976837158203125</LongitudeDegrees>
            </Position>
            <AltitudeMeters>2738.199951171875</AltitudeMeters>
            <DistanceMeters>NAN</DistanceMeters>
          </Trackpoint>
          <Trackpoint>
            <Time>2022-08-22T09:02:22.000Z</Time>
            <Position>
              <LatitudeDegrees>42.8326807357370853424072265625</LatitudeDegrees>
              <LongitudeDegrees>-0.28585550375282764434814453125</LongitudeDegrees>
            </Position>
            <AltitudeMeters>2737.39990234375</AltitudeMeters>
            <DistanceMeters>NAN</DistanceMeters>
          </Trackpoint>
          <Trackpoint>
            <Time>2022-08-22T09:02:24.000Z</Time>
            <Position>
              <LatitudeDegrees>42.83267612569034099578857421875</LatitudeDegrees>
              <LongitudeDegrees>-0.2858497202396392822265625</LongitudeDegrees>
            </Position>
            <AltitudeMeters>2737</AltitudeMeters>
            <DistanceMeters>NAN</DistanceMeters>
          </Trackpoint>
          <Trackpoint>
            <Time>2022-08-22T09:02:29.000Z</Time>
            <Position>
              <LatitudeDegrees>42.832631282508373260498046875</LatitudeDegrees>
              <LongitudeDegrees>-0.28585835359990596771240234375</LongitudeDegrees>
            </Position>
            <AltitudeMeters>2737</AltitudeMeters>
            <DistanceMeters>NAN</DistanceMeters>
          </Trackpoint>
          <Trackpoint>
            <Time>2022-08-22T09:02:30.000Z</Time>
            <Position>
              <LatitudeDegrees>42.83261083066463470458984375</LatitudeDegrees>
              <LongitudeDegrees>-0.2858579345047473907470703125</LongitudeDegrees>
            </Position>
            <AltitudeMeters>2736.60009765625</AltitudeMeters>
            <DistanceMeters>NAN</DistanceMeters>
          </Trackpoint>
          <Trackpoint>
            <Time>2022-08-22T09:02:37.000Z</Time>
            <Position>
              <LatitudeDegrees>42.83254243433475494384765625</LatitudeDegrees>
              <LongitudeDegrees>-0.28584712184965610504150390625</LongitudeDegrees>
            </Position>
            <AltitudeMeters>2734.800048828125</AltitudeMeters>
            <DistanceMeters>NAN</DistanceMeters>
          </Trackpoint>
          <Trackpoint>
            <Time>2022-08-22T09:02:41.000Z</Time>
            <Position>
              <LatitudeDegrees>42.83249675296247005462646484375</LatitudeDegrees>
              <LongitudeDegrees>-0.28587478213012218475341796875</LongitudeDegrees>
            </Position>
            <AltitudeMeters>2736.199951171875</AltitudeMeters>
            <DistanceMeters>NAN</DistanceMeters>
          </Trackpoint>
          <Trackpoint>
            <Time>2022-08-22T09:02:44.000Z</Time>
            <Position>
              <LatitudeDegrees>42.8324680030345916748046875</LatitudeDegrees>
              <LongitudeDegrees>-0.28589758090674877166748046875</LongitudeDegrees>
            </Position>
            <AltitudeMeters>2737.60009765625</AltitudeMeters>
            <DistanceMeters>NAN</DistanceMeters>
          </Trackpoint>
          <Trackpoint>
            <Time>2022-08-22T09:02:48.000Z</Time>
            <Position>
              <LatitudeDegrees>42.83244051039218902587890625</LatitudeDegrees>
              <LongitudeDegrees>-0.285923480987548828125</LongitudeDegrees>
            </Position>
            <AltitudeMeters>2739.199951171875</AltitudeMeters>
            <DistanceMeters>NAN</DistanceMeters>
          </Trackpoint>
          <Trackpoint>
            <Time>2022-08-22T09:02:59.000Z</Time>
            <Position>
              <LatitudeDegrees>42.83234529197216033935546875</LatitudeDegrees>
              <LongitudeDegrees>-0.2859578467905521392822265625</LongitudeDegrees>
            </Position>
            <AltitudeMeters>2741</AltitudeMeters>
            <DistanceMeters>NAN</DistanceMeters>
          </Trackpoint>
          <Trackpoint>
            <Time>2022-08-22T09:03:00.000Z</Time>
            <Position>
              <LatitudeDegrees>42.8323360718786716461181640625</LatitudeDegrees>
              <LongitudeDegrees>-0.285953991115093231201171875</LongitudeDegrees>
            </Position>
            <AltitudeMeters>2740.800048828125</AltitudeMeters>
            <DistanceMeters>NAN</DistanceMeters>
          </Trackpoint>
          <Trackpoint>
            <Time>2022-08-22T09:03:06.000Z</Time>
            <Position>
              <LatitudeDegrees>42.8322668373584747314453125</LatitudeDegrees>
              <LongitudeDegrees>-0.285925157368183135986328125</LongitudeDegrees>
            </Position>
            <AltitudeMeters>2735.800048828125</AltitudeMeters>
            <DistanceMeters>NAN</DistanceMeters>
          </Trackpoint>
          <Trackpoint>
            <Time>2022-08-22T09:03:20.000Z</Time>
            <Position>
              <LatitudeDegrees>42.832160890102386474609375</LatitudeDegrees>
              <LongitudeDegrees>-0.2859826572239398956298828125</LongitudeDegrees>
            </Position>
            <AltitudeMeters>2732.60009765625</AltitudeMeters>
            <DistanceMeters>NAN</DistanceMeters>
          </Trackpoint>
          <Trackpoint>
            <Time>2022-08-22T09:03:25.000Z</Time>
            <Position>
              <LatitudeDegrees>42.8321439586579799652099609375</LatitudeDegrees>
              <LongitudeDegrees>-0.28603353537619113922119140625</LongitudeDegrees>
            </Position>
            <AltitudeMeters>2734.800048828125</AltitudeMeters>
            <DistanceMeters>NAN</DistanceMeters>
          </Trackpoint>
          <Trackpoint>
            <Time>2022-08-22T09:03:29.000Z</Time>
            <Position>
              <LatitudeDegrees>42.8321355767548084259033203125</LatitudeDegrees>
              <LongitudeDegrees>-0.28605960309505462646484375</LongitudeDegrees>
            </Position>
            <AltitudeMeters>2736.199951171875</AltitudeMeters>
            <DistanceMeters>NAN</DistanceMeters>
          </Trackpoint>
          <Trackpoint>
            <Time>2022-08-22T09:03:42.000Z</Time>
            <Position>
              <LatitudeDegrees>42.8320869617164134979248046875</LatitudeDegrees>
              <LongitudeDegrees>-0.2860292606055736541748046875</LongitudeDegrees>
            </Position>
            <AltitudeMeters>2730.800048828125</AltitudeMeters>
            <DistanceMeters>NAN</DistanceMeters>
          </Trackpoint>
          <Trackpoint>
            <Time>2022-08-22T09:03:46.000Z</Time>
            <Position>
              <LatitudeDegrees>42.83204832114279270172119140625</LatitudeDegrees>
              <LongitudeDegrees>-0.28596597723662853240966796875</LongitudeDegrees>
            </Position>
            <AltitudeMeters>2726.800048828125</AltitudeMeters>
            <DistanceMeters>NAN</DistanceMeters>
          </Trackpoint>
          <Trackpoint>
            <Time>2022-08-22T09:03:55.000Z</Time>
            <Position>
              <LatitudeDegrees>42.831980176270008087158203125</LatitudeDegrees>
              <LongitudeDegrees>-0.28583404608070850372314453125</LongitudeDegrees>
            </Position>
            <AltitudeMeters>2722</AltitudeMeters>
            <DistanceMeters>NAN</DistanceMeters>
          </Trackpoint>
          <Trackpoint>
            <Time>2022-08-22T09:03:58.000Z</Time>
            <Position>
              <LatitudeDegrees>42.83196986652910709381103515625</LatitudeDegrees>
              <LongitudeDegrees>-0.28580135665833950042724609375</LongitudeDegrees>
            </Position>
            <AltitudeMeters>2721</AltitudeMeters>
            <DistanceMeters>NAN</DistanceMeters>
          </Trackpoint>
          <Trackpoint>
            <Time>2022-08-22T09:04:03.000Z</Time>
            <Position>
              <LatitudeDegrees>42.8319612331688404083251953125</LatitudeDegrees>
              <LongitudeDegrees>-0.28572860173881053924560546875</LongitudeDegrees>
            </Position>
            <AltitudeMeters>2717.800048828125</AltitudeMeters>
            <DistanceMeters>NAN</DistanceMeters>
          </Trackpoint>
          <Trackpoint>
            <Time>2022-08-22T09:04:05.000Z</Time>
            <Position>
              <LatitudeDegrees>42.83196114934980869293212890625</LatitudeDegrees>
              <LongitudeDegrees>-0.28569540940225124359130859375</LongitudeDegrees>
            </Position>
            <AltitudeMeters>2716</AltitudeMeters>
            <DistanceMeters>NAN</DistanceMeters>
          </Trackpoint>
          <Trackpoint>
            <Time>2022-08-22T09:04:06.000Z</Time>
            <Position>
              <LatitudeDegrees>42.83195679076015949249267578125</LatitudeDegrees>
              <LongitudeDegrees>-0.28565936721861362457275390625</LongitudeDegrees>
            </Position>
            <AltitudeMeters>2714</AltitudeMeters>
            <DistanceMeters>NAN</DistanceMeters>
          </Trackpoint>
          <Trackpoint>
            <Time>2022-08-22T09:04:07.000Z</Time>
            <Position>
              <LatitudeDegrees>42.83195679076015949249267578125</LatitudeDegrees>
              <LongitudeDegrees>-0.28565936721861362457275390625</LongitudeDegrees>
            </Position>
            <AltitudeMeters>2714</AltitudeMeters>
            <DistanceMeters>NAN</DistanceMeters>
          </Trackpoint>
          <Trackpoint>
            <Time>2022-08-22T09:04:09.000Z</Time>
            <Position>
              <LatitudeDegrees>42.8319468162953853607177734375</LatitudeDegrees>
              <LongitudeDegrees>-0.28563288040459156036376953125</LongitudeDegrees>
            </Position>
            <AltitudeMeters>2712.39990234375</AltitudeMeters>
            <DistanceMeters>NAN</DistanceMeters>
          </Trackpoint>
          <Trackpoint>
            <Time>2022-08-22T09:04:25.000Z</Time>
            <Position>
              <LatitudeDegrees>42.83182117156684398651123046875</LatitudeDegrees>
              <LongitudeDegrees>-0.28548301197588443756103515625</LongitudeDegrees>
            </Position>
            <AltitudeMeters>2709</AltitudeMeters>
            <DistanceMeters>NAN</DistanceMeters>
          </Trackpoint>
          <Trackpoint>
            <Time>2022-08-22T09:04:28.000Z</Time>
            <Position>
              <LatitudeDegrees>42.8317949362099170684814453125</LatitudeDegrees>
              <LongitudeDegrees>-0.28546943329274654388427734375</LongitudeDegrees>
            </Position>
            <AltitudeMeters>2709.199951171875</AltitudeMeters>
            <DistanceMeters>NAN</DistanceMeters>
          </Trackpoint>
          <Trackpoint>
            <Time>2022-08-22T09:04:31.000Z</Time>
            <Position>
              <LatitudeDegrees>42.83176568336784839630126953125</LatitudeDegrees>
              <LongitudeDegrees>-0.2854690141975879669189453125</LongitudeDegrees>
            </Position>
            <AltitudeMeters>2709.199951171875</AltitudeMeters>
            <DistanceMeters>NAN</DistanceMeters>
          </Trackpoint>
          <Trackpoint>
            <Time>2022-08-22T09:04:33.000Z</Time>
            <Position>
              <LatitudeDegrees>42.831745482981204986572265625</LatitudeDegrees>
              <LongitudeDegrees>-0.2854706905782222747802734375</LongitudeDegrees>
            </Position>
            <AltitudeMeters>2709</AltitudeMeters>
            <DistanceMeters>NAN</DistanceMeters>
          </Trackpoint>
          <Trackpoint>
            <Time>2022-08-22T09:04:34.000Z</Time>
            <Position>
              <LatitudeDegrees>42.8317329101264476776123046875</LatitudeDegrees>
              <LongitudeDegrees>-0.28547630645334720611572265625</LongitudeDegrees>
            </Position>
            <AltitudeMeters>2709.199951171875</AltitudeMeters>
            <DistanceMeters>NAN</DistanceMeters>
          </Trackpoint>
          <Trackpoint>
            <Time>2022-08-22T09:04:38.000Z</Time>
            <Position>
              <LatitudeDegrees>42.83169485628604888916015625</LatitudeDegrees>
              <LongitudeDegrees>-0.28549055568873882293701171875</LongitudeDegrees>
            </Position>
            <AltitudeMeters>2709.39990234375</AltitudeMeters>
            <DistanceMeters>NAN</DistanceMeters>
          </Trackpoint>
          <Trackpoint>
            <Time>2022-08-22T09:04:39.000Z</Time>
            <Position>
              <LatitudeDegrees>42.83168706111609935760498046875</LatitudeDegrees>
              <LongitudeDegrees>-0.28549189679324626922607421875</LongitudeDegrees>
            </Position>
            <AltitudeMeters>2709.39990234375</AltitudeMeters>
            <DistanceMeters>NAN</DistanceMeters>
          </Trackpoint>
          <Trackpoint>
            <Time>2022-08-22T09:04:40.000Z</Time>
            <Position>
              <LatitudeDegrees>42.83168102614581584930419921875</LatitudeDegrees>
              <LongitudeDegrees>-0.285491980612277984619140625</LongitudeDegrees>
            </Position>
            <AltitudeMeters>2709.39990234375</AltitudeMeters>
            <DistanceMeters>NAN</DistanceMeters>
          </Trackpoint>
          <Trackpoint>
            <Time>2022-08-22T09:04:43.000Z</Time>
            <Position>
              <LatitudeDegrees>42.83166107721626758575439453125</LatitudeDegrees>
              <LongitudeDegrees>-0.2854737080633640289306640625</LongitudeDegrees>
            </Position>
            <AltitudeMeters>2708.60009765625</AltitudeMeters>
            <DistanceMeters>NAN</DistanceMeters>
          </Trackpoint>
          <Trackpoint>
            <Time>2022-08-22T09:04:52.000Z</Time>
            <Position>
              <LatitudeDegrees>42.83158161677420139312744140625</LatitudeDegrees>
              <LongitudeDegrees>-0.285497345030307769775390625</LongitudeDegrees>
            </Position>
            <AltitudeMeters>2708.800048828125</AltitudeMeters>
            <DistanceMeters>NAN</DistanceMeters>
          </Trackpoint>
          <Trackpoint>
            <Time>2022-08-22T09:04:53.000Z</Time>
            <Position>
              <LatitudeDegrees>42.83157273195683956146240234375</LatitudeDegrees>
              <LongitudeDegrees>-0.2855012007057666778564453125</LongitudeDegrees>
            </Position>
            <AltitudeMeters>2708.800048828125</AltitudeMeters>
            <DistanceMeters>NAN</DistanceMeters>
          </Trackpoint>
          <Trackpoint>
            <Time>2022-08-22T09:04:54.000Z</Time>
            <Position>
              <LatitudeDegrees>42.83156066201627254486083984375</LatitudeDegrees>
              <LongitudeDegrees>-0.28550279326736927032470703125</LongitudeDegrees>
            </Position>
            <AltitudeMeters>2708.800048828125</AltitudeMeters>
            <DistanceMeters>NAN</DistanceMeters>
          </Trackpoint>
          <Trackpoint>
            <Time>2022-08-22T09:05:01.000Z</Time>
            <Position>
              <LatitudeDegrees>42.831479609012603759765625</LatitudeDegrees>
              <LongitudeDegrees>-0.285530872642993927001953125</LongitudeDegrees>
            </Position>
            <AltitudeMeters>2708.800048828125</AltitudeMeters>
            <DistanceMeters>NAN</DistanceMeters>
          </Trackpoint>
          <Trackpoint>
            <Time>2022-08-22T09:05:03.000Z</Time>
            <Position>
              <LatitudeDegrees>42.8314640186727046966552734375</LatitudeDegrees>
              <LongitudeDegrees>-0.2855521626770496368408203125</LongitudeDegrees>
            </Position>
            <AltitudeMeters>2708.800048828125</AltitudeMeters>
            <DistanceMeters>NAN</DistanceMeters>
          </Trackpoint>
          <Trackpoint>
            <Time>2022-08-22T09:05:06.000Z</Time>
            <Position>
              <LatitudeDegrees>42.83144549466669559478759765625</LatitudeDegrees>
              <LongitudeDegrees>-0.2855763025581836700439453125</LongitudeDegrees>
            </Position>
            <AltitudeMeters>2709</AltitudeMeters>
            <DistanceMeters>NAN</DistanceMeters>
          </Trackpoint>
          <Trackpoint>
            <Time>2022-08-22T09:05:13.000Z</Time>
            <Position>
              <LatitudeDegrees>42.8313897550106048583984375</LatitudeDegrees>
              <LongitudeDegrees>-0.28563254512846469879150390625</LongitudeDegrees>
            </Position>
            <AltitudeMeters>2709</AltitudeMeters>
            <DistanceMeters>NAN</DistanceMeters>
          </Trackpoint>
          <Trackpoint>
            <Time>2022-08-22T09:05:14.000Z</Time>
            <Position>
              <LatitudeDegrees>42.83138078637421131134033203125</LatitudeDegrees>
              <LongitudeDegrees>-0.285639502108097076416015625</LongitudeDegrees>
            </Position>
            <AltitudeMeters>2709</AltitudeMeters>
            <DistanceMeters>NAN</DistanceMeters>
          </Trackpoint>
          <Trackpoint>
            <Time>2022-08-22T09:05:15.000Z</Time>
            <Position>
              <LatitudeDegrees>42.83137357793748378753662109375</LatitudeDegrees>
              <LongitudeDegrees>-0.28564914129674434661865234375</LongitudeDegrees>
            </Position>
            <AltitudeMeters>2709</AltitudeMeters>
            <DistanceMeters>NAN</DistanceMeters>
          </Trackpoint>
          <Trackpoint>
            <Time>2022-08-22T09:05:18.000Z</Time>
            <Position>
              <LatitudeDegrees>42.83135396428406238555908203125</LatitudeDegrees>
              <LongitudeDegrees>-0.28567478992044925689697265625</LongitudeDegrees>
            </Position>
            <AltitudeMeters>2709.199951171875</AltitudeMeters>
            <DistanceMeters>NAN</DistanceMeters>
          </Trackpoint>
          <Trackpoint>
            <Time>2022-08-22T09:05:22.000Z</Time>
            <Position>
              <LatitudeDegrees>42.83133619464933872222900390625</LatitudeDegrees>
              <LongitudeDegrees>-0.28569222427904605865478515625</LongitudeDegrees>
            </Position>
            <AltitudeMeters>2709.199951171875</AltitudeMeters>
            <DistanceMeters>NAN</DistanceMeters>
          </Trackpoint>
          <Trackpoint>
            <Time>2022-08-22T09:05:34.000Z</Time>
            <Position>
              <LatitudeDegrees>42.8313416428864002227783203125</LatitudeDegrees>
              <LongitudeDegrees>-0.2857097424566745758056640625</LongitudeDegrees>
            </Position>
            <AltitudeMeters>2709.60009765625</AltitudeMeters>
            <DistanceMeters>NAN</DistanceMeters>
          </Trackpoint>
          <Trackpoint>
            <Time>2022-08-22T09:05:39.000Z</Time>
            <Position>
              <LatitudeDegrees>42.8313468396663665771484375</LatitudeDegrees>
              <LongitudeDegrees>-0.285720638930797576904296875</LongitudeDegrees>
            </Position>
            <AltitudeMeters>2710</AltitudeMeters>
            <DistanceMeters>NAN</DistanceMeters>
          </Trackpoint>
          <Trackpoint>
            <Time>2022-08-22T09:05:43.000Z</Time>
            <Position>
              <LatitudeDegrees>42.83134776167571544647216796875</LatitudeDegrees>
              <LongitudeDegrees>-0.285730697214603424072265625</LongitudeDegrees>
            </Position>
            <AltitudeMeters>2710.199951171875</AltitudeMeters>
            <DistanceMeters>NAN</DistanceMeters>
          </Trackpoint>
          <Trackpoint>
            <Time>2022-08-22T09:05:49.000Z</Time>
            <Position>
              <LatitudeDegrees>42.83136988990008831024169921875</LatitudeDegrees>
              <LongitudeDegrees>-0.28573530726134777069091796875</LongitudeDegrees>
            </Position>
            <AltitudeMeters>2710.800048828125</AltitudeMeters>
            <DistanceMeters>NAN</DistanceMeters>
          </Trackpoint>
          <Trackpoint>
            <Time>2022-08-22T09:05:57.000Z</Time>
            <Position>
              <LatitudeDegrees>42.83135849051177501678466796875</LatitudeDegrees>
              <LongitudeDegrees>-0.2857667393982410430908203125</LongitudeDegrees>
            </Position>
            <AltitudeMeters>2711.199951171875</AltitudeMeters>
            <DistanceMeters>NAN</DistanceMeters>
          </Trackpoint>
          <Trackpoint>
            <Time>2022-08-22T09:06:08.000Z</Time>
            <Position>
              <LatitudeDegrees>42.83134809695184230804443359375</LatitudeDegrees>
              <LongitudeDegrees>-0.28578333556652069091796875</LongitudeDegrees>
            </Position>
            <AltitudeMeters>2711.39990234375</AltitudeMeters>
            <DistanceMeters>NAN</DistanceMeters>
          </Trackpoint>
          <Trackpoint>
            <Time>2022-08-22T09:06:23.000Z</Time>
            <Position>
              <LatitudeDegrees>42.83134558238089084625244140625</LatitudeDegrees>
              <LongitudeDegrees>-0.2857761271297931671142578125</LongitudeDegrees>
            </Position>
            <AltitudeMeters>2711.199951171875</AltitudeMeters>
            <DistanceMeters>NAN</DistanceMeters>
          </Trackpoint>
          <Trackpoint>
            <Time>2022-08-22T09:06:26.000Z</Time>
            <Position>
              <LatitudeDegrees>42.83134608529508113861083984375</LatitudeDegrees>
              <LongitudeDegrees>-0.28577126562595367431640625</LongitudeDegrees>
            </Position>
            <AltitudeMeters>2711</AltitudeMeters>
            <DistanceMeters>NAN</DistanceMeters>
          </Trackpoint>
          <Trackpoint>
            <Time>2022-08-22T09:06:30.000Z</Time>
            <Position>
              <LatitudeDegrees>42.83135245554149150848388671875</LatitudeDegrees>
              <LongitudeDegrees>-0.285774283111095428466796875</LongitudeDegrees>
            </Position>
            <AltitudeMeters>2711.199951171875</AltitudeMeters>
            <DistanceMeters>NAN</DistanceMeters>
          </Trackpoint>
          <Trackpoint>
            <Time>2022-08-22T09:06:34.000Z</Time>
            <Position>
              <LatitudeDegrees>42.83134943805634975433349609375</LatitudeDegrees>
              <LongitudeDegrees>-0.28577922843396663665771484375</LongitudeDegrees>
            </Position>
            <AltitudeMeters>2711.39990234375</AltitudeMeters>
            <DistanceMeters>NAN</DistanceMeters>
          </Trackpoint>
          <Trackpoint>
            <Time>2022-08-22T09:06:38.000Z</Time>
            <Position>
              <LatitudeDegrees>42.83135161735117435455322265625</LatitudeDegrees>
              <LongitudeDegrees>-0.28577688150107860565185546875</LongitudeDegrees>
            </Position>
            <AltitudeMeters>2711.39990234375</AltitudeMeters>
            <DistanceMeters>NAN</DistanceMeters>
          </Trackpoint>
          <Trackpoint>
            <Time>2022-08-22T09:06:42.000Z</Time>
            <Position>
              <LatitudeDegrees>42.831351868808269500732421875</LatitudeDegrees>
              <LongitudeDegrees>-0.285778306424617767333984375</LongitudeDegrees>
            </Position>
            <AltitudeMeters>2711.39990234375</AltitudeMeters>
            <DistanceMeters>NAN</DistanceMeters>
          </Trackpoint>
          <Trackpoint>
            <Time>2022-08-22T09:06:48.000Z</Time>
            <Position>
              <LatitudeDegrees>42.83135178498923778533935546875</LatitudeDegrees>
              <LongitudeDegrees>-0.285789705812931060791015625</LongitudeDegrees>
            </Position>
            <AltitudeMeters>2711.800048828125</AltitudeMeters>
            <DistanceMeters>NAN</DistanceMeters>
          </Trackpoint>
          <Trackpoint>
            <Time>2022-08-22T09:06:55.000Z</Time>
            <Position>
              <LatitudeDegrees>42.8313537128269672393798828125</LatitudeDegrees>
              <LongitudeDegrees>-0.2858170308172702789306640625</LongitudeDegrees>
            </Position>
            <AltitudeMeters>2712.800048828125</AltitudeMeters>
            <DistanceMeters>NAN</DistanceMeters>
          </Trackpoint>
          <Trackpoint>
            <Time>2022-08-22T09:07:01.000Z</Time>
            <Position>
              <LatitudeDegrees>42.83135245554149150848388671875</LatitudeDegrees>
              <LongitudeDegrees>-0.2858202159404754638671875</LongitudeDegrees>
            </Position>
            <AltitudeMeters>2712.800048828125</AltitudeMeters>
            <DistanceMeters>NAN</DistanceMeters>
          </Trackpoint>
          <Trackpoint>
            <Time>2022-08-22T09:07:36.000Z</Time>
            <Position>
              <LatitudeDegrees>42.83136569894850254058837890625</LatitudeDegrees>
              <LongitudeDegrees>-0.28577269054949283599853515625</LongitudeDegrees>
            </Position>
            <AltitudeMeters>2711.39990234375</AltitudeMeters>
            <DistanceMeters>NAN</DistanceMeters>
          </Trackpoint>
          <Trackpoint>
            <Time>2022-08-22T09:07:46.000Z</Time>
            <Position>
              <LatitudeDegrees>42.83136787824332714080810546875</LatitudeDegrees>
              <LongitudeDegrees>-0.2857617102563381195068359375</LongitudeDegrees>
            </Position>
            <AltitudeMeters>2711.199951171875</AltitudeMeters>
            <DistanceMeters>NAN</DistanceMeters>
          </Trackpoint>
          <Trackpoint>
            <Time>2022-08-22T09:07:49.000Z</Time>
            <Position>
              <LatitudeDegrees>42.83137894235551357269287109375</LatitudeDegrees>
              <LongitudeDegrees>-0.2857707627117633819580078125</LongitudeDegrees>
            </Position>
            <AltitudeMeters>2711.800048828125</AltitudeMeters>
            <DistanceMeters>NAN</DistanceMeters>
          </Trackpoint>
          <Trackpoint>
            <Time>2022-08-22T09:07:52.000Z</Time>
            <Position>
              <LatitudeDegrees>42.83137626014649868011474609375</LatitudeDegrees>
              <LongitudeDegrees>-0.28576481156051158905029296875</LongitudeDegrees>
            </Position>
            <AltitudeMeters>2711.60009765625</AltitudeMeters>
            <DistanceMeters>NAN</DistanceMeters>
          </Trackpoint>
          <Trackpoint>
            <Time>2022-08-22T09:07:56.000Z</Time>
            <Position>
              <LatitudeDegrees>42.83137843944132328033447265625</LatitudeDegrees>
              <LongitudeDegrees>-0.2857684157788753509521484375</LongitudeDegrees>
            </Position>
            <AltitudeMeters>2711.60009765625</AltitudeMeters>
            <DistanceMeters>NAN</DistanceMeters>
          </Trackpoint>
          <Trackpoint>
            <Time>2022-08-22T09:07:57.000Z</Time>
            <Position>
              <LatitudeDegrees>42.831375338137149810791015625</LatitudeDegrees>
              <LongitudeDegrees>-0.2857687510550022125244140625</LongitudeDegrees>
            </Position>
            <AltitudeMeters>2711.60009765625</AltitudeMeters>
            <DistanceMeters>NAN</DistanceMeters>
          </Trackpoint>
          <Trackpoint>
            <Time>2022-08-22T09:07:58.000Z</Time>
            <Position>
              <LatitudeDegrees>42.831373326480388641357421875</LatitudeDegrees>
              <LongitudeDegrees>-0.285764224827289581298828125</LongitudeDegrees>
            </Position>
            <AltitudeMeters>2711.39990234375</AltitudeMeters>
            <DistanceMeters>NAN</DistanceMeters>
          </Trackpoint>
          <Trackpoint>
            <Time>2022-08-22T09:07:59.000Z</Time>
            <Position>
              <LatitudeDegrees>42.831373326480388641357421875</LatitudeDegrees>
              <LongitudeDegrees>-0.285764224827289581298828125</LongitudeDegrees>
            </Position>
            <AltitudeMeters>2711.39990234375</AltitudeMeters>
            <DistanceMeters>NAN</DistanceMeters>
          </Trackpoint>
          <Trackpoint>
            <Time>2022-08-22T09:08:01.000Z</Time>
            <Position>
              <LatitudeDegrees>42.8313751704990863800048828125</LatitudeDegrees>
              <LongitudeDegrees>-0.285762213170528411865234375</LongitudeDegrees>
            </Position>
            <AltitudeMeters>2711.39990234375</AltitudeMeters>
            <DistanceMeters>NAN</DistanceMeters>
          </Trackpoint>
          <Trackpoint>
            <Time>2022-08-22T09:08:04.000Z</Time>
            <Position>
              <LatitudeDegrees>42.8313795290887355804443359375</LatitudeDegrees>
              <LongitudeDegrees>-0.28575525619089603424072265625</LongitudeDegrees>
            </Position>
            <AltitudeMeters>2711.39990234375</AltitudeMeters>
            <DistanceMeters>NAN</DistanceMeters>
          </Trackpoint>
          <Trackpoint>
            <Time>2022-08-22T09:08:13.000Z</Time>
            <Position>
              <LatitudeDegrees>42.8313875757157802581787109375</LatitudeDegrees>
              <LongitudeDegrees>-0.28573815710842609405517578125</LongitudeDegrees>
            </Position>
            <AltitudeMeters>2711.199951171875</AltitudeMeters>
            <DistanceMeters>NAN</DistanceMeters>
          </Trackpoint>
          <Trackpoint>
            <Time>2022-08-22T09:08:15.000Z</Time>
            <Position>
              <LatitudeDegrees>42.8313879109919071197509765625</LatitudeDegrees>
              <LongitudeDegrees>-0.285736732184886932373046875</LongitudeDegrees>
            </Position>
            <AltitudeMeters>2711.199951171875</AltitudeMeters>
            <DistanceMeters>NAN</DistanceMeters>
          </Trackpoint>
          <Trackpoint>
            <Time>2022-08-22T09:08:18.000Z</Time>
            <Position>
              <LatitudeDegrees>42.83137558959424495697021484375</LatitudeDegrees>
              <LongitudeDegrees>-0.28574310243129730224609375</LongitudeDegrees>
            </Position>
            <AltitudeMeters>2711</AltitudeMeters>
            <DistanceMeters>NAN</DistanceMeters>
          </Trackpoint>
          <Trackpoint>
            <Time>2022-08-22T09:08:19.000Z</Time>
            <Position>
              <LatitudeDegrees>42.83136636950075626373291015625</LatitudeDegrees>
              <LongitudeDegrees>-0.28574846684932708740234375</LongitudeDegrees>
            </Position>
            <AltitudeMeters>2711</AltitudeMeters>
            <DistanceMeters>NAN</DistanceMeters>
          </Trackpoint>
          <Trackpoint>
            <Time>2022-08-22T09:08:20.000Z</Time>
            <Position>
              <LatitudeDegrees>42.83135949634015560150146484375</LatitudeDegrees>
              <LongitudeDegrees>-0.285752154886722564697265625</LongitudeDegrees>
            </Position>
            <AltitudeMeters>2711</AltitudeMeters>
            <DistanceMeters>NAN</DistanceMeters>
          </Trackpoint>
          <Trackpoint>
            <Time>2022-08-22T09:08:26.000Z</Time>
            <Position>
              <LatitudeDegrees>42.83135312609374523162841796875</LatitudeDegrees>
              <LongitudeDegrees>-0.28575249016284942626953125</LongitudeDegrees>
            </Position>
            <AltitudeMeters>2710.800048828125</AltitudeMeters>
            <DistanceMeters>NAN</DistanceMeters>
          </Trackpoint>
          <Trackpoint>
            <Time>2022-08-22T09:08:33.000Z</Time>
            <Position>
              <LatitudeDegrees>42.83134792931377887725830078125</LatitudeDegrees>
              <LongitudeDegrees>-0.2857410907745361328125</LongitudeDegrees>
            </Position>
            <AltitudeMeters>2710.39990234375</AltitudeMeters>
            <DistanceMeters>NAN</DistanceMeters>
          </Trackpoint>
          <Trackpoint>
            <Time>2022-08-22T09:08:38.000Z</Time>
            <Position>
              <LatitudeDegrees>42.8313372842967510223388671875</LatitudeDegrees>
              <LongitudeDegrees>-0.2857298590242862701416015625</LongitudeDegrees>
            </Position>
            <AltitudeMeters>2710</AltitudeMeters>
            <DistanceMeters>NAN</DistanceMeters>
          </Trackpoint>
          <Trackpoint>
            <Time>2022-08-22T09:08:39.000Z</Time>
            <Position>
              <LatitudeDegrees>42.83133485354483127593994140625</LatitudeDegrees>
              <LongitudeDegrees>-0.2857295237481594085693359375</LongitudeDegrees>
            </Position>
            <AltitudeMeters>2709.800048828125</AltitudeMeters>
            <DistanceMeters>NAN</DistanceMeters>
          </Trackpoint>
          <Trackpoint>
            <Time>2022-08-22T09:08:40.000Z</Time>
            <Position>
              <LatitudeDegrees>42.83133485354483127593994140625</LatitudeDegrees>
              <LongitudeDegrees>-0.2857295237481594085693359375</LongitudeDegrees>
            </Position>
            <AltitudeMeters>2709.800048828125</AltitudeMeters>
            <DistanceMeters>NAN</DistanceMeters>
          </Trackpoint>
          <Trackpoint>
            <Time>2022-08-22T09:08:43.000Z</Time>
            <Position>
              <LatitudeDegrees>42.83133409917354583740234375</LatitudeDegrees>
              <LongitudeDegrees>-0.2857248298823833465576171875</LongitudeDegrees>
            </Position>
            <AltitudeMeters>2709.800048828125</AltitudeMeters>
            <DistanceMeters>NAN</DistanceMeters>
          </Trackpoint>
          <Trackpoint>
            <Time>2022-08-22T09:09:21.000Z</Time>
            <Position>
              <LatitudeDegrees>42.83129830844700336456298828125</LatitudeDegrees>
              <LongitudeDegrees>-0.28570898808538913726806640625</LongitudeDegrees>
            </Position>
            <AltitudeMeters>2708.60009765625</AltitudeMeters>
            <DistanceMeters>NAN</DistanceMeters>
          </Trackpoint>
          <Trackpoint>
            <Time>2022-08-22T09:09:27.000Z</Time>
            <Position>
              <LatitudeDegrees>42.831259332597255706787109375</LatitudeDegrees>
              <LongitudeDegrees>-0.28575240634381771087646484375</LongitudeDegrees>
            </Position>
            <AltitudeMeters>2708.800048828125</AltitudeMeters>
            <DistanceMeters>NAN</DistanceMeters>
          </Trackpoint>
          <Trackpoint>
            <Time>2022-08-22T09:09:49.000Z</Time>
            <Position>
              <LatitudeDegrees>42.831216752529144287109375</LatitudeDegrees>
              <LongitudeDegrees>-0.28565081767737865447998046875</LongitudeDegrees>
            </Position>
            <AltitudeMeters>2705.199951171875</AltitudeMeters>
            <DistanceMeters>NAN</DistanceMeters>
          </Trackpoint>
          <Trackpoint>
            <Time>2022-08-22T09:09:50.000Z</Time>
            <Position>
              <LatitudeDegrees>42.83121817745268344879150390625</LatitudeDegrees>
              <LongitudeDegrees>-0.28564788401126861572265625</LongitudeDegrees>
            </Position>
            <AltitudeMeters>2705.199951171875</AltitudeMeters>
            <DistanceMeters>NAN</DistanceMeters>
          </Trackpoint>
          <Trackpoint>
            <Time>2022-08-22T09:09:52.000Z</Time>
            <Position>
              <LatitudeDegrees>42.83121415413916110992431640625</LatitudeDegrees>
              <LongitudeDegrees>-0.2856420166790485382080078125</LongitudeDegrees>
            </Position>
            <AltitudeMeters>2705</AltitudeMeters>
            <DistanceMeters>NAN</DistanceMeters>
          </Trackpoint>
          <Trackpoint>
            <Time>2022-08-22T09:09:53.000Z</Time>
            <Position>
              <LatitudeDegrees>42.83120803534984588623046875</LatitudeDegrees>
              <LongitudeDegrees>-0.2856356464326381683349609375</LongitudeDegrees>
            </Position>
            <AltitudeMeters>2704.60009765625</AltitudeMeters>
            <DistanceMeters>NAN</DistanceMeters>
          </Trackpoint>
          <Trackpoint>
            <Time>2022-08-22T09:09:56.000Z</Time>
            <Position>
              <LatitudeDegrees>42.83120677806437015533447265625</LatitudeDegrees>
              <LongitudeDegrees>-0.2856297791004180908203125</LongitudeDegrees>
            </Position>
            <AltitudeMeters>2704.39990234375</AltitudeMeters>
            <DistanceMeters>NAN</DistanceMeters>
          </Trackpoint>
          <Trackpoint>
            <Time>2022-08-22T09:09:59.000Z</Time>
            <Position>
              <LatitudeDegrees>42.83119537867605686187744140625</LatitudeDegrees>
              <LongitudeDegrees>-0.2855940721929073333740234375</LongitudeDegrees>
            </Position>
            <AltitudeMeters>2703.39990234375</AltitudeMeters>
            <DistanceMeters>NAN</DistanceMeters>
          </Trackpoint>
          <Trackpoint>
            <Time>2022-08-22T09:10:02.000Z</Time>
            <Position>
              <LatitudeDegrees>42.83118791878223419189453125</LatitudeDegrees>
              <LongitudeDegrees>-0.2855659089982509613037109375</LongitudeDegrees>
            </Position>
            <AltitudeMeters>2702.39990234375</AltitudeMeters>
            <DistanceMeters>NAN</DistanceMeters>
          </Trackpoint>
          <Trackpoint>
            <Time>2022-08-22T09:10:03.000Z</Time>
            <Position>
              <LatitudeDegrees>42.83118582330644130706787109375</LatitudeDegrees>
              <LongitudeDegrees>-0.285563059151172637939453125</LongitudeDegrees>
            </Position>
            <AltitudeMeters>2702.39990234375</AltitudeMeters>
            <DistanceMeters>NAN</DistanceMeters>
          </Trackpoint>
          <Trackpoint>
            <Time>2022-08-22T09:10:04.000Z</Time>
            <Position>
              <LatitudeDegrees>42.83118364401161670684814453125</LatitudeDegrees>
              <LongitudeDegrees>-0.28556264005601406097412109375</LongitudeDegrees>
            </Position>
            <AltitudeMeters>2702.39990234375</AltitudeMeters>
            <DistanceMeters>NAN</DistanceMeters>
          </Trackpoint>
          <Trackpoint>
            <Time>2022-08-22T09:10:09.000Z</Time>
            <Position>
              <LatitudeDegrees>42.83115564845502376556396484375</LatitudeDegrees>
              <LongitudeDegrees>-0.285556018352508544921875</LongitudeDegrees>
            </Position>
            <AltitudeMeters>2701.60009765625</AltitudeMeters>
            <DistanceMeters>NAN</DistanceMeters>
          </Trackpoint>
          <Trackpoint>
            <Time>2022-08-22T09:10:12.000Z</Time>
            <Position>
              <LatitudeDegrees>42.83113905228674411773681640625</LatitudeDegrees>
              <LongitudeDegrees>-0.2855340577661991119384765625</LongitudeDegrees>
            </Position>
            <AltitudeMeters>2700.60009765625</AltitudeMeters>
            <DistanceMeters>NAN</DistanceMeters>
          </Trackpoint>
          <Trackpoint>
            <Time>2022-08-22T09:10:13.000Z</Time>
            <Position>
              <LatitudeDegrees>42.83113536424934864044189453125</LatitudeDegrees>
              <LongitudeDegrees>-0.28552156873047351837158203125</LongitudeDegrees>
            </Position>
            <AltitudeMeters>2700.199951171875</AltitudeMeters>
            <DistanceMeters>NAN</DistanceMeters>
          </Trackpoint>
          <Trackpoint>
            <Time>2022-08-22T09:10:14.000Z</Time>
            <Position>
              <LatitudeDegrees>42.83113067038357257843017578125</LatitudeDegrees>
              <LongitudeDegrees>-0.2855085767805576324462890625</LongitudeDegrees>
            </Position>
            <AltitudeMeters>2699.60009765625</AltitudeMeters>
            <DistanceMeters>NAN</DistanceMeters>
          </Trackpoint>
          <Trackpoint>
            <Time>2022-08-22T09:10:15.000Z</Time>
            <Position>
              <LatitudeDegrees>42.8311223722994327545166015625</LatitudeDegrees>
              <LongitudeDegrees>-0.2854998596012592315673828125</LongitudeDegrees>
            </Position>
            <AltitudeMeters>2699</AltitudeMeters>
            <DistanceMeters>NAN</DistanceMeters>
          </Trackpoint>
          <Trackpoint>
            <Time>2022-08-22T09:10:16.000Z</Time>
            <Position>
              <LatitudeDegrees>42.83110208809375762939453125</LatitudeDegrees>
              <LongitudeDegrees>-0.28548385016620159149169921875</LongitudeDegrees>
            </Position>
            <AltitudeMeters>2698.199951171875</AltitudeMeters>
            <DistanceMeters>NAN</DistanceMeters>
          </Trackpoint>
          <Trackpoint>
            <Time>2022-08-22T09:10:17.000Z</Time>
            <Position>
              <LatitudeDegrees>42.83110208809375762939453125</LatitudeDegrees>
              <LongitudeDegrees>-0.28548385016620159149169921875</LongitudeDegrees>
            </Position>
            <AltitudeMeters>2698.199951171875</AltitudeMeters>
            <DistanceMeters>NAN</DistanceMeters>
          </Trackpoint>
          <Trackpoint>
            <Time>2022-08-22T09:10:18.000Z</Time>
            <Position>
              <LatitudeDegrees>42.83109563402831554412841796875</LatitudeDegrees>
              <LongitudeDegrees>-0.285475216805934906005859375</LongitudeDegrees>
            </Position>
            <AltitudeMeters>2697.800048828125</AltitudeMeters>
            <DistanceMeters>NAN</DistanceMeters>
          </Trackpoint>
          <Trackpoint>
            <Time>2022-08-22T09:10:20.000Z</Time>
            <Position>
              <LatitudeDegrees>42.8310828097164630889892578125</LatitudeDegrees>
              <LongitudeDegrees>-0.28545853681862354278564453125</LongitudeDegrees>
            </Position>
            <AltitudeMeters>2697</AltitudeMeters>
            <DistanceMeters>NAN</DistanceMeters>
          </Trackpoint>
          <Trackpoint>
            <Time>2022-08-22T09:10:27.000Z</Time>
            <Position>
              <LatitudeDegrees>42.831041403114795684814453125</LatitudeDegrees>
              <LongitudeDegrees>-0.285400450229644775390625</LongitudeDegrees>
            </Position>
            <AltitudeMeters>2694.60009765625</AltitudeMeters>
            <DistanceMeters>NAN</DistanceMeters>
          </Trackpoint>
          <Trackpoint>
            <Time>2022-08-22T09:10:32.000Z</Time>
            <Position>
              <LatitudeDegrees>42.83098482526838779449462890625</LatitudeDegrees>
              <LongitudeDegrees>-0.28542668558657169342041015625</LongitudeDegrees>
            </Position>
            <AltitudeMeters>2693.800048828125</AltitudeMeters>
            <DistanceMeters>NAN</DistanceMeters>
          </Trackpoint>
          <Trackpoint>
            <Time>2022-08-22T09:10:40.000Z</Time>
            <Position>
              <LatitudeDegrees>42.83090896904468536376953125</LatitudeDegrees>
              <LongitudeDegrees>-0.2853892184793949127197265625</LongitudeDegrees>
            </Position>
            <AltitudeMeters>2691.199951171875</AltitudeMeters>
            <DistanceMeters>NAN</DistanceMeters>
          </Trackpoint>
          <Trackpoint>
            <Time>2022-08-22T09:10:42.000Z</Time>
            <Position>
              <LatitudeDegrees>42.8308896906673908233642578125</LatitudeDegrees>
              <LongitudeDegrees>-0.2853875420987606048583984375</LongitudeDegrees>
            </Position>
            <AltitudeMeters>2690.60009765625</AltitudeMeters>
            <DistanceMeters>NAN</DistanceMeters>
          </Trackpoint>
          <Trackpoint>
            <Time>2022-08-22T09:10:43.000Z</Time>
            <Position>
              <LatitudeDegrees>42.83087007701396942138671875</LatitudeDegrees>
              <LongitudeDegrees>-0.28539114631712436676025390625</LongitudeDegrees>
            </Position>
            <AltitudeMeters>2690.199951171875</AltitudeMeters>
            <DistanceMeters>NAN</DistanceMeters>
          </Trackpoint>
          <Trackpoint>
            <Time>2022-08-22T09:10:44.000Z</Time>
            <Position>
              <LatitudeDegrees>42.83087007701396942138671875</LatitudeDegrees>
              <LongitudeDegrees>-0.28539114631712436676025390625</LongitudeDegrees>
            </Position>
            <AltitudeMeters>2690.199951171875</AltitudeMeters>
            <DistanceMeters>NAN</DistanceMeters>
          </Trackpoint>
          <Trackpoint>
            <Time>2022-08-22T09:10:53.000Z</Time>
            <Position>
              <LatitudeDegrees>42.8308202885091304779052734375</LatitudeDegrees>
              <LongitudeDegrees>-0.28537354432046413421630859375</LongitudeDegrees>
            </Position>
            <AltitudeMeters>2688.39990234375</AltitudeMeters>
            <DistanceMeters>NAN</DistanceMeters>
          </Trackpoint>
          <Trackpoint>
            <Time>2022-08-22T09:11:00.000Z</Time>
            <Position>
              <LatitudeDegrees>42.83078290522098541259765625</LatitudeDegrees>
              <LongitudeDegrees>-0.2853992767632007598876953125</LongitudeDegrees>
            </Position>
            <AltitudeMeters>2687.800048828125</AltitudeMeters>
            <DistanceMeters>NAN</DistanceMeters>
          </Trackpoint>
          <Trackpoint>
            <Time>2022-08-22T09:11:07.000Z</Time>
            <Position>
              <LatitudeDegrees>42.83077443949878215789794921875</LatitudeDegrees>
              <LongitudeDegrees>-0.28532803058624267578125</LongitudeDegrees>
            </Position>
            <AltitudeMeters>2685.800048828125</AltitudeMeters>
            <DistanceMeters>NAN</DistanceMeters>
          </Trackpoint>
          <Trackpoint>
            <Time>2022-08-22T09:11:13.000Z</Time>
            <Position>
              <LatitudeDegrees>42.83071811310946941375732421875</LatitudeDegrees>
              <LongitudeDegrees>-0.285310260951519012451171875</LongitudeDegrees>
            </Position>
            <AltitudeMeters>2683.199951171875</AltitudeMeters>
            <DistanceMeters>NAN</DistanceMeters>
          </Trackpoint>
          <Trackpoint>
            <Time>2022-08-22T09:11:14.000Z</Time>
            <Position>
              <LatitudeDegrees>42.830690704286098480224609375</LatitudeDegrees>
              <LongitudeDegrees>-0.2853171341121196746826171875</LongitudeDegrees>
            </Position>
            <AltitudeMeters>2682.39990234375</AltitudeMeters>
            <DistanceMeters>NAN</DistanceMeters>
          </Trackpoint>
          <Trackpoint>
            <Time>2022-08-22T09:11:16.000Z</Time>
            <Position>
              <LatitudeDegrees>42.8306828252971172332763671875</LatitudeDegrees>
              <LongitudeDegrees>-0.28531663119792938232421875</LongitudeDegrees>
            </Position>
            <AltitudeMeters>2682.199951171875</AltitudeMeters>
            <DistanceMeters>NAN</DistanceMeters>
          </Trackpoint>
          <Trackpoint>
            <Time>2022-08-22T09:11:17.000Z</Time>
            <Position>
              <LatitudeDegrees>42.83067318610846996307373046875</LatitudeDegrees>
              <LongitudeDegrees>-0.2853159606456756591796875</LongitudeDegrees>
            </Position>
            <AltitudeMeters>2681.800048828125</AltitudeMeters>
            <DistanceMeters>NAN</DistanceMeters>
          </Trackpoint>
          <Trackpoint>
            <Time>2022-08-22T09:11:18.000Z</Time>
            <Position>
              <LatitudeDegrees>42.83065441064536571502685546875</LatitudeDegrees>
              <LongitudeDegrees>-0.28531034477055072784423828125</LongitudeDegrees>
            </Position>
            <AltitudeMeters>2681</AltitudeMeters>
            <DistanceMeters>NAN</DistanceMeters>
          </Trackpoint>
          <Trackpoint>
            <Time>2022-08-22T09:11:19.000Z</Time>
            <Position>
              <LatitudeDegrees>42.83065441064536571502685546875</LatitudeDegrees>
              <LongitudeDegrees>-0.28531034477055072784423828125</LongitudeDegrees>
            </Position>
            <AltitudeMeters>2681</AltitudeMeters>
            <DistanceMeters>NAN</DistanceMeters>
          </Trackpoint>
          <Trackpoint>
            <Time>2022-08-22T09:11:26.000Z</Time>
            <Position>
              <LatitudeDegrees>42.8305695019662380218505859375</LatitudeDegrees>
              <LongitudeDegrees>-0.28528511524200439453125</LongitudeDegrees>
            </Position>
            <AltitudeMeters>2677</AltitudeMeters>
            <DistanceMeters>NAN</DistanceMeters>
          </Trackpoint>
          <Trackpoint>
            <Time>2022-08-22T09:11:42.000Z</Time>
            <Position>
              <LatitudeDegrees>42.83038736321032047271728515625</LatitudeDegrees>
              <LongitudeDegrees>-0.2853040583431720733642578125</LongitudeDegrees>
            </Position>
            <AltitudeMeters>2671.39990234375</AltitudeMeters>
            <DistanceMeters>NAN</DistanceMeters>
          </Trackpoint>
          <Trackpoint>
            <Time>2022-08-22T09:11:45.000Z</Time>
            <Position>
              <LatitudeDegrees>42.8303566016256809234619140625</LatitudeDegrees>
              <LongitudeDegrees>-0.28532777912914752960205078125</LongitudeDegrees>
            </Position>
            <AltitudeMeters>2670.800048828125</AltitudeMeters>
            <DistanceMeters>NAN</DistanceMeters>
          </Trackpoint>
          <Trackpoint>
            <Time>2022-08-22T09:11:50.000Z</Time>
            <Position>
              <LatitudeDegrees>42.83031058497726917266845703125</LatitudeDegrees>
              <LongitudeDegrees>-0.28535476885735988616943359375</LongitudeDegrees>
            </Position>
            <AltitudeMeters>2669.39990234375</AltitudeMeters>
            <DistanceMeters>NAN</DistanceMeters>
          </Trackpoint>
          <Trackpoint>
            <Time>2022-08-22T09:11:54.000Z</Time>
            <Position>
              <LatitudeDegrees>42.8302808292210102081298828125</LatitudeDegrees>
              <LongitudeDegrees>-0.28536482714116573333740234375</LongitudeDegrees>
            </Position>
            <AltitudeMeters>2668.39990234375</AltitudeMeters>
            <DistanceMeters>NAN</DistanceMeters>
          </Trackpoint>
          <Trackpoint>
            <Time>2022-08-22T09:11:55.000Z</Time>
            <Position>
              <LatitudeDegrees>42.830259539186954498291015625</LatitudeDegrees>
              <LongitudeDegrees>-0.2853535115718841552734375</LongitudeDegrees>
            </Position>
            <AltitudeMeters>2667.199951171875</AltitudeMeters>
            <DistanceMeters>NAN</DistanceMeters>
          </Trackpoint>
          <Trackpoint>
            <Time>2022-08-22T09:12:02.000Z</Time>
            <Position>
              <LatitudeDegrees>42.83021586947143077850341796875</LatitudeDegrees>
              <LongitudeDegrees>-0.2853550203144550323486328125</LongitudeDegrees>
            </Position>
            <AltitudeMeters>2665.39990234375</AltitudeMeters>
            <DistanceMeters>NAN</DistanceMeters>
          </Trackpoint>
          <Trackpoint>
            <Time>2022-08-22T09:12:03.000Z</Time>
            <Position>
              <LatitudeDegrees>42.830209918320178985595703125</LatitudeDegrees>
              <LongitudeDegrees>-0.28535309247672557830810546875</LongitudeDegrees>
            </Position>
            <AltitudeMeters>2665.199951171875</AltitudeMeters>
            <DistanceMeters>NAN</DistanceMeters>
          </Trackpoint>
          <Trackpoint>
            <Time>2022-08-22T09:12:11.000Z</Time>
            <Position>
              <LatitudeDegrees>42.83016071654856204986572265625</LatitudeDegrees>
              <LongitudeDegrees>-0.28531872667372226715087890625</LongitudeDegrees>
            </Position>
            <AltitudeMeters>2663</AltitudeMeters>
            <DistanceMeters>NAN</DistanceMeters>
          </Trackpoint>
          <Trackpoint>
            <Time>2022-08-22T09:12:16.000Z</Time>
            <Position>
              <LatitudeDegrees>42.8301483951508998870849609375</LatitudeDegrees>
              <LongitudeDegrees>-0.28524831868708133697509765625</LongitudeDegrees>
            </Position>
            <AltitudeMeters>2661.39990234375</AltitudeMeters>
            <DistanceMeters>NAN</DistanceMeters>
          </Trackpoint>
          <Trackpoint>
            <Time>2022-08-22T09:12:17.000Z</Time>
            <Position>
              <LatitudeDegrees>42.8301343135535717010498046875</LatitudeDegrees>
              <LongitudeDegrees>-0.28522987850010395050048828125</LongitudeDegrees>
            </Position>
            <AltitudeMeters>2660.800048828125</AltitudeMeters>
            <DistanceMeters>NAN</DistanceMeters>
          </Trackpoint>
          <Trackpoint>
            <Time>2022-08-22T09:12:19.000Z</Time>
            <Position>
              <LatitudeDegrees>42.83012576401233673095703125</LatitudeDegrees>
              <LongitudeDegrees>-0.28522434644401073455810546875</LongitudeDegrees>
            </Position>
            <AltitudeMeters>2660.39990234375</AltitudeMeters>
            <DistanceMeters>NAN</DistanceMeters>
          </Trackpoint>
          <Trackpoint>
            <Time>2022-08-22T09:12:21.000Z</Time>
            <Position>
              <LatitudeDegrees>42.83012467436492443084716796875</LatitudeDegrees>
              <LongitudeDegrees>-0.2852044813334941864013671875</LongitudeDegrees>
            </Position>
            <AltitudeMeters>2659.800048828125</AltitudeMeters>
            <DistanceMeters>NAN</DistanceMeters>
          </Trackpoint>
          <Trackpoint>
            <Time>2022-08-22T09:12:24.000Z</Time>
            <Position>
              <LatitudeDegrees>42.83013406209647655487060546875</LatitudeDegrees>
              <LongitudeDegrees>-0.28516500256955623626708984375</LongitudeDegrees>
            </Position>
            <AltitudeMeters>2659.39990234375</AltitudeMeters>
            <DistanceMeters>NAN</DistanceMeters>
          </Trackpoint>
          <Trackpoint>
            <Time>2022-08-22T09:12:25.000Z</Time>
            <Position>
              <LatitudeDegrees>42.83013707958161830902099609375</LatitudeDegrees>
              <LongitudeDegrees>-0.28514773584902286529541015625</LongitudeDegrees>
            </Position>
            <AltitudeMeters>2659.199951171875</AltitudeMeters>
            <DistanceMeters>NAN</DistanceMeters>
          </Trackpoint>
          <Trackpoint>
            <Time>2022-08-22T09:12:36.000Z</Time>
            <Position>
              <LatitudeDegrees>42.83005627803504467010498046875</LatitudeDegrees>
              <LongitudeDegrees>-0.28510398231446743011474609375</LongitudeDegrees>
            </Position>
            <AltitudeMeters>2656</AltitudeMeters>
            <DistanceMeters>NAN</DistanceMeters>
          </Trackpoint>
          <Trackpoint>
            <Time>2022-08-22T09:12:52.000Z</Time>
            <Position>
              <LatitudeDegrees>42.8298761509358882904052734375</LatitudeDegrees>
              <LongitudeDegrees>-0.28504933230578899383544921875</LongitudeDegrees>
            </Position>
            <AltitudeMeters>2649.60009765625</AltitudeMeters>
            <DistanceMeters>NAN</DistanceMeters>
          </Trackpoint>
          <Trackpoint>
            <Time>2022-08-22T09:12:59.000Z</Time>
            <Position>
              <LatitudeDegrees>42.82981504686176776885986328125</LatitudeDegrees>
              <LongitudeDegrees>-0.28497406281530857086181640625</LongitudeDegrees>
            </Position>
            <AltitudeMeters>2647.199951171875</AltitudeMeters>
            <DistanceMeters>NAN</DistanceMeters>
          </Trackpoint>
          <Trackpoint>
            <Time>2022-08-22T09:13:02.000Z</Time>
            <Position>
              <LatitudeDegrees>42.829788140952587127685546875</LatitudeDegrees>
              <LongitudeDegrees>-0.28493483550846576690673828125</LongitudeDegrees>
            </Position>
            <AltitudeMeters>2646</AltitudeMeters>
            <DistanceMeters>NAN</DistanceMeters>
          </Trackpoint>
          <Trackpoint>
            <Time>2022-08-22T09:13:03.000Z</Time>
            <Position>
              <LatitudeDegrees>42.8297668509185314178466796875</LatitudeDegrees>
              <LongitudeDegrees>-0.2849124558269977569580078125</LongitudeDegrees>
            </Position>
            <AltitudeMeters>2644.800048828125</AltitudeMeters>
            <DistanceMeters>NAN</DistanceMeters>
          </Trackpoint>
          <Trackpoint>
            <Time>2022-08-22T09:13:04.000Z</Time>
            <Position>
              <LatitudeDegrees>42.8297668509185314178466796875</LatitudeDegrees>
              <LongitudeDegrees>-0.2849124558269977569580078125</LongitudeDegrees>
            </Position>
            <AltitudeMeters>2644.800048828125</AltitudeMeters>
            <DistanceMeters>NAN</DistanceMeters>
          </Trackpoint>
          <Trackpoint>
            <Time>2022-08-22T09:13:06.000Z</Time>
            <Position>
              <LatitudeDegrees>42.82974212430417537689208984375</LatitudeDegrees>
              <LongitudeDegrees>-0.284887142479419708251953125</LongitudeDegrees>
            </Position>
            <AltitudeMeters>2643.199951171875</AltitudeMeters>
            <DistanceMeters>NAN</DistanceMeters>
          </Trackpoint>
          <Trackpoint>
            <Time>2022-08-22T09:13:07.000Z</Time>
            <Position>
              <LatitudeDegrees>42.8297296352684497833251953125</LatitudeDegrees>
              <LongitudeDegrees>-0.28487733565270900726318359375</LongitudeDegrees>
            </Position>
            <AltitudeMeters>2642.60009765625</AltitudeMeters>
            <DistanceMeters>NAN</DistanceMeters>
          </Trackpoint>
          <Trackpoint>
            <Time>2022-08-22T09:13:11.000Z</Time>
            <Position>
              <LatitudeDegrees>42.8296716324985027313232421875</LatitudeDegrees>
              <LongitudeDegrees>-0.2848423831164836883544921875</LongitudeDegrees>
            </Position>
            <AltitudeMeters>2639.800048828125</AltitudeMeters>
            <DistanceMeters>NAN</DistanceMeters>
          </Trackpoint>
          <Trackpoint>
            <Time>2022-08-22T09:13:12.000Z</Time>
            <Position>
              <LatitudeDegrees>42.8296528570353984832763671875</LatitudeDegrees>
              <LongitudeDegrees>-0.28483944945037364959716796875</LongitudeDegrees>
            </Position>
            <AltitudeMeters>2639</AltitudeMeters>
            <DistanceMeters>NAN</DistanceMeters>
          </Trackpoint>
          <Trackpoint>
            <Time>2022-08-22T09:13:13.000Z</Time>
            <Position>
              <LatitudeDegrees>42.82963634468615055084228515625</LatitudeDegrees>
              <LongitudeDegrees>-0.284840874373912811279296875</LongitudeDegrees>
            </Position>
            <AltitudeMeters>2638.39990234375</AltitudeMeters>
            <DistanceMeters>NAN</DistanceMeters>
          </Trackpoint>
          <Trackpoint>
            <Time>2022-08-22T09:13:16.000Z</Time>
            <Position>
              <LatitudeDegrees>42.82959041185677051544189453125</LatitudeDegrees>
              <LongitudeDegrees>-0.28485529124736785888671875</LongitudeDegrees>
            </Position>
            <AltitudeMeters>2637.199951171875</AltitudeMeters>
            <DistanceMeters>NAN</DistanceMeters>
          </Trackpoint>
          <Trackpoint>
            <Time>2022-08-22T09:13:24.000Z</Time>
            <Position>
              <LatitudeDegrees>42.8295127116143703460693359375</LatitudeDegrees>
              <LongitudeDegrees>-0.28492460958659648895263671875</LongitudeDegrees>
            </Position>
            <AltitudeMeters>2635.60009765625</AltitudeMeters>
            <DistanceMeters>NAN</DistanceMeters>
          </Trackpoint>
          <Trackpoint>
            <Time>2022-08-22T09:13:25.000Z</Time>
            <Position>
              <LatitudeDegrees>42.82950726337730884552001953125</LatitudeDegrees>
              <LongitudeDegrees>-0.2849245257675647735595703125</LongitudeDegrees>
            </Position>
            <AltitudeMeters>2635.39990234375</AltitudeMeters>
            <DistanceMeters>NAN</DistanceMeters>
          </Trackpoint>
          <Trackpoint>
            <Time>2022-08-22T09:13:26.000Z</Time>
            <Position>
              <LatitudeDegrees>42.82950240187346935272216796875</LatitudeDegrees>
              <LongitudeDegrees>-0.28492092154920101165771484375</LongitudeDegrees>
            </Position>
            <AltitudeMeters>2635</AltitudeMeters>
            <DistanceMeters>NAN</DistanceMeters>
          </Trackpoint>
          <Trackpoint>
            <Time>2022-08-22T09:13:27.000Z</Time>
            <Position>
              <LatitudeDegrees>42.829493097960948944091796875</LatitudeDegrees>
              <LongitudeDegrees>-0.28491991572082042694091796875</LongitudeDegrees>
            </Position>
            <AltitudeMeters>2634.60009765625</AltitudeMeters>
            <DistanceMeters>NAN</DistanceMeters>
          </Trackpoint>
          <Trackpoint>
            <Time>2022-08-22T09:13:29.000Z</Time>
            <Position>
              <LatitudeDegrees>42.82947591505944728851318359375</LatitudeDegrees>
              <LongitudeDegrees>-0.28492947109043598175048828125</LongitudeDegrees>
            </Position>
            <AltitudeMeters>2634</AltitudeMeters>
            <DistanceMeters>NAN</DistanceMeters>
          </Trackpoint>
          <Trackpoint>
            <Time>2022-08-22T09:13:32.000Z</Time>
            <Position>
              <LatitudeDegrees>42.8294590674340724945068359375</LatitudeDegrees>
              <LongitudeDegrees>-0.284949839115142822265625</LongitudeDegrees>
            </Position>
            <AltitudeMeters>2633.60009765625</AltitudeMeters>
            <DistanceMeters>NAN</DistanceMeters>
          </Trackpoint>
          <Trackpoint>
            <Time>2022-08-22T09:13:34.000Z</Time>
            <Position>
              <LatitudeDegrees>42.8294433094561100006103515625</LatitudeDegrees>
              <LongitudeDegrees>-0.28494455851614475250244140625</LongitudeDegrees>
            </Position>
            <AltitudeMeters>2632.800048828125</AltitudeMeters>
            <DistanceMeters>NAN</DistanceMeters>
          </Trackpoint>
          <Trackpoint>
            <Time>2022-08-22T09:13:39.000Z</Time>
            <Position>
              <LatitudeDegrees>42.82939410768449306488037109375</LatitudeDegrees>
              <LongitudeDegrees>-0.284932069480419158935546875</LongitudeDegrees>
            </Position>
            <AltitudeMeters>2630.199951171875</AltitudeMeters>
            <DistanceMeters>NAN</DistanceMeters>
          </Trackpoint>
          <Trackpoint>
            <Time>2022-08-22T09:13:44.000Z</Time>
            <Position>
              <LatitudeDegrees>42.829365693032741546630859375</LatitudeDegrees>
              <LongitudeDegrees>-0.28496685437858104705810546875</LongitudeDegrees>
            </Position>
            <AltitudeMeters>2629.39990234375</AltitudeMeters>
            <DistanceMeters>NAN</DistanceMeters>
          </Trackpoint>
          <Trackpoint>
            <Time>2022-08-22T09:14:01.000Z</Time>
            <Position>
              <LatitudeDegrees>42.829198725521564483642578125</LatitudeDegrees>
              <LongitudeDegrees>-0.285005159676074981689453125</LongitudeDegrees>
            </Position>
            <AltitudeMeters>2622</AltitudeMeters>
            <DistanceMeters>NAN</DistanceMeters>
          </Trackpoint>
          <Trackpoint>
            <Time>2022-08-22T09:14:03.000Z</Time>
            <Position>
              <LatitudeDegrees>42.8291868232190608978271484375</LatitudeDegrees>
              <LongitudeDegrees>-0.28498495928943157196044921875</LongitudeDegrees>
            </Position>
            <AltitudeMeters>2620.800048828125</AltitudeMeters>
            <DistanceMeters>NAN</DistanceMeters>
          </Trackpoint>
          <Trackpoint>
            <Time>2022-08-22T09:14:05.000Z</Time>
            <Position>
              <LatitudeDegrees>42.82916150987148284912109375</LatitudeDegrees>
              <LongitudeDegrees>-0.28497464954853057861328125</LongitudeDegrees>
            </Position>
            <AltitudeMeters>2619</AltitudeMeters>
            <DistanceMeters>NAN</DistanceMeters>
          </Trackpoint>
          <Trackpoint>
            <Time>2022-08-22T09:14:09.000Z</Time>
            <Position>
              <LatitudeDegrees>42.82912722788751125335693359375</LatitudeDegrees>
              <LongitudeDegrees>-0.28498462401330471038818359375</LongitudeDegrees>
            </Position>
            <AltitudeMeters>2617.199951171875</AltitudeMeters>
            <DistanceMeters>NAN</DistanceMeters>
          </Trackpoint>
          <Trackpoint>
            <Time>2022-08-22T09:14:18.000Z</Time>
            <Position>
              <LatitudeDegrees>42.8291274793446063995361328125</LatitudeDegrees>
              <LongitudeDegrees>-0.28488035313785076141357421875</LongitudeDegrees>
            </Position>
            <AltitudeMeters>2615</AltitudeMeters>
            <DistanceMeters>NAN</DistanceMeters>
          </Trackpoint>
          <Trackpoint>
            <Time>2022-08-22T09:14:23.000Z</Time>
            <Position>
              <LatitudeDegrees>42.82908012159168720245361328125</LatitudeDegrees>
              <LongitudeDegrees>-0.28490952216088771820068359375</LongitudeDegrees>
            </Position>
            <AltitudeMeters>2612.60009765625</AltitudeMeters>
            <DistanceMeters>NAN</DistanceMeters>
          </Trackpoint>
          <Trackpoint>
            <Time>2022-08-22T09:14:27.000Z</Time>
            <Position>
              <LatitudeDegrees>42.82907157205045223236083984375</LatitudeDegrees>
              <LongitudeDegrees>-0.28493852354586124420166015625</LongitudeDegrees>
            </Position>
            <AltitudeMeters>2612.60009765625</AltitudeMeters>
            <DistanceMeters>NAN</DistanceMeters>
          </Trackpoint>
          <Trackpoint>
            <Time>2022-08-22T09:14:50.000Z</Time>
            <Position>
              <LatitudeDegrees>42.8289248049259185791015625</LatitudeDegrees>
              <LongitudeDegrees>-0.2850210852921009063720703125</LongitudeDegrees>
            </Position>
            <AltitudeMeters>2607.60009765625</AltitudeMeters>
            <DistanceMeters>NAN</DistanceMeters>
          </Trackpoint>
          <Trackpoint>
            <Time>2022-08-22T09:15:05.000Z</Time>
            <Position>
              <LatitudeDegrees>42.82875289209187030792236328125</LatitudeDegrees>
              <LongitudeDegrees>-0.28503206558525562286376953125</LongitudeDegrees>
            </Position>
            <AltitudeMeters>2599.60009765625</AltitudeMeters>
            <DistanceMeters>NAN</DistanceMeters>
          </Trackpoint>
          <Trackpoint>
            <Time>2022-08-22T09:15:09.000Z</Time>
            <Position>
              <LatitudeDegrees>42.82866890542209148406982421875</LatitudeDegrees>
              <LongitudeDegrees>-0.285054780542850494384765625</LongitudeDegrees>
            </Position>
            <AltitudeMeters>2597.60009765625</AltitudeMeters>
            <DistanceMeters>NAN</DistanceMeters>
          </Trackpoint>
          <Trackpoint>
            <Time>2022-08-22T09:15:18.000Z</Time>
            <Position>
              <LatitudeDegrees>42.8285685740411281585693359375</LatitudeDegrees>
              <LongitudeDegrees>-0.285056792199611663818359375</LongitudeDegrees>
            </Position>
            <AltitudeMeters>2596</AltitudeMeters>
            <DistanceMeters>NAN</DistanceMeters>
          </Trackpoint>
          <Trackpoint>
            <Time>2022-08-22T09:15:26.000Z</Time>
            <Position>
              <LatitudeDegrees>42.82847578637301921844482421875</LatitudeDegrees>
              <LongitudeDegrees>-0.2850799262523651123046875</LongitudeDegrees>
            </Position>
            <AltitudeMeters>2596.39990234375</AltitudeMeters>
            <DistanceMeters>NAN</DistanceMeters>
          </Trackpoint>
          <Trackpoint>
            <Time>2022-08-22T09:15:41.000Z</Time>
            <Position>
              <LatitudeDegrees>42.82832105644047260284423828125</LatitudeDegrees>
              <LongitudeDegrees>-0.28520666062831878662109375</LongitudeDegrees>
            </Position>
            <AltitudeMeters>2599.199951171875</AltitudeMeters>
            <DistanceMeters>NAN</DistanceMeters>
          </Trackpoint>
          <Trackpoint>
            <Time>2022-08-22T09:15:43.000Z</Time>
            <Position>
              <LatitudeDegrees>42.828302197158336639404296875</LatitudeDegrees>
              <LongitudeDegrees>-0.2852175571024417877197265625</LongitudeDegrees>
            </Position>
            <AltitudeMeters>2599.39990234375</AltitudeMeters>
            <DistanceMeters>NAN</DistanceMeters>
          </Trackpoint>
          <Trackpoint>
            <Time>2022-08-22T09:15:46.000Z</Time>
            <Position>
              <LatitudeDegrees>42.82826942391693592071533203125</LatitudeDegrees>
              <LongitudeDegrees>-0.28519299812614917755126953125</LongitudeDegrees>
            </Position>
            <AltitudeMeters>2597.60009765625</AltitudeMeters>
            <DistanceMeters>NAN</DistanceMeters>
          </Trackpoint>
          <Trackpoint>
            <Time>2022-08-22T09:15:47.000Z</Time>
            <Position>
              <LatitudeDegrees>42.8282584436237812042236328125</LatitudeDegrees>
              <LongitudeDegrees>-0.28518847189843654632568359375</LongitudeDegrees>
            </Position>
            <AltitudeMeters>2597.199951171875</AltitudeMeters>
            <DistanceMeters>NAN</DistanceMeters>
          </Trackpoint>
          <Trackpoint>
            <Time>2022-08-22T09:15:48.000Z</Time>
            <Position>
              <LatitudeDegrees>42.82823212444782257080078125</LatitudeDegrees>
              <LongitudeDegrees>-0.285203643143177032470703125</LongitudeDegrees>
            </Position>
            <AltitudeMeters>2597.199951171875</AltitudeMeters>
            <DistanceMeters>NAN</DistanceMeters>
          </Trackpoint>
          <Trackpoint>
            <Time>2022-08-22T09:15:50.000Z</Time>
            <Position>
              <LatitudeDegrees>42.828218378126621246337890625</LatitudeDegrees>
              <LongitudeDegrees>-0.285218060016632080078125</LongitudeDegrees>
            </Position>
            <AltitudeMeters>2597.60009765625</AltitudeMeters>
            <DistanceMeters>NAN</DistanceMeters>
          </Trackpoint>
          <Trackpoint>
            <Time>2022-08-22T09:15:51.000Z</Time>
            <Position>
              <LatitudeDegrees>42.82819314859807491302490234375</LatitudeDegrees>
              <LongitudeDegrees>-0.28525359928607940673828125</LongitudeDegrees>
            </Position>
            <AltitudeMeters>2598.60009765625</AltitudeMeters>
            <DistanceMeters>NAN</DistanceMeters>
          </Trackpoint>
          <Trackpoint>
            <Time>2022-08-22T09:15:54.000Z</Time>
            <Position>
              <LatitudeDegrees>42.82817353494465351104736328125</LatitudeDegrees>
              <LongitudeDegrees>-0.2852718718349933624267578125</LongitudeDegrees>
            </Position>
            <AltitudeMeters>2599</AltitudeMeters>
            <DistanceMeters>NAN</DistanceMeters>
          </Trackpoint>
          <Trackpoint>
            <Time>2022-08-22T09:15:55.000Z</Time>
            <Position>
              <LatitudeDegrees>42.82816766761243343353271484375</LatitudeDegrees>
              <LongitudeDegrees>-0.285255946218967437744140625</LongitudeDegrees>
            </Position>
            <AltitudeMeters>2598</AltitudeMeters>
            <DistanceMeters>NAN</DistanceMeters>
          </Trackpoint>
          <Trackpoint>
            <Time>2022-08-22T09:15:57.000Z</Time>
            <Position>
              <LatitudeDegrees>42.8281602077186107635498046875</LatitudeDegrees>
              <LongitudeDegrees>-0.2852489054203033447265625</LongitudeDegrees>
            </Position>
            <AltitudeMeters>2597.60009765625</AltitudeMeters>
            <DistanceMeters>NAN</DistanceMeters>
          </Trackpoint>
          <Trackpoint>
            <Time>2022-08-22T09:15:58.000Z</Time>
            <Position>
              <LatitudeDegrees>42.82814855687320232391357421875</LatitudeDegrees>
              <LongitudeDegrees>-0.2852497436106204986572265625</LongitudeDegrees>
            </Position>
            <AltitudeMeters>2597.39990234375</AltitudeMeters>
            <DistanceMeters>NAN</DistanceMeters>
          </Trackpoint>
          <Trackpoint>
            <Time>2022-08-22T09:15:59.000Z</Time>
            <Position>
              <LatitudeDegrees>42.8281335532665252685546875</LatitudeDegrees>
              <LongitudeDegrees>-0.28525200672447681427001953125</LongitudeDegrees>
            </Position>
            <AltitudeMeters>2597.199951171875</AltitudeMeters>
            <DistanceMeters>NAN</DistanceMeters>
          </Trackpoint>
          <Trackpoint>
            <Time>2022-08-22T09:16:02.000Z</Time>
            <Position>
              <LatitudeDegrees>42.82809105701744556427001953125</LatitudeDegrees>
              <LongitudeDegrees>-0.2852698601782321929931640625</LongitudeDegrees>
            </Position>
            <AltitudeMeters>2597</AltitudeMeters>
            <DistanceMeters>NAN</DistanceMeters>
          </Trackpoint>
          <Trackpoint>
            <Time>2022-08-22T09:16:06.000Z</Time>
            <Position>
              <LatitudeDegrees>42.82805467955768108367919921875</LatitudeDegrees>
              <LongitudeDegrees>-0.285270698368549346923828125</LongitudeDegrees>
            </Position>
            <AltitudeMeters>2595.60009765625</AltitudeMeters>
            <DistanceMeters>NAN</DistanceMeters>
          </Trackpoint>
          <Trackpoint>
            <Time>2022-08-22T09:16:09.000Z</Time>
            <Position>
              <LatitudeDegrees>42.82802433706820011138916015625</LatitudeDegrees>
              <LongitudeDegrees>-0.28525628149509429931640625</LongitudeDegrees>
            </Position>
            <AltitudeMeters>2593.39990234375</AltitudeMeters>
            <DistanceMeters>NAN</DistanceMeters>
          </Trackpoint>
          <Trackpoint>
            <Time>2022-08-22T09:16:11.000Z</Time>
            <Position>
              <LatitudeDegrees>42.82799868844449520111083984375</LatitudeDegrees>
              <LongitudeDegrees>-0.2852435410022735595703125</LongitudeDegrees>
            </Position>
            <AltitudeMeters>2591.60009765625</AltitudeMeters>
            <DistanceMeters>NAN</DistanceMeters>
          </Trackpoint>
          <Trackpoint>
            <Time>2022-08-22T09:16:16.000Z</Time>
            <Position>
              <LatitudeDegrees>42.8279216587543487548828125</LatitudeDegrees>
              <LongitudeDegrees>-0.2852158807218074798583984375</LongitudeDegrees>
            </Position>
            <AltitudeMeters>2587</AltitudeMeters>
            <DistanceMeters>NAN</DistanceMeters>
          </Trackpoint>
          <Trackpoint>
            <Time>2022-08-22T09:16:21.000Z</Time>
            <Position>
              <LatitudeDegrees>42.82784244976937770843505859375</LatitudeDegrees>
              <LongitudeDegrees>-0.2851672656834125518798828125</LongitudeDegrees>
            </Position>
            <AltitudeMeters>2584.39990234375</AltitudeMeters>
            <DistanceMeters>NAN</DistanceMeters>
          </Trackpoint>
          <Trackpoint>
            <Time>2022-08-22T09:16:24.000Z</Time>
            <Position>
              <LatitudeDegrees>42.82781227491796016693115234375</LatitudeDegrees>
              <LongitudeDegrees>-0.285090319812297821044921875</LongitudeDegrees>
            </Position>
            <AltitudeMeters>2583.60009765625</AltitudeMeters>
            <DistanceMeters>NAN</DistanceMeters>
          </Trackpoint>
          <Trackpoint>
            <Time>2022-08-22T09:16:34.000Z</Time>
            <Position>
              <LatitudeDegrees>42.827636338770389556884765625</LatitudeDegrees>
              <LongitudeDegrees>-0.28501488268375396728515625</LongitudeDegrees>
            </Position>
            <AltitudeMeters>2579.60009765625</AltitudeMeters>
            <DistanceMeters>NAN</DistanceMeters>
          </Trackpoint>
          <Trackpoint>
            <Time>2022-08-22T09:16:49.000Z</Time>
            <Position>
              <LatitudeDegrees>42.82745872624218463897705078125</LatitudeDegrees>
              <LongitudeDegrees>-0.284942127764225006103515625</LongitudeDegrees>
            </Position>
            <AltitudeMeters>2573.199951171875</AltitudeMeters>
            <DistanceMeters>NAN</DistanceMeters>
          </Trackpoint>
          <Trackpoint>
            <Time>2022-08-22T09:16:50.000Z</Time>
            <Position>
              <LatitudeDegrees>42.82744347117841243743896484375</LatitudeDegrees>
              <LongitudeDegrees>-0.2849345840513706207275390625</LongitudeDegrees>
            </Position>
            <AltitudeMeters>2572.199951171875</AltitudeMeters>
            <DistanceMeters>NAN</DistanceMeters>
          </Trackpoint>
          <Trackpoint>
            <Time>2022-08-22T09:16:53.000Z</Time>
            <Position>
              <LatitudeDegrees>42.8274269588291645050048828125</LatitudeDegrees>
              <LongitudeDegrees>-0.28495092876255512237548828125</LongitudeDegrees>
            </Position>
            <AltitudeMeters>2572.60009765625</AltitudeMeters>
            <DistanceMeters>NAN</DistanceMeters>
          </Trackpoint>
          <Trackpoint>
            <Time>2022-08-22T09:17:00.000Z</Time>
            <Position>
              <LatitudeDegrees>42.827397286891937255859375</LatitudeDegrees>
              <LongitudeDegrees>-0.28499535284936428070068359375</LongitudeDegrees>
            </Position>
            <AltitudeMeters>2573.60009765625</AltitudeMeters>
            <DistanceMeters>NAN</DistanceMeters>
          </Trackpoint>
          <Trackpoint>
            <Time>2022-08-22T09:17:18.000Z</Time>
            <Position>
              <LatitudeDegrees>42.8272187523543834686279296875</LatitudeDegrees>
              <LongitudeDegrees>-0.2849914133548736572265625</LongitudeDegrees>
            </Position>
            <AltitudeMeters>2568.39990234375</AltitudeMeters>
            <DistanceMeters>NAN</DistanceMeters>
          </Trackpoint>
          <Trackpoint>
            <Time>2022-08-22T09:17:30.000Z</Time>
            <Position>
              <LatitudeDegrees>42.82710869796574115753173828125</LatitudeDegrees>
              <LongitudeDegrees>-0.28494204394519329071044921875</LongitudeDegrees>
            </Position>
            <AltitudeMeters>2564.60009765625</AltitudeMeters>
            <DistanceMeters>NAN</DistanceMeters>
          </Trackpoint>
          <Trackpoint>
            <Time>2022-08-22T09:17:33.000Z</Time>
            <Position>
              <LatitudeDegrees>42.827075421810150146484375</LatitudeDegrees>
              <LongitudeDegrees>-0.2849282138049602508544921875</LongitudeDegrees>
            </Position>
            <AltitudeMeters>2563.39990234375</AltitudeMeters>
            <DistanceMeters>NAN</DistanceMeters>
          </Trackpoint>
          <Trackpoint>
            <Time>2022-08-22T09:17:38.000Z</Time>
            <Position>
              <LatitudeDegrees>42.82704013399779796600341796875</LatitudeDegrees>
              <LongitudeDegrees>-0.28489795513451099395751953125</LongitudeDegrees>
            </Position>
            <AltitudeMeters>2561.60009765625</AltitudeMeters>
            <DistanceMeters>NAN</DistanceMeters>
          </Trackpoint>
          <Trackpoint>
            <Time>2022-08-22T09:17:42.000Z</Time>
            <Position>
              <LatitudeDegrees>42.82700509764254093170166015625</LatitudeDegrees>
              <LongitudeDegrees>-0.284838192164897918701171875</LongitudeDegrees>
            </Position>
            <AltitudeMeters>2559.199951171875</AltitudeMeters>
            <DistanceMeters>NAN</DistanceMeters>
          </Trackpoint>
          <Trackpoint>
            <Time>2022-08-22T09:17:44.000Z</Time>
            <Position>
              <LatitudeDegrees>42.8269914351403713226318359375</LatitudeDegrees>
              <LongitudeDegrees>-0.2848048321902751922607421875</LongitudeDegrees>
            </Position>
            <AltitudeMeters>2558</AltitudeMeters>
            <DistanceMeters>NAN</DistanceMeters>
          </Trackpoint>
          <Trackpoint>
            <Time>2022-08-22T09:17:53.000Z</Time>
            <Position>
              <LatitudeDegrees>42.82698229886591434478759765625</LatitudeDegrees>
              <LongitudeDegrees>-0.2846703864634037017822265625</LongitudeDegrees>
            </Position>
            <AltitudeMeters>2554</AltitudeMeters>
            <DistanceMeters>NAN</DistanceMeters>
          </Trackpoint>
          <Trackpoint>
            <Time>2022-08-22T09:18:07.000Z</Time>
            <Position>
              <LatitudeDegrees>42.82695195637643337249755859375</LatitudeDegrees>
              <LongitudeDegrees>-0.28454842977225780487060546875</LongitudeDegrees>
            </Position>
            <AltitudeMeters>2551.199951171875</AltitudeMeters>
            <DistanceMeters>NAN</DistanceMeters>
          </Trackpoint>
          <Trackpoint>
            <Time>2022-08-22T09:18:11.000Z</Time>
            <Position>
              <LatitudeDegrees>42.8269914351403713226318359375</LatitudeDegrees>
              <LongitudeDegrees>-0.28452110476791858673095703125</LongitudeDegrees>
            </Position>
            <AltitudeMeters>2550.800048828125</AltitudeMeters>
            <DistanceMeters>NAN</DistanceMeters>
          </Trackpoint>
          <Trackpoint>
            <Time>2022-08-22T09:18:13.000Z</Time>
            <Position>
              <LatitudeDegrees>42.82702152617275714874267578125</LatitudeDegrees>
              <LongitudeDegrees>-0.28450266458094120025634765625</LongitudeDegrees>
            </Position>
            <AltitudeMeters>2550.60009765625</AltitudeMeters>
            <DistanceMeters>NAN</DistanceMeters>
          </Trackpoint>
          <Trackpoint>
            <Time>2022-08-22T09:18:15.000Z</Time>
            <Position>
              <LatitudeDegrees>42.8270351886749267578125</LatitudeDegrees>
              <LongitudeDegrees>-0.284464024007320404052734375</LongitudeDegrees>
            </Position>
            <AltitudeMeters>2549.800048828125</AltitudeMeters>
            <DistanceMeters>NAN</DistanceMeters>
          </Trackpoint>
          <Trackpoint>
            <Time>2022-08-22T09:18:17.000Z</Time>
            <Position>
              <LatitudeDegrees>42.8270242922008037567138671875</LatitudeDegrees>
              <LongitudeDegrees>-0.2844236232340335845947265625</LongitudeDegrees>
            </Position>
            <AltitudeMeters>2548.800048828125</AltitudeMeters>
            <DistanceMeters>NAN</DistanceMeters>
          </Trackpoint>
          <Trackpoint>
            <Time>2022-08-22T09:18:22.000Z</Time>
            <Position>
              <LatitudeDegrees>42.8269146569073200225830078125</LatitudeDegrees>
              <LongitudeDegrees>-0.28438330627977848052978515625</LongitudeDegrees>
            </Position>
            <AltitudeMeters>2545.800048828125</AltitudeMeters>
            <DistanceMeters>NAN</DistanceMeters>
          </Trackpoint>
          <Trackpoint>
            <Time>2022-08-22T09:18:23.000Z</Time>
            <Position>
              <LatitudeDegrees>42.826893366873264312744140625</LatitudeDegrees>
              <LongitudeDegrees>-0.284375846385955810546875</LongitudeDegrees>
            </Position>
            <AltitudeMeters>2545.199951171875</AltitudeMeters>
            <DistanceMeters>NAN</DistanceMeters>
          </Trackpoint>
          <Trackpoint>
            <Time>2022-08-22T09:18:24.000Z</Time>
            <Position>
              <LatitudeDegrees>42.8268496133387088775634765625</LatitudeDegrees>
              <LongitudeDegrees>-0.28436017222702503204345703125</LongitudeDegrees>
            </Position>
            <AltitudeMeters>2544.199951171875</AltitudeMeters>
            <DistanceMeters>NAN</DistanceMeters>
          </Trackpoint>
          <Trackpoint>
            <Time>2022-08-22T09:18:25.000Z</Time>
            <Position>
              <LatitudeDegrees>42.8268496133387088775634765625</LatitudeDegrees>
              <LongitudeDegrees>-0.28436017222702503204345703125</LongitudeDegrees>
            </Position>
            <AltitudeMeters>2544.199951171875</AltitudeMeters>
            <DistanceMeters>NAN</DistanceMeters>
          </Trackpoint>
          <Trackpoint>
            <Time>2022-08-22T09:18:26.000Z</Time>
            <Position>
              <LatitudeDegrees>42.8268274851143360137939453125</LatitudeDegrees>
              <LongitudeDegrees>-0.28435329906642436981201171875</LongitudeDegrees>
            </Position>
            <AltitudeMeters>2543.60009765625</AltitudeMeters>
            <DistanceMeters>NAN</DistanceMeters>
          </Trackpoint>
          <Trackpoint>
            <Time>2022-08-22T09:18:32.000Z</Time>
            <Position>
              <LatitudeDegrees>42.82674844376742839813232421875</LatitudeDegrees>
              <LongitudeDegrees>-0.28430921025574207305908203125</LongitudeDegrees>
            </Position>
            <AltitudeMeters>2540.39990234375</AltitudeMeters>
            <DistanceMeters>NAN</DistanceMeters>
          </Trackpoint>
          <Trackpoint>
            <Time>2022-08-22T09:18:33.000Z</Time>
            <Position>
              <LatitudeDegrees>42.82674022950232028961181640625</LatitudeDegrees>
              <LongitudeDegrees>-0.28430518694221973419189453125</LongitudeDegrees>
            </Position>
            <AltitudeMeters>2540</AltitudeMeters>
            <DistanceMeters>NAN</DistanceMeters>
          </Trackpoint>
          <Trackpoint>
            <Time>2022-08-22T09:18:34.000Z</Time>
            <Position>
              <LatitudeDegrees>42.82672874629497528076171875</LatitudeDegrees>
              <LongitudeDegrees>-0.28430677950382232666015625</LongitudeDegrees>
            </Position>
            <AltitudeMeters>2539.39990234375</AltitudeMeters>
            <DistanceMeters>NAN</DistanceMeters>
          </Trackpoint>
          <Trackpoint>
            <Time>2022-08-22T09:18:37.000Z</Time>
            <Position>
              <LatitudeDegrees>42.8267047740519046783447265625</LatitudeDegrees>
              <LongitudeDegrees>-0.2843267284333705902099609375</LongitudeDegrees>
            </Position>
            <AltitudeMeters>2538.800048828125</AltitudeMeters>
            <DistanceMeters>NAN</DistanceMeters>
          </Trackpoint>
          <Trackpoint>
            <Time>2022-08-22T09:18:39.000Z</Time>
            <Position>
              <LatitudeDegrees>42.8267039358615875244140625</LatitudeDegrees>
              <LongitudeDegrees>-0.284327566623687744140625</LongitudeDegrees>
            </Position>
            <AltitudeMeters>2538.800048828125</AltitudeMeters>
            <DistanceMeters>NAN</DistanceMeters>
          </Trackpoint>
          <Trackpoint>
            <Time>2022-08-22T09:18:40.000Z</Time>
            <Position>
              <LatitudeDegrees>42.826706282794475555419921875</LatitudeDegrees>
              <LongitudeDegrees>-0.28432798571884632110595703125</LongitudeDegrees>
            </Position>
            <AltitudeMeters>2539</AltitudeMeters>
            <DistanceMeters>NAN</DistanceMeters>
          </Trackpoint>
          <Trackpoint>
            <Time>2022-08-22T09:18:42.000Z</Time>
            <Position>
              <LatitudeDegrees>42.8267087973654270172119140625</LatitudeDegrees>
              <LongitudeDegrees>-0.28433200903236865997314453125</LongitudeDegrees>
            </Position>
            <AltitudeMeters>2539.199951171875</AltitudeMeters>
            <DistanceMeters>NAN</DistanceMeters>
          </Trackpoint>
          <Trackpoint>
            <Time>2022-08-22T09:18:45.000Z</Time>
            <Position>
              <LatitudeDegrees>42.8266870044171810150146484375</LatitudeDegrees>
              <LongitudeDegrees>-0.28432982973754405975341796875</LongitudeDegrees>
            </Position>
            <AltitudeMeters>2538.199951171875</AltitudeMeters>
            <DistanceMeters>NAN</DistanceMeters>
          </Trackpoint>
          <Trackpoint>
            <Time>2022-08-22T09:18:46.000Z</Time>
            <Position>
              <LatitudeDegrees>42.8266739286482334136962890625</LatitudeDegrees>
              <LongitudeDegrees>-0.28432982973754405975341796875</LongitudeDegrees>
            </Position>
            <AltitudeMeters>2537.60009765625</AltitudeMeters>
            <DistanceMeters>NAN</DistanceMeters>
          </Trackpoint>
          <Trackpoint>
            <Time>2022-08-22T09:18:47.000Z</Time>
            <Position>
              <LatitudeDegrees>42.82665490172803401947021484375</LatitudeDegrees>
              <LongitudeDegrees>-0.28432832099497318267822265625</LongitudeDegrees>
            </Position>
            <AltitudeMeters>2536.60009765625</AltitudeMeters>
            <DistanceMeters>NAN</DistanceMeters>
          </Trackpoint>
          <Trackpoint>
            <Time>2022-08-22T09:18:49.000Z</Time>
            <Position>
              <LatitudeDegrees>42.82664752565324306488037109375</LatitudeDegrees>
              <LongitudeDegrees>-0.284322537481784820556640625</LongitudeDegrees>
            </Position>
            <AltitudeMeters>2536</AltitudeMeters>
            <DistanceMeters>NAN</DistanceMeters>
          </Trackpoint>
          <Trackpoint>
            <Time>2022-08-22T09:18:51.000Z</Time>
            <Position>
              <LatitudeDegrees>42.82663780264556407928466796875</LatitudeDegrees>
              <LongitudeDegrees>-0.2843136526644229888916015625</LongitudeDegrees>
            </Position>
            <AltitudeMeters>2535.39990234375</AltitudeMeters>
            <DistanceMeters>NAN</DistanceMeters>
          </Trackpoint>
          <Trackpoint>
            <Time>2022-08-22T09:19:03.000Z</Time>
            <Position>
              <LatitudeDegrees>42.82663931138813495635986328125</LatitudeDegrees>
              <LongitudeDegrees>-0.28433485887944698333740234375</LongitudeDegrees>
            </Position>
            <AltitudeMeters>2536</AltitudeMeters>
            <DistanceMeters>NAN</DistanceMeters>
          </Trackpoint>
          <Trackpoint>
            <Time>2022-08-22T09:19:07.000Z</Time>
            <Position>
              <LatitudeDegrees>42.82664232887327671051025390625</LatitudeDegrees>
              <LongitudeDegrees>-0.2843394689261913299560546875</LongitudeDegrees>
            </Position>
            <AltitudeMeters>2536.39990234375</AltitudeMeters>
            <DistanceMeters>NAN</DistanceMeters>
          </Trackpoint>
          <Trackpoint>
            <Time>2022-08-22T09:19:10.000Z</Time>
            <Position>
              <LatitudeDegrees>42.826645262539386749267578125</LatitudeDegrees>
              <LongitudeDegrees>-0.28434139676392078399658203125</LongitudeDegrees>
            </Position>
            <AltitudeMeters>2536.60009765625</AltitudeMeters>
            <DistanceMeters>NAN</DistanceMeters>
          </Trackpoint>
          <Trackpoint>
            <Time>2022-08-22T09:19:11.000Z</Time>
            <Position>
              <LatitudeDegrees>42.82664484344422817230224609375</LatitudeDegrees>
              <LongitudeDegrees>-0.2843408100306987762451171875</LongitudeDegrees>
            </Position>
            <AltitudeMeters>2536.39990234375</AltitudeMeters>
            <DistanceMeters>NAN</DistanceMeters>
          </Trackpoint>
          <Trackpoint>
            <Time>2022-08-22T09:19:12.000Z</Time>
            <Position>
              <LatitudeDegrees>42.82664358615875244140625</LatitudeDegrees>
              <LongitudeDegrees>-0.2843401394784450531005859375</LongitudeDegrees>
            </Position>
            <AltitudeMeters>2536.39990234375</AltitudeMeters>
            <DistanceMeters>NAN</DistanceMeters>
          </Trackpoint>
          <Trackpoint>
            <Time>2022-08-22T09:19:14.000Z</Time>
            <Position>
              <LatitudeDegrees>42.8266440890729427337646484375</LatitudeDegrees>
              <LongitudeDegrees>-0.28434223495423793792724609375</LongitudeDegrees>
            </Position>
            <AltitudeMeters>2536.39990234375</AltitudeMeters>
            <DistanceMeters>NAN</DistanceMeters>
          </Trackpoint>
          <Trackpoint>
            <Time>2022-08-22T09:19:15.000Z</Time>
            <Position>
              <LatitudeDegrees>42.82664316706359386444091796875</LatitudeDegrees>
              <LongitudeDegrees>-0.28434441424906253814697265625</LongitudeDegrees>
            </Position>
            <AltitudeMeters>2536.39990234375</AltitudeMeters>
            <DistanceMeters>NAN</DistanceMeters>
          </Trackpoint>
          <Trackpoint>
            <Time>2022-08-22T09:19:27.000Z</Time>
            <Position>
              <LatitudeDegrees>42.8265751898288726806640625</LatitudeDegrees>
              <LongitudeDegrees>-0.28429596684873104095458984375</LongitudeDegrees>
            </Position>
            <AltitudeMeters>2532</AltitudeMeters>
            <DistanceMeters>NAN</DistanceMeters>
          </Trackpoint>
          <Trackpoint>
            <Time>2022-08-22T09:19:40.000Z</Time>
            <Position>
              <LatitudeDegrees>42.82642590813338756561279296875</LatitudeDegrees>
              <LongitudeDegrees>-0.28415397740900516510009765625</LongitudeDegrees>
            </Position>
            <AltitudeMeters>2524</AltitudeMeters>
            <DistanceMeters>NAN</DistanceMeters>
          </Trackpoint>
          <Trackpoint>
            <Time>2022-08-22T09:19:44.000Z</Time>
            <Position>
              <LatitudeDegrees>42.82639053650200366973876953125</LatitudeDegrees>
              <LongitudeDegrees>-0.284143500030040740966796875</LongitudeDegrees>
            </Position>
            <AltitudeMeters>2522.39990234375</AltitudeMeters>
            <DistanceMeters>NAN</DistanceMeters>
          </Trackpoint>
          <Trackpoint>
            <Time>2022-08-22T09:19:46.000Z</Time>
            <Position>
              <LatitudeDegrees>42.82636891119182109832763671875</LatitudeDegrees>
              <LongitudeDegrees>-0.28414291329681873321533203125</LongitudeDegrees>
            </Position>
            <AltitudeMeters>2521.39990234375</AltitudeMeters>
            <DistanceMeters>NAN</DistanceMeters>
          </Trackpoint>
          <Trackpoint>
            <Time>2022-08-22T09:19:50.000Z</Time>
            <Position>
              <LatitudeDegrees>42.82633990980684757232666015625</LatitudeDegrees>
              <LongitudeDegrees>-0.2841942943632602691650390625</LongitudeDegrees>
            </Position>
            <AltitudeMeters>2520.60009765625</AltitudeMeters>
            <DistanceMeters>NAN</DistanceMeters>
          </Trackpoint>
          <Trackpoint>
            <Time>2022-08-22T09:19:52.000Z</Time>
            <Position>
              <LatitudeDegrees>42.8263208828866481781005859375</LatitudeDegrees>
              <LongitudeDegrees>-0.28421533294022083282470703125</LongitudeDegrees>
            </Position>
            <AltitudeMeters>2520</AltitudeMeters>
            <DistanceMeters>NAN</DistanceMeters>
          </Trackpoint>
          <Trackpoint>
            <Time>2022-08-22T09:19:55.000Z</Time>
            <Position>
              <LatitudeDegrees>42.82630621455609798431396484375</LatitudeDegrees>
              <LongitudeDegrees>-0.28426394797861576080322265625</LongitudeDegrees>
            </Position>
            <AltitudeMeters>2519.60009765625</AltitudeMeters>
            <DistanceMeters>NAN</DistanceMeters>
          </Trackpoint>
          <Trackpoint>
            <Time>2022-08-22T09:20:04.000Z</Time>
            <Position>
              <LatitudeDegrees>42.826228849589824676513671875</LatitudeDegrees>
              <LongitudeDegrees>-0.2843273989856243133544921875</LongitudeDegrees>
            </Position>
            <AltitudeMeters>2516.800048828125</AltitudeMeters>
            <DistanceMeters>NAN</DistanceMeters>
          </Trackpoint>
          <Trackpoint>
            <Time>2022-08-22T09:20:05.000Z</Time>
            <Position>
              <LatitudeDegrees>42.82621032558381557464599609375</LatitudeDegrees>
              <LongitudeDegrees>-0.2843367867171764373779296875</LongitudeDegrees>
            </Position>
            <AltitudeMeters>2516</AltitudeMeters>
            <DistanceMeters>NAN</DistanceMeters>
          </Trackpoint>
          <Trackpoint>
            <Time>2022-08-22T09:20:19.000Z</Time>
            <Position>
              <LatitudeDegrees>42.82613438554108142852783203125</LatitudeDegrees>
              <LongitudeDegrees>-0.2842536382377147674560546875</LongitudeDegrees>
            </Position>
            <AltitudeMeters>2512.199951171875</AltitudeMeters>
            <DistanceMeters>NAN</DistanceMeters>
          </Trackpoint>
          <Trackpoint>
            <Time>2022-08-22T09:20:23.000Z</Time>
            <Position>
              <LatitudeDegrees>42.8261049650609493255615234375</LatitudeDegrees>
              <LongitudeDegrees>-0.2842055261135101318359375</LongitudeDegrees>
            </Position>
            <AltitudeMeters>2510.60009765625</AltitudeMeters>
            <DistanceMeters>NAN</DistanceMeters>
          </Trackpoint>
          <Trackpoint>
            <Time>2022-08-22T09:20:36.000Z</Time>
            <Position>
              <LatitudeDegrees>42.826002202928066253662109375</LatitudeDegrees>
              <LongitudeDegrees>-0.28414458967745304107666015625</LongitudeDegrees>
            </Position>
            <AltitudeMeters>2505</AltitudeMeters>
            <DistanceMeters>NAN</DistanceMeters>
          </Trackpoint>
          <Trackpoint>
            <Time>2022-08-22T09:20:37.000Z</Time>
            <Position>
              <LatitudeDegrees>42.82598652876913547515869140625</LatitudeDegrees>
              <LongitudeDegrees>-0.28413956053555011749267578125</LongitudeDegrees>
            </Position>
            <AltitudeMeters>2504.199951171875</AltitudeMeters>
            <DistanceMeters>NAN</DistanceMeters>
          </Trackpoint>
          <Trackpoint>
            <Time>2022-08-22T09:20:39.000Z</Time>
            <Position>
              <LatitudeDegrees>42.82597948797047138214111328125</LatitudeDegrees>
              <LongitudeDegrees>-0.2841423265635967254638671875</LongitudeDegrees>
            </Position>
            <AltitudeMeters>2504</AltitudeMeters>
            <DistanceMeters>NAN</DistanceMeters>
          </Trackpoint>
          <Trackpoint>
            <Time>2022-08-22T09:20:43.000Z</Time>
            <Position>
              <LatitudeDegrees>42.82594629563391208648681640625</LatitudeDegrees>
              <LongitudeDegrees>-0.2841470204293727874755859375</LongitudeDegrees>
            </Position>
            <AltitudeMeters>2502.39990234375</AltitudeMeters>
            <DistanceMeters>NAN</DistanceMeters>
          </Trackpoint>
          <Trackpoint>
            <Time>2022-08-22T09:20:45.000Z</Time>
            <Position>
              <LatitudeDegrees>42.82592802308499813079833984375</LatitudeDegrees>
              <LongitudeDegrees>-0.28415389358997344970703125</LongitudeDegrees>
            </Position>
            <AltitudeMeters>2501.800048828125</AltitudeMeters>
            <DistanceMeters>NAN</DistanceMeters>
          </Trackpoint>
          <Trackpoint>
            <Time>2022-08-22T09:20:46.000Z</Time>
            <Position>
              <LatitudeDegrees>42.82591092400252819061279296875</LatitudeDegrees>
              <LongitudeDegrees>-0.2841798774898052215576171875</LongitudeDegrees>
            </Position>
            <AltitudeMeters>2501</AltitudeMeters>
            <DistanceMeters>NAN</DistanceMeters>
          </Trackpoint>
          <Trackpoint>
            <Time>2022-08-22T09:20:47.000Z</Time>
            <Position>
              <LatitudeDegrees>42.82591092400252819061279296875</LatitudeDegrees>
              <LongitudeDegrees>-0.2841798774898052215576171875</LongitudeDegrees>
            </Position>
            <AltitudeMeters>2501</AltitudeMeters>
            <DistanceMeters>NAN</DistanceMeters>
          </Trackpoint>
          <Trackpoint>
            <Time>2022-08-22T09:20:48.000Z</Time>
            <Position>
              <LatitudeDegrees>42.825905643403530120849609375</LatitudeDegrees>
              <LongitudeDegrees>-0.2841919474303722381591796875</LongitudeDegrees>
            </Position>
            <AltitudeMeters>2500.800048828125</AltitudeMeters>
            <DistanceMeters>NAN</DistanceMeters>
          </Trackpoint>
          <Trackpoint>
            <Time>2022-08-22T09:20:51.000Z</Time>
            <Position>
              <LatitudeDegrees>42.82588519155979156494140625</LatitudeDegrees>
              <LongitudeDegrees>-0.284217260777950286865234375</LongitudeDegrees>
            </Position>
            <AltitudeMeters>2499.800048828125</AltitudeMeters>
            <DistanceMeters>NAN</DistanceMeters>
          </Trackpoint>
          <Trackpoint>
            <Time>2022-08-22T09:20:53.000Z</Time>
            <Position>
              <LatitudeDegrees>42.82587219960987567901611328125</LatitudeDegrees>
              <LongitudeDegrees>-0.2842194400727748870849609375</LongitudeDegrees>
            </Position>
            <AltitudeMeters>2499</AltitudeMeters>
            <DistanceMeters>NAN</DistanceMeters>
          </Trackpoint>
          <Trackpoint>
            <Time>2022-08-22T09:20:54.000Z</Time>
            <Position>
              <LatitudeDegrees>42.82586230896413326263427734375</LatitudeDegrees>
              <LongitudeDegrees>-0.28422639705240726470947265625</LongitudeDegrees>
            </Position>
            <AltitudeMeters>2498.60009765625</AltitudeMeters>
            <DistanceMeters>NAN</DistanceMeters>
          </Trackpoint>
          <Trackpoint>
            <Time>2022-08-22T09:20:55.000Z</Time>
            <Position>
              <LatitudeDegrees>42.82585434615612030029296875</LatitudeDegrees>
              <LongitudeDegrees>-0.28423435986042022705078125</LongitudeDegrees>
            </Position>
            <AltitudeMeters>2498.199951171875</AltitudeMeters>
            <DistanceMeters>NAN</DistanceMeters>
          </Trackpoint>
          <Trackpoint>
            <Time>2022-08-22T09:20:56.000Z</Time>
            <Position>
              <LatitudeDegrees>42.82584018073976039886474609375</LatitudeDegrees>
              <LongitudeDegrees>-0.28425422497093677520751953125</LongitudeDegrees>
            </Position>
            <AltitudeMeters>2497.39990234375</AltitudeMeters>
            <DistanceMeters>NAN</DistanceMeters>
          </Trackpoint>
          <Trackpoint>
            <Time>2022-08-22T09:21:04.000Z</Time>
            <Position>
              <LatitudeDegrees>42.825793661177158355712890625</LatitudeDegrees>
              <LongitudeDegrees>-0.28431884944438934326171875</LongitudeDegrees>
            </Position>
            <AltitudeMeters>2495.39990234375</AltitudeMeters>
            <DistanceMeters>NAN</DistanceMeters>
          </Trackpoint>
          <Trackpoint>
            <Time>2022-08-22T09:21:13.000Z</Time>
            <Position>
              <LatitudeDegrees>42.8257401846349239349365234375</LatitudeDegrees>
              <LongitudeDegrees>-0.28438682667911052703857421875</LongitudeDegrees>
            </Position>
            <AltitudeMeters>2492.800048828125</AltitudeMeters>
            <DistanceMeters>NAN</DistanceMeters>
          </Trackpoint>
          <Trackpoint>
            <Time>2022-08-22T09:21:16.000Z</Time>
            <Position>
              <LatitudeDegrees>42.825713865458965301513671875</LatitudeDegrees>
              <LongitudeDegrees>-0.284397304058074951171875</LongitudeDegrees>
            </Position>
            <AltitudeMeters>2491.39990234375</AltitudeMeters>
            <DistanceMeters>NAN</DistanceMeters>
          </Trackpoint>
          <Trackpoint>
            <Time>2022-08-22T09:21:19.000Z</Time>
            <Position>
              <LatitudeDegrees>42.82568913884460926055908203125</LatitudeDegrees>
              <LongitudeDegrees>-0.28441649861633777618408203125</LongitudeDegrees>
            </Position>
            <AltitudeMeters>2490.39990234375</AltitudeMeters>
            <DistanceMeters>NAN</DistanceMeters>
          </Trackpoint>
          <Trackpoint>
            <Time>2022-08-22T09:21:26.000Z</Time>
            <Position>
              <LatitudeDegrees>42.8256275318562984466552734375</LatitudeDegrees>
              <LongitudeDegrees>-0.2844487689435482025146484375</LongitudeDegrees>
            </Position>
            <AltitudeMeters>2487.39990234375</AltitudeMeters>
            <DistanceMeters>NAN</DistanceMeters>
          </Trackpoint>
          <Trackpoint>
            <Time>2022-08-22T09:21:29.000Z</Time>
            <Position>
              <LatitudeDegrees>42.82560599036514759063720703125</LatitudeDegrees>
              <LongitudeDegrees>-0.284456312656402587890625</LongitudeDegrees>
            </Position>
            <AltitudeMeters>2486</AltitudeMeters>
            <DistanceMeters>NAN</DistanceMeters>
          </Trackpoint>
          <Trackpoint>
            <Time>2022-08-22T09:21:30.000Z</Time>
            <Position>
              <LatitudeDegrees>42.82558788545429706573486328125</LatitudeDegrees>
              <LongitudeDegrees>-0.28446578420698642730712890625</LongitudeDegrees>
            </Position>
            <AltitudeMeters>2485</AltitudeMeters>
            <DistanceMeters>NAN</DistanceMeters>
          </Trackpoint>
          <Trackpoint>
            <Time>2022-08-22T09:21:33.000Z</Time>
            <Position>
              <LatitudeDegrees>42.82556827180087566375732421875</LatitudeDegrees>
              <LongitudeDegrees>-0.28447802178561687469482421875</LongitudeDegrees>
            </Position>
            <AltitudeMeters>2484</AltitudeMeters>
            <DistanceMeters>NAN</DistanceMeters>
          </Trackpoint>
          <Trackpoint>
            <Time>2022-08-22T09:21:34.000Z</Time>
            <Position>
              <LatitudeDegrees>42.82555435784161090850830078125</LatitudeDegrees>
              <LongitudeDegrees>-0.28448120690882205963134765625</LongitudeDegrees>
            </Position>
            <AltitudeMeters>2483.199951171875</AltitudeMeters>
            <DistanceMeters>NAN</DistanceMeters>
          </Trackpoint>
          <Trackpoint>
            <Time>2022-08-22T09:21:35.000Z</Time>
            <Position>
              <LatitudeDegrees>42.825543545186519622802734375</LatitudeDegrees>
              <LongitudeDegrees>-0.28448908589780330657958984375</LongitudeDegrees>
            </Position>
            <AltitudeMeters>2482.60009765625</AltitudeMeters>
            <DistanceMeters>NAN</DistanceMeters>
          </Trackpoint>
          <Trackpoint>
            <Time>2022-08-22T09:21:39.000Z</Time>
            <Position>
              <LatitudeDegrees>42.825504653155803680419921875</LatitudeDegrees>
              <LongitudeDegrees>-0.28451406396925449371337890625</LongitudeDegrees>
            </Position>
            <AltitudeMeters>2480.60009765625</AltitudeMeters>
            <DistanceMeters>NAN</DistanceMeters>
          </Trackpoint>
          <Trackpoint>
            <Time>2022-08-22T09:21:42.000Z</Time>
            <Position>
              <LatitudeDegrees>42.82547481358051300048828125</LatitudeDegrees>
              <LongitudeDegrees>-0.28454147279262542724609375</LongitudeDegrees>
            </Position>
            <AltitudeMeters>2479.199951171875</AltitudeMeters>
            <DistanceMeters>NAN</DistanceMeters>
          </Trackpoint>
          <Trackpoint>
            <Time>2022-08-22T09:21:45.000Z</Time>
            <Position>
              <LatitudeDegrees>42.8254441358149051666259765625</LatitudeDegrees>
              <LongitudeDegrees>-0.28456293046474456787109375</LongitudeDegrees>
            </Position>
            <AltitudeMeters>2477.60009765625</AltitudeMeters>
            <DistanceMeters>NAN</DistanceMeters>
          </Trackpoint>
          <Trackpoint>
            <Time>2022-08-22T09:21:52.000Z</Time>
            <Position>
              <LatitudeDegrees>42.825394012033939361572265625</LatitudeDegrees>
              <LongitudeDegrees>-0.284588076174259185791015625</LongitudeDegrees>
            </Position>
            <AltitudeMeters>2474.800048828125</AltitudeMeters>
            <DistanceMeters>NAN</DistanceMeters>
          </Trackpoint>
          <Trackpoint>
            <Time>2022-08-22T09:21:54.000Z</Time>
            <Position>
              <LatitudeDegrees>42.82537758350372314453125</LatitudeDegrees>
              <LongitudeDegrees>-0.2845912612974643707275390625</LongitudeDegrees>
            </Position>
            <AltitudeMeters>2473.800048828125</AltitudeMeters>
            <DistanceMeters>NAN</DistanceMeters>
          </Trackpoint>
          <Trackpoint>
            <Time>2022-08-22T09:21:59.000Z</Time>
            <Position>
              <LatitudeDegrees>42.82533466815948486328125</LatitudeDegrees>
              <LongitudeDegrees>-0.2845882438123226165771484375</LongitudeDegrees>
            </Position>
            <AltitudeMeters>2471.60009765625</AltitudeMeters>
            <DistanceMeters>NAN</DistanceMeters>
          </Trackpoint>
          <Trackpoint>
            <Time>2022-08-22T09:22:02.000Z</Time>
            <Position>
              <LatitudeDegrees>42.825318910181522369384765625</LatitudeDegrees>
              <LongitudeDegrees>-0.28457324020564556121826171875</LongitudeDegrees>
            </Position>
            <AltitudeMeters>2470.60009765625</AltitudeMeters>
            <DistanceMeters>NAN</DistanceMeters>
          </Trackpoint>
          <Trackpoint>
            <Time>2022-08-22T09:22:05.000Z</Time>
            <Position>
              <LatitudeDegrees>42.82531178556382656097412109375</LatitudeDegrees>
              <LongitudeDegrees>-0.28453200124204158782958984375</LongitudeDegrees>
            </Position>
            <AltitudeMeters>2469.199951171875</AltitudeMeters>
            <DistanceMeters>NAN</DistanceMeters>
          </Trackpoint>
          <Trackpoint>
            <Time>2022-08-22T09:22:14.000Z</Time>
            <Position>
              <LatitudeDegrees>42.82524858601391315460205078125</LatitudeDegrees>
              <LongitudeDegrees>-0.284506939351558685302734375</LongitudeDegrees>
            </Position>
            <AltitudeMeters>2466</AltitudeMeters>
            <DistanceMeters>NAN</DistanceMeters>
          </Trackpoint>
          <Trackpoint>
            <Time>2022-08-22T09:22:23.000Z</Time>
            <Position>
              <LatitudeDegrees>42.82515085302293300628662109375</LatitudeDegrees>
              <LongitudeDegrees>-0.28456871397793292999267578125</LongitudeDegrees>
            </Position>
            <AltitudeMeters>2463.199951171875</AltitudeMeters>
            <DistanceMeters>NAN</DistanceMeters>
          </Trackpoint>
          <Trackpoint>
            <Time>2022-08-22T09:22:31.000Z</Time>
            <Position>
              <LatitudeDegrees>42.82507424242794513702392578125</LatitudeDegrees>
              <LongitudeDegrees>-0.28458095155656337738037109375</LongitudeDegrees>
            </Position>
            <AltitudeMeters>2460.39990234375</AltitudeMeters>
            <DistanceMeters>NAN</DistanceMeters>
          </Trackpoint>
          <Trackpoint>
            <Time>2022-08-22T09:22:37.000Z</Time>
            <Position>
              <LatitudeDegrees>42.82504825852811336517333984375</LatitudeDegrees>
              <LongitudeDegrees>-0.28459503315389156341552734375</LongitudeDegrees>
            </Position>
            <AltitudeMeters>2460.39990234375</AltitudeMeters>
            <DistanceMeters>NAN</DistanceMeters>
          </Trackpoint>
          <Trackpoint>
            <Time>2022-08-22T09:22:40.000Z</Time>
            <Position>
              <LatitudeDegrees>42.8250458277761936187744140625</LatitudeDegrees>
              <LongitudeDegrees>-0.2845905907452106475830078125</LongitudeDegrees>
            </Position>
            <AltitudeMeters>2460.199951171875</AltitudeMeters>
            <DistanceMeters>NAN</DistanceMeters>
          </Trackpoint>
          <Trackpoint>
            <Time>2022-08-22T09:22:41.000Z</Time>
            <Position>
              <LatitudeDegrees>42.82504431903362274169921875</LatitudeDegrees>
              <LongitudeDegrees>-0.2845899201929569244384765625</LongitudeDegrees>
            </Position>
            <AltitudeMeters>2460</AltitudeMeters>
            <DistanceMeters>NAN</DistanceMeters>
          </Trackpoint>
          <Trackpoint>
            <Time>2022-08-22T09:22:42.000Z</Time>
            <Position>
              <LatitudeDegrees>42.8250371105968952178955078125</LatitudeDegrees>
              <LongitudeDegrees>-0.284592770040035247802734375</LongitudeDegrees>
            </Position>
            <AltitudeMeters>2460</AltitudeMeters>
            <DistanceMeters>NAN</DistanceMeters>
          </Trackpoint>
          <Trackpoint>
            <Time>2022-08-22T09:22:46.000Z</Time>
            <Position>
              <LatitudeDegrees>42.825007773935794830322265625</LatitudeDegrees>
              <LongitudeDegrees>-0.28462504036724567413330078125</LongitudeDegrees>
            </Position>
            <AltitudeMeters>2460.39990234375</AltitudeMeters>
            <DistanceMeters>NAN</DistanceMeters>
          </Trackpoint>
          <Trackpoint>
            <Time>2022-08-22T09:22:47.000Z</Time>
            <Position>
              <LatitudeDegrees>42.82499914057552814483642578125</LatitudeDegrees>
              <LongitudeDegrees>-0.2846331708133220672607421875</LongitudeDegrees>
            </Position>
            <AltitudeMeters>2460.60009765625</AltitudeMeters>
            <DistanceMeters>NAN</DistanceMeters>
          </Trackpoint>
          <Trackpoint>
            <Time>2022-08-22T09:22:48.000Z</Time>
            <Position>
              <LatitudeDegrees>42.82498371787369251251220703125</LatitudeDegrees>
              <LongitudeDegrees>-0.2846371941268444061279296875</LongitudeDegrees>
            </Position>
            <AltitudeMeters>2460.39990234375</AltitudeMeters>
            <DistanceMeters>NAN</DistanceMeters>
          </Trackpoint>
          <Trackpoint>
            <Time>2022-08-22T09:22:49.000Z</Time>
            <Position>
              <LatitudeDegrees>42.82498371787369251251220703125</LatitudeDegrees>
              <LongitudeDegrees>-0.2846371941268444061279296875</LongitudeDegrees>
            </Position>
            <AltitudeMeters>2460.39990234375</AltitudeMeters>
            <DistanceMeters>NAN</DistanceMeters>
          </Trackpoint>
          <Trackpoint>
            <Time>2022-08-22T09:22:51.000Z</Time>
            <Position>
              <LatitudeDegrees>42.82496226020157337188720703125</LatitudeDegrees>
              <LongitudeDegrees>-0.28464364819228649139404296875</LongitudeDegrees>
            </Position>
            <AltitudeMeters>2460.199951171875</AltitudeMeters>
            <DistanceMeters>NAN</DistanceMeters>
          </Trackpoint>
          <Trackpoint>
            <Time>2022-08-22T09:22:53.000Z</Time>
            <Position>
              <LatitudeDegrees>42.82494599930942058563232421875</LatitudeDegrees>
              <LongitudeDegrees>-0.28465840034186840057373046875</LongitudeDegrees>
            </Position>
            <AltitudeMeters>2460.199951171875</AltitudeMeters>
            <DistanceMeters>NAN</DistanceMeters>
          </Trackpoint>
          <Trackpoint>
            <Time>2022-08-22T09:22:54.000Z</Time>
            <Position>
              <LatitudeDegrees>42.824929654598236083984375</LatitudeDegrees>
              <LongitudeDegrees>-0.28466762043535709381103515625</LongitudeDegrees>
            </Position>
            <AltitudeMeters>2460.39990234375</AltitudeMeters>
            <DistanceMeters>NAN</DistanceMeters>
          </Trackpoint>
          <Trackpoint>
            <Time>2022-08-22T09:22:56.000Z</Time>
            <Position>
              <LatitudeDegrees>42.8249207697808742523193359375</LatitudeDegrees>
              <LongitudeDegrees>-0.28466912917792797088623046875</LongitudeDegrees>
            </Position>
            <AltitudeMeters>2460.39990234375</AltitudeMeters>
            <DistanceMeters>NAN</DistanceMeters>
          </Trackpoint>
          <Trackpoint>
            <Time>2022-08-22T09:22:57.000Z</Time>
            <Position>
              <LatitudeDegrees>42.82490325160324573516845703125</LatitudeDegrees>
              <LongitudeDegrees>-0.2846690453588962554931640625</LongitudeDegrees>
            </Position>
            <AltitudeMeters>2460</AltitudeMeters>
            <DistanceMeters>NAN</DistanceMeters>
          </Trackpoint>
          <Trackpoint>
            <Time>2022-08-22T09:22:58.000Z</Time>
            <Position>
              <LatitudeDegrees>42.82490325160324573516845703125</LatitudeDegrees>
              <LongitudeDegrees>-0.2846690453588962554931640625</LongitudeDegrees>
            </Position>
            <AltitudeMeters>2460</AltitudeMeters>
            <DistanceMeters>NAN</DistanceMeters>
          </Trackpoint>
          <Trackpoint>
            <Time>2022-08-22T09:23:03.000Z</Time>
            <Position>
              <LatitudeDegrees>42.8248466737568378448486328125</LatitudeDegrees>
              <LongitudeDegrees>-0.284696035087108612060546875</LongitudeDegrees>
            </Position>
            <AltitudeMeters>2460.39990234375</AltitudeMeters>
            <DistanceMeters>NAN</DistanceMeters>
          </Trackpoint>
          <Trackpoint>
            <Time>2022-08-22T09:23:07.000Z</Time>
            <Position>
              <LatitudeDegrees>42.82481809146702289581298828125</LatitudeDegrees>
              <LongitudeDegrees>-0.28472478501498699188232421875</LongitudeDegrees>
            </Position>
            <AltitudeMeters>2461.39990234375</AltitudeMeters>
            <DistanceMeters>NAN</DistanceMeters>
          </Trackpoint>
          <Trackpoint>
            <Time>2022-08-22T09:23:11.000Z</Time>
            <Position>
              <LatitudeDegrees>42.824782468378543853759765625</LatitudeDegrees>
              <LongitudeDegrees>-0.2847521938383579254150390625</LongitudeDegrees>
            </Position>
            <AltitudeMeters>2462</AltitudeMeters>
            <DistanceMeters>NAN</DistanceMeters>
          </Trackpoint>
          <Trackpoint>
            <Time>2022-08-22T09:23:12.000Z</Time>
            <Position>
              <LatitudeDegrees>42.82477282918989658355712890625</LatitudeDegrees>
              <LongitudeDegrees>-0.284753702580928802490234375</LongitudeDegrees>
            </Position>
            <AltitudeMeters>2461.800048828125</AltitudeMeters>
            <DistanceMeters>NAN</DistanceMeters>
          </Trackpoint>
          <Trackpoint>
            <Time>2022-08-22T09:23:19.000Z</Time>
            <Position>
              <LatitudeDegrees>42.8247008286416530609130859375</LatitudeDegrees>
              <LongitudeDegrees>-0.28480173088610172271728515625</LongitudeDegrees>
            </Position>
            <AltitudeMeters>2462.39990234375</AltitudeMeters>
            <DistanceMeters>NAN</DistanceMeters>
          </Trackpoint>
          <Trackpoint>
            <Time>2022-08-22T09:23:21.000Z</Time>
            <Position>
              <LatitudeDegrees>42.8246840648353099822998046875</LatitudeDegrees>
              <LongitudeDegrees>-0.28481648303568363189697265625</LongitudeDegrees>
            </Position>
            <AltitudeMeters>2462.60009765625</AltitudeMeters>
            <DistanceMeters>NAN</DistanceMeters>
          </Trackpoint>
          <Trackpoint>
            <Time>2022-08-22T09:23:26.000Z</Time>
            <Position>
              <LatitudeDegrees>42.82462128438055515289306640625</LatitudeDegrees>
              <LongitudeDegrees>-0.2848169021308422088623046875</LongitudeDegrees>
            </Position>
            <AltitudeMeters>2461</AltitudeMeters>
            <DistanceMeters>NAN</DistanceMeters>
          </Trackpoint>
          <Trackpoint>
            <Time>2022-08-22T09:23:28.000Z</Time>
            <Position>
              <LatitudeDegrees>42.82460569404065608978271484375</LatitudeDegrees>
              <LongitudeDegrees>-0.28480759821832180023193359375</LongitudeDegrees>
            </Position>
            <AltitudeMeters>2460.199951171875</AltitudeMeters>
            <DistanceMeters>NAN</DistanceMeters>
          </Trackpoint>
          <Trackpoint>
            <Time>2022-08-22T09:23:31.000Z</Time>
            <Position>
              <LatitudeDegrees>42.82458540983498096466064453125</LatitudeDegrees>
              <LongitudeDegrees>-0.284791924059391021728515625</LongitudeDegrees>
            </Position>
            <AltitudeMeters>2458.800048828125</AltitudeMeters>
            <DistanceMeters>NAN</DistanceMeters>
          </Trackpoint>
          <Trackpoint>
            <Time>2022-08-22T09:23:34.000Z</Time>
            <Position>
              <LatitudeDegrees>42.82457350753247737884521484375</LatitudeDegrees>
              <LongitudeDegrees>-0.28476946055889129638671875</LongitudeDegrees>
            </Position>
            <AltitudeMeters>2457.39990234375</AltitudeMeters>
            <DistanceMeters>NAN</DistanceMeters>
          </Trackpoint>
          <Trackpoint>
            <Time>2022-08-22T09:23:37.000Z</Time>
            <Position>
              <LatitudeDegrees>42.82455079257488250732421875</LatitudeDegrees>
              <LongitudeDegrees>-0.284751020371913909912109375</LongitudeDegrees>
            </Position>
            <AltitudeMeters>2455.800048828125</AltitudeMeters>
            <DistanceMeters>NAN</DistanceMeters>
          </Trackpoint>
          <Trackpoint>
            <Time>2022-08-22T09:23:41.000Z</Time>
            <Position>
              <LatitudeDegrees>42.824516594409942626953125</LatitudeDegrees>
              <LongitudeDegrees>-0.28476216830313205718994140625</LongitudeDegrees>
            </Position>
            <AltitudeMeters>2455.199951171875</AltitudeMeters>
            <DistanceMeters>NAN</DistanceMeters>
          </Trackpoint>
          <Trackpoint>
            <Time>2022-08-22T09:23:44.000Z</Time>
            <Position>
              <LatitudeDegrees>42.824484072625637054443359375</LatitudeDegrees>
              <LongitudeDegrees>-0.28476552106440067291259765625</LongitudeDegrees>
            </Position>
            <AltitudeMeters>2453.800048828125</AltitudeMeters>
            <DistanceMeters>NAN</DistanceMeters>
          </Trackpoint>
          <Trackpoint>
            <Time>2022-08-22T09:23:48.000Z</Time>
            <Position>
              <LatitudeDegrees>42.82443721778690814971923828125</LatitudeDegrees>
              <LongitudeDegrees>-0.2847548760473728179931640625</LongitudeDegrees>
            </Position>
            <AltitudeMeters>2451.199951171875</AltitudeMeters>
            <DistanceMeters>NAN</DistanceMeters>
          </Trackpoint>
          <Trackpoint>
            <Time>2022-08-22T09:23:49.000Z</Time>
            <Position>
              <LatitudeDegrees>42.8244121558964252471923828125</LatitudeDegrees>
              <LongitudeDegrees>-0.2847434766590595245361328125</LongitudeDegrees>
            </Position>
            <AltitudeMeters>2449.60009765625</AltitudeMeters>
            <DistanceMeters>NAN</DistanceMeters>
          </Trackpoint>
          <Trackpoint>
            <Time>2022-08-22T09:23:50.000Z</Time>
            <Position>
              <LatitudeDegrees>42.8244121558964252471923828125</LatitudeDegrees>
              <LongitudeDegrees>-0.2847434766590595245361328125</LongitudeDegrees>
            </Position>
            <AltitudeMeters>2449.60009765625</AltitudeMeters>
            <DistanceMeters>NAN</DistanceMeters>
          </Trackpoint>
          <Trackpoint>
            <Time>2022-08-22T09:23:51.000Z</Time>
            <Position>
              <LatitudeDegrees>42.82439715228974819183349609375</LatitudeDegrees>
              <LongitudeDegrees>-0.28474221937358379364013671875</LongitudeDegrees>
            </Position>
            <AltitudeMeters>2448.800048828125</AltitudeMeters>
            <DistanceMeters>NAN</DistanceMeters>
          </Trackpoint>
          <Trackpoint>
            <Time>2022-08-22T09:23:52.000Z</Time>
            <Position>
              <LatitudeDegrees>42.8243672288954257965087890625</LatitudeDegrees>
              <LongitudeDegrees>-0.2847525291144847869873046875</LongitudeDegrees>
            </Position>
            <AltitudeMeters>2448</AltitudeMeters>
            <DistanceMeters>NAN</DistanceMeters>
          </Trackpoint>
          <Trackpoint>
            <Time>2022-08-22T09:23:59.000Z</Time>
            <Position>
              <LatitudeDegrees>42.82430310733616352081298828125</LatitudeDegrees>
              <LongitudeDegrees>-0.28475412167608737945556640625</LongitudeDegrees>
            </Position>
            <AltitudeMeters>2445.199951171875</AltitudeMeters>
            <DistanceMeters>NAN</DistanceMeters>
          </Trackpoint>
          <Trackpoint>
            <Time>2022-08-22T09:24:02.000Z</Time>
            <Position>
              <LatitudeDegrees>42.8242679871618747711181640625</LatitudeDegrees>
              <LongitudeDegrees>-0.28474356047809123992919921875</LongitudeDegrees>
            </Position>
            <AltitudeMeters>2443.199951171875</AltitudeMeters>
            <DistanceMeters>NAN</DistanceMeters>
          </Trackpoint>
          <Trackpoint>
            <Time>2022-08-22T09:24:04.000Z</Time>
            <Position>
              <LatitudeDegrees>42.82424309290945529937744140625</LatitudeDegrees>
              <LongitudeDegrees>-0.28473727405071258544921875</LongitudeDegrees>
            </Position>
            <AltitudeMeters>2442</AltitudeMeters>
            <DistanceMeters>NAN</DistanceMeters>
          </Trackpoint>
          <Trackpoint>
            <Time>2022-08-22T09:24:08.000Z</Time>
            <Position>
              <LatitudeDegrees>42.82419078983366489410400390625</LatitudeDegrees>
              <LongitudeDegrees>-0.28469838201999664306640625</LongitudeDegrees>
            </Position>
            <AltitudeMeters>2438.800048828125</AltitudeMeters>
            <DistanceMeters>NAN</DistanceMeters>
          </Trackpoint>
          <Trackpoint>
            <Time>2022-08-22T09:24:12.000Z</Time>
            <Position>
              <LatitudeDegrees>42.82414351589977741241455078125</LatitudeDegrees>
              <LongitudeDegrees>-0.2846653573215007781982421875</LongitudeDegrees>
            </Position>
            <AltitudeMeters>2436.60009765625</AltitudeMeters>
            <DistanceMeters>NAN</DistanceMeters>
          </Trackpoint>
          <Trackpoint>
            <Time>2022-08-22T09:24:16.000Z</Time>
            <Position>
              <LatitudeDegrees>42.824093140661716461181640625</LatitudeDegrees>
              <LongitudeDegrees>-0.28465001843869686126708984375</LongitudeDegrees>
            </Position>
            <AltitudeMeters>2435.39990234375</AltitudeMeters>
            <DistanceMeters>NAN</DistanceMeters>
          </Trackpoint>
          <Trackpoint>
            <Time>2022-08-22T09:24:19.000Z</Time>
            <Position>
              <LatitudeDegrees>42.8240782208740711212158203125</LatitudeDegrees>
              <LongitudeDegrees>-0.28461012057960033416748046875</LongitudeDegrees>
            </Position>
            <AltitudeMeters>2434.60009765625</AltitudeMeters>
            <DistanceMeters>NAN</DistanceMeters>
          </Trackpoint>
          <Trackpoint>
            <Time>2022-08-22T09:24:22.000Z</Time>
            <Position>
              <LatitudeDegrees>42.8240845911204814910888671875</LatitudeDegrees>
              <LongitudeDegrees>-0.2845590747892856597900390625</LongitudeDegrees>
            </Position>
            <AltitudeMeters>2434.199951171875</AltitudeMeters>
            <DistanceMeters>NAN</DistanceMeters>
          </Trackpoint>
          <Trackpoint>
            <Time>2022-08-22T09:24:26.000Z</Time>
            <Position>
              <LatitudeDegrees>42.82406355254352092742919921875</LatitudeDegrees>
              <LongitudeDegrees>-0.28452579863369464874267578125</LongitudeDegrees>
            </Position>
            <AltitudeMeters>2432</AltitudeMeters>
            <DistanceMeters>NAN</DistanceMeters>
          </Trackpoint>
          <Trackpoint>
            <Time>2022-08-22T09:24:28.000Z</Time>
            <Position>
              <LatitudeDegrees>42.8240497224032878875732421875</LatitudeDegrees>
              <LongitudeDegrees>-0.2845020778477191925048828125</LongitudeDegrees>
            </Position>
            <AltitudeMeters>2430.60009765625</AltitudeMeters>
            <DistanceMeters>NAN</DistanceMeters>
          </Trackpoint>
          <Trackpoint>
            <Time>2022-08-22T09:24:34.000Z</Time>
            <Position>
              <LatitudeDegrees>42.82396665774285793304443359375</LatitudeDegrees>
              <LongitudeDegrees>-0.284521020948886871337890625</LongitudeDegrees>
            </Position>
            <AltitudeMeters>2427.800048828125</AltitudeMeters>
            <DistanceMeters>NAN</DistanceMeters>
          </Trackpoint>
          <Trackpoint>
            <Time>2022-08-22T09:24:42.000Z</Time>
            <Position>
              <LatitudeDegrees>42.823881246149539947509765625</LatitudeDegrees>
              <LongitudeDegrees>-0.2845408022403717041015625</LongitudeDegrees>
            </Position>
            <AltitudeMeters>2428</AltitudeMeters>
            <DistanceMeters>NAN</DistanceMeters>
          </Trackpoint>
          <Trackpoint>
            <Time>2022-08-22T09:24:45.000Z</Time>
            <Position>
              <LatitudeDegrees>42.82385073602199554443359375</LatitudeDegrees>
              <LongitudeDegrees>-0.28451205231249332427978515625</LongitudeDegrees>
            </Position>
            <AltitudeMeters>2426.60009765625</AltitudeMeters>
            <DistanceMeters>NAN</DistanceMeters>
          </Trackpoint>
          <Trackpoint>
            <Time>2022-08-22T09:24:53.000Z</Time>
            <Position>
              <LatitudeDegrees>42.8237550146877765655517578125</LatitudeDegrees>
              <LongitudeDegrees>-0.2845272235572338104248046875</LongitudeDegrees>
            </Position>
            <AltitudeMeters>2425.39990234375</AltitudeMeters>
            <DistanceMeters>NAN</DistanceMeters>
          </Trackpoint>
          <Trackpoint>
            <Time>2022-08-22T09:24:55.000Z</Time>
            <Position>
              <LatitudeDegrees>42.82373447902500629425048828125</LatitudeDegrees>
              <LongitudeDegrees>-0.284509956836700439453125</LongitudeDegrees>
            </Position>
            <AltitudeMeters>2424</AltitudeMeters>
            <DistanceMeters>NAN</DistanceMeters>
          </Trackpoint>
          <Trackpoint>
            <Time>2022-08-22T09:24:56.000Z</Time>
            <Position>
              <LatitudeDegrees>42.823727019131183624267578125</LatitudeDegrees>
              <LongitudeDegrees>-0.28450191020965576171875</LongitudeDegrees>
            </Position>
            <AltitudeMeters>2423.39990234375</AltitudeMeters>
            <DistanceMeters>NAN</DistanceMeters>
          </Trackpoint>
          <Trackpoint>
            <Time>2022-08-22T09:25:00.000Z</Time>
            <Position>
              <LatitudeDegrees>42.82368443906307220458984375</LatitudeDegrees>
              <LongitudeDegrees>-0.284510962665081024169921875</LongitudeDegrees>
            </Position>
            <AltitudeMeters>2422.800048828125</AltitudeMeters>
            <DistanceMeters>NAN</DistanceMeters>
          </Trackpoint>
          <Trackpoint>
            <Time>2022-08-22T09:25:05.000Z</Time>
            <Position>
              <LatitudeDegrees>42.82365049235522747039794921875</LatitudeDegrees>
              <LongitudeDegrees>-0.28459503315389156341552734375</LongitudeDegrees>
            </Position>
            <AltitudeMeters>2426.199951171875</AltitudeMeters>
            <DistanceMeters>NAN</DistanceMeters>
          </Trackpoint>
          <Trackpoint>
            <Time>2022-08-22T09:25:08.000Z</Time>
            <Position>
              <LatitudeDegrees>42.82363071106374263763427734375</LatitudeDegrees>
              <LongitudeDegrees>-0.28459704481065273284912109375</LongitudeDegrees>
            </Position>
            <AltitudeMeters>2425.60009765625</AltitudeMeters>
            <DistanceMeters>NAN</DistanceMeters>
          </Trackpoint>
          <Trackpoint>
            <Time>2022-08-22T09:25:12.000Z</Time>
            <Position>
              <LatitudeDegrees>42.823617719113826751708984375</LatitudeDegrees>
              <LongitudeDegrees>-0.2845394611358642578125</LongitudeDegrees>
            </Position>
            <AltitudeMeters>2422.39990234375</AltitudeMeters>
            <DistanceMeters>NAN</DistanceMeters>
          </Trackpoint>
          <Trackpoint>
            <Time>2022-08-22T09:25:15.000Z</Time>
            <Position>
              <LatitudeDegrees>42.82358829863369464874267578125</LatitudeDegrees>
              <LongitudeDegrees>-0.28453166596591472625732421875</LongitudeDegrees>
            </Position>
            <AltitudeMeters>2421.199951171875</AltitudeMeters>
            <DistanceMeters>NAN</DistanceMeters>
          </Trackpoint>
          <Trackpoint>
            <Time>2022-08-22T09:25:27.000Z</Time>
            <Position>
              <LatitudeDegrees>42.8234881348907947540283203125</LatitudeDegrees>
              <LongitudeDegrees>-0.284575335681438446044921875</LongitudeDegrees>
            </Position>
            <AltitudeMeters>2420.800048828125</AltitudeMeters>
            <DistanceMeters>NAN</DistanceMeters>
          </Trackpoint>
          <Trackpoint>
            <Time>2022-08-22T09:25:32.000Z</Time>
            <Position>
              <LatitudeDegrees>42.82345653511583805084228515625</LatitudeDegrees>
              <LongitudeDegrees>-0.28449830599129199981689453125</LongitudeDegrees>
            </Position>
            <AltitudeMeters>2417.199951171875</AltitudeMeters>
            <DistanceMeters>NAN</DistanceMeters>
          </Trackpoint>
          <Trackpoint>
            <Time>2022-08-22T09:25:37.000Z</Time>
            <Position>
              <LatitudeDegrees>42.823398448526859283447265625</LatitudeDegrees>
              <LongitudeDegrees>-0.28444600291550159454345703125</LongitudeDegrees>
            </Position>
            <AltitudeMeters>2413</AltitudeMeters>
            <DistanceMeters>NAN</DistanceMeters>
          </Trackpoint>
          <Trackpoint>
            <Time>2022-08-22T09:25:39.000Z</Time>
            <Position>
              <LatitudeDegrees>42.82338134944438934326171875</LatitudeDegrees>
              <LongitudeDegrees>-0.284468717873096466064453125</LongitudeDegrees>
            </Position>
            <AltitudeMeters>2413</AltitudeMeters>
            <DistanceMeters>NAN</DistanceMeters>
          </Trackpoint>
          <Trackpoint>
            <Time>2022-08-22T09:25:44.000Z</Time>
            <Position>
              <LatitudeDegrees>42.82335855066776275634765625</LatitudeDegrees>
              <LongitudeDegrees>-0.284499228000640869140625</LongitudeDegrees>
            </Position>
            <AltitudeMeters>2412.800048828125</AltitudeMeters>
            <DistanceMeters>NAN</DistanceMeters>
          </Trackpoint>
          <Trackpoint>
            <Time>2022-08-22T09:25:50.000Z</Time>
            <Position>
              <LatitudeDegrees>42.8233325667679309844970703125</LatitudeDegrees>
              <LongitudeDegrees>-0.28449545614421367645263671875</LongitudeDegrees>
            </Position>
            <AltitudeMeters>2411.199951171875</AltitudeMeters>
            <DistanceMeters>NAN</DistanceMeters>
          </Trackpoint>
          <Trackpoint>
            <Time>2022-08-22T09:25:54.000Z</Time>
            <Position>
              <LatitudeDegrees>42.8233104385435581207275390625</LatitudeDegrees>
              <LongitudeDegrees>-0.2844846434891223907470703125</LongitudeDegrees>
            </Position>
            <AltitudeMeters>2409.60009765625</AltitudeMeters>
            <DistanceMeters>NAN</DistanceMeters>
          </Trackpoint>
          <Trackpoint>
            <Time>2022-08-22T09:25:56.000Z</Time>
            <Position>
              <LatitudeDegrees>42.82329224981367588043212890625</LatitudeDegrees>
              <LongitudeDegrees>-0.2844762615859508514404296875</LongitudeDegrees>
            </Position>
            <AltitudeMeters>2408.39990234375</AltitudeMeters>
            <DistanceMeters>NAN</DistanceMeters>
          </Trackpoint>
          <Trackpoint>
            <Time>2022-08-22T09:25:59.000Z</Time>
            <Position>
              <LatitudeDegrees>42.82326241023838520050048828125</LatitudeDegrees>
              <LongitudeDegrees>-0.2844769321382045745849609375</LongitudeDegrees>
            </Position>
            <AltitudeMeters>2406.800048828125</AltitudeMeters>
            <DistanceMeters>NAN</DistanceMeters>
          </Trackpoint>
          <Trackpoint>
            <Time>2022-08-22T09:26:02.000Z</Time>
            <Position>
              <LatitudeDegrees>42.82323474995791912078857421875</LatitudeDegrees>
              <LongitudeDegrees>-0.284509621560573577880859375</LongitudeDegrees>
            </Position>
            <AltitudeMeters>2406.60009765625</AltitudeMeters>
            <DistanceMeters>NAN</DistanceMeters>
          </Trackpoint>
          <Trackpoint>
            <Time>2022-08-22T09:26:10.000Z</Time>
            <Position>
              <LatitudeDegrees>42.82318479381501674652099609375</LatitudeDegrees>
              <LongitudeDegrees>-0.2846204303205013275146484375</LongitudeDegrees>
            </Position>
            <AltitudeMeters>2407.60009765625</AltitudeMeters>
            <DistanceMeters>NAN</DistanceMeters>
          </Trackpoint>
          <Trackpoint>
            <Time>2022-08-22T09:26:14.000Z</Time>
            <Position>
              <LatitudeDegrees>42.82312980853021144866943359375</LatitudeDegrees>
              <LongitudeDegrees>-0.2846351824700832366943359375</LongitudeDegrees>
            </Position>
            <AltitudeMeters>2405</AltitudeMeters>
            <DistanceMeters>NAN</DistanceMeters>
          </Trackpoint>
          <Trackpoint>
            <Time>2022-08-22T09:26:21.000Z</Time>
            <Position>
              <LatitudeDegrees>42.82308571971952915191650390625</LatitudeDegrees>
              <LongitudeDegrees>-0.2846841327846050262451171875</LongitudeDegrees>
            </Position>
            <AltitudeMeters>2403.39990234375</AltitudeMeters>
            <DistanceMeters>NAN</DistanceMeters>
          </Trackpoint>
          <Trackpoint>
            <Time>2022-08-22T09:26:26.000Z</Time>
            <Position>
              <LatitudeDegrees>42.823055125772953033447265625</LatitudeDegrees>
              <LongitudeDegrees>-0.28477138839662075042724609375</LongitudeDegrees>
            </Position>
            <AltitudeMeters>2402.800048828125</AltitudeMeters>
            <DistanceMeters>NAN</DistanceMeters>
          </Trackpoint>
          <Trackpoint>
            <Time>2022-08-22T09:26:33.000Z</Time>
            <Position>
              <LatitudeDegrees>42.82301656901836395263671875</LatitudeDegrees>
              <LongitudeDegrees>-0.28486241586506366729736328125</LongitudeDegrees>
            </Position>
            <AltitudeMeters>2401.60009765625</AltitudeMeters>
            <DistanceMeters>NAN</DistanceMeters>
          </Trackpoint>
          <Trackpoint>
            <Time>2022-08-22T09:26:36.000Z</Time>
            <Position>
              <LatitudeDegrees>42.82299988903105258941650390625</LatitudeDegrees>
              <LongitudeDegrees>-0.28483341448009014129638671875</LongitudeDegrees>
            </Position>
            <AltitudeMeters>2400</AltitudeMeters>
            <DistanceMeters>NAN</DistanceMeters>
          </Trackpoint>
          <Trackpoint>
            <Time>2022-08-22T09:26:39.000Z</Time>
            <Position>
              <LatitudeDegrees>42.82297323457896709442138671875</LatitudeDegrees>
              <LongitudeDegrees>-0.2847964502871036529541015625</LongitudeDegrees>
            </Position>
            <AltitudeMeters>2397.60009765625</AltitudeMeters>
            <DistanceMeters>NAN</DistanceMeters>
          </Trackpoint>
          <Trackpoint>
            <Time>2022-08-22T09:26:40.000Z</Time>
            <Position>
              <LatitudeDegrees>42.82296158373355865478515625</LatitudeDegrees>
              <LongitudeDegrees>-0.2847907505929470062255859375</LongitudeDegrees>
            </Position>
            <AltitudeMeters>2396.800048828125</AltitudeMeters>
            <DistanceMeters>NAN</DistanceMeters>
          </Trackpoint>
          <Trackpoint>
            <Time>2022-08-22T09:26:41.000Z</Time>
            <Position>
              <LatitudeDegrees>42.82293903641402721405029296875</LatitudeDegrees>
              <LongitudeDegrees>-0.284808687865734100341796875</LongitudeDegrees>
            </Position>
            <AltitudeMeters>2395.60009765625</AltitudeMeters>
            <DistanceMeters>NAN</DistanceMeters>
          </Trackpoint>
          <Trackpoint>
            <Time>2022-08-22T09:26:43.000Z</Time>
            <Position>
              <LatitudeDegrees>42.82293149270117282867431640625</LatitudeDegrees>
              <LongitudeDegrees>-0.2848249487578868865966796875</LongitudeDegrees>
            </Position>
            <AltitudeMeters>2395.39990234375</AltitudeMeters>
            <DistanceMeters>NAN</DistanceMeters>
          </Trackpoint>
          <Trackpoint>
            <Time>2022-08-22T09:26:44.000Z</Time>
            <Position>
              <LatitudeDegrees>42.822926379740238189697265625</LatitudeDegrees>
              <LongitudeDegrees>-0.28483978472650051116943359375</LongitudeDegrees>
            </Position>
            <AltitudeMeters>2395.199951171875</AltitudeMeters>
            <DistanceMeters>NAN</DistanceMeters>
          </Trackpoint>
          <Trackpoint>
            <Time>2022-08-22T09:26:45.000Z</Time>
            <Position>
              <LatitudeDegrees>42.82291942276060581207275390625</LatitudeDegrees>
              <LongitudeDegrees>-0.28485168702900409698486328125</LongitudeDegrees>
            </Position>
            <AltitudeMeters>2395</AltitudeMeters>
            <DistanceMeters>NAN</DistanceMeters>
          </Trackpoint>
          <Trackpoint>
            <Time>2022-08-22T09:26:46.000Z</Time>
            <Position>
              <LatitudeDegrees>42.8229158185422420501708984375</LatitudeDegrees>
              <LongitudeDegrees>-0.28486275114119052886962890625</LongitudeDegrees>
            </Position>
            <AltitudeMeters>2395</AltitudeMeters>
            <DistanceMeters>NAN</DistanceMeters>
          </Trackpoint>
          <Trackpoint>
            <Time>2022-08-22T09:26:48.000Z</Time>
            <Position>
              <LatitudeDegrees>42.822910286486148834228515625</LatitudeDegrees>
              <LongitudeDegrees>-0.28488638810813426971435546875</LongitudeDegrees>
            </Position>
            <AltitudeMeters>2395</AltitudeMeters>
            <DistanceMeters>NAN</DistanceMeters>
          </Trackpoint>
          <Trackpoint>
            <Time>2022-08-22T09:26:50.000Z</Time>
            <Position>
              <LatitudeDegrees>42.82289846800267696380615234375</LatitudeDegrees>
              <LongitudeDegrees>-0.28491538949310779571533203125</LongitudeDegrees>
            </Position>
            <AltitudeMeters>2394.60009765625</AltitudeMeters>
            <DistanceMeters>NAN</DistanceMeters>
          </Trackpoint>
          <Trackpoint>
            <Time>2022-08-22T09:26:57.000Z</Time>
            <Position>
              <LatitudeDegrees>42.8228316642343997955322265625</LatitudeDegrees>
              <LongitudeDegrees>-0.28501714579761028289794921875</LongitudeDegrees>
            </Position>
            <AltitudeMeters>2391.39990234375</AltitudeMeters>
            <DistanceMeters>NAN</DistanceMeters>
          </Trackpoint>
          <Trackpoint>
            <Time>2022-08-22T09:26:58.000Z</Time>
            <Position>
              <LatitudeDegrees>42.82282479107379913330078125</LatitudeDegrees>
              <LongitudeDegrees>-0.28502921573817729949951171875</LongitudeDegrees>
            </Position>
            <AltitudeMeters>2391</AltitudeMeters>
            <DistanceMeters>NAN</DistanceMeters>
          </Trackpoint>
          <Trackpoint>
            <Time>2022-08-22T09:26:59.000Z</Time>
            <Position>
              <LatitudeDegrees>42.8228162415325641632080078125</LatitudeDegrees>
              <LongitudeDegrees>-0.285038016736507415771484375</LongitudeDegrees>
            </Position>
            <AltitudeMeters>2390.60009765625</AltitudeMeters>
            <DistanceMeters>NAN</DistanceMeters>
          </Trackpoint>
          <Trackpoint>
            <Time>2022-08-22T09:27:03.000Z</Time>
            <Position>
              <LatitudeDegrees>42.82279721461236476898193359375</LatitudeDegrees>
              <LongitudeDegrees>-0.28504648245871067047119140625</LongitudeDegrees>
            </Position>
            <AltitudeMeters>2389</AltitudeMeters>
            <DistanceMeters>NAN</DistanceMeters>
          </Trackpoint>
          <Trackpoint>
            <Time>2022-08-22T09:27:04.000Z</Time>
            <Position>
              <LatitudeDegrees>42.82279168255627155303955078125</LatitudeDegrees>
              <LongitudeDegrees>-0.2850344963371753692626953125</LongitudeDegrees>
            </Position>
            <AltitudeMeters>2388.39990234375</AltitudeMeters>
            <DistanceMeters>NAN</DistanceMeters>
          </Trackpoint>
          <Trackpoint>
            <Time>2022-08-22T09:27:05.000Z</Time>
            <Position>
              <LatitudeDegrees>42.8227837197482585906982421875</LatitudeDegrees>
              <LongitudeDegrees>-0.28502468951046466827392578125</LongitudeDegrees>
            </Position>
            <AltitudeMeters>2387.60009765625</AltitudeMeters>
            <DistanceMeters>NAN</DistanceMeters>
          </Trackpoint>
          <Trackpoint>
            <Time>2022-08-22T09:27:06.000Z</Time>
            <Position>
              <LatitudeDegrees>42.822773493826389312744140625</LatitudeDegrees>
              <LongitudeDegrees>-0.28502561151981353759765625</LongitudeDegrees>
            </Position>
            <AltitudeMeters>2386.60009765625</AltitudeMeters>
            <DistanceMeters>NAN</DistanceMeters>
          </Trackpoint>
          <Trackpoint>
            <Time>2022-08-22T09:27:07.000Z</Time>
            <Position>
              <LatitudeDegrees>42.82276712357997894287109375</LatitudeDegrees>
              <LongitudeDegrees>-0.28503474779427051544189453125</LongitudeDegrees>
            </Position>
            <AltitudeMeters>2386.39990234375</AltitudeMeters>
            <DistanceMeters>NAN</DistanceMeters>
          </Trackpoint>
          <Trackpoint>
            <Time>2022-08-22T09:27:08.000Z</Time>
            <Position>
              <LatitudeDegrees>42.82276335172355175018310546875</LatitudeDegrees>
              <LongitudeDegrees>-0.2850418724119663238525390625</LongitudeDegrees>
            </Position>
            <AltitudeMeters>2386.199951171875</AltitudeMeters>
            <DistanceMeters>NAN</DistanceMeters>
          </Trackpoint>
          <Trackpoint>
            <Time>2022-08-22T09:27:10.000Z</Time>
            <Position>
              <LatitudeDegrees>42.82275295816361904144287109375</LatitudeDegrees>
              <LongitudeDegrees>-0.28505503199994564056396484375</LongitudeDegrees>
            </Position>
            <AltitudeMeters>2385.60009765625</AltitudeMeters>
            <DistanceMeters>NAN</DistanceMeters>
          </Trackpoint>
          <Trackpoint>
            <Time>2022-08-22T09:27:11.000Z</Time>
            <Position>
              <LatitudeDegrees>42.8227481804788112640380859375</LatitudeDegrees>
              <LongitudeDegrees>-0.2850557863712310791015625</LongitudeDegrees>
            </Position>
            <AltitudeMeters>2385.199951171875</AltitudeMeters>
            <DistanceMeters>NAN</DistanceMeters>
          </Trackpoint>
          <Trackpoint>
            <Time>2022-08-22T09:27:14.000Z</Time>
            <Position>
              <LatitudeDegrees>42.82273384742438793182373046875</LatitudeDegrees>
              <LongitudeDegrees>-0.28502351604402065277099609375</LongitudeDegrees>
            </Position>
            <AltitudeMeters>2383</AltitudeMeters>
            <DistanceMeters>NAN</DistanceMeters>
          </Trackpoint>
          <Trackpoint>
            <Time>2022-08-22T09:27:15.000Z</Time>
            <Position>
              <LatitudeDegrees>42.82272932119667530059814453125</LatitudeDegrees>
              <LongitudeDegrees>-0.28500792570412158966064453125</LongitudeDegrees>
            </Position>
            <AltitudeMeters>2382.199951171875</AltitudeMeters>
            <DistanceMeters>NAN</DistanceMeters>
          </Trackpoint>
          <Trackpoint>
            <Time>2022-08-22T09:27:17.000Z</Time>
            <Position>
              <LatitudeDegrees>42.82271406613290309906005859375</LatitudeDegrees>
              <LongitudeDegrees>-0.284995101392269134521484375</LongitudeDegrees>
            </Position>
            <AltitudeMeters>2380.60009765625</AltitudeMeters>
            <DistanceMeters>NAN</DistanceMeters>
          </Trackpoint>
          <Trackpoint>
            <Time>2022-08-22T09:27:24.000Z</Time>
            <Position>
              <LatitudeDegrees>42.82269746996462345123291015625</LatitudeDegrees>
              <LongitudeDegrees>-0.28505251742899417877197265625</LongitudeDegrees>
            </Position>
            <AltitudeMeters>2380.60009765625</AltitudeMeters>
            <DistanceMeters>NAN</DistanceMeters>
          </Trackpoint>
          <Trackpoint>
            <Time>2022-08-22T09:27:33.000Z</Time>
            <Position>
              <LatitudeDegrees>42.82272932119667530059814453125</LatitudeDegrees>
              <LongitudeDegrees>-0.2850485779345035552978515625</LongitudeDegrees>
            </Position>
            <AltitudeMeters>2383.39990234375</AltitudeMeters>
            <DistanceMeters>NAN</DistanceMeters>
          </Trackpoint>
          <Trackpoint>
            <Time>2022-08-22T09:27:36.000Z</Time>
            <Position>
              <LatitudeDegrees>42.82273921184241771697998046875</LatitudeDegrees>
              <LongitudeDegrees>-0.285056121647357940673828125</LongitudeDegrees>
            </Position>
            <AltitudeMeters>2384.39990234375</AltitudeMeters>
            <DistanceMeters>NAN</DistanceMeters>
          </Trackpoint>
          <Trackpoint>
            <Time>2022-08-22T09:27:40.000Z</Time>
            <Position>
              <LatitudeDegrees>42.82273896038532257080078125</LatitudeDegrees>
              <LongitudeDegrees>-0.28507229872047901153564453125</LongitudeDegrees>
            </Position>
            <AltitudeMeters>2384.800048828125</AltitudeMeters>
            <DistanceMeters>NAN</DistanceMeters>
          </Trackpoint>
          <Trackpoint>
            <Time>2022-08-22T09:27:51.000Z</Time>
            <Position>
              <LatitudeDegrees>42.8226754255592823028564453125</LatitudeDegrees>
              <LongitudeDegrees>-0.2851308882236480712890625</LongitudeDegrees>
            </Position>
            <AltitudeMeters>2380.60009765625</AltitudeMeters>
            <DistanceMeters>NAN</DistanceMeters>
          </Trackpoint>
          <Trackpoint>
            <Time>2022-08-22T09:27:53.000Z</Time>
            <Position>
              <LatitudeDegrees>42.82266695983707904815673828125</LatitudeDegrees>
              <LongitudeDegrees>-0.285147987306118011474609375</LongitudeDegrees>
            </Position>
            <AltitudeMeters>2380.199951171875</AltitudeMeters>
            <DistanceMeters>NAN</DistanceMeters>
          </Trackpoint>
          <Trackpoint>
            <Time>2022-08-22T09:27:57.000Z</Time>
            <Position>
              <LatitudeDegrees>42.82262622378766536712646484375</LatitudeDegrees>
              <LongitudeDegrees>-0.28515393845736980438232421875</LongitudeDegrees>
            </Position>
            <AltitudeMeters>2376.60009765625</AltitudeMeters>
            <DistanceMeters>NAN</DistanceMeters>
          </Trackpoint>
          <Trackpoint>
            <Time>2022-08-22T09:27:59.000Z</Time>
            <Position>
              <LatitudeDegrees>42.82260325737297534942626953125</LatitudeDegrees>
              <LongitudeDegrees>-0.2851488254964351654052734375</LongitudeDegrees>
            </Position>
            <AltitudeMeters>2374.39990234375</AltitudeMeters>
            <DistanceMeters>NAN</DistanceMeters>
          </Trackpoint>
          <Trackpoint>
            <Time>2022-08-22T09:28:02.000Z</Time>
            <Position>
              <LatitudeDegrees>42.82258112914860248565673828125</LatitudeDegrees>
              <LongitudeDegrees>-0.285156704485416412353515625</LongitudeDegrees>
            </Position>
            <AltitudeMeters>2372.800048828125</AltitudeMeters>
            <DistanceMeters>NAN</DistanceMeters>
          </Trackpoint>
          <Trackpoint>
            <Time>2022-08-22T09:28:08.000Z</Time>
            <Position>
              <LatitudeDegrees>42.822540141642093658447265625</LatitudeDegrees>
              <LongitudeDegrees>-0.28517707251012325286865234375</LongitudeDegrees>
            </Position>
            <AltitudeMeters>2369.60009765625</AltitudeMeters>
            <DistanceMeters>NAN</DistanceMeters>
          </Trackpoint>
          <Trackpoint>
            <Time>2022-08-22T09:28:11.000Z</Time>
            <Position>
              <LatitudeDegrees>42.82251558266580104827880859375</LatitudeDegrees>
              <LongitudeDegrees>-0.285186208784580230712890625</LongitudeDegrees>
            </Position>
            <AltitudeMeters>2367.800048828125</AltitudeMeters>
            <DistanceMeters>NAN</DistanceMeters>
          </Trackpoint>
          <Trackpoint>
            <Time>2022-08-22T09:28:12.000Z</Time>
            <Position>
              <LatitudeDegrees>42.82250703312456607818603515625</LatitudeDegrees>
              <LongitudeDegrees>-0.28517841361463069915771484375</LongitudeDegrees>
            </Position>
            <AltitudeMeters>2366.800048828125</AltitudeMeters>
            <DistanceMeters>NAN</DistanceMeters>
          </Trackpoint>
          <Trackpoint>
            <Time>2022-08-22T09:28:20.000Z</Time>
            <Position>
              <LatitudeDegrees>42.82247610390186309814453125</LatitudeDegrees>
              <LongitudeDegrees>-0.285142622888088226318359375</LongitudeDegrees>
            </Position>
            <AltitudeMeters>2363.199951171875</AltitudeMeters>
            <DistanceMeters>NAN</DistanceMeters>
          </Trackpoint>
          <Trackpoint>
            <Time>2022-08-22T09:28:21.000Z</Time>
            <Position>
              <LatitudeDegrees>42.82247568480670452117919921875</LatitudeDegrees>
              <LongitudeDegrees>-0.2851404435932636260986328125</LongitudeDegrees>
            </Position>
            <AltitudeMeters>2363.199951171875</AltitudeMeters>
            <DistanceMeters>NAN</DistanceMeters>
          </Trackpoint>
          <Trackpoint>
            <Time>2022-08-22T09:28:24.000Z</Time>
            <Position>
              <LatitudeDegrees>42.82247501425445079803466796875</LatitudeDegrees>
              <LongitudeDegrees>-0.2851362526416778564453125</LongitudeDegrees>
            </Position>
            <AltitudeMeters>2363</AltitudeMeters>
            <DistanceMeters>NAN</DistanceMeters>
          </Trackpoint>
          <Trackpoint>
            <Time>2022-08-22T09:28:25.000Z</Time>
            <Position>
              <LatitudeDegrees>42.82246763817965984344482421875</LatitudeDegrees>
              <LongitudeDegrees>-0.2851216681301593780517578125</LongitudeDegrees>
            </Position>
            <AltitudeMeters>2362</AltitudeMeters>
            <DistanceMeters>NAN</DistanceMeters>
          </Trackpoint>
          <Trackpoint>
            <Time>2022-08-22T09:28:26.000Z</Time>
            <Position>
              <LatitudeDegrees>42.82246763817965984344482421875</LatitudeDegrees>
              <LongitudeDegrees>-0.2851216681301593780517578125</LongitudeDegrees>
            </Position>
            <AltitudeMeters>2362</AltitudeMeters>
            <DistanceMeters>NAN</DistanceMeters>
          </Trackpoint>
          <Trackpoint>
            <Time>2022-08-22T09:28:29.000Z</Time>
            <Position>
              <LatitudeDegrees>42.82245062291622161865234375</LatitudeDegrees>
              <LongitudeDegrees>-0.28512611053884029388427734375</LongitudeDegrees>
            </Position>
            <AltitudeMeters>2360.60009765625</AltitudeMeters>
            <DistanceMeters>NAN</DistanceMeters>
          </Trackpoint>
          <Trackpoint>
            <Time>2022-08-22T09:28:37.000Z</Time>
            <Position>
              <LatitudeDegrees>42.8224216215312480926513671875</LatitudeDegrees>
              <LongitudeDegrees>-0.285182856023311614990234375</LongitudeDegrees>
            </Position>
            <AltitudeMeters>2359.60009765625</AltitudeMeters>
            <DistanceMeters>NAN</DistanceMeters>
          </Trackpoint>
          <Trackpoint>
            <Time>2022-08-22T09:28:42.000Z</Time>
            <Position>
              <LatitudeDegrees>42.82239035703241825103759765625</LatitudeDegrees>
              <LongitudeDegrees>-0.28520674444735050201416015625</LongitudeDegrees>
            </Position>
            <AltitudeMeters>2357.60009765625</AltitudeMeters>
            <DistanceMeters>NAN</DistanceMeters>
          </Trackpoint>
          <Trackpoint>
            <Time>2022-08-22T09:28:43.000Z</Time>
            <Position>
              <LatitudeDegrees>42.82237862236797809600830078125</LatitudeDegrees>
              <LongitudeDegrees>-0.28520724736154079437255859375</LongitudeDegrees>
            </Position>
            <AltitudeMeters>2356.60009765625</AltitudeMeters>
            <DistanceMeters>NAN</DistanceMeters>
          </Trackpoint>
          <Trackpoint>
            <Time>2022-08-22T09:28:44.000Z</Time>
            <Position>
              <LatitudeDegrees>42.82237862236797809600830078125</LatitudeDegrees>
              <LongitudeDegrees>-0.28520724736154079437255859375</LongitudeDegrees>
            </Position>
            <AltitudeMeters>2356.60009765625</AltitudeMeters>
            <DistanceMeters>NAN</DistanceMeters>
          </Trackpoint>
          <Trackpoint>
            <Time>2022-08-22T09:28:46.000Z</Time>
            <Position>
              <LatitudeDegrees>42.8223606012761592864990234375</LatitudeDegrees>
              <LongitudeDegrees>-0.2851934172213077545166015625</LongitudeDegrees>
            </Position>
            <AltitudeMeters>2354.60009765625</AltitudeMeters>
            <DistanceMeters>NAN</DistanceMeters>
          </Trackpoint>
          <Trackpoint>
            <Time>2022-08-22T09:28:49.000Z</Time>
            <Position>
              <LatitudeDegrees>42.82233185134828090667724609375</LatitudeDegrees>
              <LongitudeDegrees>-0.28517782688140869140625</LongitudeDegrees>
            </Position>
            <AltitudeMeters>2352</AltitudeMeters>
            <DistanceMeters>NAN</DistanceMeters>
          </Trackpoint>
          <Trackpoint>
            <Time>2022-08-22T09:28:51.000Z</Time>
            <Position>
              <LatitudeDegrees>42.82231651246547698974609375</LatitudeDegrees>
              <LongitudeDegrees>-0.2851555310189723968505859375</LongitudeDegrees>
            </Position>
            <AltitudeMeters>2350.800048828125</AltitudeMeters>
            <DistanceMeters>NAN</DistanceMeters>
          </Trackpoint>
          <Trackpoint>
            <Time>2022-08-22T09:28:54.000Z</Time>
            <Position>
              <LatitudeDegrees>42.82229782082140445709228515625</LatitudeDegrees>
              <LongitudeDegrees>-0.2851121127605438232421875</LongitudeDegrees>
            </Position>
            <AltitudeMeters>2349.800048828125</AltitudeMeters>
            <DistanceMeters>NAN</DistanceMeters>
          </Trackpoint>
          <Trackpoint>
            <Time>2022-08-22T09:29:04.000Z</Time>
            <Position>
              <LatitudeDegrees>42.8222308494150638580322265625</LatitudeDegrees>
              <LongitudeDegrees>-0.28506374917924404144287109375</LongitudeDegrees>
            </Position>
            <AltitudeMeters>2347.60009765625</AltitudeMeters>
            <DistanceMeters>NAN</DistanceMeters>
          </Trackpoint>
          <Trackpoint>
            <Time>2022-08-22T09:29:09.000Z</Time>
            <Position>
              <LatitudeDegrees>42.82217762432992458343505859375</LatitudeDegrees>
              <LongitudeDegrees>-0.285089649260044097900390625</LongitudeDegrees>
            </Position>
            <AltitudeMeters>2346.199951171875</AltitudeMeters>
            <DistanceMeters>NAN</DistanceMeters>
          </Trackpoint>
          <Trackpoint>
            <Time>2022-08-22T09:29:10.000Z</Time>
            <Position>
              <LatitudeDegrees>42.82216806896030902862548828125</LatitudeDegrees>
              <LongitudeDegrees>-0.2850948460400104522705078125</LongitudeDegrees>
            </Position>
            <AltitudeMeters>2346</AltitudeMeters>
            <DistanceMeters>NAN</DistanceMeters>
          </Trackpoint>
          <Trackpoint>
            <Time>2022-08-22T09:29:11.000Z</Time>
            <Position>
              <LatitudeDegrees>42.8221594356000423431396484375</LatitudeDegrees>
              <LongitudeDegrees>-0.28510130010545253753662109375</LongitudeDegrees>
            </Position>
            <AltitudeMeters>2345.800048828125</AltitudeMeters>
            <DistanceMeters>NAN</DistanceMeters>
          </Trackpoint>
          <Trackpoint>
            <Time>2022-08-22T09:29:16.000Z</Time>
            <Position>
              <LatitudeDegrees>42.82211760990321636199951171875</LatitudeDegrees>
              <LongitudeDegrees>-0.28509744442999362945556640625</LongitudeDegrees>
            </Position>
            <AltitudeMeters>2344.199951171875</AltitudeMeters>
            <DistanceMeters>NAN</DistanceMeters>
          </Trackpoint>
          <Trackpoint>
            <Time>2022-08-22T09:29:21.000Z</Time>
            <Position>
              <LatitudeDegrees>42.8220809809863567352294921875</LatitudeDegrees>
              <LongitudeDegrees>-0.28510465286672115325927734375</LongitudeDegrees>
            </Position>
            <AltitudeMeters>2342.800048828125</AltitudeMeters>
            <DistanceMeters>NAN</DistanceMeters>
          </Trackpoint>
          <Trackpoint>
            <Time>2022-08-22T09:29:24.000Z</Time>
            <Position>
              <LatitudeDegrees>42.8220534883439540863037109375</LatitudeDegrees>
              <LongitudeDegrees>-0.28513264842331409454345703125</LongitudeDegrees>
            </Position>
            <AltitudeMeters>2342.199951171875</AltitudeMeters>
            <DistanceMeters>NAN</DistanceMeters>
          </Trackpoint>
          <Trackpoint>
            <Time>2022-08-22T09:29:29.000Z</Time>
            <Position>
              <LatitudeDegrees>42.82202339731156826019287109375</LatitudeDegrees>
              <LongitudeDegrees>-0.28517321683466434478759765625</LongitudeDegrees>
            </Position>
            <AltitudeMeters>2342</AltitudeMeters>
            <DistanceMeters>NAN</DistanceMeters>
          </Trackpoint>
          <Trackpoint>
            <Time>2022-08-22T09:29:32.000Z</Time>
            <Position>
              <LatitudeDegrees>42.8219954855740070343017578125</LatitudeDegrees>
              <LongitudeDegrees>-0.28518042527139186859130859375</LongitudeDegrees>
            </Position>
            <AltitudeMeters>2341.39990234375</AltitudeMeters>
            <DistanceMeters>NAN</DistanceMeters>
          </Trackpoint>
          <Trackpoint>
            <Time>2022-08-22T09:29:46.000Z</Time>
            <Position>
              <LatitudeDegrees>42.82187872566282749176025390625</LatitudeDegrees>
              <LongitudeDegrees>-0.28518092818558216094970703125</LongitudeDegrees>
            </Position>
            <AltitudeMeters>2338.39990234375</AltitudeMeters>
            <DistanceMeters>NAN</DistanceMeters>
          </Trackpoint>
          <Trackpoint>
            <Time>2022-08-22T09:29:47.000Z</Time>
            <Position>
              <LatitudeDegrees>42.82187151722609996795654296875</LatitudeDegrees>
              <LongitudeDegrees>-0.2851711213588714599609375</LongitudeDegrees>
            </Position>
            <AltitudeMeters>2338</AltitudeMeters>
            <DistanceMeters>NAN</DistanceMeters>
          </Trackpoint>
          <Trackpoint>
            <Time>2022-08-22T09:30:03.000Z</Time>
            <Position>
              <LatitudeDegrees>42.821700274944305419921875</LatitudeDegrees>
              <LongitudeDegrees>-0.2850737236440181732177734375</LongitudeDegrees>
            </Position>
            <AltitudeMeters>2332</AltitudeMeters>
            <DistanceMeters>NAN</DistanceMeters>
          </Trackpoint>
          <Trackpoint>
            <Time>2022-08-22T09:30:08.000Z</Time>
            <Position>
              <LatitudeDegrees>42.82161838375031948089599609375</LatitudeDegrees>
              <LongitudeDegrees>-0.28507933951914310455322265625</LongitudeDegrees>
            </Position>
            <AltitudeMeters>2331.60009765625</AltitudeMeters>
            <DistanceMeters>NAN</DistanceMeters>
          </Trackpoint>
          <Trackpoint>
            <Time>2022-08-22T09:30:13.000Z</Time>
            <Position>
              <LatitudeDegrees>42.821567840874195098876953125</LatitudeDegrees>
              <LongitudeDegrees>-0.2851196564733982086181640625</LongitudeDegrees>
            </Position>
            <AltitudeMeters>2331.800048828125</AltitudeMeters>
            <DistanceMeters>NAN</DistanceMeters>
          </Trackpoint>
          <Trackpoint>
            <Time>2022-08-22T09:30:17.000Z</Time>
            <Position>
              <LatitudeDegrees>42.8215341456234455108642578125</LatitudeDegrees>
              <LongitudeDegrees>-0.2851072512567043304443359375</LongitudeDegrees>
            </Position>
            <AltitudeMeters>2329.39990234375</AltitudeMeters>
            <DistanceMeters>NAN</DistanceMeters>
          </Trackpoint>
          <Trackpoint>
            <Time>2022-08-22T09:30:29.000Z</Time>
            <Position>
              <LatitudeDegrees>42.82135284505784511566162109375</LatitudeDegrees>
              <LongitudeDegrees>-0.28508462011814117431640625</LongitudeDegrees>
            </Position>
            <AltitudeMeters>2321.800048828125</AltitudeMeters>
            <DistanceMeters>NAN</DistanceMeters>
          </Trackpoint>
          <Trackpoint>
            <Time>2022-08-22T09:30:34.000Z</Time>
            <Position>
              <LatitudeDegrees>42.82126852311193943023681640625</LatitudeDegrees>
              <LongitudeDegrees>-0.28506928123533725738525390625</LongitudeDegrees>
            </Position>
            <AltitudeMeters>2319.39990234375</AltitudeMeters>
            <DistanceMeters>NAN</DistanceMeters>
          </Trackpoint>
          <Trackpoint>
            <Time>2022-08-22T09:30:37.000Z</Time>
            <Position>
              <LatitudeDegrees>42.821244634687900543212890625</LatitudeDegrees>
              <LongitudeDegrees>-0.28508369810879230499267578125</LongitudeDegrees>
            </Position>
            <AltitudeMeters>2319.800048828125</AltitudeMeters>
            <DistanceMeters>NAN</DistanceMeters>
          </Trackpoint>
          <Trackpoint>
            <Time>2022-08-22T09:30:41.000Z</Time>
            <Position>
              <LatitudeDegrees>42.82119509764015674591064453125</LatitudeDegrees>
              <LongitudeDegrees>-0.28510532341897487640380859375</LongitudeDegrees>
            </Position>
            <AltitudeMeters>2320</AltitudeMeters>
            <DistanceMeters>NAN</DistanceMeters>
          </Trackpoint>
          <Trackpoint>
            <Time>2022-08-22T09:30:42.000Z</Time>
            <Position>
              <LatitudeDegrees>42.82117447815835475921630859375</LatitudeDegrees>
              <LongitudeDegrees>-0.285108089447021484375</LongitudeDegrees>
            </Position>
            <AltitudeMeters>2319.199951171875</AltitudeMeters>
            <DistanceMeters>NAN</DistanceMeters>
          </Trackpoint>
          <Trackpoint>
            <Time>2022-08-22T09:30:44.000Z</Time>
            <Position>
              <LatitudeDegrees>42.82112552784383296966552734375</LatitudeDegrees>
              <LongitudeDegrees>-0.285103060305118560791015625</LongitudeDegrees>
            </Position>
            <AltitudeMeters>2316.39990234375</AltitudeMeters>
            <DistanceMeters>NAN</DistanceMeters>
          </Trackpoint>
          <Trackpoint>
            <Time>2022-08-22T09:30:45.000Z</Time>
            <Position>
              <LatitudeDegrees>42.82108361832797527313232421875</LatitudeDegrees>
              <LongitudeDegrees>-0.28508218936622142791748046875</LongitudeDegrees>
            </Position>
            <AltitudeMeters>2313.199951171875</AltitudeMeters>
            <DistanceMeters>NAN</DistanceMeters>
          </Trackpoint>
          <Trackpoint>
            <Time>2022-08-22T09:30:49.000Z</Time>
            <Position>
              <LatitudeDegrees>42.821020670235157012939453125</LatitudeDegrees>
              <LongitudeDegrees>-0.285076238214969635009765625</LongitudeDegrees>
            </Position>
            <AltitudeMeters>2311</AltitudeMeters>
            <DistanceMeters>NAN</DistanceMeters>
          </Trackpoint>
          <Trackpoint>
            <Time>2022-08-22T09:30:52.000Z</Time>
            <Position>
              <LatitudeDegrees>42.820949256420135498046875</LatitudeDegrees>
              <LongitudeDegrees>-0.2851040661334991455078125</LongitudeDegrees>
            </Position>
            <AltitudeMeters>2310.199951171875</AltitudeMeters>
            <DistanceMeters>NAN</DistanceMeters>
          </Trackpoint>
          <Trackpoint>
            <Time>2022-08-22T09:30:53.000Z</Time>
            <Position>
              <LatitudeDegrees>42.820928134024143218994140625</LatitudeDegrees>
              <LongitudeDegrees>-0.2851106040179729461669921875</LongitudeDegrees>
            </Position>
            <AltitudeMeters>2309.800048828125</AltitudeMeters>
            <DistanceMeters>NAN</DistanceMeters>
          </Trackpoint>
          <Trackpoint>
            <Time>2022-08-22T09:30:54.000Z</Time>
            <Position>
              <LatitudeDegrees>42.82090843655169010162353515625</LatitudeDegrees>
              <LongitudeDegrees>-0.28511286713182926177978515625</LongitudeDegrees>
            </Position>
            <AltitudeMeters>2309.39990234375</AltitudeMeters>
            <DistanceMeters>NAN</DistanceMeters>
          </Trackpoint>
          <Trackpoint>
            <Time>2022-08-22T09:30:55.000Z</Time>
            <Position>
              <LatitudeDegrees>42.820893935859203338623046875</LatitudeDegrees>
              <LongitudeDegrees>-0.2851132862269878387451171875</LongitudeDegrees>
            </Position>
            <AltitudeMeters>2309.199951171875</AltitudeMeters>
            <DistanceMeters>NAN</DistanceMeters>
          </Trackpoint>
          <Trackpoint>
            <Time>2022-08-22T09:30:56.000Z</Time>
            <Position>
              <LatitudeDegrees>42.82086677849292755126953125</LatitudeDegrees>
              <LongitudeDegrees>-0.28511286713182926177978515625</LongitudeDegrees>
            </Position>
            <AltitudeMeters>2308.800048828125</AltitudeMeters>
            <DistanceMeters>NAN</DistanceMeters>
          </Trackpoint>
          <Trackpoint>
            <Time>2022-08-22T09:30:59.000Z</Time>
            <Position>
              <LatitudeDegrees>42.8208446502685546875</LatitudeDegrees>
              <LongitudeDegrees>-0.28512778691947460174560546875</LongitudeDegrees>
            </Position>
            <AltitudeMeters>2308.60009765625</AltitudeMeters>
            <DistanceMeters>NAN</DistanceMeters>
          </Trackpoint>
          <Trackpoint>
            <Time>2022-08-22T09:31:01.000Z</Time>
            <Position>
              <LatitudeDegrees>42.820816822350025177001953125</LatitudeDegrees>
              <LongitudeDegrees>-0.2851622365415096282958984375</LongitudeDegrees>
            </Position>
            <AltitudeMeters>2308.800048828125</AltitudeMeters>
            <DistanceMeters>NAN</DistanceMeters>
          </Trackpoint>
          <Trackpoint>
            <Time>2022-08-22T09:31:02.000Z</Time>
            <Position>
              <LatitudeDegrees>42.820816822350025177001953125</LatitudeDegrees>
              <LongitudeDegrees>-0.2851622365415096282958984375</LongitudeDegrees>
            </Position>
            <AltitudeMeters>2308.800048828125</AltitudeMeters>
            <DistanceMeters>NAN</DistanceMeters>
          </Trackpoint>
          <Trackpoint>
            <Time>2022-08-22T09:31:03.000Z</Time>
            <Position>
              <LatitudeDegrees>42.82080869190394878387451171875</LatitudeDegrees>
              <LongitudeDegrees>-0.2851719595491886138916015625</LongitudeDegrees>
            </Position>
            <AltitudeMeters>2309</AltitudeMeters>
            <DistanceMeters>NAN</DistanceMeters>
          </Trackpoint>
          <Trackpoint>
            <Time>2022-08-22T09:31:06.000Z</Time>
            <Position>
              <LatitudeDegrees>42.82077767886221408843994140625</LatitudeDegrees>
              <LongitudeDegrees>-0.28518520295619964599609375</LongitudeDegrees>
            </Position>
            <AltitudeMeters>2308.60009765625</AltitudeMeters>
            <DistanceMeters>NAN</DistanceMeters>
          </Trackpoint>
          <Trackpoint>
            <Time>2022-08-22T09:31:11.000Z</Time>
            <Position>
              <LatitudeDegrees>42.8206882439553737640380859375</LatitudeDegrees>
              <LongitudeDegrees>-0.28519081883132457733154296875</LongitudeDegrees>
            </Position>
            <AltitudeMeters>2307.199951171875</AltitudeMeters>
            <DistanceMeters>NAN</DistanceMeters>
          </Trackpoint>
          <Trackpoint>
            <Time>2022-08-22T09:31:12.000Z</Time>
            <Position>
              <LatitudeDegrees>42.820654213428497314453125</LatitudeDegrees>
              <LongitudeDegrees>-0.28520221821963787078857421875</LongitudeDegrees>
            </Position>
            <AltitudeMeters>2306.800048828125</AltitudeMeters>
            <DistanceMeters>NAN</DistanceMeters>
          </Trackpoint>
          <Trackpoint>
            <Time>2022-08-22T09:31:13.000Z</Time>
            <Position>
              <LatitudeDegrees>42.820654213428497314453125</LatitudeDegrees>
              <LongitudeDegrees>-0.28520221821963787078857421875</LongitudeDegrees>
            </Position>
            <AltitudeMeters>2306.800048828125</AltitudeMeters>
            <DistanceMeters>NAN</DistanceMeters>
          </Trackpoint>
          <Trackpoint>
            <Time>2022-08-22T09:31:26.000Z</Time>
            <Position>
              <LatitudeDegrees>42.820474840700626373291015625</LatitudeDegrees>
              <LongitudeDegrees>-0.28520825318992137908935546875</LongitudeDegrees>
            </Position>
            <AltitudeMeters>2300.60009765625</AltitudeMeters>
            <DistanceMeters>NAN</DistanceMeters>
          </Trackpoint>
          <Trackpoint>
            <Time>2022-08-22T09:31:31.000Z</Time>
            <Position>
              <LatitudeDegrees>42.82041658647358417510986328125</LatitudeDegrees>
              <LongitudeDegrees>-0.28520272113382816314697265625</LongitudeDegrees>
            </Position>
            <AltitudeMeters>2298.199951171875</AltitudeMeters>
            <DistanceMeters>NAN</DistanceMeters>
          </Trackpoint>
          <Trackpoint>
            <Time>2022-08-22T09:31:32.000Z</Time>
            <Position>
              <LatitudeDegrees>42.8204156644642353057861328125</LatitudeDegrees>
              <LongitudeDegrees>-0.28522250242531299591064453125</LongitudeDegrees>
            </Position>
            <AltitudeMeters>2299</AltitudeMeters>
            <DistanceMeters>NAN</DistanceMeters>
          </Trackpoint>
          <Trackpoint>
            <Time>2022-08-22T09:31:35.000Z</Time>
            <Position>
              <LatitudeDegrees>42.820426560938358306884765625</LatitudeDegrees>
              <LongitudeDegrees>-0.285235159099102020263671875</LongitudeDegrees>
            </Position>
            <AltitudeMeters>2299.800048828125</AltitudeMeters>
            <DistanceMeters>NAN</DistanceMeters>
          </Trackpoint>
          <Trackpoint>
            <Time>2022-08-22T09:31:36.000Z</Time>
            <Position>
              <LatitudeDegrees>42.82042832113802433013916015625</LatitudeDegrees>
              <LongitudeDegrees>-0.2852648310363292694091796875</LongitudeDegrees>
            </Position>
            <AltitudeMeters>2300.800048828125</AltitudeMeters>
            <DistanceMeters>NAN</DistanceMeters>
          </Trackpoint>
          <Trackpoint>
            <Time>2022-08-22T09:31:51.000Z</Time>
            <Position>
              <LatitudeDegrees>42.820427231490612030029296875</LatitudeDegrees>
              <LongitudeDegrees>-0.28552592732012271881103515625</LongitudeDegrees>
            </Position>
            <AltitudeMeters>2309</AltitudeMeters>
            <DistanceMeters>NAN</DistanceMeters>
          </Trackpoint>
          <Trackpoint>
            <Time>2022-08-22T09:32:04.000Z</Time>
            <Position>
              <LatitudeDegrees>42.82038825564086437225341796875</LatitudeDegrees>
              <LongitudeDegrees>-0.285723321139812469482421875</LongitudeDegrees>
            </Position>
            <AltitudeMeters>2311.60009765625</AltitudeMeters>
            <DistanceMeters>NAN</DistanceMeters>
          </Trackpoint>
          <Trackpoint>
            <Time>2022-08-22T09:32:11.000Z</Time>
            <Position>
              <LatitudeDegrees>42.82034106552600860595703125</LatitudeDegrees>
              <LongitudeDegrees>-0.28584695421159267425537109375</LongitudeDegrees>
            </Position>
            <AltitudeMeters>2310.39990234375</AltitudeMeters>
            <DistanceMeters>NAN</DistanceMeters>
          </Trackpoint>
          <Trackpoint>
            <Time>2022-08-22T09:32:15.000Z</Time>
            <Position>
              <LatitudeDegrees>42.820322625339031219482421875</LatitudeDegrees>
              <LongitudeDegrees>-0.285923145711421966552734375</LongitudeDegrees>
            </Position>
            <AltitudeMeters>2309.199951171875</AltitudeMeters>
            <DistanceMeters>NAN</DistanceMeters>
          </Trackpoint>
          <Trackpoint>
            <Time>2022-08-22T09:32:25.000Z</Time>
            <Position>
              <LatitudeDegrees>42.82028381712734699249267578125</LatitudeDegrees>
              <LongitudeDegrees>-0.2860788814723491668701171875</LongitudeDegrees>
            </Position>
            <AltitudeMeters>2306.60009765625</AltitudeMeters>
            <DistanceMeters>NAN</DistanceMeters>
          </Trackpoint>
          <Trackpoint>
            <Time>2022-08-22T09:32:31.000Z</Time>
            <Position>
              <LatitudeDegrees>42.82025816850364208221435546875</LatitudeDegrees>
              <LongitudeDegrees>-0.28614602051675319671630859375</LongitudeDegrees>
            </Position>
            <AltitudeMeters>2304.39990234375</AltitudeMeters>
            <DistanceMeters>NAN</DistanceMeters>
          </Trackpoint>
          <Trackpoint>
            <Time>2022-08-22T09:32:37.000Z</Time>
            <Position>
              <LatitudeDegrees>42.82018373720347881317138671875</LatitudeDegrees>
              <LongitudeDegrees>-0.28617887757718563079833984375</LongitudeDegrees>
            </Position>
            <AltitudeMeters>2298.800048828125</AltitudeMeters>
            <DistanceMeters>NAN</DistanceMeters>
          </Trackpoint>
          <Trackpoint>
            <Time>2022-08-22T09:32:45.000Z</Time>
            <Position>
              <LatitudeDegrees>42.82014015130698680877685546875</LatitudeDegrees>
              <LongitudeDegrees>-0.28625397942960262298583984375</LongitudeDegrees>
            </Position>
            <AltitudeMeters>2295.199951171875</AltitudeMeters>
            <DistanceMeters>NAN</DistanceMeters>
          </Trackpoint>
          <Trackpoint>
            <Time>2022-08-22T09:32:49.000Z</Time>
            <Position>
              <LatitudeDegrees>42.82012707553803920745849609375</LatitudeDegrees>
              <LongitudeDegrees>-0.28629572130739688873291015625</LongitudeDegrees>
            </Position>
            <AltitudeMeters>2294</AltitudeMeters>
            <DistanceMeters>NAN</DistanceMeters>
          </Trackpoint>
          <Trackpoint>
            <Time>2022-08-22T09:32:51.000Z</Time>
            <Position>
              <LatitudeDegrees>42.82013797201216220855712890625</LatitudeDegrees>
              <LongitudeDegrees>-0.28632019646465778350830078125</LongitudeDegrees>
            </Position>
            <AltitudeMeters>2294.60009765625</AltitudeMeters>
            <DistanceMeters>NAN</DistanceMeters>
          </Trackpoint>
          <Trackpoint>
            <Time>2022-08-22T09:32:52.000Z</Time>
            <Position>
              <LatitudeDegrees>42.8201450966298580169677734375</LatitudeDegrees>
              <LongitudeDegrees>-0.28633880428969860076904296875</LongitudeDegrees>
            </Position>
            <AltitudeMeters>2295</AltitudeMeters>
            <DistanceMeters>NAN</DistanceMeters>
          </Trackpoint>
          <Trackpoint>
            <Time>2022-08-22T09:32:53.000Z</Time>
            <Position>
              <LatitudeDegrees>42.82014124095439910888671875</LatitudeDegrees>
              <LongitudeDegrees>-0.286347605288028717041015625</LongitudeDegrees>
            </Position>
            <AltitudeMeters>2294.60009765625</AltitudeMeters>
            <DistanceMeters>NAN</DistanceMeters>
          </Trackpoint>
          <Trackpoint>
            <Time>2022-08-22T09:32:54.000Z</Time>
            <Position>
              <LatitudeDegrees>42.82014124095439910888671875</LatitudeDegrees>
              <LongitudeDegrees>-0.286347605288028717041015625</LongitudeDegrees>
            </Position>
            <AltitudeMeters>2294.60009765625</AltitudeMeters>
            <DistanceMeters>NAN</DistanceMeters>
          </Trackpoint>
          <Trackpoint>
            <Time>2022-08-22T09:32:55.000Z</Time>
            <Position>
              <LatitudeDegrees>42.82013026066124439239501953125</LatitudeDegrees>
              <LongitudeDegrees>-0.28635808266699314117431640625</LongitudeDegrees>
            </Position>
            <AltitudeMeters>2293.60009765625</AltitudeMeters>
            <DistanceMeters>NAN</DistanceMeters>
          </Trackpoint>
          <Trackpoint>
            <Time>2022-08-22T09:33:01.000Z</Time>
            <Position>
              <LatitudeDegrees>42.82010192982852458953857421875</LatitudeDegrees>
              <LongitudeDegrees>-0.286433435976505279541015625</LongitudeDegrees>
            </Position>
            <AltitudeMeters>2290.39990234375</AltitudeMeters>
            <DistanceMeters>NAN</DistanceMeters>
          </Trackpoint>
          <Trackpoint>
            <Time>2022-08-22T09:33:04.000Z</Time>
            <Position>
              <LatitudeDegrees>42.82008357346057891845703125</LatitudeDegrees>
              <LongitudeDegrees>-0.2864585816860198974609375</LongitudeDegrees>
            </Position>
            <AltitudeMeters>2288.800048828125</AltitudeMeters>
            <DistanceMeters>NAN</DistanceMeters>
          </Trackpoint>
          <Trackpoint>
            <Time>2022-08-22T09:33:10.000Z</Time>
            <Position>
              <LatitudeDegrees>42.820072509348392486572265625</LatitudeDegrees>
              <LongitudeDegrees>-0.28653192333877086639404296875</LongitudeDegrees>
            </Position>
            <AltitudeMeters>2287</AltitudeMeters>
            <DistanceMeters>NAN</DistanceMeters>
          </Trackpoint>
          <Trackpoint>
            <Time>2022-08-22T09:33:15.000Z</Time>
            <Position>
              <LatitudeDegrees>42.820058427751064300537109375</LatitudeDegrees>
              <LongitudeDegrees>-0.28657634742558002471923828125</LongitudeDegrees>
            </Position>
            <AltitudeMeters>2285.60009765625</AltitudeMeters>
            <DistanceMeters>NAN</DistanceMeters>
          </Trackpoint>
          <Trackpoint>
            <Time>2022-08-22T09:33:19.000Z</Time>
            <Position>
              <LatitudeDegrees>42.820041663944721221923828125</LatitudeDegrees>
              <LongitudeDegrees>-0.28661339543759822845458984375</LongitudeDegrees>
            </Position>
            <AltitudeMeters>2284.199951171875</AltitudeMeters>
            <DistanceMeters>NAN</DistanceMeters>
          </Trackpoint>
          <Trackpoint>
            <Time>2022-08-22T09:33:24.000Z</Time>
            <Position>
              <LatitudeDegrees>42.82004862092435359954833984375</LatitudeDegrees>
              <LongitudeDegrees>-0.28667609207332134246826171875</LongitudeDegrees>
            </Position>
            <AltitudeMeters>2284.60009765625</AltitudeMeters>
            <DistanceMeters>NAN</DistanceMeters>
          </Trackpoint>
          <Trackpoint>
            <Time>2022-08-22T09:33:28.000Z</Time>
            <Position>
              <LatitudeDegrees>42.820049040019512176513671875</LatitudeDegrees>
              <LongitudeDegrees>-0.28666636906564235687255859375</LongitudeDegrees>
            </Position>
            <AltitudeMeters>2284.60009765625</AltitudeMeters>
            <DistanceMeters>NAN</DistanceMeters>
          </Trackpoint>
          <Trackpoint>
            <Time>2022-08-22T09:33:30.000Z</Time>
            <Position>
              <LatitudeDegrees>42.82004375942051410675048828125</LatitudeDegrees>
              <LongitudeDegrees>-0.28666712343692779541015625</LongitudeDegrees>
            </Position>
            <AltitudeMeters>2284.199951171875</AltitudeMeters>
            <DistanceMeters>NAN</DistanceMeters>
          </Trackpoint>
          <Trackpoint>
            <Time>2022-08-22T09:33:32.000Z</Time>
            <Position>
              <LatitudeDegrees>42.82003805972635746002197265625</LatitudeDegrees>
              <LongitudeDegrees>-0.28666041791439056396484375</LongitudeDegrees>
            </Position>
            <AltitudeMeters>2283.800048828125</AltitudeMeters>
            <DistanceMeters>NAN</DistanceMeters>
          </Trackpoint>
          <Trackpoint>
            <Time>2022-08-22T09:33:35.000Z</Time>
            <Position>
              <LatitudeDegrees>42.82002992928028106689453125</LatitudeDegrees>
              <LongitudeDegrees>-0.28665748424828052520751953125</LongitudeDegrees>
            </Position>
            <AltitudeMeters>2283.39990234375</AltitudeMeters>
            <DistanceMeters>NAN</DistanceMeters>
          </Trackpoint>
          <Trackpoint>
            <Time>2022-08-22T09:33:38.000Z</Time>
            <Position>
              <LatitudeDegrees>42.82001056708395481109619140625</LatitudeDegrees>
              <LongitudeDegrees>-0.28667919337749481201171875</LongitudeDegrees>
            </Position>
            <AltitudeMeters>2282.199951171875</AltitudeMeters>
            <DistanceMeters>NAN</DistanceMeters>
          </Trackpoint>
          <Trackpoint>
            <Time>2022-08-22T09:33:45.000Z</Time>
            <Position>
              <LatitudeDegrees>42.81997251324355602264404296875</LatitudeDegrees>
              <LongitudeDegrees>-0.28669469989836215972900390625</LongitudeDegrees>
            </Position>
            <AltitudeMeters>2279.800048828125</AltitudeMeters>
            <DistanceMeters>NAN</DistanceMeters>
          </Trackpoint>
          <Trackpoint>
            <Time>2022-08-22T09:33:50.000Z</Time>
            <Position>
              <LatitudeDegrees>42.819935381412506103515625</LatitudeDegrees>
              <LongitudeDegrees>-0.2867038361728191375732421875</LongitudeDegrees>
            </Position>
            <AltitudeMeters>2277.60009765625</AltitudeMeters>
            <DistanceMeters>NAN</DistanceMeters>
          </Trackpoint>
          <Trackpoint>
            <Time>2022-08-22T09:33:58.000Z</Time>
            <Position>
              <LatitudeDegrees>42.8198886103928089141845703125</LatitudeDegrees>
              <LongitudeDegrees>-0.2867336757481098175048828125</LongitudeDegrees>
            </Position>
            <AltitudeMeters>2274.800048828125</AltitudeMeters>
            <DistanceMeters>NAN</DistanceMeters>
          </Trackpoint>
          <Trackpoint>
            <Time>2022-08-22T09:34:16.000Z</Time>
            <Position>
              <LatitudeDegrees>42.81978123821318149566650390625</LatitudeDegrees>
              <LongitudeDegrees>-0.28681674040853977203369140625</LongitudeDegrees>
            </Position>
            <AltitudeMeters>2267.800048828125</AltitudeMeters>
            <DistanceMeters>NAN</DistanceMeters>
          </Trackpoint>
          <Trackpoint>
            <Time>2022-08-22T09:34:17.000Z</Time>
            <Position>
              <LatitudeDegrees>42.819774448871612548828125</LatitudeDegrees>
              <LongitudeDegrees>-0.28681707568466663360595703125</LongitudeDegrees>
            </Position>
            <AltitudeMeters>2267.39990234375</AltitudeMeters>
            <DistanceMeters>NAN</DistanceMeters>
          </Trackpoint>
          <Trackpoint>
            <Time>2022-08-22T09:34:18.000Z</Time>
            <Position>
              <LatitudeDegrees>42.81975676305592060089111328125</LatitudeDegrees>
              <LongitudeDegrees>-0.28681422583758831024169921875</LongitudeDegrees>
            </Position>
            <AltitudeMeters>2266</AltitudeMeters>
            <DistanceMeters>NAN</DistanceMeters>
          </Trackpoint>
          <Trackpoint>
            <Time>2022-08-22T09:34:25.000Z</Time>
            <Position>
              <LatitudeDegrees>42.81970948912203311920166015625</LatitudeDegrees>
              <LongitudeDegrees>-0.28685563243925571441650390625</LongitudeDegrees>
            </Position>
            <AltitudeMeters>2262.60009765625</AltitudeMeters>
            <DistanceMeters>NAN</DistanceMeters>
          </Trackpoint>
          <Trackpoint>
            <Time>2022-08-22T09:34:26.000Z</Time>
            <Position>
              <LatitudeDegrees>42.819702364504337310791015625</LatitudeDegrees>
              <LongitudeDegrees>-0.2868540398776531219482421875</LongitudeDegrees>
            </Position>
            <AltitudeMeters>2262.199951171875</AltitudeMeters>
            <DistanceMeters>NAN</DistanceMeters>
          </Trackpoint>
          <Trackpoint>
            <Time>2022-08-22T09:34:28.000Z</Time>
            <Position>
              <LatitudeDegrees>42.81969423405826091766357421875</LatitudeDegrees>
              <LongitudeDegrees>-0.28683903627097606658935546875</LongitudeDegrees>
            </Position>
            <AltitudeMeters>2261.60009765625</AltitudeMeters>
            <DistanceMeters>NAN</DistanceMeters>
          </Trackpoint>
          <Trackpoint>
            <Time>2022-08-22T09:34:29.000Z</Time>
            <Position>
              <LatitudeDegrees>42.8196872770786285400390625</LatitudeDegrees>
              <LongitudeDegrees>-0.2868366055190563201904296875</LongitudeDegrees>
            </Position>
            <AltitudeMeters>2261</AltitudeMeters>
            <DistanceMeters>NAN</DistanceMeters>
          </Trackpoint>
          <Trackpoint>
            <Time>2022-08-22T09:34:31.000Z</Time>
            <Position>
              <LatitudeDegrees>42.81967453658580780029296875</LatitudeDegrees>
              <LongitudeDegrees>-0.28683886863291263580322265625</LongitudeDegrees>
            </Position>
            <AltitudeMeters>2260.199951171875</AltitudeMeters>
            <DistanceMeters>NAN</DistanceMeters>
          </Trackpoint>
          <Trackpoint>
            <Time>2022-08-22T09:34:35.000Z</Time>
            <Position>
              <LatitudeDegrees>42.819635979831218719482421875</LatitudeDegrees>
              <LongitudeDegrees>-0.28685797937214374542236328125</LongitudeDegrees>
            </Position>
            <AltitudeMeters>2257.39990234375</AltitudeMeters>
            <DistanceMeters>NAN</DistanceMeters>
          </Trackpoint>
          <Trackpoint>
            <Time>2022-08-22T09:34:41.000Z</Time>
            <Position>
              <LatitudeDegrees>42.8196190483868122100830078125</LatitudeDegrees>
              <LongitudeDegrees>-0.2869113720953464508056640625</LongitudeDegrees>
            </Position>
            <AltitudeMeters>2255.60009765625</AltitudeMeters>
            <DistanceMeters>NAN</DistanceMeters>
          </Trackpoint>
          <Trackpoint>
            <Time>2022-08-22T09:34:51.000Z</Time>
            <Position>
              <LatitudeDegrees>42.81950823962688446044921875</LatitudeDegrees>
              <LongitudeDegrees>-0.28689754195511341094970703125</LongitudeDegrees>
            </Position>
            <AltitudeMeters>2248.199951171875</AltitudeMeters>
            <DistanceMeters>NAN</DistanceMeters>
          </Trackpoint>
          <Trackpoint>
            <Time>2022-08-22T09:34:59.000Z</Time>
            <Position>
              <LatitudeDegrees>42.81941712833940982818603515625</LatitudeDegrees>
              <LongitudeDegrees>-0.28688379563391208648681640625</LongitudeDegrees>
            </Position>
            <AltitudeMeters>2243</AltitudeMeters>
            <DistanceMeters>NAN</DistanceMeters>
          </Trackpoint>
          <Trackpoint>
            <Time>2022-08-22T09:35:07.000Z</Time>
            <Position>
              <LatitudeDegrees>42.8193565271794795989990234375</LatitudeDegrees>
              <LongitudeDegrees>-0.28683484531939029693603515625</LongitudeDegrees>
            </Position>
            <AltitudeMeters>2240.60009765625</AltitudeMeters>
            <DistanceMeters>NAN</DistanceMeters>
          </Trackpoint>
          <Trackpoint>
            <Time>2022-08-22T09:35:09.000Z</Time>
            <Position>
              <LatitudeDegrees>42.81934571452438831329345703125</LatitudeDegrees>
              <LongitudeDegrees>-0.28684222139418125152587890625</LongitudeDegrees>
            </Position>
            <AltitudeMeters>2239.800048828125</AltitudeMeters>
            <DistanceMeters>NAN</DistanceMeters>
          </Trackpoint>
          <Trackpoint>
            <Time>2022-08-22T09:35:11.000Z</Time>
            <Position>
              <LatitudeDegrees>42.81932844780385494232177734375</LatitudeDegrees>
              <LongitudeDegrees>-0.28684037737548351287841796875</LongitudeDegrees>
            </Position>
            <AltitudeMeters>2238.800048828125</AltitudeMeters>
            <DistanceMeters>NAN</DistanceMeters>
          </Trackpoint>
          <Trackpoint>
            <Time>2022-08-22T09:35:14.000Z</Time>
            <Position>
              <LatitudeDegrees>42.81931319274008274078369140625</LatitudeDegrees>
              <LongitudeDegrees>-0.2868121303617954254150390625</LongitudeDegrees>
            </Position>
            <AltitudeMeters>2238.800048828125</AltitudeMeters>
            <DistanceMeters>NAN</DistanceMeters>
          </Trackpoint>
          <Trackpoint>
            <Time>2022-08-22T09:35:38.000Z</Time>
            <Position>
              <LatitudeDegrees>42.819182015955448150634765625</LatitudeDegrees>
              <LongitudeDegrees>-0.28686803765594959259033203125</LongitudeDegrees>
            </Position>
            <AltitudeMeters>2228.800048828125</AltitudeMeters>
            <DistanceMeters>NAN</DistanceMeters>
          </Trackpoint>
          <Trackpoint>
            <Time>2022-08-22T09:35:39.000Z</Time>
            <Position>
              <LatitudeDegrees>42.81917237676680088043212890625</LatitudeDegrees>
              <LongitudeDegrees>-0.28684691525995731353759765625</LongitudeDegrees>
            </Position>
            <AltitudeMeters>2228.800048828125</AltitudeMeters>
            <DistanceMeters>NAN</DistanceMeters>
          </Trackpoint>
          <Trackpoint>
            <Time>2022-08-22T09:35:50.000Z</Time>
            <Position>
              <LatitudeDegrees>42.8190876357257366180419921875</LatitudeDegrees>
              <LongitudeDegrees>-0.28684792108833789825439453125</LongitudeDegrees>
            </Position>
            <AltitudeMeters>2223.39990234375</AltitudeMeters>
            <DistanceMeters>NAN</DistanceMeters>
          </Trackpoint>
          <Trackpoint>
            <Time>2022-08-22T09:36:11.000Z</Time>
            <Position>
              <LatitudeDegrees>42.818900384008884429931640625</LatitudeDegrees>
              <LongitudeDegrees>-0.28687206096947193145751953125</LongitudeDegrees>
            </Position>
            <AltitudeMeters>2212.199951171875</AltitudeMeters>
            <DistanceMeters>NAN</DistanceMeters>
          </Trackpoint>
          <Trackpoint>
            <Time>2022-08-22T09:36:25.000Z</Time>
            <Position>
              <LatitudeDegrees>42.8188244439661502838134765625</LatitudeDegrees>
              <LongitudeDegrees>-0.286953449249267578125</LongitudeDegrees>
            </Position>
            <AltitudeMeters>2208.60009765625</AltitudeMeters>
            <DistanceMeters>NAN</DistanceMeters>
          </Trackpoint>
          <Trackpoint>
            <Time>2022-08-22T09:36:29.000Z</Time>
            <Position>
              <LatitudeDegrees>42.81881279312074184417724609375</LatitudeDegrees>
              <LongitudeDegrees>-0.28701053000986576080322265625</LongitudeDegrees>
            </Position>
            <AltitudeMeters>2208</AltitudeMeters>
            <DistanceMeters>NAN</DistanceMeters>
          </Trackpoint>
          <Trackpoint>
            <Time>2022-08-22T09:36:33.000Z</Time>
            <Position>
              <LatitudeDegrees>42.81879200600087642669677734375</LatitudeDegrees>
              <LongitudeDegrees>-0.287017822265625</LongitudeDegrees>
            </Position>
            <AltitudeMeters>2207.199951171875</AltitudeMeters>
            <DistanceMeters>NAN</DistanceMeters>
          </Trackpoint>
          <Trackpoint>
            <Time>2022-08-22T09:36:36.000Z</Time>
            <Position>
              <LatitudeDegrees>42.81876836903393268585205078125</LatitudeDegrees>
              <LongitudeDegrees>-0.287025868892669677734375</LongitudeDegrees>
            </Position>
            <AltitudeMeters>2206.199951171875</AltitudeMeters>
            <DistanceMeters>NAN</DistanceMeters>
          </Trackpoint>
          <Trackpoint>
            <Time>2022-08-22T09:36:40.000Z</Time>
            <Position>
              <LatitudeDegrees>42.81874976120889186859130859375</LatitudeDegrees>
              <LongitudeDegrees>-0.2870417945086956024169921875</LongitudeDegrees>
            </Position>
            <AltitudeMeters>2205.39990234375</AltitudeMeters>
            <DistanceMeters>NAN</DistanceMeters>
          </Trackpoint>
          <Trackpoint>
            <Time>2022-08-22T09:36:50.000Z</Time>
            <Position>
              <LatitudeDegrees>42.8187047503888607025146484375</LatitudeDegrees>
              <LongitudeDegrees>-0.28707792051136493682861328125</LongitudeDegrees>
            </Position>
            <AltitudeMeters>2203.60009765625</AltitudeMeters>
            <DistanceMeters>NAN</DistanceMeters>
          </Trackpoint>
          <Trackpoint>
            <Time>2022-08-22T09:36:56.000Z</Time>
            <Position>
              <LatitudeDegrees>42.81864766962826251983642578125</LatitudeDegrees>
              <LongitudeDegrees>-0.28711429797112941741943359375</LongitudeDegrees>
            </Position>
            <AltitudeMeters>2201.39990234375</AltitudeMeters>
            <DistanceMeters>NAN</DistanceMeters>
          </Trackpoint>
          <Trackpoint>
            <Time>2022-08-22T09:37:00.000Z</Time>
            <Position>
              <LatitudeDegrees>42.81862118281424045562744140625</LatitudeDegrees>
              <LongitudeDegrees>-0.28714832849800586700439453125</LongitudeDegrees>
            </Position>
            <AltitudeMeters>2200.199951171875</AltitudeMeters>
            <DistanceMeters>NAN</DistanceMeters>
          </Trackpoint>
          <Trackpoint>
            <Time>2022-08-22T09:37:01.000Z</Time>
            <Position>
              <LatitudeDegrees>42.81860240735113620758056640625</LatitudeDegrees>
              <LongitudeDegrees>-0.28716157190501689910888671875</LongitudeDegrees>
            </Position>
            <AltitudeMeters>2199.60009765625</AltitudeMeters>
            <DistanceMeters>NAN</DistanceMeters>
          </Trackpoint>
          <Trackpoint>
            <Time>2022-08-22T09:37:03.000Z</Time>
            <Position>
              <LatitudeDegrees>42.81859318725764751434326171875</LatitudeDegrees>
              <LongitudeDegrees>-0.28716978617012500762939453125</LongitudeDegrees>
            </Position>
            <AltitudeMeters>2199</AltitudeMeters>
            <DistanceMeters>NAN</DistanceMeters>
          </Trackpoint>
          <Trackpoint>
            <Time>2022-08-22T09:37:11.000Z</Time>
            <Position>
              <LatitudeDegrees>42.81850182451307773590087890625</LatitudeDegrees>
              <LongitudeDegrees>-0.287248827517032623291015625</LongitudeDegrees>
            </Position>
            <AltitudeMeters>2194.60009765625</AltitudeMeters>
            <DistanceMeters>NAN</DistanceMeters>
          </Trackpoint>
          <Trackpoint>
            <Time>2022-08-22T09:37:14.000Z</Time>
            <Position>
              <LatitudeDegrees>42.81846812926232814788818359375</LatitudeDegrees>
              <LongitudeDegrees>-0.2872657589614391326904296875</LongitudeDegrees>
            </Position>
            <AltitudeMeters>2193.199951171875</AltitudeMeters>
            <DistanceMeters>NAN</DistanceMeters>
          </Trackpoint>
          <Trackpoint>
            <Time>2022-08-22T09:37:17.000Z</Time>
            <Position>
              <LatitudeDegrees>42.81843543983995914459228515625</LatitudeDegrees>
              <LongitudeDegrees>-0.2872902341187000274658203125</LongitudeDegrees>
            </Position>
            <AltitudeMeters>2191.60009765625</AltitudeMeters>
            <DistanceMeters>NAN</DistanceMeters>
          </Trackpoint>
          <Trackpoint>
            <Time>2022-08-22T09:37:22.000Z</Time>
            <Position>
              <LatitudeDegrees>42.8184083662927150726318359375</LatitudeDegrees>
              <LongitudeDegrees>-0.28732216916978359222412109375</LongitudeDegrees>
            </Position>
            <AltitudeMeters>2189.800048828125</AltitudeMeters>
            <DistanceMeters>NAN</DistanceMeters>
          </Trackpoint>
          <Trackpoint>
            <Time>2022-08-22T09:37:25.000Z</Time>
            <Position>
              <LatitudeDegrees>42.8183959610760211944580078125</LatitudeDegrees>
              <LongitudeDegrees>-0.2873143739998340606689453125</LongitudeDegrees>
            </Position>
            <AltitudeMeters>2189.199951171875</AltitudeMeters>
            <DistanceMeters>NAN</DistanceMeters>
          </Trackpoint>
          <Trackpoint>
            <Time>2022-08-22T09:37:30.000Z</Time>
            <Position>
              <LatitudeDegrees>42.8183488547801971435546875</LatitudeDegrees>
              <LongitudeDegrees>-0.2873157151043415069580078125</LongitudeDegrees>
            </Position>
            <AltitudeMeters>2186.39990234375</AltitudeMeters>
            <DistanceMeters>NAN</DistanceMeters>
          </Trackpoint>
          <Trackpoint>
            <Time>2022-08-22T09:37:33.000Z</Time>
            <Position>
              <LatitudeDegrees>42.81831373460590839385986328125</LatitudeDegrees>
              <LongitudeDegrees>-0.2873234264552593231201171875</LongitudeDegrees>
            </Position>
            <AltitudeMeters>2184</AltitudeMeters>
            <DistanceMeters>NAN</DistanceMeters>
          </Trackpoint>
          <Trackpoint>
            <Time>2022-08-22T09:37:40.000Z</Time>
            <Position>
              <LatitudeDegrees>42.81826562248170375823974609375</LatitudeDegrees>
              <LongitudeDegrees>-0.28737346641719341278076171875</LongitudeDegrees>
            </Position>
            <AltitudeMeters>2180.39990234375</AltitudeMeters>
            <DistanceMeters>NAN</DistanceMeters>
          </Trackpoint>
          <Trackpoint>
            <Time>2022-08-22T09:37:44.000Z</Time>
            <Position>
              <LatitudeDegrees>42.81823058612644672393798828125</LatitudeDegrees>
              <LongitudeDegrees>-0.287369526922702789306640625</LongitudeDegrees>
            </Position>
            <AltitudeMeters>2178.39990234375</AltitudeMeters>
            <DistanceMeters>NAN</DistanceMeters>
          </Trackpoint>
          <Trackpoint>
            <Time>2022-08-22T09:37:48.000Z</Time>
            <Position>
              <LatitudeDegrees>42.81820007599890232086181640625</LatitudeDegrees>
              <LongitudeDegrees>-0.28738134540617465972900390625</LongitudeDegrees>
            </Position>
            <AltitudeMeters>2176.39990234375</AltitudeMeters>
            <DistanceMeters>NAN</DistanceMeters>
          </Trackpoint>
          <Trackpoint>
            <Time>2022-08-22T09:37:52.000Z</Time>
            <Position>
              <LatitudeDegrees>42.81814567744731903076171875</LatitudeDegrees>
              <LongitudeDegrees>-0.28742241673171520233154296875</LongitudeDegrees>
            </Position>
            <AltitudeMeters>2172.39990234375</AltitudeMeters>
            <DistanceMeters>NAN</DistanceMeters>
          </Trackpoint>
          <Trackpoint>
            <Time>2022-08-22T09:37:59.000Z</Time>
            <Position>
              <LatitudeDegrees>42.81810284592211246490478515625</LatitudeDegrees>
              <LongitudeDegrees>-0.28751914389431476593017578125</LongitudeDegrees>
            </Position>
            <AltitudeMeters>2170</AltitudeMeters>
            <DistanceMeters>NAN</DistanceMeters>
          </Trackpoint>
          <Trackpoint>
            <Time>2022-08-22T09:38:03.000Z</Time>
            <Position>
              <LatitudeDegrees>42.81810401938855648040771484375</LatitudeDegrees>
              <LongitudeDegrees>-0.28756055049598217010498046875</LongitudeDegrees>
            </Position>
            <AltitudeMeters>2169.800048828125</AltitudeMeters>
            <DistanceMeters>NAN</DistanceMeters>
          </Trackpoint>
          <Trackpoint>
            <Time>2022-08-22T09:38:06.000Z</Time>
            <Position>
              <LatitudeDegrees>42.81809463165700435638427734375</LatitudeDegrees>
              <LongitudeDegrees>-0.28758670203387737274169921875</LongitudeDegrees>
            </Position>
            <AltitudeMeters>2169.199951171875</AltitudeMeters>
            <DistanceMeters>NAN</DistanceMeters>
          </Trackpoint>
          <Trackpoint>
            <Time>2022-08-22T09:38:11.000Z</Time>
            <Position>
              <LatitudeDegrees>42.81805858947336673736572265625</LatitudeDegrees>
              <LongitudeDegrees>-0.28760254383087158203125</LongitudeDegrees>
            </Position>
            <AltitudeMeters>2167.800048828125</AltitudeMeters>
            <DistanceMeters>NAN</DistanceMeters>
          </Trackpoint>
          <Trackpoint>
            <Time>2022-08-22T09:38:13.000Z</Time>
            <Position>
              <LatitudeDegrees>42.81802908517420291900634765625</LatitudeDegrees>
              <LongitudeDegrees>-0.287584774196147918701171875</LongitudeDegrees>
            </Position>
            <AltitudeMeters>2166.800048828125</AltitudeMeters>
            <DistanceMeters>NAN</DistanceMeters>
          </Trackpoint>
          <Trackpoint>
            <Time>2022-08-22T09:38:20.000Z</Time>
            <Position>
              <LatitudeDegrees>42.81795633025467395782470703125</LatitudeDegrees>
              <LongitudeDegrees>-0.28746348805725574493408203125</LongitudeDegrees>
            </Position>
            <AltitudeMeters>2164.39990234375</AltitudeMeters>
            <DistanceMeters>NAN</DistanceMeters>
          </Trackpoint>
          <Trackpoint>
            <Time>2022-08-22T09:38:21.000Z</Time>
            <Position>
              <LatitudeDegrees>42.81795130111277103424072265625</LatitudeDegrees>
              <LongitudeDegrees>-0.287443958222866058349609375</LongitudeDegrees>
            </Position>
            <AltitudeMeters>2164.39990234375</AltitudeMeters>
            <DistanceMeters>NAN</DistanceMeters>
          </Trackpoint>
          <Trackpoint>
            <Time>2022-08-22T09:38:29.000Z</Time>
            <Position>
              <LatitudeDegrees>42.8179523907601833343505859375</LatitudeDegrees>
              <LongitudeDegrees>-0.28734630905091762542724609375</LongitudeDegrees>
            </Position>
            <AltitudeMeters>2166.39990234375</AltitudeMeters>
            <DistanceMeters>NAN</DistanceMeters>
          </Trackpoint>
          <Trackpoint>
            <Time>2022-08-22T09:38:32.000Z</Time>
            <Position>
              <LatitudeDegrees>42.81795649789273738861083984375</LatitudeDegrees>
              <LongitudeDegrees>-0.287353433668613433837890625</LongitudeDegrees>
            </Position>
            <AltitudeMeters>2166.39990234375</AltitudeMeters>
            <DistanceMeters>NAN</DistanceMeters>
          </Trackpoint>
          <Trackpoint>
            <Time>2022-08-22T09:38:37.000Z</Time>
            <Position>
              <LatitudeDegrees>42.81797007657587528228759765625</LatitudeDegrees>
              <LongitudeDegrees>-0.2874159626662731170654296875</LongitudeDegrees>
            </Position>
            <AltitudeMeters>2165.60009765625</AltitudeMeters>
            <DistanceMeters>NAN</DistanceMeters>
          </Trackpoint>
          <Trackpoint>
            <Time>2022-08-22T09:38:48.000Z</Time>
            <Position>
              <LatitudeDegrees>42.8179929591715335845947265625</LatitudeDegrees>
              <LongitudeDegrees>-0.28755501843988895416259765625</LongitudeDegrees>
            </Position>
            <AltitudeMeters>2165.60009765625</AltitudeMeters>
            <DistanceMeters>NAN</DistanceMeters>
          </Trackpoint>
          <Trackpoint>
            <Time>2022-08-22T09:38:53.000Z</Time>
            <Position>
              <LatitudeDegrees>42.81799874268472194671630859375</LatitudeDegrees>
              <LongitudeDegrees>-0.28761402703821659088134765625</LongitudeDegrees>
            </Position>
            <AltitudeMeters>2165.60009765625</AltitudeMeters>
            <DistanceMeters>NAN</DistanceMeters>
          </Trackpoint>
          <Trackpoint>
            <Time>2022-08-22T09:38:54.000Z</Time>
            <Position>
              <LatitudeDegrees>42.8179855830967426300048828125</LatitudeDegrees>
              <LongitudeDegrees>-0.28761838562786579132080078125</LongitudeDegrees>
            </Position>
            <AltitudeMeters>2165</AltitudeMeters>
            <DistanceMeters>NAN</DistanceMeters>
          </Trackpoint>
          <Trackpoint>
            <Time>2022-08-22T09:38:57.000Z</Time>
            <Position>
              <LatitudeDegrees>42.81795649789273738861083984375</LatitudeDegrees>
              <LongitudeDegrees>-0.2876442857086658477783203125</LongitudeDegrees>
            </Position>
            <AltitudeMeters>2163.800048828125</AltitudeMeters>
            <DistanceMeters>NAN</DistanceMeters>
          </Trackpoint>
          <Trackpoint>
            <Time>2022-08-22T09:39:00.000Z</Time>
            <Position>
              <LatitudeDegrees>42.81793244183063507080078125</LatitudeDegrees>
              <LongitudeDegrees>-0.28766415081918239593505859375</LongitudeDegrees>
            </Position>
            <AltitudeMeters>2162.800048828125</AltitudeMeters>
            <DistanceMeters>NAN</DistanceMeters>
          </Trackpoint>
          <Trackpoint>
            <Time>2022-08-22T09:39:01.000Z</Time>
            <Position>
              <LatitudeDegrees>42.81791643239557743072509765625</LatitudeDegrees>
              <LongitudeDegrees>-0.28768007643520832061767578125</LongitudeDegrees>
            </Position>
            <AltitudeMeters>2162</AltitudeMeters>
            <DistanceMeters>NAN</DistanceMeters>
          </Trackpoint>
          <Trackpoint>
            <Time>2022-08-22T09:39:07.000Z</Time>
            <Position>
              <LatitudeDegrees>42.817878462374210357666015625</LatitudeDegrees>
              <LongitudeDegrees>-0.2877230755984783172607421875</LongitudeDegrees>
            </Position>
            <AltitudeMeters>2160.60009765625</AltitudeMeters>
            <DistanceMeters>NAN</DistanceMeters>
          </Trackpoint>
          <Trackpoint>
            <Time>2022-08-22T09:39:10.000Z</Time>
            <Position>
              <LatitudeDegrees>42.8178471140563488006591796875</LatitudeDegrees>
              <LongitudeDegrees>-0.28775073587894439697265625</LongitudeDegrees>
            </Position>
            <AltitudeMeters>2159.800048828125</AltitudeMeters>
            <DistanceMeters>NAN</DistanceMeters>
          </Trackpoint>
          <Trackpoint>
            <Time>2022-08-22T09:39:14.000Z</Time>
            <Position>
              <LatitudeDegrees>42.81780461780726909637451171875</LatitudeDegrees>
              <LongitudeDegrees>-0.287775881588459014892578125</LongitudeDegrees>
            </Position>
            <AltitudeMeters>2158.800048828125</AltitudeMeters>
            <DistanceMeters>NAN</DistanceMeters>
          </Trackpoint>
          <Trackpoint>
            <Time>2022-08-22T09:39:15.000Z</Time>
            <Position>
              <LatitudeDegrees>42.81779439188539981842041015625</LatitudeDegrees>
              <LongitudeDegrees>-0.28778451494872570037841796875</LongitudeDegrees>
            </Position>
            <AltitudeMeters>2158.60009765625</AltitudeMeters>
            <DistanceMeters>NAN</DistanceMeters>
          </Trackpoint>
          <Trackpoint>
            <Time>2022-08-22T09:39:18.000Z</Time>
            <Position>
              <LatitudeDegrees>42.81778047792613506317138671875</LatitudeDegrees>
              <LongitudeDegrees>-0.2877928130328655242919921875</LongitudeDegrees>
            </Position>
            <AltitudeMeters>2158.39990234375</AltitudeMeters>
            <DistanceMeters>NAN</DistanceMeters>
          </Trackpoint>
          <Trackpoint>
            <Time>2022-08-22T09:39:20.000Z</Time>
            <Position>
              <LatitudeDegrees>42.817773520946502685546875</LatitudeDegrees>
              <LongitudeDegrees>-0.28780111111700534820556640625</LongitudeDegrees>
            </Position>
            <AltitudeMeters>2158.199951171875</AltitudeMeters>
            <DistanceMeters>NAN</DistanceMeters>
          </Trackpoint>
          <Trackpoint>
            <Time>2022-08-22T09:39:25.000Z</Time>
            <Position>
              <LatitudeDegrees>42.81775700859725475311279296875</LatitudeDegrees>
              <LongitudeDegrees>-0.28784058988094329833984375</LongitudeDegrees>
            </Position>
            <AltitudeMeters>2158.199951171875</AltitudeMeters>
            <DistanceMeters>NAN</DistanceMeters>
          </Trackpoint>
          <Trackpoint>
            <Time>2022-08-22T09:39:28.000Z</Time>
            <Position>
              <LatitudeDegrees>42.81773974187672138214111328125</LatitudeDegrees>
              <LongitudeDegrees>-0.287854336202144622802734375</LongitudeDegrees>
            </Position>
            <AltitudeMeters>2157.800048828125</AltitudeMeters>
            <DistanceMeters>NAN</DistanceMeters>
          </Trackpoint>
          <Trackpoint>
            <Time>2022-08-22T09:39:30.000Z</Time>
            <Position>
              <LatitudeDegrees>42.81773705966770648956298828125</LatitudeDegrees>
              <LongitudeDegrees>-0.2878613770008087158203125</LongitudeDegrees>
            </Position>
            <AltitudeMeters>2157.800048828125</AltitudeMeters>
            <DistanceMeters>NAN</DistanceMeters>
          </Trackpoint>
          <Trackpoint>
            <Time>2022-08-22T09:39:31.000Z</Time>
            <Position>
              <LatitudeDegrees>42.8177347965538501739501953125</LatitudeDegrees>
              <LongitudeDegrees>-0.28788442723453044891357421875</LongitudeDegrees>
            </Position>
            <AltitudeMeters>2158.199951171875</AltitudeMeters>
            <DistanceMeters>NAN</DistanceMeters>
          </Trackpoint>
          <Trackpoint>
            <Time>2022-08-22T09:39:32.000Z</Time>
            <Position>
              <LatitudeDegrees>42.8177347965538501739501953125</LatitudeDegrees>
              <LongitudeDegrees>-0.28788442723453044891357421875</LongitudeDegrees>
            </Position>
            <AltitudeMeters>2158.199951171875</AltitudeMeters>
            <DistanceMeters>NAN</DistanceMeters>
          </Trackpoint>
          <Trackpoint>
            <Time>2022-08-22T09:39:36.000Z</Time>
            <Position>
              <LatitudeDegrees>42.81772180460393428802490234375</LatitudeDegrees>
              <LongitudeDegrees>-0.28793714940547943115234375</LongitudeDegrees>
            </Position>
            <AltitudeMeters>2158.39990234375</AltitudeMeters>
            <DistanceMeters>NAN</DistanceMeters>
          </Trackpoint>
          <Trackpoint>
            <Time>2022-08-22T09:39:38.000Z</Time>
            <Position>
              <LatitudeDegrees>42.81771325506269931793212890625</LatitudeDegrees>
              <LongitudeDegrees>-0.2879668213427066802978515625</LongitudeDegrees>
            </Position>
            <AltitudeMeters>2158.60009765625</AltitudeMeters>
            <DistanceMeters>NAN</DistanceMeters>
          </Trackpoint>
          <Trackpoint>
            <Time>2022-08-22T09:39:43.000Z</Time>
            <Position>
              <LatitudeDegrees>42.81768358312547206878662109375</LatitudeDegrees>
              <LongitudeDegrees>-0.28804435394704341888427734375</LongitudeDegrees>
            </Position>
            <AltitudeMeters>2158</AltitudeMeters>
            <DistanceMeters>NAN</DistanceMeters>
          </Trackpoint>
          <Trackpoint>
            <Time>2022-08-22T09:39:46.000Z</Time>
            <Position>
              <LatitudeDegrees>42.817664556205272674560546875</LatitudeDegrees>
              <LongitudeDegrees>-0.28808240778744220733642578125</LongitudeDegrees>
            </Position>
            <AltitudeMeters>2157.199951171875</AltitudeMeters>
            <DistanceMeters>NAN</DistanceMeters>
          </Trackpoint>
          <Trackpoint>
            <Time>2022-08-22T09:39:50.000Z</Time>
            <Position>
              <LatitudeDegrees>42.81761652790009975433349609375</LatitudeDegrees>
              <LongitudeDegrees>-0.28811727650463581085205078125</LongitudeDegrees>
            </Position>
            <AltitudeMeters>2155.39990234375</AltitudeMeters>
            <DistanceMeters>NAN</DistanceMeters>
          </Trackpoint>
          <Trackpoint>
            <Time>2022-08-22T09:39:52.000Z</Time>
            <Position>
              <LatitudeDegrees>42.817590795457363128662109375</LatitudeDegrees>
              <LongitudeDegrees>-0.2881274186074733734130859375</LongitudeDegrees>
            </Position>
            <AltitudeMeters>2154.60009765625</AltitudeMeters>
            <DistanceMeters>NAN</DistanceMeters>
          </Trackpoint>
          <Trackpoint>
            <Time>2022-08-22T09:39:53.000Z</Time>
            <Position>
              <LatitudeDegrees>42.817559279501438140869140625</LatitudeDegrees>
              <LongitudeDegrees>-0.28814191929996013641357421875</LongitudeDegrees>
            </Position>
            <AltitudeMeters>2153.199951171875</AltitudeMeters>
            <DistanceMeters>NAN</DistanceMeters>
          </Trackpoint>
          <Trackpoint>
            <Time>2022-08-22T09:39:55.000Z</Time>
            <Position>
              <LatitudeDegrees>42.81754980795085430145263671875</LatitudeDegrees>
              <LongitudeDegrees>-0.288155078887939453125</LongitudeDegrees>
            </Position>
            <AltitudeMeters>2152.800048828125</AltitudeMeters>
            <DistanceMeters>NAN</DistanceMeters>
          </Trackpoint>
          <Trackpoint>
            <Time>2022-08-22T09:39:56.000Z</Time>
            <Position>
              <LatitudeDegrees>42.8175334632396697998046875</LatitudeDegrees>
              <LongitudeDegrees>-0.2881805598735809326171875</LongitudeDegrees>
            </Position>
            <AltitudeMeters>2152</AltitudeMeters>
            <DistanceMeters>NAN</DistanceMeters>
          </Trackpoint>
          <Trackpoint>
            <Time>2022-08-22T09:39:57.000Z</Time>
            <Position>
              <LatitudeDegrees>42.8175334632396697998046875</LatitudeDegrees>
              <LongitudeDegrees>-0.2881805598735809326171875</LongitudeDegrees>
            </Position>
            <AltitudeMeters>2152</AltitudeMeters>
            <DistanceMeters>NAN</DistanceMeters>
          </Trackpoint>
          <Trackpoint>
            <Time>2022-08-22T09:39:58.000Z</Time>
            <Position>
              <LatitudeDegrees>42.81752600334584712982177734375</LatitudeDegrees>
              <LongitudeDegrees>-0.28819791041314601898193359375</LongitudeDegrees>
            </Position>
            <AltitudeMeters>2151.60009765625</AltitudeMeters>
            <DistanceMeters>NAN</DistanceMeters>
          </Trackpoint>
          <Trackpoint>
            <Time>2022-08-22T09:39:59.000Z</Time>
            <Position>
              <LatitudeDegrees>42.81750194728374481201171875</LatitudeDegrees>
              <LongitudeDegrees>-0.2882176078855991363525390625</LongitudeDegrees>
            </Position>
            <AltitudeMeters>2150.39990234375</AltitudeMeters>
            <DistanceMeters>NAN</DistanceMeters>
          </Trackpoint>
          <Trackpoint>
            <Time>2022-08-22T09:40:02.000Z</Time>
            <Position>
              <LatitudeDegrees>42.81748359091579914093017578125</LatitudeDegrees>
              <LongitudeDegrees>-0.288215763866901397705078125</LongitudeDegrees>
            </Position>
            <AltitudeMeters>2149.60009765625</AltitudeMeters>
            <DistanceMeters>NAN</DistanceMeters>
          </Trackpoint>
          <Trackpoint>
            <Time>2022-08-22T09:40:06.000Z</Time>
            <Position>
              <LatitudeDegrees>42.8174498118460178375244140625</LatitudeDegrees>
              <LongitudeDegrees>-0.28815306723117828369140625</LongitudeDegrees>
            </Position>
            <AltitudeMeters>2148.39990234375</AltitudeMeters>
            <DistanceMeters>NAN</DistanceMeters>
          </Trackpoint>
          <Trackpoint>
            <Time>2022-08-22T09:40:14.000Z</Time>
            <Position>
              <LatitudeDegrees>42.81734981574118137359619140625</LatitudeDegrees>
              <LongitudeDegrees>-0.2880677394568920135498046875</LongitudeDegrees>
            </Position>
            <AltitudeMeters>2145.60009765625</AltitudeMeters>
            <DistanceMeters>NAN</DistanceMeters>
          </Trackpoint>
          <Trackpoint>
            <Time>2022-08-22T09:40:20.000Z</Time>
            <Position>
              <LatitudeDegrees>42.817201204597949981689453125</LatitudeDegrees>
              <LongitudeDegrees>-0.28806589543819427490234375</LongitudeDegrees>
            </Position>
            <AltitudeMeters>2141.199951171875</AltitudeMeters>
            <DistanceMeters>NAN</DistanceMeters>
          </Trackpoint>
          <Trackpoint>
            <Time>2022-08-22T09:40:23.000Z</Time>
            <Position>
              <LatitudeDegrees>42.81714965589344501495361328125</LatitudeDegrees>
              <LongitudeDegrees>-0.28803328983485698699951171875</LongitudeDegrees>
            </Position>
            <AltitudeMeters>2141.199951171875</AltitudeMeters>
            <DistanceMeters>NAN</DistanceMeters>
          </Trackpoint>
          <Trackpoint>
            <Time>2022-08-22T09:40:24.000Z</Time>
            <Position>
              <LatitudeDegrees>42.81713792122900485992431640625</LatitudeDegrees>
              <LongitudeDegrees>-0.2880147658288478851318359375</LongitudeDegrees>
            </Position>
            <AltitudeMeters>2141.39990234375</AltitudeMeters>
            <DistanceMeters>NAN</DistanceMeters>
          </Trackpoint>
          <Trackpoint>
            <Time>2022-08-22T09:40:25.000Z</Time>
            <Position>
              <LatitudeDegrees>42.81712685711681842803955078125</LatitudeDegrees>
              <LongitudeDegrees>-0.28799255378544330596923828125</LongitudeDegrees>
            </Position>
            <AltitudeMeters>2141.800048828125</AltitudeMeters>
            <DistanceMeters>NAN</DistanceMeters>
          </Trackpoint>
          <Trackpoint>
            <Time>2022-08-22T09:40:27.000Z</Time>
            <Position>
              <LatitudeDegrees>42.81710137613117694854736328125</LatitudeDegrees>
              <LongitudeDegrees>-0.2879433520138263702392578125</LongitudeDegrees>
            </Position>
            <AltitudeMeters>2141.60009765625</AltitudeMeters>
            <DistanceMeters>NAN</DistanceMeters>
          </Trackpoint>
          <Trackpoint>
            <Time>2022-08-22T09:40:30.000Z</Time>
            <Position>
              <LatitudeDegrees>42.81705644913017749786376953125</LatitudeDegrees>
              <LongitudeDegrees>-0.28785257600247859954833984375</LongitudeDegrees>
            </Position>
            <AltitudeMeters>2142</AltitudeMeters>
            <DistanceMeters>NAN</DistanceMeters>
          </Trackpoint>
          <Trackpoint>
            <Time>2022-08-22T09:40:36.000Z</Time>
            <Position>
              <LatitudeDegrees>42.81691378913819789886474609375</LatitudeDegrees>
              <LongitudeDegrees>-0.287789963185787200927734375</LongitudeDegrees>
            </Position>
            <AltitudeMeters>2140.39990234375</AltitudeMeters>
            <DistanceMeters>NAN</DistanceMeters>
          </Trackpoint>
          <Trackpoint>
            <Time>2022-08-22T09:40:37.000Z</Time>
            <Position>
              <LatitudeDegrees>42.8168959356844425201416015625</LatitudeDegrees>
              <LongitudeDegrees>-0.28779105283319950103759765625</LongitudeDegrees>
            </Position>
            <AltitudeMeters>2140.199951171875</AltitudeMeters>
            <DistanceMeters>NAN</DistanceMeters>
          </Trackpoint>
          <Trackpoint>
            <Time>2022-08-22T09:40:38.000Z</Time>
            <Position>
              <LatitudeDegrees>42.8168848715722560882568359375</LatitudeDegrees>
              <LongitudeDegrees>-0.28779289685189723968505859375</LongitudeDegrees>
            </Position>
            <AltitudeMeters>2140</AltitudeMeters>
            <DistanceMeters>NAN</DistanceMeters>
          </Trackpoint>
          <Trackpoint>
            <Time>2022-08-22T09:40:39.000Z</Time>
            <Position>
              <LatitudeDegrees>42.8168754838407039642333984375</LatitudeDegrees>
              <LongitudeDegrees>-0.28779289685189723968505859375</LongitudeDegrees>
            </Position>
            <AltitudeMeters>2140</AltitudeMeters>
            <DistanceMeters>NAN</DistanceMeters>
          </Trackpoint>
          <Trackpoint>
            <Time>2022-08-22T15:01:12.000Z</Time>
            <Position>
              <LatitudeDegrees>42.8167899884283542633056640625</LatitudeDegrees>
              <LongitudeDegrees>-0.28761486522853374481201171875</LongitudeDegrees>
            </Position>
            <AltitudeMeters>2133.800048828125</AltitudeMeters>
            <DistanceMeters>NAN</DistanceMeters>
          </Trackpoint>
          <Trackpoint>
            <Time>2022-08-22T15:01:13.000Z</Time>
            <Position>
              <LatitudeDegrees>42.8167889825999736785888671875</LatitudeDegrees>
              <LongitudeDegrees>-0.28761922381818294525146484375</LongitudeDegrees>
            </Position>
            <AltitudeMeters>2133.800048828125</AltitudeMeters>
            <DistanceMeters>NAN</DistanceMeters>
          </Trackpoint>
          <Trackpoint>
            <Time>2022-08-22T15:01:21.000Z</Time>
            <Position>
              <LatitudeDegrees>42.816808931529521942138671875</LatitudeDegrees>
              <LongitudeDegrees>-0.2876006998121738433837890625</LongitudeDegrees>
            </Position>
            <AltitudeMeters>2134.39990234375</AltitudeMeters>
            <DistanceMeters>NAN</DistanceMeters>
          </Trackpoint>
          <Trackpoint>
            <Time>2022-08-22T15:01:24.000Z</Time>
            <Position>
              <LatitudeDegrees>42.81681261956691741943359375</LatitudeDegrees>
              <LongitudeDegrees>-0.28761419467628002166748046875</LongitudeDegrees>
            </Position>
            <AltitudeMeters>2134.199951171875</AltitudeMeters>
            <DistanceMeters>NAN</DistanceMeters>
          </Trackpoint>
          <Trackpoint>
            <Time>2022-08-22T15:01:27.000Z</Time>
            <Position>
              <LatitudeDegrees>42.8168104402720928192138671875</LatitudeDegrees>
              <LongitudeDegrees>-0.28760095126926898956298828125</LongitudeDegrees>
            </Position>
            <AltitudeMeters>2134.39990234375</AltitudeMeters>
            <DistanceMeters>NAN</DistanceMeters>
          </Trackpoint>
          <Trackpoint>
            <Time>2022-08-22T15:01:29.000Z</Time>
            <Position>
              <LatitudeDegrees>42.8168127872049808502197265625</LatitudeDegrees>
              <LongitudeDegrees>-0.287594497203826904296875</LongitudeDegrees>
            </Position>
            <AltitudeMeters>2134.60009765625</AltitudeMeters>
            <DistanceMeters>NAN</DistanceMeters>
          </Trackpoint>
          <Trackpoint>
            <Time>2022-08-22T15:01:31.000Z</Time>
            <Position>
              <LatitudeDegrees>42.81681136228144168853759765625</LatitudeDegrees>
              <LongitudeDegrees>-0.2875936590135097503662109375</LongitudeDegrees>
            </Position>
            <AltitudeMeters>2134.60009765625</AltitudeMeters>
            <DistanceMeters>NAN</DistanceMeters>
          </Trackpoint>
          <Trackpoint>
            <Time>2022-08-22T15:01:43.000Z</Time>
            <Position>
              <LatitudeDegrees>42.81681370921432971954345703125</LatitudeDegrees>
              <LongitudeDegrees>-0.2875105105340480804443359375</LongitudeDegrees>
            </Position>
            <AltitudeMeters>2135.800048828125</AltitudeMeters>
            <DistanceMeters>NAN</DistanceMeters>
          </Trackpoint>
          <Trackpoint>
            <Time>2022-08-22T15:01:52.000Z</Time>
            <Position>
              <LatitudeDegrees>42.8168174810707569122314453125</LatitudeDegrees>
              <LongitudeDegrees>-0.28739894740283489227294921875</LongitudeDegrees>
            </Position>
            <AltitudeMeters>2137.60009765625</AltitudeMeters>
            <DistanceMeters>NAN</DistanceMeters>
          </Trackpoint>
          <Trackpoint>
            <Time>2022-08-22T15:01:54.000Z</Time>
            <Position>
              <LatitudeDegrees>42.8168134577572345733642578125</LatitudeDegrees>
              <LongitudeDegrees>-0.28736315667629241943359375</LongitudeDegrees>
            </Position>
            <AltitudeMeters>2138.199951171875</AltitudeMeters>
            <DistanceMeters>NAN</DistanceMeters>
          </Trackpoint>
          <Trackpoint>
            <Time>2022-08-22T15:02:11.000Z</Time>
            <Position>
              <LatitudeDegrees>42.816743887960910797119140625</LatitudeDegrees>
              <LongitudeDegrees>-0.28715017251670360565185546875</LongitudeDegrees>
            </Position>
            <AltitudeMeters>2140.199951171875</AltitudeMeters>
            <DistanceMeters>NAN</DistanceMeters>
          </Trackpoint>
          <Trackpoint>
            <Time>2022-08-22T15:02:12.000Z</Time>
            <Position>
              <LatitudeDegrees>42.81673424877226352691650390625</LatitudeDegrees>
              <LongitudeDegrees>-0.28714145533740520477294921875</LongitudeDegrees>
            </Position>
            <AltitudeMeters>2140.199951171875</AltitudeMeters>
            <DistanceMeters>NAN</DistanceMeters>
          </Trackpoint>
          <Trackpoint>
            <Time>2022-08-22T15:02:30.000Z</Time>
            <Position>
              <LatitudeDegrees>42.8165680356323719024658203125</LatitudeDegrees>
              <LongitudeDegrees>-0.287074148654937744140625</LongitudeDegrees>
            </Position>
            <AltitudeMeters>2134.800048828125</AltitudeMeters>
            <DistanceMeters>NAN</DistanceMeters>
          </Trackpoint>
          <Trackpoint>
            <Time>2022-08-22T15:02:38.000Z</Time>
            <Position>
              <LatitudeDegrees>42.8165195882320404052734375</LatitudeDegrees>
              <LongitudeDegrees>-0.28713558800518512725830078125</LongitudeDegrees>
            </Position>
            <AltitudeMeters>2131.800048828125</AltitudeMeters>
            <DistanceMeters>NAN</DistanceMeters>
          </Trackpoint>
          <Trackpoint>
            <Time>2022-08-22T15:02:51.000Z</Time>
            <Position>
              <LatitudeDegrees>42.8164537064731121063232421875</LatitudeDegrees>
              <LongitudeDegrees>-0.28711362741887569427490234375</LongitudeDegrees>
            </Position>
            <AltitudeMeters>2129.39990234375</AltitudeMeters>
            <DistanceMeters>NAN</DistanceMeters>
          </Trackpoint>
          <Trackpoint>
            <Time>2022-08-22T15:03:08.000Z</Time>
            <Position>
              <LatitudeDegrees>42.816409952938556671142578125</LatitudeDegrees>
              <LongitudeDegrees>-0.28699678368866443634033203125</LongitudeDegrees>
            </Position>
            <AltitudeMeters>2129.60009765625</AltitudeMeters>
            <DistanceMeters>NAN</DistanceMeters>
          </Trackpoint>
          <Trackpoint>
            <Time>2022-08-22T15:03:32.000Z</Time>
            <Position>
              <LatitudeDegrees>42.8163132257759571075439453125</LatitudeDegrees>
              <LongitudeDegrees>-0.2868040837347507476806640625</LongitudeDegrees>
            </Position>
            <AltitudeMeters>2129</AltitudeMeters>
            <DistanceMeters>NAN</DistanceMeters>
          </Trackpoint>
          <Trackpoint>
            <Time>2022-08-22T15:04:00.000Z</Time>
            <Position>
              <LatitudeDegrees>42.81615547835826873779296875</LatitudeDegrees>
              <LongitudeDegrees>-0.2866790257394313812255859375</LongitudeDegrees>
            </Position>
            <AltitudeMeters>2125.60009765625</AltitudeMeters>
            <DistanceMeters>NAN</DistanceMeters>
          </Trackpoint>
          <Trackpoint>
            <Time>2022-08-22T15:04:05.000Z</Time>
            <Position>
              <LatitudeDegrees>42.81610795296728610992431640625</LatitudeDegrees>
              <LongitudeDegrees>-0.28668858110904693603515625</LongitudeDegrees>
            </Position>
            <AltitudeMeters>2123.800048828125</AltitudeMeters>
            <DistanceMeters>NAN</DistanceMeters>
          </Trackpoint>
          <Trackpoint>
            <Time>2022-08-22T15:04:21.000Z</Time>
            <Position>
              <LatitudeDegrees>42.81603251583874225616455078125</LatitudeDegrees>
              <LongitudeDegrees>-0.286639966070652008056640625</LongitudeDegrees>
            </Position>
            <AltitudeMeters>2122.199951171875</AltitudeMeters>
            <DistanceMeters>NAN</DistanceMeters>
          </Trackpoint>
          <Trackpoint>
            <Time>2022-08-22T15:04:39.000Z</Time>
            <Position>
              <LatitudeDegrees>42.81592346727848052978515625</LatitudeDegrees>
              <LongitudeDegrees>-0.28647341765463352203369140625</LongitudeDegrees>
            </Position>
            <AltitudeMeters>2122.199951171875</AltitudeMeters>
            <DistanceMeters>NAN</DistanceMeters>
          </Trackpoint>
          <Trackpoint>
            <Time>2022-08-22T15:04:53.000Z</Time>
            <Position>
              <LatitudeDegrees>42.81589639373123645782470703125</LatitudeDegrees>
              <LongitudeDegrees>-0.28633343987166881561279296875</LongitudeDegrees>
            </Position>
            <AltitudeMeters>2124.60009765625</AltitudeMeters>
            <DistanceMeters>NAN</DistanceMeters>
          </Trackpoint>
          <Trackpoint>
            <Time>2022-08-22T15:04:56.000Z</Time>
            <Position>
              <LatitudeDegrees>42.8159008361399173736572265625</LatitudeDegrees>
              <LongitudeDegrees>-0.28631064109504222869873046875</LongitudeDegrees>
            </Position>
            <AltitudeMeters>2125.199951171875</AltitudeMeters>
            <DistanceMeters>NAN</DistanceMeters>
          </Trackpoint>
          <Trackpoint>
            <Time>2022-08-22T15:04:59.000Z</Time>
            <Position>
              <LatitudeDegrees>42.81588935293257236480712890625</LatitudeDegrees>
              <LongitudeDegrees>-0.28628901578485965728759765625</LongitudeDegrees>
            </Position>
            <AltitudeMeters>2125.39990234375</AltitudeMeters>
            <DistanceMeters>NAN</DistanceMeters>
          </Trackpoint>
          <Trackpoint>
            <Time>2022-08-22T15:05:20.000Z</Time>
            <Position>
              <LatitudeDegrees>42.8157130815088748931884765625</LatitudeDegrees>
              <LongitudeDegrees>-0.286239646375179290771484375</LongitudeDegrees>
            </Position>
            <AltitudeMeters>2119.39990234375</AltitudeMeters>
            <DistanceMeters>NAN</DistanceMeters>
          </Trackpoint>
          <Trackpoint>
            <Time>2022-08-22T15:05:34.000Z</Time>
            <Position>
              <LatitudeDegrees>42.81561107374727725982666015625</LatitudeDegrees>
              <LongitudeDegrees>-0.28615674935281276702880859375</LongitudeDegrees>
            </Position>
            <AltitudeMeters>2117.39990234375</AltitudeMeters>
            <DistanceMeters>NAN</DistanceMeters>
          </Trackpoint>
          <Trackpoint>
            <Time>2022-08-22T15:05:40.000Z</Time>
            <Position>
              <LatitudeDegrees>42.81559179536998271942138671875</LatitudeDegrees>
              <LongitudeDegrees>-0.28610025532543659210205078125</LongitudeDegrees>
            </Position>
            <AltitudeMeters>2118</AltitudeMeters>
            <DistanceMeters>NAN</DistanceMeters>
          </Trackpoint>
          <Trackpoint>
            <Time>2022-08-22T15:06:00.000Z</Time>
            <Position>
              <LatitudeDegrees>42.8155263327062129974365234375</LatitudeDegrees>
              <LongitudeDegrees>-0.28587863780558109283447265625</LongitudeDegrees>
            </Position>
            <AltitudeMeters>2120.800048828125</AltitudeMeters>
            <DistanceMeters>NAN</DistanceMeters>
          </Trackpoint>
          <Trackpoint>
            <Time>2022-08-22T15:06:16.000Z</Time>
            <Position>
              <LatitudeDegrees>42.81544142402708530426025390625</LatitudeDegrees>
              <LongitudeDegrees>-0.28584829531610012054443359375</LongitudeDegrees>
            </Position>
            <AltitudeMeters>2118.39990234375</AltitudeMeters>
            <DistanceMeters>NAN</DistanceMeters>
          </Trackpoint>
          <Trackpoint>
            <Time>2022-08-22T15:06:47.000Z</Time>
            <Position>
              <LatitudeDegrees>42.81531460583209991455078125</LatitudeDegrees>
              <LongitudeDegrees>-0.285772942006587982177734375</LongitudeDegrees>
            </Position>
            <AltitudeMeters>2115.800048828125</AltitudeMeters>
            <DistanceMeters>NAN</DistanceMeters>
          </Trackpoint>
          <Trackpoint>
            <Time>2022-08-22T15:07:19.000Z</Time>
            <Position>
              <LatitudeDegrees>42.81519331969320774078369140625</LatitudeDegrees>
              <LongitudeDegrees>-0.2857075631618499755859375</LongitudeDegrees>
            </Position>
            <AltitudeMeters>2113.199951171875</AltitudeMeters>
            <DistanceMeters>NAN</DistanceMeters>
          </Trackpoint>
          <Trackpoint>
            <Time>2022-08-22T15:07:23.000Z</Time>
            <Position>
              <LatitudeDegrees>42.81516901217401027679443359375</LatitudeDegrees>
              <LongitudeDegrees>-0.2856654860079288482666015625</LongitudeDegrees>
            </Position>
            <AltitudeMeters>2113.60009765625</AltitudeMeters>
            <DistanceMeters>NAN</DistanceMeters>
          </Trackpoint>
          <Trackpoint>
            <Time>2022-08-22T15:07:40.000Z</Time>
            <Position>
              <LatitudeDegrees>42.81505719758570194244384765625</LatitudeDegrees>
              <LongitudeDegrees>-0.285518467426300048828125</LongitudeDegrees>
            </Position>
            <AltitudeMeters>2113.60009765625</AltitudeMeters>
            <DistanceMeters>NAN</DistanceMeters>
          </Trackpoint>
          <Trackpoint>
            <Time>2022-08-22T15:08:01.000Z</Time>
            <Position>
              <LatitudeDegrees>42.8149161301553249359130859375</LatitudeDegrees>
              <LongitudeDegrees>-0.285355858504772186279296875</LongitudeDegrees>
            </Position>
            <AltitudeMeters>2114.199951171875</AltitudeMeters>
            <DistanceMeters>NAN</DistanceMeters>
          </Trackpoint>
          <Trackpoint>
            <Time>2022-08-22T15:08:10.000Z</Time>
            <Position>
              <LatitudeDegrees>42.8148517571389675140380859375</LatitudeDegrees>
              <LongitudeDegrees>-0.2852690219879150390625</LongitudeDegrees>
            </Position>
            <AltitudeMeters>2114.199951171875</AltitudeMeters>
            <DistanceMeters>NAN</DistanceMeters>
          </Trackpoint>
          <Trackpoint>
            <Time>2022-08-22T15:08:20.000Z</Time>
            <Position>
              <LatitudeDegrees>42.814833819866180419921875</LatitudeDegrees>
              <LongitudeDegrees>-0.2851094305515289306640625</LongitudeDegrees>
            </Position>
            <AltitudeMeters>2115.800048828125</AltitudeMeters>
            <DistanceMeters>NAN</DistanceMeters>
          </Trackpoint>
          <Trackpoint>
            <Time>2022-08-22T15:08:36.000Z</Time>
            <Position>
              <LatitudeDegrees>42.81486340798437595367431640625</LatitudeDegrees>
              <LongitudeDegrees>-0.28486333787441253662109375</LongitudeDegrees>
            </Position>
            <AltitudeMeters>2119.199951171875</AltitudeMeters>
            <DistanceMeters>NAN</DistanceMeters>
          </Trackpoint>
          <Trackpoint>
            <Time>2022-08-22T15:08:53.000Z</Time>
            <Position>
              <LatitudeDegrees>42.81483038328588008880615234375</LatitudeDegrees>
              <LongitudeDegrees>-0.28461297042667865753173828125</LongitudeDegrees>
            </Position>
            <AltitudeMeters>2122.800048828125</AltitudeMeters>
            <DistanceMeters>NAN</DistanceMeters>
          </Trackpoint>
          <Trackpoint>
            <Time>2022-08-22T15:09:12.000Z</Time>
            <Position>
              <LatitudeDegrees>42.814722172915935516357421875</LatitudeDegrees>
              <LongitudeDegrees>-0.28441281057894229888916015625</LongitudeDegrees>
            </Position>
            <AltitudeMeters>2123.60009765625</AltitudeMeters>
            <DistanceMeters>NAN</DistanceMeters>
          </Trackpoint>
          <Trackpoint>
            <Time>2022-08-22T15:09:30.000Z</Time>
            <Position>
              <LatitudeDegrees>42.814642377197742462158203125</LatitudeDegrees>
              <LongitudeDegrees>-0.28424777090549468994140625</LongitudeDegrees>
            </Position>
            <AltitudeMeters>2124.199951171875</AltitudeMeters>
            <DistanceMeters>NAN</DistanceMeters>
          </Trackpoint>
          <Trackpoint>
            <Time>2022-08-22T15:09:53.000Z</Time>
            <Position>
              <LatitudeDegrees>42.81452997587621212005615234375</LatitudeDegrees>
              <LongitudeDegrees>-0.2840580046176910400390625</LongitudeDegrees>
            </Position>
            <AltitudeMeters>2124.60009765625</AltitudeMeters>
            <DistanceMeters>NAN</DistanceMeters>
          </Trackpoint>
          <Trackpoint>
            <Time>2022-08-22T15:10:12.000Z</Time>
            <Position>
              <LatitudeDegrees>42.81440692953765392303466796875</LatitudeDegrees>
              <LongitudeDegrees>-0.2838751114904880523681640625</LongitudeDegrees>
            </Position>
            <AltitudeMeters>2124.60009765625</AltitudeMeters>
            <DistanceMeters>NAN</DistanceMeters>
          </Trackpoint>
          <Trackpoint>
            <Time>2022-08-22T15:10:23.000Z</Time>
            <Position>
              <LatitudeDegrees>42.814373485743999481201171875</LatitudeDegrees>
              <LongitudeDegrees>-0.283790118992328643798828125</LongitudeDegrees>
            </Position>
            <AltitudeMeters>2125</AltitudeMeters>
            <DistanceMeters>NAN</DistanceMeters>
          </Trackpoint>
          <Trackpoint>
            <Time>2022-08-22T15:10:44.000Z</Time>
            <Position>
              <LatitudeDegrees>42.8142154030501842498779296875</LatitudeDegrees>
              <LongitudeDegrees>-0.28370085172355175018310546875</LongitudeDegrees>
            </Position>
            <AltitudeMeters>2123.60009765625</AltitudeMeters>
            <DistanceMeters>NAN</DistanceMeters>
          </Trackpoint>
          <Trackpoint>
            <Time>2022-08-22T15:11:12.000Z</Time>
            <Position>
              <LatitudeDegrees>42.81410434283316135406494140625</LatitudeDegrees>
              <LongitudeDegrees>-0.28383605182170867919921875</LongitudeDegrees>
            </Position>
            <AltitudeMeters>2124.800048828125</AltitudeMeters>
            <DistanceMeters>NAN</DistanceMeters>
          </Trackpoint>
          <Trackpoint>
            <Time>2022-08-22T15:11:40.000Z</Time>
            <Position>
              <LatitudeDegrees>42.81407542526721954345703125</LatitudeDegrees>
              <LongitudeDegrees>-0.28407074511051177978515625</LongitudeDegrees>
            </Position>
            <AltitudeMeters>2124.199951171875</AltitudeMeters>
            <DistanceMeters>NAN</DistanceMeters>
          </Trackpoint>
          <Trackpoint>
            <Time>2022-08-22T15:11:47.000Z</Time>
            <Position>
              <LatitudeDegrees>42.81404281966388225555419921875</LatitudeDegrees>
              <LongitudeDegrees>-0.28410603292286396026611328125</LongitudeDegrees>
            </Position>
            <AltitudeMeters>2124.60009765625</AltitudeMeters>
            <DistanceMeters>NAN</DistanceMeters>
          </Trackpoint>
          <Trackpoint>
            <Time>2022-08-22T15:12:04.000Z</Time>
            <Position>
              <LatitudeDegrees>42.8139186836779117584228515625</LatitudeDegrees>
              <LongitudeDegrees>-0.2840923704206943511962890625</LongitudeDegrees>
            </Position>
            <AltitudeMeters>2127.60009765625</AltitudeMeters>
            <DistanceMeters>NAN</DistanceMeters>
          </Trackpoint>
          <Trackpoint>
            <Time>2022-08-22T15:12:17.000Z</Time>
            <Position>
              <LatitudeDegrees>42.81387501396238803863525390625</LatitudeDegrees>
              <LongitudeDegrees>-0.28409890830516815185546875</LongitudeDegrees>
            </Position>
            <AltitudeMeters>2128.39990234375</AltitudeMeters>
            <DistanceMeters>NAN</DistanceMeters>
          </Trackpoint>
          <Trackpoint>
            <Time>2022-08-22T15:12:23.000Z</Time>
            <Position>
              <LatitudeDegrees>42.81380795873701572418212890625</LatitudeDegrees>
              <LongitudeDegrees>-0.28410620056092739105224609375</LongitudeDegrees>
            </Position>
            <AltitudeMeters>2129.60009765625</AltitudeMeters>
            <DistanceMeters>NAN</DistanceMeters>
          </Trackpoint>
          <Trackpoint>
            <Time>2022-08-22T15:12:41.000Z</Time>
            <Position>
              <LatitudeDegrees>42.813627831637859344482421875</LatitudeDegrees>
              <LongitudeDegrees>-0.28412061743438243865966796875</LongitudeDegrees>
            </Position>
            <AltitudeMeters>2132.60009765625</AltitudeMeters>
            <DistanceMeters>NAN</DistanceMeters>
          </Trackpoint>
          <Trackpoint>
            <Time>2022-08-22T15:12:59.000Z</Time>
            <Position>
              <LatitudeDegrees>42.81345441006124019622802734375</LatitudeDegrees>
              <LongitudeDegrees>-0.28417912311851978302001953125</LongitudeDegrees>
            </Position>
            <AltitudeMeters>2135.39990234375</AltitudeMeters>
            <DistanceMeters>NAN</DistanceMeters>
          </Trackpoint>
          <Trackpoint>
            <Time>2022-08-22T15:13:17.000Z</Time>
            <Position>
              <LatitudeDegrees>42.8133024461567401885986328125</LatitudeDegrees>
              <LongitudeDegrees>-0.28420963324606418609619140625</LongitudeDegrees>
            </Position>
            <AltitudeMeters>2136.60009765625</AltitudeMeters>
            <DistanceMeters>NAN</DistanceMeters>
          </Trackpoint>
          <Trackpoint>
            <Time>2022-08-22T15:13:22.000Z</Time>
            <Position>
              <LatitudeDegrees>42.81328291632235050201416015625</LatitudeDegrees>
              <LongitudeDegrees>-0.2841728366911411285400390625</LongitudeDegrees>
            </Position>
            <AltitudeMeters>2136.60009765625</AltitudeMeters>
            <DistanceMeters>NAN</DistanceMeters>
          </Trackpoint>
          <Trackpoint>
            <Time>2022-08-22T15:13:24.000Z</Time>
            <Position>
              <LatitudeDegrees>42.8132659010589122772216796875</LatitudeDegrees>
              <LongitudeDegrees>-0.28415867127478122711181640625</LongitudeDegrees>
            </Position>
            <AltitudeMeters>2136.800048828125</AltitudeMeters>
            <DistanceMeters>NAN</DistanceMeters>
          </Trackpoint>
          <Trackpoint>
            <Time>2022-08-22T15:13:26.000Z</Time>
            <Position>
              <LatitudeDegrees>42.813256680965423583984375</LatitudeDegrees>
              <LongitudeDegrees>-0.2841574139893054962158203125</LongitudeDegrees>
            </Position>
            <AltitudeMeters>2136.800048828125</AltitudeMeters>
            <DistanceMeters>NAN</DistanceMeters>
          </Trackpoint>
          <Trackpoint>
            <Time>2022-08-22T15:13:53.000Z</Time>
            <Position>
              <LatitudeDegrees>42.813080660998821258544921875</LatitudeDegrees>
              <LongitudeDegrees>-0.2841171808540821075439453125</LongitudeDegrees>
            </Position>
            <AltitudeMeters>2137</AltitudeMeters>
            <DistanceMeters>NAN</DistanceMeters>
          </Trackpoint>
          <Trackpoint>
            <Time>2022-08-22T15:13:59.000Z</Time>
            <Position>
              <LatitudeDegrees>42.81302341260015964508056640625</LatitudeDegrees>
              <LongitudeDegrees>-0.28409999795258045196533203125</LongitudeDegrees>
            </Position>
            <AltitudeMeters>2136.800048828125</AltitudeMeters>
            <DistanceMeters>NAN</DistanceMeters>
          </Trackpoint>
          <Trackpoint>
            <Time>2022-08-22T15:14:00.000Z</Time>
            <Position>
              <LatitudeDegrees>42.81301192939281463623046875</LatitudeDegrees>
              <LongitudeDegrees>-0.2840950526297092437744140625</LongitudeDegrees>
            </Position>
            <AltitudeMeters>2136.800048828125</AltitudeMeters>
            <DistanceMeters>NAN</DistanceMeters>
          </Trackpoint>
          <Trackpoint>
            <Time>2022-08-22T15:14:01.000Z</Time>
            <Position>
              <LatitudeDegrees>42.81300044618546962738037109375</LatitudeDegrees>
              <LongitudeDegrees>-0.28408625163137912750244140625</LongitudeDegrees>
            </Position>
            <AltitudeMeters>2136.60009765625</AltitudeMeters>
            <DistanceMeters>NAN</DistanceMeters>
          </Trackpoint>
          <Trackpoint>
            <Time>2022-08-22T15:14:02.000Z</Time>
            <Position>
              <LatitudeDegrees>42.81299189664423465728759765625</LatitudeDegrees>
              <LongitudeDegrees>-0.28407719917595386505126953125</LongitudeDegrees>
            </Position>
            <AltitudeMeters>2136.60009765625</AltitudeMeters>
            <DistanceMeters>NAN</DistanceMeters>
          </Trackpoint>
          <Trackpoint>
            <Time>2022-08-22T15:14:20.000Z</Time>
            <Position>
              <LatitudeDegrees>42.8128213249146938323974609375</LatitudeDegrees>
              <LongitudeDegrees>-0.28402070514857769012451171875</LongitudeDegrees>
            </Position>
            <AltitudeMeters>2135.800048828125</AltitudeMeters>
            <DistanceMeters>NAN</DistanceMeters>
          </Trackpoint>
          <Trackpoint>
            <Time>2022-08-22T15:14:38.000Z</Time>
            <Position>
              <LatitudeDegrees>42.81264823861420154571533203125</LatitudeDegrees>
              <LongitudeDegrees>-0.28392548672854900360107421875</LongitudeDegrees>
            </Position>
            <AltitudeMeters>2134.800048828125</AltitudeMeters>
            <DistanceMeters>NAN</DistanceMeters>
          </Trackpoint>
          <Trackpoint>
            <Time>2022-08-22T15:14:43.000Z</Time>
            <Position>
              <LatitudeDegrees>42.8126250207424163818359375</LatitudeDegrees>
              <LongitudeDegrees>-0.28387653641402721405029296875</LongitudeDegrees>
            </Position>
            <AltitudeMeters>2134.60009765625</AltitudeMeters>
            <DistanceMeters>NAN</DistanceMeters>
          </Trackpoint>
          <Trackpoint>
            <Time>2022-08-22T15:14:45.000Z</Time>
            <Position>
              <LatitudeDegrees>42.8126201592385768890380859375</LatitudeDegrees>
              <LongitudeDegrees>-0.283849798142910003662109375</LongitudeDegrees>
            </Position>
            <AltitudeMeters>2134.39990234375</AltitudeMeters>
            <DistanceMeters>NAN</DistanceMeters>
          </Trackpoint>
          <Trackpoint>
            <Time>2022-08-22T15:15:12.000Z</Time>
            <Position>
              <LatitudeDegrees>42.812545560300350189208984375</LatitudeDegrees>
              <LongitudeDegrees>-0.28378634713590145111083984375</LongitudeDegrees>
            </Position>
            <AltitudeMeters>2133.800048828125</AltitudeMeters>
            <DistanceMeters>NAN</DistanceMeters>
          </Trackpoint>
          <Trackpoint>
            <Time>2022-08-22T15:15:33.000Z</Time>
            <Position>
              <LatitudeDegrees>42.812551595270633697509765625</LatitudeDegrees>
              <LongitudeDegrees>-0.283950380980968475341796875</LongitudeDegrees>
            </Position>
            <AltitudeMeters>2134.60009765625</AltitudeMeters>
            <DistanceMeters>NAN</DistanceMeters>
          </Trackpoint>
          <Trackpoint>
            <Time>2022-08-22T15:15:53.000Z</Time>
            <Position>
              <LatitudeDegrees>42.81244975514709949493408203125</LatitudeDegrees>
              <LongitudeDegrees>-0.28412799350917339324951171875</LongitudeDegrees>
            </Position>
            <AltitudeMeters>2132</AltitudeMeters>
            <DistanceMeters>NAN</DistanceMeters>
          </Trackpoint>
          <Trackpoint>
            <Time>2022-08-22T15:15:54.000Z</Time>
            <Position>
              <LatitudeDegrees>42.812436930835247039794921875</LatitudeDegrees>
              <LongitudeDegrees>-0.28413034044206142425537109375</LongitudeDegrees>
            </Position>
            <AltitudeMeters>2131.60009765625</AltitudeMeters>
            <DistanceMeters>NAN</DistanceMeters>
          </Trackpoint>
          <Trackpoint>
            <Time>2022-08-22T15:16:10.000Z</Time>
            <Position>
              <LatitudeDegrees>42.81229846179485321044921875</LatitudeDegrees>
              <LongitudeDegrees>-0.28419471345841884613037109375</LongitudeDegrees>
            </Position>
            <AltitudeMeters>2127.60009765625</AltitudeMeters>
            <DistanceMeters>NAN</DistanceMeters>
          </Trackpoint>
          <Trackpoint>
            <Time>2022-08-22T15:16:33.000Z</Time>
            <Position>
              <LatitudeDegrees>42.81220919452607631683349609375</LatitudeDegrees>
              <LongitudeDegrees>-0.284068398177623748779296875</LongitudeDegrees>
            </Position>
            <AltitudeMeters>2124.39990234375</AltitudeMeters>
            <DistanceMeters>NAN</DistanceMeters>
          </Trackpoint>
          <Trackpoint>
            <Time>2022-08-22T15:17:02.000Z</Time>
            <Position>
              <LatitudeDegrees>42.81214716844260692596435546875</LatitudeDegrees>
              <LongitudeDegrees>-0.2839994989335536956787109375</LongitudeDegrees>
            </Position>
            <AltitudeMeters>2122.39990234375</AltitudeMeters>
            <DistanceMeters>NAN</DistanceMeters>
          </Trackpoint>
          <Trackpoint>
            <Time>2022-08-22T15:17:06.000Z</Time>
            <Position>
              <LatitudeDegrees>42.812154293060302734375</LatitudeDegrees>
              <LongitudeDegrees>-0.2839941345155239105224609375</LongitudeDegrees>
            </Position>
            <AltitudeMeters>2122.60009765625</AltitudeMeters>
            <DistanceMeters>NAN</DistanceMeters>
          </Trackpoint>
          <Trackpoint>
            <Time>2022-08-22T15:17:09.000Z</Time>
            <Position>
              <LatitudeDegrees>42.81215320341289043426513671875</LatitudeDegrees>
              <LongitudeDegrees>-0.2839954756200313568115234375</LongitudeDegrees>
            </Position>
            <AltitudeMeters>2122.60009765625</AltitudeMeters>
            <DistanceMeters>NAN</DistanceMeters>
          </Trackpoint>
          <Trackpoint>
            <Time>2022-08-22T15:17:33.000Z</Time>
            <Position>
              <LatitudeDegrees>42.81209687702357769012451171875</LatitudeDegrees>
              <LongitudeDegrees>-0.2838787995278835296630859375</LongitudeDegrees>
            </Position>
            <AltitudeMeters>2120.60009765625</AltitudeMeters>
            <DistanceMeters>NAN</DistanceMeters>
          </Trackpoint>
          <Trackpoint>
            <Time>2022-08-22T15:17:37.000Z</Time>
            <Position>
              <LatitudeDegrees>42.81209461390972137451171875</LatitudeDegrees>
              <LongitudeDegrees>-0.2838995866477489471435546875</LongitudeDegrees>
            </Position>
            <AltitudeMeters>2120.60009765625</AltitudeMeters>
            <DistanceMeters>NAN</DistanceMeters>
          </Trackpoint>
          <Trackpoint>
            <Time>2022-08-22T15:21:50.000Z</Time>
            <Position>
              <LatitudeDegrees>42.81213794834911823272705078125</LatitudeDegrees>
              <LongitudeDegrees>-0.283962786197662353515625</LongitudeDegrees>
            </Position>
            <AltitudeMeters>2122</AltitudeMeters>
            <DistanceMeters>NAN</DistanceMeters>
          </Trackpoint>
          <Trackpoint>
            <Time>2022-08-22T15:22:00.000Z</Time>
            <Position>
              <LatitudeDegrees>42.8121521137654781341552734375</LatitudeDegrees>
              <LongitudeDegrees>-0.28391442261636257171630859375</LongitudeDegrees>
            </Position>
            <AltitudeMeters>2122.199951171875</AltitudeMeters>
            <DistanceMeters>NAN</DistanceMeters>
          </Trackpoint>
          <Trackpoint>
            <Time>2022-08-22T15:22:55.000Z</Time>
            <Position>
              <LatitudeDegrees>42.81208614818751811981201171875</LatitudeDegrees>
              <LongitudeDegrees>-0.28373957611620426177978515625</LongitudeDegrees>
            </Position>
            <AltitudeMeters>2120</AltitudeMeters>
            <DistanceMeters>NAN</DistanceMeters>
          </Trackpoint>
          <Trackpoint>
            <Time>2022-08-22T15:23:15.000Z</Time>
            <Position>
              <LatitudeDegrees>42.81205169856548309326171875</LatitudeDegrees>
              <LongitudeDegrees>-0.283501446247100830078125</LongitudeDegrees>
            </Position>
            <AltitudeMeters>2119</AltitudeMeters>
            <DistanceMeters>NAN</DistanceMeters>
          </Trackpoint>
          <Trackpoint>
            <Time>2022-08-22T15:23:31.000Z</Time>
            <Position>
              <LatitudeDegrees>42.8120022453367710113525390625</LatitudeDegrees>
              <LongitudeDegrees>-0.28327010571956634521484375</LongitudeDegrees>
            </Position>
            <AltitudeMeters>2118</AltitudeMeters>
            <DistanceMeters>NAN</DistanceMeters>
          </Trackpoint>
          <Trackpoint>
            <Time>2022-08-22T15:23:34.000Z</Time>
            <Position>
              <LatitudeDegrees>42.81199797056615352630615234375</LatitudeDegrees>
              <LongitudeDegrees>-0.28323548845946788787841796875</LongitudeDegrees>
            </Position>
            <AltitudeMeters>2118</AltitudeMeters>
            <DistanceMeters>NAN</DistanceMeters>
          </Trackpoint>
          <Trackpoint>
            <Time>2022-08-22T15:23:37.000Z</Time>
            <Position>
              <LatitudeDegrees>42.81199160031974315643310546875</LatitudeDegrees>
              <LongitudeDegrees>-0.283193998038768768310546875</LongitudeDegrees>
            </Position>
            <AltitudeMeters>2118</AltitudeMeters>
            <DistanceMeters>NAN</DistanceMeters>
          </Trackpoint>
          <Trackpoint>
            <Time>2022-08-22T15:23:43.000Z</Time>
            <Position>
              <LatitudeDegrees>42.81196377240121364593505859375</LatitudeDegrees>
              <LongitudeDegrees>-0.28318687342107295989990234375</LongitudeDegrees>
            </Position>
            <AltitudeMeters>2117.199951171875</AltitudeMeters>
            <DistanceMeters>NAN</DistanceMeters>
          </Trackpoint>
          <Trackpoint>
            <Time>2022-08-22T15:23:48.000Z</Time>
            <Position>
              <LatitudeDegrees>42.811943404376506805419921875</LatitudeDegrees>
              <LongitudeDegrees>-0.2832551859319210052490234375</LongitudeDegrees>
            </Position>
            <AltitudeMeters>2116.39990234375</AltitudeMeters>
            <DistanceMeters>NAN</DistanceMeters>
          </Trackpoint>
          <Trackpoint>
            <Time>2022-08-22T15:24:03.000Z</Time>
            <Position>
              <LatitudeDegrees>42.8118446655571460723876953125</LatitudeDegrees>
              <LongitudeDegrees>-0.28330941684544086456298828125</LongitudeDegrees>
            </Position>
            <AltitudeMeters>2113.60009765625</AltitudeMeters>
            <DistanceMeters>NAN</DistanceMeters>
          </Trackpoint>
          <Trackpoint>
            <Time>2022-08-22T15:24:10.000Z</Time>
            <Position>
              <LatitudeDegrees>42.811819016933441162109375</LatitudeDegrees>
              <LongitudeDegrees>-0.28322593308985233306884765625</LongitudeDegrees>
            </Position>
            <AltitudeMeters>2113.199951171875</AltitudeMeters>
            <DistanceMeters>NAN</DistanceMeters>
          </Trackpoint>
          <Trackpoint>
            <Time>2022-08-22T15:24:31.000Z</Time>
            <Position>
              <LatitudeDegrees>42.8117333538830280303955078125</LatitudeDegrees>
              <LongitudeDegrees>-0.28301605023443698883056640625</LongitudeDegrees>
            </Position>
            <AltitudeMeters>2111.199951171875</AltitudeMeters>
            <DistanceMeters>NAN</DistanceMeters>
          </Trackpoint>
          <Trackpoint>
            <Time>2022-08-22T15:24:48.000Z</Time>
            <Position>
              <LatitudeDegrees>42.8117863275110721588134765625</LatitudeDegrees>
              <LongitudeDegrees>-0.2827800996601581573486328125</LongitudeDegrees>
            </Position>
            <AltitudeMeters>2113</AltitudeMeters>
            <DistanceMeters>NAN</DistanceMeters>
          </Trackpoint>
          <Trackpoint>
            <Time>2022-08-22T15:24:52.000Z</Time>
            <Position>
              <LatitudeDegrees>42.8117890097200870513916015625</LatitudeDegrees>
              <LongitudeDegrees>-0.28271966613829135894775390625</LongitudeDegrees>
            </Position>
            <AltitudeMeters>2113.199951171875</AltitudeMeters>
            <DistanceMeters>NAN</DistanceMeters>
          </Trackpoint>
          <Trackpoint>
            <Time>2022-08-22T15:24:55.000Z</Time>
            <Position>
              <LatitudeDegrees>42.8117816336452960968017578125</LatitudeDegrees>
              <LongitudeDegrees>-0.28268446214497089385986328125</LongitudeDegrees>
            </Position>
            <AltitudeMeters>2113.39990234375</AltitudeMeters>
            <DistanceMeters>NAN</DistanceMeters>
          </Trackpoint>
          <Trackpoint>
            <Time>2022-08-22T15:24:56.000Z</Time>
            <Position>
              <LatitudeDegrees>42.8117752633988857269287109375</LatitudeDegrees>
              <LongitudeDegrees>-0.282678343355655670166015625</LongitudeDegrees>
            </Position>
            <AltitudeMeters>2113.199951171875</AltitudeMeters>
            <DistanceMeters>NAN</DistanceMeters>
          </Trackpoint>
          <Trackpoint>
            <Time>2022-08-22T15:24:57.000Z</Time>
            <Position>
              <LatitudeDegrees>42.811770401895046234130859375</LatitudeDegrees>
              <LongitudeDegrees>-0.28267272748053073883056640625</LongitudeDegrees>
            </Position>
            <AltitudeMeters>2113.199951171875</AltitudeMeters>
            <DistanceMeters>NAN</DistanceMeters>
          </Trackpoint>
          <Trackpoint>
            <Time>2022-08-22T15:25:00.000Z</Time>
            <Position>
              <LatitudeDegrees>42.81175673939287662506103515625</LatitudeDegrees>
              <LongitudeDegrees>-0.28267272748053073883056640625</LongitudeDegrees>
            </Position>
            <AltitudeMeters>2113</AltitudeMeters>
            <DistanceMeters>NAN</DistanceMeters>
          </Trackpoint>
          <Trackpoint>
            <Time>2022-08-22T15:25:02.000Z</Time>
            <Position>
              <LatitudeDegrees>42.81174751929938793182373046875</LatitudeDegrees>
              <LongitudeDegrees>-0.28267255984246730804443359375</LongitudeDegrees>
            </Position>
            <AltitudeMeters>2112.800048828125</AltitudeMeters>
            <DistanceMeters>NAN</DistanceMeters>
          </Trackpoint>
          <Trackpoint>
            <Time>2022-08-22T15:25:04.000Z</Time>
            <Position>
              <LatitudeDegrees>42.81172924675047397613525390625</LatitudeDegrees>
              <LongitudeDegrees>-0.28266526758670806884765625</LongitudeDegrees>
            </Position>
            <AltitudeMeters>2112.60009765625</AltitudeMeters>
            <DistanceMeters>NAN</DistanceMeters>
          </Trackpoint>
          <Trackpoint>
            <Time>2022-08-22T15:25:07.000Z</Time>
            <Position>
              <LatitudeDegrees>42.8117050230503082275390625</LatitudeDegrees>
              <LongitudeDegrees>-0.2826362662017345428466796875</LongitudeDegrees>
            </Position>
            <AltitudeMeters>2112.800048828125</AltitudeMeters>
            <DistanceMeters>NAN</DistanceMeters>
          </Trackpoint>
          <Trackpoint>
            <Time>2022-08-22T15:25:10.000Z</Time>
            <Position>
              <LatitudeDegrees>42.81169789843261241912841796875</LatitudeDegrees>
              <LongitudeDegrees>-0.282599218189716339111328125</LongitudeDegrees>
            </Position>
            <AltitudeMeters>2113.199951171875</AltitudeMeters>
            <DistanceMeters>NAN</DistanceMeters>
          </Trackpoint>
          <Trackpoint>
            <Time>2022-08-22T15:25:21.000Z</Time>
            <Position>
              <LatitudeDegrees>42.81165615655481815338134765625</LatitudeDegrees>
              <LongitudeDegrees>-0.2824612520635128021240234375</LongitudeDegrees>
            </Position>
            <AltitudeMeters>2114.60009765625</AltitudeMeters>
            <DistanceMeters>NAN</DistanceMeters>
          </Trackpoint>
          <Trackpoint>
            <Time>2022-08-22T15:25:31.000Z</Time>
            <Position>
              <LatitudeDegrees>42.8115360438823699951171875</LatitudeDegrees>
              <LongitudeDegrees>-0.28246519155800342559814453125</LongitudeDegrees>
            </Position>
            <AltitudeMeters>2116.60009765625</AltitudeMeters>
            <DistanceMeters>NAN</DistanceMeters>
          </Trackpoint>
          <Trackpoint>
            <Time>2022-08-22T15:25:50.000Z</Time>
            <Position>
              <LatitudeDegrees>42.81136999838054180145263671875</LatitudeDegrees>
              <LongitudeDegrees>-0.28238237835466861724853515625</LongitudeDegrees>
            </Position>
            <AltitudeMeters>2120</AltitudeMeters>
            <DistanceMeters>NAN</DistanceMeters>
          </Trackpoint>
          <Trackpoint>
            <Time>2022-08-22T15:26:03.000Z</Time>
            <Position>
              <LatitudeDegrees>42.81129238195717334747314453125</LatitudeDegrees>
              <LongitudeDegrees>-0.28234784491360187530517578125</LongitudeDegrees>
            </Position>
            <AltitudeMeters>2121.39990234375</AltitudeMeters>
            <DistanceMeters>NAN</DistanceMeters>
          </Trackpoint>
          <Trackpoint>
            <Time>2022-08-22T15:26:30.000Z</Time>
            <Position>
              <LatitudeDegrees>42.81111602671444416046142578125</LatitudeDegrees>
              <LongitudeDegrees>-0.28226201422512531280517578125</LongitudeDegrees>
            </Position>
            <AltitudeMeters>2124.60009765625</AltitudeMeters>
            <DistanceMeters>NAN</DistanceMeters>
          </Trackpoint>
          <Trackpoint>
            <Time>2022-08-22T15:26:53.000Z</Time>
            <Position>
              <LatitudeDegrees>42.81096213497221469879150390625</LatitudeDegrees>
              <LongitudeDegrees>-0.28237693011760711669921875</LongitudeDegrees>
            </Position>
            <AltitudeMeters>2126.800048828125</AltitudeMeters>
            <DistanceMeters>NAN</DistanceMeters>
          </Trackpoint>
          <Trackpoint>
            <Time>2022-08-22T15:27:11.000Z</Time>
            <Position>
              <LatitudeDegrees>42.8108328022062778472900390625</LatitudeDegrees>
              <LongitudeDegrees>-0.28232236392796039581298828125</LongitudeDegrees>
            </Position>
            <AltitudeMeters>2129.60009765625</AltitudeMeters>
            <DistanceMeters>NAN</DistanceMeters>
          </Trackpoint>
          <Trackpoint>
            <Time>2022-08-22T15:27:23.000Z</Time>
            <Position>
              <LatitudeDegrees>42.81079902313649654388427734375</LatitudeDegrees>
              <LongitudeDegrees>-0.2821997366845607757568359375</LongitudeDegrees>
            </Position>
            <AltitudeMeters>2130.800048828125</AltitudeMeters>
            <DistanceMeters>NAN</DistanceMeters>
          </Trackpoint>
          <Trackpoint>
            <Time>2022-08-22T15:27:39.000Z</Time>
            <Position>
              <LatitudeDegrees>42.8107788227498531341552734375</LatitudeDegrees>
              <LongitudeDegrees>-0.28203226625919342041015625</LongitudeDegrees>
            </Position>
            <AltitudeMeters>2131</AltitudeMeters>
            <DistanceMeters>NAN</DistanceMeters>
          </Trackpoint>
          <Trackpoint>
            <Time>2022-08-22T15:27:59.000Z</Time>
            <Position>
              <LatitudeDegrees>42.8106936626136302947998046875</LatitudeDegrees>
              <LongitudeDegrees>-0.28181961737573146820068359375</LongitudeDegrees>
            </Position>
            <AltitudeMeters>2132</AltitudeMeters>
            <DistanceMeters>NAN</DistanceMeters>
          </Trackpoint>
          <Trackpoint>
            <Time>2022-08-22T15:28:18.000Z</Time>
            <Position>
              <LatitudeDegrees>42.81056734733283519744873046875</LatitudeDegrees>
              <LongitudeDegrees>-0.2816364727914333343505859375</LongitudeDegrees>
            </Position>
            <AltitudeMeters>2134</AltitudeMeters>
            <DistanceMeters>NAN</DistanceMeters>
          </Trackpoint>
          <Trackpoint>
            <Time>2022-08-22T15:28:39.000Z</Time>
            <Position>
              <LatitudeDegrees>42.8104388527572154998779296875</LatitudeDegrees>
              <LongitudeDegrees>-0.2814517356455326080322265625</LongitudeDegrees>
            </Position>
            <AltitudeMeters>2137.199951171875</AltitudeMeters>
            <DistanceMeters>NAN</DistanceMeters>
          </Trackpoint>
          <Trackpoint>
            <Time>2022-08-22T15:29:01.000Z</Time>
            <Position>
              <LatitudeDegrees>42.81032343395054340362548828125</LatitudeDegrees>
              <LongitudeDegrees>-0.28132072649896144866943359375</LongitudeDegrees>
            </Position>
            <AltitudeMeters>2140.199951171875</AltitudeMeters>
            <DistanceMeters>NAN</DistanceMeters>
          </Trackpoint>
          <Trackpoint>
            <Time>2022-08-22T15:29:24.000Z</Time>
            <Position>
              <LatitudeDegrees>42.8103573806583881378173828125</LatitudeDegrees>
              <LongitudeDegrees>-0.28106398880481719970703125</LongitudeDegrees>
            </Position>
            <AltitudeMeters>2139.60009765625</AltitudeMeters>
            <DistanceMeters>NAN</DistanceMeters>
          </Trackpoint>
          <Trackpoint>
            <Time>2022-08-22T15:29:36.000Z</Time>
            <Position>
              <LatitudeDegrees>42.810376323759555816650390625</LatitudeDegrees>
              <LongitudeDegrees>-0.28093230910599231719970703125</LongitudeDegrees>
            </Position>
            <AltitudeMeters>2139.199951171875</AltitudeMeters>
            <DistanceMeters>NAN</DistanceMeters>
          </Trackpoint>
          <Trackpoint>
            <Time>2022-08-22T15:29:37.000Z</Time>
            <Position>
              <LatitudeDegrees>42.81037800014019012451171875</LatitudeDegrees>
              <LongitudeDegrees>-0.28093163855373859405517578125</LongitudeDegrees>
            </Position>
            <AltitudeMeters>2139</AltitudeMeters>
            <DistanceMeters>NAN</DistanceMeters>
          </Trackpoint>
          <Trackpoint>
            <Time>2022-08-22T15:29:38.000Z</Time>
            <Position>
              <LatitudeDegrees>42.81037875451147556304931640625</LatitudeDegrees>
              <LongitudeDegrees>-0.28092912398278713226318359375</LongitudeDegrees>
            </Position>
            <AltitudeMeters>2139</AltitudeMeters>
            <DistanceMeters>NAN</DistanceMeters>
          </Trackpoint>
          <Trackpoint>
            <Time>2022-08-22T15:29:42.000Z</Time>
            <Position>
              <LatitudeDegrees>42.81037439592182636260986328125</LatitudeDegrees>
              <LongitudeDegrees>-0.2808916568756103515625</LongitudeDegrees>
            </Position>
            <AltitudeMeters>2139</AltitudeMeters>
            <DistanceMeters>NAN</DistanceMeters>
          </Trackpoint>
          <Trackpoint>
            <Time>2022-08-22T15:29:43.000Z</Time>
            <Position>
              <LatitudeDegrees>42.81037640757858753204345703125</LatitudeDegrees>
              <LongitudeDegrees>-0.280881933867931365966796875</LongitudeDegrees>
            </Position>
            <AltitudeMeters>2139</AltitudeMeters>
            <DistanceMeters>NAN</DistanceMeters>
          </Trackpoint>
          <Trackpoint>
            <Time>2022-08-22T15:29:46.000Z</Time>
            <Position>
              <LatitudeDegrees>42.81039032153785228729248046875</LatitudeDegrees>
              <LongitudeDegrees>-0.28085251338779926300048828125</LongitudeDegrees>
            </Position>
            <AltitudeMeters>2138.60009765625</AltitudeMeters>
            <DistanceMeters>NAN</DistanceMeters>
          </Trackpoint>
          <Trackpoint>
            <Time>2022-08-22T15:29:55.000Z</Time>
            <Position>
              <LatitudeDegrees>42.81041018664836883544921875</LatitudeDegrees>
              <LongitudeDegrees>-0.28075109235942363739013671875</LongitudeDegrees>
            </Position>
            <AltitudeMeters>2138</AltitudeMeters>
            <DistanceMeters>NAN</DistanceMeters>
          </Trackpoint>
          <Trackpoint>
            <Time>2022-08-22T15:29:56.000Z</Time>
            <Position>
              <LatitudeDegrees>42.81041429378092288970947265625</LatitudeDegrees>
              <LongitudeDegrees>-0.28073701076209545135498046875</LongitudeDegrees>
            </Position>
            <AltitudeMeters>2137.800048828125</AltitudeMeters>
            <DistanceMeters>NAN</DistanceMeters>
          </Trackpoint>
          <Trackpoint>
            <Time>2022-08-22T15:29:57.000Z</Time>
            <Position>
              <LatitudeDegrees>42.81041999347507953643798828125</LatitudeDegrees>
              <LongitudeDegrees>-0.28072494082152843475341796875</LongitudeDegrees>
            </Position>
            <AltitudeMeters>2137.60009765625</AltitudeMeters>
            <DistanceMeters>NAN</DistanceMeters>
          </Trackpoint>
          <Trackpoint>
            <Time>2022-08-22T15:29:58.000Z</Time>
            <Position>
              <LatitudeDegrees>42.81042753718793392181396484375</LatitudeDegrees>
              <LongitudeDegrees>-0.28071387670934200286865234375</LongitudeDegrees>
            </Position>
            <AltitudeMeters>2137.39990234375</AltitudeMeters>
            <DistanceMeters>NAN</DistanceMeters>
          </Trackpoint>
          <Trackpoint>
            <Time>2022-08-22T15:30:00.000Z</Time>
            <Position>
              <LatitudeDegrees>42.81044363044202327728271484375</LatitudeDegrees>
              <LongitudeDegrees>-0.2806919999420642852783203125</LongitudeDegrees>
            </Position>
            <AltitudeMeters>2137</AltitudeMeters>
            <DistanceMeters>NAN</DistanceMeters>
          </Trackpoint>
          <Trackpoint>
            <Time>2022-08-22T15:30:02.000Z</Time>
            <Position>
              <LatitudeDegrees>42.8104582987725734710693359375</LatitudeDegrees>
              <LongitudeDegrees>-0.28066827915608882904052734375</LongitudeDegrees>
            </Position>
            <AltitudeMeters>2136.800048828125</AltitudeMeters>
            <DistanceMeters>NAN</DistanceMeters>
          </Trackpoint>
          <Trackpoint>
            <Time>2022-08-22T15:30:03.000Z</Time>
            <Position>
              <LatitudeDegrees>42.81046274118125438690185546875</LatitudeDegrees>
              <LongitudeDegrees>-0.28065226972103118896484375</LongitudeDegrees>
            </Position>
            <AltitudeMeters>2136.60009765625</AltitudeMeters>
            <DistanceMeters>NAN</DistanceMeters>
          </Trackpoint>
          <Trackpoint>
            <Time>2022-08-22T15:30:04.000Z</Time>
            <Position>
              <LatitudeDegrees>42.81046810559928417205810546875</LatitudeDegrees>
              <LongitudeDegrees>-0.2806370146572589874267578125</LongitudeDegrees>
            </Position>
            <AltitudeMeters>2136.39990234375</AltitudeMeters>
            <DistanceMeters>NAN</DistanceMeters>
          </Trackpoint>
          <Trackpoint>
            <Time>2022-08-22T15:30:07.000Z</Time>
            <Position>
              <LatitudeDegrees>42.8104831092059612274169921875</LatitudeDegrees>
              <LongitudeDegrees>-0.280598960816860198974609375</LongitudeDegrees>
            </Position>
            <AltitudeMeters>2136</AltitudeMeters>
            <DistanceMeters>NAN</DistanceMeters>
          </Trackpoint>
          <Trackpoint>
            <Time>2022-08-22T15:30:09.000Z</Time>
            <Position>
              <LatitudeDegrees>42.8104899823665618896484375</LatitudeDegrees>
              <LongitudeDegrees>-0.28057180345058441162109375</LongitudeDegrees>
            </Position>
            <AltitudeMeters>2135.800048828125</AltitudeMeters>
            <DistanceMeters>NAN</DistanceMeters>
          </Trackpoint>
          <Trackpoint>
            <Time>2022-08-22T15:30:11.000Z</Time>
            <Position>
              <LatitudeDegrees>42.8104904852807521820068359375</LatitudeDegrees>
              <LongitudeDegrees>-0.28054506517946720123291015625</LongitudeDegrees>
            </Position>
            <AltitudeMeters>2135.800048828125</AltitudeMeters>
            <DistanceMeters>NAN</DistanceMeters>
          </Trackpoint>
          <Trackpoint>
            <Time>2022-08-22T15:30:12.000Z</Time>
            <Position>
              <LatitudeDegrees>42.8104918263852596282958984375</LatitudeDegrees>
              <LongitudeDegrees>-0.280531235039234161376953125</LongitudeDegrees>
            </Position>
            <AltitudeMeters>2135.60009765625</AltitudeMeters>
            <DistanceMeters>NAN</DistanceMeters>
          </Trackpoint>
          <Trackpoint>
            <Time>2022-08-22T15:30:15.000Z</Time>
            <Position>
              <LatitudeDegrees>42.810488641262054443359375</LatitudeDegrees>
              <LongitudeDegrees>-0.280486643314361572265625</LongitudeDegrees>
            </Position>
            <AltitudeMeters>2135.60009765625</AltitudeMeters>
            <DistanceMeters>NAN</DistanceMeters>
          </Trackpoint>
          <Trackpoint>
            <Time>2022-08-22T15:30:16.000Z</Time>
            <Position>
              <LatitudeDegrees>42.8104884736239910125732421875</LatitudeDegrees>
              <LongitudeDegrees>-0.2804745733737945556640625</LongitudeDegrees>
            </Position>
            <AltitudeMeters>2135.60009765625</AltitudeMeters>
            <DistanceMeters>NAN</DistanceMeters>
          </Trackpoint>
          <Trackpoint>
            <Time>2022-08-22T15:30:18.000Z</Time>
            <Position>
              <LatitudeDegrees>42.81048419885337352752685546875</LatitudeDegrees>
              <LongitudeDegrees>-0.2804469130933284759521484375</LongitudeDegrees>
            </Position>
            <AltitudeMeters>2135.800048828125</AltitudeMeters>
            <DistanceMeters>NAN</DistanceMeters>
          </Trackpoint>
          <Trackpoint>
            <Time>2022-08-22T15:30:19.000Z</Time>
            <Position>
              <LatitudeDegrees>42.81048185192048549652099609375</LatitudeDegrees>
              <LongitudeDegrees>-0.28043660335242748260498046875</LongitudeDegrees>
            </Position>
            <AltitudeMeters>2136</AltitudeMeters>
            <DistanceMeters>NAN</DistanceMeters>
          </Trackpoint>
          <Trackpoint>
            <Time>2022-08-22T15:30:22.000Z</Time>
            <Position>
              <LatitudeDegrees>42.810476236045360565185546875</LatitudeDegrees>
              <LongitudeDegrees>-0.28039955534040927886962890625</LongitudeDegrees>
            </Position>
            <AltitudeMeters>2136.199951171875</AltitudeMeters>
            <DistanceMeters>NAN</DistanceMeters>
          </Trackpoint>
          <Trackpoint>
            <Time>2022-08-22T15:30:25.000Z</Time>
            <Position>
              <LatitudeDegrees>42.81046408228576183319091796875</LatitudeDegrees>
              <LongitudeDegrees>-0.28036334551870822906494140625</LongitudeDegrees>
            </Position>
            <AltitudeMeters>2136.800048828125</AltitudeMeters>
            <DistanceMeters>NAN</DistanceMeters>
          </Trackpoint>
          <Trackpoint>
            <Time>2022-08-22T15:30:31.000Z</Time>
            <Position>
              <LatitudeDegrees>42.81043223105370998382568359375</LatitudeDegrees>
              <LongitudeDegrees>-0.28029411099851131439208984375</LongitudeDegrees>
            </Position>
            <AltitudeMeters>2138</AltitudeMeters>
            <DistanceMeters>NAN</DistanceMeters>
          </Trackpoint>
          <Trackpoint>
            <Time>2022-08-22T15:30:32.000Z</Time>
            <Position>
              <LatitudeDegrees>42.8104287944734096527099609375</LatitudeDegrees>
              <LongitudeDegrees>-0.28027919121086597442626953125</LongitudeDegrees>
            </Position>
            <AltitudeMeters>2138.199951171875</AltitudeMeters>
            <DistanceMeters>NAN</DistanceMeters>
          </Trackpoint>
          <Trackpoint>
            <Time>2022-08-22T15:30:33.000Z</Time>
            <Position>
              <LatitudeDegrees>42.8104230947792530059814453125</LatitudeDegrees>
              <LongitudeDegrees>-0.28026594780385494232177734375</LongitudeDegrees>
            </Position>
            <AltitudeMeters>2138.39990234375</AltitudeMeters>
            <DistanceMeters>NAN</DistanceMeters>
          </Trackpoint>
          <Trackpoint>
            <Time>2022-08-22T15:30:41.000Z</Time>
            <Position>
              <LatitudeDegrees>42.810429967939853668212890625</LatitudeDegrees>
              <LongitudeDegrees>-0.2801527082920074462890625</LongitudeDegrees>
            </Position>
            <AltitudeMeters>2139</AltitudeMeters>
            <DistanceMeters>NAN</DistanceMeters>
          </Trackpoint>
          <Trackpoint>
            <Time>2022-08-22T15:30:44.000Z</Time>
            <Position>
              <LatitudeDegrees>42.8104417026042938232421875</LatitudeDegrees>
              <LongitudeDegrees>-0.28011423535645008087158203125</LongitudeDegrees>
            </Position>
            <AltitudeMeters>2139</AltitudeMeters>
            <DistanceMeters>NAN</DistanceMeters>
          </Trackpoint>
          <Trackpoint>
            <Time>2022-08-22T15:30:45.000Z</Time>
            <Position>
              <LatitudeDegrees>42.8104438818991184234619140625</LatitudeDegrees>
              <LongitudeDegrees>-0.2800982259213924407958984375</LongitudeDegrees>
            </Position>
            <AltitudeMeters>2139.199951171875</AltitudeMeters>
            <DistanceMeters>NAN</DistanceMeters>
          </Trackpoint>
          <Trackpoint>
            <Time>2022-08-22T15:30:46.000Z</Time>
            <Position>
              <LatitudeDegrees>42.8104468993842601776123046875</LatitudeDegrees>
              <LongitudeDegrees>-0.28008473105728626251220703125</LongitudeDegrees>
            </Position>
            <AltitudeMeters>2139.199951171875</AltitudeMeters>
            <DistanceMeters>NAN</DistanceMeters>
          </Trackpoint>
          <Trackpoint>
            <Time>2022-08-22T15:30:49.000Z</Time>
            <Position>
              <LatitudeDegrees>42.81046223826706409454345703125</LatitudeDegrees>
              <LongitudeDegrees>-0.28004718013107776641845703125</LongitudeDegrees>
            </Position>
            <AltitudeMeters>2139</AltitudeMeters>
            <DistanceMeters>NAN</DistanceMeters>
          </Trackpoint>
          <Trackpoint>
            <Time>2022-08-22T15:30:50.000Z</Time>
            <Position>
              <LatitudeDegrees>42.81046475283801555633544921875</LatitudeDegrees>
              <LongitudeDegrees>-0.28003276325762271881103515625</LongitudeDegrees>
            </Position>
            <AltitudeMeters>2139</AltitudeMeters>
            <DistanceMeters>NAN</DistanceMeters>
          </Trackpoint>
          <Trackpoint>
            <Time>2022-08-22T15:30:52.000Z</Time>
            <Position>
              <LatitudeDegrees>42.81047631986439228057861328125</LatitudeDegrees>
              <LongitudeDegrees>-0.28000325895845890045166015625</LongitudeDegrees>
            </Position>
            <AltitudeMeters>2138.800048828125</AltitudeMeters>
            <DistanceMeters>NAN</DistanceMeters>
          </Trackpoint>
          <Trackpoint>
            <Time>2022-08-22T15:30:55.000Z</Time>
            <Position>
              <LatitudeDegrees>42.8104938380420207977294921875</LatitudeDegrees>
              <LongitudeDegrees>-0.2799570746719837188720703125</LongitudeDegrees>
            </Position>
            <AltitudeMeters>2138.39990234375</AltitudeMeters>
            <DistanceMeters>NAN</DistanceMeters>
          </Trackpoint>
          <Trackpoint>
            <Time>2022-08-22T15:30:57.000Z</Time>
            <Position>
              <LatitudeDegrees>42.810504399240016937255859375</LatitudeDegrees>
              <LongitudeDegrees>-0.27993586845695972442626953125</LongitudeDegrees>
            </Position>
            <AltitudeMeters>2138.39990234375</AltitudeMeters>
            <DistanceMeters>NAN</DistanceMeters>
          </Trackpoint>
          <Trackpoint>
            <Time>2022-08-22T15:30:58.000Z</Time>
            <Position>
              <LatitudeDegrees>42.81050967983901500701904296875</LatitudeDegrees>
              <LongitudeDegrees>-0.2799248881638050079345703125</LongitudeDegrees>
            </Position>
            <AltitudeMeters>2138.199951171875</AltitudeMeters>
            <DistanceMeters>NAN</DistanceMeters>
          </Trackpoint>
          <Trackpoint>
            <Time>2022-08-22T15:31:01.000Z</Time>
            <Position>
              <LatitudeDegrees>42.81052912585437297821044921875</LatitudeDegrees>
              <LongitudeDegrees>-0.27989588677883148193359375</LongitudeDegrees>
            </Position>
            <AltitudeMeters>2138</AltitudeMeters>
            <DistanceMeters>NAN</DistanceMeters>
          </Trackpoint>
          <Trackpoint>
            <Time>2022-08-22T15:31:02.000Z</Time>
            <Position>
              <LatitudeDegrees>42.81053650192916393280029296875</LatitudeDegrees>
              <LongitudeDegrees>-0.2798870019614696502685546875</LongitudeDegrees>
            </Position>
            <AltitudeMeters>2137.800048828125</AltitudeMeters>
            <DistanceMeters>NAN</DistanceMeters>
          </Trackpoint>
          <Trackpoint>
            <Time>2022-08-22T15:31:21.000Z</Time>
            <Position>
              <LatitudeDegrees>42.81066055409610271453857421875</LatitudeDegrees>
              <LongitudeDegrees>-0.27973637916147708892822265625</LongitudeDegrees>
            </Position>
            <AltitudeMeters>2136</AltitudeMeters>
            <DistanceMeters>NAN</DistanceMeters>
          </Trackpoint>
          <Trackpoint>
            <Time>2022-08-22T15:31:25.000Z</Time>
            <Position>
              <LatitudeDegrees>42.8106919862329959869384765625</LatitudeDegrees>
              <LongitudeDegrees>-0.279730260372161865234375</LongitudeDegrees>
            </Position>
            <AltitudeMeters>2135.60009765625</AltitudeMeters>
            <DistanceMeters>NAN</DistanceMeters>
          </Trackpoint>
          <Trackpoint>
            <Time>2022-08-22T15:31:27.000Z</Time>
            <Position>
              <LatitudeDegrees>42.81070112250745296478271484375</LatitudeDegrees>
              <LongitudeDegrees>-0.279713831841945648193359375</LongitudeDegrees>
            </Position>
            <AltitudeMeters>2135.39990234375</AltitudeMeters>
            <DistanceMeters>NAN</DistanceMeters>
          </Trackpoint>
          <Trackpoint>
            <Time>2022-08-22T15:31:30.000Z</Time>
            <Position>
              <LatitudeDegrees>42.81071436591446399688720703125</LatitudeDegrees>
              <LongitudeDegrees>-0.279680974781513214111328125</LongitudeDegrees>
            </Position>
            <AltitudeMeters>2135.199951171875</AltitudeMeters>
            <DistanceMeters>NAN</DistanceMeters>
          </Trackpoint>
          <Trackpoint>
            <Time>2022-08-22T15:31:48.000Z</Time>
            <Position>
              <LatitudeDegrees>42.8107566945254802703857421875</LatitudeDegrees>
              <LongitudeDegrees>-0.2794467844069004058837890625</LongitudeDegrees>
            </Position>
            <AltitudeMeters>2135.60009765625</AltitudeMeters>
            <DistanceMeters>NAN</DistanceMeters>
          </Trackpoint>
          <Trackpoint>
            <Time>2022-08-22T15:31:55.000Z</Time>
            <Position>
              <LatitudeDegrees>42.81075409613549709320068359375</LatitudeDegrees>
              <LongitudeDegrees>-0.279336981475353240966796875</LongitudeDegrees>
            </Position>
            <AltitudeMeters>2136.39990234375</AltitudeMeters>
            <DistanceMeters>NAN</DistanceMeters>
          </Trackpoint>
          <Trackpoint>
            <Time>2022-08-22T15:32:10.000Z</Time>
            <Position>
              <LatitudeDegrees>42.81071989797055721282958984375</LatitudeDegrees>
              <LongitudeDegrees>-0.2790934033691883087158203125</LongitudeDegrees>
            </Position>
            <AltitudeMeters>2138.199951171875</AltitudeMeters>
            <DistanceMeters>NAN</DistanceMeters>
          </Trackpoint>
          <Trackpoint>
            <Time>2022-08-22T15:32:25.000Z</Time>
            <Position>
              <LatitudeDegrees>42.810727022588253021240234375</LatitudeDegrees>
              <LongitudeDegrees>-0.27885460294783115386962890625</LongitudeDegrees>
            </Position>
            <AltitudeMeters>2139.199951171875</AltitudeMeters>
            <DistanceMeters>NAN</DistanceMeters>
          </Trackpoint>
          <Trackpoint>
            <Time>2022-08-22T15:32:30.000Z</Time>
            <Position>
              <LatitudeDegrees>42.81073481775820255279541015625</LatitudeDegrees>
              <LongitudeDegrees>-0.278798528015613555908203125</LongitudeDegrees>
            </Position>
            <AltitudeMeters>2139.199951171875</AltitudeMeters>
            <DistanceMeters>NAN</DistanceMeters>
          </Trackpoint>
          <Trackpoint>
            <Time>2022-08-22T15:32:36.000Z</Time>
            <Position>
              <LatitudeDegrees>42.81074621714651584625244140625</LatitudeDegrees>
              <LongitudeDegrees>-0.27870020829141139984130859375</LongitudeDegrees>
            </Position>
            <AltitudeMeters>2139.800048828125</AltitudeMeters>
            <DistanceMeters>NAN</DistanceMeters>
          </Trackpoint>
          <Trackpoint>
            <Time>2022-08-22T15:32:43.000Z</Time>
            <Position>
              <LatitudeDegrees>42.81075376085937023162841796875</LatitudeDegrees>
              <LongitudeDegrees>-0.2785874716937541961669921875</LongitudeDegrees>
            </Position>
            <AltitudeMeters>2140.39990234375</AltitudeMeters>
            <DistanceMeters>NAN</DistanceMeters>
          </Trackpoint>
          <Trackpoint>
            <Time>2022-08-22T15:32:53.000Z</Time>
            <Position>
              <LatitudeDegrees>42.8107463009655475616455078125</LatitudeDegrees>
              <LongitudeDegrees>-0.27844204567372798919677734375</LongitudeDegrees>
            </Position>
            <AltitudeMeters>2141.199951171875</AltitudeMeters>
            <DistanceMeters>NAN</DistanceMeters>
          </Trackpoint>
          <Trackpoint>
            <Time>2022-08-22T15:32:56.000Z</Time>
            <Position>
              <LatitudeDegrees>42.81074437312781810760498046875</LatitudeDegrees>
              <LongitudeDegrees>-0.2784268744289875030517578125</LongitudeDegrees>
            </Position>
            <AltitudeMeters>2141.39990234375</AltitudeMeters>
            <DistanceMeters>NAN</DistanceMeters>
          </Trackpoint>
          <Trackpoint>
            <Time>2022-08-22T15:33:14.000Z</Time>
            <Position>
              <LatitudeDegrees>42.81072475947439670562744140625</LatitudeDegrees>
              <LongitudeDegrees>-0.27844741009175777435302734375</LongitudeDegrees>
            </Position>
            <AltitudeMeters>2141.39990234375</AltitudeMeters>
            <DistanceMeters>NAN</DistanceMeters>
          </Trackpoint>
          <Trackpoint>
            <Time>2022-08-22T15:33:18.000Z</Time>
            <Position>
              <LatitudeDegrees>42.81072174198925495147705078125</LatitudeDegrees>
              <LongitudeDegrees>-0.2784449793398380279541015625</LongitudeDegrees>
            </Position>
            <AltitudeMeters>2141.39990234375</AltitudeMeters>
            <DistanceMeters>NAN</DistanceMeters>
          </Trackpoint>
          <Trackpoint>
            <Time>2022-08-22T15:33:20.000Z</Time>
            <Position>
              <LatitudeDegrees>42.8107221610844135284423828125</LatitudeDegrees>
              <LongitudeDegrees>-0.278441794216632843017578125</LongitudeDegrees>
            </Position>
            <AltitudeMeters>2141.39990234375</AltitudeMeters>
            <DistanceMeters>NAN</DistanceMeters>
          </Trackpoint>
          <Trackpoint>
            <Time>2022-08-22T15:33:23.000Z</Time>
            <Position>
              <LatitudeDegrees>42.810718975961208343505859375</LatitudeDegrees>
              <LongitudeDegrees>-0.278437435626983642578125</LongitudeDegrees>
            </Position>
            <AltitudeMeters>2141.60009765625</AltitudeMeters>
            <DistanceMeters>NAN</DistanceMeters>
          </Trackpoint>
          <Trackpoint>
            <Time>2022-08-22T15:33:26.000Z</Time>
            <Position>
              <LatitudeDegrees>42.81071905978024005889892578125</LatitudeDegrees>
              <LongitudeDegrees>-0.27843651361763477325439453125</LongitudeDegrees>
            </Position>
            <AltitudeMeters>2141.60009765625</AltitudeMeters>
            <DistanceMeters>NAN</DistanceMeters>
          </Trackpoint>
          <Trackpoint>
            <Time>2022-08-22T15:33:29.000Z</Time>
            <Position>
              <LatitudeDegrees>42.81070816330611705780029296875</LatitudeDegrees>
              <LongitudeDegrees>-0.27844120748341083526611328125</LongitudeDegrees>
            </Position>
            <AltitudeMeters>2141.60009765625</AltitudeMeters>
            <DistanceMeters>NAN</DistanceMeters>
          </Trackpoint>
          <Trackpoint>
            <Time>2022-08-22T15:33:34.000Z</Time>
            <Position>
              <LatitudeDegrees>42.8106893040239810943603515625</LatitudeDegrees>
              <LongitudeDegrees>-0.27847163379192352294921875</LongitudeDegrees>
            </Position>
            <AltitudeMeters>2141.60009765625</AltitudeMeters>
            <DistanceMeters>NAN</DistanceMeters>
          </Trackpoint>
          <Trackpoint>
            <Time>2022-08-22T15:33:37.000Z</Time>
            <Position>
              <LatitudeDegrees>42.810676060616970062255859375</LatitudeDegrees>
              <LongitudeDegrees>-0.278500132262706756591796875</LongitudeDegrees>
            </Position>
            <AltitudeMeters>2141.60009765625</AltitudeMeters>
            <DistanceMeters>NAN</DistanceMeters>
          </Trackpoint>
          <Trackpoint>
            <Time>2022-08-22T15:33:38.000Z</Time>
            <Position>
              <LatitudeDegrees>42.81067572534084320068359375</LatitudeDegrees>
              <LongitudeDegrees>-0.27850390411913394927978515625</LongitudeDegrees>
            </Position>
            <AltitudeMeters>2141.60009765625</AltitudeMeters>
            <DistanceMeters>NAN</DistanceMeters>
          </Trackpoint>
          <Trackpoint>
            <Time>2022-08-22T15:33:39.000Z</Time>
            <Position>
              <LatitudeDegrees>42.810671366751194000244140625</LatitudeDegrees>
              <LongitudeDegrees>-0.27850390411913394927978515625</LongitudeDegrees>
            </Position>
            <AltitudeMeters>2141.60009765625</AltitudeMeters>
            <DistanceMeters>NAN</DistanceMeters>
          </Trackpoint>
          <Trackpoint>
            <Time>2022-08-22T15:33:40.000Z</Time>
            <Position>
              <LatitudeDegrees>42.81066625379025936126708984375</LatitudeDegrees>
              <LongitudeDegrees>-0.27850155718624591827392578125</LongitudeDegrees>
            </Position>
            <AltitudeMeters>2141.60009765625</AltitudeMeters>
            <DistanceMeters>NAN</DistanceMeters>
          </Trackpoint>
          <Trackpoint>
            <Time>2022-08-22T15:33:41.000Z</Time>
            <Position>
              <LatitudeDegrees>42.810661308467388153076171875</LatitudeDegrees>
              <LongitudeDegrees>-0.278498120605945587158203125</LongitudeDegrees>
            </Position>
            <AltitudeMeters>2141.60009765625</AltitudeMeters>
            <DistanceMeters>NAN</DistanceMeters>
          </Trackpoint>
          <Trackpoint>
            <Time>2022-08-22T15:33:42.000Z</Time>
            <Position>
              <LatitudeDegrees>42.81065686605870723724365234375</LatitudeDegrees>
              <LongitudeDegrees>-0.2784929238259792327880859375</LongitudeDegrees>
            </Position>
            <AltitudeMeters>2141.800048828125</AltitudeMeters>
            <DistanceMeters>NAN</DistanceMeters>
          </Trackpoint>
          <Trackpoint>
            <Time>2022-08-22T15:33:48.000Z</Time>
            <Position>
              <LatitudeDegrees>42.81062769703567028045654296875</LatitudeDegrees>
              <LongitudeDegrees>-0.27849501930177211761474609375</LongitudeDegrees>
            </Position>
            <AltitudeMeters>2142</AltitudeMeters>
            <DistanceMeters>NAN</DistanceMeters>
          </Trackpoint>
          <Trackpoint>
            <Time>2022-08-22T15:33:52.000Z</Time>
            <Position>
              <LatitudeDegrees>42.8106188960373401641845703125</LatitudeDegrees>
              <LongitudeDegrees>-0.27852703817188739776611328125</LongitudeDegrees>
            </Position>
            <AltitudeMeters>2141.800048828125</AltitudeMeters>
            <DistanceMeters>NAN</DistanceMeters>
          </Trackpoint>
          <Trackpoint>
            <Time>2022-08-22T15:33:57.000Z</Time>
            <Position>
              <LatitudeDegrees>42.81060238368809223175048828125</LatitudeDegrees>
              <LongitudeDegrees>-0.2785495854914188385009765625</LongitudeDegrees>
            </Position>
            <AltitudeMeters>2141.800048828125</AltitudeMeters>
            <DistanceMeters>NAN</DistanceMeters>
          </Trackpoint>
          <Trackpoint>
            <Time>2022-08-22T15:34:05.000Z</Time>
            <Position>
              <LatitudeDegrees>42.81055904924869537353515625</LatitudeDegrees>
              <LongitudeDegrees>-0.27854665182530879974365234375</LongitudeDegrees>
            </Position>
            <AltitudeMeters>2142.199951171875</AltitudeMeters>
            <DistanceMeters>NAN</DistanceMeters>
          </Trackpoint>
          <Trackpoint>
            <Time>2022-08-22T15:34:12.000Z</Time>
            <Position>
              <LatitudeDegrees>42.8105209954082965850830078125</LatitudeDegrees>
              <LongitudeDegrees>-0.2785686962306499481201171875</LongitudeDegrees>
            </Position>
            <AltitudeMeters>2142.39990234375</AltitudeMeters>
            <DistanceMeters>NAN</DistanceMeters>
          </Trackpoint>
          <Trackpoint>
            <Time>2022-08-22T15:34:13.000Z</Time>
            <Position>
              <LatitudeDegrees>42.81051605008542537689208984375</LatitudeDegrees>
              <LongitudeDegrees>-0.2785713784396648406982421875</LongitudeDegrees>
            </Position>
            <AltitudeMeters>2142.39990234375</AltitudeMeters>
            <DistanceMeters>NAN</DistanceMeters>
          </Trackpoint>
          <Trackpoint>
            <Time>2022-08-22T15:34:18.000Z</Time>
            <Position>
              <LatitudeDegrees>42.81048386357724666595458984375</LatitudeDegrees>
              <LongitudeDegrees>-0.27862460352480411529541015625</LongitudeDegrees>
            </Position>
            <AltitudeMeters>2142.39990234375</AltitudeMeters>
            <DistanceMeters>NAN</DistanceMeters>
          </Trackpoint>
          <Trackpoint>
            <Time>2022-08-22T15:34:36.000Z</Time>
            <Position>
              <LatitudeDegrees>42.81036534346640110015869140625</LatitudeDegrees>
              <LongitudeDegrees>-0.27874496765434741973876953125</LongitudeDegrees>
            </Position>
            <AltitudeMeters>2142.60009765625</AltitudeMeters>
            <DistanceMeters>NAN</DistanceMeters>
          </Trackpoint>
          <Trackpoint>
            <Time>2022-08-22T15:34:39.000Z</Time>
            <Position>
              <LatitudeDegrees>42.8103496693074703216552734375</LatitudeDegrees>
              <LongitudeDegrees>-0.2787349931895732879638671875</LongitudeDegrees>
            </Position>
            <AltitudeMeters>2142.800048828125</AltitudeMeters>
            <DistanceMeters>NAN</DistanceMeters>
          </Trackpoint>
          <Trackpoint>
            <Time>2022-08-22T15:34:41.000Z</Time>
            <Position>
              <LatitudeDegrees>42.81033852137625217437744140625</LatitudeDegrees>
              <LongitudeDegrees>-0.27872568927705287933349609375</LongitudeDegrees>
            </Position>
            <AltitudeMeters>2143</AltitudeMeters>
            <DistanceMeters>NAN</DistanceMeters>
          </Trackpoint>
          <Trackpoint>
            <Time>2022-08-22T15:34:43.000Z</Time>
            <Position>
              <LatitudeDegrees>42.81033365987241268157958984375</LatitudeDegrees>
              <LongitudeDegrees>-0.27872334234416484832763671875</LongitudeDegrees>
            </Position>
            <AltitudeMeters>2143</AltitudeMeters>
            <DistanceMeters>NAN</DistanceMeters>
          </Trackpoint>
          <Trackpoint>
            <Time>2022-08-22T15:34:46.000Z</Time>
            <Position>
              <LatitudeDegrees>42.81032427214086055755615234375</LatitudeDegrees>
              <LongitudeDegrees>-0.27869970537722110748291015625</LongitudeDegrees>
            </Position>
            <AltitudeMeters>2143.199951171875</AltitudeMeters>
            <DistanceMeters>NAN</DistanceMeters>
          </Trackpoint>
          <Trackpoint>
            <Time>2022-08-22T15:34:49.000Z</Time>
            <Position>
              <LatitudeDegrees>42.81031094491481781005859375</LatitudeDegrees>
              <LongitudeDegrees>-0.2786800079047679901123046875</LongitudeDegrees>
            </Position>
            <AltitudeMeters>2143.60009765625</AltitudeMeters>
            <DistanceMeters>NAN</DistanceMeters>
          </Trackpoint>
          <Trackpoint>
            <Time>2022-08-22T15:35:13.000Z</Time>
            <Position>
              <LatitudeDegrees>42.81017390079796314239501953125</LatitudeDegrees>
              <LongitudeDegrees>-0.2785063348710536956787109375</LongitudeDegrees>
            </Position>
            <AltitudeMeters>2146.199951171875</AltitudeMeters>
            <DistanceMeters>NAN</DistanceMeters>
          </Trackpoint>
          <Trackpoint>
            <Time>2022-08-22T15:35:15.000Z</Time>
            <Position>
              <LatitudeDegrees>42.81015948392450809478759765625</LatitudeDegrees>
              <LongitudeDegrees>-0.27848370373249053955078125</LongitudeDegrees>
            </Position>
            <AltitudeMeters>2146.39990234375</AltitudeMeters>
            <DistanceMeters>NAN</DistanceMeters>
          </Trackpoint>
          <Trackpoint>
            <Time>2022-08-22T15:35:30.000Z</Time>
            <Position>
              <LatitudeDegrees>42.809998132288455963134765625</LatitudeDegrees>
              <LongitudeDegrees>-0.27846149168908596038818359375</LongitudeDegrees>
            </Position>
            <AltitudeMeters>2149</AltitudeMeters>
            <DistanceMeters>NAN</DistanceMeters>
          </Trackpoint>
          <Trackpoint>
            <Time>2022-08-22T15:35:44.000Z</Time>
            <Position>
              <LatitudeDegrees>42.80990014784038066864013671875</LatitudeDegrees>
              <LongitudeDegrees>-0.27845579199492931365966796875</LongitudeDegrees>
            </Position>
            <AltitudeMeters>2151.39990234375</AltitudeMeters>
            <DistanceMeters>NAN</DistanceMeters>
          </Trackpoint>
          <Trackpoint>
            <Time>2022-08-22T15:35:51.000Z</Time>
            <Position>
              <LatitudeDegrees>42.809839546680450439453125</LatitudeDegrees>
              <LongitudeDegrees>-0.278486721217632293701171875</LongitudeDegrees>
            </Position>
            <AltitudeMeters>2152.39990234375</AltitudeMeters>
            <DistanceMeters>NAN</DistanceMeters>
          </Trackpoint>
          <Trackpoint>
            <Time>2022-08-22T15:35:56.000Z</Time>
            <Position>
              <LatitudeDegrees>42.80981398187577724456787109375</LatitudeDegrees>
              <LongitudeDegrees>-0.27850004844367504119873046875</LongitudeDegrees>
            </Position>
            <AltitudeMeters>2153</AltitudeMeters>
            <DistanceMeters>NAN</DistanceMeters>
          </Trackpoint>
          <Trackpoint>
            <Time>2022-08-22T15:36:23.000Z</Time>
            <Position>
              <LatitudeDegrees>42.809741981327533721923828125</LatitudeDegrees>
              <LongitudeDegrees>-0.2785515971481800079345703125</LongitudeDegrees>
            </Position>
            <AltitudeMeters>2154.199951171875</AltitudeMeters>
            <DistanceMeters>NAN</DistanceMeters>
          </Trackpoint>
          <Trackpoint>
            <Time>2022-08-22T15:36:33.000Z</Time>
            <Position>
              <LatitudeDegrees>42.8097408078610897064208984375</LatitudeDegrees>
              <LongitudeDegrees>-0.27856090106070041656494140625</LongitudeDegrees>
            </Position>
            <AltitudeMeters>2154</AltitudeMeters>
            <DistanceMeters>NAN</DistanceMeters>
          </Trackpoint>
          <Trackpoint>
            <Time>2022-08-22T15:36:40.000Z</Time>
            <Position>
              <LatitudeDegrees>42.8097443282604217529296875</LatitudeDegrees>
              <LongitudeDegrees>-0.27856576256453990936279296875</LongitudeDegrees>
            </Position>
            <AltitudeMeters>2154</AltitudeMeters>
            <DistanceMeters>NAN</DistanceMeters>
          </Trackpoint>
          <Trackpoint>
            <Time>2022-08-22T15:36:43.000Z</Time>
            <Position>
              <LatitudeDegrees>42.80974558554589748382568359375</LatitudeDegrees>
              <LongitudeDegrees>-0.27856827713549137115478515625</LongitudeDegrees>
            </Position>
            <AltitudeMeters>2153.800048828125</AltitudeMeters>
            <DistanceMeters>NAN</DistanceMeters>
          </Trackpoint>
          <Trackpoint>
            <Time>2022-08-22T15:37:03.000Z</Time>
            <Position>
              <LatitudeDegrees>42.80966729857027530670166015625</LatitudeDegrees>
              <LongitudeDegrees>-0.27854631654918193817138671875</LongitudeDegrees>
            </Position>
            <AltitudeMeters>2155.800048828125</AltitudeMeters>
            <DistanceMeters>NAN</DistanceMeters>
          </Trackpoint>
          <Trackpoint>
            <Time>2022-08-22T15:37:09.000Z</Time>
            <Position>
              <LatitudeDegrees>42.80963360331952571868896484375</LatitudeDegrees>
              <LongitudeDegrees>-0.27856861241161823272705078125</LongitudeDegrees>
            </Position>
            <AltitudeMeters>2156.39990234375</AltitudeMeters>
            <DistanceMeters>NAN</DistanceMeters>
          </Trackpoint>
          <Trackpoint>
            <Time>2022-08-22T15:37:11.000Z</Time>
            <Position>
              <LatitudeDegrees>42.80962052755057811737060546875</LatitudeDegrees>
              <LongitudeDegrees>-0.278569869697093963623046875</LongitudeDegrees>
            </Position>
            <AltitudeMeters>2156.800048828125</AltitudeMeters>
            <DistanceMeters>NAN</DistanceMeters>
          </Trackpoint>
          <Trackpoint>
            <Time>2022-08-22T15:37:13.000Z</Time>
            <Position>
              <LatitudeDegrees>42.8096087090671062469482421875</LatitudeDegrees>
              <LongitudeDegrees>-0.2785660140216350555419921875</LongitudeDegrees>
            </Position>
            <AltitudeMeters>2157</AltitudeMeters>
            <DistanceMeters>NAN</DistanceMeters>
          </Trackpoint>
          <Trackpoint>
            <Time>2022-08-22T15:37:14.000Z</Time>
            <Position>
              <LatitudeDegrees>42.80959588475525379180908203125</LatitudeDegrees>
              <LongitudeDegrees>-0.27856349945068359375</LongitudeDegrees>
            </Position>
            <AltitudeMeters>2157.39990234375</AltitudeMeters>
            <DistanceMeters>NAN</DistanceMeters>
          </Trackpoint>
          <Trackpoint>
            <Time>2022-08-22T15:37:19.000Z</Time>
            <Position>
              <LatitudeDegrees>42.8095513768494129180908203125</LatitudeDegrees>
              <LongitudeDegrees>-0.278572551906108856201171875</LongitudeDegrees>
            </Position>
            <AltitudeMeters>2158.199951171875</AltitudeMeters>
            <DistanceMeters>NAN</DistanceMeters>
          </Trackpoint>
          <Trackpoint>
            <Time>2022-08-22T15:37:20.000Z</Time>
            <Position>
              <LatitudeDegrees>42.809542156755924224853515625</LatitudeDegrees>
              <LongitudeDegrees>-0.278576575219631195068359375</LongitudeDegrees>
            </Position>
            <AltitudeMeters>2158.39990234375</AltitudeMeters>
            <DistanceMeters>NAN</DistanceMeters>
          </Trackpoint>
          <Trackpoint>
            <Time>2022-08-22T15:37:23.000Z</Time>
            <Position>
              <LatitudeDegrees>42.80952639877796173095703125</LatitudeDegrees>
              <LongitudeDegrees>-0.27858185581862926483154296875</LongitudeDegrees>
            </Position>
            <AltitudeMeters>2158.800048828125</AltitudeMeters>
            <DistanceMeters>NAN</DistanceMeters>
          </Trackpoint>
          <Trackpoint>
            <Time>2022-08-22T15:37:25.000Z</Time>
            <Position>
              <LatitudeDegrees>42.8095098026096820831298828125</LatitudeDegrees>
              <LongitudeDegrees>-0.27858839370310306549072265625</LongitudeDegrees>
            </Position>
            <AltitudeMeters>2159.199951171875</AltitudeMeters>
            <DistanceMeters>NAN</DistanceMeters>
          </Trackpoint>
          <Trackpoint>
            <Time>2022-08-22T15:37:27.000Z</Time>
            <Position>
              <LatitudeDegrees>42.80949898995459079742431640625</LatitudeDegrees>
              <LongitudeDegrees>-0.27858738787472248077392578125</LongitudeDegrees>
            </Position>
            <AltitudeMeters>2159.39990234375</AltitudeMeters>
            <DistanceMeters>NAN</DistanceMeters>
          </Trackpoint>
          <Trackpoint>
            <Time>2022-08-22T15:37:28.000Z</Time>
            <Position>
              <LatitudeDegrees>42.80949731357395648956298828125</LatitudeDegrees>
              <LongitudeDegrees>-0.278587304055690765380859375</LongitudeDegrees>
            </Position>
            <AltitudeMeters>2159.39990234375</AltitudeMeters>
            <DistanceMeters>NAN</DistanceMeters>
          </Trackpoint>
          <Trackpoint>
            <Time>2022-08-22T15:37:40.000Z</Time>
            <Position>
              <LatitudeDegrees>42.80943344347178936004638671875</LatitudeDegrees>
              <LongitudeDegrees>-0.27859157882630825042724609375</LongitudeDegrees>
            </Position>
            <AltitudeMeters>2160.800048828125</AltitudeMeters>
            <DistanceMeters>NAN</DistanceMeters>
          </Trackpoint>
          <Trackpoint>
            <Time>2022-08-22T15:37:42.000Z</Time>
            <Position>
              <LatitudeDegrees>42.8094239719212055206298828125</LatitudeDegrees>
              <LongitudeDegrees>-0.27859308756887912750244140625</LongitudeDegrees>
            </Position>
            <AltitudeMeters>2161</AltitudeMeters>
            <DistanceMeters>NAN</DistanceMeters>
          </Trackpoint>
          <Trackpoint>
            <Time>2022-08-22T15:37:48.000Z</Time>
            <Position>
              <LatitudeDegrees>42.80938248150050640106201171875</LatitudeDegrees>
              <LongitudeDegrees>-0.27859099209308624267578125</LongitudeDegrees>
            </Position>
            <AltitudeMeters>2161.60009765625</AltitudeMeters>
            <DistanceMeters>NAN</DistanceMeters>
          </Trackpoint>
          <Trackpoint>
            <Time>2022-08-22T15:38:13.000Z</Time>
            <Position>
              <LatitudeDegrees>42.80920763500034809112548828125</LatitudeDegrees>
              <LongitudeDegrees>-0.27853826992213726043701171875</LongitudeDegrees>
            </Position>
            <AltitudeMeters>2164</AltitudeMeters>
            <DistanceMeters>NAN</DistanceMeters>
          </Trackpoint>
          <Trackpoint>
            <Time>2022-08-22T15:38:42.000Z</Time>
            <Position>
              <LatitudeDegrees>42.8090427629649639129638671875</LatitudeDegrees>
              <LongitudeDegrees>-0.27847792021930217742919921875</LongitudeDegrees>
            </Position>
            <AltitudeMeters>2173.800048828125</AltitudeMeters>
            <DistanceMeters>NAN</DistanceMeters>
          </Trackpoint>
          <Trackpoint>
            <Time>2022-08-22T15:39:05.000Z</Time>
            <Position>
              <LatitudeDegrees>42.8089200519025325775146484375</LatitudeDegrees>
              <LongitudeDegrees>-0.27830022387206554412841796875</LongitudeDegrees>
            </Position>
            <AltitudeMeters>2180.800048828125</AltitudeMeters>
            <DistanceMeters>NAN</DistanceMeters>
          </Trackpoint>
          <Trackpoint>
            <Time>2022-08-22T15:39:21.000Z</Time>
            <Position>
              <LatitudeDegrees>42.80881670303642749786376953125</LatitudeDegrees>
              <LongitudeDegrees>-0.27819712646305561065673828125</LongitudeDegrees>
            </Position>
            <AltitudeMeters>2184</AltitudeMeters>
            <DistanceMeters>NAN</DistanceMeters>
          </Trackpoint>
          <Trackpoint>
            <Time>2022-08-22T15:39:25.000Z</Time>
            <Position>
              <LatitudeDegrees>42.80878049321472644805908203125</LatitudeDegrees>
              <LongitudeDegrees>-0.27818421833217144012451171875</LongitudeDegrees>
            </Position>
            <AltitudeMeters>2185.39990234375</AltitudeMeters>
            <DistanceMeters>NAN</DistanceMeters>
          </Trackpoint>
          <Trackpoint>
            <Time>2022-08-22T15:39:29.000Z</Time>
            <Position>
              <LatitudeDegrees>42.8087571077048778533935546875</LatitudeDegrees>
              <LongitudeDegrees>-0.27816846035420894622802734375</LongitudeDegrees>
            </Position>
            <AltitudeMeters>2186.199951171875</AltitudeMeters>
            <DistanceMeters>NAN</DistanceMeters>
          </Trackpoint>
          <Trackpoint>
            <Time>2022-08-22T15:39:38.000Z</Time>
            <Position>
              <LatitudeDegrees>42.808740176260471343994140625</LatitudeDegrees>
              <LongitudeDegrees>-0.27812286280095577239990234375</LongitudeDegrees>
            </Position>
            <AltitudeMeters>2186.199951171875</AltitudeMeters>
            <DistanceMeters>NAN</DistanceMeters>
          </Trackpoint>
          <Trackpoint>
            <Time>2022-08-22T15:39:54.000Z</Time>
            <Position>
              <LatitudeDegrees>42.80872098170220851898193359375</LatitudeDegrees>
              <LongitudeDegrees>-0.2780352719128131866455078125</LongitudeDegrees>
            </Position>
            <AltitudeMeters>2185.39990234375</AltitudeMeters>
            <DistanceMeters>NAN</DistanceMeters>
          </Trackpoint>
          <Trackpoint>
            <Time>2022-08-22T15:40:12.000Z</Time>
            <Position>
              <LatitudeDegrees>42.80867270193994045257568359375</LatitudeDegrees>
              <LongitudeDegrees>-0.27801155112683773040771484375</LongitudeDegrees>
            </Position>
            <AltitudeMeters>2187.199951171875</AltitudeMeters>
            <DistanceMeters>NAN</DistanceMeters>
          </Trackpoint>
          <Trackpoint>
            <Time>2022-08-22T15:40:46.000Z</Time>
            <Position>
              <LatitudeDegrees>42.80856843106448650360107421875</LatitudeDegrees>
              <LongitudeDegrees>-0.277879536151885986328125</LongitudeDegrees>
            </Position>
            <AltitudeMeters>2192</AltitudeMeters>
            <DistanceMeters>NAN</DistanceMeters>
          </Trackpoint>
          <Trackpoint>
            <Time>2022-08-22T15:41:09.000Z</Time>
            <Position>
              <LatitudeDegrees>42.8084865398705005645751953125</LatitudeDegrees>
              <LongitudeDegrees>-0.2776590920984745025634765625</LongitudeDegrees>
            </Position>
            <AltitudeMeters>2194.199951171875</AltitudeMeters>
            <DistanceMeters>NAN</DistanceMeters>
          </Trackpoint>
          <Trackpoint>
            <Time>2022-08-22T15:41:10.000Z</Time>
            <Position>
              <LatitudeDegrees>42.808480672538280487060546875</LatitudeDegrees>
              <LongitudeDegrees>-0.27764760889112949371337890625</LongitudeDegrees>
            </Position>
            <AltitudeMeters>2194.199951171875</AltitudeMeters>
            <DistanceMeters>NAN</DistanceMeters>
          </Trackpoint>
          <Trackpoint>
            <Time>2022-08-22T15:41:12.000Z</Time>
            <Position>
              <LatitudeDegrees>42.8084764815866947174072265625</LatitudeDegrees>
              <LongitudeDegrees>-0.277625732123851776123046875</LongitudeDegrees>
            </Position>
            <AltitudeMeters>2194</AltitudeMeters>
            <DistanceMeters>NAN</DistanceMeters>
          </Trackpoint>
          <Trackpoint>
            <Time>2022-08-22T15:41:16.000Z</Time>
            <Position>
              <LatitudeDegrees>42.8084617294371128082275390625</LatitudeDegrees>
              <LongitudeDegrees>-0.2775816433131694793701171875</LongitudeDegrees>
            </Position>
            <AltitudeMeters>2194</AltitudeMeters>
            <DistanceMeters>NAN</DistanceMeters>
          </Trackpoint>
          <Trackpoint>
            <Time>2022-08-22T15:41:18.000Z</Time>
            <Position>
              <LatitudeDegrees>42.8084499947726726531982421875</LatitudeDegrees>
              <LongitudeDegrees>-0.27756764553487300872802734375</LongitudeDegrees>
            </Position>
            <AltitudeMeters>2194.199951171875</AltitudeMeters>
            <DistanceMeters>NAN</DistanceMeters>
          </Trackpoint>
          <Trackpoint>
            <Time>2022-08-22T15:41:19.000Z</Time>
            <Position>
              <LatitudeDegrees>42.80844211578369140625</LatitudeDegrees>
              <LongitudeDegrees>-0.27756177820265293121337890625</LongitudeDegrees>
            </Position>
            <AltitudeMeters>2194.39990234375</AltitudeMeters>
            <DistanceMeters>NAN</DistanceMeters>
          </Trackpoint>
          <Trackpoint>
            <Time>2022-08-22T15:41:25.000Z</Time>
            <Position>
              <LatitudeDegrees>42.8084020502865314483642578125</LatitudeDegrees>
              <LongitudeDegrees>-0.277541242539882659912109375</LongitudeDegrees>
            </Position>
            <AltitudeMeters>2195</AltitudeMeters>
            <DistanceMeters>NAN</DistanceMeters>
          </Trackpoint>
          <Trackpoint>
            <Time>2022-08-22T15:41:27.000Z</Time>
            <Position>
              <LatitudeDegrees>42.80839182436466217041015625</LatitudeDegrees>
              <LongitudeDegrees>-0.27754065580666065216064453125</LongitudeDegrees>
            </Position>
            <AltitudeMeters>2195.39990234375</AltitudeMeters>
            <DistanceMeters>NAN</DistanceMeters>
          </Trackpoint>
          <Trackpoint>
            <Time>2022-08-22T15:41:28.000Z</Time>
            <Position>
              <LatitudeDegrees>42.8083846159279346466064453125</LatitudeDegrees>
              <LongitudeDegrees>-0.27753411792218685150146484375</LongitudeDegrees>
            </Position>
            <AltitudeMeters>2195.39990234375</AltitudeMeters>
            <DistanceMeters>NAN</DistanceMeters>
          </Trackpoint>
          <Trackpoint>
            <Time>2022-08-22T15:41:30.000Z</Time>
            <Position>
              <LatitudeDegrees>42.80837598256766796112060546875</LatitudeDegrees>
              <LongitudeDegrees>-0.2775186114013195037841796875</LongitudeDegrees>
            </Position>
            <AltitudeMeters>2195.60009765625</AltitudeMeters>
            <DistanceMeters>NAN</DistanceMeters>
          </Trackpoint>
          <Trackpoint>
            <Time>2022-08-22T15:41:33.000Z</Time>
            <Position>
              <LatitudeDegrees>42.80837112106382846832275390625</LatitudeDegrees>
              <LongitudeDegrees>-0.27748181484639644622802734375</LongitudeDegrees>
            </Position>
            <AltitudeMeters>2195.60009765625</AltitudeMeters>
            <DistanceMeters>NAN</DistanceMeters>
          </Trackpoint>
          <Trackpoint>
            <Time>2022-08-22T15:41:37.000Z</Time>
            <Position>
              <LatitudeDegrees>42.80839425511658191680908203125</LatitudeDegrees>
              <LongitudeDegrees>-0.27743051759898662567138671875</LongitudeDegrees>
            </Position>
            <AltitudeMeters>2194.39990234375</AltitudeMeters>
            <DistanceMeters>NAN</DistanceMeters>
          </Trackpoint>
          <Trackpoint>
            <Time>2022-08-22T15:41:38.000Z</Time>
            <Position>
              <LatitudeDegrees>42.80840464867651462554931640625</LatitudeDegrees>
              <LongitudeDegrees>-0.2774103172123432159423828125</LongitudeDegrees>
            </Position>
            <AltitudeMeters>2194</AltitudeMeters>
            <DistanceMeters>NAN</DistanceMeters>
          </Trackpoint>
          <Trackpoint>
            <Time>2022-08-22T15:42:02.000Z</Time>
            <Position>
              <LatitudeDegrees>42.80832770280539989471435546875</LatitudeDegrees>
              <LongitudeDegrees>-0.27719163335859775543212890625</LongitudeDegrees>
            </Position>
            <AltitudeMeters>2194.800048828125</AltitudeMeters>
            <DistanceMeters>NAN</DistanceMeters>
          </Trackpoint>
          <Trackpoint>
            <Time>2022-08-22T15:42:03.000Z</Time>
            <Position>
              <LatitudeDegrees>42.808321081101894378662109375</LatitudeDegrees>
              <LongitudeDegrees>-0.2771813236176967620849609375</LongitudeDegrees>
            </Position>
            <AltitudeMeters>2195</AltitudeMeters>
            <DistanceMeters>NAN</DistanceMeters>
          </Trackpoint>
          <Trackpoint>
            <Time>2022-08-22T15:42:20.000Z</Time>
            <Position>
              <LatitudeDegrees>42.80816677026450634002685546875</LatitudeDegrees>
              <LongitudeDegrees>-0.277055092155933380126953125</LongitudeDegrees>
            </Position>
            <AltitudeMeters>2198</AltitudeMeters>
            <DistanceMeters>NAN</DistanceMeters>
          </Trackpoint>
          <Trackpoint>
            <Time>2022-08-22T15:42:40.000Z</Time>
            <Position>
              <LatitudeDegrees>42.8080265410244464874267578125</LatitudeDegrees>
              <LongitudeDegrees>-0.2768946625292301177978515625</LongitudeDegrees>
            </Position>
            <AltitudeMeters>2201.39990234375</AltitudeMeters>
            <DistanceMeters>NAN</DistanceMeters>
          </Trackpoint>
          <Trackpoint>
            <Time>2022-08-22T15:42:43.000Z</Time>
            <Position>
              <LatitudeDegrees>42.80801631510257720947265625</LatitudeDegrees>
              <LongitudeDegrees>-0.276860632002353668212890625</LongitudeDegrees>
            </Position>
            <AltitudeMeters>2201.60009765625</AltitudeMeters>
            <DistanceMeters>NAN</DistanceMeters>
          </Trackpoint>
          <Trackpoint>
            <Time>2022-08-22T15:43:03.000Z</Time>
            <Position>
              <LatitudeDegrees>42.80797348357737064361572265625</LatitudeDegrees>
              <LongitudeDegrees>-0.27659945189952850341796875</LongitudeDegrees>
            </Position>
            <AltitudeMeters>2201</AltitudeMeters>
            <DistanceMeters>NAN</DistanceMeters>
          </Trackpoint>
          <Trackpoint>
            <Time>2022-08-22T15:43:17.000Z</Time>
            <Position>
              <LatitudeDegrees>42.80788245610892772674560546875</LatitudeDegrees>
              <LongitudeDegrees>-0.27645586989820003509521484375</LongitudeDegrees>
            </Position>
            <AltitudeMeters>2200.800048828125</AltitudeMeters>
            <DistanceMeters>NAN</DistanceMeters>
          </Trackpoint>
          <Trackpoint>
            <Time>2022-08-22T15:43:33.000Z</Time>
            <Position>
              <LatitudeDegrees>42.807756476104259490966796875</LatitudeDegrees>
              <LongitudeDegrees>-0.27626828290522098541259765625</LongitudeDegrees>
            </Position>
            <AltitudeMeters>2201</AltitudeMeters>
            <DistanceMeters>NAN</DistanceMeters>
          </Trackpoint>
          <Trackpoint>
            <Time>2022-08-22T15:43:50.000Z</Time>
            <Position>
              <LatitudeDegrees>42.80764759518206119537353515625</LatitudeDegrees>
              <LongitudeDegrees>-0.2760695479810237884521484375</LongitudeDegrees>
            </Position>
            <AltitudeMeters>2201.60009765625</AltitudeMeters>
            <DistanceMeters>NAN</DistanceMeters>
          </Trackpoint>
          <Trackpoint>
            <Time>2022-08-22T15:43:59.000Z</Time>
            <Position>
              <LatitudeDegrees>42.807580791413784027099609375</LatitudeDegrees>
              <LongitudeDegrees>-0.27597558684647083282470703125</LongitudeDegrees>
            </Position>
            <AltitudeMeters>2200.60009765625</AltitudeMeters>
            <DistanceMeters>NAN</DistanceMeters>
          </Trackpoint>
          <Trackpoint>
            <Time>2022-08-22T15:44:03.000Z</Time>
            <Position>
              <LatitudeDegrees>42.80757375061511993408203125</LatitudeDegrees>
              <LongitudeDegrees>-0.2759542129933834075927734375</LongitudeDegrees>
            </Position>
            <AltitudeMeters>2200.39990234375</AltitudeMeters>
            <DistanceMeters>NAN</DistanceMeters>
          </Trackpoint>
          <Trackpoint>
            <Time>2022-08-22T15:44:11.000Z</Time>
            <Position>
              <LatitudeDegrees>42.80753158964216709136962890625</LatitudeDegrees>
              <LongitudeDegrees>-0.27591406367719173431396484375</LongitudeDegrees>
            </Position>
            <AltitudeMeters>2200.800048828125</AltitudeMeters>
            <DistanceMeters>NAN</DistanceMeters>
          </Trackpoint>
          <Trackpoint>
            <Time>2022-08-22T15:44:29.000Z</Time>
            <Position>
              <LatitudeDegrees>42.80736629851162433624267578125</LatitudeDegrees>
              <LongitudeDegrees>-0.2757832221686840057373046875</LongitudeDegrees>
            </Position>
            <AltitudeMeters>2206.60009765625</AltitudeMeters>
            <DistanceMeters>NAN</DistanceMeters>
          </Trackpoint>
          <Trackpoint>
            <Time>2022-08-22T15:44:46.000Z</Time>
            <Position>
              <LatitudeDegrees>42.80729656107723712921142578125</LatitudeDegrees>
              <LongitudeDegrees>-0.2755441702902317047119140625</LongitudeDegrees>
            </Position>
            <AltitudeMeters>2203.39990234375</AltitudeMeters>
            <DistanceMeters>NAN</DistanceMeters>
          </Trackpoint>
          <Trackpoint>
            <Time>2022-08-22T15:44:50.000Z</Time>
            <Position>
              <LatitudeDegrees>42.80726336874067783355712890625</LatitudeDegrees>
              <LongitudeDegrees>-0.275512151420116424560546875</LongitudeDegrees>
            </Position>
            <AltitudeMeters>2203.199951171875</AltitudeMeters>
            <DistanceMeters>NAN</DistanceMeters>
          </Trackpoint>
          <Trackpoint>
            <Time>2022-08-22T15:44:53.000Z</Time>
            <Position>
              <LatitudeDegrees>42.80726185999810695648193359375</LatitudeDegrees>
              <LongitudeDegrees>-0.27549228630959987640380859375</LongitudeDegrees>
            </Position>
            <AltitudeMeters>2202.60009765625</AltitudeMeters>
            <DistanceMeters>NAN</DistanceMeters>
          </Trackpoint>
          <Trackpoint>
            <Time>2022-08-22T15:45:01.000Z</Time>
            <Position>
              <LatitudeDegrees>42.8072852455079555511474609375</LatitudeDegrees>
              <LongitudeDegrees>-0.275449790060520172119140625</LongitudeDegrees>
            </Position>
            <AltitudeMeters>2201.199951171875</AltitudeMeters>
            <DistanceMeters>NAN</DistanceMeters>
          </Trackpoint>
          <Trackpoint>
            <Time>2022-08-22T15:45:28.000Z</Time>
            <Position>
              <LatitudeDegrees>42.80724585056304931640625</LatitudeDegrees>
              <LongitudeDegrees>-0.27522590942680835723876953125</LongitudeDegrees>
            </Position>
            <AltitudeMeters>2203.39990234375</AltitudeMeters>
            <DistanceMeters>NAN</DistanceMeters>
          </Trackpoint>
          <Trackpoint>
            <Time>2022-08-22T15:45:46.000Z</Time>
            <Position>
              <LatitudeDegrees>42.80716471374034881591796875</LatitudeDegrees>
              <LongitudeDegrees>-0.27509733103215694427490234375</LongitudeDegrees>
            </Position>
            <AltitudeMeters>2206.39990234375</AltitudeMeters>
            <DistanceMeters>NAN</DistanceMeters>
          </Trackpoint>
          <Trackpoint>
            <Time>2022-08-22T15:46:09.000Z</Time>
            <Position>
              <LatitudeDegrees>42.8070039488375186920166015625</LatitudeDegrees>
              <LongitudeDegrees>-0.2749772183597087860107421875</LongitudeDegrees>
            </Position>
            <AltitudeMeters>2207.800048828125</AltitudeMeters>
            <DistanceMeters>NAN</DistanceMeters>
          </Trackpoint>
          <Trackpoint>
            <Time>2022-08-22T15:46:10.000Z</Time>
            <Position>
              <LatitudeDegrees>42.80699615366756916046142578125</LatitudeDegrees>
              <LongitudeDegrees>-0.2749681659042835235595703125</LongitudeDegrees>
            </Position>
            <AltitudeMeters>2207.800048828125</AltitudeMeters>
            <DistanceMeters>NAN</DistanceMeters>
          </Trackpoint>
          <Trackpoint>
            <Time>2022-08-22T15:46:31.000Z</Time>
            <Position>
              <LatitudeDegrees>42.80686371959745883941650390625</LatitudeDegrees>
              <LongitudeDegrees>-0.27483698911964893341064453125</LongitudeDegrees>
            </Position>
            <AltitudeMeters>2207.199951171875</AltitudeMeters>
            <DistanceMeters>NAN</DistanceMeters>
          </Trackpoint>
          <Trackpoint>
            <Time>2022-08-22T15:46:35.000Z</Time>
            <Position>
              <LatitudeDegrees>42.80684058554470539093017578125</LatitudeDegrees>
              <LongitudeDegrees>-0.2748082391917705535888671875</LongitudeDegrees>
            </Position>
            <AltitudeMeters>2207.199951171875</AltitudeMeters>
            <DistanceMeters>NAN</DistanceMeters>
          </Trackpoint>
          <Trackpoint>
            <Time>2022-08-22T15:46:38.000Z</Time>
            <Position>
              <LatitudeDegrees>42.8068259172141551971435546875</LatitudeDegrees>
              <LongitudeDegrees>-0.2747800759971141815185546875</LongitudeDegrees>
            </Position>
            <AltitudeMeters>2207</AltitudeMeters>
            <DistanceMeters>NAN</DistanceMeters>
          </Trackpoint>
          <Trackpoint>
            <Time>2022-08-22T15:46:41.000Z</Time>
            <Position>
              <LatitudeDegrees>42.806815691292285919189453125</LatitudeDegrees>
              <LongitudeDegrees>-0.27474160306155681610107421875</LongitudeDegrees>
            </Position>
            <AltitudeMeters>2206.60009765625</AltitudeMeters>
            <DistanceMeters>NAN</DistanceMeters>
          </Trackpoint>
          <Trackpoint>
            <Time>2022-08-22T15:46:48.000Z</Time>
            <Position>
              <LatitudeDegrees>42.8068001009523868560791015625</LatitudeDegrees>
              <LongitudeDegrees>-0.27465560473501682281494140625</LongitudeDegrees>
            </Position>
            <AltitudeMeters>2205.60009765625</AltitudeMeters>
            <DistanceMeters>NAN</DistanceMeters>
          </Trackpoint>
          <Trackpoint>
            <Time>2022-08-22T15:46:54.000Z</Time>
            <Position>
              <LatitudeDegrees>42.80678912065923213958740234375</LatitudeDegrees>
              <LongitudeDegrees>-0.274596512317657470703125</LongitudeDegrees>
            </Position>
            <AltitudeMeters>2206.60009765625</AltitudeMeters>
            <DistanceMeters>NAN</DistanceMeters>
          </Trackpoint>
          <Trackpoint>
            <Time>2022-08-22T15:46:55.000Z</Time>
            <Position>
              <LatitudeDegrees>42.8067897073924541473388671875</LatitudeDegrees>
              <LongitudeDegrees>-0.274588130414485931396484375</LongitudeDegrees>
            </Position>
            <AltitudeMeters>2206.800048828125</AltitudeMeters>
            <DistanceMeters>NAN</DistanceMeters>
          </Trackpoint>
          <Trackpoint>
            <Time>2022-08-22T15:46:56.000Z</Time>
            <Position>
              <LatitudeDegrees>42.80678593553602695465087890625</LatitudeDegrees>
              <LongitudeDegrees>-0.27457765303552150726318359375</LongitudeDegrees>
            </Position>
            <AltitudeMeters>2207.199951171875</AltitudeMeters>
            <DistanceMeters>NAN</DistanceMeters>
          </Trackpoint>
          <Trackpoint>
            <Time>2022-08-22T15:47:02.000Z</Time>
            <Position>
              <LatitudeDegrees>42.8067618794739246368408203125</LatitudeDegrees>
              <LongitudeDegrees>-0.27455049566924571990966796875</LongitudeDegrees>
            </Position>
            <AltitudeMeters>2207.800048828125</AltitudeMeters>
            <DistanceMeters>NAN</DistanceMeters>
          </Trackpoint>
          <Trackpoint>
            <Time>2022-08-22T15:47:22.000Z</Time>
            <Position>
              <LatitudeDegrees>42.8066519089043140411376953125</LatitudeDegrees>
              <LongitudeDegrees>-0.27455426752567291259765625</LongitudeDegrees>
            </Position>
            <AltitudeMeters>2209.199951171875</AltitudeMeters>
            <DistanceMeters>NAN</DistanceMeters>
          </Trackpoint>
          <Trackpoint>
            <Time>2022-08-22T15:47:26.000Z</Time>
            <Position>
              <LatitudeDegrees>42.8066522441804409027099609375</LatitudeDegrees>
              <LongitudeDegrees>-0.27454060502350330352783203125</LongitudeDegrees>
            </Position>
            <AltitudeMeters>2209.39990234375</AltitudeMeters>
            <DistanceMeters>NAN</DistanceMeters>
          </Trackpoint>
          <Trackpoint>
            <Time>2022-08-22T15:48:17.000Z</Time>
            <Position>
              <LatitudeDegrees>42.806654758751392364501953125</LatitudeDegrees>
              <LongitudeDegrees>-0.2745415270328521728515625</LongitudeDegrees>
            </Position>
            <AltitudeMeters>2209.39990234375</AltitudeMeters>
            <DistanceMeters>NAN</DistanceMeters>
          </Trackpoint>
          <Trackpoint>
            <Time>2022-08-22T15:48:26.000Z</Time>
            <Position>
              <LatitudeDegrees>42.80665769241750240325927734375</LatitudeDegrees>
              <LongitudeDegrees>-0.2745400182902812957763671875</LongitudeDegrees>
            </Position>
            <AltitudeMeters>2209.199951171875</AltitudeMeters>
            <DistanceMeters>NAN</DistanceMeters>
          </Trackpoint>
          <Trackpoint>
            <Time>2022-08-22T15:48:31.000Z</Time>
            <Position>
              <LatitudeDegrees>42.80665467493236064910888671875</LatitudeDegrees>
              <LongitudeDegrees>-0.27454177848994731903076171875</LongitudeDegrees>
            </Position>
            <AltitudeMeters>2209.39990234375</AltitudeMeters>
            <DistanceMeters>NAN</DistanceMeters>
          </Trackpoint>
          <Trackpoint>
            <Time>2022-08-22T15:48:44.000Z</Time>
            <Position>
              <LatitudeDegrees>42.8066036291420459747314453125</LatitudeDegrees>
              <LongitudeDegrees>-0.27458536438643932342529296875</LongitudeDegrees>
            </Position>
            <AltitudeMeters>2209.800048828125</AltitudeMeters>
            <DistanceMeters>NAN</DistanceMeters>
          </Trackpoint>
          <Trackpoint>
            <Time>2022-08-22T15:48:46.000Z</Time>
            <Position>
              <LatitudeDegrees>42.8065868653357028961181640625</LatitudeDegrees>
              <LongitudeDegrees>-0.2745980210602283477783203125</LongitudeDegrees>
            </Position>
            <AltitudeMeters>2210</AltitudeMeters>
            <DistanceMeters>NAN</DistanceMeters>
          </Trackpoint>
          <Trackpoint>
            <Time>2022-08-22T15:48:47.000Z</Time>
            <Position>
              <LatitudeDegrees>42.806577980518341064453125</LatitudeDegrees>
              <LongitudeDegrees>-0.27460246346890926361083984375</LongitudeDegrees>
            </Position>
            <AltitudeMeters>2210.199951171875</AltitudeMeters>
            <DistanceMeters>NAN</DistanceMeters>
          </Trackpoint>
          <Trackpoint>
            <Time>2022-08-22T15:48:59.000Z</Time>
            <Position>
              <LatitudeDegrees>42.80649474821984767913818359375</LatitudeDegrees>
              <LongitudeDegrees>-0.27461118064820766448974609375</LongitudeDegrees>
            </Position>
            <AltitudeMeters>2212.199951171875</AltitudeMeters>
            <DistanceMeters>NAN</DistanceMeters>
          </Trackpoint>
          <Trackpoint>
            <Time>2022-08-22T15:49:03.000Z</Time>
            <Position>
              <LatitudeDegrees>42.806467674672603607177734375</LatitudeDegrees>
              <LongitudeDegrees>-0.27461788617074489593505859375</LongitudeDegrees>
            </Position>
            <AltitudeMeters>2212.800048828125</AltitudeMeters>
            <DistanceMeters>NAN</DistanceMeters>
          </Trackpoint>
          <Trackpoint>
            <Time>2022-08-22T15:49:12.000Z</Time>
            <Position>
              <LatitudeDegrees>42.80643381178379058837890625</LatitudeDegrees>
              <LongitudeDegrees>-0.27461922727525234222412109375</LongitudeDegrees>
            </Position>
            <AltitudeMeters>2213.60009765625</AltitudeMeters>
            <DistanceMeters>NAN</DistanceMeters>
          </Trackpoint>
          <Trackpoint>
            <Time>2022-08-22T15:49:17.000Z</Time>
            <Position>
              <LatitudeDegrees>42.80641662888228893280029296875</LatitudeDegrees>
              <LongitudeDegrees>-0.27458318509161472320556640625</LongitudeDegrees>
            </Position>
            <AltitudeMeters>2214.800048828125</AltitudeMeters>
            <DistanceMeters>NAN</DistanceMeters>
          </Trackpoint>
          <Trackpoint>
            <Time>2022-08-22T15:49:24.000Z</Time>
            <Position>
              <LatitudeDegrees>42.80638762749731540679931640625</LatitudeDegrees>
              <LongitudeDegrees>-0.27453976683318614959716796875</LongitudeDegrees>
            </Position>
            <AltitudeMeters>2216.39990234375</AltitudeMeters>
            <DistanceMeters>NAN</DistanceMeters>
          </Trackpoint>
          <Trackpoint>
            <Time>2022-08-22T15:49:26.000Z</Time>
            <Position>
              <LatitudeDegrees>42.80637321062386035919189453125</LatitudeDegrees>
              <LongitudeDegrees>-0.27454244904220104217529296875</LongitudeDegrees>
            </Position>
            <AltitudeMeters>2216.800048828125</AltitudeMeters>
            <DistanceMeters>NAN</DistanceMeters>
          </Trackpoint>
          <Trackpoint>
            <Time>2022-08-22T15:49:41.000Z</Time>
            <Position>
              <LatitudeDegrees>42.806324176490306854248046875</LatitudeDegrees>
              <LongitudeDegrees>-0.274526439607143402099609375</LongitudeDegrees>
            </Position>
            <AltitudeMeters>2218.39990234375</AltitudeMeters>
            <DistanceMeters>NAN</DistanceMeters>
          </Trackpoint>
          <Trackpoint>
            <Time>2022-08-22T15:50:01.000Z</Time>
            <Position>
              <LatitudeDegrees>42.8063344024121761322021484375</LatitudeDegrees>
              <LongitudeDegrees>-0.27440129779279232025146484375</LongitudeDegrees>
            </Position>
            <AltitudeMeters>2220.39990234375</AltitudeMeters>
            <DistanceMeters>NAN</DistanceMeters>
          </Trackpoint>
          <Trackpoint>
            <Time>2022-08-22T15:50:31.000Z</Time>
            <Position>
              <LatitudeDegrees>42.806204147636890411376953125</LatitudeDegrees>
              <LongitudeDegrees>-0.274231731891632080078125</LongitudeDegrees>
            </Position>
            <AltitudeMeters>2226</AltitudeMeters>
            <DistanceMeters>NAN</DistanceMeters>
          </Trackpoint>
          <Trackpoint>
            <Time>2022-08-22T15:50:52.000Z</Time>
            <Position>
              <LatitudeDegrees>42.8060138784348964691162109375</LatitudeDegrees>
              <LongitudeDegrees>-0.27422226034104824066162109375</LongitudeDegrees>
            </Position>
            <AltitudeMeters>2228</AltitudeMeters>
            <DistanceMeters>NAN</DistanceMeters>
          </Trackpoint>
          <Trackpoint>
            <Time>2022-08-22T15:51:03.000Z</Time>
            <Position>
              <LatitudeDegrees>42.80593450181186199188232421875</LatitudeDegrees>
              <LongitudeDegrees>-0.274248830974102020263671875</LongitudeDegrees>
            </Position>
            <AltitudeMeters>2228.800048828125</AltitudeMeters>
            <DistanceMeters>NAN</DistanceMeters>
          </Trackpoint>
          <Trackpoint>
            <Time>2022-08-22T15:51:04.000Z</Time>
            <Position>
              <LatitudeDegrees>42.80592377297580242156982421875</LatitudeDegrees>
              <LongitudeDegrees>-0.274248830974102020263671875</LongitudeDegrees>
            </Position>
            <AltitudeMeters>2229</AltitudeMeters>
            <DistanceMeters>NAN</DistanceMeters>
          </Trackpoint>
          <Trackpoint>
            <Time>2022-08-22T15:51:05.000Z</Time>
            <Position>
              <LatitudeDegrees>42.80591572634875774383544921875</LatitudeDegrees>
              <LongitudeDegrees>-0.2742503397166728973388671875</LongitudeDegrees>
            </Position>
            <AltitudeMeters>2229</AltitudeMeters>
            <DistanceMeters>NAN</DistanceMeters>
          </Trackpoint>
          <Trackpoint>
            <Time>2022-08-22T15:51:06.000Z</Time>
            <Position>
              <LatitudeDegrees>42.80590541660785675048828125</LatitudeDegrees>
              <LongitudeDegrees>-0.27425209991633892059326171875</LongitudeDegrees>
            </Position>
            <AltitudeMeters>2229.199951171875</AltitudeMeters>
            <DistanceMeters>NAN</DistanceMeters>
          </Trackpoint>
          <Trackpoint>
            <Time>2022-08-22T15:51:07.000Z</Time>
            <Position>
              <LatitudeDegrees>42.80589996837079524993896484375</LatitudeDegrees>
              <LongitudeDegrees>-0.27425712905824184417724609375</LongitudeDegrees>
            </Position>
            <AltitudeMeters>2229.199951171875</AltitudeMeters>
            <DistanceMeters>NAN</DistanceMeters>
          </Trackpoint>
          <Trackpoint>
            <Time>2022-08-22T15:51:23.000Z</Time>
            <Position>
              <LatitudeDegrees>42.80578463338315486907958984375</LatitudeDegrees>
              <LongitudeDegrees>-0.27428797446191310882568359375</LongitudeDegrees>
            </Position>
            <AltitudeMeters>2231.800048828125</AltitudeMeters>
            <DistanceMeters>NAN</DistanceMeters>
          </Trackpoint>
          <Trackpoint>
            <Time>2022-08-22T15:51:25.000Z</Time>
            <Position>
              <LatitudeDegrees>42.8057681210339069366455078125</LatitudeDegrees>
              <LongitudeDegrees>-0.2742852084338665008544921875</LongitudeDegrees>
            </Position>
            <AltitudeMeters>2232.39990234375</AltitudeMeters>
            <DistanceMeters>NAN</DistanceMeters>
          </Trackpoint>
          <Trackpoint>
            <Time>2022-08-22T15:51:28.000Z</Time>
            <Position>
              <LatitudeDegrees>42.805744148790836334228515625</LatitudeDegrees>
              <LongitudeDegrees>-0.27427439577877521514892578125</LongitudeDegrees>
            </Position>
            <AltitudeMeters>2233</AltitudeMeters>
            <DistanceMeters>NAN</DistanceMeters>
          </Trackpoint>
          <Trackpoint>
            <Time>2022-08-22T15:51:30.000Z</Time>
            <Position>
              <LatitudeDegrees>42.80572964809834957122802734375</LatitudeDegrees>
              <LongitudeDegrees>-0.27428210712969303131103515625</LongitudeDegrees>
            </Position>
            <AltitudeMeters>2233.39990234375</AltitudeMeters>
            <DistanceMeters>NAN</DistanceMeters>
          </Trackpoint>
          <Trackpoint>
            <Time>2022-08-22T15:51:36.000Z</Time>
            <Position>
              <LatitudeDegrees>42.80567449517548084259033203125</LatitudeDegrees>
              <LongitudeDegrees>-0.27431747876107692718505859375</LongitudeDegrees>
            </Position>
            <AltitudeMeters>2234.60009765625</AltitudeMeters>
            <DistanceMeters>NAN</DistanceMeters>
          </Trackpoint>
          <Trackpoint>
            <Time>2022-08-22T15:51:39.000Z</Time>
            <Position>
              <LatitudeDegrees>42.80564616434276103973388671875</LatitudeDegrees>
              <LongitudeDegrees>-0.27432183735072612762451171875</LongitudeDegrees>
            </Position>
            <AltitudeMeters>2235.39990234375</AltitudeMeters>
            <DistanceMeters>NAN</DistanceMeters>
          </Trackpoint>
          <Trackpoint>
            <Time>2022-08-22T15:51:42.000Z</Time>
            <Position>
              <LatitudeDegrees>42.80561531893908977508544921875</LatitudeDegrees>
              <LongitudeDegrees>-0.274315886199474334716796875</LongitudeDegrees>
            </Position>
            <AltitudeMeters>2236.199951171875</AltitudeMeters>
            <DistanceMeters>NAN</DistanceMeters>
          </Trackpoint>
          <Trackpoint>
            <Time>2022-08-22T15:51:44.000Z</Time>
            <Position>
              <LatitudeDegrees>42.80559537000954151153564453125</LatitudeDegrees>
              <LongitudeDegrees>-0.2743254415690898895263671875</LongitudeDegrees>
            </Position>
            <AltitudeMeters>2236.800048828125</AltitudeMeters>
            <DistanceMeters>NAN</DistanceMeters>
          </Trackpoint>
          <Trackpoint>
            <Time>2022-08-22T15:51:46.000Z</Time>
            <Position>
              <LatitudeDegrees>42.80557910911738872528076171875</LatitudeDegrees>
              <LongitudeDegrees>-0.27433055453002452850341796875</LongitudeDegrees>
            </Position>
            <AltitudeMeters>2237.199951171875</AltitudeMeters>
            <DistanceMeters>NAN</DistanceMeters>
          </Trackpoint>
          <Trackpoint>
            <Time>2022-08-22T15:51:49.000Z</Time>
            <Position>
              <LatitudeDegrees>42.80555580742657184600830078125</LatitudeDegrees>
              <LongitudeDegrees>-0.2743351645767688751220703125</LongitudeDegrees>
            </Position>
            <AltitudeMeters>2237.800048828125</AltitudeMeters>
            <DistanceMeters>NAN</DistanceMeters>
          </Trackpoint>
          <Trackpoint>
            <Time>2022-08-22T15:51:54.000Z</Time>
            <Position>
              <LatitudeDegrees>42.80552160926163196563720703125</LatitudeDegrees>
              <LongitudeDegrees>-0.27435519732534885406494140625</LongitudeDegrees>
            </Position>
            <AltitudeMeters>2238.60009765625</AltitudeMeters>
            <DistanceMeters>NAN</DistanceMeters>
          </Trackpoint>
          <Trackpoint>
            <Time>2022-08-22T15:52:02.000Z</Time>
            <Position>
              <LatitudeDegrees>42.80546880327165126800537109375</LatitudeDegrees>
              <LongitudeDegrees>-0.27437816374003887176513671875</LongitudeDegrees>
            </Position>
            <AltitudeMeters>2239.800048828125</AltitudeMeters>
            <DistanceMeters>NAN</DistanceMeters>
          </Trackpoint>
          <Trackpoint>
            <Time>2022-08-22T15:52:07.000Z</Time>
            <Position>
              <LatitudeDegrees>42.80544139444828033447265625</LatitudeDegrees>
              <LongitudeDegrees>-0.27439878322184085845947265625</LongitudeDegrees>
            </Position>
            <AltitudeMeters>2240.60009765625</AltitudeMeters>
            <DistanceMeters>NAN</DistanceMeters>
          </Trackpoint>
          <Trackpoint>
            <Time>2022-08-22T15:52:14.000Z</Time>
            <Position>
              <LatitudeDegrees>42.805417589843273162841796875</LatitudeDegrees>
              <LongitudeDegrees>-0.27442024089395999908447265625</LongitudeDegrees>
            </Position>
            <AltitudeMeters>2241</AltitudeMeters>
            <DistanceMeters>NAN</DistanceMeters>
          </Trackpoint>
          <Trackpoint>
            <Time>2022-08-22T15:52:28.000Z</Time>
            <Position>
              <LatitudeDegrees>42.8053054399788379669189453125</LatitudeDegrees>
              <LongitudeDegrees>-0.27445368468761444091796875</LongitudeDegrees>
            </Position>
            <AltitudeMeters>2244</AltitudeMeters>
            <DistanceMeters>NAN</DistanceMeters>
          </Trackpoint>
          <Trackpoint>
            <Time>2022-08-22T15:52:47.000Z</Time>
            <Position>
              <LatitudeDegrees>42.8051200322806835174560546875</LatitudeDegrees>
              <LongitudeDegrees>-0.27451143600046634674072265625</LongitudeDegrees>
            </Position>
            <AltitudeMeters>2248</AltitudeMeters>
            <DistanceMeters>NAN</DistanceMeters>
          </Trackpoint>
          <Trackpoint>
            <Time>2022-08-22T15:53:07.000Z</Time>
            <Position>
              <LatitudeDegrees>42.80493822880089282989501953125</LatitudeDegrees>
              <LongitudeDegrees>-0.27454395778477191925048828125</LongitudeDegrees>
            </Position>
            <AltitudeMeters>2251.60009765625</AltitudeMeters>
            <DistanceMeters>NAN</DistanceMeters>
          </Trackpoint>
          <Trackpoint>
            <Time>2022-08-22T15:53:22.000Z</Time>
            <Position>
              <LatitudeDegrees>42.8048186190426349639892578125</LatitudeDegrees>
              <LongitudeDegrees>-0.27456994168460369110107421875</LongitudeDegrees>
            </Position>
            <AltitudeMeters>2254</AltitudeMeters>
            <DistanceMeters>NAN</DistanceMeters>
          </Trackpoint>
          <Trackpoint>
            <Time>2022-08-22T15:53:35.000Z</Time>
            <Position>
              <LatitudeDegrees>42.80469699762761592864990234375</LatitudeDegrees>
              <LongitudeDegrees>-0.27462006546556949615478515625</LongitudeDegrees>
            </Position>
            <AltitudeMeters>2256.800048828125</AltitudeMeters>
            <DistanceMeters>NAN</DistanceMeters>
          </Trackpoint>
          <Trackpoint>
            <Time>2022-08-22T15:53:50.000Z</Time>
            <Position>
              <LatitudeDegrees>42.80456825159490108489990234375</LatitudeDegrees>
              <LongitudeDegrees>-0.274596512317657470703125</LongitudeDegrees>
            </Position>
            <AltitudeMeters>2259</AltitudeMeters>
            <DistanceMeters>NAN</DistanceMeters>
          </Trackpoint>
          <Trackpoint>
            <Time>2022-08-22T15:54:06.000Z</Time>
            <Position>
              <LatitudeDegrees>42.80443648807704448699951171875</LatitudeDegrees>
              <LongitudeDegrees>-0.2745105139911174774169921875</LongitudeDegrees>
            </Position>
            <AltitudeMeters>2261</AltitudeMeters>
            <DistanceMeters>NAN</DistanceMeters>
          </Trackpoint>
          <Trackpoint>
            <Time>2022-08-22T15:54:25.000Z</Time>
            <Position>
              <LatitudeDegrees>42.80427723191678524017333984375</LatitudeDegrees>
              <LongitudeDegrees>-0.274511016905307769775390625</LongitudeDegrees>
            </Position>
            <AltitudeMeters>2263.60009765625</AltitudeMeters>
            <DistanceMeters>NAN</DistanceMeters>
          </Trackpoint>
          <Trackpoint>
            <Time>2022-08-22T15:54:28.000Z</Time>
            <Position>
              <LatitudeDegrees>42.80425510369241237640380859375</LatitudeDegrees>
              <LongitudeDegrees>-0.2745185606181621551513671875</LongitudeDegrees>
            </Position>
            <AltitudeMeters>2263.800048828125</AltitudeMeters>
            <DistanceMeters>NAN</DistanceMeters>
          </Trackpoint>
          <Trackpoint>
            <Time>2022-08-22T15:54:46.000Z</Time>
            <Position>
              <LatitudeDegrees>42.804113365709781646728515625</LatitudeDegrees>
              <LongitudeDegrees>-0.2745577879250049591064453125</LongitudeDegrees>
            </Position>
            <AltitudeMeters>2267</AltitudeMeters>
            <DistanceMeters>NAN</DistanceMeters>
          </Trackpoint>
          <Trackpoint>
            <Time>2022-08-22T15:55:11.000Z</Time>
            <Position>
              <LatitudeDegrees>42.8039408661425113677978515625</LatitudeDegrees>
              <LongitudeDegrees>-0.27463817037642002105712890625</LongitudeDegrees>
            </Position>
            <AltitudeMeters>2271.800048828125</AltitudeMeters>
            <DistanceMeters>NAN</DistanceMeters>
          </Trackpoint>
          <Trackpoint>
            <Time>2022-08-22T15:55:34.000Z</Time>
            <Position>
              <LatitudeDegrees>42.80378890223801136016845703125</LatitudeDegrees>
              <LongitudeDegrees>-0.274718217551708221435546875</LongitudeDegrees>
            </Position>
            <AltitudeMeters>2277</AltitudeMeters>
            <DistanceMeters>NAN</DistanceMeters>
          </Trackpoint>
          <Trackpoint>
            <Time>2022-08-22T15:55:36.000Z</Time>
            <Position>
              <LatitudeDegrees>42.8037817776203155517578125</LatitudeDegrees>
              <LongitudeDegrees>-0.27472852729260921478271484375</LongitudeDegrees>
            </Position>
            <AltitudeMeters>2277.39990234375</AltitudeMeters>
            <DistanceMeters>NAN</DistanceMeters>
          </Trackpoint>
          <Trackpoint>
            <Time>2022-08-22T15:55:38.000Z</Time>
            <Position>
              <LatitudeDegrees>42.803764007985591888427734375</LatitudeDegrees>
              <LongitudeDegrees>-0.27473154477775096893310546875</LongitudeDegrees>
            </Position>
            <AltitudeMeters>2277.800048828125</AltitudeMeters>
            <DistanceMeters>NAN</DistanceMeters>
          </Trackpoint>
          <Trackpoint>
            <Time>2022-08-22T15:55:40.000Z</Time>
            <Position>
              <LatitudeDegrees>42.80375068075954914093017578125</LatitudeDegrees>
              <LongitudeDegrees>-0.2747364901006221771240234375</LongitudeDegrees>
            </Position>
            <AltitudeMeters>2278.199951171875</AltitudeMeters>
            <DistanceMeters>NAN</DistanceMeters>
          </Trackpoint>
          <Trackpoint>
            <Time>2022-08-22T15:55:52.000Z</Time>
            <Position>
              <LatitudeDegrees>42.80367960222065448760986328125</LatitudeDegrees>
              <LongitudeDegrees>-0.27476943098008632659912109375</LongitudeDegrees>
            </Position>
            <AltitudeMeters>2280.60009765625</AltitudeMeters>
            <DistanceMeters>NAN</DistanceMeters>
          </Trackpoint>
          <Trackpoint>
            <Time>2022-08-22T15:56:08.000Z</Time>
            <Position>
              <LatitudeDegrees>42.80355555005371570587158203125</LatitudeDegrees>
              <LongitudeDegrees>-0.2747639827430248260498046875</LongitudeDegrees>
            </Position>
            <AltitudeMeters>2283</AltitudeMeters>
            <DistanceMeters>NAN</DistanceMeters>
          </Trackpoint>
          <Trackpoint>
            <Time>2022-08-22T15:56:22.000Z</Time>
            <Position>
              <LatitudeDegrees>42.8034604154527187347412109375</LatitudeDegrees>
              <LongitudeDegrees>-0.27475182898342609405517578125</LongitudeDegrees>
            </Position>
            <AltitudeMeters>2284.60009765625</AltitudeMeters>
            <DistanceMeters>NAN</DistanceMeters>
          </Trackpoint>
          <Trackpoint>
            <Time>2022-08-22T15:56:46.000Z</Time>
            <Position>
              <LatitudeDegrees>42.8033464215695858001708984375</LatitudeDegrees>
              <LongitudeDegrees>-0.274821482598781585693359375</LongitudeDegrees>
            </Position>
            <AltitudeMeters>2289.199951171875</AltitudeMeters>
            <DistanceMeters>NAN</DistanceMeters>
          </Trackpoint>
          <Trackpoint>
            <Time>2022-08-22T15:57:15.000Z</Time>
            <Position>
              <LatitudeDegrees>42.8031702339649200439453125</LatitudeDegrees>
              <LongitudeDegrees>-0.2748752944171428680419921875</LongitudeDegrees>
            </Position>
            <AltitudeMeters>2296.60009765625</AltitudeMeters>
            <DistanceMeters>NAN</DistanceMeters>
          </Trackpoint>
          <Trackpoint>
            <Time>2022-08-22T15:57:57.000Z</Time>
            <Position>
              <LatitudeDegrees>42.80299144797027111053466796875</LatitudeDegrees>
              <LongitudeDegrees>-0.27490136213600635528564453125</LongitudeDegrees>
            </Position>
            <AltitudeMeters>2304.60009765625</AltitudeMeters>
            <DistanceMeters>NAN</DistanceMeters>
          </Trackpoint>
          <Trackpoint>
            <Time>2022-08-22T15:58:07.000Z</Time>
            <Position>
              <LatitudeDegrees>42.80298725701868534088134765625</LatitudeDegrees>
              <LongitudeDegrees>-0.27495366521179676055908203125</LongitudeDegrees>
            </Position>
            <AltitudeMeters>2305.60009765625</AltitudeMeters>
            <DistanceMeters>NAN</DistanceMeters>
          </Trackpoint>
          <Trackpoint>
            <Time>2022-08-22T15:58:28.000Z</Time>
            <Position>
              <LatitudeDegrees>42.80291701667010784149169921875</LatitudeDegrees>
              <LongitudeDegrees>-0.27500261552631855010986328125</LongitudeDegrees>
            </Position>
            <AltitudeMeters>2309.39990234375</AltitudeMeters>
            <DistanceMeters>NAN</DistanceMeters>
          </Trackpoint>
          <Trackpoint>
            <Time>2022-08-22T15:59:00.000Z</Time>
            <Position>
              <LatitudeDegrees>42.80287493951618671417236328125</LatitudeDegrees>
              <LongitudeDegrees>-0.27515013702213764190673828125</LongitudeDegrees>
            </Position>
            <AltitudeMeters>2313.800048828125</AltitudeMeters>
            <DistanceMeters>NAN</DistanceMeters>
          </Trackpoint>
          <Trackpoint>
            <Time>2022-08-22T15:59:09.000Z</Time>
            <Position>
              <LatitudeDegrees>42.80285398475825786590576171875</LatitudeDegrees>
              <LongitudeDegrees>-0.27520042844116687774658203125</LongitudeDegrees>
            </Position>
            <AltitudeMeters>2315.800048828125</AltitudeMeters>
            <DistanceMeters>NAN</DistanceMeters>
          </Trackpoint>
          <Trackpoint>
            <Time>2022-08-22T15:59:49.000Z</Time>
            <Position>
              <LatitudeDegrees>42.80272356234490871429443359375</LatitudeDegrees>
              <LongitudeDegrees>-0.2751723490655422210693359375</LongitudeDegrees>
            </Position>
            <AltitudeMeters>2320.60009765625</AltitudeMeters>
            <DistanceMeters>NAN</DistanceMeters>
          </Trackpoint>
          <Trackpoint>
            <Time>2022-08-22T16:00:30.000Z</Time>
            <Position>
              <LatitudeDegrees>42.8026163578033447265625</LatitudeDegrees>
              <LongitudeDegrees>-0.27514728717505931854248046875</LongitudeDegrees>
            </Position>
            <AltitudeMeters>2324.800048828125</AltitudeMeters>
            <DistanceMeters>NAN</DistanceMeters>
          </Trackpoint>
          <Trackpoint>
            <Time>2022-08-22T16:01:12.000Z</Time>
            <Position>
              <LatitudeDegrees>42.80249507166445255279541015625</LatitudeDegrees>
              <LongitudeDegrees>-0.27501988224685192108154296875</LongitudeDegrees>
            </Position>
            <AltitudeMeters>2328</AltitudeMeters>
            <DistanceMeters>NAN</DistanceMeters>
          </Trackpoint>
          <Trackpoint>
            <Time>2022-08-22T16:01:36.000Z</Time>
            <Position>
              <LatitudeDegrees>42.802435643970966339111328125</LatitudeDegrees>
              <LongitudeDegrees>-0.2751066349446773529052734375</LongitudeDegrees>
            </Position>
            <AltitudeMeters>2332</AltitudeMeters>
            <DistanceMeters>NAN</DistanceMeters>
          </Trackpoint>
          <Trackpoint>
            <Time>2022-08-22T16:02:05.000Z</Time>
            <Position>
              <LatitudeDegrees>42.8024277649819850921630859375</LatitudeDegrees>
              <LongitudeDegrees>-0.275351218879222869873046875</LongitudeDegrees>
            </Position>
            <AltitudeMeters>2336.39990234375</AltitudeMeters>
            <DistanceMeters>NAN</DistanceMeters>
          </Trackpoint>
          <Trackpoint>
            <Time>2022-08-22T16:02:35.000Z</Time>
            <Position>
              <LatitudeDegrees>42.80234604142606258392333984375</LatitudeDegrees>
              <LongitudeDegrees>-0.27556554414331912994384765625</LongitudeDegrees>
            </Position>
            <AltitudeMeters>2342.199951171875</AltitudeMeters>
            <DistanceMeters>NAN</DistanceMeters>
          </Trackpoint>
          <Trackpoint>
            <Time>2022-08-22T16:02:54.000Z</Time>
            <Position>
              <LatitudeDegrees>42.80227093957364559173583984375</LatitudeDegrees>
              <LongitudeDegrees>-0.2755233831703662872314453125</LongitudeDegrees>
            </Position>
            <AltitudeMeters>2345.39990234375</AltitudeMeters>
            <DistanceMeters>NAN</DistanceMeters>
          </Trackpoint>
          <Trackpoint>
            <Time>2022-08-22T16:03:24.000Z</Time>
            <Position>
              <LatitudeDegrees>42.802248895168304443359375</LatitudeDegrees>
              <LongitudeDegrees>-0.27573318220674991607666015625</LongitudeDegrees>
            </Position>
            <AltitudeMeters>2347</AltitudeMeters>
            <DistanceMeters>NAN</DistanceMeters>
          </Trackpoint>
          <Trackpoint>
            <Time>2022-08-22T16:03:46.000Z</Time>
            <Position>
              <LatitudeDegrees>42.80222148634493350982666015625</LatitudeDegrees>
              <LongitudeDegrees>-0.2758838050067424774169921875</LongitudeDegrees>
            </Position>
            <AltitudeMeters>2350.199951171875</AltitudeMeters>
            <DistanceMeters>NAN</DistanceMeters>
          </Trackpoint>
          <Trackpoint>
            <Time>2022-08-22T16:04:17.000Z</Time>
            <Position>
              <LatitudeDegrees>42.80204848386347293853759765625</LatitudeDegrees>
              <LongitudeDegrees>-0.2759545482695102691650390625</LongitudeDegrees>
            </Position>
            <AltitudeMeters>2356.39990234375</AltitudeMeters>
            <DistanceMeters>NAN</DistanceMeters>
          </Trackpoint>
          <Trackpoint>
            <Time>2022-08-22T16:04:40.000Z</Time>
            <Position>
              <LatitudeDegrees>42.801943458616733551025390625</LatitudeDegrees>
              <LongitudeDegrees>-0.2758868224918842315673828125</LongitudeDegrees>
            </Position>
            <AltitudeMeters>2360.800048828125</AltitudeMeters>
            <DistanceMeters>NAN</DistanceMeters>
          </Trackpoint>
          <Trackpoint>
            <Time>2022-08-22T16:05:16.000Z</Time>
            <Position>
              <LatitudeDegrees>42.8017790056765079498291015625</LatitudeDegrees>
              <LongitudeDegrees>-0.2759874053299427032470703125</LongitudeDegrees>
            </Position>
            <AltitudeMeters>2368.199951171875</AltitudeMeters>
            <DistanceMeters>NAN</DistanceMeters>
          </Trackpoint>
          <Trackpoint>
            <Time>2022-08-22T16:05:55.000Z</Time>
            <Position>
              <LatitudeDegrees>42.8016311489045619964599609375</LatitudeDegrees>
              <LongitudeDegrees>-0.2758901752531528472900390625</LongitudeDegrees>
            </Position>
            <AltitudeMeters>2372.60009765625</AltitudeMeters>
            <DistanceMeters>NAN</DistanceMeters>
          </Trackpoint>
          <Trackpoint>
            <Time>2022-08-22T16:05:59.000Z</Time>
            <Position>
              <LatitudeDegrees>42.8016036562621593475341796875</LatitudeDegrees>
              <LongitudeDegrees>-0.275876931846141815185546875</LongitudeDegrees>
            </Position>
            <AltitudeMeters>2373</AltitudeMeters>
            <DistanceMeters>NAN</DistanceMeters>
          </Trackpoint>
          <Trackpoint>
            <Time>2022-08-22T16:06:02.000Z</Time>
            <Position>
              <LatitudeDegrees>42.8015808574855327606201171875</LatitudeDegrees>
              <LongitudeDegrees>-0.27585857547819614410400390625</LongitudeDegrees>
            </Position>
            <AltitudeMeters>2373.60009765625</AltitudeMeters>
            <DistanceMeters>NAN</DistanceMeters>
          </Trackpoint>
          <Trackpoint>
            <Time>2022-08-22T16:06:27.000Z</Time>
            <Position>
              <LatitudeDegrees>42.8014226071536540985107421875</LatitudeDegrees>
              <LongitudeDegrees>-0.27575346641242504119873046875</LongitudeDegrees>
            </Position>
            <AltitudeMeters>2376.800048828125</AltitudeMeters>
            <DistanceMeters>NAN</DistanceMeters>
          </Trackpoint>
          <Trackpoint>
            <Time>2022-08-22T16:06:36.000Z</Time>
            <Position>
              <LatitudeDegrees>42.8013696335256099700927734375</LatitudeDegrees>
              <LongitudeDegrees>-0.27568439953029155731201171875</LongitudeDegrees>
            </Position>
            <AltitudeMeters>2379</AltitudeMeters>
            <DistanceMeters>NAN</DistanceMeters>
          </Trackpoint>
          <Trackpoint>
            <Time>2022-08-22T16:06:46.000Z</Time>
            <Position>
              <LatitudeDegrees>42.80131976120173931121826171875</LatitudeDegrees>
              <LongitudeDegrees>-0.2755956351757049560546875</LongitudeDegrees>
            </Position>
            <AltitudeMeters>2381</AltitudeMeters>
            <DistanceMeters>NAN</DistanceMeters>
          </Trackpoint>
          <Trackpoint>
            <Time>2022-08-22T16:07:07.000Z</Time>
            <Position>
              <LatitudeDegrees>42.801176011562347412109375</LatitudeDegrees>
              <LongitudeDegrees>-0.2754298411309719085693359375</LongitudeDegrees>
            </Position>
            <AltitudeMeters>2386.60009765625</AltitudeMeters>
            <DistanceMeters>NAN</DistanceMeters>
          </Trackpoint>
          <Trackpoint>
            <Time>2022-08-22T16:07:34.000Z</Time>
            <Position>
              <LatitudeDegrees>42.80107685364782810211181640625</LatitudeDegrees>
              <LongitudeDegrees>-0.2752186171710491180419921875</LongitudeDegrees>
            </Position>
            <AltitudeMeters>2390.39990234375</AltitudeMeters>
            <DistanceMeters>NAN</DistanceMeters>
          </Trackpoint>
          <Trackpoint>
            <Time>2022-08-22T16:07:57.000Z</Time>
            <Position>
              <LatitudeDegrees>42.8010481037199497222900390625</LatitudeDegrees>
              <LongitudeDegrees>-0.275056175887584686279296875</LongitudeDegrees>
            </Position>
            <AltitudeMeters>2391</AltitudeMeters>
            <DistanceMeters>NAN</DistanceMeters>
          </Trackpoint>
          <Trackpoint>
            <Time>2022-08-22T16:08:31.000Z</Time>
            <Position>
              <LatitudeDegrees>42.800993956625461578369140625</LatitudeDegrees>
              <LongitudeDegrees>-0.27499255724251270294189453125</LongitudeDegrees>
            </Position>
            <AltitudeMeters>2392.39990234375</AltitudeMeters>
            <DistanceMeters>NAN</DistanceMeters>
          </Trackpoint>
          <Trackpoint>
            <Time>2022-08-22T16:09:09.000Z</Time>
            <Position>
              <LatitudeDegrees>42.80095246620476245880126953125</LatitudeDegrees>
              <LongitudeDegrees>-0.274774543941020965576171875</LongitudeDegrees>
            </Position>
            <AltitudeMeters>2393.199951171875</AltitudeMeters>
            <DistanceMeters>NAN</DistanceMeters>
          </Trackpoint>
          <Trackpoint>
            <Time>2022-08-22T16:09:12.000Z</Time>
            <Position>
              <LatitudeDegrees>42.80095313675701618194580078125</LatitudeDegrees>
              <LongitudeDegrees>-0.27474646456539630889892578125</LongitudeDegrees>
            </Position>
            <AltitudeMeters>2393.199951171875</AltitudeMeters>
            <DistanceMeters>NAN</DistanceMeters>
          </Trackpoint>
          <Trackpoint>
            <Time>2022-08-22T16:09:16.000Z</Time>
            <Position>
              <LatitudeDegrees>42.8009424917399883270263671875</LatitudeDegrees>
              <LongitudeDegrees>-0.274710841476917266845703125</LongitudeDegrees>
            </Position>
            <AltitudeMeters>2393.39990234375</AltitudeMeters>
            <DistanceMeters>NAN</DistanceMeters>
          </Trackpoint>
          <Trackpoint>
            <Time>2022-08-22T16:09:50.000Z</Time>
            <Position>
              <LatitudeDegrees>42.8008948825299739837646484375</LatitudeDegrees>
              <LongitudeDegrees>-0.274471454322338104248046875</LongitudeDegrees>
            </Position>
            <AltitudeMeters>2398.60009765625</AltitudeMeters>
            <DistanceMeters>NAN</DistanceMeters>
          </Trackpoint>
          <Trackpoint>
            <Time>2022-08-22T16:10:26.000Z</Time>
            <Position>
              <LatitudeDegrees>42.8008908592164516448974609375</LatitudeDegrees>
              <LongitudeDegrees>-0.27426132000982761383056640625</LongitudeDegrees>
            </Position>
            <AltitudeMeters>2404.800048828125</AltitudeMeters>
            <DistanceMeters>NAN</DistanceMeters>
          </Trackpoint>
          <Trackpoint>
            <Time>2022-08-22T16:10:30.000Z</Time>
            <Position>
              <LatitudeDegrees>42.80088339932262897491455078125</LatitudeDegrees>
              <LongitudeDegrees>-0.27423231862485408782958984375</LongitudeDegrees>
            </Position>
            <AltitudeMeters>2406</AltitudeMeters>
            <DistanceMeters>NAN</DistanceMeters>
          </Trackpoint>
          <Trackpoint>
            <Time>2022-08-22T16:10:31.000Z</Time>
            <Position>
              <LatitudeDegrees>42.800874598324298858642578125</LatitudeDegrees>
              <LongitudeDegrees>-0.27423533610999584197998046875</LongitudeDegrees>
            </Position>
            <AltitudeMeters>2406.39990234375</AltitudeMeters>
            <DistanceMeters>NAN</DistanceMeters>
          </Trackpoint>
          <Trackpoint>
            <Time>2022-08-22T16:10:33.000Z</Time>
            <Position>
              <LatitudeDegrees>42.80086286365985870361328125</LatitudeDegrees>
              <LongitudeDegrees>-0.2742255292832851409912109375</LongitudeDegrees>
            </Position>
            <AltitudeMeters>2407.199951171875</AltitudeMeters>
            <DistanceMeters>NAN</DistanceMeters>
          </Trackpoint>
          <Trackpoint>
            <Time>2022-08-22T16:10:38.000Z</Time>
            <Position>
              <LatitudeDegrees>42.80084936879575252532958984375</LatitudeDegrees>
              <LongitudeDegrees>-0.274207592010498046875</LongitudeDegrees>
            </Position>
            <AltitudeMeters>2408.60009765625</AltitudeMeters>
            <DistanceMeters>NAN</DistanceMeters>
          </Trackpoint>
          <Trackpoint>
            <Time>2022-08-22T16:10:46.000Z</Time>
            <Position>
              <LatitudeDegrees>42.80084735713899135589599609375</LatitudeDegrees>
              <LongitudeDegrees>-0.27415805496275424957275390625</LongitudeDegrees>
            </Position>
            <AltitudeMeters>2410</AltitudeMeters>
            <DistanceMeters>NAN</DistanceMeters>
          </Trackpoint>
          <Trackpoint>
            <Time>2022-08-22T16:11:01.000Z</Time>
            <Position>
              <LatitudeDegrees>42.8007922880351543426513671875</LatitudeDegrees>
              <LongitudeDegrees>-0.2741095237433910369873046875</LongitudeDegrees>
            </Position>
            <AltitudeMeters>2414.39990234375</AltitudeMeters>
            <DistanceMeters>NAN</DistanceMeters>
          </Trackpoint>
          <Trackpoint>
            <Time>2022-08-22T16:11:36.000Z</Time>
            <Position>
              <LatitudeDegrees>42.80061568133533000946044921875</LatitudeDegrees>
              <LongitudeDegrees>-0.27410910464823246002197265625</LongitudeDegrees>
            </Position>
            <AltitudeMeters>2424.199951171875</AltitudeMeters>
            <DistanceMeters>NAN</DistanceMeters>
          </Trackpoint>
          <Trackpoint>
            <Time>2022-08-22T16:11:52.000Z</Time>
            <Position>
              <LatitudeDegrees>42.800501771271228790283203125</LatitudeDegrees>
              <LongitudeDegrees>-0.27412653900682926177978515625</LongitudeDegrees>
            </Position>
            <AltitudeMeters>2428.39990234375</AltitudeMeters>
            <DistanceMeters>NAN</DistanceMeters>
          </Trackpoint>
          <Trackpoint>
            <Time>2022-08-22T16:12:13.000Z</Time>
            <Position>
              <LatitudeDegrees>42.8003312833607196807861328125</LatitudeDegrees>
              <LongitudeDegrees>-0.2740753255784511566162109375</LongitudeDegrees>
            </Position>
            <AltitudeMeters>2433</AltitudeMeters>
            <DistanceMeters>NAN</DistanceMeters>
          </Trackpoint>
          <Trackpoint>
            <Time>2022-08-22T16:12:19.000Z</Time>
            <Position>
              <LatitudeDegrees>42.80029465444386005401611328125</LatitudeDegrees>
              <LongitudeDegrees>-0.27406451292335987091064453125</LongitudeDegrees>
            </Position>
            <AltitudeMeters>2433.800048828125</AltitudeMeters>
            <DistanceMeters>NAN</DistanceMeters>
          </Trackpoint>
          <Trackpoint>
            <Time>2022-08-22T16:12:46.000Z</Time>
            <Position>
              <LatitudeDegrees>42.8002219833433628082275390625</LatitudeDegrees>
              <LongitudeDegrees>-0.273904502391815185546875</LongitudeDegrees>
            </Position>
            <AltitudeMeters>2435.60009765625</AltitudeMeters>
            <DistanceMeters>NAN</DistanceMeters>
          </Trackpoint>
          <Trackpoint>
            <Time>2022-08-22T16:12:47.000Z</Time>
            <Position>
              <LatitudeDegrees>42.8002251684665679931640625</LatitudeDegrees>
              <LongitudeDegrees>-0.27388983406126499176025390625</LongitudeDegrees>
            </Position>
            <AltitudeMeters>2435.39990234375</AltitudeMeters>
            <DistanceMeters>NAN</DistanceMeters>
          </Trackpoint>
          <Trackpoint>
            <Time>2022-08-22T16:12:56.000Z</Time>
            <Position>
              <LatitudeDegrees>42.80022944323718547821044921875</LatitudeDegrees>
              <LongitudeDegrees>-0.27380249463021755218505859375</LongitudeDegrees>
            </Position>
            <AltitudeMeters>2435.199951171875</AltitudeMeters>
            <DistanceMeters>NAN</DistanceMeters>
          </Trackpoint>
          <Trackpoint>
            <Time>2022-08-22T16:13:09.000Z</Time>
            <Position>
              <LatitudeDegrees>42.80020044185221195220947265625</LatitudeDegrees>
              <LongitudeDegrees>-0.27380920015275478363037109375</LongitudeDegrees>
            </Position>
            <AltitudeMeters>2436</AltitudeMeters>
            <DistanceMeters>NAN</DistanceMeters>
          </Trackpoint>
          <Trackpoint>
            <Time>2022-08-22T16:13:12.000Z</Time>
            <Position>
              <LatitudeDegrees>42.8001901321113109588623046875</LatitudeDegrees>
              <LongitudeDegrees>-0.27381003834307193756103515625</LongitudeDegrees>
            </Position>
            <AltitudeMeters>2436.39990234375</AltitudeMeters>
            <DistanceMeters>NAN</DistanceMeters>
          </Trackpoint>
          <Trackpoint>
            <Time>2022-08-22T16:13:16.000Z</Time>
            <Position>
              <LatitudeDegrees>42.80019901692867279052734375</LatitudeDegrees>
              <LongitudeDegrees>-0.2737819589674472808837890625</LongitudeDegrees>
            </Position>
            <AltitudeMeters>2436.199951171875</AltitudeMeters>
            <DistanceMeters>NAN</DistanceMeters>
          </Trackpoint>
          <Trackpoint>
            <Time>2022-08-22T16:13:21.000Z</Time>
            <Position>
              <LatitudeDegrees>42.80024134553968906402587890625</LatitudeDegrees>
              <LongitudeDegrees>-0.27372705750167369842529296875</LongitudeDegrees>
            </Position>
            <AltitudeMeters>2435.60009765625</AltitudeMeters>
            <DistanceMeters>NAN</DistanceMeters>
          </Trackpoint>
          <Trackpoint>
            <Time>2022-08-22T16:13:37.000Z</Time>
            <Position>
              <LatitudeDegrees>42.80034385621547698974609375</LatitudeDegrees>
              <LongitudeDegrees>-0.27351516298949718475341796875</LongitudeDegrees>
            </Position>
            <AltitudeMeters>2435.199951171875</AltitudeMeters>
            <DistanceMeters>NAN</DistanceMeters>
          </Trackpoint>
          <Trackpoint>
            <Time>2022-08-22T16:13:43.000Z</Time>
            <Position>
              <LatitudeDegrees>42.80034276656806468963623046875</LatitudeDegrees>
              <LongitudeDegrees>-0.2734312601387500762939453125</LongitudeDegrees>
            </Position>
            <AltitudeMeters>2435</AltitudeMeters>
            <DistanceMeters>NAN</DistanceMeters>
          </Trackpoint>
          <Trackpoint>
            <Time>2022-08-22T16:13:44.000Z</Time>
            <Position>
              <LatitudeDegrees>42.80034117400646209716796875</LatitudeDegrees>
              <LongitudeDegrees>-0.27341592125594615936279296875</LongitudeDegrees>
            </Position>
            <AltitudeMeters>2434.800048828125</AltitudeMeters>
            <DistanceMeters>NAN</DistanceMeters>
          </Trackpoint>
          <Trackpoint>
            <Time>2022-08-22T16:13:45.000Z</Time>
            <Position>
              <LatitudeDegrees>42.80033983290195465087890625</LatitudeDegrees>
              <LongitudeDegrees>-0.2734007500112056732177734375</LongitudeDegrees>
            </Position>
            <AltitudeMeters>2434.800048828125</AltitudeMeters>
            <DistanceMeters>NAN</DistanceMeters>
          </Trackpoint>
          <Trackpoint>
            <Time>2022-08-22T16:13:59.000Z</Time>
            <Position>
              <LatitudeDegrees>42.80029884539544582366943359375</LatitudeDegrees>
              <LongitudeDegrees>-0.27324534952640533447265625</LongitudeDegrees>
            </Position>
            <AltitudeMeters>2434</AltitudeMeters>
            <DistanceMeters>NAN</DistanceMeters>
          </Trackpoint>
          <Trackpoint>
            <Time>2022-08-22T16:14:02.000Z</Time>
            <Position>
              <LatitudeDegrees>42.80028560198843479156494140625</LatitudeDegrees>
              <LongitudeDegrees>-0.27320754714310169219970703125</LongitudeDegrees>
            </Position>
            <AltitudeMeters>2433.800048828125</AltitudeMeters>
            <DistanceMeters>NAN</DistanceMeters>
          </Trackpoint>
          <Trackpoint>
            <Time>2022-08-22T16:14:10.000Z</Time>
            <Position>
              <LatitudeDegrees>42.80027034692466259002685546875</LatitudeDegrees>
              <LongitudeDegrees>-0.27309992350637912750244140625</LongitudeDegrees>
            </Position>
            <AltitudeMeters>2433.199951171875</AltitudeMeters>
            <DistanceMeters>NAN</DistanceMeters>
          </Trackpoint>
          <Trackpoint>
            <Time>2022-08-22T16:14:13.000Z</Time>
            <Position>
              <LatitudeDegrees>42.80026950873434543609619140625</LatitudeDegrees>
              <LongitudeDegrees>-0.27305969037115573883056640625</LongitudeDegrees>
            </Position>
            <AltitudeMeters>2432.800048828125</AltitudeMeters>
            <DistanceMeters>NAN</DistanceMeters>
          </Trackpoint>
          <Trackpoint>
            <Time>2022-08-22T16:14:28.000Z</Time>
            <Position>
              <LatitudeDegrees>42.80025266110897064208984375</LatitudeDegrees>
              <LongitudeDegrees>-0.272847376763820648193359375</LongitudeDegrees>
            </Position>
            <AltitudeMeters>2432.199951171875</AltitudeMeters>
            <DistanceMeters>NAN</DistanceMeters>
          </Trackpoint>
          <Trackpoint>
            <Time>2022-08-22T16:14:46.000Z</Time>
            <Position>
              <LatitudeDegrees>42.80024168081581592559814453125</LatitudeDegrees>
              <LongitudeDegrees>-0.272598601877689361572265625</LongitudeDegrees>
            </Position>
            <AltitudeMeters>2432.199951171875</AltitudeMeters>
            <DistanceMeters>NAN</DistanceMeters>
          </Trackpoint>
          <Trackpoint>
            <Time>2022-08-22T16:15:04.000Z</Time>
            <Position>
              <LatitudeDegrees>42.80024168081581592559814453125</LatitudeDegrees>
              <LongitudeDegrees>-0.27234806679189205169677734375</LongitudeDegrees>
            </Position>
            <AltitudeMeters>2432.199951171875</AltitudeMeters>
            <DistanceMeters>NAN</DistanceMeters>
          </Trackpoint>
          <Trackpoint>
            <Time>2022-08-22T16:15:21.000Z</Time>
            <Position>
              <LatitudeDegrees>42.80022189952433109283447265625</LatitudeDegrees>
              <LongitudeDegrees>-0.27209375984966754913330078125</LongitudeDegrees>
            </Position>
            <AltitudeMeters>2432.199951171875</AltitudeMeters>
            <DistanceMeters>NAN</DistanceMeters>
          </Trackpoint>
          <Trackpoint>
            <Time>2022-08-22T16:15:26.000Z</Time>
            <Position>
              <LatitudeDegrees>42.8002048842608928680419921875</LatitudeDegrees>
              <LongitudeDegrees>-0.27202066965401172637939453125</LongitudeDegrees>
            </Position>
            <AltitudeMeters>2432</AltitudeMeters>
            <DistanceMeters>NAN</DistanceMeters>
          </Trackpoint>
          <Trackpoint>
            <Time>2022-08-22T16:15:35.000Z</Time>
            <Position>
              <LatitudeDegrees>42.80013196170330047607421875</LatitudeDegrees>
              <LongitudeDegrees>-0.27196836657822132110595703125</LongitudeDegrees>
            </Position>
            <AltitudeMeters>2432.800048828125</AltitudeMeters>
            <DistanceMeters>NAN</DistanceMeters>
          </Trackpoint>
          <Trackpoint>
            <Time>2022-08-22T16:15:56.000Z</Time>
            <Position>
              <LatitudeDegrees>42.799947895109653472900390625</LatitudeDegrees>
              <LongitudeDegrees>-0.27199183590710163116455078125</LongitudeDegrees>
            </Position>
            <AltitudeMeters>2433.800048828125</AltitudeMeters>
            <DistanceMeters>NAN</DistanceMeters>
          </Trackpoint>
          <Trackpoint>
            <Time>2022-08-22T16:16:04.000Z</Time>
            <Position>
              <LatitudeDegrees>42.79987924732267856597900390625</LatitudeDegrees>
              <LongitudeDegrees>-0.27195931412279605865478515625</LongitudeDegrees>
            </Position>
            <AltitudeMeters>2433.60009765625</AltitudeMeters>
            <DistanceMeters>NAN</DistanceMeters>
          </Trackpoint>
          <Trackpoint>
            <Time>2022-08-22T16:16:24.000Z</Time>
            <Position>
              <LatitudeDegrees>42.79970138333737850189208984375</LatitudeDegrees>
              <LongitudeDegrees>-0.27195478789508342742919921875</LongitudeDegrees>
            </Position>
            <AltitudeMeters>2433.39990234375</AltitudeMeters>
            <DistanceMeters>NAN</DistanceMeters>
          </Trackpoint>
          <Trackpoint>
            <Time>2022-08-22T16:16:40.000Z</Time>
            <Position>
              <LatitudeDegrees>42.799561321735382080078125</LatitudeDegrees>
              <LongitudeDegrees>-0.27211488224565982818603515625</LongitudeDegrees>
            </Position>
            <AltitudeMeters>2433.39990234375</AltitudeMeters>
            <DistanceMeters>NAN</DistanceMeters>
          </Trackpoint>
          <Trackpoint>
            <Time>2022-08-22T16:16:57.000Z</Time>
            <Position>
              <LatitudeDegrees>42.7994065918028354644775390625</LatitudeDegrees>
              <LongitudeDegrees>-0.272257290780544281005859375</LongitudeDegrees>
            </Position>
            <AltitudeMeters>2433.39990234375</AltitudeMeters>
            <DistanceMeters>NAN</DistanceMeters>
          </Trackpoint>
          <Trackpoint>
            <Time>2022-08-22T16:17:08.000Z</Time>
            <Position>
              <LatitudeDegrees>42.79935118742287158966064453125</LatitudeDegrees>
              <LongitudeDegrees>-0.27231395244598388671875</LongitudeDegrees>
            </Position>
            <AltitudeMeters>2433.39990234375</AltitudeMeters>
            <DistanceMeters>NAN</DistanceMeters>
          </Trackpoint>
          <Trackpoint>
            <Time>2022-08-22T16:17:26.000Z</Time>
            <Position>
              <LatitudeDegrees>42.79937557876110076904296875</LatitudeDegrees>
              <LongitudeDegrees>-0.27238167822360992431640625</LongitudeDegrees>
            </Position>
            <AltitudeMeters>2433.39990234375</AltitudeMeters>
            <DistanceMeters>NAN</DistanceMeters>
          </Trackpoint>
          <Trackpoint>
            <Time>2022-08-22T16:17:40.000Z</Time>
            <Position>
              <LatitudeDegrees>42.79937365092337131500244140625</LatitudeDegrees>
              <LongitudeDegrees>-0.2723823487758636474609375</LongitudeDegrees>
            </Position>
            <AltitudeMeters>2433.39990234375</AltitudeMeters>
            <DistanceMeters>NAN</DistanceMeters>
          </Trackpoint>
          <Trackpoint>
            <Time>2022-08-22T16:18:01.000Z</Time>
            <Position>
              <LatitudeDegrees>42.7993425540626049041748046875</LatitudeDegrees>
              <LongitudeDegrees>-0.2723447978496551513671875</LongitudeDegrees>
            </Position>
            <AltitudeMeters>2433.39990234375</AltitudeMeters>
            <DistanceMeters>NAN</DistanceMeters>
          </Trackpoint>
          <Trackpoint>
            <Time>2022-08-22T16:18:03.000Z</Time>
            <Position>
              <LatitudeDegrees>42.799341715872287750244140625</LatitudeDegrees>
              <LongitudeDegrees>-0.27231520973145961761474609375</LongitudeDegrees>
            </Position>
            <AltitudeMeters>2433.39990234375</AltitudeMeters>
            <DistanceMeters>NAN</DistanceMeters>
          </Trackpoint>
          <Trackpoint>
            <Time>2022-08-22T16:18:12.000Z</Time>
            <Position>
              <LatitudeDegrees>42.79929955489933490753173828125</LatitudeDegrees>
              <LongitudeDegrees>-0.2723313868045806884765625</LongitudeDegrees>
            </Position>
            <AltitudeMeters>2433.39990234375</AltitudeMeters>
            <DistanceMeters>NAN</DistanceMeters>
          </Trackpoint>
          <Trackpoint>
            <Time>2022-08-22T16:18:14.000Z</Time>
            <Position>
              <LatitudeDegrees>42.79928212054073810577392578125</LatitudeDegrees>
              <LongitudeDegrees>-0.27234622277319431304931640625</LongitudeDegrees>
            </Position>
            <AltitudeMeters>2433.39990234375</AltitudeMeters>
            <DistanceMeters>NAN</DistanceMeters>
          </Trackpoint>
          <Trackpoint>
            <Time>2022-08-22T16:18:20.000Z</Time>
            <Position>
              <LatitudeDegrees>42.79923685826361179351806640625</LatitudeDegrees>
              <LongitudeDegrees>-0.272390060126781463623046875</LongitudeDegrees>
            </Position>
            <AltitudeMeters>2433.39990234375</AltitudeMeters>
            <DistanceMeters>NAN</DistanceMeters>
          </Trackpoint>
          <Trackpoint>
            <Time>2022-08-22T16:18:21.000Z</Time>
            <Position>
              <LatitudeDegrees>42.79922931455075740814208984375</LatitudeDegrees>
              <LongitudeDegrees>-0.27239684946835041046142578125</LongitudeDegrees>
            </Position>
            <AltitudeMeters>2433.39990234375</AltitudeMeters>
            <DistanceMeters>NAN</DistanceMeters>
          </Trackpoint>
          <Trackpoint>
            <Time>2022-08-22T16:18:25.000Z</Time>
            <Position>
              <LatitudeDegrees>42.7991977147758007049560546875</LatitudeDegrees>
              <LongitudeDegrees>-0.27241562493145465850830078125</LongitudeDegrees>
            </Position>
            <AltitudeMeters>2433.39990234375</AltitudeMeters>
            <DistanceMeters>NAN</DistanceMeters>
          </Trackpoint>
          <Trackpoint>
            <Time>2022-08-22T16:18:26.000Z</Time>
            <Position>
              <LatitudeDegrees>42.7991906739771366119384765625</LatitudeDegrees>
              <LongitudeDegrees>-0.27241763658821582794189453125</LongitudeDegrees>
            </Position>
            <AltitudeMeters>2433.39990234375</AltitudeMeters>
            <DistanceMeters>NAN</DistanceMeters>
          </Trackpoint>
          <Trackpoint>
            <Time>2022-08-22T16:18:27.000Z</Time>
            <Position>
              <LatitudeDegrees>42.7991819567978382110595703125</LatitudeDegrees>
              <LongitudeDegrees>-0.27241922914981842041015625</LongitudeDegrees>
            </Position>
            <AltitudeMeters>2433.39990234375</AltitudeMeters>
            <DistanceMeters>NAN</DistanceMeters>
          </Trackpoint>
          <Trackpoint>
            <Time>2022-08-22T16:18:29.000Z</Time>
            <Position>
              <LatitudeDegrees>42.79916158877313137054443359375</LatitudeDegrees>
              <LongitudeDegrees>-0.272424928843975067138671875</LongitudeDegrees>
            </Position>
            <AltitudeMeters>2433.39990234375</AltitudeMeters>
            <DistanceMeters>NAN</DistanceMeters>
          </Trackpoint>
          <Trackpoint>
            <Time>2022-08-22T16:18:31.000Z</Time>
            <Position>
              <LatitudeDegrees>42.79914222657680511474609375</LatitudeDegrees>
              <LongitudeDegrees>-0.2724371664226055145263671875</LongitudeDegrees>
            </Position>
            <AltitudeMeters>2433.39990234375</AltitudeMeters>
            <DistanceMeters>NAN</DistanceMeters>
          </Trackpoint>
          <Trackpoint>
            <Time>2022-08-22T16:18:35.000Z</Time>
            <Position>
              <LatitudeDegrees>42.79911481775343418121337890625</LatitudeDegrees>
              <LongitudeDegrees>-0.2724733762443065643310546875</LongitudeDegrees>
            </Position>
            <AltitudeMeters>2433.39990234375</AltitudeMeters>
            <DistanceMeters>NAN</DistanceMeters>
          </Trackpoint>
          <Trackpoint>
            <Time>2022-08-22T16:18:38.000Z</Time>
            <Position>
              <LatitudeDegrees>42.7991018258035182952880859375</LatitudeDegrees>
              <LongitudeDegrees>-0.27249827049672603607177734375</LongitudeDegrees>
            </Position>
            <AltitudeMeters>2433.39990234375</AltitudeMeters>
            <DistanceMeters>NAN</DistanceMeters>
          </Trackpoint>
          <Trackpoint>
            <Time>2022-08-22T16:18:41.000Z</Time>
            <Position>
              <LatitudeDegrees>42.7991078607738018035888671875</LatitudeDegrees>
              <LongitudeDegrees>-0.27252341620624065399169921875</LongitudeDegrees>
            </Position>
            <AltitudeMeters>2433.39990234375</AltitudeMeters>
            <DistanceMeters>NAN</DistanceMeters>
          </Trackpoint>
          <Trackpoint>
            <Time>2022-08-23T07:21:06.000Z</Time>
            <Position>
              <LatitudeDegrees>42.7990475110709667205810546875</LatitudeDegrees>
              <LongitudeDegrees>-0.27240405790507793426513671875</LongitudeDegrees>
            </Position>
            <AltitudeMeters>2433.800048828125</AltitudeMeters>
            <DistanceMeters>NAN</DistanceMeters>
          </Trackpoint>
          <Trackpoint>
            <Time>2022-08-23T07:21:07.000Z</Time>
            <Position>
              <LatitudeDegrees>42.79904432594776153564453125</LatitudeDegrees>
              <LongitudeDegrees>-0.272397436201572418212890625</LongitudeDegrees>
            </Position>
            <AltitudeMeters>2433.800048828125</AltitudeMeters>
            <DistanceMeters>NAN</DistanceMeters>
          </Trackpoint>
          <Trackpoint>
            <Time>2022-08-23T07:21:21.000Z</Time>
            <Position>
              <LatitudeDegrees>42.7989626862108707427978515625</LatitudeDegrees>
              <LongitudeDegrees>-0.2723459713160991668701171875</LongitudeDegrees>
            </Position>
            <AltitudeMeters>2434.199951171875</AltitudeMeters>
            <DistanceMeters>NAN</DistanceMeters>
          </Trackpoint>
          <Trackpoint>
            <Time>2022-08-23T07:21:42.000Z</Time>
            <Position>
              <LatitudeDegrees>42.79890057630836963653564453125</LatitudeDegrees>
              <LongitudeDegrees>-0.27211102657020092010498046875</LongitudeDegrees>
            </Position>
            <AltitudeMeters>2435</AltitudeMeters>
            <DistanceMeters>NAN</DistanceMeters>
          </Trackpoint>
          <Trackpoint>
            <Time>2022-08-23T07:21:59.000Z</Time>
            <Position>
              <LatitudeDegrees>42.79881072230637073516845703125</LatitudeDegrees>
              <LongitudeDegrees>-0.271930061280727386474609375</LongitudeDegrees>
            </Position>
            <AltitudeMeters>2436</AltitudeMeters>
            <DistanceMeters>NAN</DistanceMeters>
          </Trackpoint>
          <Trackpoint>
            <Time>2022-08-23T07:22:01.000Z</Time>
            <Position>
              <LatitudeDegrees>42.798800580203533172607421875</LatitudeDegrees>
              <LongitudeDegrees>-0.2719094417989253997802734375</LongitudeDegrees>
            </Position>
            <AltitudeMeters>2436.199951171875</AltitudeMeters>
            <DistanceMeters>NAN</DistanceMeters>
          </Trackpoint>
          <Trackpoint>
            <Time>2022-08-23T07:22:02.000Z</Time>
            <Position>
              <LatitudeDegrees>42.79879597015678882598876953125</LatitudeDegrees>
              <LongitudeDegrees>-0.27189762331545352935791015625</LongitudeDegrees>
            </Position>
            <AltitudeMeters>2436.199951171875</AltitudeMeters>
            <DistanceMeters>NAN</DistanceMeters>
          </Trackpoint>
          <Trackpoint>
            <Time>2022-08-23T07:22:07.000Z</Time>
            <Position>
              <LatitudeDegrees>42.7987725846469402313232421875</LatitudeDegrees>
              <LongitudeDegrees>-0.27183760888874530792236328125</LongitudeDegrees>
            </Position>
            <AltitudeMeters>2436.800048828125</AltitudeMeters>
            <DistanceMeters>NAN</DistanceMeters>
          </Trackpoint>
          <Trackpoint>
            <Time>2022-08-23T07:22:09.000Z</Time>
            <Position>
              <LatitudeDegrees>42.7987618558108806610107421875</LatitudeDegrees>
              <LongitudeDegrees>-0.271812044084072113037109375</LongitudeDegrees>
            </Position>
            <AltitudeMeters>2437</AltitudeMeters>
            <DistanceMeters>NAN</DistanceMeters>
          </Trackpoint>
          <Trackpoint>
            <Time>2022-08-23T07:22:12.000Z</Time>
            <Position>
              <LatitudeDegrees>42.7987440861761569976806640625</LatitudeDegrees>
              <LongitudeDegrees>-0.2717761695384979248046875</LongitudeDegrees>
            </Position>
            <AltitudeMeters>2437.39990234375</AltitudeMeters>
            <DistanceMeters>NAN</DistanceMeters>
          </Trackpoint>
          <Trackpoint>
            <Time>2022-08-23T07:22:31.000Z</Time>
            <Position>
              <LatitudeDegrees>42.7986324392259120941162109375</LatitudeDegrees>
              <LongitudeDegrees>-0.27158028446137905120849609375</LongitudeDegrees>
            </Position>
            <AltitudeMeters>2439.39990234375</AltitudeMeters>
            <DistanceMeters>NAN</DistanceMeters>
          </Trackpoint>
          <Trackpoint>
            <Time>2022-08-23T07:22:34.000Z</Time>
            <Position>
              <LatitudeDegrees>42.798614501953125</LatitudeDegrees>
              <LongitudeDegrees>-0.271543823182582855224609375</LongitudeDegrees>
            </Position>
            <AltitudeMeters>2440</AltitudeMeters>
            <DistanceMeters>NAN</DistanceMeters>
          </Trackpoint>
          <Trackpoint>
            <Time>2022-08-23T07:22:38.000Z</Time>
            <Position>
              <LatitudeDegrees>42.79858793132007122039794921875</LatitudeDegrees>
              <LongitudeDegrees>-0.27149696834385395050048828125</LongitudeDegrees>
            </Position>
            <AltitudeMeters>2440.60009765625</AltitudeMeters>
            <DistanceMeters>NAN</DistanceMeters>
          </Trackpoint>
          <Trackpoint>
            <Time>2022-08-23T07:22:41.000Z</Time>
            <Position>
              <LatitudeDegrees>42.7985717542469501495361328125</LatitudeDegrees>
              <LongitudeDegrees>-0.27146293781697750091552734375</LongitudeDegrees>
            </Position>
            <AltitudeMeters>2441</AltitudeMeters>
            <DistanceMeters>NAN</DistanceMeters>
          </Trackpoint>
          <Trackpoint>
            <Time>2022-08-23T07:22:44.000Z</Time>
            <Position>
              <LatitudeDegrees>42.798549123108386993408203125</LatitudeDegrees>
              <LongitudeDegrees>-0.2714353613555431365966796875</LongitudeDegrees>
            </Position>
            <AltitudeMeters>2441.39990234375</AltitudeMeters>
            <DistanceMeters>NAN</DistanceMeters>
          </Trackpoint>
          <Trackpoint>
            <Time>2022-08-23T07:22:50.000Z</Time>
            <Position>
              <LatitudeDegrees>42.79853604733943939208984375</LatitudeDegrees>
              <LongitudeDegrees>-0.27135984040796756744384765625</LongitudeDegrees>
            </Position>
            <AltitudeMeters>2442.60009765625</AltitudeMeters>
            <DistanceMeters>NAN</DistanceMeters>
          </Trackpoint>
          <Trackpoint>
            <Time>2022-08-23T07:22:53.000Z</Time>
            <Position>
              <LatitudeDegrees>42.798533700406551361083984375</LatitudeDegrees>
              <LongitudeDegrees>-0.27132228948175907135009765625</LongitudeDegrees>
            </Position>
            <AltitudeMeters>2443.199951171875</AltitudeMeters>
            <DistanceMeters>NAN</DistanceMeters>
          </Trackpoint>
          <Trackpoint>
            <Time>2022-08-23T07:22:54.000Z</Time>
            <Position>
              <LatitudeDegrees>42.798531688749790191650390625</LatitudeDegrees>
              <LongitudeDegrees>-0.27131474576890468597412109375</LongitudeDegrees>
            </Position>
            <AltitudeMeters>2443.39990234375</AltitudeMeters>
            <DistanceMeters>NAN</DistanceMeters>
          </Trackpoint>
          <Trackpoint>
            <Time>2022-08-23T07:22:55.000Z</Time>
            <Position>
              <LatitudeDegrees>42.7985264919698238372802734375</LatitudeDegrees>
              <LongitudeDegrees>-0.2713046036660671234130859375</LongitudeDegrees>
            </Position>
            <AltitudeMeters>2443.60009765625</AltitudeMeters>
            <DistanceMeters>NAN</DistanceMeters>
          </Trackpoint>
          <Trackpoint>
            <Time>2022-08-23T07:22:56.000Z</Time>
            <Position>
              <LatitudeDegrees>42.79852389357984066009521484375</LatitudeDegrees>
              <LongitudeDegrees>-0.2712948806583881378173828125</LongitudeDegrees>
            </Position>
            <AltitudeMeters>2443.800048828125</AltitudeMeters>
            <DistanceMeters>NAN</DistanceMeters>
          </Trackpoint>
          <Trackpoint>
            <Time>2022-08-23T07:22:57.000Z</Time>
            <Position>
              <LatitudeDegrees>42.798521630465984344482421875</LatitudeDegrees>
              <LongitudeDegrees>-0.27128356508910655975341796875</LongitudeDegrees>
            </Position>
            <AltitudeMeters>2444</AltitudeMeters>
            <DistanceMeters>NAN</DistanceMeters>
          </Trackpoint>
          <Trackpoint>
            <Time>2022-08-23T07:23:18.000Z</Time>
            <Position>
              <LatitudeDegrees>42.7984275855123996734619140625</LatitudeDegrees>
              <LongitudeDegrees>-0.2710702456533908843994140625</LongitudeDegrees>
            </Position>
            <AltitudeMeters>2445</AltitudeMeters>
            <DistanceMeters>NAN</DistanceMeters>
          </Trackpoint>
          <Trackpoint>
            <Time>2022-08-23T07:23:48.000Z</Time>
            <Position>
              <LatitudeDegrees>42.79834049753844738006591796875</LatitudeDegrees>
              <LongitudeDegrees>-0.27097125537693500518798828125</LongitudeDegrees>
            </Position>
            <AltitudeMeters>2447.199951171875</AltitudeMeters>
            <DistanceMeters>NAN</DistanceMeters>
          </Trackpoint>
          <Trackpoint>
            <Time>2022-08-23T07:25:36.000Z</Time>
            <Position>
              <LatitudeDegrees>42.79834100045263767242431640625</LatitudeDegrees>
              <LongitudeDegrees>-0.2709441818296909332275390625</LongitudeDegrees>
            </Position>
            <AltitudeMeters>2447.39990234375</AltitudeMeters>
            <DistanceMeters>NAN</DistanceMeters>
          </Trackpoint>
          <Trackpoint>
            <Time>2022-08-23T07:25:59.000Z</Time>
            <Position>
              <LatitudeDegrees>42.7982877753674983978271484375</LatitudeDegrees>
              <LongitudeDegrees>-0.27076304890215396881103515625</LongitudeDegrees>
            </Position>
            <AltitudeMeters>2449.60009765625</AltitudeMeters>
            <DistanceMeters>NAN</DistanceMeters>
          </Trackpoint>
          <Trackpoint>
            <Time>2022-08-23T07:26:12.000Z</Time>
            <Position>
              <LatitudeDegrees>42.79820705763995647430419921875</LatitudeDegrees>
              <LongitudeDegrees>-0.27067403309047222137451171875</LongitudeDegrees>
            </Position>
            <AltitudeMeters>2452</AltitudeMeters>
            <DistanceMeters>NAN</DistanceMeters>
          </Trackpoint>
          <Trackpoint>
            <Time>2022-08-23T07:26:13.000Z</Time>
            <Position>
              <LatitudeDegrees>42.79819867573678493499755859375</LatitudeDegrees>
              <LongitudeDegrees>-0.27066330425441265106201171875</LongitudeDegrees>
            </Position>
            <AltitudeMeters>2452.199951171875</AltitudeMeters>
            <DistanceMeters>NAN</DistanceMeters>
          </Trackpoint>
          <Trackpoint>
            <Time>2022-08-23T07:26:14.000Z</Time>
            <Position>
              <LatitudeDegrees>42.7981922216713428497314453125</LatitudeDegrees>
              <LongitudeDegrees>-0.27065291069447994232177734375</LongitudeDegrees>
            </Position>
            <AltitudeMeters>2452.199951171875</AltitudeMeters>
            <DistanceMeters>NAN</DistanceMeters>
          </Trackpoint>
          <Trackpoint>
            <Time>2022-08-23T07:26:36.000Z</Time>
            <Position>
              <LatitudeDegrees>42.7980631403625011444091796875</LatitudeDegrees>
              <LongitudeDegrees>-0.270487703382968902587890625</LongitudeDegrees>
            </Position>
            <AltitudeMeters>2456.39990234375</AltitudeMeters>
            <DistanceMeters>NAN</DistanceMeters>
          </Trackpoint>
          <Trackpoint>
            <Time>2022-08-23T07:26:40.000Z</Time>
            <Position>
              <LatitudeDegrees>42.79803673736751079559326171875</LatitudeDegrees>
              <LongitudeDegrees>-0.27051217854022979736328125</LongitudeDegrees>
            </Position>
            <AltitudeMeters>2457.39990234375</AltitudeMeters>
            <DistanceMeters>NAN</DistanceMeters>
          </Trackpoint>
          <Trackpoint>
            <Time>2022-08-23T07:26:45.000Z</Time>
            <Position>
              <LatitudeDegrees>42.79801880009472370147705078125</LatitudeDegrees>
              <LongitudeDegrees>-0.270509831607341766357421875</LongitudeDegrees>
            </Position>
            <AltitudeMeters>2458</AltitudeMeters>
            <DistanceMeters>NAN</DistanceMeters>
          </Trackpoint>
          <Trackpoint>
            <Time>2022-08-23T07:27:11.000Z</Time>
            <Position>
              <LatitudeDegrees>42.797914110124111175537109375</LatitudeDegrees>
              <LongitudeDegrees>-0.27040262706577777862548828125</LongitudeDegrees>
            </Position>
            <AltitudeMeters>2462</AltitudeMeters>
            <DistanceMeters>NAN</DistanceMeters>
          </Trackpoint>
          <Trackpoint>
            <Time>2022-08-23T07:27:15.000Z</Time>
            <Position>
              <LatitudeDegrees>42.7978918142616748809814453125</LatitudeDegrees>
              <LongitudeDegrees>-0.27038837783038616180419921875</LongitudeDegrees>
            </Position>
            <AltitudeMeters>2462.39990234375</AltitudeMeters>
            <DistanceMeters>NAN</DistanceMeters>
          </Trackpoint>
          <Trackpoint>
            <Time>2022-08-23T07:27:50.000Z</Time>
            <Position>
              <LatitudeDegrees>42.79772576875984668731689453125</LatitudeDegrees>
              <LongitudeDegrees>-0.2702997811138629913330078125</LongitudeDegrees>
            </Position>
            <AltitudeMeters>2469.39990234375</AltitudeMeters>
            <DistanceMeters>NAN</DistanceMeters>
          </Trackpoint>
          <Trackpoint>
            <Time>2022-08-23T07:28:02.000Z</Time>
            <Position>
              <LatitudeDegrees>42.79766692779958248138427734375</LatitudeDegrees>
              <LongitudeDegrees>-0.27029869146645069122314453125</LongitudeDegrees>
            </Position>
            <AltitudeMeters>2471.39990234375</AltitudeMeters>
            <DistanceMeters>NAN</DistanceMeters>
          </Trackpoint>
          <Trackpoint>
            <Time>2022-08-23T07:28:28.000Z</Time>
            <Position>
              <LatitudeDegrees>42.79755569994449615478515625</LatitudeDegrees>
              <LongitudeDegrees>-0.270312018692493438720703125</LongitudeDegrees>
            </Position>
            <AltitudeMeters>2475.39990234375</AltitudeMeters>
            <DistanceMeters>NAN</DistanceMeters>
          </Trackpoint>
          <Trackpoint>
            <Time>2022-08-23T07:28:58.000Z</Time>
            <Position>
              <LatitudeDegrees>42.79741379432380199432373046875</LatitudeDegrees>
              <LongitudeDegrees>-0.27015619911253452301025390625</LongitudeDegrees>
            </Position>
            <AltitudeMeters>2478.39990234375</AltitudeMeters>
            <DistanceMeters>NAN</DistanceMeters>
          </Trackpoint>
          <Trackpoint>
            <Time>2022-08-23T07:29:20.000Z</Time>
            <Position>
              <LatitudeDegrees>42.79734590090811252593994140625</LatitudeDegrees>
              <LongitudeDegrees>-0.2700590528547763824462890625</LongitudeDegrees>
            </Position>
            <AltitudeMeters>2479</AltitudeMeters>
            <DistanceMeters>NAN</DistanceMeters>
          </Trackpoint>
          <Trackpoint>
            <Time>2022-08-23T07:30:05.000Z</Time>
            <Position>
              <LatitudeDegrees>42.797189243137836456298828125</LatitudeDegrees>
              <LongitudeDegrees>-0.27009434066712856292724609375</LongitudeDegrees>
            </Position>
            <AltitudeMeters>2482.39990234375</AltitudeMeters>
            <DistanceMeters>NAN</DistanceMeters>
          </Trackpoint>
          <Trackpoint>
            <Time>2022-08-23T07:30:52.000Z</Time>
            <Position>
              <LatitudeDegrees>42.7970442362129688262939453125</LatitudeDegrees>
              <LongitudeDegrees>-0.27021369896829128265380859375</LongitudeDegrees>
            </Position>
            <AltitudeMeters>2486.60009765625</AltitudeMeters>
            <DistanceMeters>NAN</DistanceMeters>
          </Trackpoint>
          <Trackpoint>
            <Time>2022-08-23T07:31:25.000Z</Time>
            <Position>
              <LatitudeDegrees>42.7969309128820896148681640625</LatitudeDegrees>
              <LongitudeDegrees>-0.27039592154324054718017578125</LongitudeDegrees>
            </Position>
            <AltitudeMeters>2492.39990234375</AltitudeMeters>
            <DistanceMeters>NAN</DistanceMeters>
          </Trackpoint>
          <Trackpoint>
            <Time>2022-08-23T07:31:55.000Z</Time>
            <Position>
              <LatitudeDegrees>42.796821109950542449951171875</LatitudeDegrees>
              <LongitudeDegrees>-0.27050438337028026580810546875</LongitudeDegrees>
            </Position>
            <AltitudeMeters>2497.800048828125</AltitudeMeters>
            <DistanceMeters>NAN</DistanceMeters>
          </Trackpoint>
          <Trackpoint>
            <Time>2022-08-23T07:32:51.000Z</Time>
            <Position>
              <LatitudeDegrees>42.79668306000530719757080078125</LatitudeDegrees>
              <LongitudeDegrees>-0.27058669365942478179931640625</LongitudeDegrees>
            </Position>
            <AltitudeMeters>2506</AltitudeMeters>
            <DistanceMeters>NAN</DistanceMeters>
          </Trackpoint>
          <Trackpoint>
            <Time>2022-08-23T07:33:29.000Z</Time>
            <Position>
              <LatitudeDegrees>42.7965973131358623504638671875</LatitudeDegrees>
              <LongitudeDegrees>-0.27063312940299510955810546875</LongitudeDegrees>
            </Position>
            <AltitudeMeters>2512.39990234375</AltitudeMeters>
            <DistanceMeters>NAN</DistanceMeters>
          </Trackpoint>
          <Trackpoint>
            <Time>2022-08-23T07:35:15.000Z</Time>
            <Position>
              <LatitudeDegrees>42.79655766673386096954345703125</LatitudeDegrees>
              <LongitudeDegrees>-0.27054327540099620819091796875</LongitudeDegrees>
            </Position>
            <AltitudeMeters>2515.39990234375</AltitudeMeters>
            <DistanceMeters>NAN</DistanceMeters>
          </Trackpoint>
          <Trackpoint>
            <Time>2022-08-23T07:35:20.000Z</Time>
            <Position>
              <LatitudeDegrees>42.7965460158884525299072265625</LatitudeDegrees>
              <LongitudeDegrees>-0.27052684687077999114990234375</LongitudeDegrees>
            </Position>
            <AltitudeMeters>2516.39990234375</AltitudeMeters>
            <DistanceMeters>NAN</DistanceMeters>
          </Trackpoint>
          <Trackpoint>
            <Time>2022-08-23T07:35:22.000Z</Time>
            <Position>
              <LatitudeDegrees>42.79653168283402919769287109375</LatitudeDegrees>
              <LongitudeDegrees>-0.2705187164247035980224609375</LongitudeDegrees>
            </Position>
            <AltitudeMeters>2517.39990234375</AltitudeMeters>
            <DistanceMeters>NAN</DistanceMeters>
          </Trackpoint>
          <Trackpoint>
            <Time>2022-08-23T07:36:01.000Z</Time>
            <Position>
              <LatitudeDegrees>42.79638282023370265960693359375</LatitudeDegrees>
              <LongitudeDegrees>-0.27038611471652984619140625</LongitudeDegrees>
            </Position>
            <AltitudeMeters>2527</AltitudeMeters>
            <DistanceMeters>NAN</DistanceMeters>
          </Trackpoint>
          <Trackpoint>
            <Time>2022-08-23T07:36:29.000Z</Time>
            <Position>
              <LatitudeDegrees>42.79628374613821506500244140625</LatitudeDegrees>
              <LongitudeDegrees>-0.27027589268982410430908203125</LongitudeDegrees>
            </Position>
            <AltitudeMeters>2532.60009765625</AltitudeMeters>
            <DistanceMeters>NAN</DistanceMeters>
          </Trackpoint>
          <Trackpoint>
            <Time>2022-08-23T07:37:07.000Z</Time>
            <Position>
              <LatitudeDegrees>42.79618064872920513153076171875</LatitudeDegrees>
              <LongitudeDegrees>-0.27006315998733043670654296875</LongitudeDegrees>
            </Position>
            <AltitudeMeters>2538.199951171875</AltitudeMeters>
            <DistanceMeters>NAN</DistanceMeters>
          </Trackpoint>
          <Trackpoint>
            <Time>2022-08-23T07:37:39.000Z</Time>
            <Position>
              <LatitudeDegrees>42.79613371007144451141357421875</LatitudeDegrees>
              <LongitudeDegrees>-0.26988646946847438812255859375</LongitudeDegrees>
            </Position>
            <AltitudeMeters>2540.199951171875</AltitudeMeters>
            <DistanceMeters>NAN</DistanceMeters>
          </Trackpoint>
          <Trackpoint>
            <Time>2022-08-23T07:38:05.000Z</Time>
            <Position>
              <LatitudeDegrees>42.7960689179599285125732421875</LatitudeDegrees>
              <LongitudeDegrees>-0.26969988830387592315673828125</LongitudeDegrees>
            </Position>
            <AltitudeMeters>2542.800048828125</AltitudeMeters>
            <DistanceMeters>NAN</DistanceMeters>
          </Trackpoint>
          <Trackpoint>
            <Time>2022-08-23T07:38:55.000Z</Time>
            <Position>
              <LatitudeDegrees>42.7959348075091838836669921875</LatitudeDegrees>
              <LongitudeDegrees>-0.26955169625580310821533203125</LongitudeDegrees>
            </Position>
            <AltitudeMeters>2548.199951171875</AltitudeMeters>
            <DistanceMeters>NAN</DistanceMeters>
          </Trackpoint>
          <Trackpoint>
            <Time>2022-08-23T07:39:36.000Z</Time>
            <Position>
              <LatitudeDegrees>42.7958063967525959014892578125</LatitudeDegrees>
              <LongitudeDegrees>-0.26941071264445781707763671875</LongitudeDegrees>
            </Position>
            <AltitudeMeters>2555.199951171875</AltitudeMeters>
            <DistanceMeters>NAN</DistanceMeters>
          </Trackpoint>
          <Trackpoint>
            <Time>2022-08-23T07:39:51.000Z</Time>
            <Position>
              <LatitudeDegrees>42.79576457105576992034912109375</LatitudeDegrees>
              <LongitudeDegrees>-0.26928481645882129669189453125</LongitudeDegrees>
            </Position>
            <AltitudeMeters>2557.39990234375</AltitudeMeters>
            <DistanceMeters>NAN</DistanceMeters>
          </Trackpoint>
          <Trackpoint>
            <Time>2022-08-23T07:39:54.000Z</Time>
            <Position>
              <LatitudeDegrees>42.7957530878484249114990234375</LatitudeDegrees>
              <LongitudeDegrees>-0.26926369406282901763916015625</LongitudeDegrees>
            </Position>
            <AltitudeMeters>2558</AltitudeMeters>
            <DistanceMeters>NAN</DistanceMeters>
          </Trackpoint>
          <Trackpoint>
            <Time>2022-08-23T07:40:25.000Z</Time>
            <Position>
              <LatitudeDegrees>42.79560699127614498138427734375</LatitudeDegrees>
              <LongitudeDegrees>-0.26928347535431385040283203125</LongitudeDegrees>
            </Position>
            <AltitudeMeters>2566.39990234375</AltitudeMeters>
            <DistanceMeters>NAN</DistanceMeters>
          </Trackpoint>
          <Trackpoint>
            <Time>2022-08-23T07:40:51.000Z</Time>
            <Position>
              <LatitudeDegrees>42.79548369348049163818359375</LatitudeDegrees>
              <LongitudeDegrees>-0.2690947987139225006103515625</LongitudeDegrees>
            </Position>
            <AltitudeMeters>2570</AltitudeMeters>
            <DistanceMeters>NAN</DistanceMeters>
          </Trackpoint>
          <Trackpoint>
            <Time>2022-08-23T07:41:15.000Z</Time>
            <Position>
              <LatitudeDegrees>42.79540029354393482208251953125</LatitudeDegrees>
              <LongitudeDegrees>-0.2689271606504917144775390625</LongitudeDegrees>
            </Position>
            <AltitudeMeters>2573</AltitudeMeters>
            <DistanceMeters>NAN</DistanceMeters>
          </Trackpoint>
          <Trackpoint>
            <Time>2022-08-23T07:41:40.000Z</Time>
            <Position>
              <LatitudeDegrees>42.7952979505062103271484375</LatitudeDegrees>
              <LongitudeDegrees>-0.26878106407821178436279296875</LongitudeDegrees>
            </Position>
            <AltitudeMeters>2577</AltitudeMeters>
            <DistanceMeters>NAN</DistanceMeters>
          </Trackpoint>
          <Trackpoint>
            <Time>2022-08-23T07:42:20.000Z</Time>
            <Position>
              <LatitudeDegrees>42.795159481465816497802734375</LatitudeDegrees>
              <LongitudeDegrees>-0.26867947541177272796630859375</LongitudeDegrees>
            </Position>
            <AltitudeMeters>2582</AltitudeMeters>
            <DistanceMeters>NAN</DistanceMeters>
          </Trackpoint>
          <Trackpoint>
            <Time>2022-08-23T07:42:59.000Z</Time>
            <Position>
              <LatitudeDegrees>42.795061580836772918701171875</LatitudeDegrees>
              <LongitudeDegrees>-0.268495492637157440185546875</LongitudeDegrees>
            </Position>
            <AltitudeMeters>2585.199951171875</AltitudeMeters>
            <DistanceMeters>NAN</DistanceMeters>
          </Trackpoint>
          <Trackpoint>
            <Time>2022-08-23T07:43:22.000Z</Time>
            <Position>
              <LatitudeDegrees>42.79494029469788074493408203125</LatitudeDegrees>
              <LongitudeDegrees>-0.26838040910661220550537109375</LongitudeDegrees>
            </Position>
            <AltitudeMeters>2589.39990234375</AltitudeMeters>
            <DistanceMeters>NAN</DistanceMeters>
          </Trackpoint>
          <Trackpoint>
            <Time>2022-08-23T07:43:24.000Z</Time>
            <Position>
              <LatitudeDegrees>42.79493249952793121337890625</LatitudeDegrees>
              <LongitudeDegrees>-0.26837822981178760528564453125</LongitudeDegrees>
            </Position>
            <AltitudeMeters>2589.800048828125</AltitudeMeters>
            <DistanceMeters>NAN</DistanceMeters>
          </Trackpoint>
          <Trackpoint>
            <Time>2022-08-23T07:43:26.000Z</Time>
            <Position>
              <LatitudeDegrees>42.7949330024421215057373046875</LatitudeDegrees>
              <LongitudeDegrees>-0.26838107965886592864990234375</LongitudeDegrees>
            </Position>
            <AltitudeMeters>2589.800048828125</AltitudeMeters>
            <DistanceMeters>NAN</DistanceMeters>
          </Trackpoint>
          <Trackpoint>
            <Time>2022-08-23T07:43:27.000Z</Time>
            <Position>
              <LatitudeDegrees>42.7949340082705020904541015625</LatitudeDegrees>
              <LongitudeDegrees>-0.26838040910661220550537109375</LongitudeDegrees>
            </Position>
            <AltitudeMeters>2589.800048828125</AltitudeMeters>
            <DistanceMeters>NAN</DistanceMeters>
          </Trackpoint>
          <Trackpoint>
            <Time>2022-08-23T07:43:28.000Z</Time>
            <Position>
              <LatitudeDegrees>42.7949299849569797515869140625</LatitudeDegrees>
              <LongitudeDegrees>-0.2683783136308193206787109375</LongitudeDegrees>
            </Position>
            <AltitudeMeters>2589.800048828125</AltitudeMeters>
            <DistanceMeters>NAN</DistanceMeters>
          </Trackpoint>
          <Trackpoint>
            <Time>2022-08-23T07:43:34.000Z</Time>
            <Position>
              <LatitudeDegrees>42.79490475542843341827392578125</LatitudeDegrees>
              <LongitudeDegrees>-0.26837521232664585113525390625</LongitudeDegrees>
            </Position>
            <AltitudeMeters>2591</AltitudeMeters>
            <DistanceMeters>NAN</DistanceMeters>
          </Trackpoint>
          <Trackpoint>
            <Time>2022-08-23T07:43:42.000Z</Time>
            <Position>
              <LatitudeDegrees>42.7948723174631595611572265625</LatitudeDegrees>
              <LongitudeDegrees>-0.2683635614812374114990234375</LongitudeDegrees>
            </Position>
            <AltitudeMeters>2592.199951171875</AltitudeMeters>
            <DistanceMeters>NAN</DistanceMeters>
          </Trackpoint>
          <Trackpoint>
            <Time>2022-08-23T07:43:50.000Z</Time>
            <Position>
              <LatitudeDegrees>42.79484055005013942718505859375</LatitudeDegrees>
              <LongitudeDegrees>-0.268372781574726104736328125</LongitudeDegrees>
            </Position>
            <AltitudeMeters>2594</AltitudeMeters>
            <DistanceMeters>NAN</DistanceMeters>
          </Trackpoint>
          <Trackpoint>
            <Time>2022-08-23T07:43:57.000Z</Time>
            <Position>
              <LatitudeDegrees>42.7948186732828617095947265625</LatitudeDegrees>
              <LongitudeDegrees>-0.26837445795536041259765625</LongitudeDegrees>
            </Position>
            <AltitudeMeters>2595</AltitudeMeters>
            <DistanceMeters>NAN</DistanceMeters>
          </Trackpoint>
          <Trackpoint>
            <Time>2022-08-23T07:44:04.000Z</Time>
            <Position>
              <LatitudeDegrees>42.7947757579386234283447265625</LatitudeDegrees>
              <LongitudeDegrees>-0.268341265618801116943359375</LongitudeDegrees>
            </Position>
            <AltitudeMeters>2597.199951171875</AltitudeMeters>
            <DistanceMeters>NAN</DistanceMeters>
          </Trackpoint>
          <Trackpoint>
            <Time>2022-08-23T07:44:22.000Z</Time>
            <Position>
              <LatitudeDegrees>42.79474432580173015594482421875</LatitudeDegrees>
              <LongitudeDegrees>-0.26824579574167728424072265625</LongitudeDegrees>
            </Position>
            <AltitudeMeters>2598</AltitudeMeters>
            <DistanceMeters>NAN</DistanceMeters>
          </Trackpoint>
          <Trackpoint>
            <Time>2022-08-23T07:44:29.000Z</Time>
            <Position>
              <LatitudeDegrees>42.79473125003278255462646484375</LatitudeDegrees>
              <LongitudeDegrees>-0.26824596337974071502685546875</LongitudeDegrees>
            </Position>
            <AltitudeMeters>2599.199951171875</AltitudeMeters>
            <DistanceMeters>NAN</DistanceMeters>
          </Trackpoint>
          <Trackpoint>
            <Time>2022-08-23T07:44:56.000Z</Time>
            <Position>
              <LatitudeDegrees>42.7945967204868793487548828125</LatitudeDegrees>
              <LongitudeDegrees>-0.2680876292288303375244140625</LongitudeDegrees>
            </Position>
            <AltitudeMeters>2608.60009765625</AltitudeMeters>
            <DistanceMeters>NAN</DistanceMeters>
          </Trackpoint>
          <Trackpoint>
            <Time>2022-08-23T07:45:41.000Z</Time>
            <Position>
              <LatitudeDegrees>42.79448851011693477630615234375</LatitudeDegrees>
              <LongitudeDegrees>-0.2679216675460338592529296875</LongitudeDegrees>
            </Position>
            <AltitudeMeters>2615.39990234375</AltitudeMeters>
            <DistanceMeters>NAN</DistanceMeters>
          </Trackpoint>
          <Trackpoint>
            <Time>2022-08-23T07:45:58.000Z</Time>
            <Position>
              <LatitudeDegrees>42.79441139660775661468505859375</LatitudeDegrees>
              <LongitudeDegrees>-0.26786358095705509185791015625</LongitudeDegrees>
            </Position>
            <AltitudeMeters>2621.60009765625</AltitudeMeters>
            <DistanceMeters>NAN</DistanceMeters>
          </Trackpoint>
          <Trackpoint>
            <Time>2022-08-23T07:46:22.000Z</Time>
            <Position>
              <LatitudeDegrees>42.79427669942378997802734375</LatitudeDegrees>
              <LongitudeDegrees>-0.26768923737108707427978515625</LongitudeDegrees>
            </Position>
            <AltitudeMeters>2630</AltitudeMeters>
            <DistanceMeters>NAN</DistanceMeters>
          </Trackpoint>
          <Trackpoint>
            <Time>2022-08-23T07:46:51.000Z</Time>
            <Position>
              <LatitudeDegrees>42.794140242040157318115234375</LatitudeDegrees>
              <LongitudeDegrees>-0.26754029095172882080078125</LongitudeDegrees>
            </Position>
            <AltitudeMeters>2638</AltitudeMeters>
            <DistanceMeters>NAN</DistanceMeters>
          </Trackpoint>
          <Trackpoint>
            <Time>2022-08-23T07:47:37.000Z</Time>
            <Position>
              <LatitudeDegrees>42.79401577077805995941162109375</LatitudeDegrees>
              <LongitudeDegrees>-0.2673773467540740966796875</LongitudeDegrees>
            </Position>
            <AltitudeMeters>2643</AltitudeMeters>
            <DistanceMeters>NAN</DistanceMeters>
          </Trackpoint>
          <Trackpoint>
            <Time>2022-08-23T07:47:40.000Z</Time>
            <Position>
              <LatitudeDegrees>42.7940079756081104278564453125</LatitudeDegrees>
              <LongitudeDegrees>-0.26737038977444171905517578125</LongitudeDegrees>
            </Position>
            <AltitudeMeters>2643.199951171875</AltitudeMeters>
            <DistanceMeters>NAN</DistanceMeters>
          </Trackpoint>
          <Trackpoint>
            <Time>2022-08-23T07:47:43.000Z</Time>
            <Position>
              <LatitudeDegrees>42.7940022759139537811279296875</LatitudeDegrees>
              <LongitudeDegrees>-0.26736100204288959503173828125</LongitudeDegrees>
            </Position>
            <AltitudeMeters>2643.199951171875</AltitudeMeters>
            <DistanceMeters>NAN</DistanceMeters>
          </Trackpoint>
          <Trackpoint>
            <Time>2022-08-23T07:48:29.000Z</Time>
            <Position>
              <LatitudeDegrees>42.79386590234935283660888671875</LatitudeDegrees>
              <LongitudeDegrees>-0.26724583469331264495849609375</LongitudeDegrees>
            </Position>
            <AltitudeMeters>2648</AltitudeMeters>
            <DistanceMeters>NAN</DistanceMeters>
          </Trackpoint>
          <Trackpoint>
            <Time>2022-08-23T07:48:56.000Z</Time>
            <Position>
              <LatitudeDegrees>42.79372961260378360748291015625</LatitudeDegrees>
              <LongitudeDegrees>-0.2670861594378948211669921875</LongitudeDegrees>
            </Position>
            <AltitudeMeters>2653.800048828125</AltitudeMeters>
            <DistanceMeters>NAN</DistanceMeters>
          </Trackpoint>
          <Trackpoint>
            <Time>2022-08-23T07:48:58.000Z</Time>
            <Position>
              <LatitudeDegrees>42.7937221527099609375</LatitudeDegrees>
              <LongitudeDegrees>-0.26706746779382228851318359375</LongitudeDegrees>
            </Position>
            <AltitudeMeters>2653.800048828125</AltitudeMeters>
            <DistanceMeters>NAN</DistanceMeters>
          </Trackpoint>
          <Trackpoint>
            <Time>2022-08-23T07:49:00.000Z</Time>
            <Position>
              <LatitudeDegrees>42.79371988959610462188720703125</LatitudeDegrees>
              <LongitudeDegrees>-0.2670529671013355255126953125</LongitudeDegrees>
            </Position>
            <AltitudeMeters>2653.60009765625</AltitudeMeters>
            <DistanceMeters>NAN</DistanceMeters>
          </Trackpoint>
          <Trackpoint>
            <Time>2022-08-23T07:49:06.000Z</Time>
            <Position>
              <LatitudeDegrees>42.79370429925620555877685546875</LatitudeDegrees>
              <LongitudeDegrees>-0.26701935566961765289306640625</LongitudeDegrees>
            </Position>
            <AltitudeMeters>2653.800048828125</AltitudeMeters>
            <DistanceMeters>NAN</DistanceMeters>
          </Trackpoint>
          <Trackpoint>
            <Time>2022-08-23T07:49:44.000Z</Time>
            <Position>
              <LatitudeDegrees>42.79355518519878387451171875</LatitudeDegrees>
              <LongitudeDegrees>-0.26688507758080959320068359375</LongitudeDegrees>
            </Position>
            <AltitudeMeters>2663</AltitudeMeters>
            <DistanceMeters>NAN</DistanceMeters>
          </Trackpoint>
          <Trackpoint>
            <Time>2022-08-23T07:50:24.000Z</Time>
            <Position>
              <LatitudeDegrees>42.79340623877942562103271484375</LatitudeDegrees>
              <LongitudeDegrees>-0.26674711145460605621337890625</LongitudeDegrees>
            </Position>
            <AltitudeMeters>2672.800048828125</AltitudeMeters>
            <DistanceMeters>NAN</DistanceMeters>
          </Trackpoint>
          <Trackpoint>
            <Time>2022-08-23T07:51:01.000Z</Time>
            <Position>
              <LatitudeDegrees>42.79323868453502655029296875</LatitudeDegrees>
              <LongitudeDegrees>-0.26669329963624477386474609375</LongitudeDegrees>
            </Position>
            <AltitudeMeters>2681.800048828125</AltitudeMeters>
            <DistanceMeters>NAN</DistanceMeters>
          </Trackpoint>
          <Trackpoint>
            <Time>2022-08-23T07:51:44.000Z</Time>
            <Position>
              <LatitudeDegrees>42.7931010536849498748779296875</LatitudeDegrees>
              <LongitudeDegrees>-0.26662004180252552032470703125</LongitudeDegrees>
            </Position>
            <AltitudeMeters>2687.60009765625</AltitudeMeters>
            <DistanceMeters>NAN</DistanceMeters>
          </Trackpoint>
          <Trackpoint>
            <Time>2022-08-23T07:52:33.000Z</Time>
            <Position>
              <LatitudeDegrees>42.79295411892235279083251953125</LatitudeDegrees>
              <LongitudeDegrees>-0.26655994355678558349609375</LongitudeDegrees>
            </Position>
            <AltitudeMeters>2703.39990234375</AltitudeMeters>
            <DistanceMeters>NAN</DistanceMeters>
          </Trackpoint>
          <Trackpoint>
            <Time>2022-08-23T07:53:07.000Z</Time>
            <Position>
              <LatitudeDegrees>42.792860828340053558349609375</LatitudeDegrees>
              <LongitudeDegrees>-0.26649288833141326904296875</LongitudeDegrees>
            </Position>
            <AltitudeMeters>2711.60009765625</AltitudeMeters>
            <DistanceMeters>NAN</DistanceMeters>
          </Trackpoint>
          <Trackpoint>
            <Time>2022-08-23T07:53:43.000Z</Time>
            <Position>
              <LatitudeDegrees>42.792691849172115325927734375</LatitudeDegrees>
              <LongitudeDegrees>-0.26641552336513996124267578125</LongitudeDegrees>
            </Position>
            <AltitudeMeters>2722.60009765625</AltitudeMeters>
            <DistanceMeters>NAN</DistanceMeters>
          </Trackpoint>
          <Trackpoint>
            <Time>2022-08-23T07:54:08.000Z</Time>
            <Position>
              <LatitudeDegrees>42.7926038391888141632080078125</LatitudeDegrees>
              <LongitudeDegrees>-0.2663810737431049346923828125</LongitudeDegrees>
            </Position>
            <AltitudeMeters>2727.60009765625</AltitudeMeters>
            <DistanceMeters>NAN</DistanceMeters>
          </Trackpoint>
          <Trackpoint>
            <Time>2022-08-23T07:55:03.000Z</Time>
            <Position>
              <LatitudeDegrees>42.792449109256267547607421875</LatitudeDegrees>
              <LongitudeDegrees>-0.26629365049302577972412109375</LongitudeDegrees>
            </Position>
            <AltitudeMeters>2734.39990234375</AltitudeMeters>
            <DistanceMeters>NAN</DistanceMeters>
          </Trackpoint>
          <Trackpoint>
            <Time>2022-08-23T07:55:53.000Z</Time>
            <Position>
              <LatitudeDegrees>42.79234140180051326751708984375</LatitudeDegrees>
              <LongitudeDegrees>-0.26618367992341518402099609375</LongitudeDegrees>
            </Position>
            <AltitudeMeters>2738.800048828125</AltitudeMeters>
            <DistanceMeters>NAN</DistanceMeters>
          </Trackpoint>
          <Trackpoint>
            <Time>2022-08-23T07:56:28.000Z</Time>
            <Position>
              <LatitudeDegrees>42.79225624166429042816162109375</LatitudeDegrees>
              <LongitudeDegrees>-0.26633195579051971435546875</LongitudeDegrees>
            </Position>
            <AltitudeMeters>2744.39990234375</AltitudeMeters>
            <DistanceMeters>NAN</DistanceMeters>
          </Trackpoint>
          <Trackpoint>
            <Time>2022-08-23T07:57:11.000Z</Time>
            <Position>
              <LatitudeDegrees>42.79222522862255573272705078125</LatitudeDegrees>
              <LongitudeDegrees>-0.26641267351806163787841796875</LongitudeDegrees>
            </Position>
            <AltitudeMeters>2744.39990234375</AltitudeMeters>
            <DistanceMeters>NAN</DistanceMeters>
          </Trackpoint>
          <Trackpoint>
            <Time>2022-08-23T07:57:15.000Z</Time>
            <Position>
              <LatitudeDegrees>42.79222011566162109375</LatitudeDegrees>
              <LongitudeDegrees>-0.26642122305929660797119140625</LongitudeDegrees>
            </Position>
            <AltitudeMeters>2744.60009765625</AltitudeMeters>
            <DistanceMeters>NAN</DistanceMeters>
          </Trackpoint>
          <Trackpoint>
            <Time>2022-08-23T07:57:16.000Z</Time>
            <Position>
              <LatitudeDegrees>42.79222011566162109375</LatitudeDegrees>
              <LongitudeDegrees>-0.26642222888767719268798828125</LongitudeDegrees>
            </Position>
            <AltitudeMeters>2744.60009765625</AltitudeMeters>
            <DistanceMeters>NAN</DistanceMeters>
          </Trackpoint>
          <Trackpoint>
            <Time>2022-08-23T07:57:17.000Z</Time>
            <Position>
              <LatitudeDegrees>42.7922239713370800018310546875</LatitudeDegrees>
              <LongitudeDegrees>-0.2664243243634700775146484375</LongitudeDegrees>
            </Position>
            <AltitudeMeters>2744.60009765625</AltitudeMeters>
            <DistanceMeters>NAN</DistanceMeters>
          </Trackpoint>
          <Trackpoint>
            <Time>2022-08-23T07:57:18.000Z</Time>
            <Position>
              <LatitudeDegrees>42.79222439043223857879638671875</LatitudeDegrees>
              <LongitudeDegrees>-0.26642759330570697784423828125</LongitudeDegrees>
            </Position>
            <AltitudeMeters>2744.800048828125</AltitudeMeters>
            <DistanceMeters>NAN</DistanceMeters>
          </Trackpoint>
          <Trackpoint>
            <Time>2022-08-23T07:57:41.000Z</Time>
            <Position>
              <LatitudeDegrees>42.79221466742455959320068359375</LatitudeDegrees>
              <LongitudeDegrees>-0.266455002129077911376953125</LongitudeDegrees>
            </Position>
            <AltitudeMeters>2745</AltitudeMeters>
            <DistanceMeters>NAN</DistanceMeters>
          </Trackpoint>
          <Trackpoint>
            <Time>2022-08-23T07:58:05.000Z</Time>
            <Position>
              <LatitudeDegrees>42.7921760268509387969970703125</LatitudeDegrees>
              <LongitudeDegrees>-0.2665136754512786865234375</LongitudeDegrees>
            </Position>
            <AltitudeMeters>2745.60009765625</AltitudeMeters>
            <DistanceMeters>NAN</DistanceMeters>
          </Trackpoint>
          <Trackpoint>
            <Time>2022-08-23T07:58:17.000Z</Time>
            <Position>
              <LatitudeDegrees>42.7921723388135433197021484375</LatitudeDegrees>
              <LongitudeDegrees>-0.26651962660253047943115234375</LongitudeDegrees>
            </Position>
            <AltitudeMeters>2745.60009765625</AltitudeMeters>
            <DistanceMeters>NAN</DistanceMeters>
          </Trackpoint>
          <Trackpoint>
            <Time>2022-08-23T07:59:04.000Z</Time>
            <Position>
              <LatitudeDegrees>42.7920891903340816497802734375</LatitudeDegrees>
              <LongitudeDegrees>-0.2665993385016918182373046875</LongitudeDegrees>
            </Position>
            <AltitudeMeters>2745.800048828125</AltitudeMeters>
            <DistanceMeters>NAN</DistanceMeters>
          </Trackpoint>
          <Trackpoint>
            <Time>2022-08-23T07:59:15.000Z</Time>
            <Position>
              <LatitudeDegrees>42.79210654087364673614501953125</LatitudeDegrees>
              <LongitudeDegrees>-0.26663211174309253692626953125</LongitudeDegrees>
            </Position>
            <AltitudeMeters>2746</AltitudeMeters>
            <DistanceMeters>NAN</DistanceMeters>
          </Trackpoint>
          <Trackpoint>
            <Time>2022-08-23T07:59:16.000Z</Time>
            <Position>
              <LatitudeDegrees>42.79211106710135936737060546875</LatitudeDegrees>
              <LongitudeDegrees>-0.26663211174309253692626953125</LongitudeDegrees>
            </Position>
            <AltitudeMeters>2746.199951171875</AltitudeMeters>
            <DistanceMeters>NAN</DistanceMeters>
          </Trackpoint>
          <Trackpoint>
            <Time>2022-08-23T07:59:18.000Z</Time>
            <Position>
              <LatitudeDegrees>42.79210670851171016693115234375</LatitudeDegrees>
              <LongitudeDegrees>-0.2666316926479339599609375</LongitudeDegrees>
            </Position>
            <AltitudeMeters>2746</AltitudeMeters>
            <DistanceMeters>NAN</DistanceMeters>
          </Trackpoint>
          <Trackpoint>
            <Time>2022-08-23T07:59:27.000Z</Time>
            <Position>
              <LatitudeDegrees>42.79211576096713542938232421875</LatitudeDegrees>
              <LongitudeDegrees>-0.26663663797080516815185546875</LongitudeDegrees>
            </Position>
            <AltitudeMeters>2746.199951171875</AltitudeMeters>
            <DistanceMeters>NAN</DistanceMeters>
          </Trackpoint>
          <Trackpoint>
            <Time>2022-08-23T07:59:40.000Z</Time>
            <Position>
              <LatitudeDegrees>42.792150042951107025146484375</LatitudeDegrees>
              <LongitudeDegrees>-0.26664200238883495330810546875</LongitudeDegrees>
            </Position>
            <AltitudeMeters>2746.60009765625</AltitudeMeters>
            <DistanceMeters>NAN</DistanceMeters>
          </Trackpoint>
          <Trackpoint>
            <Time>2022-08-23T08:00:25.000Z</Time>
            <Position>
              <LatitudeDegrees>42.79204434715211391448974609375</LatitudeDegrees>
              <LongitudeDegrees>-0.2667515538632869720458984375</LongitudeDegrees>
            </Position>
            <AltitudeMeters>2744.800048828125</AltitudeMeters>
            <DistanceMeters>NAN</DistanceMeters>
          </Trackpoint>
          <Trackpoint>
            <Time>2022-08-23T08:00:37.000Z</Time>
            <Position>
              <LatitudeDegrees>42.79211173765361309051513671875</LatitudeDegrees>
              <LongitudeDegrees>-0.2668202854692935943603515625</LongitudeDegrees>
            </Position>
            <AltitudeMeters>2746</AltitudeMeters>
            <DistanceMeters>NAN</DistanceMeters>
          </Trackpoint>
          <Trackpoint>
            <Time>2022-08-23T08:01:29.000Z</Time>
            <Position>
              <LatitudeDegrees>42.79208458028733730316162109375</LatitudeDegrees>
              <LongitudeDegrees>-0.26683378033339977264404296875</LongitudeDegrees>
            </Position>
            <AltitudeMeters>2745.199951171875</AltitudeMeters>
            <DistanceMeters>NAN</DistanceMeters>
          </Trackpoint>
          <Trackpoint>
            <Time>2022-08-23T08:01:43.000Z</Time>
            <Position>
              <LatitudeDegrees>42.79212892055511474609375</LatitudeDegrees>
              <LongitudeDegrees>-0.26686278171837329864501953125</LongitudeDegrees>
            </Position>
            <AltitudeMeters>2747.199951171875</AltitudeMeters>
            <DistanceMeters>NAN</DistanceMeters>
          </Trackpoint>
          <Trackpoint>
            <Time>2022-08-23T08:02:11.000Z</Time>
            <Position>
              <LatitudeDegrees>42.79218264855444431304931640625</LatitudeDegrees>
              <LongitudeDegrees>-0.26703494600951671600341796875</LongitudeDegrees>
            </Position>
            <AltitudeMeters>2749.800048828125</AltitudeMeters>
            <DistanceMeters>NAN</DistanceMeters>
          </Trackpoint>
          <Trackpoint>
            <Time>2022-08-23T08:02:17.000Z</Time>
            <Position>
              <LatitudeDegrees>42.7921978197991847991943359375</LatitudeDegrees>
              <LongitudeDegrees>-0.26709009893238544464111328125</LongitudeDegrees>
            </Position>
            <AltitudeMeters>2751.39990234375</AltitudeMeters>
            <DistanceMeters>NAN</DistanceMeters>
          </Trackpoint>
          <Trackpoint>
            <Time>2022-08-23T08:02:20.000Z</Time>
            <Position>
              <LatitudeDegrees>42.792207039892673492431640625</LatitudeDegrees>
              <LongitudeDegrees>-0.26711826212704181671142578125</LongitudeDegrees>
            </Position>
            <AltitudeMeters>2752.39990234375</AltitudeMeters>
            <DistanceMeters>NAN</DistanceMeters>
          </Trackpoint>
          <Trackpoint>
            <Time>2022-08-23T08:02:23.000Z</Time>
            <Position>
              <LatitudeDegrees>42.79222187586128711700439453125</LatitudeDegrees>
              <LongitudeDegrees>-0.267149023711681365966796875</LongitudeDegrees>
            </Position>
            <AltitudeMeters>2753.800048828125</AltitudeMeters>
            <DistanceMeters>NAN</DistanceMeters>
          </Trackpoint>
          <Trackpoint>
            <Time>2022-08-23T08:02:32.000Z</Time>
            <Position>
              <LatitudeDegrees>42.79225758276879787445068359375</LatitudeDegrees>
              <LongitudeDegrees>-0.26725069619715213775634765625</LongitudeDegrees>
            </Position>
            <AltitudeMeters>2756.39990234375</AltitudeMeters>
            <DistanceMeters>NAN</DistanceMeters>
          </Trackpoint>
          <Trackpoint>
            <Time>2022-08-23T08:02:41.000Z</Time>
            <Position>
              <LatitudeDegrees>42.792278788983821868896484375</LatitudeDegrees>
              <LongitudeDegrees>-0.267322361469268798828125</LongitudeDegrees>
            </Position>
            <AltitudeMeters>2758</AltitudeMeters>
            <DistanceMeters>NAN</DistanceMeters>
          </Trackpoint>
          <Trackpoint>
            <Time>2022-08-23T08:02:43.000Z</Time>
            <Position>
              <LatitudeDegrees>42.7922816388309001922607421875</LatitudeDegrees>
              <LongitudeDegrees>-0.26733669452369213104248046875</LongitudeDegrees>
            </Position>
            <AltitudeMeters>2758.199951171875</AltitudeMeters>
            <DistanceMeters>NAN</DistanceMeters>
          </Trackpoint>
          <Trackpoint>
            <Time>2022-08-23T08:02:47.000Z</Time>
            <Position>
              <LatitudeDegrees>42.7922839857637882232666015625</LatitudeDegrees>
              <LongitudeDegrees>-0.26737273670732975006103515625</LongitudeDegrees>
            </Position>
            <AltitudeMeters>2758.60009765625</AltitudeMeters>
            <DistanceMeters>NAN</DistanceMeters>
          </Trackpoint>
          <Trackpoint>
            <Time>2022-08-23T08:03:29.000Z</Time>
            <Position>
              <LatitudeDegrees>42.79230904765427112579345703125</LatitudeDegrees>
              <LongitudeDegrees>-0.26760675944387912750244140625</LongitudeDegrees>
            </Position>
            <AltitudeMeters>2763.800048828125</AltitudeMeters>
            <DistanceMeters>NAN</DistanceMeters>
          </Trackpoint>
          <Trackpoint>
            <Time>2022-08-23T08:03:45.000Z</Time>
            <Position>
              <LatitudeDegrees>42.79233436100184917449951171875</LatitudeDegrees>
              <LongitudeDegrees>-0.26770935393869876861572265625</LongitudeDegrees>
            </Position>
            <AltitudeMeters>2767.39990234375</AltitudeMeters>
            <DistanceMeters>NAN</DistanceMeters>
          </Trackpoint>
          <Trackpoint>
            <Time>2022-08-23T08:03:59.000Z</Time>
            <Position>
              <LatitudeDegrees>42.792337127029895782470703125</LatitudeDegrees>
              <LongitudeDegrees>-0.26783667504787445068359375</LongitudeDegrees>
            </Position>
            <AltitudeMeters>2771.60009765625</AltitudeMeters>
            <DistanceMeters>NAN</DistanceMeters>
          </Trackpoint>
          <Trackpoint>
            <Time>2022-08-23T08:04:02.000Z</Time>
            <Position>
              <LatitudeDegrees>42.79231944121420383453369140625</LatitudeDegrees>
              <LongitudeDegrees>-0.2678509242832660675048828125</LongitudeDegrees>
            </Position>
            <AltitudeMeters>2771.199951171875</AltitudeMeters>
            <DistanceMeters>NAN</DistanceMeters>
          </Trackpoint>
          <Trackpoint>
            <Time>2022-08-23T08:04:07.000Z</Time>
            <Position>
              <LatitudeDegrees>42.79228918254375457763671875</LatitudeDegrees>
              <LongitudeDegrees>-0.26786156930029392242431640625</LongitudeDegrees>
            </Position>
            <AltitudeMeters>2770</AltitudeMeters>
            <DistanceMeters>NAN</DistanceMeters>
          </Trackpoint>
          <Trackpoint>
            <Time>2022-08-23T08:04:08.000Z</Time>
            <Position>
              <LatitudeDegrees>42.7922913618385791778564453125</LatitudeDegrees>
              <LongitudeDegrees>-0.26786542497575283050537109375</LongitudeDegrees>
            </Position>
            <AltitudeMeters>2770.39990234375</AltitudeMeters>
            <DistanceMeters>NAN</DistanceMeters>
          </Trackpoint>
          <Trackpoint>
            <Time>2022-08-23T08:04:31.000Z</Time>
            <Position>
              <LatitudeDegrees>42.792327068746089935302734375</LatitudeDegrees>
              <LongitudeDegrees>-0.26802979409694671630859375</LongitudeDegrees>
            </Position>
            <AltitudeMeters>2777</AltitudeMeters>
            <DistanceMeters>NAN</DistanceMeters>
          </Trackpoint>
          <Trackpoint>
            <Time>2022-08-23T08:04:35.000Z</Time>
            <Position>
              <LatitudeDegrees>42.7923319302499294281005859375</LatitudeDegrees>
              <LongitudeDegrees>-0.26806608773767948150634765625</LongitudeDegrees>
            </Position>
            <AltitudeMeters>2778.199951171875</AltitudeMeters>
            <DistanceMeters>NAN</DistanceMeters>
          </Trackpoint>
          <Trackpoint>
            <Time>2022-08-23T08:04:37.000Z</Time>
            <Position>
              <LatitudeDegrees>42.7923315949738025665283203125</LatitudeDegrees>
              <LongitudeDegrees>-0.26808586902916431427001953125</LongitudeDegrees>
            </Position>
            <AltitudeMeters>2778.800048828125</AltitudeMeters>
            <DistanceMeters>NAN</DistanceMeters>
          </Trackpoint>
          <Trackpoint>
            <Time>2022-08-23T08:04:40.000Z</Time>
            <Position>
              <LatitudeDegrees>42.792298234999179840087890625</LatitudeDegrees>
              <LongitudeDegrees>-0.268116630613803863525390625</LongitudeDegrees>
            </Position>
            <AltitudeMeters>2778.800048828125</AltitudeMeters>
            <DistanceMeters>NAN</DistanceMeters>
          </Trackpoint>
          <Trackpoint>
            <Time>2022-08-23T08:04:42.000Z</Time>
            <Position>
              <LatitudeDegrees>42.7922943793237209320068359375</LatitudeDegrees>
              <LongitudeDegrees>-0.26813817210495471954345703125</LongitudeDegrees>
            </Position>
            <AltitudeMeters>2779.39990234375</AltitudeMeters>
            <DistanceMeters>NAN</DistanceMeters>
          </Trackpoint>
          <Trackpoint>
            <Time>2022-08-23T08:04:44.000Z</Time>
            <Position>
              <LatitudeDegrees>42.792284153401851654052734375</LatitudeDegrees>
              <LongitudeDegrees>-0.2681603841483592987060546875</LongitudeDegrees>
            </Position>
            <AltitudeMeters>2779.60009765625</AltitudeMeters>
            <DistanceMeters>NAN</DistanceMeters>
          </Trackpoint>
          <Trackpoint>
            <Time>2022-08-23T08:04:46.000Z</Time>
            <Position>
              <LatitudeDegrees>42.7922752685844898223876953125</LatitudeDegrees>
              <LongitudeDegrees>-0.268185026943683624267578125</LongitudeDegrees>
            </Position>
            <AltitudeMeters>2780</AltitudeMeters>
            <DistanceMeters>NAN</DistanceMeters>
          </Trackpoint>
          <Trackpoint>
            <Time>2022-08-23T08:04:49.000Z</Time>
            <Position>
              <LatitudeDegrees>42.79227552004158496856689453125</LatitudeDegrees>
              <LongitudeDegrees>-0.2682100050151348114013671875</LongitudeDegrees>
            </Position>
            <AltitudeMeters>2780.800048828125</AltitudeMeters>
            <DistanceMeters>NAN</DistanceMeters>
          </Trackpoint>
          <Trackpoint>
            <Time>2022-08-23T08:04:56.000Z</Time>
            <Position>
              <LatitudeDegrees>42.79228641651570796966552734375</LatitudeDegrees>
              <LongitudeDegrees>-0.26827312074601650238037109375</LongitudeDegrees>
            </Position>
            <AltitudeMeters>2783.39990234375</AltitudeMeters>
            <DistanceMeters>NAN</DistanceMeters>
          </Trackpoint>
          <Trackpoint>
            <Time>2022-08-23T08:04:59.000Z</Time>
            <Position>
              <LatitudeDegrees>42.7922886796295642852783203125</LatitudeDegrees>
              <LongitudeDegrees>-0.26829726062715053558349609375</LongitudeDegrees>
            </Position>
            <AltitudeMeters>2784.39990234375</AltitudeMeters>
            <DistanceMeters>NAN</DistanceMeters>
          </Trackpoint>
          <Trackpoint>
            <Time>2022-08-23T08:05:01.000Z</Time>
            <Position>
              <LatitudeDegrees>42.79228918254375457763671875</LatitudeDegrees>
              <LongitudeDegrees>-0.2683142758905887603759765625</LongitudeDegrees>
            </Position>
            <AltitudeMeters>2785</AltitudeMeters>
            <DistanceMeters>NAN</DistanceMeters>
          </Trackpoint>
          <Trackpoint>
            <Time>2022-08-23T08:05:05.000Z</Time>
            <Position>
              <LatitudeDegrees>42.79226847924292087554931640625</LatitudeDegrees>
              <LongitudeDegrees>-0.26835031807422637939453125</LongitudeDegrees>
            </Position>
            <AltitudeMeters>2785.39990234375</AltitudeMeters>
            <DistanceMeters>NAN</DistanceMeters>
          </Trackpoint>
          <Trackpoint>
            <Time>2022-08-23T08:05:12.000Z</Time>
            <Position>
              <LatitudeDegrees>42.7922591753304004669189453125</LatitudeDegrees>
              <LongitudeDegrees>-0.26840438134968280792236328125</LongitudeDegrees>
            </Position>
            <AltitudeMeters>2787</AltitudeMeters>
            <DistanceMeters>NAN</DistanceMeters>
          </Trackpoint>
          <Trackpoint>
            <Time>2022-08-23T08:05:16.000Z</Time>
            <Position>
              <LatitudeDegrees>42.79234626330435276031494140625</LatitudeDegrees>
              <LongitudeDegrees>-0.2684242464601993560791015625</LongitudeDegrees>
            </Position>
            <AltitudeMeters>2790.60009765625</AltitudeMeters>
            <DistanceMeters>NAN</DistanceMeters>
          </Trackpoint>
          <Trackpoint>
            <Time>2022-08-23T08:05:25.000Z</Time>
            <Position>
              <LatitudeDegrees>42.79234106652438640594482421875</LatitudeDegrees>
              <LongitudeDegrees>-0.2684850990772247314453125</LongitudeDegrees>
            </Position>
            <AltitudeMeters>2792.60009765625</AltitudeMeters>
            <DistanceMeters>NAN</DistanceMeters>
          </Trackpoint>
          <Trackpoint>
            <Time>2022-08-23T08:05:29.000Z</Time>
            <Position>
              <LatitudeDegrees>42.792306952178478240966796875</LatitudeDegrees>
              <LongitudeDegrees>-0.268524326384067535400390625</LongitudeDegrees>
            </Position>
            <AltitudeMeters>2793.199951171875</AltitudeMeters>
            <DistanceMeters>NAN</DistanceMeters>
          </Trackpoint>
          <Trackpoint>
            <Time>2022-08-23T08:05:32.000Z</Time>
            <Position>
              <LatitudeDegrees>42.7922923676669597625732421875</LatitudeDegrees>
              <LongitudeDegrees>-0.26855416595935821533203125</LongitudeDegrees>
            </Position>
            <AltitudeMeters>2793.800048828125</AltitudeMeters>
            <DistanceMeters>NAN</DistanceMeters>
          </Trackpoint>
          <Trackpoint>
            <Time>2022-08-23T08:05:35.000Z</Time>
            <Position>
              <LatitudeDegrees>42.79229362495243549346923828125</LatitudeDegrees>
              <LongitudeDegrees>-0.268585346639156341552734375</LongitudeDegrees>
            </Position>
            <AltitudeMeters>2794.800048828125</AltitudeMeters>
            <DistanceMeters>NAN</DistanceMeters>
          </Trackpoint>
          <Trackpoint>
            <Time>2022-08-23T08:05:39.000Z</Time>
            <Position>
              <LatitudeDegrees>42.7923181839287281036376953125</LatitudeDegrees>
              <LongitudeDegrees>-0.2685858495533466339111328125</LongitudeDegrees>
            </Position>
            <AltitudeMeters>2795.800048828125</AltitudeMeters>
            <DistanceMeters>NAN</DistanceMeters>
          </Trackpoint>
          <Trackpoint>
            <Time>2022-08-23T08:05:42.000Z</Time>
            <Position>
              <LatitudeDegrees>42.7923339419066905975341796875</LatitudeDegrees>
              <LongitudeDegrees>-0.26857051067054271697998046875</LongitudeDegrees>
            </Position>
            <AltitudeMeters>2795.800048828125</AltitudeMeters>
            <DistanceMeters>NAN</DistanceMeters>
          </Trackpoint>
          <Trackpoint>
            <Time>2022-08-23T08:05:44.000Z</Time>
            <Position>
              <LatitudeDegrees>42.79234844259917736053466796875</LatitudeDegrees>
              <LongitudeDegrees>-0.26855810545384883880615234375</LongitudeDegrees>
            </Position>
            <AltitudeMeters>2795.800048828125</AltitudeMeters>
            <DistanceMeters>NAN</DistanceMeters>
          </Trackpoint>
          <Trackpoint>
            <Time>2022-08-23T08:05:47.000Z</Time>
            <Position>
              <LatitudeDegrees>42.79236604459583759307861328125</LatitudeDegrees>
              <LongitudeDegrees>-0.268545448780059814453125</LongitudeDegrees>
            </Position>
            <AltitudeMeters>2795.800048828125</AltitudeMeters>
            <DistanceMeters>NAN</DistanceMeters>
          </Trackpoint>
          <Trackpoint>
            <Time>2022-08-23T08:05:50.000Z</Time>
            <Position>
              <LatitudeDegrees>42.79237073846161365509033203125</LatitudeDegrees>
              <LongitudeDegrees>-0.26856078766286373138427734375</LongitudeDegrees>
            </Position>
            <AltitudeMeters>2796.39990234375</AltitudeMeters>
            <DistanceMeters>NAN</DistanceMeters>
          </Trackpoint>
          <Trackpoint>
            <Time>2022-08-23T08:05:57.000Z</Time>
            <Position>
              <LatitudeDegrees>42.79240611009299755096435546875</LatitudeDegrees>
              <LongitudeDegrees>-0.26854888536036014556884765625</LongitudeDegrees>
            </Position>
            <AltitudeMeters>2797</AltitudeMeters>
            <DistanceMeters>NAN</DistanceMeters>
          </Trackpoint>
          <Trackpoint>
            <Time>2022-08-23T08:06:01.000Z</Time>
            <Position>
              <LatitudeDegrees>42.79244047589600086212158203125</LatitudeDegrees>
              <LongitudeDegrees>-0.26856145821511745452880859375</LongitudeDegrees>
            </Position>
            <AltitudeMeters>2798.39990234375</AltitudeMeters>
            <DistanceMeters>NAN</DistanceMeters>
          </Trackpoint>
          <Trackpoint>
            <Time>2022-08-23T08:06:03.000Z</Time>
            <Position>
              <LatitudeDegrees>42.79242991469800472259521484375</LatitudeDegrees>
              <LongitudeDegrees>-0.26857218705117702484130859375</LongitudeDegrees>
            </Position>
            <AltitudeMeters>2798.60009765625</AltitudeMeters>
            <DistanceMeters>NAN</DistanceMeters>
          </Trackpoint>
          <Trackpoint>
            <Time>2022-08-23T08:06:06.000Z</Time>
            <Position>
              <LatitudeDegrees>42.79242287389934062957763671875</LatitudeDegrees>
              <LongitudeDegrees>-0.26859708130359649658203125</LongitudeDegrees>
            </Position>
            <AltitudeMeters>2799.199951171875</AltitudeMeters>
            <DistanceMeters>NAN</DistanceMeters>
          </Trackpoint>
          <Trackpoint>
            <Time>2022-08-23T08:06:10.000Z</Time>
            <Position>
              <LatitudeDegrees>42.79241122305393218994140625</LatitudeDegrees>
              <LongitudeDegrees>-0.26863236911594867706298828125</LongitudeDegrees>
            </Position>
            <AltitudeMeters>2800.199951171875</AltitudeMeters>
            <DistanceMeters>NAN</DistanceMeters>
          </Trackpoint>
          <Trackpoint>
            <Time>2022-08-23T08:06:11.000Z</Time>
            <Position>
              <LatitudeDegrees>42.79240963049232959747314453125</LatitudeDegrees>
              <LongitudeDegrees>-0.26863605715334415435791015625</LongitudeDegrees>
            </Position>
            <AltitudeMeters>2800.199951171875</AltitudeMeters>
            <DistanceMeters>NAN</DistanceMeters>
          </Trackpoint>
          <Trackpoint>
            <Time>2022-08-23T08:06:43.000Z</Time>
            <Position>
              <LatitudeDegrees>42.7925193496048450469970703125</LatitudeDegrees>
              <LongitudeDegrees>-0.2687819860875606536865234375</LongitudeDegrees>
            </Position>
            <AltitudeMeters>2813.60009765625</AltitudeMeters>
            <DistanceMeters>NAN</DistanceMeters>
          </Trackpoint>
          <Trackpoint>
            <Time>2022-08-23T08:06:54.000Z</Time>
            <Position>
              <LatitudeDegrees>42.792495377361774444580078125</LatitudeDegrees>
              <LongitudeDegrees>-0.2688882686197757720947265625</LongitudeDegrees>
            </Position>
            <AltitudeMeters>2817.39990234375</AltitudeMeters>
            <DistanceMeters>NAN</DistanceMeters>
          </Trackpoint>
          <Trackpoint>
            <Time>2022-08-23T08:06:57.000Z</Time>
            <Position>
              <LatitudeDegrees>42.7924817986786365509033203125</LatitudeDegrees>
              <LongitudeDegrees>-0.26891198940575122833251953125</LongitudeDegrees>
            </Position>
            <AltitudeMeters>2817.39990234375</AltitudeMeters>
            <DistanceMeters>NAN</DistanceMeters>
          </Trackpoint>
          <Trackpoint>
            <Time>2022-08-23T08:06:59.000Z</Time>
            <Position>
              <LatitudeDegrees>42.79248305596411228179931640625</LatitudeDegrees>
              <LongitudeDegrees>-0.26892405934631824493408203125</LongitudeDegrees>
            </Position>
            <AltitudeMeters>2818</AltitudeMeters>
            <DistanceMeters>NAN</DistanceMeters>
          </Trackpoint>
          <Trackpoint>
            <Time>2022-08-23T08:07:05.000Z</Time>
            <Position>
              <LatitudeDegrees>42.79246059246361255645751953125</LatitudeDegrees>
              <LongitudeDegrees>-0.26898373849689960479736328125</LongitudeDegrees>
            </Position>
            <AltitudeMeters>2818.800048828125</AltitudeMeters>
            <DistanceMeters>NAN</DistanceMeters>
          </Trackpoint>
          <Trackpoint>
            <Time>2022-08-23T08:07:07.000Z</Time>
            <Position>
              <LatitudeDegrees>42.79250686056911945343017578125</LatitudeDegrees>
              <LongitudeDegrees>-0.26899111457169055938720703125</LongitudeDegrees>
            </Position>
            <AltitudeMeters>2821.800048828125</AltitudeMeters>
            <DistanceMeters>NAN</DistanceMeters>
          </Trackpoint>
          <Trackpoint>
            <Time>2022-08-23T08:07:08.000Z</Time>
            <Position>
              <LatitudeDegrees>42.79253284446895122528076171875</LatitudeDegrees>
              <LongitudeDegrees>-0.26899144984781742095947265625</LongitudeDegrees>
            </Position>
            <AltitudeMeters>2823.199951171875</AltitudeMeters>
            <DistanceMeters>NAN</DistanceMeters>
          </Trackpoint>
          <Trackpoint>
            <Time>2022-08-23T08:07:10.000Z</Time>
            <Position>
              <LatitudeDegrees>42.7925325930118560791015625</LatitudeDegrees>
              <LongitudeDegrees>-0.26901106350123882293701171875</LongitudeDegrees>
            </Position>
            <AltitudeMeters>2824</AltitudeMeters>
            <DistanceMeters>NAN</DistanceMeters>
          </Trackpoint>
          <Trackpoint>
            <Time>2022-08-23T08:07:11.000Z</Time>
            <Position>
              <LatitudeDegrees>42.7925253845751285552978515625</LatitudeDegrees>
              <LongitudeDegrees>-0.2690133266150951385498046875</LongitudeDegrees>
            </Position>
            <AltitudeMeters>2823.60009765625</AltitudeMeters>
            <DistanceMeters>NAN</DistanceMeters>
          </Trackpoint>
          <Trackpoint>
            <Time>2022-08-23T08:07:12.000Z</Time>
            <Position>
              <LatitudeDegrees>42.79251758940517902374267578125</LatitudeDegrees>
              <LongitudeDegrees>-0.269020535051822662353515625</LongitudeDegrees>
            </Position>
            <AltitudeMeters>2823.39990234375</AltitudeMeters>
            <DistanceMeters>NAN</DistanceMeters>
          </Trackpoint>
          <Trackpoint>
            <Time>2022-08-23T08:07:13.000Z</Time>
            <Position>
              <LatitudeDegrees>42.792518176138401031494140625</LatitudeDegrees>
              <LongitudeDegrees>-0.269024558365345001220703125</LongitudeDegrees>
            </Position>
            <AltitudeMeters>2823.60009765625</AltitudeMeters>
            <DistanceMeters>NAN</DistanceMeters>
          </Trackpoint>
          <Trackpoint>
            <Time>2022-08-23T08:07:14.000Z</Time>
            <Position>
              <LatitudeDegrees>42.7925213612616062164306640625</LatitudeDegrees>
              <LongitudeDegrees>-0.26903285644948482513427734375</LongitudeDegrees>
            </Position>
            <AltitudeMeters>2824</AltitudeMeters>
            <DistanceMeters>NAN</DistanceMeters>
          </Trackpoint>
          <Trackpoint>
            <Time>2022-08-23T08:07:24.000Z</Time>
            <Position>
              <LatitudeDegrees>42.792530246078968048095703125</LatitudeDegrees>
              <LongitudeDegrees>-0.269097983837127685546875</LongitudeDegrees>
            </Position>
            <AltitudeMeters>2826.800048828125</AltitudeMeters>
            <DistanceMeters>NAN</DistanceMeters>
          </Trackpoint>
          <Trackpoint>
            <Time>2022-08-23T08:07:28.000Z</Time>
            <Position>
              <LatitudeDegrees>42.7925123088061809539794921875</LatitudeDegrees>
              <LongitudeDegrees>-0.26913075707852840423583984375</LongitudeDegrees>
            </Position>
            <AltitudeMeters>2827</AltitudeMeters>
            <DistanceMeters>NAN</DistanceMeters>
          </Trackpoint>
          <Trackpoint>
            <Time>2022-08-23T08:07:35.000Z</Time>
            <Position>
              <LatitudeDegrees>42.7925042621791362762451171875</LatitudeDegrees>
              <LongitudeDegrees>-0.26913813315331935882568359375</LongitudeDegrees>
            </Position>
            <AltitudeMeters>2826.800048828125</AltitudeMeters>
            <DistanceMeters>NAN</DistanceMeters>
          </Trackpoint>
          <Trackpoint>
            <Time>2022-08-23T08:07:44.000Z</Time>
            <Position>
              <LatitudeDegrees>42.79249546118080615997314453125</LatitudeDegrees>
              <LongitudeDegrees>-0.26920116506516933441162109375</LongitudeDegrees>
            </Position>
            <AltitudeMeters>2828.39990234375</AltitudeMeters>
            <DistanceMeters>NAN</DistanceMeters>
          </Trackpoint>
          <Trackpoint>
            <Time>2022-08-23T08:07:52.000Z</Time>
            <Position>
              <LatitudeDegrees>42.7925481833517551422119140625</LatitudeDegrees>
              <LongitudeDegrees>-0.26924290694296360015869140625</LongitudeDegrees>
            </Position>
            <AltitudeMeters>2830.800048828125</AltitudeMeters>
            <DistanceMeters>NAN</DistanceMeters>
          </Trackpoint>
          <Trackpoint>
            <Time>2022-08-23T08:07:55.000Z</Time>
            <Position>
              <LatitudeDegrees>42.79257542453706264495849609375</LatitudeDegrees>
              <LongitudeDegrees>-0.26924173347651958465576171875</LongitudeDegrees>
            </Position>
            <AltitudeMeters>2831.800048828125</AltitudeMeters>
            <DistanceMeters>NAN</DistanceMeters>
          </Trackpoint>
          <Trackpoint>
            <Time>2022-08-23T08:07:57.000Z</Time>
            <Position>
              <LatitudeDegrees>42.79258958995342254638671875</LatitudeDegrees>
              <LongitudeDegrees>-0.2692332677543163299560546875</LongitudeDegrees>
            </Position>
            <AltitudeMeters>2831.60009765625</AltitudeMeters>
            <DistanceMeters>NAN</DistanceMeters>
          </Trackpoint>
          <Trackpoint>
            <Time>2022-08-23T08:08:00.000Z</Time>
            <Position>
              <LatitudeDegrees>42.79260241426527500152587890625</LatitudeDegrees>
              <LongitudeDegrees>-0.26922279037535190582275390625</LongitudeDegrees>
            </Position>
            <AltitudeMeters>2831.199951171875</AltitudeMeters>
            <DistanceMeters>NAN</DistanceMeters>
          </Trackpoint>
          <Trackpoint>
            <Time>2022-08-23T08:08:35.000Z</Time>
            <Position>
              <LatitudeDegrees>42.7926387079060077667236328125</LatitudeDegrees>
              <LongitudeDegrees>-0.26947273872792720794677734375</LongitudeDegrees>
            </Position>
            <AltitudeMeters>2836.39990234375</AltitudeMeters>
            <DistanceMeters>NAN</DistanceMeters>
          </Trackpoint>
          <Trackpoint>
            <Time>2022-08-23T08:08:59.000Z</Time>
            <Position>
              <LatitudeDegrees>42.79263921082019805908203125</LatitudeDegrees>
              <LongitudeDegrees>-0.26964104734361171722412109375</LongitudeDegrees>
            </Position>
            <AltitudeMeters>2839.800048828125</AltitudeMeters>
            <DistanceMeters>NAN</DistanceMeters>
          </Trackpoint>
          <Trackpoint>
            <Time>2022-08-23T08:09:00.000Z</Time>
            <Position>
              <LatitudeDegrees>42.7926427312195301055908203125</LatitudeDegrees>
              <LongitudeDegrees>-0.2696503512561321258544921875</LongitudeDegrees>
            </Position>
            <AltitudeMeters>2839.800048828125</AltitudeMeters>
            <DistanceMeters>NAN</DistanceMeters>
          </Trackpoint>
          <Trackpoint>
            <Time>2022-08-23T08:09:02.000Z</Time>
            <Position>
              <LatitudeDegrees>42.7926454134285449981689453125</LatitudeDegrees>
              <LongitudeDegrees>-0.26965881697833538055419921875</LongitudeDegrees>
            </Position>
            <AltitudeMeters>2840</AltitudeMeters>
            <DistanceMeters>NAN</DistanceMeters>
          </Trackpoint>
          <Trackpoint>
            <Time>2022-08-23T08:09:03.000Z</Time>
            <Position>
              <LatitudeDegrees>42.79264465905725955963134765625</LatitudeDegrees>
              <LongitudeDegrees>-0.269660241901874542236328125</LongitudeDegrees>
            </Position>
            <AltitudeMeters>2840</AltitudeMeters>
            <DistanceMeters>NAN</DistanceMeters>
          </Trackpoint>
          <Trackpoint>
            <Time>2022-08-23T08:09:06.000Z</Time>
            <Position>
              <LatitudeDegrees>42.7926541306078433990478515625</LatitudeDegrees>
              <LongitudeDegrees>-0.26967541314661502838134765625</LongitudeDegrees>
            </Position>
            <AltitudeMeters>2840.39990234375</AltitudeMeters>
            <DistanceMeters>NAN</DistanceMeters>
          </Trackpoint>
          <Trackpoint>
            <Time>2022-08-23T08:09:11.000Z</Time>
            <Position>
              <LatitudeDegrees>42.792656309902667999267578125</LatitudeDegrees>
              <LongitudeDegrees>-0.26972453109920024871826171875</LongitudeDegrees>
            </Position>
            <AltitudeMeters>2842</AltitudeMeters>
            <DistanceMeters>NAN</DistanceMeters>
          </Trackpoint>
          <Trackpoint>
            <Time>2022-08-23T08:09:20.000Z</Time>
            <Position>
              <LatitudeDegrees>42.79265002347528934478759765625</LatitudeDegrees>
              <LongitudeDegrees>-0.2698039077222347259521484375</LongitudeDegrees>
            </Position>
            <AltitudeMeters>2844.199951171875</AltitudeMeters>
            <DistanceMeters>NAN</DistanceMeters>
          </Trackpoint>
          <Trackpoint>
            <Time>2022-08-23T08:09:27.000Z</Time>
            <Position>
              <LatitudeDegrees>42.79265253804624080657958984375</LatitudeDegrees>
              <LongitudeDegrees>-0.26982964016497135162353515625</LongitudeDegrees>
            </Position>
            <AltitudeMeters>2845</AltitudeMeters>
            <DistanceMeters>NAN</DistanceMeters>
          </Trackpoint>
          <Trackpoint>
            <Time>2022-08-23T08:09:30.000Z</Time>
            <Position>
              <LatitudeDegrees>42.79265454970300197601318359375</LatitudeDegrees>
              <LongitudeDegrees>-0.269850678741931915283203125</LongitudeDegrees>
            </Position>
            <AltitudeMeters>2845.60009765625</AltitudeMeters>
            <DistanceMeters>NAN</DistanceMeters>
          </Trackpoint>
          <Trackpoint>
            <Time>2022-08-23T08:09:37.000Z</Time>
            <Position>
              <LatitudeDegrees>42.79265941120684146881103515625</LatitudeDegrees>
              <LongitudeDegrees>-0.269899629056453704833984375</LongitudeDegrees>
            </Position>
            <AltitudeMeters>2846.800048828125</AltitudeMeters>
            <DistanceMeters>NAN</DistanceMeters>
          </Trackpoint>
          <Trackpoint>
            <Time>2022-08-23T08:09:43.000Z</Time>
            <Position>
              <LatitudeDegrees>42.7926548011600971221923828125</LatitudeDegrees>
              <LongitudeDegrees>-0.26996056549251079559326171875</LongitudeDegrees>
            </Position>
            <AltitudeMeters>2848.199951171875</AltitudeMeters>
            <DistanceMeters>NAN</DistanceMeters>
          </Trackpoint>
          <Trackpoint>
            <Time>2022-08-23T08:09:44.000Z</Time>
            <Position>
              <LatitudeDegrees>42.7926541306078433990478515625</LatitudeDegrees>
              <LongitudeDegrees>-0.26997129432857036590576171875</LongitudeDegrees>
            </Position>
            <AltitudeMeters>2848.39990234375</AltitudeMeters>
            <DistanceMeters>NAN</DistanceMeters>
          </Trackpoint>
          <Trackpoint>
            <Time>2022-08-23T08:09:45.000Z</Time>
            <Position>
              <LatitudeDegrees>42.79265354387462139129638671875</LatitudeDegrees>
              <LongitudeDegrees>-0.2699799276888370513916015625</LongitudeDegrees>
            </Position>
            <AltitudeMeters>2848.60009765625</AltitudeMeters>
            <DistanceMeters>NAN</DistanceMeters>
          </Trackpoint>
          <Trackpoint>
            <Time>2022-08-23T08:09:46.000Z</Time>
            <Position>
              <LatitudeDegrees>42.7926531247794628143310546875</LatitudeDegrees>
              <LongitudeDegrees>-0.2699899859726428985595703125</LongitudeDegrees>
            </Position>
            <AltitudeMeters>2849</AltitudeMeters>
            <DistanceMeters>NAN</DistanceMeters>
          </Trackpoint>
          <Trackpoint>
            <Time>2022-08-23T08:09:47.000Z</Time>
            <Position>
              <LatitudeDegrees>42.792651951313018798828125</LatitudeDegrees>
              <LongitudeDegrees>-0.2699966914951801300048828125</LongitudeDegrees>
            </Position>
            <AltitudeMeters>2849</AltitudeMeters>
            <DistanceMeters>NAN</DistanceMeters>
          </Trackpoint>
          <Trackpoint>
            <Time>2022-08-23T08:09:48.000Z</Time>
            <Position>
              <LatitudeDegrees>42.79265471734106540679931640625</LatitudeDegrees>
              <LongitudeDegrees>-0.27000415138900279998779296875</LongitudeDegrees>
            </Position>
            <AltitudeMeters>2849.199951171875</AltitudeMeters>
            <DistanceMeters>NAN</DistanceMeters>
          </Trackpoint>
          <Trackpoint>
            <Time>2022-08-23T08:09:49.000Z</Time>
            <Position>
              <LatitudeDegrees>42.79265807010233402252197265625</LatitudeDegrees>
              <LongitudeDegrees>-0.27000750415027141571044921875</LongitudeDegrees>
            </Position>
            <AltitudeMeters>2849.199951171875</AltitudeMeters>
            <DistanceMeters>NAN</DistanceMeters>
          </Trackpoint>
          <Trackpoint>
            <Time>2022-08-23T08:10:03.000Z</Time>
            <Position>
              <LatitudeDegrees>42.79266779311001300811767578125</LatitudeDegrees>
              <LongitudeDegrees>-0.27008847333490848541259765625</LongitudeDegrees>
            </Position>
            <AltitudeMeters>2851</AltitudeMeters>
            <DistanceMeters>NAN</DistanceMeters>
          </Trackpoint>
          <Trackpoint>
            <Time>2022-08-23T08:10:09.000Z</Time>
            <Position>
              <LatitudeDegrees>42.79267634265124797821044921875</LatitudeDegrees>
              <LongitudeDegrees>-0.27012367732822895050048828125</LongitudeDegrees>
            </Position>
            <AltitudeMeters>2851.800048828125</AltitudeMeters>
            <DistanceMeters>NAN</DistanceMeters>
          </Trackpoint>
          <Trackpoint>
            <Time>2022-08-23T08:10:14.000Z</Time>
            <Position>
              <LatitudeDegrees>42.79268254525959491729736328125</LatitudeDegrees>
              <LongitudeDegrees>-0.270161144435405731201171875</LongitudeDegrees>
            </Position>
            <AltitudeMeters>2853</AltitudeMeters>
            <DistanceMeters>NAN</DistanceMeters>
          </Trackpoint>
          <Trackpoint>
            <Time>2022-08-23T08:10:16.000Z</Time>
            <Position>
              <LatitudeDegrees>42.7926940284669399261474609375</LatitudeDegrees>
              <LongitudeDegrees>-0.270165838301181793212890625</LongitudeDegrees>
            </Position>
            <AltitudeMeters>2853.199951171875</AltitudeMeters>
            <DistanceMeters>NAN</DistanceMeters>
          </Trackpoint>
          <Trackpoint>
            <Time>2022-08-23T08:10:59.000Z</Time>
            <Position>
              <LatitudeDegrees>42.79277608729898929595947265625</LatitudeDegrees>
              <LongitudeDegrees>-0.2703561075031757354736328125</LongitudeDegrees>
            </Position>
            <AltitudeMeters>2854.39990234375</AltitudeMeters>
            <DistanceMeters>NAN</DistanceMeters>
          </Trackpoint>
          <Trackpoint>
            <Time>2022-08-23T08:11:38.000Z</Time>
            <Position>
              <LatitudeDegrees>42.79293852858245372772216796875</LatitudeDegrees>
              <LongitudeDegrees>-0.27042794041335582733154296875</LongitudeDegrees>
            </Position>
            <AltitudeMeters>2849.199951171875</AltitudeMeters>
            <DistanceMeters>NAN</DistanceMeters>
          </Trackpoint>
          <Trackpoint>
            <Time>2022-08-23T08:12:03.000Z</Time>
            <Position>
              <LatitudeDegrees>42.79310499317944049835205078125</LatitudeDegrees>
              <LongitudeDegrees>-0.2705032937228679656982421875</LongitudeDegrees>
            </Position>
            <AltitudeMeters>2850.60009765625</AltitudeMeters>
            <DistanceMeters>NAN</DistanceMeters>
          </Trackpoint>
          <Trackpoint>
            <Time>2022-08-23T08:12:41.000Z</Time>
            <Position>
              <LatitudeDegrees>42.79310281388461589813232421875</LatitudeDegrees>
              <LongitudeDegrees>-0.27048862539231777191162109375</LongitudeDegrees>
            </Position>
            <AltitudeMeters>2851</AltitudeMeters>
            <DistanceMeters>NAN</DistanceMeters>
          </Trackpoint>
          <Trackpoint>
            <Time>2022-08-23T08:13:04.000Z</Time>
            <Position>
              <LatitudeDegrees>42.79310281388461589813232421875</LatitudeDegrees>
              <LongitudeDegrees>-0.27044269256293773651123046875</LongitudeDegrees>
            </Position>
            <AltitudeMeters>2849.60009765625</AltitudeMeters>
            <DistanceMeters>NAN</DistanceMeters>
          </Trackpoint>
          <Trackpoint>
            <Time>2022-08-23T08:13:05.000Z</Time>
            <Position>
              <LatitudeDegrees>42.793103568255901336669921875</LatitudeDegrees>
              <LongitudeDegrees>-0.2704431116580963134765625</LongitudeDegrees>
            </Position>
            <AltitudeMeters>2849.60009765625</AltitudeMeters>
            <DistanceMeters>NAN</DistanceMeters>
          </Trackpoint>
          <Trackpoint>
            <Time>2022-08-23T08:13:06.000Z</Time>
            <Position>
              <LatitudeDegrees>42.7931057475507259368896484375</LatitudeDegrees>
              <LongitudeDegrees>-0.2704432792961597442626953125</LongitudeDegrees>
            </Position>
            <AltitudeMeters>2849.60009765625</AltitudeMeters>
            <DistanceMeters>NAN</DistanceMeters>
          </Trackpoint>
          <Trackpoint>
            <Time>2022-08-23T08:13:19.000Z</Time>
            <Position>
              <LatitudeDegrees>42.79311739839613437652587890625</LatitudeDegrees>
              <LongitudeDegrees>-0.27045576833188533782958984375</LongitudeDegrees>
            </Position>
            <AltitudeMeters>2850</AltitudeMeters>
            <DistanceMeters>NAN</DistanceMeters>
          </Trackpoint>
          <Trackpoint>
            <Time>2022-08-23T08:13:39.000Z</Time>
            <Position>
              <LatitudeDegrees>42.79312695376574993133544921875</LatitudeDegrees>
              <LongitudeDegrees>-0.2704727835953235626220703125</LongitudeDegrees>
            </Position>
            <AltitudeMeters>2850.39990234375</AltitudeMeters>
            <DistanceMeters>NAN</DistanceMeters>
          </Trackpoint>
          <Trackpoint>
            <Time>2022-08-23T08:13:49.000Z</Time>
            <Position>
              <LatitudeDegrees>42.7931463159620761871337890625</LatitudeDegrees>
              <LongitudeDegrees>-0.27050815522670745849609375</LongitudeDegrees>
            </Position>
            <AltitudeMeters>2850.199951171875</AltitudeMeters>
            <DistanceMeters>NAN</DistanceMeters>
          </Trackpoint>
          <Trackpoint>
            <Time>2022-08-23T08:13:52.000Z</Time>
            <Position>
              <LatitudeDegrees>42.79314254410564899444580078125</LatitudeDegrees>
              <LongitudeDegrees>-0.27051125653088092803955078125</LongitudeDegrees>
            </Position>
            <AltitudeMeters>2850.60009765625</AltitudeMeters>
            <DistanceMeters>NAN</DistanceMeters>
          </Trackpoint>
          <Trackpoint>
            <Time>2022-08-23T08:13:54.000Z</Time>
            <Position>
              <LatitudeDegrees>42.79314070008695125579833984375</LatitudeDegrees>
              <LongitudeDegrees>-0.270516537129878997802734375</LongitudeDegrees>
            </Position>
            <AltitudeMeters>2850.800048828125</AltitudeMeters>
            <DistanceMeters>NAN</DistanceMeters>
          </Trackpoint>
          <Trackpoint>
            <Time>2022-08-23T08:13:55.000Z</Time>
            <Position>
              <LatitudeDegrees>42.7931386046111583709716796875</LatitudeDegrees>
              <LongitudeDegrees>-0.27051226235926151275634765625</LongitudeDegrees>
            </Position>
            <AltitudeMeters>2851</AltitudeMeters>
            <DistanceMeters>NAN</DistanceMeters>
          </Trackpoint>
          <Trackpoint>
            <Time>2022-08-23T08:13:56.000Z</Time>
            <Position>
              <LatitudeDegrees>42.79313231818377971649169921875</LatitudeDegrees>
              <LongitudeDegrees>-0.27049784548580646514892578125</LongitudeDegrees>
            </Position>
            <AltitudeMeters>2850.800048828125</AltitudeMeters>
            <DistanceMeters>NAN</DistanceMeters>
          </Trackpoint>
          <Trackpoint>
            <Time>2022-08-23T08:14:06.000Z</Time>
            <Position>
              <LatitudeDegrees>42.79311186634004116058349609375</LatitudeDegrees>
              <LongitudeDegrees>-0.27049717493355274200439453125</LongitudeDegrees>
            </Position>
            <AltitudeMeters>2850.800048828125</AltitudeMeters>
            <DistanceMeters>NAN</DistanceMeters>
          </Trackpoint>
          <Trackpoint>
            <Time>2022-08-23T08:14:16.000Z</Time>
            <Position>
              <LatitudeDegrees>42.79311136342585086822509765625</LatitudeDegrees>
              <LongitudeDegrees>-0.27050547301769256591796875</LongitudeDegrees>
            </Position>
            <AltitudeMeters>2850.60009765625</AltitudeMeters>
            <DistanceMeters>NAN</DistanceMeters>
          </Trackpoint>
          <Trackpoint>
            <Time>2022-08-23T08:14:24.000Z</Time>
            <Position>
              <LatitudeDegrees>42.7931117825210094451904296875</LatitudeDegrees>
              <LongitudeDegrees>-0.27051125653088092803955078125</LongitudeDegrees>
            </Position>
            <AltitudeMeters>2850.39990234375</AltitudeMeters>
            <DistanceMeters>NAN</DistanceMeters>
          </Trackpoint>
          <Trackpoint>
            <Time>2022-08-23T08:14:35.000Z</Time>
            <Position>
              <LatitudeDegrees>42.79311840422451496124267578125</LatitudeDegrees>
              <LongitudeDegrees>-0.27050924487411975860595703125</LongitudeDegrees>
            </Position>
            <AltitudeMeters>2850.39990234375</AltitudeMeters>
            <DistanceMeters>NAN</DistanceMeters>
          </Trackpoint>
          <Trackpoint>
            <Time>2022-08-23T08:14:45.000Z</Time>
            <Position>
              <LatitudeDegrees>42.79311656020581722259521484375</LatitudeDegrees>
              <LongitudeDegrees>-0.27049600146710872650146484375</LongitudeDegrees>
            </Position>
            <AltitudeMeters>2850.800048828125</AltitudeMeters>
            <DistanceMeters>NAN</DistanceMeters>
          </Trackpoint>
          <Trackpoint>
            <Time>2022-08-23T08:17:04.000Z</Time>
            <Position>
              <LatitudeDegrees>42.7930909954011440277099609375</LatitudeDegrees>
              <LongitudeDegrees>-0.2705019526183605194091796875</LongitudeDegrees>
            </Position>
            <AltitudeMeters>2850.60009765625</AltitudeMeters>
            <DistanceMeters>NAN</DistanceMeters>
          </Trackpoint>
          <Trackpoint>
            <Time>2022-08-23T08:17:05.000Z</Time>
            <Position>
              <LatitudeDegrees>42.793085463345050811767578125</LatitudeDegrees>
              <LongitudeDegrees>-0.27049650438129901885986328125</LongitudeDegrees>
            </Position>
            <AltitudeMeters>2850.800048828125</AltitudeMeters>
            <DistanceMeters>NAN</DistanceMeters>
          </Trackpoint>
          <Trackpoint>
            <Time>2022-08-23T08:17:07.000Z</Time>
            <Position>
              <LatitudeDegrees>42.79307180084288120269775390625</LatitudeDegrees>
              <LongitudeDegrees>-0.27049398981034755706787109375</LongitudeDegrees>
            </Position>
            <AltitudeMeters>2851</AltitudeMeters>
            <DistanceMeters>NAN</DistanceMeters>
          </Trackpoint>
          <Trackpoint>
            <Time>2022-08-23T08:17:09.000Z</Time>
            <Position>
              <LatitudeDegrees>42.79306123964488506317138671875</LatitudeDegrees>
              <LongitudeDegrees>-0.27049734257161617279052734375</LongitudeDegrees>
            </Position>
            <AltitudeMeters>2850.800048828125</AltitudeMeters>
            <DistanceMeters>NAN</DistanceMeters>
          </Trackpoint>
          <Trackpoint>
            <Time>2022-08-23T08:17:10.000Z</Time>
            <Position>
              <LatitudeDegrees>42.7930551208555698394775390625</LatitudeDegrees>
              <LongitudeDegrees>-0.2704925648868083953857421875</LongitudeDegrees>
            </Position>
            <AltitudeMeters>2851</AltitudeMeters>
            <DistanceMeters>NAN</DistanceMeters>
          </Trackpoint>
          <Trackpoint>
            <Time>2022-08-23T08:17:14.000Z</Time>
            <Position>
              <LatitudeDegrees>42.7930296398699283599853515625</LatitudeDegrees>
              <LongitudeDegrees>-0.27047999203205108642578125</LongitudeDegrees>
            </Position>
            <AltitudeMeters>2850.60009765625</AltitudeMeters>
            <DistanceMeters>NAN</DistanceMeters>
          </Trackpoint>
          <Trackpoint>
            <Time>2022-08-23T08:17:20.000Z</Time>
            <Position>
              <LatitudeDegrees>42.79299368150532245635986328125</LatitudeDegrees>
              <LongitudeDegrees>-0.27047571726143360137939453125</LongitudeDegrees>
            </Position>
            <AltitudeMeters>2850.60009765625</AltitudeMeters>
            <DistanceMeters>NAN</DistanceMeters>
          </Trackpoint>
          <Trackpoint>
            <Time>2022-08-23T08:17:45.000Z</Time>
            <Position>
              <LatitudeDegrees>42.7928115427494049072265625</LatitudeDegrees>
              <LongitudeDegrees>-0.2704377472400665283203125</LongitudeDegrees>
            </Position>
            <AltitudeMeters>2852.39990234375</AltitudeMeters>
            <DistanceMeters>NAN</DistanceMeters>
          </Trackpoint>
          <Trackpoint>
            <Time>2022-08-23T08:18:17.000Z</Time>
            <Position>
              <LatitudeDegrees>42.7927423082292079925537109375</LatitudeDegrees>
              <LongitudeDegrees>-0.2702572010457515716552734375</LongitudeDegrees>
            </Position>
            <AltitudeMeters>2855.199951171875</AltitudeMeters>
            <DistanceMeters>NAN</DistanceMeters>
          </Trackpoint>
          <Trackpoint>
            <Time>2022-08-23T08:18:30.000Z</Time>
            <Position>
              <LatitudeDegrees>42.792701907455921173095703125</LatitudeDegrees>
              <LongitudeDegrees>-0.2702196501195430755615234375</LongitudeDegrees>
            </Position>
            <AltitudeMeters>2854.800048828125</AltitudeMeters>
            <DistanceMeters>NAN</DistanceMeters>
          </Trackpoint>
          <Trackpoint>
            <Time>2022-08-23T08:18:41.000Z</Time>
            <Position>
              <LatitudeDegrees>42.79269310645759105682373046875</LatitudeDegrees>
              <LongitudeDegrees>-0.27011345140635967254638671875</LongitudeDegrees>
            </Position>
            <AltitudeMeters>2851.60009765625</AltitudeMeters>
            <DistanceMeters>NAN</DistanceMeters>
          </Trackpoint>
          <Trackpoint>
            <Time>2022-08-23T08:18:43.000Z</Time>
            <Position>
              <LatitudeDegrees>42.792687825858592987060546875</LatitudeDegrees>
              <LongitudeDegrees>-0.27009434066712856292724609375</LongitudeDegrees>
            </Position>
            <AltitudeMeters>2851</AltitudeMeters>
            <DistanceMeters>NAN</DistanceMeters>
          </Trackpoint>
          <Trackpoint>
            <Time>2022-08-23T08:18:47.000Z</Time>
            <Position>
              <LatitudeDegrees>42.792684137821197509765625</LatitudeDegrees>
              <LongitudeDegrees>-0.2700488269329071044921875</LongitudeDegrees>
            </Position>
            <AltitudeMeters>2850</AltitudeMeters>
            <DistanceMeters>NAN</DistanceMeters>
          </Trackpoint>
          <Trackpoint>
            <Time>2022-08-23T08:18:48.000Z</Time>
            <Position>
              <LatitudeDegrees>42.792684137821197509765625</LatitudeDegrees>
              <LongitudeDegrees>-0.2700380980968475341796875</LongitudeDegrees>
            </Position>
            <AltitudeMeters>2849.800048828125</AltitudeMeters>
            <DistanceMeters>NAN</DistanceMeters>
          </Trackpoint>
          <Trackpoint>
            <Time>2022-08-23T08:18:52.000Z</Time>
            <Position>
              <LatitudeDegrees>42.792680449783802032470703125</LatitudeDegrees>
              <LongitudeDegrees>-0.26999526657164096832275390625</LongitudeDegrees>
            </Position>
            <AltitudeMeters>2849</AltitudeMeters>
            <DistanceMeters>NAN</DistanceMeters>
          </Trackpoint>
          <Trackpoint>
            <Time>2022-08-23T08:19:14.000Z</Time>
            <Position>
              <LatitudeDegrees>42.79267248697578907012939453125</LatitudeDegrees>
              <LongitudeDegrees>-0.26976627297699451446533203125</LongitudeDegrees>
            </Position>
            <AltitudeMeters>2843.199951171875</AltitudeMeters>
            <DistanceMeters>NAN</DistanceMeters>
          </Trackpoint>
          <Trackpoint>
            <Time>2022-08-23T08:19:41.000Z</Time>
            <Position>
              <LatitudeDegrees>42.7926725707948207855224609375</LatitudeDegrees>
              <LongitudeDegrees>-0.26952051557600498199462890625</LongitudeDegrees>
            </Position>
            <AltitudeMeters>2837.60009765625</AltitudeMeters>
            <DistanceMeters>NAN</DistanceMeters>
          </Trackpoint>
          <Trackpoint>
            <Time>2022-08-23T08:20:06.000Z</Time>
            <Position>
              <LatitudeDegrees>42.792646251618862152099609375</LatitudeDegrees>
              <LongitudeDegrees>-0.2692771889269351959228515625</LongitudeDegrees>
            </Position>
            <AltitudeMeters>2830.800048828125</AltitudeMeters>
            <DistanceMeters>NAN</DistanceMeters>
          </Trackpoint>
          <Trackpoint>
            <Time>2022-08-23T08:20:09.000Z</Time>
            <Position>
              <LatitudeDegrees>42.79264583252370357513427734375</LatitudeDegrees>
              <LongitudeDegrees>-0.26924408040940761566162109375</LongitudeDegrees>
            </Position>
            <AltitudeMeters>2830.39990234375</AltitudeMeters>
            <DistanceMeters>NAN</DistanceMeters>
          </Trackpoint>
          <Trackpoint>
            <Time>2022-08-23T08:20:10.000Z</Time>
            <Position>
              <LatitudeDegrees>42.7926444076001644134521484375</LatitudeDegrees>
              <LongitudeDegrees>-0.2692334353923797607421875</LongitudeDegrees>
            </Position>
            <AltitudeMeters>2830.199951171875</AltitudeMeters>
            <DistanceMeters>NAN</DistanceMeters>
          </Trackpoint>
          <Trackpoint>
            <Time>2022-08-23T08:20:11.000Z</Time>
            <Position>
              <LatitudeDegrees>42.79264323413372039794921875</LatitudeDegrees>
              <LongitudeDegrees>-0.269223712384700775146484375</LongitudeDegrees>
            </Position>
            <AltitudeMeters>2830.199951171875</AltitudeMeters>
            <DistanceMeters>NAN</DistanceMeters>
          </Trackpoint>
          <Trackpoint>
            <Time>2022-08-23T08:20:12.000Z</Time>
            <Position>
              <LatitudeDegrees>42.79264398850500583648681640625</LatitudeDegrees>
              <LongitudeDegrees>-0.269212312996387481689453125</LongitudeDegrees>
            </Position>
            <AltitudeMeters>2830</AltitudeMeters>
            <DistanceMeters>NAN</DistanceMeters>
          </Trackpoint>
          <Trackpoint>
            <Time>2022-08-23T08:20:21.000Z</Time>
            <Position>
              <LatitudeDegrees>42.79263745062053203582763671875</LatitudeDegrees>
              <LongitudeDegrees>-0.26911198161542415618896484375</LongitudeDegrees>
            </Position>
            <AltitudeMeters>2828.800048828125</AltitudeMeters>
            <DistanceMeters>NAN</DistanceMeters>
          </Trackpoint>
          <Trackpoint>
            <Time>2022-08-23T08:20:25.000Z</Time>
            <Position>
              <LatitudeDegrees>42.79263376258313655853271484375</LatitudeDegrees>
              <LongitudeDegrees>-0.2690669707953929901123046875</LongitudeDegrees>
            </Position>
            <AltitudeMeters>2825.800048828125</AltitudeMeters>
            <DistanceMeters>NAN</DistanceMeters>
          </Trackpoint>
          <Trackpoint>
            <Time>2022-08-23T08:20:32.000Z</Time>
            <Position>
              <LatitudeDegrees>42.79261196963489055633544921875</LatitudeDegrees>
              <LongitudeDegrees>-0.26900318451225757598876953125</LongitudeDegrees>
            </Position>
            <AltitudeMeters>2824.39990234375</AltitudeMeters>
            <DistanceMeters>NAN</DistanceMeters>
          </Trackpoint>
          <Trackpoint>
            <Time>2022-08-23T08:20:33.000Z</Time>
            <Position>
              <LatitudeDegrees>42.7926102094352245330810546875</LatitudeDegrees>
              <LongitudeDegrees>-0.268995724618434906005859375</LongitudeDegrees>
            </Position>
            <AltitudeMeters>2824.199951171875</AltitudeMeters>
            <DistanceMeters>NAN</DistanceMeters>
          </Trackpoint>
          <Trackpoint>
            <Time>2022-08-23T08:20:34.000Z</Time>
            <Position>
              <LatitudeDegrees>42.79260727576911449432373046875</LatitudeDegrees>
              <LongitudeDegrees>-0.26898466050624847412109375</LongitudeDegrees>
            </Position>
            <AltitudeMeters>2824</AltitudeMeters>
            <DistanceMeters>NAN</DistanceMeters>
          </Trackpoint>
          <Trackpoint>
            <Time>2022-08-23T08:20:35.000Z</Time>
            <Position>
              <LatitudeDegrees>42.79260610230267047882080078125</LatitudeDegrees>
              <LongitudeDegrees>-0.2689732611179351806640625</LongitudeDegrees>
            </Position>
            <AltitudeMeters>2823.60009765625</AltitudeMeters>
            <DistanceMeters>NAN</DistanceMeters>
          </Trackpoint>
          <Trackpoint>
            <Time>2022-08-23T08:20:37.000Z</Time>
            <Position>
              <LatitudeDegrees>42.79260970652103424072265625</LatitudeDegrees>
              <LongitudeDegrees>-0.26894920505583286285400390625</LongitudeDegrees>
            </Position>
            <AltitudeMeters>2822.60009765625</AltitudeMeters>
            <DistanceMeters>NAN</DistanceMeters>
          </Trackpoint>
          <Trackpoint>
            <Time>2022-08-23T08:20:39.000Z</Time>
            <Position>
              <LatitudeDegrees>42.7926155738532543182373046875</LatitudeDegrees>
              <LongitudeDegrees>-0.26892707683145999908447265625</LongitudeDegrees>
            </Position>
            <AltitudeMeters>2821.39990234375</AltitudeMeters>
            <DistanceMeters>NAN</DistanceMeters>
          </Trackpoint>
          <Trackpoint>
            <Time>2022-08-23T08:20:40.000Z</Time>
            <Position>
              <LatitudeDegrees>42.792616747319698333740234375</LatitudeDegrees>
              <LongitudeDegrees>-0.2689150907099246978759765625</LongitudeDegrees>
            </Position>
            <AltitudeMeters>2820.800048828125</AltitudeMeters>
            <DistanceMeters>NAN</DistanceMeters>
          </Trackpoint>
          <Trackpoint>
            <Time>2022-08-23T08:20:41.000Z</Time>
            <Position>
              <LatitudeDegrees>42.79261800460517406463623046875</LatitudeDegrees>
              <LongitudeDegrees>-0.2689010091125965118408203125</LongitudeDegrees>
            </Position>
            <AltitudeMeters>2820.199951171875</AltitudeMeters>
            <DistanceMeters>NAN</DistanceMeters>
          </Trackpoint>
          <Trackpoint>
            <Time>2022-08-23T08:20:42.000Z</Time>
            <Position>
              <LatitudeDegrees>42.79261616058647632598876953125</LatitudeDegrees>
              <LongitudeDegrees>-0.26888768188655376434326171875</LongitudeDegrees>
            </Position>
            <AltitudeMeters>2819.800048828125</AltitudeMeters>
            <DistanceMeters>NAN</DistanceMeters>
          </Trackpoint>
          <Trackpoint>
            <Time>2022-08-23T08:20:45.000Z</Time>
            <Position>
              <LatitudeDegrees>42.7925994805991649627685546875</LatitudeDegrees>
              <LongitudeDegrees>-0.26886622421443462371826171875</LongitudeDegrees>
            </Position>
            <AltitudeMeters>2820.199951171875</AltitudeMeters>
            <DistanceMeters>NAN</DistanceMeters>
          </Trackpoint>
          <Trackpoint>
            <Time>2022-08-23T08:20:47.000Z</Time>
            <Position>
              <LatitudeDegrees>42.79259285889565944671630859375</LatitudeDegrees>
              <LongitudeDegrees>-0.26884878985583782196044921875</LongitudeDegrees>
            </Position>
            <AltitudeMeters>2820</AltitudeMeters>
            <DistanceMeters>NAN</DistanceMeters>
          </Trackpoint>
          <Trackpoint>
            <Time>2022-08-23T08:20:49.000Z</Time>
            <Position>
              <LatitudeDegrees>42.792591266334056854248046875</LatitudeDegrees>
              <LongitudeDegrees>-0.26883236132562160491943359375</LongitudeDegrees>
            </Position>
            <AltitudeMeters>2819.60009765625</AltitudeMeters>
            <DistanceMeters>NAN</DistanceMeters>
          </Trackpoint>
          <Trackpoint>
            <Time>2022-08-23T08:20:56.000Z</Time>
            <Position>
              <LatitudeDegrees>42.792585231363773345947265625</LatitudeDegrees>
              <LongitudeDegrees>-0.26883152313530445098876953125</LongitudeDegrees>
            </Position>
            <AltitudeMeters>2820</AltitudeMeters>
            <DistanceMeters>NAN</DistanceMeters>
          </Trackpoint>
          <Trackpoint>
            <Time>2022-08-23T08:20:57.000Z</Time>
            <Position>
              <LatitudeDegrees>42.7925850637257099151611328125</LatitudeDegrees>
              <LongitudeDegrees>-0.268832780420780181884765625</LongitudeDegrees>
            </Position>
            <AltitudeMeters>2820</AltitudeMeters>
            <DistanceMeters>NAN</DistanceMeters>
          </Trackpoint>
          <Trackpoint>
            <Time>2022-08-23T08:20:58.000Z</Time>
            <Position>
              <LatitudeDegrees>42.7925850637257099151611328125</LatitudeDegrees>
              <LongitudeDegrees>-0.26883470825850963592529296875</LongitudeDegrees>
            </Position>
            <AltitudeMeters>2820</AltitudeMeters>
            <DistanceMeters>NAN</DistanceMeters>
          </Trackpoint>
          <Trackpoint>
            <Time>2022-08-23T08:21:00.000Z</Time>
            <Position>
              <LatitudeDegrees>42.79258497990667819976806640625</LatitudeDegrees>
              <LongitudeDegrees>-0.2688349597156047821044921875</LongitudeDegrees>
            </Position>
            <AltitudeMeters>2820.199951171875</AltitudeMeters>
            <DistanceMeters>NAN</DistanceMeters>
          </Trackpoint>
          <Trackpoint>
            <Time>2022-08-23T08:21:06.000Z</Time>
            <Position>
              <LatitudeDegrees>42.7925847284495830535888671875</LatitudeDegrees>
              <LongitudeDegrees>-0.2688324451446533203125</LongitudeDegrees>
            </Position>
            <AltitudeMeters>2820</AltitudeMeters>
            <DistanceMeters>NAN</DistanceMeters>
          </Trackpoint>
          <Trackpoint>
            <Time>2022-08-23T08:21:07.000Z</Time>
            <Position>
              <LatitudeDegrees>42.79258464463055133819580078125</LatitudeDegrees>
              <LongitudeDegrees>-0.268831439316272735595703125</LongitudeDegrees>
            </Position>
            <AltitudeMeters>2820</AltitudeMeters>
            <DistanceMeters>NAN</DistanceMeters>
          </Trackpoint>
          <Trackpoint>
            <Time>2022-08-23T08:21:10.000Z</Time>
            <Position>
              <LatitudeDegrees>42.7925862371921539306640625</LatitudeDegrees>
              <LongitudeDegrees>-0.2688309364020824432373046875</LongitudeDegrees>
            </Position>
            <AltitudeMeters>2819.800048828125</AltitudeMeters>
            <DistanceMeters>NAN</DistanceMeters>
          </Trackpoint>
          <Trackpoint>
            <Time>2022-08-23T08:21:21.000Z</Time>
            <Position>
              <LatitudeDegrees>42.792577184736728668212890625</LatitudeDegrees>
              <LongitudeDegrees>-0.2688386477530002593994140625</LongitudeDegrees>
            </Position>
            <AltitudeMeters>2820.199951171875</AltitudeMeters>
            <DistanceMeters>NAN</DistanceMeters>
          </Trackpoint>
          <Trackpoint>
            <Time>2022-08-23T08:21:37.000Z</Time>
            <Position>
              <LatitudeDegrees>42.79257810674607753753662109375</LatitudeDegrees>
              <LongitudeDegrees>-0.26882196776568889617919921875</LongitudeDegrees>
            </Position>
            <AltitudeMeters>2819.60009765625</AltitudeMeters>
            <DistanceMeters>NAN</DistanceMeters>
          </Trackpoint>
          <Trackpoint>
            <Time>2022-08-23T08:21:39.000Z</Time>
            <Position>
              <LatitudeDegrees>42.79258020222187042236328125</LatitudeDegrees>
              <LongitudeDegrees>-0.2688037790358066558837890625</LongitudeDegrees>
            </Position>
            <AltitudeMeters>2818.60009765625</AltitudeMeters>
            <DistanceMeters>NAN</DistanceMeters>
          </Trackpoint>
          <Trackpoint>
            <Time>2022-08-23T08:21:42.000Z</Time>
            <Position>
              <LatitudeDegrees>42.79257559217512607574462890625</LatitudeDegrees>
              <LongitudeDegrees>-0.26876740157604217529296875</LongitudeDegrees>
            </Position>
            <AltitudeMeters>2816</AltitudeMeters>
            <DistanceMeters>NAN</DistanceMeters>
          </Trackpoint>
          <Trackpoint>
            <Time>2022-08-23T08:21:43.000Z</Time>
            <Position>
              <LatitudeDegrees>42.79257659800350666046142578125</LatitudeDegrees>
              <LongitudeDegrees>-0.26875440962612628936767578125</LongitudeDegrees>
            </Position>
            <AltitudeMeters>2815.199951171875</AltitudeMeters>
            <DistanceMeters>NAN</DistanceMeters>
          </Trackpoint>
          <Trackpoint>
            <Time>2022-08-23T08:21:44.000Z</Time>
            <Position>
              <LatitudeDegrees>42.7925716526806354522705078125</LatitudeDegrees>
              <LongitudeDegrees>-0.26874250732362270355224609375</LongitudeDegrees>
            </Position>
            <AltitudeMeters>2814.199951171875</AltitudeMeters>
            <DistanceMeters>NAN</DistanceMeters>
          </Trackpoint>
          <Trackpoint>
            <Time>2022-08-23T08:21:45.000Z</Time>
            <Position>
              <LatitudeDegrees>42.7925612591207027435302734375</LatitudeDegrees>
              <LongitudeDegrees>-0.26873429305851459503173828125</LongitudeDegrees>
            </Position>
            <AltitudeMeters>2813</AltitudeMeters>
            <DistanceMeters>NAN</DistanceMeters>
          </Trackpoint>
          <Trackpoint>
            <Time>2022-08-23T08:21:47.000Z</Time>
            <Position>
              <LatitudeDegrees>42.7925421483814716339111328125</LatitudeDegrees>
              <LongitudeDegrees>-0.26873194612562656402587890625</LongitudeDegrees>
            </Position>
            <AltitudeMeters>2811.800048828125</AltitudeMeters>
            <DistanceMeters>NAN</DistanceMeters>
          </Trackpoint>
          <Trackpoint>
            <Time>2022-08-23T08:21:48.000Z</Time>
            <Position>
              <LatitudeDegrees>42.7925361134111881256103515625</LatitudeDegrees>
              <LongitudeDegrees>-0.26873546652495861053466796875</LongitudeDegrees>
            </Position>
            <AltitudeMeters>2811.60009765625</AltitudeMeters>
            <DistanceMeters>NAN</DistanceMeters>
          </Trackpoint>
          <Trackpoint>
            <Time>2022-08-23T08:21:51.000Z</Time>
            <Position>
              <LatitudeDegrees>42.79252094216644763946533203125</LatitudeDegrees>
              <LongitudeDegrees>-0.268742255866527557373046875</LongitudeDegrees>
            </Position>
            <AltitudeMeters>2811.199951171875</AltitudeMeters>
            <DistanceMeters>NAN</DistanceMeters>
          </Trackpoint>
          <Trackpoint>
            <Time>2022-08-23T08:21:53.000Z</Time>
            <Position>
              <LatitudeDegrees>42.79251574538648128509521484375</LatitudeDegrees>
              <LongitudeDegrees>-0.2687390707433223724365234375</LongitudeDegrees>
            </Position>
            <AltitudeMeters>2810.60009765625</AltitudeMeters>
            <DistanceMeters>NAN</DistanceMeters>
          </Trackpoint>
          <Trackpoint>
            <Time>2022-08-23T08:21:56.000Z</Time>
            <Position>
              <LatitudeDegrees>42.7925004065036773681640625</LatitudeDegrees>
              <LongitudeDegrees>-0.26873278431594371795654296875</LongitudeDegrees>
            </Position>
            <AltitudeMeters>2809.39990234375</AltitudeMeters>
            <DistanceMeters>NAN</DistanceMeters>
          </Trackpoint>
          <Trackpoint>
            <Time>2022-08-23T08:21:59.000Z</Time>
            <Position>
              <LatitudeDegrees>42.79249127022922039031982421875</LatitudeDegrees>
              <LongitudeDegrees>-0.2687119133770465850830078125</LongitudeDegrees>
            </Position>
            <AltitudeMeters>2807.60009765625</AltitudeMeters>
            <DistanceMeters>NAN</DistanceMeters>
          </Trackpoint>
          <Trackpoint>
            <Time>2022-08-23T08:22:03.000Z</Time>
            <Position>
              <LatitudeDegrees>42.79249462299048900604248046875</LatitudeDegrees>
              <LongitudeDegrees>-0.26866807602345943450927734375</LongitudeDegrees>
            </Position>
            <AltitudeMeters>2804.800048828125</AltitudeMeters>
            <DistanceMeters>NAN</DistanceMeters>
          </Trackpoint>
          <Trackpoint>
            <Time>2022-08-23T08:22:09.000Z</Time>
            <Position>
              <LatitudeDegrees>42.79248875565826892852783203125</LatitudeDegrees>
              <LongitudeDegrees>-0.2686130069196224212646484375</LongitudeDegrees>
            </Position>
            <AltitudeMeters>2801.800048828125</AltitudeMeters>
            <DistanceMeters>NAN</DistanceMeters>
          </Trackpoint>
          <Trackpoint>
            <Time>2022-08-23T08:22:31.000Z</Time>
            <Position>
              <LatitudeDegrees>42.792471237480640411376953125</LatitudeDegrees>
              <LongitudeDegrees>-0.2683752961456775665283203125</LongitudeDegrees>
            </Position>
            <AltitudeMeters>2791.39990234375</AltitudeMeters>
            <DistanceMeters>NAN</DistanceMeters>
          </Trackpoint>
          <Trackpoint>
            <Time>2022-08-23T08:22:32.000Z</Time>
            <Position>
              <LatitudeDegrees>42.79247023165225982666015625</LatitudeDegrees>
              <LongitudeDegrees>-0.268363393843173980712890625</LongitudeDegrees>
            </Position>
            <AltitudeMeters>2791</AltitudeMeters>
            <DistanceMeters>NAN</DistanceMeters>
          </Trackpoint>
          <Trackpoint>
            <Time>2022-08-23T08:22:33.000Z</Time>
            <Position>
              <LatitudeDegrees>42.79246545396745204925537109375</LatitudeDegrees>
              <LongitudeDegrees>-0.2683531679213047027587890625</LongitudeDegrees>
            </Position>
            <AltitudeMeters>2790.60009765625</AltitudeMeters>
            <DistanceMeters>NAN</DistanceMeters>
          </Trackpoint>
          <Trackpoint>
            <Time>2022-08-23T08:22:34.000Z</Time>
            <Position>
              <LatitudeDegrees>42.7924589999020099639892578125</LatitudeDegrees>
              <LongitudeDegrees>-0.26834805496037006378173828125</LongitudeDegrees>
            </Position>
            <AltitudeMeters>2790.199951171875</AltitudeMeters>
            <DistanceMeters>NAN</DistanceMeters>
          </Trackpoint>
          <Trackpoint>
            <Time>2022-08-23T08:22:43.000Z</Time>
            <Position>
              <LatitudeDegrees>42.7924482710659503936767578125</LatitudeDegrees>
              <LongitudeDegrees>-0.26825912296772003173828125</LongitudeDegrees>
            </Position>
            <AltitudeMeters>2786.800048828125</AltitudeMeters>
            <DistanceMeters>NAN</DistanceMeters>
          </Trackpoint>
          <Trackpoint>
            <Time>2022-08-23T08:22:47.000Z</Time>
            <Position>
              <LatitudeDegrees>42.79244516976177692413330078125</LatitudeDegrees>
              <LongitudeDegrees>-0.26821763254702091217041015625</LongitudeDegrees>
            </Position>
            <AltitudeMeters>2785.800048828125</AltitudeMeters>
            <DistanceMeters>NAN</DistanceMeters>
          </Trackpoint>
          <Trackpoint>
            <Time>2022-08-23T08:22:49.000Z</Time>
            <Position>
              <LatitudeDegrees>42.7924351952970027923583984375</LatitudeDegrees>
              <LongitudeDegrees>-0.26819768361747264862060546875</LongitudeDegrees>
            </Position>
            <AltitudeMeters>2785</AltitudeMeters>
            <DistanceMeters>NAN</DistanceMeters>
          </Trackpoint>
          <Trackpoint>
            <Time>2022-08-23T08:23:08.000Z</Time>
            <Position>
              <LatitudeDegrees>42.7924103848636150360107421875</LatitudeDegrees>
              <LongitudeDegrees>-0.26797791011631488800048828125</LongitudeDegrees>
            </Position>
            <AltitudeMeters>2778</AltitudeMeters>
            <DistanceMeters>NAN</DistanceMeters>
          </Trackpoint>
          <Trackpoint>
            <Time>2022-08-23T08:23:34.000Z</Time>
            <Position>
              <LatitudeDegrees>42.79234508983790874481201171875</LatitudeDegrees>
              <LongitudeDegrees>-0.26778512634336948394775390625</LongitudeDegrees>
            </Position>
            <AltitudeMeters>2770.39990234375</AltitudeMeters>
            <DistanceMeters>NAN</DistanceMeters>
          </Trackpoint>
          <Trackpoint>
            <Time>2022-08-23T08:23:56.000Z</Time>
            <Position>
              <LatitudeDegrees>42.7922992408275604248046875</LatitudeDegrees>
              <LongitudeDegrees>-0.26760332286357879638671875</LongitudeDegrees>
            </Position>
            <AltitudeMeters>2763.39990234375</AltitudeMeters>
            <DistanceMeters>NAN</DistanceMeters>
          </Trackpoint>
          <Trackpoint>
            <Time>2022-08-23T08:24:24.000Z</Time>
            <Position>
              <LatitudeDegrees>42.79229647479951381683349609375</LatitudeDegrees>
              <LongitudeDegrees>-0.26740349829196929931640625</LongitudeDegrees>
            </Position>
            <AltitudeMeters>2759.39990234375</AltitudeMeters>
            <DistanceMeters>NAN</DistanceMeters>
          </Trackpoint>
          <Trackpoint>
            <Time>2022-08-23T08:24:44.000Z</Time>
            <Position>
              <LatitudeDegrees>42.7922182716429233551025390625</LatitudeDegrees>
              <LongitudeDegrees>-0.26720275171101093292236328125</LongitudeDegrees>
            </Position>
            <AltitudeMeters>2754</AltitudeMeters>
            <DistanceMeters>NAN</DistanceMeters>
          </Trackpoint>
          <Trackpoint>
            <Time>2022-08-23T08:24:53.000Z</Time>
            <Position>
              <LatitudeDegrees>42.7921763621270656585693359375</LatitudeDegrees>
              <LongitudeDegrees>-0.26713393628597259521484375</LongitudeDegrees>
            </Position>
            <AltitudeMeters>2751.199951171875</AltitudeMeters>
            <DistanceMeters>NAN</DistanceMeters>
          </Trackpoint>
          <Trackpoint>
            <Time>2022-08-23T08:25:13.000Z</Time>
            <Position>
              <LatitudeDegrees>42.79208625666797161102294921875</LatitudeDegrees>
              <LongitudeDegrees>-0.26691340841352939605712890625</LongitudeDegrees>
            </Position>
            <AltitudeMeters>2746</AltitudeMeters>
            <DistanceMeters>NAN</DistanceMeters>
          </Trackpoint>
          <Trackpoint>
            <Time>2022-08-23T08:25:18.000Z</Time>
            <Position>
              <LatitudeDegrees>42.792072258889675140380859375</LatitudeDegrees>
              <LongitudeDegrees>-0.2668819762766361236572265625</LongitudeDegrees>
            </Position>
            <AltitudeMeters>2745.60009765625</AltitudeMeters>
            <DistanceMeters>NAN</DistanceMeters>
          </Trackpoint>
          <Trackpoint>
            <Time>2022-08-23T08:25:25.000Z</Time>
            <Position>
              <LatitudeDegrees>42.79207703657448291778564453125</LatitudeDegrees>
              <LongitudeDegrees>-0.2668328583240509033203125</LongitudeDegrees>
            </Position>
            <AltitudeMeters>2745</AltitudeMeters>
            <DistanceMeters>NAN</DistanceMeters>
          </Trackpoint>
          <Trackpoint>
            <Time>2022-08-23T08:25:34.000Z</Time>
            <Position>
              <LatitudeDegrees>42.792099751532077789306640625</LatitudeDegrees>
              <LongitudeDegrees>-0.2667954750359058380126953125</LongitudeDegrees>
            </Position>
            <AltitudeMeters>2745.39990234375</AltitudeMeters>
            <DistanceMeters>NAN</DistanceMeters>
          </Trackpoint>
          <Trackpoint>
            <Time>2022-08-23T08:25:44.000Z</Time>
            <Position>
              <LatitudeDegrees>42.79208826832473278045654296875</LatitudeDegrees>
              <LongitudeDegrees>-0.266791619360446929931640625</LongitudeDegrees>
            </Position>
            <AltitudeMeters>2745.199951171875</AltitudeMeters>
            <DistanceMeters>NAN</DistanceMeters>
          </Trackpoint>
          <Trackpoint>
            <Time>2022-08-23T08:25:45.000Z</Time>
            <Position>
              <LatitudeDegrees>42.79208860360085964202880859375</LatitudeDegrees>
              <LongitudeDegrees>-0.26679069735109806060791015625</LongitudeDegrees>
            </Position>
            <AltitudeMeters>2745.199951171875</AltitudeMeters>
            <DistanceMeters>NAN</DistanceMeters>
          </Trackpoint>
          <Trackpoint>
            <Time>2022-08-23T08:25:46.000Z</Time>
            <Position>
              <LatitudeDegrees>42.7920868434011936187744140625</LatitudeDegrees>
              <LongitudeDegrees>-0.26678734458982944488525390625</LongitudeDegrees>
            </Position>
            <AltitudeMeters>2745.199951171875</AltitudeMeters>
            <DistanceMeters>NAN</DistanceMeters>
          </Trackpoint>
          <Trackpoint>
            <Time>2022-08-23T08:25:49.000Z</Time>
            <Position>
              <LatitudeDegrees>42.79208055697381496429443359375</LatitudeDegrees>
              <LongitudeDegrees>-0.26679304428398609161376953125</LongitudeDegrees>
            </Position>
            <AltitudeMeters>2745.199951171875</AltitudeMeters>
            <DistanceMeters>NAN</DistanceMeters>
          </Trackpoint>
          <Trackpoint>
            <Time>2022-08-23T08:25:51.000Z</Time>
            <Position>
              <LatitudeDegrees>42.7920781262218952178955078125</LatitudeDegrees>
              <LongitudeDegrees>-0.26679388247430324554443359375</LongitudeDegrees>
            </Position>
            <AltitudeMeters>2745</AltitudeMeters>
            <DistanceMeters>NAN</DistanceMeters>
          </Trackpoint>
          <Trackpoint>
            <Time>2022-08-23T08:25:52.000Z</Time>
            <Position>
              <LatitudeDegrees>42.79207862913608551025390625</LatitudeDegrees>
              <LongitudeDegrees>-0.2667939662933349609375</LongitudeDegrees>
            </Position>
            <AltitudeMeters>2745</AltitudeMeters>
            <DistanceMeters>NAN</DistanceMeters>
          </Trackpoint>
          <Trackpoint>
            <Time>2022-08-23T08:25:54.000Z</Time>
            <Position>
              <LatitudeDegrees>42.79207888059318065643310546875</LatitudeDegrees>
              <LongitudeDegrees>-0.26679438538849353790283203125</LongitudeDegrees>
            </Position>
            <AltitudeMeters>2745</AltitudeMeters>
            <DistanceMeters>NAN</DistanceMeters>
          </Trackpoint>
          <Trackpoint>
            <Time>2022-08-23T08:25:58.000Z</Time>
            <Position>
              <LatitudeDegrees>42.79207988642156124114990234375</LatitudeDegrees>
              <LongitudeDegrees>-0.2667964808642864227294921875</LongitudeDegrees>
            </Position>
            <AltitudeMeters>2745</AltitudeMeters>
            <DistanceMeters>NAN</DistanceMeters>
          </Trackpoint>
          <Trackpoint>
            <Time>2022-08-23T08:26:13.000Z</Time>
            <Position>
              <LatitudeDegrees>42.792087011039257049560546875</LatitudeDegrees>
              <LongitudeDegrees>-0.2667924575507640838623046875</LongitudeDegrees>
            </Position>
            <AltitudeMeters>2745.199951171875</AltitudeMeters>
            <DistanceMeters>NAN</DistanceMeters>
          </Trackpoint>
          <Trackpoint>
            <Time>2022-08-23T08:26:17.000Z</Time>
            <Position>
              <LatitudeDegrees>42.79208533465862274169921875</LatitudeDegrees>
              <LongitudeDegrees>-0.2667921222746372222900390625</LongitudeDegrees>
            </Position>
            <AltitudeMeters>2745.199951171875</AltitudeMeters>
            <DistanceMeters>NAN</DistanceMeters>
          </Trackpoint>
          <Trackpoint>
            <Time>2022-08-23T08:26:21.000Z</Time>
            <Position>
              <LatitudeDegrees>42.79209681786596775054931640625</LatitudeDegrees>
              <LongitudeDegrees>-0.266798995435237884521484375</LongitudeDegrees>
            </Position>
            <AltitudeMeters>2745.39990234375</AltitudeMeters>
            <DistanceMeters>NAN</DistanceMeters>
          </Trackpoint>
          <Trackpoint>
            <Time>2022-08-23T08:26:22.000Z</Time>
            <Position>
              <LatitudeDegrees>42.7921020984649658203125</LatitudeDegrees>
              <LongitudeDegrees>-0.266801007091999053955078125</LongitudeDegrees>
            </Position>
            <AltitudeMeters>2745.39990234375</AltitudeMeters>
            <DistanceMeters>NAN</DistanceMeters>
          </Trackpoint>
          <Trackpoint>
            <Time>2022-08-23T08:26:23.000Z</Time>
            <Position>
              <LatitudeDegrees>42.7921026013791561126708984375</LatitudeDegrees>
              <LongitudeDegrees>-0.266799665987491607666015625</LongitudeDegrees>
            </Position>
            <AltitudeMeters>2745.39990234375</AltitudeMeters>
            <DistanceMeters>NAN</DistanceMeters>
          </Trackpoint>
          <Trackpoint>
            <Time>2022-08-23T08:26:25.000Z</Time>
            <Position>
              <LatitudeDegrees>42.7921019308269023895263671875</LatitudeDegrees>
              <LongitudeDegrees>-0.26680142618715763092041015625</LongitudeDegrees>
            </Position>
            <AltitudeMeters>2745.39990234375</AltitudeMeters>
            <DistanceMeters>NAN</DistanceMeters>
          </Trackpoint>
          <Trackpoint>
            <Time>2022-08-23T08:26:26.000Z</Time>
            <Position>
              <LatitudeDegrees>42.79210033826529979705810546875</LatitudeDegrees>
              <LongitudeDegrees>-0.2668025158345699310302734375</LongitudeDegrees>
            </Position>
            <AltitudeMeters>2745.39990234375</AltitudeMeters>
            <DistanceMeters>NAN</DistanceMeters>
          </Trackpoint>
          <Trackpoint>
            <Time>2022-08-23T08:26:58.000Z</Time>
            <Position>
              <LatitudeDegrees>42.792094387114048004150390625</LatitudeDegrees>
              <LongitudeDegrees>-0.2668112330138683319091796875</LongitudeDegrees>
            </Position>
            <AltitudeMeters>2745.199951171875</AltitudeMeters>
            <DistanceMeters>NAN</DistanceMeters>
          </Trackpoint>
          <Trackpoint>
            <Time>2022-08-23T08:27:28.000Z</Time>
            <Position>
              <LatitudeDegrees>42.79209363274276256561279296875</LatitudeDegrees>
              <LongitudeDegrees>-0.266804359853267669677734375</LongitudeDegrees>
            </Position>
            <AltitudeMeters>2745.199951171875</AltitudeMeters>
            <DistanceMeters>NAN</DistanceMeters>
          </Trackpoint>
          <Trackpoint>
            <Time>2022-08-23T08:27:50.000Z</Time>
            <Position>
              <LatitudeDegrees>42.7921056188642978668212890625</LatitudeDegrees>
              <LongitudeDegrees>-0.26680980809032917022705078125</LongitudeDegrees>
            </Position>
            <AltitudeMeters>2745.60009765625</AltitudeMeters>
            <DistanceMeters>NAN</DistanceMeters>
          </Trackpoint>
          <Trackpoint>
            <Time>2022-08-23T08:28:04.000Z</Time>
            <Position>
              <LatitudeDegrees>42.79209899716079235076904296875</LatitudeDegrees>
              <LongitudeDegrees>-0.26681081391870975494384765625</LongitudeDegrees>
            </Position>
            <AltitudeMeters>2745.39990234375</AltitudeMeters>
            <DistanceMeters>NAN</DistanceMeters>
          </Trackpoint>
          <Trackpoint>
            <Time>2022-08-23T08:29:35.000Z</Time>
            <Position>
              <LatitudeDegrees>42.79207787476480007171630859375</LatitudeDegrees>
              <LongitudeDegrees>-0.26680444367229938507080078125</LongitudeDegrees>
            </Position>
            <AltitudeMeters>2745</AltitudeMeters>
            <DistanceMeters>NAN</DistanceMeters>
          </Trackpoint>
          <Trackpoint>
            <Time>2022-08-23T08:30:13.000Z</Time>
            <Position>
              <LatitudeDegrees>42.79208307154476642608642578125</LatitudeDegrees>
              <LongitudeDegrees>-0.266802348196506500244140625</LongitudeDegrees>
            </Position>
            <AltitudeMeters>2745.199951171875</AltitudeMeters>
            <DistanceMeters>NAN</DistanceMeters>
          </Trackpoint>
          <Trackpoint>
            <Time>2022-08-23T08:30:14.000Z</Time>
            <Position>
              <LatitudeDegrees>42.79208508320152759552001953125</LatitudeDegrees>
              <LongitudeDegrees>-0.266803689301013946533203125</LongitudeDegrees>
            </Position>
            <AltitudeMeters>2745.199951171875</AltitudeMeters>
            <DistanceMeters>NAN</DistanceMeters>
          </Trackpoint>
          <Trackpoint>
            <Time>2022-08-23T08:31:07.000Z</Time>
            <Position>
              <LatitudeDegrees>42.79194720089435577392578125</LatitudeDegrees>
              <LongitudeDegrees>-0.266729258000850677490234375</LongitudeDegrees>
            </Position>
            <AltitudeMeters>2741.199951171875</AltitudeMeters>
            <DistanceMeters>NAN</DistanceMeters>
          </Trackpoint>
          <Trackpoint>
            <Time>2022-08-23T08:31:27.000Z</Time>
            <Position>
              <LatitudeDegrees>42.79188693501055240631103515625</LatitudeDegrees>
              <LongitudeDegrees>-0.2666673995554447174072265625</LongitudeDegrees>
            </Position>
            <AltitudeMeters>2738.800048828125</AltitudeMeters>
            <DistanceMeters>NAN</DistanceMeters>
          </Trackpoint>
          <Trackpoint>
            <Time>2022-08-23T08:31:28.000Z</Time>
            <Position>
              <LatitudeDegrees>42.7918897010385990142822265625</LatitudeDegrees>
              <LongitudeDegrees>-0.266667902469635009765625</LongitudeDegrees>
            </Position>
            <AltitudeMeters>2738.800048828125</AltitudeMeters>
            <DistanceMeters>NAN</DistanceMeters>
          </Trackpoint>
          <Trackpoint>
            <Time>2022-08-23T08:31:30.000Z</Time>
            <Position>
              <LatitudeDegrees>42.791892550885677337646484375</LatitudeDegrees>
              <LongitudeDegrees>-0.266666226089000701904296875</LongitudeDegrees>
            </Position>
            <AltitudeMeters>2739</AltitudeMeters>
            <DistanceMeters>NAN</DistanceMeters>
          </Trackpoint>
          <Trackpoint>
            <Time>2022-08-23T08:31:32.000Z</Time>
            <Position>
              <LatitudeDegrees>42.79188894666731357574462890625</LatitudeDegrees>
              <LongitudeDegrees>-0.266660861670970916748046875</LongitudeDegrees>
            </Position>
            <AltitudeMeters>2738.800048828125</AltitudeMeters>
            <DistanceMeters>NAN</DistanceMeters>
          </Trackpoint>
          <Trackpoint>
            <Time>2022-08-23T08:31:36.000Z</Time>
            <Position>
              <LatitudeDegrees>42.79188140295445919036865234375</LatitudeDegrees>
              <LongitudeDegrees>-0.26665650308132171630859375</LongitudeDegrees>
            </Position>
            <AltitudeMeters>2738.60009765625</AltitudeMeters>
            <DistanceMeters>NAN</DistanceMeters>
          </Trackpoint>
          <Trackpoint>
            <Time>2022-08-23T08:31:53.000Z</Time>
            <Position>
              <LatitudeDegrees>42.7918467856943607330322265625</LatitudeDegrees>
              <LongitudeDegrees>-0.26672163046896457672119140625</LongitudeDegrees>
            </Position>
            <AltitudeMeters>2736.800048828125</AltitudeMeters>
            <DistanceMeters>NAN</DistanceMeters>
          </Trackpoint>
          <Trackpoint>
            <Time>2022-08-23T08:31:59.000Z</Time>
            <Position>
              <LatitudeDegrees>42.79182591475546360015869140625</LatitudeDegrees>
              <LongitudeDegrees>-0.26670972816646099090576171875</LongitudeDegrees>
            </Position>
            <AltitudeMeters>2736</AltitudeMeters>
            <DistanceMeters>NAN</DistanceMeters>
          </Trackpoint>
          <Trackpoint>
            <Time>2022-08-23T08:32:14.000Z</Time>
            <Position>
              <LatitudeDegrees>42.7917441911995410919189453125</LatitudeDegrees>
              <LongitudeDegrees>-0.2666566707193851470947265625</LongitudeDegrees>
            </Position>
            <AltitudeMeters>2732.60009765625</AltitudeMeters>
            <DistanceMeters>NAN</DistanceMeters>
          </Trackpoint>
          <Trackpoint>
            <Time>2022-08-23T08:32:18.000Z</Time>
            <Position>
              <LatitudeDegrees>42.79172851704061031341552734375</LatitudeDegrees>
              <LongitudeDegrees>-0.26662372983992099761962890625</LongitudeDegrees>
            </Position>
            <AltitudeMeters>2731.800048828125</AltitudeMeters>
            <DistanceMeters>NAN</DistanceMeters>
          </Trackpoint>
          <Trackpoint>
            <Time>2022-08-23T08:32:20.000Z</Time>
            <Position>
              <LatitudeDegrees>42.791716195642948150634765625</LatitudeDegrees>
              <LongitudeDegrees>-0.26661149226129055023193359375</LongitudeDegrees>
            </Position>
            <AltitudeMeters>2731.199951171875</AltitudeMeters>
            <DistanceMeters>NAN</DistanceMeters>
          </Trackpoint>
          <Trackpoint>
            <Time>2022-08-23T08:32:29.000Z</Time>
            <Position>
              <LatitudeDegrees>42.7916546724736690521240234375</LatitudeDegrees>
              <LongitudeDegrees>-0.26654577814042568206787109375</LongitudeDegrees>
            </Position>
            <AltitudeMeters>2729.199951171875</AltitudeMeters>
            <DistanceMeters>NAN</DistanceMeters>
          </Trackpoint>
          <Trackpoint>
            <Time>2022-08-23T08:32:46.000Z</Time>
            <Position>
              <LatitudeDegrees>42.79153204523026943206787109375</LatitudeDegrees>
              <LongitudeDegrees>-0.26636389084160327911376953125</LongitudeDegrees>
            </Position>
            <AltitudeMeters>2725.60009765625</AltitudeMeters>
            <DistanceMeters>NAN</DistanceMeters>
          </Trackpoint>
          <Trackpoint>
            <Time>2022-08-23T08:33:01.000Z</Time>
            <Position>
              <LatitudeDegrees>42.791434563696384429931640625</LatitudeDegrees>
              <LongitudeDegrees>-0.26614931412041187286376953125</LongitudeDegrees>
            </Position>
            <AltitudeMeters>2724.39990234375</AltitudeMeters>
            <DistanceMeters>NAN</DistanceMeters>
          </Trackpoint>
          <Trackpoint>
            <Time>2022-08-23T08:33:13.000Z</Time>
            <Position>
              <LatitudeDegrees>42.791367508471012115478515625</LatitudeDegrees>
              <LongitudeDegrees>-0.2659844420850276947021484375</LongitudeDegrees>
            </Position>
            <AltitudeMeters>2725.199951171875</AltitudeMeters>
            <DistanceMeters>NAN</DistanceMeters>
          </Trackpoint>
          <Trackpoint>
            <Time>2022-08-23T08:33:19.000Z</Time>
            <Position>
              <LatitudeDegrees>42.79131243936717510223388671875</LatitudeDegrees>
              <LongitudeDegrees>-0.2659297920763492584228515625</LongitudeDegrees>
            </Position>
            <AltitudeMeters>2724.39990234375</AltitudeMeters>
            <DistanceMeters>NAN</DistanceMeters>
          </Trackpoint>
          <Trackpoint>
            <Time>2022-08-23T08:33:23.000Z</Time>
            <Position>
              <LatitudeDegrees>42.79128142632544040679931640625</LatitudeDegrees>
              <LongitudeDegrees>-0.2658919058740139007568359375</LongitudeDegrees>
            </Position>
            <AltitudeMeters>2723.39990234375</AltitudeMeters>
            <DistanceMeters>NAN</DistanceMeters>
          </Trackpoint>
          <Trackpoint>
            <Time>2022-08-23T08:33:27.000Z</Time>
            <Position>
              <LatitudeDegrees>42.79124521650373935699462890625</LatitudeDegrees>
              <LongitudeDegrees>-0.26588394306600093841552734375</LongitudeDegrees>
            </Position>
            <AltitudeMeters>2721.60009765625</AltitudeMeters>
            <DistanceMeters>NAN</DistanceMeters>
          </Trackpoint>
          <Trackpoint>
            <Time>2022-08-23T08:33:33.000Z</Time>
            <Position>
              <LatitudeDegrees>42.79121856205165386199951171875</LatitudeDegrees>
              <LongitudeDegrees>-0.2658684365451335906982421875</LongitudeDegrees>
            </Position>
            <AltitudeMeters>2720.39990234375</AltitudeMeters>
            <DistanceMeters>NAN</DistanceMeters>
          </Trackpoint>
          <Trackpoint>
            <Time>2022-08-23T08:33:43.000Z</Time>
            <Position>
              <LatitudeDegrees>42.79122023843228816986083984375</LatitudeDegrees>
              <LongitudeDegrees>-0.26587472297251224517822265625</LongitudeDegrees>
            </Position>
            <AltitudeMeters>2720.39990234375</AltitudeMeters>
            <DistanceMeters>NAN</DistanceMeters>
          </Trackpoint>
          <Trackpoint>
            <Time>2022-08-23T08:33:56.000Z</Time>
            <Position>
              <LatitudeDegrees>42.79122878797352313995361328125</LatitudeDegrees>
              <LongitudeDegrees>-0.26587841100990772247314453125</LongitudeDegrees>
            </Position>
            <AltitudeMeters>2720.800048828125</AltitudeMeters>
            <DistanceMeters>NAN</DistanceMeters>
          </Trackpoint>
          <Trackpoint>
            <Time>2022-08-23T08:33:57.000Z</Time>
            <Position>
              <LatitudeDegrees>42.7912285365164279937744140625</LatitudeDegrees>
              <LongitudeDegrees>-0.26587690226733684539794921875</LongitudeDegrees>
            </Position>
            <AltitudeMeters>2720.800048828125</AltitudeMeters>
            <DistanceMeters>NAN</DistanceMeters>
          </Trackpoint>
          <Trackpoint>
            <Time>2022-08-23T08:33:58.000Z</Time>
            <Position>
              <LatitudeDegrees>42.79122828505933284759521484375</LatitudeDegrees>
              <LongitudeDegrees>-0.26587388478219509124755859375</LongitudeDegrees>
            </Position>
            <AltitudeMeters>2720.800048828125</AltitudeMeters>
            <DistanceMeters>NAN</DistanceMeters>
          </Trackpoint>
          <Trackpoint>
            <Time>2022-08-23T08:34:01.000Z</Time>
            <Position>
              <LatitudeDegrees>42.79122526757419109344482421875</LatitudeDegrees>
              <LongitudeDegrees>-0.265870280563831329345703125</LongitudeDegrees>
            </Position>
            <AltitudeMeters>2720.800048828125</AltitudeMeters>
            <DistanceMeters>NAN</DistanceMeters>
          </Trackpoint>
          <Trackpoint>
            <Time>2022-08-23T08:34:16.000Z</Time>
            <Position>
              <LatitudeDegrees>42.79117044992744922637939453125</LatitudeDegrees>
              <LongitudeDegrees>-0.26585913263261318206787109375</LongitudeDegrees>
            </Position>
            <AltitudeMeters>2718</AltitudeMeters>
            <DistanceMeters>NAN</DistanceMeters>
          </Trackpoint>
          <Trackpoint>
            <Time>2022-08-23T08:34:19.000Z</Time>
            <Position>
              <LatitudeDegrees>42.79114262200891971588134765625</LatitudeDegrees>
              <LongitudeDegrees>-0.265826694667339324951171875</LongitudeDegrees>
            </Position>
            <AltitudeMeters>2717.39990234375</AltitudeMeters>
            <DistanceMeters>NAN</DistanceMeters>
          </Trackpoint>
          <Trackpoint>
            <Time>2022-08-23T08:34:22.000Z</Time>
            <Position>
              <LatitudeDegrees>42.7911118604242801666259765625</LatitudeDegrees>
              <LongitudeDegrees>-0.26579509489238262176513671875</LongitudeDegrees>
            </Position>
            <AltitudeMeters>2716.800048828125</AltitudeMeters>
            <DistanceMeters>NAN</DistanceMeters>
          </Trackpoint>
          <Trackpoint>
            <Time>2022-08-23T08:34:25.000Z</Time>
            <Position>
              <LatitudeDegrees>42.79108277522027492523193359375</LatitudeDegrees>
              <LongitudeDegrees>-0.26576693169772624969482421875</LongitudeDegrees>
            </Position>
            <AltitudeMeters>2716.39990234375</AltitudeMeters>
            <DistanceMeters>NAN</DistanceMeters>
          </Trackpoint>
          <Trackpoint>
            <Time>2022-08-23T08:34:27.000Z</Time>
            <Position>
              <LatitudeDegrees>42.7910619042813777923583984375</LatitudeDegrees>
              <LongitudeDegrees>-0.26574212126433849334716796875</LongitudeDegrees>
            </Position>
            <AltitudeMeters>2716.39990234375</AltitudeMeters>
            <DistanceMeters>NAN</DistanceMeters>
          </Trackpoint>
          <Trackpoint>
            <Time>2022-08-23T08:34:37.000Z</Time>
            <Position>
              <LatitudeDegrees>42.79100180603563785552978515625</LatitudeDegrees>
              <LongitudeDegrees>-0.26560700498521327972412109375</LongitudeDegrees>
            </Position>
            <AltitudeMeters>2718.60009765625</AltitudeMeters>
            <DistanceMeters>NAN</DistanceMeters>
          </Trackpoint>
          <Trackpoint>
            <Time>2022-08-23T08:34:39.000Z</Time>
            <Position>
              <LatitudeDegrees>42.79097934253513813018798828125</LatitudeDegrees>
              <LongitudeDegrees>-0.26558873243629932403564453125</LongitudeDegrees>
            </Position>
            <AltitudeMeters>2718.199951171875</AltitudeMeters>
            <DistanceMeters>NAN</DistanceMeters>
          </Trackpoint>
          <Trackpoint>
            <Time>2022-08-23T08:34:43.000Z</Time>
            <Position>
              <LatitudeDegrees>42.79094682075083255767822265625</LatitudeDegrees>
              <LongitudeDegrees>-0.26557750068604946136474609375</LongitudeDegrees>
            </Position>
            <AltitudeMeters>2717.199951171875</AltitudeMeters>
            <DistanceMeters>NAN</DistanceMeters>
          </Trackpoint>
          <Trackpoint>
            <Time>2022-08-23T08:34:48.000Z</Time>
            <Position>
              <LatitudeDegrees>42.7909281291067600250244140625</LatitudeDegrees>
              <LongitudeDegrees>-0.26552083902060985565185546875</LongitudeDegrees>
            </Position>
            <AltitudeMeters>2718.60009765625</AltitudeMeters>
            <DistanceMeters>NAN</DistanceMeters>
          </Trackpoint>
          <Trackpoint>
            <Time>2022-08-23T08:34:58.000Z</Time>
            <Position>
              <LatitudeDegrees>42.79087808914482593536376953125</LatitudeDegrees>
              <LongitudeDegrees>-0.26537449099123477935791015625</LongitudeDegrees>
            </Position>
            <AltitudeMeters>2723.199951171875</AltitudeMeters>
            <DistanceMeters>NAN</DistanceMeters>
          </Trackpoint>
          <Trackpoint>
            <Time>2022-08-23T08:35:00.000Z</Time>
            <Position>
              <LatitudeDegrees>42.79088093899190425872802734375</LatitudeDegrees>
              <LongitudeDegrees>-0.2653336711227893829345703125</LongitudeDegrees>
            </Position>
            <AltitudeMeters>2725.199951171875</AltitudeMeters>
            <DistanceMeters>NAN</DistanceMeters>
          </Trackpoint>
          <Trackpoint>
            <Time>2022-08-23T08:35:03.000Z</Time>
            <Position>
              <LatitudeDegrees>42.79087808914482593536376953125</LatitudeDegrees>
              <LongitudeDegrees>-0.26532344520092010498046875</LongitudeDegrees>
            </Position>
            <AltitudeMeters>2725.60009765625</AltitudeMeters>
            <DistanceMeters>NAN</DistanceMeters>
          </Trackpoint>
          <Trackpoint>
            <Time>2022-08-23T08:35:13.000Z</Time>
            <Position>
              <LatitudeDegrees>42.79088714160025119781494140625</LatitudeDegrees>
              <LongitudeDegrees>-0.26534398086369037628173828125</LongitudeDegrees>
            </Position>
            <AltitudeMeters>2725</AltitudeMeters>
            <DistanceMeters>NAN</DistanceMeters>
          </Trackpoint>
          <Trackpoint>
            <Time>2022-08-23T08:35:14.000Z</Time>
            <Position>
              <LatitudeDegrees>42.790878675878047943115234375</LatitudeDegrees>
              <LongitudeDegrees>-0.26534280739724636077880859375</LongitudeDegrees>
            </Position>
            <AltitudeMeters>2724.800048828125</AltitudeMeters>
            <DistanceMeters>NAN</DistanceMeters>
          </Trackpoint>
          <Trackpoint>
            <Time>2022-08-23T08:35:16.000Z</Time>
            <Position>
              <LatitudeDegrees>42.79087255708873271942138671875</LatitudeDegrees>
              <LongitudeDegrees>-0.26533157564699649810791015625</LongitudeDegrees>
            </Position>
            <AltitudeMeters>2725</AltitudeMeters>
            <DistanceMeters>NAN</DistanceMeters>
          </Trackpoint>
          <Trackpoint>
            <Time>2022-08-23T08:35:17.000Z</Time>
            <Position>
              <LatitudeDegrees>42.7908620797097682952880859375</LatitudeDegrees>
              <LongitudeDegrees>-0.26532738469541072845458984375</LongitudeDegrees>
            </Position>
            <AltitudeMeters>2725</AltitudeMeters>
            <DistanceMeters>NAN</DistanceMeters>
          </Trackpoint>
          <Trackpoint>
            <Time>2022-08-23T08:35:18.000Z</Time>
            <Position>
              <LatitudeDegrees>42.79085093177855014801025390625</LatitudeDegrees>
              <LongitudeDegrees>-0.26532051153481006622314453125</LongitudeDegrees>
            </Position>
            <AltitudeMeters>2725</AltitudeMeters>
            <DistanceMeters>NAN</DistanceMeters>
          </Trackpoint>
          <Trackpoint>
            <Time>2022-08-23T08:35:19.000Z</Time>
            <Position>
              <LatitudeDegrees>42.790847830474376678466796875</LatitudeDegrees>
              <LongitudeDegrees>-0.26531095616519451141357421875</LongitudeDegrees>
            </Position>
            <AltitudeMeters>2725.199951171875</AltitudeMeters>
            <DistanceMeters>NAN</DistanceMeters>
          </Trackpoint>
          <Trackpoint>
            <Time>2022-08-23T08:35:20.000Z</Time>
            <Position>
              <LatitudeDegrees>42.7908481657505035400390625</LatitudeDegrees>
              <LongitudeDegrees>-0.2653011493384838104248046875</LongitudeDegrees>
            </Position>
            <AltitudeMeters>2725.800048828125</AltitudeMeters>
            <DistanceMeters>NAN</DistanceMeters>
          </Trackpoint>
          <Trackpoint>
            <Time>2022-08-23T08:35:21.000Z</Time>
            <Position>
              <LatitudeDegrees>42.790848501026630401611328125</LatitudeDegrees>
              <LongitudeDegrees>-0.265291593968868255615234375</LongitudeDegrees>
            </Position>
            <AltitudeMeters>2726.199951171875</AltitudeMeters>
            <DistanceMeters>NAN</DistanceMeters>
          </Trackpoint>
          <Trackpoint>
            <Time>2022-08-23T08:35:22.000Z</Time>
            <Position>
              <LatitudeDegrees>42.790855206549167633056640625</LatitudeDegrees>
              <LongitudeDegrees>-0.26528052985668182373046875</LongitudeDegrees>
            </Position>
            <AltitudeMeters>2727</AltitudeMeters>
            <DistanceMeters>NAN</DistanceMeters>
          </Trackpoint>
          <Trackpoint>
            <Time>2022-08-23T08:35:23.000Z</Time>
            <Position>
              <LatitudeDegrees>42.79086786322295665740966796875</LatitudeDegrees>
              <LongitudeDegrees>-0.2652619220316410064697265625</LongitudeDegrees>
            </Position>
            <AltitudeMeters>2728.199951171875</AltitudeMeters>
            <DistanceMeters>NAN</DistanceMeters>
          </Trackpoint>
          <Trackpoint>
            <Time>2022-08-23T08:35:33.000Z</Time>
            <Position>
              <LatitudeDegrees>42.7907842956483364105224609375</LatitudeDegrees>
              <LongitudeDegrees>-0.26519629172980785369873046875</LongitudeDegrees>
            </Position>
            <AltitudeMeters>2728.199951171875</AltitudeMeters>
            <DistanceMeters>NAN</DistanceMeters>
          </Trackpoint>
          <Trackpoint>
            <Time>2022-08-23T08:35:36.000Z</Time>
            <Position>
              <LatitudeDegrees>42.7907313220202922821044921875</LatitudeDegrees>
              <LongitudeDegrees>-0.265192352235317230224609375</LongitudeDegrees>
            </Position>
            <AltitudeMeters>2726.39990234375</AltitudeMeters>
            <DistanceMeters>NAN</DistanceMeters>
          </Trackpoint>
          <Trackpoint>
            <Time>2022-08-23T08:35:41.000Z</Time>
            <Position>
              <LatitudeDegrees>42.79062076471745967864990234375</LatitudeDegrees>
              <LongitudeDegrees>-0.265195034444332122802734375</LongitudeDegrees>
            </Position>
            <AltitudeMeters>2722</AltitudeMeters>
            <DistanceMeters>NAN</DistanceMeters>
          </Trackpoint>
          <Trackpoint>
            <Time>2022-08-23T08:35:43.000Z</Time>
            <Position>
              <LatitudeDegrees>42.7905941940844058990478515625</LatitudeDegrees>
              <LongitudeDegrees>-0.26519310660660266876220703125</LongitudeDegrees>
            </Position>
            <AltitudeMeters>2720.800048828125</AltitudeMeters>
            <DistanceMeters>NAN</DistanceMeters>
          </Trackpoint>
          <Trackpoint>
            <Time>2022-08-23T08:35:45.000Z</Time>
            <Position>
              <LatitudeDegrees>42.7905740775167942047119140625</LatitudeDegrees>
              <LongitudeDegrees>-0.2651854790747165679931640625</LongitudeDegrees>
            </Position>
            <AltitudeMeters>2720.199951171875</AltitudeMeters>
            <DistanceMeters>NAN</DistanceMeters>
          </Trackpoint>
          <Trackpoint>
            <Time>2022-08-23T08:35:54.000Z</Time>
            <Position>
              <LatitudeDegrees>42.79048363678157329559326171875</LatitudeDegrees>
              <LongitudeDegrees>-0.2651482634246349334716796875</LongitudeDegrees>
            </Position>
            <AltitudeMeters>2717.800048828125</AltitudeMeters>
            <DistanceMeters>NAN</DistanceMeters>
          </Trackpoint>
          <Trackpoint>
            <Time>2022-08-23T08:35:55.000Z</Time>
            <Position>
              <LatitudeDegrees>42.7904728241264820098876953125</LatitudeDegrees>
              <LongitudeDegrees>-0.2651449106633663177490234375</LongitudeDegrees>
            </Position>
            <AltitudeMeters>2717.39990234375</AltitudeMeters>
            <DistanceMeters>NAN</DistanceMeters>
          </Trackpoint>
          <Trackpoint>
            <Time>2022-08-23T08:35:56.000Z</Time>
            <Position>
              <LatitudeDegrees>42.79046234674751758575439453125</LatitudeDegrees>
              <LongitudeDegrees>-0.2651432342827320098876953125</LongitudeDegrees>
            </Position>
            <AltitudeMeters>2717</AltitudeMeters>
            <DistanceMeters>NAN</DistanceMeters>
          </Trackpoint>
          <Trackpoint>
            <Time>2022-08-23T08:35:57.000Z</Time>
            <Position>
              <LatitudeDegrees>42.790450192987918853759765625</LatitudeDegrees>
              <LongitudeDegrees>-0.265140049159526824951171875</LongitudeDegrees>
            </Position>
            <AltitudeMeters>2716.60009765625</AltitudeMeters>
            <DistanceMeters>NAN</DistanceMeters>
          </Trackpoint>
          <Trackpoint>
            <Time>2022-08-23T08:36:12.000Z</Time>
            <Position>
              <LatitudeDegrees>42.790289260447025299072265625</LatitudeDegrees>
              <LongitudeDegrees>-0.2650916017591953277587890625</LongitudeDegrees>
            </Position>
            <AltitudeMeters>2713</AltitudeMeters>
            <DistanceMeters>NAN</DistanceMeters>
          </Trackpoint>
          <Trackpoint>
            <Time>2022-08-23T08:36:22.000Z</Time>
            <Position>
              <LatitudeDegrees>42.7901797927916049957275390625</LatitudeDegrees>
              <LongitudeDegrees>-0.265022031962871551513671875</LongitudeDegrees>
            </Position>
            <AltitudeMeters>2712.39990234375</AltitudeMeters>
            <DistanceMeters>NAN</DistanceMeters>
          </Trackpoint>
          <Trackpoint>
            <Time>2022-08-23T08:36:24.000Z</Time>
            <Position>
              <LatitudeDegrees>42.79016428627073764801025390625</LatitudeDegrees>
              <LongitudeDegrees>-0.265004597604274749755859375</LongitudeDegrees>
            </Position>
            <AltitudeMeters>2712.39990234375</AltitudeMeters>
            <DistanceMeters>NAN</DistanceMeters>
          </Trackpoint>
          <Trackpoint>
            <Time>2022-08-23T08:36:25.000Z</Time>
            <Position>
              <LatitudeDegrees>42.79015171341598033905029296875</LatitudeDegrees>
              <LongitudeDegrees>-0.2649947069585323333740234375</LongitudeDegrees>
            </Position>
            <AltitudeMeters>2712.39990234375</AltitudeMeters>
            <DistanceMeters>NAN</DistanceMeters>
          </Trackpoint>
          <Trackpoint>
            <Time>2022-08-23T08:36:26.000Z</Time>
            <Position>
              <LatitudeDegrees>42.79014031402766704559326171875</LatitudeDegrees>
              <LongitudeDegrees>-0.26498707942664623260498046875</LongitudeDegrees>
            </Position>
            <AltitudeMeters>2712.199951171875</AltitudeMeters>
            <DistanceMeters>NAN</DistanceMeters>
          </Trackpoint>
          <Trackpoint>
            <Time>2022-08-23T08:36:41.000Z</Time>
            <Position>
              <LatitudeDegrees>42.78998021967709064483642578125</LatitudeDegrees>
              <LongitudeDegrees>-0.26490560732781887054443359375</LongitudeDegrees>
            </Position>
            <AltitudeMeters>2712.800048828125</AltitudeMeters>
            <DistanceMeters>NAN</DistanceMeters>
          </Trackpoint>
          <Trackpoint>
            <Time>2022-08-23T08:36:44.000Z</Time>
            <Position>
              <LatitudeDegrees>42.78996228240430355072021484375</LatitudeDegrees>
              <LongitudeDegrees>-0.2648924477398395538330078125</LongitudeDegrees>
            </Position>
            <AltitudeMeters>2713.39990234375</AltitudeMeters>
            <DistanceMeters>NAN</DistanceMeters>
          </Trackpoint>
          <Trackpoint>
            <Time>2022-08-23T08:36:46.000Z</Time>
            <Position>
              <LatitudeDegrees>42.78995054773986339569091796875</LatitudeDegrees>
              <LongitudeDegrees>-0.26488515548408031463623046875</LongitudeDegrees>
            </Position>
            <AltitudeMeters>2713.800048828125</AltitudeMeters>
            <DistanceMeters>NAN</DistanceMeters>
          </Trackpoint>
          <Trackpoint>
            <Time>2022-08-23T08:36:54.000Z</Time>
            <Position>
              <LatitudeDegrees>42.7898958139121532440185546875</LatitudeDegrees>
              <LongitudeDegrees>-0.2648622728884220123291015625</LongitudeDegrees>
            </Position>
            <AltitudeMeters>2714.60009765625</AltitudeMeters>
            <DistanceMeters>NAN</DistanceMeters>
          </Trackpoint>
          <Trackpoint>
            <Time>2022-08-23T08:37:11.000Z</Time>
            <Position>
              <LatitudeDegrees>42.78977804817259311676025390625</LatitudeDegrees>
              <LongitudeDegrees>-0.264760516583919525146484375</LongitudeDegrees>
            </Position>
            <AltitudeMeters>2716.199951171875</AltitudeMeters>
            <DistanceMeters>NAN</DistanceMeters>
          </Trackpoint>
          <Trackpoint>
            <Time>2022-08-23T08:37:29.000Z</Time>
            <Position>
              <LatitudeDegrees>42.78962449170649051666259765625</LatitudeDegrees>
              <LongitudeDegrees>-0.2647130750119686126708984375</LongitudeDegrees>
            </Position>
            <AltitudeMeters>2716.60009765625</AltitudeMeters>
            <DistanceMeters>NAN</DistanceMeters>
          </Trackpoint>
          <Trackpoint>
            <Time>2022-08-23T08:37:46.000Z</Time>
            <Position>
              <LatitudeDegrees>42.789465822279453277587890625</LatitudeDegrees>
              <LongitudeDegrees>-0.2645806409418582916259765625</LongitudeDegrees>
            </Position>
            <AltitudeMeters>2719.199951171875</AltitudeMeters>
            <DistanceMeters>NAN</DistanceMeters>
          </Trackpoint>
          <Trackpoint>
            <Time>2022-08-23T08:38:03.000Z</Time>
            <Position>
              <LatitudeDegrees>42.78932894580066204071044921875</LatitudeDegrees>
              <LongitudeDegrees>-0.26442130096256732940673828125</LongitudeDegrees>
            </Position>
            <AltitudeMeters>2722</AltitudeMeters>
            <DistanceMeters>NAN</DistanceMeters>
          </Trackpoint>
          <Trackpoint>
            <Time>2022-08-23T08:38:06.000Z</Time>
            <Position>
              <LatitudeDegrees>42.78930656611919403076171875</LatitudeDegrees>
              <LongitudeDegrees>-0.264401100575923919677734375</LongitudeDegrees>
            </Position>
            <AltitudeMeters>2722</AltitudeMeters>
            <DistanceMeters>NAN</DistanceMeters>
          </Trackpoint>
          <Trackpoint>
            <Time>2022-08-23T08:38:09.000Z</Time>
            <Position>
              <LatitudeDegrees>42.7892829291522502899169921875</LatitudeDegrees>
              <LongitudeDegrees>-0.264407135546207427978515625</LongitudeDegrees>
            </Position>
            <AltitudeMeters>2722</AltitudeMeters>
            <DistanceMeters>NAN</DistanceMeters>
          </Trackpoint>
          <Trackpoint>
            <Time>2022-08-23T08:38:11.000Z</Time>
            <Position>
              <LatitudeDegrees>42.7892654947936534881591796875</LatitudeDegrees>
              <LongitudeDegrees>-0.2644227258861064910888671875</LongitudeDegrees>
            </Position>
            <AltitudeMeters>2721.800048828125</AltitudeMeters>
            <DistanceMeters>NAN</DistanceMeters>
          </Trackpoint>
          <Trackpoint>
            <Time>2022-08-23T08:38:12.000Z</Time>
            <Position>
              <LatitudeDegrees>42.78925635851919651031494140625</LatitudeDegrees>
              <LongitudeDegrees>-0.2644327841699123382568359375</LongitudeDegrees>
            </Position>
            <AltitudeMeters>2721.60009765625</AltitudeMeters>
            <DistanceMeters>NAN</DistanceMeters>
          </Trackpoint>
          <Trackpoint>
            <Time>2022-08-23T08:38:15.000Z</Time>
            <Position>
              <LatitudeDegrees>42.789237834513187408447265625</LatitudeDegrees>
              <LongitudeDegrees>-0.26445264928042888641357421875</LongitudeDegrees>
            </Position>
            <AltitudeMeters>2721.800048828125</AltitudeMeters>
            <DistanceMeters>NAN</DistanceMeters>
          </Trackpoint>
          <Trackpoint>
            <Time>2022-08-23T08:38:18.000Z</Time>
            <Position>
              <LatitudeDegrees>42.78921461664140224456787109375</LatitudeDegrees>
              <LongitudeDegrees>-0.26446404866874217987060546875</LongitudeDegrees>
            </Position>
            <AltitudeMeters>2723</AltitudeMeters>
            <DistanceMeters>NAN</DistanceMeters>
          </Trackpoint>
          <Trackpoint>
            <Time>2022-08-23T08:38:23.000Z</Time>
            <Position>
              <LatitudeDegrees>42.78917505405843257904052734375</LatitudeDegrees>
              <LongitudeDegrees>-0.26445164345204830169677734375</LongitudeDegrees>
            </Position>
            <AltitudeMeters>2724.800048828125</AltitudeMeters>
            <DistanceMeters>NAN</DistanceMeters>
          </Trackpoint>
          <Trackpoint>
            <Time>2022-08-23T08:38:26.000Z</Time>
            <Position>
              <LatitudeDegrees>42.78915979899466037750244140625</LatitudeDegrees>
              <LongitudeDegrees>-0.2644401602447032928466796875</LongitudeDegrees>
            </Position>
            <AltitudeMeters>2725.39990234375</AltitudeMeters>
            <DistanceMeters>NAN</DistanceMeters>
          </Trackpoint>
          <Trackpoint>
            <Time>2022-08-23T08:38:31.000Z</Time>
            <Position>
              <LatitudeDegrees>42.7891347371041774749755859375</LatitudeDegrees>
              <LongitudeDegrees>-0.26446974836289882659912109375</LongitudeDegrees>
            </Position>
            <AltitudeMeters>2726.39990234375</AltitudeMeters>
            <DistanceMeters>NAN</DistanceMeters>
          </Trackpoint>
          <Trackpoint>
            <Time>2022-08-23T08:38:33.000Z</Time>
            <Position>
              <LatitudeDegrees>42.78913222253322601318359375</LatitudeDegrees>
              <LongitudeDegrees>-0.264484919607639312744140625</LongitudeDegrees>
            </Position>
            <AltitudeMeters>2726.60009765625</AltitudeMeters>
            <DistanceMeters>NAN</DistanceMeters>
          </Trackpoint>
          <Trackpoint>
            <Time>2022-08-23T08:38:40.000Z</Time>
            <Position>
              <LatitudeDegrees>42.7891181409358978271484375</LatitudeDegrees>
              <LongitudeDegrees>-0.26453847996890544891357421875</LongitudeDegrees>
            </Position>
            <AltitudeMeters>2726.800048828125</AltitudeMeters>
            <DistanceMeters>NAN</DistanceMeters>
          </Trackpoint>
          <Trackpoint>
            <Time>2022-08-23T08:38:44.000Z</Time>
            <Position>
              <LatitudeDegrees>42.7891075797379016876220703125</LatitudeDegrees>
              <LongitudeDegrees>-0.26456035673618316650390625</LongitudeDegrees>
            </Position>
            <AltitudeMeters>2727.199951171875</AltitudeMeters>
            <DistanceMeters>NAN</DistanceMeters>
          </Trackpoint>
          <Trackpoint>
            <Time>2022-08-23T08:39:02.000Z</Time>
            <Position>
              <LatitudeDegrees>42.789060808718204498291015625</LatitudeDegrees>
              <LongitudeDegrees>-0.26457167230546474456787109375</LongitudeDegrees>
            </Position>
            <AltitudeMeters>2729.39990234375</AltitudeMeters>
            <DistanceMeters>NAN</DistanceMeters>
          </Trackpoint>
          <Trackpoint>
            <Time>2022-08-23T08:39:36.000Z</Time>
            <Position>
              <LatitudeDegrees>42.7889496646821498870849609375</LatitudeDegrees>
              <LongitudeDegrees>-0.2645799703896045684814453125</LongitudeDegrees>
            </Position>
            <AltitudeMeters>2734</AltitudeMeters>
            <DistanceMeters>NAN</DistanceMeters>
          </Trackpoint>
          <Trackpoint>
            <Time>2022-08-23T08:40:00.000Z</Time>
            <Position>
              <LatitudeDegrees>42.7888145484030246734619140625</LatitudeDegrees>
              <LongitudeDegrees>-0.26473738253116607666015625</LongitudeDegrees>
            </Position>
            <AltitudeMeters>2741</AltitudeMeters>
            <DistanceMeters>NAN</DistanceMeters>
          </Trackpoint>
          <Trackpoint>
            <Time>2022-08-23T08:40:28.000Z</Time>
            <Position>
              <LatitudeDegrees>42.7886770851910114288330078125</LatitudeDegrees>
              <LongitudeDegrees>-0.26489831507205963134765625</LongitudeDegrees>
            </Position>
            <AltitudeMeters>2746.199951171875</AltitudeMeters>
            <DistanceMeters>NAN</DistanceMeters>
          </Trackpoint>
          <Trackpoint>
            <Time>2022-08-23T08:40:46.000Z</Time>
            <Position>
              <LatitudeDegrees>42.7886076830327510833740234375</LatitudeDegrees>
              <LongitudeDegrees>-0.2649886719882488250732421875</LongitudeDegrees>
            </Position>
            <AltitudeMeters>2747.800048828125</AltitudeMeters>
            <DistanceMeters>NAN</DistanceMeters>
          </Trackpoint>
          <Trackpoint>
            <Time>2022-08-23T08:41:11.000Z</Time>
            <Position>
              <LatitudeDegrees>42.78851573355495929718017578125</LatitudeDegrees>
              <LongitudeDegrees>-0.26504457928240299224853515625</LongitudeDegrees>
            </Position>
            <AltitudeMeters>2750.800048828125</AltitudeMeters>
            <DistanceMeters>NAN</DistanceMeters>
          </Trackpoint>
          <Trackpoint>
            <Time>2022-08-23T08:41:51.000Z</Time>
            <Position>
              <LatitudeDegrees>42.788371145725250244140625</LatitudeDegrees>
              <LongitudeDegrees>-0.26513569056987762451171875</LongitudeDegrees>
            </Position>
            <AltitudeMeters>2755.60009765625</AltitudeMeters>
            <DistanceMeters>NAN</DistanceMeters>
          </Trackpoint>
          <Trackpoint>
            <Time>2022-08-23T08:42:29.000Z</Time>
            <Position>
              <LatitudeDegrees>42.7882553078234195709228515625</LatitudeDegrees>
              <LongitudeDegrees>-0.26516427285969257354736328125</LongitudeDegrees>
            </Position>
            <AltitudeMeters>2759.800048828125</AltitudeMeters>
            <DistanceMeters>NAN</DistanceMeters>
          </Trackpoint>
          <Trackpoint>
            <Time>2022-08-23T08:42:46.000Z</Time>
            <Position>
              <LatitudeDegrees>42.788220606744289398193359375</LatitudeDegrees>
              <LongitudeDegrees>-0.26512940414249897003173828125</LongitudeDegrees>
            </Position>
            <AltitudeMeters>2761.60009765625</AltitudeMeters>
            <DistanceMeters>NAN</DistanceMeters>
          </Trackpoint>
          <Trackpoint>
            <Time>2022-08-23T08:42:51.000Z</Time>
            <Position>
              <LatitudeDegrees>42.78821079991757869720458984375</LatitudeDegrees>
              <LongitudeDegrees>-0.265094451606273651123046875</LongitudeDegrees>
            </Position>
            <AltitudeMeters>2762.199951171875</AltitudeMeters>
            <DistanceMeters>NAN</DistanceMeters>
          </Trackpoint>
          <Trackpoint>
            <Time>2022-08-23T08:42:59.000Z</Time>
            <Position>
              <LatitudeDegrees>42.788209877908229827880859375</LatitudeDegrees>
              <LongitudeDegrees>-0.26504944078624248504638671875</LongitudeDegrees>
            </Position>
            <AltitudeMeters>2762.800048828125</AltitudeMeters>
            <DistanceMeters>NAN</DistanceMeters>
          </Trackpoint>
          <Trackpoint>
            <Time>2022-08-23T08:43:35.000Z</Time>
            <Position>
              <LatitudeDegrees>42.7880631946027278900146484375</LatitudeDegrees>
              <LongitudeDegrees>-0.26505899615585803985595703125</LongitudeDegrees>
            </Position>
            <AltitudeMeters>2769.60009765625</AltitudeMeters>
            <DistanceMeters>NAN</DistanceMeters>
          </Trackpoint>
          <Trackpoint>
            <Time>2022-08-23T08:43:39.000Z</Time>
            <Position>
              <LatitudeDegrees>42.78804123401641845703125</LatitudeDegrees>
              <LongitudeDegrees>-0.2650679647922515869140625</LongitudeDegrees>
            </Position>
            <AltitudeMeters>2770.60009765625</AltitudeMeters>
            <DistanceMeters>NAN</DistanceMeters>
          </Trackpoint>
          <Trackpoint>
            <Time>2022-08-23T08:43:50.000Z</Time>
            <Position>
              <LatitudeDegrees>42.7880072034895420074462890625</LatitudeDegrees>
              <LongitudeDegrees>-0.2650892548263072967529296875</LongitudeDegrees>
            </Position>
            <AltitudeMeters>2772.199951171875</AltitudeMeters>
            <DistanceMeters>NAN</DistanceMeters>
          </Trackpoint>
          <Trackpoint>
            <Time>2022-08-23T08:44:33.000Z</Time>
            <Position>
              <LatitudeDegrees>42.787979878485202789306640625</LatitudeDegrees>
              <LongitudeDegrees>-0.26497266255319118499755859375</LongitudeDegrees>
            </Position>
            <AltitudeMeters>2775.800048828125</AltitudeMeters>
            <DistanceMeters>NAN</DistanceMeters>
          </Trackpoint>
          <Trackpoint>
            <Time>2022-08-23T08:45:14.000Z</Time>
            <Position>
              <LatitudeDegrees>42.78786487877368927001953125</LatitudeDegrees>
              <LongitudeDegrees>-0.2648823894560337066650390625</LongitudeDegrees>
            </Position>
            <AltitudeMeters>2784.199951171875</AltitudeMeters>
            <DistanceMeters>NAN</DistanceMeters>
          </Trackpoint>
          <Trackpoint>
            <Time>2022-08-23T08:45:41.000Z</Time>
            <Position>
              <LatitudeDegrees>42.7878090552985668182373046875</LatitudeDegrees>
              <LongitudeDegrees>-0.2647794596850872039794921875</LongitudeDegrees>
            </Position>
            <AltitudeMeters>2788.60009765625</AltitudeMeters>
            <DistanceMeters>NAN</DistanceMeters>
          </Trackpoint>
          <Trackpoint>
            <Time>2022-08-23T08:45:56.000Z</Time>
            <Position>
              <LatitudeDegrees>42.78775465674698352813720703125</LatitudeDegrees>
              <LongitudeDegrees>-0.2647890150547027587890625</LongitudeDegrees>
            </Position>
            <AltitudeMeters>2791.800048828125</AltitudeMeters>
            <DistanceMeters>NAN</DistanceMeters>
          </Trackpoint>
          <Trackpoint>
            <Time>2022-08-23T08:46:31.000Z</Time>
            <Position>
              <LatitudeDegrees>42.7875839173793792724609375</LatitudeDegrees>
              <LongitudeDegrees>-0.26483838446438312530517578125</LongitudeDegrees>
            </Position>
            <AltitudeMeters>2801.199951171875</AltitudeMeters>
            <DistanceMeters>NAN</DistanceMeters>
          </Trackpoint>
          <Trackpoint>
            <Time>2022-08-23T08:47:15.000Z</Time>
            <Position>
              <LatitudeDegrees>42.7874731086194515228271484375</LatitudeDegrees>
              <LongitudeDegrees>-0.264764539897441864013671875</LongitudeDegrees>
            </Position>
            <AltitudeMeters>2808.199951171875</AltitudeMeters>
            <DistanceMeters>NAN</DistanceMeters>
          </Trackpoint>
          <Trackpoint>
            <Time>2022-08-23T08:48:06.000Z</Time>
            <Position>
              <LatitudeDegrees>42.7874006889760494232177734375</LatitudeDegrees>
              <LongitudeDegrees>-0.26467024348676204681396484375</LongitudeDegrees>
            </Position>
            <AltitudeMeters>2813.60009765625</AltitudeMeters>
            <DistanceMeters>NAN</DistanceMeters>
          </Trackpoint>
          <Trackpoint>
            <Time>2022-08-23T08:48:38.000Z</Time>
            <Position>
              <LatitudeDegrees>42.787266410887241363525390625</LatitudeDegrees>
              <LongitudeDegrees>-0.26482765562832355499267578125</LongitudeDegrees>
            </Position>
            <AltitudeMeters>2820.39990234375</AltitudeMeters>
            <DistanceMeters>NAN</DistanceMeters>
          </Trackpoint>
          <Trackpoint>
            <Time>2022-08-23T08:49:09.000Z</Time>
            <Position>
              <LatitudeDegrees>42.787202708423137664794921875</LatitudeDegrees>
              <LongitudeDegrees>-0.26491449214518070220947265625</LongitudeDegrees>
            </Position>
            <AltitudeMeters>2822.800048828125</AltitudeMeters>
            <DistanceMeters>NAN</DistanceMeters>
          </Trackpoint>
          <Trackpoint>
            <Time>2022-08-23T08:49:50.000Z</Time>
            <Position>
              <LatitudeDegrees>42.787077315151691436767578125</LatitudeDegrees>
              <LongitudeDegrees>-0.26485213078558444976806640625</LongitudeDegrees>
            </Position>
            <AltitudeMeters>2829</AltitudeMeters>
            <DistanceMeters>NAN</DistanceMeters>
          </Trackpoint>
          <Trackpoint>
            <Time>2022-08-23T08:50:47.000Z</Time>
            <Position>
              <LatitudeDegrees>42.78695485554635524749755859375</LatitudeDegrees>
              <LongitudeDegrees>-0.2648404799401760101318359375</LongitudeDegrees>
            </Position>
            <AltitudeMeters>2834.39990234375</AltitudeMeters>
            <DistanceMeters>NAN</DistanceMeters>
          </Trackpoint>
          <Trackpoint>
            <Time>2022-08-23T08:51:37.000Z</Time>
            <Position>
              <LatitudeDegrees>42.78683222830295562744140625</LatitudeDegrees>
              <LongitudeDegrees>-0.26473059318959712982177734375</LongitudeDegrees>
            </Position>
            <AltitudeMeters>2841.199951171875</AltitudeMeters>
            <DistanceMeters>NAN</DistanceMeters>
          </Trackpoint>
          <Trackpoint>
            <Time>2022-08-23T08:52:31.000Z</Time>
            <Position>
              <LatitudeDegrees>42.78671982698142528533935546875</LatitudeDegrees>
              <LongitudeDegrees>-0.2646208740770816802978515625</LongitudeDegrees>
            </Position>
            <AltitudeMeters>2848.60009765625</AltitudeMeters>
            <DistanceMeters>NAN</DistanceMeters>
          </Trackpoint>
          <Trackpoint>
            <Time>2022-08-23T08:53:16.000Z</Time>
            <Position>
              <LatitudeDegrees>42.78656677342951297760009765625</LatitudeDegrees>
              <LongitudeDegrees>-0.264688767492771148681640625</LongitudeDegrees>
            </Position>
            <AltitudeMeters>2854.199951171875</AltitudeMeters>
            <DistanceMeters>NAN</DistanceMeters>
          </Trackpoint>
          <Trackpoint>
            <Time>2022-08-23T08:53:34.000Z</Time>
            <Position>
              <LatitudeDegrees>42.78653944842517375946044921875</LatitudeDegrees>
              <LongitudeDegrees>-0.2646668069064617156982421875</LongitudeDegrees>
            </Position>
            <AltitudeMeters>2855.199951171875</AltitudeMeters>
            <DistanceMeters>NAN</DistanceMeters>
          </Trackpoint>
          <Trackpoint>
            <Time>2022-08-23T08:54:34.000Z</Time>
            <Position>
              <LatitudeDegrees>42.786520086228847503662109375</LatitudeDegrees>
              <LongitudeDegrees>-0.26444778777658939361572265625</LongitudeDegrees>
            </Position>
            <AltitudeMeters>2859.199951171875</AltitudeMeters>
            <DistanceMeters>NAN</DistanceMeters>
          </Trackpoint>
          <Trackpoint>
            <Time>2022-08-23T08:55:46.000Z</Time>
            <Position>
              <LatitudeDegrees>42.786483876407146453857421875</LatitudeDegrees>
              <LongitudeDegrees>-0.26436581276357173919677734375</LongitudeDegrees>
            </Position>
            <AltitudeMeters>2862.199951171875</AltitudeMeters>
            <DistanceMeters>NAN</DistanceMeters>
          </Trackpoint>
          <Trackpoint>
            <Time>2022-08-23T08:55:59.000Z</Time>
            <Position>
              <LatitudeDegrees>42.78645026497542858123779296875</LatitudeDegrees>
              <LongitudeDegrees>-0.264313258230686187744140625</LongitudeDegrees>
            </Position>
            <AltitudeMeters>2864.800048828125</AltitudeMeters>
            <DistanceMeters>NAN</DistanceMeters>
          </Trackpoint>
          <Trackpoint>
            <Time>2022-08-23T08:56:17.000Z</Time>
            <Position>
              <LatitudeDegrees>42.78637315146625041961669921875</LatitudeDegrees>
              <LongitudeDegrees>-0.2643777988851070404052734375</LongitudeDegrees>
            </Position>
            <AltitudeMeters>2864.800048828125</AltitudeMeters>
            <DistanceMeters>NAN</DistanceMeters>
          </Trackpoint>
          <Trackpoint>
            <Time>2022-08-23T08:56:21.000Z</Time>
            <Position>
              <LatitudeDegrees>42.786362506449222564697265625</LatitudeDegrees>
              <LongitudeDegrees>-0.26439799927175045013427734375</LongitudeDegrees>
            </Position>
            <AltitudeMeters>2864.800048828125</AltitudeMeters>
            <DistanceMeters>NAN</DistanceMeters>
          </Trackpoint>
          <Trackpoint>
            <Time>2022-08-23T08:56:35.000Z</Time>
            <Position>
              <LatitudeDegrees>42.7863405458629131317138671875</LatitudeDegrees>
              <LongitudeDegrees>-0.26443772949278354644775390625</LongitudeDegrees>
            </Position>
            <AltitudeMeters>2864.800048828125</AltitudeMeters>
            <DistanceMeters>NAN</DistanceMeters>
          </Trackpoint>
          <Trackpoint>
            <Time>2022-08-23T08:57:05.000Z</Time>
            <Position>
              <LatitudeDegrees>42.78630995191633701324462890625</LatitudeDegrees>
              <LongitudeDegrees>-0.26435474865138530731201171875</LongitudeDegrees>
            </Position>
            <AltitudeMeters>2867.39990234375</AltitudeMeters>
            <DistanceMeters>NAN</DistanceMeters>
          </Trackpoint>
          <Trackpoint>
            <Time>2022-08-23T08:57:48.000Z</Time>
            <Position>
              <LatitudeDegrees>42.78624557889997959136962890625</LatitudeDegrees>
              <LongitudeDegrees>-0.264245532453060150146484375</LongitudeDegrees>
            </Position>
            <AltitudeMeters>2873.60009765625</AltitudeMeters>
            <DistanceMeters>NAN</DistanceMeters>
          </Trackpoint>
          <Trackpoint>
            <Time>2022-08-23T08:58:00.000Z</Time>
            <Position>
              <LatitudeDegrees>42.7862463332712650299072265625</LatitudeDegrees>
              <LongitudeDegrees>-0.2643197961151599884033203125</LongitudeDegrees>
            </Position>
            <AltitudeMeters>2870.60009765625</AltitudeMeters>
            <DistanceMeters>NAN</DistanceMeters>
          </Trackpoint>
          <Trackpoint>
            <Time>2022-08-23T08:58:01.000Z</Time>
            <Position>
              <LatitudeDegrees>42.7862443216145038604736328125</LatitudeDegrees>
              <LongitudeDegrees>-0.26432457379996776580810546875</LongitudeDegrees>
            </Position>
            <AltitudeMeters>2870.39990234375</AltitudeMeters>
            <DistanceMeters>NAN</DistanceMeters>
          </Trackpoint>
          <Trackpoint>
            <Time>2022-08-23T08:58:03.000Z</Time>
            <Position>
              <LatitudeDegrees>42.78624608181416988372802734375</LatitudeDegrees>
              <LongitudeDegrees>-0.26432842947542667388916015625</LongitudeDegrees>
            </Position>
            <AltitudeMeters>2870.199951171875</AltitudeMeters>
            <DistanceMeters>NAN</DistanceMeters>
          </Trackpoint>
          <Trackpoint>
            <Time>2022-08-23T08:58:04.000Z</Time>
            <Position>
              <LatitudeDegrees>42.7862466685473918914794921875</LatitudeDegrees>
              <LongitudeDegrees>-0.2643357217311859130859375</LongitudeDegrees>
            </Position>
            <AltitudeMeters>2870</AltitudeMeters>
            <DistanceMeters>NAN</DistanceMeters>
          </Trackpoint>
          <Trackpoint>
            <Time>2022-08-23T08:58:05.000Z</Time>
            <Position>
              <LatitudeDegrees>42.7862453274428844451904296875</LatitudeDegrees>
              <LongitudeDegrees>-0.26434536091983318328857421875</LongitudeDegrees>
            </Position>
            <AltitudeMeters>2869.60009765625</AltitudeMeters>
            <DistanceMeters>NAN</DistanceMeters>
          </Trackpoint>
          <Trackpoint>
            <Time>2022-08-23T08:58:07.000Z</Time>
            <Position>
              <LatitudeDegrees>42.78623987920582294464111328125</LatitudeDegrees>
              <LongitudeDegrees>-0.26436388492584228515625</LongitudeDegrees>
            </Position>
            <AltitudeMeters>2869.199951171875</AltitudeMeters>
            <DistanceMeters>NAN</DistanceMeters>
          </Trackpoint>
          <Trackpoint>
            <Time>2022-08-23T08:58:08.000Z</Time>
            <Position>
              <LatitudeDegrees>42.786233089864253997802734375</LatitudeDegrees>
              <LongitudeDegrees>-0.26437469758093357086181640625</LongitudeDegrees>
            </Position>
            <AltitudeMeters>2869</AltitudeMeters>
            <DistanceMeters>NAN</DistanceMeters>
          </Trackpoint>
          <Trackpoint>
            <Time>2022-08-23T08:58:09.000Z</Time>
            <Position>
              <LatitudeDegrees>42.78622361831367015838623046875</LatitudeDegrees>
              <LongitudeDegrees>-0.2643866837024688720703125</LongitudeDegrees>
            </Position>
            <AltitudeMeters>2869</AltitudeMeters>
            <DistanceMeters>NAN</DistanceMeters>
          </Trackpoint>
          <Trackpoint>
            <Time>2022-08-23T08:58:19.000Z</Time>
            <Position>
              <LatitudeDegrees>42.78615505434572696685791015625</LatitudeDegrees>
              <LongitudeDegrees>-0.26443898677825927734375</LongitudeDegrees>
            </Position>
            <AltitudeMeters>2869.800048828125</AltitudeMeters>
            <DistanceMeters>NAN</DistanceMeters>
          </Trackpoint>
          <Trackpoint>
            <Time>2022-08-23T08:58:22.000Z</Time>
            <Position>
              <LatitudeDegrees>42.78613141737878322601318359375</LatitudeDegrees>
              <LongitudeDegrees>-0.26445851661264896392822265625</LongitudeDegrees>
            </Position>
            <AltitudeMeters>2870</AltitudeMeters>
            <DistanceMeters>NAN</DistanceMeters>
          </Trackpoint>
          <Trackpoint>
            <Time>2022-08-23T08:58:23.000Z</Time>
            <Position>
              <LatitudeDegrees>42.78612789697945117950439453125</LatitudeDegrees>
              <LongitudeDegrees>-0.264463126659393310546875</LongitudeDegrees>
            </Position>
            <AltitudeMeters>2870</AltitudeMeters>
            <DistanceMeters>NAN</DistanceMeters>
          </Trackpoint>
          <Trackpoint>
            <Time>2022-08-23T08:58:25.000Z</Time>
            <Position>
              <LatitudeDegrees>42.78612219728529453277587890625</LatitudeDegrees>
              <LongitudeDegrees>-0.264478214085102081298828125</LongitudeDegrees>
            </Position>
            <AltitudeMeters>2869.800048828125</AltitudeMeters>
            <DistanceMeters>NAN</DistanceMeters>
          </Trackpoint>
          <Trackpoint>
            <Time>2022-08-23T08:58:26.000Z</Time>
            <Position>
              <LatitudeDegrees>42.786119766533374786376953125</LatitudeDegrees>
              <LongitudeDegrees>-0.264488942921161651611328125</LongitudeDegrees>
            </Position>
            <AltitudeMeters>2869.60009765625</AltitudeMeters>
            <DistanceMeters>NAN</DistanceMeters>
          </Trackpoint>
          <Trackpoint>
            <Time>2022-08-23T08:58:48.000Z</Time>
            <Position>
              <LatitudeDegrees>42.786043323576450347900390625</LatitudeDegrees>
              <LongitudeDegrees>-0.2645561657845973968505859375</LongitudeDegrees>
            </Position>
            <AltitudeMeters>2870</AltitudeMeters>
            <DistanceMeters>NAN</DistanceMeters>
          </Trackpoint>
          <Trackpoint>
            <Time>2022-08-23T08:58:50.000Z</Time>
            <Position>
              <LatitudeDegrees>42.786039970815181732177734375</LatitudeDegrees>
              <LongitudeDegrees>-0.264557339251041412353515625</LongitudeDegrees>
            </Position>
            <AltitudeMeters>2870.199951171875</AltitudeMeters>
            <DistanceMeters>NAN</DistanceMeters>
          </Trackpoint>
          <Trackpoint>
            <Time>2022-08-23T08:58:52.000Z</Time>
            <Position>
              <LatitudeDegrees>42.78603854589164257049560546875</LatitudeDegrees>
              <LongitudeDegrees>-0.2645591832697391510009765625</LongitudeDegrees>
            </Position>
            <AltitudeMeters>2870.199951171875</AltitudeMeters>
            <DistanceMeters>NAN</DistanceMeters>
          </Trackpoint>
          <Trackpoint>
            <Time>2022-08-23T08:58:53.000Z</Time>
            <Position>
              <LatitudeDegrees>42.7860361151397228240966796875</LatitudeDegrees>
              <LongitudeDegrees>-0.26456312276422977447509765625</LongitudeDegrees>
            </Position>
            <AltitudeMeters>2870.199951171875</AltitudeMeters>
            <DistanceMeters>NAN</DistanceMeters>
          </Trackpoint>
          <Trackpoint>
            <Time>2022-08-23T08:58:54.000Z</Time>
            <Position>
              <LatitudeDegrees>42.78603418730199337005615234375</LatitudeDegrees>
              <LongitudeDegrees>-0.2645648829638957977294921875</LongitudeDegrees>
            </Position>
            <AltitudeMeters>2870.199951171875</AltitudeMeters>
            <DistanceMeters>NAN</DistanceMeters>
          </Trackpoint>
          <Trackpoint>
            <Time>2022-08-23T08:58:55.000Z</Time>
            <Position>
              <LatitudeDegrees>42.78602932579815387725830078125</LatitudeDegrees>
              <LongitudeDegrees>-0.26456764899194240570068359375</LongitudeDegrees>
            </Position>
            <AltitudeMeters>2870.199951171875</AltitudeMeters>
            <DistanceMeters>NAN</DistanceMeters>
          </Trackpoint>
          <Trackpoint>
            <Time>2022-08-23T08:58:56.000Z</Time>
            <Position>
              <LatitudeDegrees>42.78602647595107555389404296875</LatitudeDegrees>
              <LongitudeDegrees>-0.26456748135387897491455078125</LongitudeDegrees>
            </Position>
            <AltitudeMeters>2870.199951171875</AltitudeMeters>
            <DistanceMeters>NAN</DistanceMeters>
          </Trackpoint>
          <Trackpoint>
            <Time>2022-08-23T08:58:59.000Z</Time>
            <Position>
              <LatitudeDegrees>42.786017842590808868408203125</LatitudeDegrees>
              <LongitudeDegrees>-0.264575779438018798828125</LongitudeDegrees>
            </Position>
            <AltitudeMeters>2870.199951171875</AltitudeMeters>
            <DistanceMeters>NAN</DistanceMeters>
          </Trackpoint>
          <Trackpoint>
            <Time>2022-08-23T08:59:00.000Z</Time>
            <Position>
              <LatitudeDegrees>42.7860139869153499603271484375</LatitudeDegrees>
              <LongitudeDegrees>-0.26457938365638256072998046875</LongitudeDegrees>
            </Position>
            <AltitudeMeters>2870.199951171875</AltitudeMeters>
            <DistanceMeters>NAN</DistanceMeters>
          </Trackpoint>
          <Trackpoint>
            <Time>2022-08-23T08:59:01.000Z</Time>
            <Position>
              <LatitudeDegrees>42.786011807620525360107421875</LatitudeDegrees>
              <LongitudeDegrees>-0.2645846642553806304931640625</LongitudeDegrees>
            </Position>
            <AltitudeMeters>2870.199951171875</AltitudeMeters>
            <DistanceMeters>NAN</DistanceMeters>
          </Trackpoint>
          <Trackpoint>
            <Time>2022-08-23T08:59:02.000Z</Time>
            <Position>
              <LatitudeDegrees>42.786009125411510467529296875</LatitudeDegrees>
              <LongitudeDegrees>-0.2645878493785858154296875</LongitudeDegrees>
            </Position>
            <AltitudeMeters>2870.199951171875</AltitudeMeters>
            <DistanceMeters>NAN</DistanceMeters>
          </Trackpoint>
          <Trackpoint>
            <Time>2022-08-23T08:59:03.000Z</Time>
            <Position>
              <LatitudeDegrees>42.78600619174540042877197265625</LatitudeDegrees>
              <LongitudeDegrees>-0.2645923756062984466552734375</LongitudeDegrees>
            </Position>
            <AltitudeMeters>2870.199951171875</AltitudeMeters>
            <DistanceMeters>NAN</DistanceMeters>
          </Trackpoint>
          <Trackpoint>
            <Time>2022-08-23T08:59:08.000Z</Time>
            <Position>
              <LatitudeDegrees>42.785990349948406219482421875</LatitudeDegrees>
              <LongitudeDegrees>-0.26459648273885250091552734375</LongitudeDegrees>
            </Position>
            <AltitudeMeters>2870.39990234375</AltitudeMeters>
            <DistanceMeters>NAN</DistanceMeters>
          </Trackpoint>
          <Trackpoint>
            <Time>2022-08-23T08:59:10.000Z</Time>
            <Position>
              <LatitudeDegrees>42.78598389588296413421630859375</LatitudeDegrees>
              <LongitudeDegrees>-0.26460436172783374786376953125</LongitudeDegrees>
            </Position>
            <AltitudeMeters>2870.39990234375</AltitudeMeters>
            <DistanceMeters>NAN</DistanceMeters>
          </Trackpoint>
          <Trackpoint>
            <Time>2022-08-23T08:59:11.000Z</Time>
            <Position>
              <LatitudeDegrees>42.78598221950232982635498046875</LatitudeDegrees>
              <LongitudeDegrees>-0.26460838504135608673095703125</LongitudeDegrees>
            </Position>
            <AltitudeMeters>2870.39990234375</AltitudeMeters>
            <DistanceMeters>NAN</DistanceMeters>
          </Trackpoint>
          <Trackpoint>
            <Time>2022-08-23T08:59:14.000Z</Time>
            <Position>
              <LatitudeDegrees>42.78598062694072723388671875</LatitudeDegrees>
              <LongitudeDegrees>-0.264617688953876495361328125</LongitudeDegrees>
            </Position>
            <AltitudeMeters>2870.39990234375</AltitudeMeters>
            <DistanceMeters>NAN</DistanceMeters>
          </Trackpoint>
          <Trackpoint>
            <Time>2022-08-23T08:59:22.000Z</Time>
            <Position>
              <LatitudeDegrees>42.78596646152436733245849609375</LatitudeDegrees>
              <LongitudeDegrees>-0.26465029455721378326416015625</LongitudeDegrees>
            </Position>
            <AltitudeMeters>2870.199951171875</AltitudeMeters>
            <DistanceMeters>NAN</DistanceMeters>
          </Trackpoint>
          <Trackpoint>
            <Time>2022-08-23T08:59:25.000Z</Time>
            <Position>
              <LatitudeDegrees>42.78596830554306507110595703125</LatitudeDegrees>
              <LongitudeDegrees>-0.2646627835929393768310546875</LongitudeDegrees>
            </Position>
            <AltitudeMeters>2869.800048828125</AltitudeMeters>
            <DistanceMeters>NAN</DistanceMeters>
          </Trackpoint>
          <Trackpoint>
            <Time>2022-08-23T08:59:28.000Z</Time>
            <Position>
              <LatitudeDegrees>42.7859764359891414642333984375</LatitudeDegrees>
              <LongitudeDegrees>-0.2646755240857601165771484375</LongitudeDegrees>
            </Position>
            <AltitudeMeters>2869.60009765625</AltitudeMeters>
            <DistanceMeters>NAN</DistanceMeters>
          </Trackpoint>
          <Trackpoint>
            <Time>2022-08-23T08:59:36.000Z</Time>
            <Position>
              <LatitudeDegrees>42.7859724126756191253662109375</LatitudeDegrees>
              <LongitudeDegrees>-0.26469958014786243438720703125</LongitudeDegrees>
            </Position>
            <AltitudeMeters>2869.199951171875</AltitudeMeters>
            <DistanceMeters>NAN</DistanceMeters>
          </Trackpoint>
          <Trackpoint>
            <Time>2022-08-23T08:59:43.000Z</Time>
            <Position>
              <LatitudeDegrees>42.7859563194215297698974609375</LatitudeDegrees>
              <LongitudeDegrees>-0.2646899409592151641845703125</LongitudeDegrees>
            </Position>
            <AltitudeMeters>2869.60009765625</AltitudeMeters>
            <DistanceMeters>NAN</DistanceMeters>
          </Trackpoint>
          <Trackpoint>
            <Time>2022-08-23T08:59:52.000Z</Time>
            <Position>
              <LatitudeDegrees>42.7859362028539180755615234375</LatitudeDegrees>
              <LongitudeDegrees>-0.2647006697952747344970703125</LongitudeDegrees>
            </Position>
            <AltitudeMeters>2869.800048828125</AltitudeMeters>
            <DistanceMeters>NAN</DistanceMeters>
          </Trackpoint>
          <Trackpoint>
            <Time>2022-08-23T09:00:01.000Z</Time>
            <Position>
              <LatitudeDegrees>42.78589840047061443328857421875</LatitudeDegrees>
              <LongitudeDegrees>-0.26468415744602680206298828125</LongitudeDegrees>
            </Position>
            <AltitudeMeters>2871.39990234375</AltitudeMeters>
            <DistanceMeters>NAN</DistanceMeters>
          </Trackpoint>
          <Trackpoint>
            <Time>2022-08-23T09:00:10.000Z</Time>
            <Position>
              <LatitudeDegrees>42.78586319647729396820068359375</LatitudeDegrees>
              <LongitudeDegrees>-0.26469287462532520294189453125</LongitudeDegrees>
            </Position>
            <AltitudeMeters>2872.60009765625</AltitudeMeters>
            <DistanceMeters>NAN</DistanceMeters>
          </Trackpoint>
          <Trackpoint>
            <Time>2022-08-23T09:00:11.000Z</Time>
            <Position>
              <LatitudeDegrees>42.78586403466761112213134765625</LatitudeDegrees>
              <LongitudeDegrees>-0.2646963112056255340576171875</LongitudeDegrees>
            </Position>
            <AltitudeMeters>2872.800048828125</AltitudeMeters>
            <DistanceMeters>NAN</DistanceMeters>
          </Trackpoint>
          <Trackpoint>
            <Time>2022-08-23T09:00:40.000Z</Time>
            <Position>
              <LatitudeDegrees>42.78584190644323825836181640625</LatitudeDegrees>
              <LongitudeDegrees>-0.26468248106539249420166015625</LongitudeDegrees>
            </Position>
            <AltitudeMeters>2871.800048828125</AltitudeMeters>
            <DistanceMeters>NAN</DistanceMeters>
          </Trackpoint>
          <Trackpoint>
            <Time>2022-08-23T09:01:00.000Z</Time>
            <Position>
              <LatitudeDegrees>42.78587065637111663818359375</LatitudeDegrees>
              <LongitudeDegrees>-0.2645893581211566925048828125</LongitudeDegrees>
            </Position>
            <AltitudeMeters>2871.800048828125</AltitudeMeters>
            <DistanceMeters>NAN</DistanceMeters>
          </Trackpoint>
          <Trackpoint>
            <Time>2022-08-23T09:01:43.000Z</Time>
            <Position>
              <LatitudeDegrees>42.7858007512986660003662109375</LatitudeDegrees>
              <LongitudeDegrees>-0.26463805697858333587646484375</LongitudeDegrees>
            </Position>
            <AltitudeMeters>2870.199951171875</AltitudeMeters>
            <DistanceMeters>NAN</DistanceMeters>
          </Trackpoint>
          <Trackpoint>
            <Time>2022-08-23T09:01:58.000Z</Time>
            <Position>
              <LatitudeDegrees>42.78577602468430995941162109375</LatitudeDegrees>
              <LongitudeDegrees>-0.26461710222065448760986328125</LongitudeDegrees>
            </Position>
            <AltitudeMeters>2870.199951171875</AltitudeMeters>
            <DistanceMeters>NAN</DistanceMeters>
          </Trackpoint>
          <Trackpoint>
            <Time>2022-08-23T09:02:01.000Z</Time>
            <Position>
              <LatitudeDegrees>42.7857853285968303680419921875</LatitudeDegrees>
              <LongitudeDegrees>-0.264605619013309478759765625</LongitudeDegrees>
            </Position>
            <AltitudeMeters>2870.60009765625</AltitudeMeters>
            <DistanceMeters>NAN</DistanceMeters>
          </Trackpoint>
          <Trackpoint>
            <Time>2022-08-23T09:02:05.000Z</Time>
            <Position>
              <LatitudeDegrees>42.78578993864357471466064453125</LatitudeDegrees>
              <LongitudeDegrees>-0.2646017633378505706787109375</LongitudeDegrees>
            </Position>
            <AltitudeMeters>2870.60009765625</AltitudeMeters>
            <DistanceMeters>NAN</DistanceMeters>
          </Trackpoint>
          <Trackpoint>
            <Time>2022-08-23T09:02:37.000Z</Time>
            <Position>
              <LatitudeDegrees>42.78576429001986980438232421875</LatitudeDegrees>
              <LongitudeDegrees>-0.26452925987541675567626953125</LongitudeDegrees>
            </Position>
            <AltitudeMeters>2871.60009765625</AltitudeMeters>
            <DistanceMeters>NAN</DistanceMeters>
          </Trackpoint>
          <Trackpoint>
            <Time>2022-08-23T09:02:49.000Z</Time>
            <Position>
              <LatitudeDegrees>42.785744257271289825439453125</LatitudeDegrees>
              <LongitudeDegrees>-0.26452951133251190185546875</LongitudeDegrees>
            </Position>
            <AltitudeMeters>2871.199951171875</AltitudeMeters>
            <DistanceMeters>NAN</DistanceMeters>
          </Trackpoint>
          <Trackpoint>
            <Time>2022-08-23T09:02:53.000Z</Time>
            <Position>
              <LatitudeDegrees>42.7857437543570995330810546875</LatitudeDegrees>
              <LongitudeDegrees>-0.26452909223735332489013671875</LongitudeDegrees>
            </Position>
            <AltitudeMeters>2871.199951171875</AltitudeMeters>
            <DistanceMeters>NAN</DistanceMeters>
          </Trackpoint>
          <Trackpoint>
            <Time>2022-08-23T09:02:54.000Z</Time>
            <Position>
              <LatitudeDegrees>42.7857437543570995330810546875</LatitudeDegrees>
              <LongitudeDegrees>-0.2645283378660678863525390625</LongitudeDegrees>
            </Position>
            <AltitudeMeters>2871.199951171875</AltitudeMeters>
            <DistanceMeters>NAN</DistanceMeters>
          </Trackpoint>
          <Trackpoint>
            <Time>2022-08-23T09:02:55.000Z</Time>
            <Position>
              <LatitudeDegrees>42.78574325144290924072265625</LatitudeDegrees>
              <LongitudeDegrees>-0.26452808640897274017333984375</LongitudeDegrees>
            </Position>
            <AltitudeMeters>2871.199951171875</AltitudeMeters>
            <DistanceMeters>NAN</DistanceMeters>
          </Trackpoint>
          <Trackpoint>
            <Time>2022-08-23T09:02:56.000Z</Time>
            <Position>
              <LatitudeDegrees>42.78574232943356037139892578125</LatitudeDegrees>
              <LongitudeDegrees>-0.264527834951877593994140625</LongitudeDegrees>
            </Position>
            <AltitudeMeters>2871.199951171875</AltitudeMeters>
            <DistanceMeters>NAN</DistanceMeters>
          </Trackpoint>
          <Trackpoint>
            <Time>2022-08-23T09:03:01.000Z</Time>
            <Position>
              <LatitudeDegrees>42.7857367135584354400634765625</LatitudeDegrees>
              <LongitudeDegrees>-0.264526493847370147705078125</LongitudeDegrees>
            </Position>
            <AltitudeMeters>2871.199951171875</AltitudeMeters>
            <DistanceMeters>NAN</DistanceMeters>
          </Trackpoint>
          <Trackpoint>
            <Time>2022-08-23T09:03:02.000Z</Time>
            <Position>
              <LatitudeDegrees>42.78573629446327686309814453125</LatitudeDegrees>
              <LongitudeDegrees>-0.2645249851047992706298828125</LongitudeDegrees>
            </Position>
            <AltitudeMeters>2871.199951171875</AltitudeMeters>
            <DistanceMeters>NAN</DistanceMeters>
          </Trackpoint>
          <Trackpoint>
            <Time>2022-08-23T09:03:03.000Z</Time>
            <Position>
              <LatitudeDegrees>42.78573646210134029388427734375</LatitudeDegrees>
              <LongitudeDegrees>-0.26452590711414813995361328125</LongitudeDegrees>
            </Position>
            <AltitudeMeters>2871.199951171875</AltitudeMeters>
            <DistanceMeters>NAN</DistanceMeters>
          </Trackpoint>
          <Trackpoint>
            <Time>2022-08-23T09:09:40.000Z</Time>
            <Position>
              <LatitudeDegrees>42.785725481808185577392578125</LatitudeDegrees>
              <LongitudeDegrees>-0.2645449340343475341796875</LongitudeDegrees>
            </Position>
            <AltitudeMeters>2870.800048828125</AltitudeMeters>
            <DistanceMeters>NAN</DistanceMeters>
          </Trackpoint>
          <Trackpoint>
            <Time>2022-08-23T09:09:41.000Z</Time>
            <Position>
              <LatitudeDegrees>42.785724811255931854248046875</LatitudeDegrees>
              <LongitudeDegrees>-0.2645457722246646881103515625</LongitudeDegrees>
            </Position>
            <AltitudeMeters>2870.800048828125</AltitudeMeters>
            <DistanceMeters>NAN</DistanceMeters>
          </Trackpoint>
          <Trackpoint>
            <Time>2022-08-23T09:09:43.000Z</Time>
            <Position>
              <LatitudeDegrees>42.7857243083417415618896484375</LatitudeDegrees>
              <LongitudeDegrees>-0.2645417489111423492431640625</LongitudeDegrees>
            </Position>
            <AltitudeMeters>2870.800048828125</AltitudeMeters>
            <DistanceMeters>NAN</DistanceMeters>
          </Trackpoint>
          <Trackpoint>
            <Time>2022-08-23T09:09:44.000Z</Time>
            <Position>
              <LatitudeDegrees>42.785721458494663238525390625</LatitudeDegrees>
              <LongitudeDegrees>-0.26454015634953975677490234375</LongitudeDegrees>
            </Position>
            <AltitudeMeters>2870.800048828125</AltitudeMeters>
            <DistanceMeters>NAN</DistanceMeters>
          </Trackpoint>
          <Trackpoint>
            <Time>2022-08-23T09:09:46.000Z</Time>
            <Position>
              <LatitudeDegrees>42.78571735136210918426513671875</LatitudeDegrees>
              <LongitudeDegrees>-0.26453881524503231048583984375</LongitudeDegrees>
            </Position>
            <AltitudeMeters>2870.60009765625</AltitudeMeters>
            <DistanceMeters>NAN</DistanceMeters>
          </Trackpoint>
          <Trackpoint>
            <Time>2022-08-23T09:09:47.000Z</Time>
            <Position>
              <LatitudeDegrees>42.78571466915309429168701171875</LatitudeDegrees>
              <LongitudeDegrees>-0.264540575444698333740234375</LongitudeDegrees>
            </Position>
            <AltitudeMeters>2870.60009765625</AltitudeMeters>
            <DistanceMeters>NAN</DistanceMeters>
          </Trackpoint>
          <Trackpoint>
            <Time>2022-08-23T09:09:48.000Z</Time>
            <Position>
              <LatitudeDegrees>42.7857125736773014068603515625</LatitudeDegrees>
              <LongitudeDegrees>-0.26454049162566661834716796875</LongitudeDegrees>
            </Position>
            <AltitudeMeters>2870.60009765625</AltitudeMeters>
            <DistanceMeters>NAN</DistanceMeters>
          </Trackpoint>
          <Trackpoint>
            <Time>2022-08-23T09:10:26.000Z</Time>
            <Position>
              <LatitudeDegrees>42.7856934629380702972412109375</LatitudeDegrees>
              <LongitudeDegrees>-0.26455901563167572021484375</LongitudeDegrees>
            </Position>
            <AltitudeMeters>2870</AltitudeMeters>
            <DistanceMeters>NAN</DistanceMeters>
          </Trackpoint>
          <Trackpoint>
            <Time>2022-08-23T09:10:50.000Z</Time>
            <Position>
              <LatitudeDegrees>42.78569371439516544342041015625</LatitudeDegrees>
              <LongitudeDegrees>-0.26458273641765117645263671875</LongitudeDegrees>
            </Position>
            <AltitudeMeters>2869.800048828125</AltitudeMeters>
            <DistanceMeters>NAN</DistanceMeters>
          </Trackpoint>
          <Trackpoint>
            <Time>2022-08-23T09:10:57.000Z</Time>
            <Position>
              <LatitudeDegrees>42.7856981568038463592529296875</LatitudeDegrees>
              <LongitudeDegrees>-0.26459145359694957733154296875</LongitudeDegrees>
            </Position>
            <AltitudeMeters>2869.800048828125</AltitudeMeters>
            <DistanceMeters>NAN</DistanceMeters>
          </Trackpoint>
          <Trackpoint>
            <Time>2022-08-23T09:11:08.000Z</Time>
            <Position>
              <LatitudeDegrees>42.78569094836711883544921875</LatitudeDegrees>
              <LongitudeDegrees>-0.26462196372449398040771484375</LongitudeDegrees>
            </Position>
            <AltitudeMeters>2869.199951171875</AltitudeMeters>
            <DistanceMeters>NAN</DistanceMeters>
          </Trackpoint>
          <Trackpoint>
            <Time>2022-08-23T09:11:14.000Z</Time>
            <Position>
              <LatitudeDegrees>42.78569421730935573577880859375</LatitudeDegrees>
              <LongitudeDegrees>-0.26465356349945068359375</LongitudeDegrees>
            </Position>
            <AltitudeMeters>2868.800048828125</AltitudeMeters>
            <DistanceMeters>NAN</DistanceMeters>
          </Trackpoint>
          <Trackpoint>
            <Time>2022-08-23T09:11:20.000Z</Time>
            <Position>
              <LatitudeDegrees>42.78567611239850521087646484375</LatitudeDegrees>
              <LongitudeDegrees>-0.2646772004663944244384765625</LongitudeDegrees>
            </Position>
            <AltitudeMeters>2869.60009765625</AltitudeMeters>
            <DistanceMeters>NAN</DistanceMeters>
          </Trackpoint>
          <Trackpoint>
            <Time>2022-08-23T09:11:21.000Z</Time>
            <Position>
              <LatitudeDegrees>42.78567460365593433380126953125</LatitudeDegrees>
              <LongitudeDegrees>-0.26468365453183650970458984375</LongitudeDegrees>
            </Position>
            <AltitudeMeters>2870</AltitudeMeters>
            <DistanceMeters>NAN</DistanceMeters>
          </Trackpoint>
          <Trackpoint>
            <Time>2022-08-23T09:11:22.000Z</Time>
            <Position>
              <LatitudeDegrees>42.78567510657012462615966796875</LatitudeDegrees>
              <LongitudeDegrees>-0.26469119824469089508056640625</LongitudeDegrees>
            </Position>
            <AltitudeMeters>2870.39990234375</AltitudeMeters>
            <DistanceMeters>NAN</DistanceMeters>
          </Trackpoint>
          <Trackpoint>
            <Time>2022-08-23T09:11:24.000Z</Time>
            <Position>
              <LatitudeDegrees>42.785677202045917510986328125</LatitudeDegrees>
              <LongitudeDegrees>-0.2646976523101329803466796875</LongitudeDegrees>
            </Position>
            <AltitudeMeters>2870.800048828125</AltitudeMeters>
            <DistanceMeters>NAN</DistanceMeters>
          </Trackpoint>
          <Trackpoint>
            <Time>2022-08-23T09:11:27.000Z</Time>
            <Position>
              <LatitudeDegrees>42.7856713347136974334716796875</LatitudeDegrees>
              <LongitudeDegrees>-0.264717601239681243896484375</LongitudeDegrees>
            </Position>
            <AltitudeMeters>2871.800048828125</AltitudeMeters>
            <DistanceMeters>NAN</DistanceMeters>
          </Trackpoint>
          <Trackpoint>
            <Time>2022-08-23T09:11:28.000Z</Time>
            <Position>
              <LatitudeDegrees>42.785664461553096771240234375</LatitudeDegrees>
              <LongitudeDegrees>-0.26472506113350391387939453125</LongitudeDegrees>
            </Position>
            <AltitudeMeters>2872.199951171875</AltitudeMeters>
            <DistanceMeters>NAN</DistanceMeters>
          </Trackpoint>
          <Trackpoint>
            <Time>2022-08-23T09:11:29.000Z</Time>
            <Position>
              <LatitudeDegrees>42.78566119261085987091064453125</LatitudeDegrees>
              <LongitudeDegrees>-0.26473042555153369903564453125</LongitudeDegrees>
            </Position>
            <AltitudeMeters>2872.60009765625</AltitudeMeters>
            <DistanceMeters>NAN</DistanceMeters>
          </Trackpoint>
          <Trackpoint>
            <Time>2022-08-23T09:11:32.000Z</Time>
            <Position>
              <LatitudeDegrees>42.785651721060276031494140625</LatitudeDegrees>
              <LongitudeDegrees>-0.26474677026271820068359375</LongitudeDegrees>
            </Position>
            <AltitudeMeters>2873.39990234375</AltitudeMeters>
            <DistanceMeters>NAN</DistanceMeters>
          </Trackpoint>
          <Trackpoint>
            <Time>2022-08-23T09:11:33.000Z</Time>
            <Position>
              <LatitudeDegrees>42.78564861975610256195068359375</LatitudeDegrees>
              <LongitudeDegrees>-0.2647559903562068939208984375</LongitudeDegrees>
            </Position>
            <AltitudeMeters>2873.800048828125</AltitudeMeters>
            <DistanceMeters>NAN</DistanceMeters>
          </Trackpoint>
          <Trackpoint>
            <Time>2022-08-23T09:11:34.000Z</Time>
            <Position>
              <LatitudeDegrees>42.7856451831758022308349609375</LatitudeDegrees>
              <LongitudeDegrees>-0.264764539897441864013671875</LongitudeDegrees>
            </Position>
            <AltitudeMeters>2874.39990234375</AltitudeMeters>
            <DistanceMeters>NAN</DistanceMeters>
          </Trackpoint>
          <Trackpoint>
            <Time>2022-08-23T09:11:35.000Z</Time>
            <Position>
              <LatitudeDegrees>42.78564057312905788421630859375</LatitudeDegrees>
              <LongitudeDegrees>-0.26477384380996227264404296875</LongitudeDegrees>
            </Position>
            <AltitudeMeters>2874.800048828125</AltitudeMeters>
            <DistanceMeters>NAN</DistanceMeters>
          </Trackpoint>
          <Trackpoint>
            <Time>2022-08-23T09:11:36.000Z</Time>
            <Position>
              <LatitudeDegrees>42.78563956730067729949951171875</LatitudeDegrees>
              <LongitudeDegrees>-0.264781974256038665771484375</LongitudeDegrees>
            </Position>
            <AltitudeMeters>2875.199951171875</AltitudeMeters>
            <DistanceMeters>NAN</DistanceMeters>
          </Trackpoint>
          <Trackpoint>
            <Time>2022-08-23T09:11:59.000Z</Time>
            <Position>
              <LatitudeDegrees>42.785628251731395721435546875</LatitudeDegrees>
              <LongitudeDegrees>-0.26490476913750171661376953125</LongitudeDegrees>
            </Position>
            <AltitudeMeters>2882.800048828125</AltitudeMeters>
            <DistanceMeters>NAN</DistanceMeters>
          </Trackpoint>
          <Trackpoint>
            <Time>2022-08-23T09:12:07.000Z</Time>
            <Position>
              <LatitudeDegrees>42.7856039442121982574462890625</LatitudeDegrees>
              <LongitudeDegrees>-0.2649511210620403289794921875</LongitudeDegrees>
            </Position>
            <AltitudeMeters>2887.800048828125</AltitudeMeters>
            <DistanceMeters>NAN</DistanceMeters>
          </Trackpoint>
          <Trackpoint>
            <Time>2022-08-23T09:12:14.000Z</Time>
            <Position>
              <LatitudeDegrees>42.7855828218162059783935546875</LatitudeDegrees>
              <LongitudeDegrees>-0.264985151588916778564453125</LongitudeDegrees>
            </Position>
            <AltitudeMeters>2891.39990234375</AltitudeMeters>
            <DistanceMeters>NAN</DistanceMeters>
          </Trackpoint>
          <Trackpoint>
            <Time>2022-08-23T09:12:27.000Z</Time>
            <Position>
              <LatitudeDegrees>42.785598076879978179931640625</LatitudeDegrees>
              <LongitudeDegrees>-0.26505497284233570098876953125</LongitudeDegrees>
            </Position>
            <AltitudeMeters>2897.199951171875</AltitudeMeters>
            <DistanceMeters>NAN</DistanceMeters>
          </Trackpoint>
          <Trackpoint>
            <Time>2022-08-23T09:12:48.000Z</Time>
            <Position>
              <LatitudeDegrees>42.785608805716037750244140625</LatitudeDegrees>
              <LongitudeDegrees>-0.26517860591411590576171875</LongitudeDegrees>
            </Position>
            <AltitudeMeters>2908.199951171875</AltitudeMeters>
            <DistanceMeters>NAN</DistanceMeters>
          </Trackpoint>
          <Trackpoint>
            <Time>2022-08-23T09:12:52.000Z</Time>
            <Position>
              <LatitudeDegrees>42.7855942212045192718505859375</LatitudeDegrees>
              <LongitudeDegrees>-0.265199057757854461669921875</LongitudeDegrees>
            </Position>
            <AltitudeMeters>2910.800048828125</AltitudeMeters>
            <DistanceMeters>NAN</DistanceMeters>
          </Trackpoint>
          <Trackpoint>
            <Time>2022-08-23T09:13:53.000Z</Time>
            <Position>
              <LatitudeDegrees>42.78552607633173465728759765625</LatitudeDegrees>
              <LongitudeDegrees>-0.2653588168323040008544921875</LongitudeDegrees>
            </Position>
            <AltitudeMeters>2914.60009765625</AltitudeMeters>
            <DistanceMeters>NAN</DistanceMeters>
          </Trackpoint>
          <Trackpoint>
            <Time>2022-08-23T09:14:28.000Z</Time>
            <Position>
              <LatitudeDegrees>42.7854406647384166717529296875</LatitudeDegrees>
              <LongitudeDegrees>-0.2653413824737071990966796875</LongitudeDegrees>
            </Position>
            <AltitudeMeters>2917.39990234375</AltitudeMeters>
            <DistanceMeters>NAN</DistanceMeters>
          </Trackpoint>
          <Trackpoint>
            <Time>2022-08-23T09:14:58.000Z</Time>
            <Position>
              <LatitudeDegrees>42.78536908328533172607421875</LatitudeDegrees>
              <LongitudeDegrees>-0.265346579253673553466796875</LongitudeDegrees>
            </Position>
            <AltitudeMeters>2921</AltitudeMeters>
            <DistanceMeters>NAN</DistanceMeters>
          </Trackpoint>
          <Trackpoint>
            <Time>2022-08-23T09:15:33.000Z</Time>
            <Position>
              <LatitudeDegrees>42.785316444933414459228515625</LatitudeDegrees>
              <LongitudeDegrees>-0.2651542983949184417724609375</LongitudeDegrees>
            </Position>
            <AltitudeMeters>2922.39990234375</AltitudeMeters>
            <DistanceMeters>NAN</DistanceMeters>
          </Trackpoint>
          <Trackpoint>
            <Time>2022-08-23T09:15:36.000Z</Time>
            <Position>
              <LatitudeDegrees>42.78531803749501705169677734375</LatitudeDegrees>
              <LongitudeDegrees>-0.26512906886637210845947265625</LongitudeDegrees>
            </Position>
            <AltitudeMeters>2921</AltitudeMeters>
            <DistanceMeters>NAN</DistanceMeters>
          </Trackpoint>
          <Trackpoint>
            <Time>2022-08-23T09:15:38.000Z</Time>
            <Position>
              <LatitudeDegrees>42.78531401418149471282958984375</LatitudeDegrees>
              <LongitudeDegrees>-0.26511481963098049163818359375</LongitudeDegrees>
            </Position>
            <AltitudeMeters>2920.39990234375</AltitudeMeters>
            <DistanceMeters>NAN</DistanceMeters>
          </Trackpoint>
          <Trackpoint>
            <Time>2022-08-23T09:15:41.000Z</Time>
            <Position>
              <LatitudeDegrees>42.785313092172145843505859375</LatitudeDegrees>
              <LongitudeDegrees>-0.2650921046733856201171875</LongitudeDegrees>
            </Position>
            <AltitudeMeters>2919.39990234375</AltitudeMeters>
            <DistanceMeters>NAN</DistanceMeters>
          </Trackpoint>
          <Trackpoint>
            <Time>2022-08-23T09:15:43.000Z</Time>
            <Position>
              <LatitudeDegrees>42.7853146009147167205810546875</LatitudeDegrees>
              <LongitudeDegrees>-0.26506955735385417938232421875</LongitudeDegrees>
            </Position>
            <AltitudeMeters>2918.199951171875</AltitudeMeters>
            <DistanceMeters>NAN</DistanceMeters>
          </Trackpoint>
          <Trackpoint>
            <Time>2022-08-23T09:15:44.000Z</Time>
            <Position>
              <LatitudeDegrees>42.7853105776011943817138671875</LatitudeDegrees>
              <LongitudeDegrees>-0.2650594152510166168212890625</LongitudeDegrees>
            </Position>
            <AltitudeMeters>2917.800048828125</AltitudeMeters>
            <DistanceMeters>NAN</DistanceMeters>
          </Trackpoint>
          <Trackpoint>
            <Time>2022-08-23T09:15:46.000Z</Time>
            <Position>
              <LatitudeDegrees>42.7853048779070377349853515625</LatitudeDegrees>
              <LongitudeDegrees>-0.2650523744523525238037109375</LongitudeDegrees>
            </Position>
            <AltitudeMeters>2917.60009765625</AltitudeMeters>
            <DistanceMeters>NAN</DistanceMeters>
          </Trackpoint>
          <Trackpoint>
            <Time>2022-08-23T09:16:04.000Z</Time>
            <Position>
              <LatitudeDegrees>42.7852669917047023773193359375</LatitudeDegrees>
              <LongitudeDegrees>-0.2649990655481815338134765625</LongitudeDegrees>
            </Position>
            <AltitudeMeters>2917.199951171875</AltitudeMeters>
            <DistanceMeters>NAN</DistanceMeters>
          </Trackpoint>
          <Trackpoint>
            <Time>2022-08-23T09:16:08.000Z</Time>
            <Position>
              <LatitudeDegrees>42.7852532453835010528564453125</LatitudeDegrees>
              <LongitudeDegrees>-0.26498951017856597900390625</LongitudeDegrees>
            </Position>
            <AltitudeMeters>2918</AltitudeMeters>
            <DistanceMeters>NAN</DistanceMeters>
          </Trackpoint>
          <Trackpoint>
            <Time>2022-08-23T09:16:17.000Z</Time>
            <Position>
              <LatitudeDegrees>42.7852182090282440185546875</LatitudeDegrees>
              <LongitudeDegrees>-0.2649606764316558837890625</LongitudeDegrees>
            </Position>
            <AltitudeMeters>2920.199951171875</AltitudeMeters>
            <DistanceMeters>NAN</DistanceMeters>
          </Trackpoint>
          <Trackpoint>
            <Time>2022-08-23T09:16:37.000Z</Time>
            <Position>
              <LatitudeDegrees>42.78517940081655979156494140625</LatitudeDegrees>
              <LongitudeDegrees>-0.26494315825402736663818359375</LongitudeDegrees>
            </Position>
            <AltitudeMeters>2922.800048828125</AltitudeMeters>
            <DistanceMeters>NAN</DistanceMeters>
          </Trackpoint>
          <Trackpoint>
            <Time>2022-08-23T09:16:41.000Z</Time>
            <Position>
              <LatitudeDegrees>42.78516590595245361328125</LatitudeDegrees>
              <LongitudeDegrees>-0.2649531327188014984130859375</LongitudeDegrees>
            </Position>
            <AltitudeMeters>2924</AltitudeMeters>
            <DistanceMeters>NAN</DistanceMeters>
          </Trackpoint>
          <Trackpoint>
            <Time>2022-08-23T09:16:52.000Z</Time>
            <Position>
              <LatitudeDegrees>42.7851412631571292877197265625</LatitudeDegrees>
              <LongitudeDegrees>-0.26501490734517574310302734375</LongitudeDegrees>
            </Position>
            <AltitudeMeters>2926.39990234375</AltitudeMeters>
            <DistanceMeters>NAN</DistanceMeters>
          </Trackpoint>
          <Trackpoint>
            <Time>2022-08-23T09:17:04.000Z</Time>
            <Position>
              <LatitudeDegrees>42.7851231582462787628173828125</LatitudeDegrees>
              <LongitudeDegrees>-0.26496511884033679962158203125</LongitudeDegrees>
            </Position>
            <AltitudeMeters>2927.199951171875</AltitudeMeters>
            <DistanceMeters>NAN</DistanceMeters>
          </Trackpoint>
          <Trackpoint>
            <Time>2022-08-23T09:18:00.000Z</Time>
            <Position>
              <LatitudeDegrees>42.78496331535279750823974609375</LatitudeDegrees>
              <LongitudeDegrees>-0.26492421515285968780517578125</LongitudeDegrees>
            </Position>
            <AltitudeMeters>2937.39990234375</AltitudeMeters>
            <DistanceMeters>NAN</DistanceMeters>
          </Trackpoint>
          <Trackpoint>
            <Time>2022-08-23T09:18:19.000Z</Time>
            <Position>
              <LatitudeDegrees>42.7849112637341022491455078125</LatitudeDegrees>
              <LongitudeDegrees>-0.2649159170687198638916015625</LongitudeDegrees>
            </Position>
            <AltitudeMeters>2940.60009765625</AltitudeMeters>
            <DistanceMeters>NAN</DistanceMeters>
          </Trackpoint>
          <Trackpoint>
            <Time>2022-08-23T09:18:38.000Z</Time>
            <Position>
              <LatitudeDegrees>42.78485183604061603546142578125</LatitudeDegrees>
              <LongitudeDegrees>-0.26485271751880645751953125</LongitudeDegrees>
            </Position>
            <AltitudeMeters>2942.800048828125</AltitudeMeters>
            <DistanceMeters>NAN</DistanceMeters>
          </Trackpoint>
          <Trackpoint>
            <Time>2022-08-23T09:19:53.000Z</Time>
            <Position>
              <LatitudeDegrees>42.7847533486783504486083984375</LatitudeDegrees>
              <LongitudeDegrees>-0.264824219048023223876953125</LongitudeDegrees>
            </Position>
            <AltitudeMeters>2948.39990234375</AltitudeMeters>
            <DistanceMeters>NAN</DistanceMeters>
          </Trackpoint>
          <Trackpoint>
            <Time>2022-08-23T09:20:02.000Z</Time>
            <Position>
              <LatitudeDegrees>42.78473197482526302337646484375</LatitudeDegrees>
              <LongitudeDegrees>-0.26484056375920772552490234375</LongitudeDegrees>
            </Position>
            <AltitudeMeters>2949.199951171875</AltitudeMeters>
            <DistanceMeters>NAN</DistanceMeters>
          </Trackpoint>
          <Trackpoint>
            <Time>2022-08-23T09:20:54.000Z</Time>
            <Position>
              <LatitudeDegrees>42.7846916578710079193115234375</LatitudeDegrees>
              <LongitudeDegrees>-0.264735706150531768798828125</LongitudeDegrees>
            </Position>
            <AltitudeMeters>2949</AltitudeMeters>
            <DistanceMeters>NAN</DistanceMeters>
          </Trackpoint>
          <Trackpoint>
            <Time>2022-08-23T09:21:16.000Z</Time>
            <Position>
              <LatitudeDegrees>42.78463943861424922943115234375</LatitudeDegrees>
              <LongitudeDegrees>-0.2647378854453563690185546875</LongitudeDegrees>
            </Position>
            <AltitudeMeters>2951.199951171875</AltitudeMeters>
            <DistanceMeters>NAN</DistanceMeters>
          </Trackpoint>
          <Trackpoint>
            <Time>2022-08-23T09:21:30.000Z</Time>
            <Position>
              <LatitudeDegrees>42.78457355685532093048095703125</LatitudeDegrees>
              <LongitudeDegrees>-0.26477267034351825714111328125</LongitudeDegrees>
            </Position>
            <AltitudeMeters>2953.60009765625</AltitudeMeters>
            <DistanceMeters>NAN</DistanceMeters>
          </Trackpoint>
          <Trackpoint>
            <Time>2022-08-23T09:21:37.000Z</Time>
            <Position>
              <LatitudeDegrees>42.7845568768680095672607421875</LatitudeDegrees>
              <LongitudeDegrees>-0.26475188322365283966064453125</LongitudeDegrees>
            </Position>
            <AltitudeMeters>2954.39990234375</AltitudeMeters>
            <DistanceMeters>NAN</DistanceMeters>
          </Trackpoint>
          <Trackpoint>
            <Time>2022-08-23T09:22:16.000Z</Time>
            <Position>
              <LatitudeDegrees>42.78438605368137359619140625</LatitudeDegrees>
              <LongitudeDegrees>-0.2646897733211517333984375</LongitudeDegrees>
            </Position>
            <AltitudeMeters>2959.60009765625</AltitudeMeters>
            <DistanceMeters>NAN</DistanceMeters>
          </Trackpoint>
          <Trackpoint>
            <Time>2022-08-23T09:22:58.000Z</Time>
            <Position>
              <LatitudeDegrees>42.78429460711777210235595703125</LatitudeDegrees>
              <LongitudeDegrees>-0.264617688953876495361328125</LongitudeDegrees>
            </Position>
            <AltitudeMeters>2964.800048828125</AltitudeMeters>
            <DistanceMeters>NAN</DistanceMeters>
          </Trackpoint>
          <Trackpoint>
            <Time>2022-08-23T09:22:59.000Z</Time>
            <Position>
              <LatitudeDegrees>42.784288488328456878662109375</LatitudeDegrees>
              <LongitudeDegrees>-0.2646104805171489715576171875</LongitudeDegrees>
            </Position>
            <AltitudeMeters>2965</AltitudeMeters>
            <DistanceMeters>NAN</DistanceMeters>
          </Trackpoint>
          <Trackpoint>
            <Time>2022-08-23T09:23:00.000Z</Time>
            <Position>
              <LatitudeDegrees>42.7842842973768711090087890625</LatitudeDegrees>
              <LongitudeDegrees>-0.26461173780262470245361328125</LongitudeDegrees>
            </Position>
            <AltitudeMeters>2965.199951171875</AltitudeMeters>
            <DistanceMeters>NAN</DistanceMeters>
          </Trackpoint>
          <Trackpoint>
            <Time>2022-08-23T09:23:14.000Z</Time>
            <Position>
              <LatitudeDegrees>42.784250937402248382568359375</LatitudeDegrees>
              <LongitudeDegrees>-0.26455356739461421966552734375</LongitudeDegrees>
            </Position>
            <AltitudeMeters>2967.199951171875</AltitudeMeters>
            <DistanceMeters>NAN</DistanceMeters>
          </Trackpoint>
          <Trackpoint>
            <Time>2022-08-23T09:23:24.000Z</Time>
            <Position>
              <LatitudeDegrees>42.7842148952186107635498046875</LatitudeDegrees>
              <LongitudeDegrees>-0.26452758349478244781494140625</LongitudeDegrees>
            </Position>
            <AltitudeMeters>2968.199951171875</AltitudeMeters>
            <DistanceMeters>NAN</DistanceMeters>
          </Trackpoint>
          <Trackpoint>
            <Time>2022-08-23T09:23:31.000Z</Time>
            <Position>
              <LatitudeDegrees>42.78421246446669101715087890625</LatitudeDegrees>
              <LongitudeDegrees>-0.26454384438693523406982421875</LongitudeDegrees>
            </Position>
            <AltitudeMeters>2968.199951171875</AltitudeMeters>
            <DistanceMeters>NAN</DistanceMeters>
          </Trackpoint>
          <Trackpoint>
            <Time>2022-08-23T09:24:08.000Z</Time>
            <Position>
              <LatitudeDegrees>42.7841736562550067901611328125</LatitudeDegrees>
              <LongitudeDegrees>-0.2646171860396862030029296875</LongitudeDegrees>
            </Position>
            <AltitudeMeters>2969</AltitudeMeters>
            <DistanceMeters>NAN</DistanceMeters>
          </Trackpoint>
          <Trackpoint>
            <Time>2022-08-23T09:24:11.000Z</Time>
            <Position>
              <LatitudeDegrees>42.78416686691343784332275390625</LatitudeDegrees>
              <LongitudeDegrees>-0.264597572386264801025390625</LongitudeDegrees>
            </Position>
            <AltitudeMeters>2969.199951171875</AltitudeMeters>
            <DistanceMeters>NAN</DistanceMeters>
          </Trackpoint>
          <Trackpoint>
            <Time>2022-08-23T09:24:12.000Z</Time>
            <Position>
              <LatitudeDegrees>42.7841676212847232818603515625</LatitudeDegrees>
              <LongitudeDegrees>-0.26459631510078907012939453125</LongitudeDegrees>
            </Position>
            <AltitudeMeters>2969.199951171875</AltitudeMeters>
            <DistanceMeters>NAN</DistanceMeters>
          </Trackpoint>
          <Trackpoint>
            <Time>2022-08-23T09:24:19.000Z</Time>
            <Position>
              <LatitudeDegrees>42.7841662801802158355712890625</LatitudeDegrees>
              <LongitudeDegrees>-0.26456932537257671356201171875</LongitudeDegrees>
            </Position>
            <AltitudeMeters>2969.39990234375</AltitudeMeters>
            <DistanceMeters>NAN</DistanceMeters>
          </Trackpoint>
          <Trackpoint>
            <Time>2022-08-23T09:24:24.000Z</Time>
            <Position>
              <LatitudeDegrees>42.7841582335531711578369140625</LatitudeDegrees>
              <LongitudeDegrees>-0.264551639556884765625</LongitudeDegrees>
            </Position>
            <AltitudeMeters>2969.60009765625</AltitudeMeters>
            <DistanceMeters>NAN</DistanceMeters>
          </Trackpoint>
          <Trackpoint>
            <Time>2022-08-23T09:24:26.000Z</Time>
            <Position>
              <LatitudeDegrees>42.78415764681994915008544921875</LatitudeDegrees>
              <LongitudeDegrees>-0.26454619131982326507568359375</LongitudeDegrees>
            </Position>
            <AltitudeMeters>2969.60009765625</AltitudeMeters>
            <DistanceMeters>NAN</DistanceMeters>
          </Trackpoint>
          <Trackpoint>
            <Time>2022-08-23T09:24:29.000Z</Time>
            <Position>
              <LatitudeDegrees>42.784159071743488311767578125</LatitudeDegrees>
              <LongitudeDegrees>-0.26454317383468151092529296875</LongitudeDegrees>
            </Position>
            <AltitudeMeters>2969.60009765625</AltitudeMeters>
            <DistanceMeters>NAN</DistanceMeters>
          </Trackpoint>
          <Trackpoint>
            <Time>2022-08-23T09:24:31.000Z</Time>
            <Position>
              <LatitudeDegrees>42.7841585688292980194091796875</LatitudeDegrees>
              <LongitudeDegrees>-0.2645400725305080413818359375</LongitudeDegrees>
            </Position>
            <AltitudeMeters>2969.60009765625</AltitudeMeters>
            <DistanceMeters>NAN</DistanceMeters>
          </Trackpoint>
          <Trackpoint>
            <Time>2022-08-23T09:24:32.000Z</Time>
            <Position>
              <LatitudeDegrees>42.7841592393815517425537109375</LatitudeDegrees>
              <LongitudeDegrees>-0.264538563787937164306640625</LongitudeDegrees>
            </Position>
            <AltitudeMeters>2969.60009765625</AltitudeMeters>
            <DistanceMeters>NAN</DistanceMeters>
          </Trackpoint>
          <Trackpoint>
            <Time>2022-08-23T09:24:44.000Z</Time>
            <Position>
              <LatitudeDegrees>42.78415714390575885772705078125</LatitudeDegrees>
              <LongitudeDegrees>-0.26453395374119281768798828125</LongitudeDegrees>
            </Position>
            <AltitudeMeters>2969.60009765625</AltitudeMeters>
            <DistanceMeters>NAN</DistanceMeters>
          </Trackpoint>
          <Trackpoint>
            <Time>2022-08-23T09:24:51.000Z</Time>
            <Position>
              <LatitudeDegrees>42.78416401706635951995849609375</LatitudeDegrees>
              <LongitudeDegrees>-0.2645166032016277313232421875</LongitudeDegrees>
            </Position>
            <AltitudeMeters>2969.60009765625</AltitudeMeters>
            <DistanceMeters>NAN</DistanceMeters>
          </Trackpoint>
          <Trackpoint>
            <Time>2022-08-23T09:24:59.000Z</Time>
            <Position>
              <LatitudeDegrees>42.784175835549831390380859375</LatitudeDegrees>
              <LongitudeDegrees>-0.2644941397011280059814453125</LongitudeDegrees>
            </Position>
            <AltitudeMeters>2969.39990234375</AltitudeMeters>
            <DistanceMeters>NAN</DistanceMeters>
          </Trackpoint>
          <Trackpoint>
            <Time>2022-08-23T09:25:03.000Z</Time>
            <Position>
              <LatitudeDegrees>42.784170806407928466796875</LatitudeDegrees>
              <LongitudeDegrees>-0.26449472643435001373291015625</LongitudeDegrees>
            </Position>
            <AltitudeMeters>2969.39990234375</AltitudeMeters>
            <DistanceMeters>NAN</DistanceMeters>
          </Trackpoint>
          <Trackpoint>
            <Time>2022-08-23T09:25:24.000Z</Time>
            <Position>
              <LatitudeDegrees>42.78415747918188571929931640625</LatitudeDegrees>
              <LongitudeDegrees>-0.26447578333318233489990234375</LongitudeDegrees>
            </Position>
            <AltitudeMeters>2969.800048828125</AltitudeMeters>
            <DistanceMeters>NAN</DistanceMeters>
          </Trackpoint>
          <Trackpoint>
            <Time>2022-08-23T09:25:28.000Z</Time>
            <Position>
              <LatitudeDegrees>42.78414742089807987213134765625</LatitudeDegrees>
              <LongitudeDegrees>-0.264469496905803680419921875</LongitudeDegrees>
            </Position>
            <AltitudeMeters>2970.39990234375</AltitudeMeters>
            <DistanceMeters>NAN</DistanceMeters>
          </Trackpoint>
          <Trackpoint>
            <Time>2022-08-23T09:25:32.000Z</Time>
            <Position>
              <LatitudeDegrees>42.78414373286068439483642578125</LatitudeDegrees>
              <LongitudeDegrees>-0.26445684023201465606689453125</LongitudeDegrees>
            </Position>
            <AltitudeMeters>2970.800048828125</AltitudeMeters>
            <DistanceMeters>NAN</DistanceMeters>
          </Trackpoint>
          <Trackpoint>
            <Time>2022-08-23T09:25:38.000Z</Time>
            <Position>
              <LatitudeDegrees>42.78411783277988433837890625</LatitudeDegrees>
              <LongitudeDegrees>-0.2644579298794269561767578125</LongitudeDegrees>
            </Position>
            <AltitudeMeters>2972.199951171875</AltitudeMeters>
            <DistanceMeters>NAN</DistanceMeters>
          </Trackpoint>
          <Trackpoint>
            <Time>2022-08-23T09:25:44.000Z</Time>
            <Position>
              <LatitudeDegrees>42.78409478254616260528564453125</LatitudeDegrees>
              <LongitudeDegrees>-0.26446807198226451873779296875</LongitudeDegrees>
            </Position>
            <AltitudeMeters>2973</AltitudeMeters>
            <DistanceMeters>NAN</DistanceMeters>
          </Trackpoint>
          <Trackpoint>
            <Time>2022-08-23T09:25:53.000Z</Time>
            <Position>
              <LatitudeDegrees>42.78406527824699878692626953125</LatitudeDegrees>
              <LongitudeDegrees>-0.264479219913482666015625</LongitudeDegrees>
            </Position>
            <AltitudeMeters>2974.199951171875</AltitudeMeters>
            <DistanceMeters>NAN</DistanceMeters>
          </Trackpoint>
          <Trackpoint>
            <Time>2022-08-23T09:25:56.000Z</Time>
            <Position>
              <LatitudeDegrees>42.78406418859958648681640625</LatitudeDegrees>
              <LongitudeDegrees>-0.26449137367308139801025390625</LongitudeDegrees>
            </Position>
            <AltitudeMeters>2974</AltitudeMeters>
            <DistanceMeters>NAN</DistanceMeters>
          </Trackpoint>
          <Trackpoint>
            <Time>2022-08-23T09:25:57.000Z</Time>
            <Position>
              <LatitudeDegrees>42.78406376950442790985107421875</LatitudeDegrees>
              <LongitudeDegrees>-0.2644921280443668365478515625</LongitudeDegrees>
            </Position>
            <AltitudeMeters>2974</AltitudeMeters>
            <DistanceMeters>NAN</DistanceMeters>
          </Trackpoint>
          <Trackpoint>
            <Time>2022-08-23T09:25:58.000Z</Time>
            <Position>
              <LatitudeDegrees>42.78406376950442790985107421875</LatitudeDegrees>
              <LongitudeDegrees>-0.2644941397011280059814453125</LongitudeDegrees>
            </Position>
            <AltitudeMeters>2973.800048828125</AltitudeMeters>
            <DistanceMeters>NAN</DistanceMeters>
          </Trackpoint>
          <Trackpoint>
            <Time>2022-08-23T09:26:04.000Z</Time>
            <Position>
              <LatitudeDegrees>42.7840573154389858245849609375</LatitudeDegrees>
              <LongitudeDegrees>-0.264502353966236114501953125</LongitudeDegrees>
            </Position>
            <AltitudeMeters>2974</AltitudeMeters>
            <DistanceMeters>NAN</DistanceMeters>
          </Trackpoint>
          <Trackpoint>
            <Time>2022-08-23T09:26:10.000Z</Time>
            <Position>
              <LatitudeDegrees>42.7840358577668666839599609375</LatitudeDegrees>
              <LongitudeDegrees>-0.2644968219101428985595703125</LongitudeDegrees>
            </Position>
            <AltitudeMeters>2975.199951171875</AltitudeMeters>
            <DistanceMeters>NAN</DistanceMeters>
          </Trackpoint>
          <Trackpoint>
            <Time>2022-08-23T09:26:12.000Z</Time>
            <Position>
              <LatitudeDegrees>42.78402739204466342926025390625</LatitudeDegrees>
              <LongitudeDegrees>-0.26449673809111118316650390625</LongitudeDegrees>
            </Position>
            <AltitudeMeters>2975.60009765625</AltitudeMeters>
            <DistanceMeters>NAN</DistanceMeters>
          </Trackpoint>
          <Trackpoint>
            <Time>2022-08-23T09:26:15.000Z</Time>
            <Position>
              <LatitudeDegrees>42.78401993215084075927734375</LatitudeDegrees>
              <LongitudeDegrees>-0.2644941397011280059814453125</LongitudeDegrees>
            </Position>
            <AltitudeMeters>2976</AltitudeMeters>
            <DistanceMeters>NAN</DistanceMeters>
          </Trackpoint>
          <Trackpoint>
            <Time>2022-08-23T09:26:18.000Z</Time>
            <Position>
              <LatitudeDegrees>42.7840147353708744049072265625</LatitudeDegrees>
              <LongitudeDegrees>-0.264493636786937713623046875</LongitudeDegrees>
            </Position>
            <AltitudeMeters>2976.39990234375</AltitudeMeters>
            <DistanceMeters>NAN</DistanceMeters>
          </Trackpoint>
          <Trackpoint>
            <Time>2022-08-23T09:26:22.000Z</Time>
            <Position>
              <LatitudeDegrees>42.78400610201060771942138671875</LatitudeDegrees>
              <LongitudeDegrees>-0.26447863318026065826416015625</LongitudeDegrees>
            </Position>
            <AltitudeMeters>2977.199951171875</AltitudeMeters>
            <DistanceMeters>NAN</DistanceMeters>
          </Trackpoint>
          <Trackpoint>
            <Time>2022-08-23T09:26:26.000Z</Time>
            <Position>
              <LatitudeDegrees>42.78399176895618438720703125</LatitudeDegrees>
              <LongitudeDegrees>-0.26446673087775707244873046875</LongitudeDegrees>
            </Position>
            <AltitudeMeters>2978.199951171875</AltitudeMeters>
            <DistanceMeters>NAN</DistanceMeters>
          </Trackpoint>
          <Trackpoint>
            <Time>2022-08-23T09:26:33.000Z</Time>
            <Position>
              <LatitudeDegrees>42.783961258828639984130859375</LatitudeDegrees>
              <LongitudeDegrees>-0.26450009085237979888916015625</LongitudeDegrees>
            </Position>
            <AltitudeMeters>2978.60009765625</AltitudeMeters>
            <DistanceMeters>NAN</DistanceMeters>
          </Trackpoint>
          <Trackpoint>
            <Time>2022-08-23T09:26:34.000Z</Time>
            <Position>
              <LatitudeDegrees>42.7839553914964199066162109375</LatitudeDegrees>
              <LongitudeDegrees>-0.26450713165104389190673828125</LongitudeDegrees>
            </Position>
            <AltitudeMeters>2978.60009765625</AltitudeMeters>
            <DistanceMeters>NAN</DistanceMeters>
          </Trackpoint>
          <Trackpoint>
            <Time>2022-08-23T09:26:55.000Z</Time>
            <Position>
              <LatitudeDegrees>42.7838987298309803009033203125</LatitudeDegrees>
              <LongitudeDegrees>-0.26456111110746860504150390625</LongitudeDegrees>
            </Position>
            <AltitudeMeters>2978.199951171875</AltitudeMeters>
            <DistanceMeters>NAN</DistanceMeters>
          </Trackpoint>
          <Trackpoint>
            <Time>2022-08-23T09:27:04.000Z</Time>
            <Position>
              <LatitudeDegrees>42.78387333266437053680419921875</LatitudeDegrees>
              <LongitudeDegrees>-0.264582820236682891845703125</LongitudeDegrees>
            </Position>
            <AltitudeMeters>2978.199951171875</AltitudeMeters>
            <DistanceMeters>NAN</DistanceMeters>
          </Trackpoint>
          <Trackpoint>
            <Time>2022-08-23T09:27:21.000Z</Time>
            <Position>
              <LatitudeDegrees>42.78380510397255420684814453125</LatitudeDegrees>
              <LongitudeDegrees>-0.26455608196556568145751953125</LongitudeDegrees>
            </Position>
            <AltitudeMeters>2980.39990234375</AltitudeMeters>
            <DistanceMeters>NAN</DistanceMeters>
          </Trackpoint>
          <Trackpoint>
            <Time>2022-08-23T09:27:24.000Z</Time>
            <Position>
              <LatitudeDegrees>42.7837894298136234283447265625</LatitudeDegrees>
              <LongitudeDegrees>-0.2645565010607242584228515625</LongitudeDegrees>
            </Position>
            <AltitudeMeters>2980.800048828125</AltitudeMeters>
            <DistanceMeters>NAN</DistanceMeters>
          </Trackpoint>
          <Trackpoint>
            <Time>2022-08-23T09:27:38.000Z</Time>
            <Position>
              <LatitudeDegrees>42.7836901880800724029541015625</LatitudeDegrees>
              <LongitudeDegrees>-0.26455977000296115875244140625</LongitudeDegrees>
            </Position>
            <AltitudeMeters>2983.39990234375</AltitudeMeters>
            <DistanceMeters>NAN</DistanceMeters>
          </Trackpoint>
          <Trackpoint>
            <Time>2022-08-23T09:28:22.000Z</Time>
            <Position>
              <LatitudeDegrees>42.78356437571346759796142578125</LatitudeDegrees>
              <LongitudeDegrees>-0.2646540664136409759521484375</LongitudeDegrees>
            </Position>
            <AltitudeMeters>2982.800048828125</AltitudeMeters>
            <DistanceMeters>NAN</DistanceMeters>
          </Trackpoint>
          <Trackpoint>
            <Time>2022-08-23T09:29:04.000Z</Time>
            <Position>
              <LatitudeDegrees>42.78348214924335479736328125</LatitudeDegrees>
              <LongitudeDegrees>-0.26460704393684864044189453125</LongitudeDegrees>
            </Position>
            <AltitudeMeters>2986.199951171875</AltitudeMeters>
            <DistanceMeters>NAN</DistanceMeters>
          </Trackpoint>
          <Trackpoint>
            <Time>2022-08-23T09:29:21.000Z</Time>
            <Position>
              <LatitudeDegrees>42.7833951450884342193603515625</LatitudeDegrees>
              <LongitudeDegrees>-0.2646661363542079925537109375</LongitudeDegrees>
            </Position>
            <AltitudeMeters>2986.199951171875</AltitudeMeters>
            <DistanceMeters>NAN</DistanceMeters>
          </Trackpoint>
          <Trackpoint>
            <Time>2022-08-23T09:29:45.000Z</Time>
            <Position>
              <LatitudeDegrees>42.78323136270046234130859375</LatitudeDegrees>
              <LongitudeDegrees>-0.26477535255253314971923828125</LongitudeDegrees>
            </Position>
            <AltitudeMeters>2987.800048828125</AltitudeMeters>
            <DistanceMeters>NAN</DistanceMeters>
          </Trackpoint>
          <Trackpoint>
            <Time>2022-08-23T09:29:48.000Z</Time>
            <Position>
              <LatitudeDegrees>42.783212922513484954833984375</LatitudeDegrees>
              <LongitudeDegrees>-0.264798738062381744384765625</LongitudeDegrees>
            </Position>
            <AltitudeMeters>2987.60009765625</AltitudeMeters>
            <DistanceMeters>NAN</DistanceMeters>
          </Trackpoint>
          <Trackpoint>
            <Time>2022-08-23T09:29:53.000Z</Time>
            <Position>
              <LatitudeDegrees>42.78319154866039752960205078125</LatitudeDegrees>
              <LongitudeDegrees>-0.26484643109142780303955078125</LongitudeDegrees>
            </Position>
            <AltitudeMeters>2986.800048828125</AltitudeMeters>
            <DistanceMeters>NAN</DistanceMeters>
          </Trackpoint>
          <Trackpoint>
            <Time>2022-08-23T09:29:57.000Z</Time>
            <Position>
              <LatitudeDegrees>42.783178724348545074462890625</LatitudeDegrees>
              <LongitudeDegrees>-0.2648632787168025970458984375</LongitudeDegrees>
            </Position>
            <AltitudeMeters>2986.800048828125</AltitudeMeters>
            <DistanceMeters>NAN</DistanceMeters>
          </Trackpoint>
          <Trackpoint>
            <Time>2022-08-23T09:30:13.000Z</Time>
            <Position>
              <LatitudeDegrees>42.78311627916991710662841796875</LatitudeDegrees>
              <LongitudeDegrees>-0.26481290347874164581298828125</LongitudeDegrees>
            </Position>
            <AltitudeMeters>2988.60009765625</AltitudeMeters>
            <DistanceMeters>NAN</DistanceMeters>
          </Trackpoint>
          <Trackpoint>
            <Time>2022-08-23T09:31:00.000Z</Time>
            <Position>
              <LatitudeDegrees>42.783085517585277557373046875</LatitudeDegrees>
              <LongitudeDegrees>-0.26462364010512828826904296875</LongitudeDegrees>
            </Position>
            <AltitudeMeters>2991.39990234375</AltitudeMeters>
            <DistanceMeters>NAN</DistanceMeters>
          </Trackpoint>
          <Trackpoint>
            <Time>2022-08-23T09:31:33.000Z</Time>
            <Position>
              <LatitudeDegrees>42.7831044606864452362060546875</LatitudeDegrees>
              <LongitudeDegrees>-0.26458810083568096160888671875</LongitudeDegrees>
            </Position>
            <AltitudeMeters>2993.39990234375</AltitudeMeters>
            <DistanceMeters>NAN</DistanceMeters>
          </Trackpoint>
          <Trackpoint>
            <Time>2022-08-23T09:31:55.000Z</Time>
            <Position>
              <LatitudeDegrees>42.78309591114521026611328125</LatitudeDegrees>
              <LongitudeDegrees>-0.2646476961672306060791015625</LongitudeDegrees>
            </Position>
            <AltitudeMeters>2991.60009765625</AltitudeMeters>
            <DistanceMeters>NAN</DistanceMeters>
          </Trackpoint>
          <Trackpoint>
            <Time>2022-08-23T09:31:56.000Z</Time>
            <Position>
              <LatitudeDegrees>42.7830950729548931121826171875</LatitudeDegrees>
              <LongitudeDegrees>-0.26464861817657947540283203125</LongitudeDegrees>
            </Position>
            <AltitudeMeters>2991.60009765625</AltitudeMeters>
            <DistanceMeters>NAN</DistanceMeters>
          </Trackpoint>
          <Trackpoint>
            <Time>2022-08-23T09:31:57.000Z</Time>
            <Position>
              <LatitudeDegrees>42.783096246421337127685546875</LatitudeDegrees>
              <LongitudeDegrees>-0.2646466903388500213623046875</LongitudeDegrees>
            </Position>
            <AltitudeMeters>2991.800048828125</AltitudeMeters>
            <DistanceMeters>NAN</DistanceMeters>
          </Trackpoint>
          <Trackpoint>
            <Time>2022-08-23T09:31:58.000Z</Time>
            <Position>
              <LatitudeDegrees>42.78309524059295654296875</LatitudeDegrees>
              <LongitudeDegrees>-0.26464560069143772125244140625</LongitudeDegrees>
            </Position>
            <AltitudeMeters>2991.60009765625</AltitudeMeters>
            <DistanceMeters>NAN</DistanceMeters>
          </Trackpoint>
          <Trackpoint>
            <Time>2022-08-23T09:32:07.000Z</Time>
            <Position>
              <LatitudeDegrees>42.7830870263278484344482421875</LatitudeDegrees>
              <LongitudeDegrees>-0.2646255679428577423095703125</LongitudeDegrees>
            </Position>
            <AltitudeMeters>2991.60009765625</AltitudeMeters>
            <DistanceMeters>NAN</DistanceMeters>
          </Trackpoint>
          <Trackpoint>
            <Time>2022-08-23T09:32:10.000Z</Time>
            <Position>
              <LatitudeDegrees>42.783084847033023834228515625</LatitudeDegrees>
              <LongitudeDegrees>-0.2646158449351787567138671875</LongitudeDegrees>
            </Position>
            <AltitudeMeters>2991.60009765625</AltitudeMeters>
            <DistanceMeters>NAN</DistanceMeters>
          </Trackpoint>
          <Trackpoint>
            <Time>2022-08-23T09:32:14.000Z</Time>
            <Position>
              <LatitudeDegrees>42.78308652341365814208984375</LatitudeDegrees>
              <LongitudeDegrees>-0.26461576111614704132080078125</LongitudeDegrees>
            </Position>
            <AltitudeMeters>2991.60009765625</AltitudeMeters>
            <DistanceMeters>NAN</DistanceMeters>
          </Trackpoint>
          <Trackpoint>
            <Time>2022-08-23T09:32:18.000Z</Time>
            <Position>
              <LatitudeDegrees>42.78308727778494358062744140625</LatitudeDegrees>
              <LongitudeDegrees>-0.26460318826138973236083984375</LongitudeDegrees>
            </Position>
            <AltitudeMeters>2992</AltitudeMeters>
            <DistanceMeters>NAN</DistanceMeters>
          </Trackpoint>
          <Trackpoint>
            <Time>2022-08-23T09:32:22.000Z</Time>
            <Position>
              <LatitudeDegrees>42.78308920562267303466796875</LatitudeDegrees>
              <LongitudeDegrees>-0.26457251049578189849853515625</LongitudeDegrees>
            </Position>
            <AltitudeMeters>2992.60009765625</AltitudeMeters>
            <DistanceMeters>NAN</DistanceMeters>
          </Trackpoint>
          <Trackpoint>
            <Time>2022-08-23T09:32:28.000Z</Time>
            <Position>
              <LatitudeDegrees>42.78308727778494358062744140625</LatitudeDegrees>
              <LongitudeDegrees>-0.26456077583134174346923828125</LongitudeDegrees>
            </Position>
            <AltitudeMeters>2992.60009765625</AltitudeMeters>
            <DistanceMeters>NAN</DistanceMeters>
          </Trackpoint>
          <Trackpoint>
            <Time>2022-08-23T09:32:34.000Z</Time>
            <Position>
              <LatitudeDegrees>42.783091552555561065673828125</LatitudeDegrees>
              <LongitudeDegrees>-0.26452657766640186309814453125</LongitudeDegrees>
            </Position>
            <AltitudeMeters>2993.60009765625</AltitudeMeters>
            <DistanceMeters>NAN</DistanceMeters>
          </Trackpoint>
          <Trackpoint>
            <Time>2022-08-23T09:32:42.000Z</Time>
            <Position>
              <LatitudeDegrees>42.78309599496424198150634765625</LatitudeDegrees>
              <LongitudeDegrees>-0.2644921280443668365478515625</LongitudeDegrees>
            </Position>
            <AltitudeMeters>2994.39990234375</AltitudeMeters>
            <DistanceMeters>NAN</DistanceMeters>
          </Trackpoint>
          <Trackpoint>
            <Time>2022-08-23T09:32:50.000Z</Time>
            <Position>
              <LatitudeDegrees>42.7830937318503856658935546875</LatitudeDegrees>
              <LongitudeDegrees>-0.26446522213518619537353515625</LongitudeDegrees>
            </Position>
            <AltitudeMeters>2994.800048828125</AltitudeMeters>
            <DistanceMeters>NAN</DistanceMeters>
          </Trackpoint>
          <Trackpoint>
            <Time>2022-08-23T09:33:27.000Z</Time>
            <Position>
              <LatitudeDegrees>42.7830762974917888641357421875</LatitudeDegrees>
              <LongitudeDegrees>-0.2643922157585620880126953125</LongitudeDegrees>
            </Position>
            <AltitudeMeters>2994.60009765625</AltitudeMeters>
            <DistanceMeters>NAN</DistanceMeters>
          </Trackpoint>
          <Trackpoint>
            <Time>2022-08-23T09:33:46.000Z</Time>
            <Position>
              <LatitudeDegrees>42.78309666551649570465087890625</LatitudeDegrees>
              <LongitudeDegrees>-0.264267660677433013916015625</LongitudeDegrees>
            </Position>
            <AltitudeMeters>3002.800048828125</AltitudeMeters>
            <DistanceMeters>NAN</DistanceMeters>
          </Trackpoint>
          <Trackpoint>
            <Time>2022-08-23T09:34:26.000Z</Time>
            <Position>
              <LatitudeDegrees>42.78305660001933574676513671875</LatitudeDegrees>
              <LongitudeDegrees>-0.26405434124171733856201171875</LongitudeDegrees>
            </Position>
            <AltitudeMeters>3009.39990234375</AltitudeMeters>
            <DistanceMeters>NAN</DistanceMeters>
          </Trackpoint>
          <Trackpoint>
            <Time>2022-08-23T09:34:36.000Z</Time>
            <Position>
              <LatitudeDegrees>42.783064059913158416748046875</LatitudeDegrees>
              <LongitudeDegrees>-0.26398879475891590118408203125</LongitudeDegrees>
            </Position>
            <AltitudeMeters>3013</AltitudeMeters>
            <DistanceMeters>NAN</DistanceMeters>
          </Trackpoint>
          <Trackpoint>
            <Time>2022-08-23T09:35:39.000Z</Time>
            <Position>
              <LatitudeDegrees>42.783085517585277557373046875</LatitudeDegrees>
              <LongitudeDegrees>-0.2638329751789569854736328125</LongitudeDegrees>
            </Position>
            <AltitudeMeters>3022.60009765625</AltitudeMeters>
            <DistanceMeters>NAN</DistanceMeters>
          </Trackpoint>
          <Trackpoint>
            <Time>2022-08-23T09:35:47.000Z</Time>
            <Position>
              <LatitudeDegrees>42.7830940671265125274658203125</LatitudeDegrees>
              <LongitudeDegrees>-0.26383875869214534759521484375</LongitudeDegrees>
            </Position>
            <AltitudeMeters>3023</AltitudeMeters>
            <DistanceMeters>NAN</DistanceMeters>
          </Trackpoint>
          <Trackpoint>
            <Time>2022-08-23T09:36:25.000Z</Time>
            <Position>
              <LatitudeDegrees>42.7831591106951236724853515625</LatitudeDegrees>
              <LongitudeDegrees>-0.26385753415524959564208984375</LongitudeDegrees>
            </Position>
            <AltitudeMeters>3025</AltitudeMeters>
            <DistanceMeters>NAN</DistanceMeters>
          </Trackpoint>
          <Trackpoint>
            <Time>2022-08-23T09:37:17.000Z</Time>
            <Position>
              <LatitudeDegrees>42.78329229913651943206787109375</LatitudeDegrees>
              <LongitudeDegrees>-0.26390723884105682373046875</LongitudeDegrees>
            </Position>
            <AltitudeMeters>3020</AltitudeMeters>
            <DistanceMeters>NAN</DistanceMeters>
          </Trackpoint>
          <Trackpoint>
            <Time>2022-08-23T09:37:34.000Z</Time>
            <Position>
              <LatitudeDegrees>42.783257178962230682373046875</LatitudeDegrees>
              <LongitudeDegrees>-0.26381202042102813720703125</LongitudeDegrees>
            </Position>
            <AltitudeMeters>3024.800048828125</AltitudeMeters>
            <DistanceMeters>NAN</DistanceMeters>
          </Trackpoint>
          <Trackpoint>
            <Time>2022-08-23T09:38:03.000Z</Time>
            <Position>
              <LatitudeDegrees>42.78316120617091655731201171875</LatitudeDegrees>
              <LongitudeDegrees>-0.26360624469816684722900390625</LongitudeDegrees>
            </Position>
            <AltitudeMeters>3033</AltitudeMeters>
            <DistanceMeters>NAN</DistanceMeters>
          </Trackpoint>
          <Trackpoint>
            <Time>2022-08-23T09:38:10.000Z</Time>
            <Position>
              <LatitudeDegrees>42.7831416763365268707275390625</LatitudeDegrees>
              <LongitudeDegrees>-0.26356550864875316619873046875</LongitudeDegrees>
            </Position>
            <AltitudeMeters>3034.39990234375</AltitudeMeters>
            <DistanceMeters>NAN</DistanceMeters>
          </Trackpoint>
          <Trackpoint>
            <Time>2022-08-23T09:38:36.000Z</Time>
            <Position>
              <LatitudeDegrees>42.78312784619629383087158203125</LatitudeDegrees>
              <LongitudeDegrees>-0.2633391134440898895263671875</LongitudeDegrees>
            </Position>
            <AltitudeMeters>3044.39990234375</AltitudeMeters>
            <DistanceMeters>NAN</DistanceMeters>
          </Trackpoint>
          <Trackpoint>
            <Time>2022-08-23T09:38:43.000Z</Time>
            <Position>
              <LatitudeDegrees>42.78310219757258892059326171875</LatitudeDegrees>
              <LongitudeDegrees>-0.2632955275475978851318359375</LongitudeDegrees>
            </Position>
            <AltitudeMeters>3045.199951171875</AltitudeMeters>
            <DistanceMeters>NAN</DistanceMeters>
          </Trackpoint>
          <Trackpoint>
            <Time>2022-08-23T09:38:46.000Z</Time>
            <Position>
              <LatitudeDegrees>42.78309448622167110443115234375</LatitudeDegrees>
              <LongitudeDegrees>-0.26327155530452728271484375</LongitudeDegrees>
            </Position>
            <AltitudeMeters>3046.39990234375</AltitudeMeters>
            <DistanceMeters>NAN</DistanceMeters>
          </Trackpoint>
          <Trackpoint>
            <Time>2022-08-23T09:38:51.000Z</Time>
            <Position>
              <LatitudeDegrees>42.783084176480770111083984375</LatitudeDegrees>
              <LongitudeDegrees>-0.2632274664938449859619140625</LongitudeDegrees>
            </Position>
            <AltitudeMeters>3047.199951171875</AltitudeMeters>
            <DistanceMeters>NAN</DistanceMeters>
          </Trackpoint>
          <Trackpoint>
            <Time>2022-08-23T09:38:53.000Z</Time>
            <Position>
              <LatitudeDegrees>42.78308275155723094940185546875</LatitudeDegrees>
              <LongitudeDegrees>-0.26320911012589931488037109375</LongitudeDegrees>
            </Position>
            <AltitudeMeters>3047.60009765625</AltitudeMeters>
            <DistanceMeters>NAN</DistanceMeters>
          </Trackpoint>
          <Trackpoint>
            <Time>2022-08-23T09:38:54.000Z</Time>
            <Position>
              <LatitudeDegrees>42.78308224864304065704345703125</LatitudeDegrees>
              <LongitudeDegrees>-0.26319955475628376007080078125</LongitudeDegrees>
            </Position>
            <AltitudeMeters>3047.800048828125</AltitudeMeters>
            <DistanceMeters>NAN</DistanceMeters>
          </Trackpoint>
          <Trackpoint>
            <Time>2022-08-23T09:38:55.000Z</Time>
            <Position>
              <LatitudeDegrees>42.78308006934821605682373046875</LatitudeDegrees>
              <LongitudeDegrees>-0.2631919272243976593017578125</LongitudeDegrees>
            </Position>
            <AltitudeMeters>3048</AltitudeMeters>
            <DistanceMeters>NAN</DistanceMeters>
          </Trackpoint>
          <Trackpoint>
            <Time>2022-08-23T09:38:58.000Z</Time>
            <Position>
              <LatitudeDegrees>42.78306749649345874786376953125</LatitudeDegrees>
              <LongitudeDegrees>-0.26316317729651927947998046875</LongitudeDegrees>
            </Position>
            <AltitudeMeters>3048.199951171875</AltitudeMeters>
            <DistanceMeters>NAN</DistanceMeters>
          </Trackpoint>
          <Trackpoint>
            <Time>2022-08-23T09:39:00.000Z</Time>
            <Position>
              <LatitudeDegrees>42.78305844403803348541259765625</LatitudeDegrees>
              <LongitudeDegrees>-0.26314280927181243896484375</LongitudeDegrees>
            </Position>
            <AltitudeMeters>3048.39990234375</AltitudeMeters>
            <DistanceMeters>NAN</DistanceMeters>
          </Trackpoint>
          <Trackpoint>
            <Time>2022-08-23T09:39:01.000Z</Time>
            <Position>
              <LatitudeDegrees>42.783054001629352569580078125</LatitudeDegrees>
              <LongitudeDegrees>-0.263133756816387176513671875</LongitudeDegrees>
            </Position>
            <AltitudeMeters>3048.39990234375</AltitudeMeters>
            <DistanceMeters>NAN</DistanceMeters>
          </Trackpoint>
          <Trackpoint>
            <Time>2022-08-23T09:39:07.000Z</Time>
            <Position>
              <LatitudeDegrees>42.7830313704907894134521484375</LatitudeDegrees>
              <LongitudeDegrees>-0.2630750834941864013671875</LongitudeDegrees>
            </Position>
            <AltitudeMeters>3049.39990234375</AltitudeMeters>
            <DistanceMeters>NAN</DistanceMeters>
          </Trackpoint>
          <Trackpoint>
            <Time>2022-08-23T09:39:11.000Z</Time>
            <Position>
              <LatitudeDegrees>42.78302324004471302032470703125</LatitudeDegrees>
              <LongitudeDegrees>-0.26304398663341999053955078125</LongitudeDegrees>
            </Position>
            <AltitudeMeters>3050.199951171875</AltitudeMeters>
            <DistanceMeters>NAN</DistanceMeters>
          </Trackpoint>
          <Trackpoint>
            <Time>2022-08-23T09:39:14.000Z</Time>
            <Position>
              <LatitudeDegrees>42.78302349150180816650390625</LatitudeDegrees>
              <LongitudeDegrees>-0.263032503426074981689453125</LongitudeDegrees>
            </Position>
            <AltitudeMeters>3050.60009765625</AltitudeMeters>
            <DistanceMeters>NAN</DistanceMeters>
          </Trackpoint>
          <Trackpoint>
            <Time>2022-08-23T09:39:21.000Z</Time>
            <Position>
              <LatitudeDegrees>42.78302374295890331268310546875</LatitudeDegrees>
              <LongitudeDegrees>-0.26301397942006587982177734375</LongitudeDegrees>
            </Position>
            <AltitudeMeters>3051.39990234375</AltitudeMeters>
            <DistanceMeters>NAN</DistanceMeters>
          </Trackpoint>
          <Trackpoint>
            <Time>2022-08-23T09:39:35.000Z</Time>
            <Position>
              <LatitudeDegrees>42.7829814143478870391845703125</LatitudeDegrees>
              <LongitudeDegrees>-0.262935273349285125732421875</LongitudeDegrees>
            </Position>
            <AltitudeMeters>3050.199951171875</AltitudeMeters>
            <DistanceMeters>NAN</DistanceMeters>
          </Trackpoint>
          <Trackpoint>
            <Time>2022-08-23T09:39:55.000Z</Time>
            <Position>
              <LatitudeDegrees>42.7829110063612461090087890625</LatitudeDegrees>
              <LongitudeDegrees>-0.262821279466152191162109375</LongitudeDegrees>
            </Position>
            <AltitudeMeters>3050</AltitudeMeters>
            <DistanceMeters>NAN</DistanceMeters>
          </Trackpoint>
          <Trackpoint>
            <Time>2022-08-23T09:40:10.000Z</Time>
            <Position>
              <LatitudeDegrees>42.7828771434724330902099609375</LatitudeDegrees>
              <LongitudeDegrees>-0.26276285760104656219482421875</LongitudeDegrees>
            </Position>
            <AltitudeMeters>3051.199951171875</AltitudeMeters>
            <DistanceMeters>NAN</DistanceMeters>
          </Trackpoint>
          <Trackpoint>
            <Time>2022-08-23T09:40:34.000Z</Time>
            <Position>
              <LatitudeDegrees>42.78283129446208477020263671875</LatitudeDegrees>
              <LongitudeDegrees>-0.26262572966516017913818359375</LongitudeDegrees>
            </Position>
            <AltitudeMeters>3050.800048828125</AltitudeMeters>
            <DistanceMeters>NAN</DistanceMeters>
          </Trackpoint>
          <Trackpoint>
            <Time>2022-08-23T09:40:39.000Z</Time>
            <Position>
              <LatitudeDegrees>42.78281033970415592193603515625</LatitudeDegrees>
              <LongitudeDegrees>-0.262567140161991119384765625</LongitudeDegrees>
            </Position>
            <AltitudeMeters>3049.800048828125</AltitudeMeters>
            <DistanceMeters>NAN</DistanceMeters>
          </Trackpoint>
          <Trackpoint>
            <Time>2022-08-23T09:40:46.000Z</Time>
            <Position>
              <LatitudeDegrees>42.78279013931751251220703125</LatitudeDegrees>
              <LongitudeDegrees>-0.26251072995364665985107421875</LongitudeDegrees>
            </Position>
            <AltitudeMeters>3049</AltitudeMeters>
            <DistanceMeters>NAN</DistanceMeters>
          </Trackpoint>
          <Trackpoint>
            <Time>2022-08-23T09:41:16.000Z</Time>
            <Position>
              <LatitudeDegrees>42.7826860360801219940185546875</LatitudeDegrees>
              <LongitudeDegrees>-0.262329094111919403076171875</LongitudeDegrees>
            </Position>
            <AltitudeMeters>3047.199951171875</AltitudeMeters>
            <DistanceMeters>NAN</DistanceMeters>
          </Trackpoint>
          <Trackpoint>
            <Time>2022-08-23T09:41:33.000Z</Time>
            <Position>
              <LatitudeDegrees>42.78265091590583324432373046875</LatitudeDegrees>
              <LongitudeDegrees>-0.2622819878160953521728515625</LongitudeDegrees>
            </Position>
            <AltitudeMeters>3050</AltitudeMeters>
            <DistanceMeters>NAN</DistanceMeters>
          </Trackpoint>
          <Trackpoint>
            <Time>2022-08-23T09:42:21.000Z</Time>
            <Position>
              <LatitudeDegrees>42.78254262171685695648193359375</LatitudeDegrees>
              <LongitudeDegrees>-0.2620979212224483489990234375</LongitudeDegrees>
            </Position>
            <AltitudeMeters>3052.60009765625</AltitudeMeters>
            <DistanceMeters>NAN</DistanceMeters>
          </Trackpoint>
          <Trackpoint>
            <Time>2022-08-23T09:42:26.000Z</Time>
            <Position>
              <LatitudeDegrees>42.78252216987311840057373046875</LatitudeDegrees>
              <LongitudeDegrees>-0.2620861865580081939697265625</LongitudeDegrees>
            </Position>
            <AltitudeMeters>3050.60009765625</AltitudeMeters>
            <DistanceMeters>NAN</DistanceMeters>
          </Trackpoint>
          <Trackpoint>
            <Time>2022-08-23T09:42:47.000Z</Time>
            <Position>
              <LatitudeDegrees>42.78243365697562694549560546875</LatitudeDegrees>
              <LongitudeDegrees>-0.261983759701251983642578125</LongitudeDegrees>
            </Position>
            <AltitudeMeters>3043.60009765625</AltitudeMeters>
            <DistanceMeters>NAN</DistanceMeters>
          </Trackpoint>
          <Trackpoint>
            <Time>2022-08-23T09:42:49.000Z</Time>
            <Position>
              <LatitudeDegrees>42.78242594562470912933349609375</LatitudeDegrees>
              <LongitudeDegrees>-0.26197261177003383636474609375</LongitudeDegrees>
            </Position>
            <AltitudeMeters>3043.800048828125</AltitudeMeters>
            <DistanceMeters>NAN</DistanceMeters>
          </Trackpoint>
          <Trackpoint>
            <Time>2022-08-23T09:42:51.000Z</Time>
            <Position>
              <LatitudeDegrees>42.782415635883808135986328125</LatitudeDegrees>
              <LongitudeDegrees>-0.26196272112429141998291015625</LongitudeDegrees>
            </Position>
            <AltitudeMeters>3044</AltitudeMeters>
            <DistanceMeters>NAN</DistanceMeters>
          </Trackpoint>
          <Trackpoint>
            <Time>2022-08-23T09:42:54.000Z</Time>
            <Position>
              <LatitudeDegrees>42.78239342384040355682373046875</LatitudeDegrees>
              <LongitudeDegrees>-0.2619537524878978729248046875</LongitudeDegrees>
            </Position>
            <AltitudeMeters>3044.199951171875</AltitudeMeters>
            <DistanceMeters>NAN</DistanceMeters>
          </Trackpoint>
          <Trackpoint>
            <Time>2022-08-23T09:42:56.000Z</Time>
            <Position>
              <LatitudeDegrees>42.7823873050510883331298828125</LatitudeDegrees>
              <LongitudeDegrees>-0.26194830425083637237548828125</LongitudeDegrees>
            </Position>
            <AltitudeMeters>3044.39990234375</AltitudeMeters>
            <DistanceMeters>NAN</DistanceMeters>
          </Trackpoint>
          <Trackpoint>
            <Time>2022-08-23T09:43:22.000Z</Time>
            <Position>
              <LatitudeDegrees>42.78227440081536769866943359375</LatitudeDegrees>
              <LongitudeDegrees>-0.26180329732596874237060546875</LongitudeDegrees>
            </Position>
            <AltitudeMeters>3044.199951171875</AltitudeMeters>
            <DistanceMeters>NAN</DistanceMeters>
          </Trackpoint>
          <Trackpoint>
            <Time>2022-08-23T09:44:34.000Z</Time>
            <Position>
              <LatitudeDegrees>42.7821886539459228515625</LatitudeDegrees>
              <LongitudeDegrees>-0.261635072529315948486328125</LongitudeDegrees>
            </Position>
            <AltitudeMeters>3040.199951171875</AltitudeMeters>
            <DistanceMeters>NAN</DistanceMeters>
          </Trackpoint>
          <Trackpoint>
            <Time>2022-08-23T09:44:40.000Z</Time>
            <Position>
              <LatitudeDegrees>42.782168202102184295654296875</LatitudeDegrees>
              <LongitudeDegrees>-0.26159517467021942138671875</LongitudeDegrees>
            </Position>
            <AltitudeMeters>3040.199951171875</AltitudeMeters>
            <DistanceMeters>NAN</DistanceMeters>
          </Trackpoint>
          <Trackpoint>
            <Time>2022-08-23T09:44:50.000Z</Time>
            <Position>
              <LatitudeDegrees>42.78213459067046642303466796875</LatitudeDegrees>
              <LongitudeDegrees>-0.26156173087656497955322265625</LongitudeDegrees>
            </Position>
            <AltitudeMeters>3037.199951171875</AltitudeMeters>
            <DistanceMeters>NAN</DistanceMeters>
          </Trackpoint>
          <Trackpoint>
            <Time>2022-08-23T09:44:55.000Z</Time>
            <Position>
              <LatitudeDegrees>42.78213107027113437652587890625</LatitudeDegrees>
              <LongitudeDegrees>-0.26155770756304264068603515625</LongitudeDegrees>
            </Position>
            <AltitudeMeters>3037</AltitudeMeters>
            <DistanceMeters>NAN</DistanceMeters>
          </Trackpoint>
          <Trackpoint>
            <Time>2022-08-23T09:45:05.000Z</Time>
            <Position>
              <LatitudeDegrees>42.78212453238666057586669921875</LatitudeDegrees>
              <LongitudeDegrees>-0.26155619882047176361083984375</LongitudeDegrees>
            </Position>
            <AltitudeMeters>3036.39990234375</AltitudeMeters>
            <DistanceMeters>NAN</DistanceMeters>
          </Trackpoint>
          <Trackpoint>
            <Time>2022-08-23T09:45:24.000Z</Time>
            <Position>
              <LatitudeDegrees>42.78206837363541126251220703125</LatitudeDegrees>
              <LongitudeDegrees>-0.26146383024752140045166015625</LongitudeDegrees>
            </Position>
            <AltitudeMeters>3036.800048828125</AltitudeMeters>
            <DistanceMeters>NAN</DistanceMeters>
          </Trackpoint>
          <Trackpoint>
            <Time>2022-08-23T09:45:33.000Z</Time>
            <Position>
              <LatitudeDegrees>42.782035432755947113037109375</LatitudeDegrees>
              <LongitudeDegrees>-0.2614541910588741302490234375</LongitudeDegrees>
            </Position>
            <AltitudeMeters>3037.199951171875</AltitudeMeters>
            <DistanceMeters>NAN</DistanceMeters>
          </Trackpoint>
          <Trackpoint>
            <Time>2022-08-23T09:45:37.000Z</Time>
            <Position>
              <LatitudeDegrees>42.78202294372022151947021484375</LatitudeDegrees>
              <LongitudeDegrees>-0.261426530778408050537109375</LongitudeDegrees>
            </Position>
            <AltitudeMeters>3038.60009765625</AltitudeMeters>
            <DistanceMeters>NAN</DistanceMeters>
          </Trackpoint>
          <Trackpoint>
            <Time>2022-08-23T09:45:41.000Z</Time>
            <Position>
              <LatitudeDegrees>42.7820191718637943267822265625</LatitudeDegrees>
              <LongitudeDegrees>-0.26141345500946044921875</LongitudeDegrees>
            </Position>
            <AltitudeMeters>3039</AltitudeMeters>
            <DistanceMeters>NAN</DistanceMeters>
          </Trackpoint>
          <Trackpoint>
            <Time>2022-08-23T09:45:42.000Z</Time>
            <Position>
              <LatitudeDegrees>42.78201556764543056488037109375</LatitudeDegrees>
              <LongitudeDegrees>-0.26140700094401836395263671875</LongitudeDegrees>
            </Position>
            <AltitudeMeters>3039</AltitudeMeters>
            <DistanceMeters>NAN</DistanceMeters>
          </Trackpoint>
          <Trackpoint>
            <Time>2022-08-23T09:45:44.000Z</Time>
            <Position>
              <LatitudeDegrees>42.78201372362673282623291015625</LatitudeDegrees>
              <LongitudeDegrees>-0.2614049054682254791259765625</LongitudeDegrees>
            </Position>
            <AltitudeMeters>3039</AltitudeMeters>
            <DistanceMeters>NAN</DistanceMeters>
          </Trackpoint>
          <Trackpoint>
            <Time>2022-08-23T09:46:12.000Z</Time>
            <Position>
              <LatitudeDegrees>42.781922779977321624755859375</LatitudeDegrees>
              <LongitudeDegrees>-0.26130004785954952239990234375</LongitudeDegrees>
            </Position>
            <AltitudeMeters>3041.800048828125</AltitudeMeters>
            <DistanceMeters>NAN</DistanceMeters>
          </Trackpoint>
          <Trackpoint>
            <Time>2022-08-23T09:46:48.000Z</Time>
            <Position>
              <LatitudeDegrees>42.78191314078867435455322265625</LatitudeDegrees>
              <LongitudeDegrees>-0.2612791769206523895263671875</LongitudeDegrees>
            </Position>
            <AltitudeMeters>3041.60009765625</AltitudeMeters>
            <DistanceMeters>NAN</DistanceMeters>
          </Trackpoint>
          <Trackpoint>
            <Time>2022-08-23T09:46:49.000Z</Time>
            <Position>
              <LatitudeDegrees>42.7819112129509449005126953125</LatitudeDegrees>
              <LongitudeDegrees>-0.26127942837774753570556640625</LongitudeDegrees>
            </Position>
            <AltitudeMeters>3041.60009765625</AltitudeMeters>
            <DistanceMeters>NAN</DistanceMeters>
          </Trackpoint>
          <Trackpoint>
            <Time>2022-08-23T09:46:50.000Z</Time>
            <Position>
              <LatitudeDegrees>42.7819098718464374542236328125</LatitudeDegrees>
              <LongitudeDegrees>-0.26128060184419155120849609375</LongitudeDegrees>
            </Position>
            <AltitudeMeters>3041.60009765625</AltitudeMeters>
            <DistanceMeters>NAN</DistanceMeters>
          </Trackpoint>
          <Trackpoint>
            <Time>2022-08-23T09:46:55.000Z</Time>
            <Position>
              <LatitudeDegrees>42.78191381134092807769775390625</LatitudeDegrees>
              <LongitudeDegrees>-0.26128496043384075164794921875</LongitudeDegrees>
            </Position>
            <AltitudeMeters>3041.60009765625</AltitudeMeters>
            <DistanceMeters>NAN</DistanceMeters>
          </Trackpoint>
          <Trackpoint>
            <Time>2022-08-23T09:57:53.000Z</Time>
            <Position>
              <LatitudeDegrees>42.78192068450152873992919921875</LatitudeDegrees>
              <LongitudeDegrees>-0.26122310198843479156494140625</LongitudeDegrees>
            </Position>
            <AltitudeMeters>3041.60009765625</AltitudeMeters>
            <DistanceMeters>NAN</DistanceMeters>
          </Trackpoint>
          <Trackpoint>
            <Time>2022-08-23T09:57:54.000Z</Time>
            <Position>
              <LatitudeDegrees>42.7819172479212284088134765625</LatitudeDegrees>
              <LongitudeDegrees>-0.26121958158910274505615234375</LongitudeDegrees>
            </Position>
            <AltitudeMeters>3041.39990234375</AltitudeMeters>
            <DistanceMeters>NAN</DistanceMeters>
          </Trackpoint>
          <Trackpoint>
            <Time>2022-08-23T09:58:07.000Z</Time>
            <Position>
              <LatitudeDegrees>42.78189151547849178314208984375</LatitudeDegrees>
              <LongitudeDegrees>-0.26120834983885288238525390625</LongitudeDegrees>
            </Position>
            <AltitudeMeters>3041.199951171875</AltitudeMeters>
            <DistanceMeters>NAN</DistanceMeters>
          </Trackpoint>
          <Trackpoint>
            <Time>2022-08-23T09:58:22.000Z</Time>
            <Position>
              <LatitudeDegrees>42.7818609215319156646728515625</LatitudeDegrees>
              <LongitudeDegrees>-0.26117683388292789459228515625</LongitudeDegrees>
            </Position>
            <AltitudeMeters>3041.60009765625</AltitudeMeters>
            <DistanceMeters>NAN</DistanceMeters>
          </Trackpoint>
          <Trackpoint>
            <Time>2022-08-23T09:58:24.000Z</Time>
            <Position>
              <LatitudeDegrees>42.7818552218377590179443359375</LatitudeDegrees>
              <LongitudeDegrees>-0.26116929017007350921630859375</LongitudeDegrees>
            </Position>
            <AltitudeMeters>3041.800048828125</AltitudeMeters>
            <DistanceMeters>NAN</DistanceMeters>
          </Trackpoint>
          <Trackpoint>
            <Time>2022-08-23T09:58:25.000Z</Time>
            <Position>
              <LatitudeDegrees>42.78185262344777584075927734375</LatitudeDegrees>
              <LongitudeDegrees>-0.26116811670362949371337890625</LongitudeDegrees>
            </Position>
            <AltitudeMeters>3042</AltitudeMeters>
            <DistanceMeters>NAN</DistanceMeters>
          </Trackpoint>
          <Trackpoint>
            <Time>2022-08-23T09:58:51.000Z</Time>
            <Position>
              <LatitudeDegrees>42.78179897926747798919677734375</LatitudeDegrees>
              <LongitudeDegrees>-0.26110072620213031768798828125</LongitudeDegrees>
            </Position>
            <AltitudeMeters>3044.60009765625</AltitudeMeters>
            <DistanceMeters>NAN</DistanceMeters>
          </Trackpoint>
          <Trackpoint>
            <Time>2022-08-23T09:59:03.000Z</Time>
            <Position>
              <LatitudeDegrees>42.78179780580103397369384765625</LatitudeDegrees>
              <LongitudeDegrees>-0.2610795199871063232421875</LongitudeDegrees>
            </Position>
            <AltitudeMeters>3045.199951171875</AltitudeMeters>
            <DistanceMeters>NAN</DistanceMeters>
          </Trackpoint>
          <Trackpoint>
            <Time>2022-08-23T09:59:07.000Z</Time>
            <Position>
              <LatitudeDegrees>42.781799398362636566162109375</LatitudeDegrees>
              <LongitudeDegrees>-0.261075161397457122802734375</LongitudeDegrees>
            </Position>
            <AltitudeMeters>3045.199951171875</AltitudeMeters>
            <DistanceMeters>NAN</DistanceMeters>
          </Trackpoint>
          <Trackpoint>
            <Time>2022-08-23T09:59:13.000Z</Time>
            <Position>
              <LatitudeDegrees>42.7818118035793304443359375</LatitudeDegrees>
              <LongitudeDegrees>-0.2610776759684085845947265625</LongitudeDegrees>
            </Position>
            <AltitudeMeters>3045</AltitudeMeters>
            <DistanceMeters>NAN</DistanceMeters>
          </Trackpoint>
          <Trackpoint>
            <Time>2022-08-23T09:59:18.000Z</Time>
            <Position>
              <LatitudeDegrees>42.7818106301128864288330078125</LatitudeDegrees>
              <LongitudeDegrees>-0.26107708923518657684326171875</LongitudeDegrees>
            </Position>
            <AltitudeMeters>3045</AltitudeMeters>
            <DistanceMeters>NAN</DistanceMeters>
          </Trackpoint>
          <Trackpoint>
            <Time>2022-08-23T09:59:23.000Z</Time>
            <Position>
              <LatitudeDegrees>42.78181339614093303680419921875</LatitudeDegrees>
              <LongitudeDegrees>-0.26108077727258205413818359375</LongitudeDegrees>
            </Position>
            <AltitudeMeters>3044.800048828125</AltitudeMeters>
            <DistanceMeters>NAN</DistanceMeters>
          </Trackpoint>
          <Trackpoint>
            <Time>2022-08-23T09:59:27.000Z</Time>
            <Position>
              <LatitudeDegrees>42.7818076126277446746826171875</LatitudeDegrees>
              <LongitudeDegrees>-0.26108027435839176177978515625</LongitudeDegrees>
            </Position>
            <AltitudeMeters>3045</AltitudeMeters>
            <DistanceMeters>NAN</DistanceMeters>
          </Trackpoint>
          <Trackpoint>
            <Time>2022-08-23T09:59:33.000Z</Time>
            <Position>
              <LatitudeDegrees>42.781798057258129119873046875</LatitudeDegrees>
              <LongitudeDegrees>-0.2610634267330169677734375</LongitudeDegrees>
            </Position>
            <AltitudeMeters>3045.60009765625</AltitudeMeters>
            <DistanceMeters>NAN</DistanceMeters>
          </Trackpoint>
          <Trackpoint>
            <Time>2022-08-23T09:59:52.000Z</Time>
            <Position>
              <LatitudeDegrees>42.78177768923342227935791015625</LatitudeDegrees>
              <LongitudeDegrees>-0.26102176867425441741943359375</LongitudeDegrees>
            </Position>
            <AltitudeMeters>3046.39990234375</AltitudeMeters>
            <DistanceMeters>NAN</DistanceMeters>
          </Trackpoint>
          <Trackpoint>
            <Time>2022-08-23T09:59:55.000Z</Time>
            <Position>
              <LatitudeDegrees>42.7817767672240734100341796875</LatitudeDegrees>
              <LongitudeDegrees>-0.2610205113887786865234375</LongitudeDegrees>
            </Position>
            <AltitudeMeters>3046.39990234375</AltitudeMeters>
            <DistanceMeters>NAN</DistanceMeters>
          </Trackpoint>
          <Trackpoint>
            <Time>2022-08-23T09:59:57.000Z</Time>
            <Position>
              <LatitudeDegrees>42.781770564615726470947265625</LatitudeDegrees>
              <LongitudeDegrees>-0.26100802235305309295654296875</LongitudeDegrees>
            </Position>
            <AltitudeMeters>3046.60009765625</AltitudeMeters>
            <DistanceMeters>NAN</DistanceMeters>
          </Trackpoint>
          <Trackpoint>
            <Time>2022-08-23T10:00:00.000Z</Time>
            <Position>
              <LatitudeDegrees>42.78176846913993358612060546875</LatitudeDegrees>
              <LongitudeDegrees>-0.26100332848727703094482421875</LongitudeDegrees>
            </Position>
            <AltitudeMeters>3046.60009765625</AltitudeMeters>
            <DistanceMeters>NAN</DistanceMeters>
          </Trackpoint>
          <Trackpoint>
            <Time>2022-08-23T10:00:01.000Z</Time>
            <Position>
              <LatitudeDegrees>42.78176846913993358612060546875</LatitudeDegrees>
              <LongitudeDegrees>-0.26100332848727703094482421875</LongitudeDegrees>
            </Position>
            <AltitudeMeters>3046.60009765625</AltitudeMeters>
            <DistanceMeters>NAN</DistanceMeters>
          </Trackpoint>
          <Trackpoint>
            <Time>2022-08-23T10:00:06.000Z</Time>
            <Position>
              <LatitudeDegrees>42.7817680500447750091552734375</LatitudeDegrees>
              <LongitudeDegrees>-0.2610025741159915924072265625</LongitudeDegrees>
            </Position>
            <AltitudeMeters>3046.60009765625</AltitudeMeters>
            <DistanceMeters>NAN</DistanceMeters>
          </Trackpoint>
          <Trackpoint>
            <Time>2022-08-23T10:00:07.000Z</Time>
            <Position>
              <LatitudeDegrees>42.781764529645442962646484375</LatitudeDegrees>
              <LongitudeDegrees>-0.26099813170731067657470703125</LongitudeDegrees>
            </Position>
            <AltitudeMeters>3046.800048828125</AltitudeMeters>
            <DistanceMeters>NAN</DistanceMeters>
          </Trackpoint>
          <Trackpoint>
            <Time>2022-08-23T10:00:20.000Z</Time>
            <Position>
              <LatitudeDegrees>42.78174751438200473785400390625</LatitudeDegrees>
              <LongitudeDegrees>-0.26093401014804840087890625</LongitudeDegrees>
            </Position>
            <AltitudeMeters>3047.800048828125</AltitudeMeters>
            <DistanceMeters>NAN</DistanceMeters>
          </Trackpoint>
          <Trackpoint>
            <Time>2022-08-23T10:00:24.000Z</Time>
            <Position>
              <LatitudeDegrees>42.7817294932901859283447265625</LatitudeDegrees>
              <LongitudeDegrees>-0.26091179810464382171630859375</LongitudeDegrees>
            </Position>
            <AltitudeMeters>3048.39990234375</AltitudeMeters>
            <DistanceMeters>NAN</DistanceMeters>
          </Trackpoint>
          <Trackpoint>
            <Time>2022-08-23T10:00:33.000Z</Time>
            <Position>
              <LatitudeDegrees>42.78169034980237483978271484375</LatitudeDegrees>
              <LongitudeDegrees>-0.26084843091666698455810546875</LongitudeDegrees>
            </Position>
            <AltitudeMeters>3050.199951171875</AltitudeMeters>
            <DistanceMeters>NAN</DistanceMeters>
          </Trackpoint>
          <Trackpoint>
            <Time>2022-08-23T10:00:50.000Z</Time>
            <Position>
              <LatitudeDegrees>42.78166000731289386749267578125</LatitudeDegrees>
              <LongitudeDegrees>-0.2607387118041515350341796875</LongitudeDegrees>
            </Position>
            <AltitudeMeters>3050.199951171875</AltitudeMeters>
            <DistanceMeters>NAN</DistanceMeters>
          </Trackpoint>
          <Trackpoint>
            <Time>2022-08-23T10:00:51.000Z</Time>
            <Position>
              <LatitudeDegrees>42.7816540561616420745849609375</LatitudeDegrees>
              <LongitudeDegrees>-0.26073846034705638885498046875</LongitudeDegrees>
            </Position>
            <AltitudeMeters>3050.39990234375</AltitudeMeters>
            <DistanceMeters>NAN</DistanceMeters>
          </Trackpoint>
          <Trackpoint>
            <Time>2022-08-23T10:00:53.000Z</Time>
            <Position>
              <LatitudeDegrees>42.78164408169686794281005859375</LatitudeDegrees>
              <LongitudeDegrees>-0.26074198074638843536376953125</LongitudeDegrees>
            </Position>
            <AltitudeMeters>3050.800048828125</AltitudeMeters>
            <DistanceMeters>NAN</DistanceMeters>
          </Trackpoint>
          <Trackpoint>
            <Time>2022-08-23T10:00:55.000Z</Time>
            <Position>
              <LatitudeDegrees>42.78163838200271129608154296875</LatitudeDegrees>
              <LongitudeDegrees>-0.26073510758578777313232421875</LongitudeDegrees>
            </Position>
            <AltitudeMeters>3050.60009765625</AltitudeMeters>
            <DistanceMeters>NAN</DistanceMeters>
          </Trackpoint>
          <Trackpoint>
            <Time>2022-08-23T10:01:06.000Z</Time>
            <Position>
              <LatitudeDegrees>42.7815756015479564666748046875</LatitudeDegrees>
              <LongitudeDegrees>-0.260688252747058868408203125</LongitudeDegrees>
            </Position>
            <AltitudeMeters>3050</AltitudeMeters>
            <DistanceMeters>NAN</DistanceMeters>
          </Trackpoint>
          <Trackpoint>
            <Time>2022-08-23T10:01:08.000Z</Time>
            <Position>
              <LatitudeDegrees>42.781568057835102081298828125</LatitudeDegrees>
              <LongitudeDegrees>-0.26067878119647502899169921875</LongitudeDegrees>
            </Position>
            <AltitudeMeters>3049.60009765625</AltitudeMeters>
            <DistanceMeters>NAN</DistanceMeters>
          </Trackpoint>
          <Trackpoint>
            <Time>2022-08-23T10:01:17.000Z</Time>
            <Position>
              <LatitudeDegrees>42.78152924962341785430908203125</LatitudeDegrees>
              <LongitudeDegrees>-0.26060543954372406005859375</LongitudeDegrees>
            </Position>
            <AltitudeMeters>3046.39990234375</AltitudeMeters>
            <DistanceMeters>NAN</DistanceMeters>
          </Trackpoint>
          <Trackpoint>
            <Time>2022-08-23T10:01:19.000Z</Time>
            <Position>
              <LatitudeDegrees>42.78152011334896087646484375</LatitudeDegrees>
              <LongitudeDegrees>-0.2605888433754444122314453125</LongitudeDegrees>
            </Position>
            <AltitudeMeters>3045.60009765625</AltitudeMeters>
            <DistanceMeters>NAN</DistanceMeters>
          </Trackpoint>
          <Trackpoint>
            <Time>2022-08-23T10:01:24.000Z</Time>
            <Position>
              <LatitudeDegrees>42.78149857185781002044677734375</LatitudeDegrees>
              <LongitudeDegrees>-0.2605566568672657012939453125</LongitudeDegrees>
            </Position>
            <AltitudeMeters>3044.199951171875</AltitudeMeters>
            <DistanceMeters>NAN</DistanceMeters>
          </Trackpoint>
          <Trackpoint>
            <Time>2022-08-23T10:01:26.000Z</Time>
            <Position>
              <LatitudeDegrees>42.78149220161139965057373046875</LatitudeDegrees>
              <LongitudeDegrees>-0.2605556510388851165771484375</LongitudeDegrees>
            </Position>
            <AltitudeMeters>3044.39990234375</AltitudeMeters>
            <DistanceMeters>NAN</DistanceMeters>
          </Trackpoint>
          <Trackpoint>
            <Time>2022-08-23T10:01:31.000Z</Time>
            <Position>
              <LatitudeDegrees>42.7814545668661594390869140625</LatitudeDegrees>
              <LongitudeDegrees>-0.26053042151033878326416015625</LongitudeDegrees>
            </Position>
            <AltitudeMeters>3042.39990234375</AltitudeMeters>
            <DistanceMeters>NAN</DistanceMeters>
          </Trackpoint>
          <Trackpoint>
            <Time>2022-08-23T10:01:36.000Z</Time>
            <Position>
              <LatitudeDegrees>42.7814374677836894989013671875</LatitudeDegrees>
              <LongitudeDegrees>-0.26050091721117496490478515625</LongitudeDegrees>
            </Position>
            <AltitudeMeters>3040.60009765625</AltitudeMeters>
            <DistanceMeters>NAN</DistanceMeters>
          </Trackpoint>
          <Trackpoint>
            <Time>2022-08-23T10:02:08.000Z</Time>
            <Position>
              <LatitudeDegrees>42.78143235482275485992431640625</LatitudeDegrees>
              <LongitudeDegrees>-0.260502509772777557373046875</LongitudeDegrees>
            </Position>
            <AltitudeMeters>3040.60009765625</AltitudeMeters>
            <DistanceMeters>NAN</DistanceMeters>
          </Trackpoint>
          <Trackpoint>
            <Time>2022-08-23T10:02:15.000Z</Time>
            <Position>
              <LatitudeDegrees>42.7814243920147418975830078125</LatitudeDegrees>
              <LongitudeDegrees>-0.26049404405057430267333984375</LongitudeDegrees>
            </Position>
            <AltitudeMeters>3040.800048828125</AltitudeMeters>
            <DistanceMeters>NAN</DistanceMeters>
          </Trackpoint>
          <Trackpoint>
            <Time>2022-08-23T10:02:21.000Z</Time>
            <Position>
              <LatitudeDegrees>42.78142330236732959747314453125</LatitudeDegrees>
              <LongitudeDegrees>-0.26049622334539890289306640625</LongitudeDegrees>
            </Position>
            <AltitudeMeters>3040.60009765625</AltitudeMeters>
            <DistanceMeters>NAN</DistanceMeters>
          </Trackpoint>
          <Trackpoint>
            <Time>2022-08-23T10:02:27.000Z</Time>
            <Position>
              <LatitudeDegrees>42.78142045252025127410888671875</LatitudeDegrees>
              <LongitudeDegrees>-0.2604926191270351409912109375</LongitudeDegrees>
            </Position>
            <AltitudeMeters>3040.800048828125</AltitudeMeters>
            <DistanceMeters>NAN</DistanceMeters>
          </Trackpoint>
          <Trackpoint>
            <Time>2022-08-23T10:02:35.000Z</Time>
            <Position>
              <LatitudeDegrees>42.781423218548297882080078125</LatitudeDegrees>
              <LongitudeDegrees>-0.26049806736409664154052734375</LongitudeDegrees>
            </Position>
            <AltitudeMeters>3040.60009765625</AltitudeMeters>
            <DistanceMeters>NAN</DistanceMeters>
          </Trackpoint>
          <Trackpoint>
            <Time>2022-08-23T10:02:41.000Z</Time>
            <Position>
              <LatitudeDegrees>42.78141659684479236602783203125</LatitudeDegrees>
              <LongitudeDegrees>-0.26048834435641765594482421875</LongitudeDegrees>
            </Position>
            <AltitudeMeters>3040.800048828125</AltitudeMeters>
            <DistanceMeters>NAN</DistanceMeters>
          </Trackpoint>
          <Trackpoint>
            <Time>2022-08-23T10:02:57.000Z</Time>
            <Position>
              <LatitudeDegrees>42.7814193628728389739990234375</LatitudeDegrees>
              <LongitudeDegrees>-0.260491110384464263916015625</LongitudeDegrees>
            </Position>
            <AltitudeMeters>3040.800048828125</AltitudeMeters>
            <DistanceMeters>NAN</DistanceMeters>
          </Trackpoint>
          <Trackpoint>
            <Time>2022-08-23T10:03:07.000Z</Time>
            <Position>
              <LatitudeDegrees>42.7814237214624881744384765625</LatitudeDegrees>
              <LongitudeDegrees>-0.26048951782286167144775390625</LongitudeDegrees>
            </Position>
            <AltitudeMeters>3040.800048828125</AltitudeMeters>
            <DistanceMeters>NAN</DistanceMeters>
          </Trackpoint>
          <Trackpoint>
            <Time>2022-08-23T10:03:38.000Z</Time>
            <Position>
              <LatitudeDegrees>42.7814294211566448211669921875</LatitudeDegrees>
              <LongitudeDegrees>-0.26047660969197750091552734375</LongitudeDegrees>
            </Position>
            <AltitudeMeters>3041</AltitudeMeters>
            <DistanceMeters>NAN</DistanceMeters>
          </Trackpoint>
          <Trackpoint>
            <Time>2022-08-23T10:03:45.000Z</Time>
            <Position>
              <LatitudeDegrees>42.781429588794708251953125</LatitudeDegrees>
              <LongitudeDegrees>-0.26047828607261180877685546875</LongitudeDegrees>
            </Position>
            <AltitudeMeters>3041</AltitudeMeters>
            <DistanceMeters>NAN</DistanceMeters>
          </Trackpoint>
          <Trackpoint>
            <Time>2022-08-23T10:03:48.000Z</Time>
            <Position>
              <LatitudeDegrees>42.781431265175342559814453125</LatitudeDegrees>
              <LongitudeDegrees>-0.26048432104289531707763671875</LongitudeDegrees>
            </Position>
            <AltitudeMeters>3040.800048828125</AltitudeMeters>
            <DistanceMeters>NAN</DistanceMeters>
          </Trackpoint>
          <Trackpoint>
            <Time>2022-08-23T10:04:44.000Z</Time>
            <Position>
              <LatitudeDegrees>42.78142380528151988983154296875</LatitudeDegrees>
              <LongitudeDegrees>-0.2604661323130130767822265625</LongitudeDegrees>
            </Position>
            <AltitudeMeters>3041</AltitudeMeters>
            <DistanceMeters>NAN</DistanceMeters>
          </Trackpoint>
          <Trackpoint>
            <Time>2022-08-23T10:04:50.000Z</Time>
            <Position>
              <LatitudeDegrees>42.7814237214624881744384765625</LatitudeDegrees>
              <LongitudeDegrees>-0.2604678086936473846435546875</LongitudeDegrees>
            </Position>
            <AltitudeMeters>3041</AltitudeMeters>
            <DistanceMeters>NAN</DistanceMeters>
          </Trackpoint>
          <Trackpoint>
            <Time>2022-08-23T10:04:52.000Z</Time>
            <Position>
              <LatitudeDegrees>42.78142380528151988983154296875</LatitudeDegrees>
              <LongitudeDegrees>-0.26046772487461566925048828125</LongitudeDegrees>
            </Position>
            <AltitudeMeters>3041</AltitudeMeters>
            <DistanceMeters>NAN</DistanceMeters>
          </Trackpoint>
          <Trackpoint>
            <Time>2022-08-23T10:05:08.000Z</Time>
            <Position>
              <LatitudeDegrees>42.781420536339282989501953125</LatitudeDegrees>
              <LongitudeDegrees>-0.2604654617607593536376953125</LongitudeDegrees>
            </Position>
            <AltitudeMeters>3041</AltitudeMeters>
            <DistanceMeters>NAN</DistanceMeters>
          </Trackpoint>
          <Trackpoint>
            <Time>2022-08-23T10:05:15.000Z</Time>
            <Position>
              <LatitudeDegrees>42.781421206891536712646484375</LatitudeDegrees>
              <LongitudeDegrees>-0.2604661323130130767822265625</LongitudeDegrees>
            </Position>
            <AltitudeMeters>3041</AltitudeMeters>
            <DistanceMeters>NAN</DistanceMeters>
          </Trackpoint>
          <Trackpoint>
            <Time>2022-08-23T10:05:25.000Z</Time>
            <Position>
              <LatitudeDegrees>42.78142145834863185882568359375</LatitudeDegrees>
              <LongitudeDegrees>-0.26046328246593475341796875</LongitudeDegrees>
            </Position>
            <AltitudeMeters>3041</AltitudeMeters>
            <DistanceMeters>NAN</DistanceMeters>
          </Trackpoint>
          <Trackpoint>
            <Time>2022-08-23T10:05:37.000Z</Time>
            <Position>
              <LatitudeDegrees>42.7814240567386150360107421875</LatitudeDegrees>
              <LongitudeDegrees>-0.26043235324323177337646484375</LongitudeDegrees>
            </Position>
            <AltitudeMeters>3041</AltitudeMeters>
            <DistanceMeters>NAN</DistanceMeters>
          </Trackpoint>
          <Trackpoint>
            <Time>2022-08-23T10:05:44.000Z</Time>
            <Position>
              <LatitudeDegrees>42.78143302537500858306884765625</LatitudeDegrees>
              <LongitudeDegrees>-0.26040268130600452423095703125</LongitudeDegrees>
            </Position>
            <AltitudeMeters>3041.199951171875</AltitudeMeters>
            <DistanceMeters>NAN</DistanceMeters>
          </Trackpoint>
          <Trackpoint>
            <Time>2022-08-23T10:05:45.000Z</Time>
            <Position>
              <LatitudeDegrees>42.7814331091940402984619140625</LatitudeDegrees>
              <LongitudeDegrees>-0.26039916090667247772216796875</LongitudeDegrees>
            </Position>
            <AltitudeMeters>3041.199951171875</AltitudeMeters>
            <DistanceMeters>NAN</DistanceMeters>
          </Trackpoint>
          <Trackpoint>
            <Time>2022-08-23T10:05:48.000Z</Time>
            <Position>
              <LatitudeDegrees>42.78143604286015033721923828125</LatitudeDegrees>
              <LongitudeDegrees>-0.26038415729999542236328125</LongitudeDegrees>
            </Position>
            <AltitudeMeters>3041.199951171875</AltitudeMeters>
            <DistanceMeters>NAN</DistanceMeters>
          </Trackpoint>
          <Trackpoint>
            <Time>2022-08-23T10:05:49.000Z</Time>
            <Position>
              <LatitudeDegrees>42.78143285773694515228271484375</LatitudeDegrees>
              <LongitudeDegrees>-0.2603719197213649749755859375</LongitudeDegrees>
            </Position>
            <AltitudeMeters>3041.199951171875</AltitudeMeters>
            <DistanceMeters>NAN</DistanceMeters>
          </Trackpoint>
          <Trackpoint>
            <Time>2022-08-23T10:05:50.000Z</Time>
            <Position>
              <LatitudeDegrees>42.78143051080405712127685546875</LatitudeDegrees>
              <LongitudeDegrees>-0.260361023247241973876953125</LongitudeDegrees>
            </Position>
            <AltitudeMeters>3041.39990234375</AltitudeMeters>
            <DistanceMeters>NAN</DistanceMeters>
          </Trackpoint>
          <Trackpoint>
            <Time>2022-08-23T10:05:51.000Z</Time>
            <Position>
              <LatitudeDegrees>42.78142757713794708251953125</LatitudeDegrees>
              <LongitudeDegrees>-0.26034794747829437255859375</LongitudeDegrees>
            </Position>
            <AltitudeMeters>3041.39990234375</AltitudeMeters>
            <DistanceMeters>NAN</DistanceMeters>
          </Trackpoint>
          <Trackpoint>
            <Time>2022-08-23T10:05:53.000Z</Time>
            <Position>
              <LatitudeDegrees>42.78142330236732959747314453125</LatitudeDegrees>
              <LongitudeDegrees>-0.26032975874841213226318359375</LongitudeDegrees>
            </Position>
            <AltitudeMeters>3041.39990234375</AltitudeMeters>
            <DistanceMeters>NAN</DistanceMeters>
          </Trackpoint>
          <Trackpoint>
            <Time>2022-08-23T10:05:54.000Z</Time>
            <Position>
              <LatitudeDegrees>42.78142196126282215118408203125</LatitudeDegrees>
              <LongitudeDegrees>-0.26032305322587490081787109375</LongitudeDegrees>
            </Position>
            <AltitudeMeters>3041.39990234375</AltitudeMeters>
            <DistanceMeters>NAN</DistanceMeters>
          </Trackpoint>
          <Trackpoint>
            <Time>2022-08-23T10:05:57.000Z</Time>
            <Position>
              <LatitudeDegrees>42.78141818940639495849609375</LatitudeDegrees>
              <LongitudeDegrees>-0.26030503213405609130859375</LongitudeDegrees>
            </Position>
            <AltitudeMeters>3041.39990234375</AltitudeMeters>
            <DistanceMeters>NAN</DistanceMeters>
          </Trackpoint>
          <Trackpoint>
            <Time>2022-08-23T10:06:00.000Z</Time>
            <Position>
              <LatitudeDegrees>42.781419195234775543212890625</LatitudeDegrees>
              <LongitudeDegrees>-0.26027846150100231170654296875</LongitudeDegrees>
            </Position>
            <AltitudeMeters>3041.60009765625</AltitudeMeters>
            <DistanceMeters>NAN</DistanceMeters>
          </Trackpoint>
          <Trackpoint>
            <Time>2022-08-23T10:06:01.000Z</Time>
            <Position>
              <LatitudeDegrees>42.78141844086349010467529296875</LatitudeDegrees>
              <LongitudeDegrees>-0.26026253588497638702392578125</LongitudeDegrees>
            </Position>
            <AltitudeMeters>3041.60009765625</AltitudeMeters>
            <DistanceMeters>NAN</DistanceMeters>
          </Trackpoint>
          <Trackpoint>
            <Time>2022-08-23T10:06:04.000Z</Time>
            <Position>
              <LatitudeDegrees>42.78142623603343963623046875</LatitudeDegrees>
              <LongitudeDegrees>-0.2602495439350605010986328125</LongitudeDegrees>
            </Position>
            <AltitudeMeters>3041.800048828125</AltitudeMeters>
            <DistanceMeters>NAN</DistanceMeters>
          </Trackpoint>
          <Trackpoint>
            <Time>2022-08-23T10:06:06.000Z</Time>
            <Position>
              <LatitudeDegrees>42.78142732568085193634033203125</LatitudeDegrees>
              <LongitudeDegrees>-0.2602311037480831146240234375</LongitudeDegrees>
            </Position>
            <AltitudeMeters>3042</AltitudeMeters>
            <DistanceMeters>NAN</DistanceMeters>
          </Trackpoint>
          <Trackpoint>
            <Time>2022-08-23T10:06:07.000Z</Time>
            <Position>
              <LatitudeDegrees>42.7814287506043910980224609375</LatitudeDegrees>
              <LongitudeDegrees>-0.2602247335016727447509765625</LongitudeDegrees>
            </Position>
            <AltitudeMeters>3042.199951171875</AltitudeMeters>
            <DistanceMeters>NAN</DistanceMeters>
          </Trackpoint>
          <Trackpoint>
            <Time>2022-08-23T10:06:09.000Z</Time>
            <Position>
              <LatitudeDegrees>42.781425230205059051513671875</LatitudeDegrees>
              <LongitudeDegrees>-0.26020847260951995849609375</LongitudeDegrees>
            </Position>
            <AltitudeMeters>3042.60009765625</AltitudeMeters>
            <DistanceMeters>NAN</DistanceMeters>
          </Trackpoint>
          <Trackpoint>
            <Time>2022-08-23T10:06:10.000Z</Time>
            <Position>
              <LatitudeDegrees>42.78142397291958332061767578125</LatitudeDegrees>
              <LongitudeDegrees>-0.26020302437245845794677734375</LongitudeDegrees>
            </Position>
            <AltitudeMeters>3042.800048828125</AltitudeMeters>
            <DistanceMeters>NAN</DistanceMeters>
          </Trackpoint>
          <Trackpoint>
            <Time>2022-08-23T10:06:13.000Z</Time>
            <Position>
              <LatitudeDegrees>42.78142028488218784332275390625</LatitudeDegrees>
              <LongitudeDegrees>-0.2601764537394046783447265625</LongitudeDegrees>
            </Position>
            <AltitudeMeters>3043.800048828125</AltitudeMeters>
            <DistanceMeters>NAN</DistanceMeters>
          </Trackpoint>
          <Trackpoint>
            <Time>2022-08-23T10:06:16.000Z</Time>
            <Position>
              <LatitudeDegrees>42.78141860850155353546142578125</LatitudeDegrees>
              <LongitudeDegrees>-0.260160528123378753662109375</LongitudeDegrees>
            </Position>
            <AltitudeMeters>3044.39990234375</AltitudeMeters>
            <DistanceMeters>NAN</DistanceMeters>
          </Trackpoint>
          <Trackpoint>
            <Time>2022-08-23T10:06:20.000Z</Time>
            <Position>
              <LatitudeDegrees>42.781419865787029266357421875</LatitudeDegrees>
              <LongitudeDegrees>-0.26013605296611785888671875</LongitudeDegrees>
            </Position>
            <AltitudeMeters>3045.199951171875</AltitudeMeters>
            <DistanceMeters>NAN</DistanceMeters>
          </Trackpoint>
          <Trackpoint>
            <Time>2022-08-23T10:06:29.000Z</Time>
            <Position>
              <LatitudeDegrees>42.78139614500105381011962890625</LatitudeDegrees>
              <LongitudeDegrees>-0.2600879408419132232666015625</LongitudeDegrees>
            </Position>
            <AltitudeMeters>3047.199951171875</AltitudeMeters>
            <DistanceMeters>NAN</DistanceMeters>
          </Trackpoint>
          <Trackpoint>
            <Time>2022-08-23T10:06:30.000Z</Time>
            <Position>
              <LatitudeDegrees>42.78139279223978519439697265625</LatitudeDegrees>
              <LongitudeDegrees>-0.26007981039583683013916015625</LongitudeDegrees>
            </Position>
            <AltitudeMeters>3047.60009765625</AltitudeMeters>
            <DistanceMeters>NAN</DistanceMeters>
          </Trackpoint>
          <Trackpoint>
            <Time>2022-08-23T10:06:35.000Z</Time>
            <Position>
              <LatitudeDegrees>42.78137468732893466949462890625</LatitudeDegrees>
              <LongitudeDegrees>-0.26004293002188205718994140625</LongitudeDegrees>
            </Position>
            <AltitudeMeters>3049</AltitudeMeters>
            <DistanceMeters>NAN</DistanceMeters>
          </Trackpoint>
          <Trackpoint>
            <Time>2022-08-23T10:06:36.000Z</Time>
            <Position>
              <LatitudeDegrees>42.7813771180808544158935546875</LatitudeDegrees>
              <LongitudeDegrees>-0.2600309439003467559814453125</LongitudeDegrees>
            </Position>
            <AltitudeMeters>3049.39990234375</AltitudeMeters>
            <DistanceMeters>NAN</DistanceMeters>
          </Trackpoint>
          <Trackpoint>
            <Time>2022-08-23T10:06:56.000Z</Time>
            <Position>
              <LatitudeDegrees>42.78134216554462909698486328125</LatitudeDegrees>
              <LongitudeDegrees>-0.25984863750636577606201171875</LongitudeDegrees>
            </Position>
            <AltitudeMeters>3040.60009765625</AltitudeMeters>
            <DistanceMeters>NAN</DistanceMeters>
          </Trackpoint>
          <Trackpoint>
            <Time>2022-08-23T10:07:18.000Z</Time>
            <Position>
              <LatitudeDegrees>42.78130545280873775482177734375</LatitudeDegrees>
              <LongitudeDegrees>-0.25977672077715396881103515625</LongitudeDegrees>
            </Position>
            <AltitudeMeters>3038.199951171875</AltitudeMeters>
            <DistanceMeters>NAN</DistanceMeters>
          </Trackpoint>
          <Trackpoint>
            <Time>2022-08-23T10:07:23.000Z</Time>
            <Position>
              <LatitudeDegrees>42.78130930848419666290283203125</LatitudeDegrees>
              <LongitudeDegrees>-0.2597773075103759765625</LongitudeDegrees>
            </Position>
            <AltitudeMeters>3038.60009765625</AltitudeMeters>
            <DistanceMeters>NAN</DistanceMeters>
          </Trackpoint>
          <Trackpoint>
            <Time>2022-08-23T10:07:37.000Z</Time>
            <Position>
              <LatitudeDegrees>42.78129774145781993865966796875</LatitudeDegrees>
              <LongitudeDegrees>-0.2597556822001934051513671875</LongitudeDegrees>
            </Position>
            <AltitudeMeters>3037.60009765625</AltitudeMeters>
            <DistanceMeters>NAN</DistanceMeters>
          </Trackpoint>
          <Trackpoint>
            <Time>2022-08-23T10:07:55.000Z</Time>
            <Position>
              <LatitudeDegrees>42.7812699973583221435546875</LatitudeDegrees>
              <LongitudeDegrees>-0.25964864529669284820556640625</LongitudeDegrees>
            </Position>
            <AltitudeMeters>3035.800048828125</AltitudeMeters>
            <DistanceMeters>NAN</DistanceMeters>
          </Trackpoint>
          <Trackpoint>
            <Time>2022-08-23T10:08:04.000Z</Time>
            <Position>
              <LatitudeDegrees>42.7812842465937137603759765625</LatitudeDegrees>
              <LongitudeDegrees>-0.2596266008913516998291015625</LongitudeDegrees>
            </Position>
            <AltitudeMeters>3035.800048828125</AltitudeMeters>
            <DistanceMeters>NAN</DistanceMeters>
          </Trackpoint>
          <Trackpoint>
            <Time>2022-08-23T10:08:59.000Z</Time>
            <Position>
              <LatitudeDegrees>42.7813295088708400726318359375</LatitudeDegrees>
              <LongitudeDegrees>-0.25950665585696697235107421875</LongitudeDegrees>
            </Position>
            <AltitudeMeters>3033.199951171875</AltitudeMeters>
            <DistanceMeters>NAN</DistanceMeters>
          </Trackpoint>
          <Trackpoint>
            <Time>2022-08-23T10:09:17.000Z</Time>
            <Position>
              <LatitudeDegrees>42.7813291735947132110595703125</LatitudeDegrees>
              <LongitudeDegrees>-0.25943993590772151947021484375</LongitudeDegrees>
            </Position>
            <AltitudeMeters>3038.60009765625</AltitudeMeters>
            <DistanceMeters>NAN</DistanceMeters>
          </Trackpoint>
          <Trackpoint>
            <Time>2022-08-23T10:09:30.000Z</Time>
            <Position>
              <LatitudeDegrees>42.78133931569755077362060546875</LatitudeDegrees>
              <LongitudeDegrees>-0.25944672524929046630859375</LongitudeDegrees>
            </Position>
            <AltitudeMeters>3037.60009765625</AltitudeMeters>
            <DistanceMeters>NAN</DistanceMeters>
          </Trackpoint>
          <Trackpoint>
            <Time>2022-08-23T10:09:52.000Z</Time>
            <Position>
              <LatitudeDegrees>42.78132858686149120330810546875</LatitudeDegrees>
              <LongitudeDegrees>-0.25936500169336795806884765625</LongitudeDegrees>
            </Position>
            <AltitudeMeters>3043.60009765625</AltitudeMeters>
            <DistanceMeters>NAN</DistanceMeters>
          </Trackpoint>
          <Trackpoint>
            <Time>2022-08-23T10:09:58.000Z</Time>
            <Position>
              <LatitudeDegrees>42.78135071508586406707763671875</LatitudeDegrees>
              <LongitudeDegrees>-0.2593065798282623291015625</LongitudeDegrees>
            </Position>
            <AltitudeMeters>3043.39990234375</AltitudeMeters>
            <DistanceMeters>NAN</DistanceMeters>
          </Trackpoint>
          <Trackpoint>
            <Time>2022-08-23T10:10:02.000Z</Time>
            <Position>
              <LatitudeDegrees>42.7813563309609889984130859375</LatitudeDegrees>
              <LongitudeDegrees>-0.25927372276782989501953125</LongitudeDegrees>
            </Position>
            <AltitudeMeters>3043.60009765625</AltitudeMeters>
            <DistanceMeters>NAN</DistanceMeters>
          </Trackpoint>
          <Trackpoint>
            <Time>2022-08-23T10:10:06.000Z</Time>
            <Position>
              <LatitudeDegrees>42.78136094100773334503173828125</LatitudeDegrees>
              <LongitudeDegrees>-0.2592433802783489227294921875</LongitudeDegrees>
            </Position>
            <AltitudeMeters>3043.60009765625</AltitudeMeters>
            <DistanceMeters>NAN</DistanceMeters>
          </Trackpoint>
          <Trackpoint>
            <Time>2022-08-23T10:10:40.000Z</Time>
            <Position>
              <LatitudeDegrees>42.781450040638446807861328125</LatitudeDegrees>
              <LongitudeDegrees>-0.25906878523528575897216796875</LongitudeDegrees>
            </Position>
            <AltitudeMeters>3040.39990234375</AltitudeMeters>
            <DistanceMeters>NAN</DistanceMeters>
          </Trackpoint>
          <Trackpoint>
            <Time>2022-08-23T10:10:42.000Z</Time>
            <Position>
              <LatitudeDegrees>42.78143621049821376800537109375</LatitudeDegrees>
              <LongitudeDegrees>-0.2590490877628326416015625</LongitudeDegrees>
            </Position>
            <AltitudeMeters>3040.199951171875</AltitudeMeters>
            <DistanceMeters>NAN</DistanceMeters>
          </Trackpoint>
          <Trackpoint>
            <Time>2022-08-23T10:11:09.000Z</Time>
            <Position>
              <LatitudeDegrees>42.78141726739704608917236328125</LatitudeDegrees>
              <LongitudeDegrees>-0.25881104171276092529296875</LongitudeDegrees>
            </Position>
            <AltitudeMeters>3034.60009765625</AltitudeMeters>
            <DistanceMeters>NAN</DistanceMeters>
          </Trackpoint>
          <Trackpoint>
            <Time>2022-08-23T10:11:48.000Z</Time>
            <Position>
              <LatitudeDegrees>42.7813405729830265045166015625</LatitudeDegrees>
              <LongitudeDegrees>-0.2586610056459903717041015625</LongitudeDegrees>
            </Position>
            <AltitudeMeters>3030</AltitudeMeters>
            <DistanceMeters>NAN</DistanceMeters>
          </Trackpoint>
          <Trackpoint>
            <Time>2022-08-23T10:11:49.000Z</Time>
            <Position>
              <LatitudeDegrees>42.78133495710790157318115234375</LatitudeDegrees>
              <LongitudeDegrees>-0.258654467761516571044921875</LongitudeDegrees>
            </Position>
            <AltitudeMeters>3029.199951171875</AltitudeMeters>
            <DistanceMeters>NAN</DistanceMeters>
          </Trackpoint>
          <Trackpoint>
            <Time>2022-08-23T10:11:50.000Z</Time>
            <Position>
              <LatitudeDegrees>42.78133495710790157318115234375</LatitudeDegrees>
              <LongitudeDegrees>-0.258654467761516571044921875</LongitudeDegrees>
            </Position>
            <AltitudeMeters>3029.199951171875</AltitudeMeters>
            <DistanceMeters>NAN</DistanceMeters>
          </Trackpoint>
          <Trackpoint>
            <Time>2022-08-23T10:11:54.000Z</Time>
            <Position>
              <LatitudeDegrees>42.78133059851825237274169921875</LatitudeDegrees>
              <LongitudeDegrees>-0.25865371339023113250732421875</LongitudeDegrees>
            </Position>
            <AltitudeMeters>3029.199951171875</AltitudeMeters>
            <DistanceMeters>NAN</DistanceMeters>
          </Trackpoint>
          <Trackpoint>
            <Time>2022-08-23T10:11:55.000Z</Time>
            <Position>
              <LatitudeDegrees>42.78133101761341094970703125</LatitudeDegrees>
              <LongitudeDegrees>-0.2586539648473262786865234375</LongitudeDegrees>
            </Position>
            <AltitudeMeters>3029.39990234375</AltitudeMeters>
            <DistanceMeters>NAN</DistanceMeters>
          </Trackpoint>
          <Trackpoint>
            <Time>2022-08-23T10:11:56.000Z</Time>
            <Position>
              <LatitudeDegrees>42.781332023441791534423828125</LatitudeDegrees>
              <LongitudeDegrees>-0.25865413248538970947265625</LongitudeDegrees>
            </Position>
            <AltitudeMeters>3029.39990234375</AltitudeMeters>
            <DistanceMeters>NAN</DistanceMeters>
          </Trackpoint>
          <Trackpoint>
            <Time>2022-08-23T10:11:57.000Z</Time>
            <Position>
              <LatitudeDegrees>42.78133193962275981903076171875</LatitudeDegrees>
              <LongitudeDegrees>-0.25865421630442142486572265625</LongitudeDegrees>
            </Position>
            <AltitudeMeters>3029.39990234375</AltitudeMeters>
            <DistanceMeters>NAN</DistanceMeters>
          </Trackpoint>
          <Trackpoint>
            <Time>2022-08-23T10:11:58.000Z</Time>
            <Position>
              <LatitudeDegrees>42.78133210726082324981689453125</LatitudeDegrees>
              <LongitudeDegrees>-0.258654467761516571044921875</LongitudeDegrees>
            </Position>
            <AltitudeMeters>3029.39990234375</AltitudeMeters>
            <DistanceMeters>NAN</DistanceMeters>
          </Trackpoint>
          <Trackpoint>
            <Time>2022-08-23T10:12:01.000Z</Time>
            <Position>
              <LatitudeDegrees>42.78133344836533069610595703125</LatitudeDegrees>
              <LongitudeDegrees>-0.2586529590189456939697265625</LongitudeDegrees>
            </Position>
            <AltitudeMeters>3029.199951171875</AltitudeMeters>
            <DistanceMeters>NAN</DistanceMeters>
          </Trackpoint>
          <Trackpoint>
            <Time>2022-08-23T10:12:03.000Z</Time>
            <Position>
              <LatitudeDegrees>42.78133495710790157318115234375</LatitudeDegrees>
              <LongitudeDegrees>-0.25865279138088226318359375</LongitudeDegrees>
            </Position>
            <AltitudeMeters>3029.199951171875</AltitudeMeters>
            <DistanceMeters>NAN</DistanceMeters>
          </Trackpoint>
          <Trackpoint>
            <Time>2022-08-23T10:12:04.000Z</Time>
            <Position>
              <LatitudeDegrees>42.781335376203060150146484375</LatitudeDegrees>
              <LongitudeDegrees>-0.25865279138088226318359375</LongitudeDegrees>
            </Position>
            <AltitudeMeters>3029.199951171875</AltitudeMeters>
            <DistanceMeters>NAN</DistanceMeters>
          </Trackpoint>
          <Trackpoint>
            <Time>2022-08-23T10:12:05.000Z</Time>
            <Position>
              <LatitudeDegrees>42.7813355438411235809326171875</LatitudeDegrees>
              <LongitudeDegrees>-0.2586526237428188323974609375</LongitudeDegrees>
            </Position>
            <AltitudeMeters>3029</AltitudeMeters>
            <DistanceMeters>NAN</DistanceMeters>
          </Trackpoint>
          <Trackpoint>
            <Time>2022-08-23T10:12:06.000Z</Time>
            <Position>
              <LatitudeDegrees>42.7813355438411235809326171875</LatitudeDegrees>
              <LongitudeDegrees>-0.25865253992378711700439453125</LongitudeDegrees>
            </Position>
            <AltitudeMeters>3029</AltitudeMeters>
            <DistanceMeters>NAN</DistanceMeters>
          </Trackpoint>
          <Trackpoint>
            <Time>2022-08-23T10:12:07.000Z</Time>
            <Position>
              <LatitudeDegrees>42.7813355438411235809326171875</LatitudeDegrees>
              <LongitudeDegrees>-0.25865253992378711700439453125</LongitudeDegrees>
            </Position>
            <AltitudeMeters>3029</AltitudeMeters>
            <DistanceMeters>NAN</DistanceMeters>
          </Trackpoint>
          <Trackpoint>
            <Time>2022-08-23T10:12:08.000Z</Time>
            <Position>
              <LatitudeDegrees>42.7813372202217578887939453125</LatitudeDegrees>
              <LongitudeDegrees>-0.25865614414215087890625</LongitudeDegrees>
            </Position>
            <AltitudeMeters>3029.39990234375</AltitudeMeters>
            <DistanceMeters>NAN</DistanceMeters>
          </Trackpoint>
          <Trackpoint>
            <Time>2022-08-23T10:12:09.000Z</Time>
            <Position>
              <LatitudeDegrees>42.78134015388786792755126953125</LatitudeDegrees>
              <LongitudeDegrees>-0.2586589939892292022705078125</LongitudeDegrees>
            </Position>
            <AltitudeMeters>3029.60009765625</AltitudeMeters>
            <DistanceMeters>NAN</DistanceMeters>
          </Trackpoint>
          <Trackpoint>
            <Time>2022-08-23T10:12:10.000Z</Time>
            <Position>
              <LatitudeDegrees>42.7813435904681682586669921875</LatitudeDegrees>
              <LongitudeDegrees>-0.2586630173027515411376953125</LongitudeDegrees>
            </Position>
            <AltitudeMeters>3030</AltitudeMeters>
            <DistanceMeters>NAN</DistanceMeters>
          </Trackpoint>
          <Trackpoint>
            <Time>2022-08-23T10:12:11.000Z</Time>
            <Position>
              <LatitudeDegrees>42.7813462726771831512451171875</LatitudeDegrees>
              <LongitudeDegrees>-0.25866888463497161865234375</LongitudeDegrees>
            </Position>
            <AltitudeMeters>3030.39990234375</AltitudeMeters>
            <DistanceMeters>NAN</DistanceMeters>
          </Trackpoint>
          <Trackpoint>
            <Time>2022-08-23T10:12:12.000Z</Time>
            <Position>
              <LatitudeDegrees>42.781349457800388336181640625</LatitudeDegrees>
              <LongitudeDegrees>-0.25867399759590625762939453125</LongitudeDegrees>
            </Position>
            <AltitudeMeters>3030.60009765625</AltitudeMeters>
            <DistanceMeters>NAN</DistanceMeters>
          </Trackpoint>
          <Trackpoint>
            <Time>2022-08-23T10:12:27.000Z</Time>
            <Position>
              <LatitudeDegrees>42.78139715082943439483642578125</LatitudeDegrees>
              <LongitudeDegrees>-0.258798301219940185546875</LongitudeDegrees>
            </Position>
            <AltitudeMeters>3035</AltitudeMeters>
            <DistanceMeters>NAN</DistanceMeters>
          </Trackpoint>
          <Trackpoint>
            <Time>2022-08-23T10:12:28.000Z</Time>
            <Position>
              <LatitudeDegrees>42.7814086340367794036865234375</LatitudeDegrees>
              <LongitudeDegrees>-0.25882118381559848785400390625</LongitudeDegrees>
            </Position>
            <AltitudeMeters>3035.800048828125</AltitudeMeters>
            <DistanceMeters>NAN</DistanceMeters>
          </Trackpoint>
          <Trackpoint>
            <Time>2022-08-23T10:12:29.000Z</Time>
            <Position>
              <LatitudeDegrees>42.7814086340367794036865234375</LatitudeDegrees>
              <LongitudeDegrees>-0.25882118381559848785400390625</LongitudeDegrees>
            </Position>
            <AltitudeMeters>3035.800048828125</AltitudeMeters>
            <DistanceMeters>NAN</DistanceMeters>
          </Trackpoint>
          <Trackpoint>
            <Time>2022-08-23T10:12:33.000Z</Time>
            <Position>
              <LatitudeDegrees>42.78143034316599369049072265625</LatitudeDegrees>
              <LongitudeDegrees>-0.258854962885379791259765625</LongitudeDegrees>
            </Position>
            <AltitudeMeters>3034.199951171875</AltitudeMeters>
            <DistanceMeters>NAN</DistanceMeters>
          </Trackpoint>
          <Trackpoint>
            <Time>2022-08-23T10:12:36.000Z</Time>
            <Position>
              <LatitudeDegrees>42.781429588794708251953125</LatitudeDegrees>
              <LongitudeDegrees>-0.25887675583362579345703125</LongitudeDegrees>
            </Position>
            <AltitudeMeters>3034.800048828125</AltitudeMeters>
            <DistanceMeters>NAN</DistanceMeters>
          </Trackpoint>
          <Trackpoint>
            <Time>2022-08-23T10:13:00.000Z</Time>
            <Position>
              <LatitudeDegrees>42.78142514638602733612060546875</LatitudeDegrees>
              <LongitudeDegrees>-0.2588772587478160858154296875</LongitudeDegrees>
            </Position>
            <AltitudeMeters>3035</AltitudeMeters>
            <DistanceMeters>NAN</DistanceMeters>
          </Trackpoint>
          <Trackpoint>
            <Time>2022-08-23T10:13:08.000Z</Time>
            <Position>
              <LatitudeDegrees>42.7814233861863613128662109375</LatitudeDegrees>
              <LongitudeDegrees>-0.25887348689138889312744140625</LongitudeDegrees>
            </Position>
            <AltitudeMeters>3035</AltitudeMeters>
            <DistanceMeters>NAN</DistanceMeters>
          </Trackpoint>
          <Trackpoint>
            <Time>2022-08-23T10:13:18.000Z</Time>
            <Position>
              <LatitudeDegrees>42.7814217098057270050048828125</LatitudeDegrees>
              <LongitudeDegrees>-0.25888614356517791748046875</LongitudeDegrees>
            </Position>
            <AltitudeMeters>3035.39990234375</AltitudeMeters>
            <DistanceMeters>NAN</DistanceMeters>
          </Trackpoint>
          <Trackpoint>
            <Time>2022-08-23T10:13:23.000Z</Time>
            <Position>
              <LatitudeDegrees>42.78141542337834835052490234375</LatitudeDegrees>
              <LongitudeDegrees>-0.25888522155582904815673828125</LongitudeDegrees>
            </Position>
            <AltitudeMeters>3035.60009765625</AltitudeMeters>
            <DistanceMeters>NAN</DistanceMeters>
          </Trackpoint>
          <Trackpoint>
            <Time>2022-08-23T10:13:28.000Z</Time>
            <Position>
              <LatitudeDegrees>42.7814183570444583892822265625</LatitudeDegrees>
              <LongitudeDegrees>-0.25890248827636241912841796875</LongitudeDegrees>
            </Position>
            <AltitudeMeters>3036</AltitudeMeters>
            <DistanceMeters>NAN</DistanceMeters>
          </Trackpoint>
          <Trackpoint>
            <Time>2022-08-23T10:14:04.000Z</Time>
            <Position>
              <LatitudeDegrees>42.7814250625669956207275390625</LatitudeDegrees>
              <LongitudeDegrees>-0.25889393873512744903564453125</LongitudeDegrees>
            </Position>
            <AltitudeMeters>3035.60009765625</AltitudeMeters>
            <DistanceMeters>NAN</DistanceMeters>
          </Trackpoint>
          <Trackpoint>
            <Time>2022-08-23T10:14:24.000Z</Time>
            <Position>
              <LatitudeDegrees>42.7814351208508014678955078125</LatitudeDegrees>
              <LongitudeDegrees>-0.25889293290674686431884765625</LongitudeDegrees>
            </Position>
            <AltitudeMeters>3035.199951171875</AltitudeMeters>
            <DistanceMeters>NAN</DistanceMeters>
          </Trackpoint>
          <Trackpoint>
            <Time>2022-08-23T10:14:33.000Z</Time>
            <Position>
              <LatitudeDegrees>42.78144006617367267608642578125</LatitudeDegrees>
              <LongitudeDegrees>-0.25888605974614620208740234375</LongitudeDegrees>
            </Position>
            <AltitudeMeters>3034.800048828125</AltitudeMeters>
            <DistanceMeters>NAN</DistanceMeters>
          </Trackpoint>
          <Trackpoint>
            <Time>2022-08-23T10:14:46.000Z</Time>
            <Position>
              <LatitudeDegrees>42.78143118135631084442138671875</LatitudeDegrees>
              <LongitudeDegrees>-0.2588774263858795166015625</LongitudeDegrees>
            </Position>
            <AltitudeMeters>3034.800048828125</AltitudeMeters>
            <DistanceMeters>NAN</DistanceMeters>
          </Trackpoint>
          <Trackpoint>
            <Time>2022-08-23T10:14:48.000Z</Time>
            <Position>
              <LatitudeDegrees>42.781429253518581390380859375</LatitudeDegrees>
              <LongitudeDegrees>-0.2588735707104206085205078125</LongitudeDegrees>
            </Position>
            <AltitudeMeters>3034.800048828125</AltitudeMeters>
            <DistanceMeters>NAN</DistanceMeters>
          </Trackpoint>
          <Trackpoint>
            <Time>2022-08-23T10:14:56.000Z</Time>
            <Position>
              <LatitudeDegrees>42.7814277447760105133056640625</LatitudeDegrees>
              <LongitudeDegrees>-0.258866362273693084716796875</LongitudeDegrees>
            </Position>
            <AltitudeMeters>3034.60009765625</AltitudeMeters>
            <DistanceMeters>NAN</DistanceMeters>
          </Trackpoint>
          <Trackpoint>
            <Time>2022-08-23T10:14:59.000Z</Time>
            <Position>
              <LatitudeDegrees>42.78142766095697879791259765625</LatitudeDegrees>
              <LongitudeDegrees>-0.258866362273693084716796875</LongitudeDegrees>
            </Position>
            <AltitudeMeters>3034.60009765625</AltitudeMeters>
            <DistanceMeters>NAN</DistanceMeters>
          </Trackpoint>
          <Trackpoint>
            <Time>2022-08-23T10:15:03.000Z</Time>
            <Position>
              <LatitudeDegrees>42.78142900206148624420166015625</LatitudeDegrees>
              <LongitudeDegrees>-0.25886577554047107696533203125</LongitudeDegrees>
            </Position>
            <AltitudeMeters>3034.60009765625</AltitudeMeters>
            <DistanceMeters>NAN</DistanceMeters>
          </Trackpoint>
          <Trackpoint>
            <Time>2022-08-23T10:15:04.000Z</Time>
            <Position>
              <LatitudeDegrees>42.7814307622611522674560546875</LatitudeDegrees>
              <LongitudeDegrees>-0.2588655240833759307861328125</LongitudeDegrees>
            </Position>
            <AltitudeMeters>3034.39990234375</AltitudeMeters>
            <DistanceMeters>NAN</DistanceMeters>
          </Trackpoint>
          <Trackpoint>
            <Time>2022-08-23T10:15:16.000Z</Time>
            <Position>
              <LatitudeDegrees>42.78143352828919887542724609375</LatitudeDegrees>
              <LongitudeDegrees>-0.2588661946356296539306640625</LongitudeDegrees>
            </Position>
            <AltitudeMeters>3034.39990234375</AltitudeMeters>
            <DistanceMeters>NAN</DistanceMeters>
          </Trackpoint>
          <Trackpoint>
            <Time>2022-08-23T10:17:50.000Z</Time>
            <Position>
              <LatitudeDegrees>42.78144140727818012237548828125</LatitudeDegrees>
              <LongitudeDegrees>-0.25913215242326259613037109375</LongitudeDegrees>
            </Position>
            <AltitudeMeters>3041.60009765625</AltitudeMeters>
            <DistanceMeters>NAN</DistanceMeters>
          </Trackpoint>
          <Trackpoint>
            <Time>2022-08-23T10:17:51.000Z</Time>
            <Position>
              <LatitudeDegrees>42.78143872506916522979736328125</LatitudeDegrees>
              <LongitudeDegrees>-0.2591387741267681121826171875</LongitudeDegrees>
            </Position>
            <AltitudeMeters>3041.800048828125</AltitudeMeters>
            <DistanceMeters>NAN</DistanceMeters>
          </Trackpoint>
          <Trackpoint>
            <Time>2022-08-23T10:18:03.000Z</Time>
            <Position>
              <LatitudeDegrees>42.7814014256000518798828125</LatitudeDegrees>
              <LongitudeDegrees>-0.25916869752109050750732421875</LongitudeDegrees>
            </Position>
            <AltitudeMeters>3042.800048828125</AltitudeMeters>
            <DistanceMeters>NAN</DistanceMeters>
          </Trackpoint>
          <Trackpoint>
            <Time>2022-08-23T10:18:06.000Z</Time>
            <Position>
              <LatitudeDegrees>42.78138390742242336273193359375</LatitudeDegrees>
              <LongitudeDegrees>-0.2591756545007228851318359375</LongitudeDegrees>
            </Position>
            <AltitudeMeters>3043.39990234375</AltitudeMeters>
            <DistanceMeters>NAN</DistanceMeters>
          </Trackpoint>
          <Trackpoint>
            <Time>2022-08-23T10:18:08.000Z</Time>
            <Position>
              <LatitudeDegrees>42.78138491325080394744873046875</LatitudeDegrees>
              <LongitudeDegrees>-0.25919132865965366363525390625</LongitudeDegrees>
            </Position>
            <AltitudeMeters>3043.199951171875</AltitudeMeters>
            <DistanceMeters>NAN</DistanceMeters>
          </Trackpoint>
          <Trackpoint>
            <Time>2022-08-23T10:18:10.000Z</Time>
            <Position>
              <LatitudeDegrees>42.78137862682342529296875</LatitudeDegrees>
              <LongitudeDegrees>-0.2592019736766815185546875</LongitudeDegrees>
            </Position>
            <AltitudeMeters>3043.39990234375</AltitudeMeters>
            <DistanceMeters>NAN</DistanceMeters>
          </Trackpoint>
          <Trackpoint>
            <Time>2022-08-23T10:18:11.000Z</Time>
            <Position>
              <LatitudeDegrees>42.781375944614410400390625</LatitudeDegrees>
              <LongitudeDegrees>-0.25920624844729900360107421875</LongitudeDegrees>
            </Position>
            <AltitudeMeters>3043.39990234375</AltitudeMeters>
            <DistanceMeters>NAN</DistanceMeters>
          </Trackpoint>
          <Trackpoint>
            <Time>2022-08-23T10:18:17.000Z</Time>
            <Position>
              <LatitudeDegrees>42.78135675005614757537841796875</LatitudeDegrees>
              <LongitudeDegrees>-0.259248577058315277099609375</LongitudeDegrees>
            </Position>
            <AltitudeMeters>3043.800048828125</AltitudeMeters>
            <DistanceMeters>NAN</DistanceMeters>
          </Trackpoint>
          <Trackpoint>
            <Time>2022-08-23T10:18:20.000Z</Time>
            <Position>
              <LatitudeDegrees>42.78134803287684917449951171875</LatitudeDegrees>
              <LongitudeDegrees>-0.25927665643393993377685546875</LongitudeDegrees>
            </Position>
            <AltitudeMeters>3043.800048828125</AltitudeMeters>
            <DistanceMeters>NAN</DistanceMeters>
          </Trackpoint>
          <Trackpoint>
            <Time>2022-08-23T10:18:28.000Z</Time>
            <Position>
              <LatitudeDegrees>42.7813449315726757049560546875</LatitudeDegrees>
              <LongitudeDegrees>-0.2593157999217510223388671875</LongitudeDegrees>
            </Position>
            <AltitudeMeters>3043.60009765625</AltitudeMeters>
            <DistanceMeters>NAN</DistanceMeters>
          </Trackpoint>
          <Trackpoint>
            <Time>2022-08-23T10:18:39.000Z</Time>
            <Position>
              <LatitudeDegrees>42.78132590465247631072998046875</LatitudeDegrees>
              <LongitudeDegrees>-0.25938193313777446746826171875</LongitudeDegrees>
            </Position>
            <AltitudeMeters>3043.199951171875</AltitudeMeters>
            <DistanceMeters>NAN</DistanceMeters>
          </Trackpoint>
          <Trackpoint>
            <Time>2022-08-23T10:19:04.000Z</Time>
            <Position>
              <LatitudeDegrees>42.78132498264312744140625</LatitudeDegrees>
              <LongitudeDegrees>-0.2595082484185695648193359375</LongitudeDegrees>
            </Position>
            <AltitudeMeters>3033.199951171875</AltitudeMeters>
            <DistanceMeters>NAN</DistanceMeters>
          </Trackpoint>
          <Trackpoint>
            <Time>2022-08-23T10:19:10.000Z</Time>
            <Position>
              <LatitudeDegrees>42.7813234739005565643310546875</LatitudeDegrees>
              <LongitudeDegrees>-0.2595280297100543975830078125</LongitudeDegrees>
            </Position>
            <AltitudeMeters>3032.800048828125</AltitudeMeters>
            <DistanceMeters>NAN</DistanceMeters>
          </Trackpoint>
          <Trackpoint>
            <Time>2022-08-23T10:19:19.000Z</Time>
            <Position>
              <LatitudeDegrees>42.78129346668720245361328125</LatitudeDegrees>
              <LongitudeDegrees>-0.259584523737430572509765625</LongitudeDegrees>
            </Position>
            <AltitudeMeters>3033.60009765625</AltitudeMeters>
            <DistanceMeters>NAN</DistanceMeters>
          </Trackpoint>
          <Trackpoint>
            <Time>2022-08-23T10:19:38.000Z</Time>
            <Position>
              <LatitudeDegrees>42.78128617443144321441650390625</LatitudeDegrees>
              <LongitudeDegrees>-0.25960229337215423583984375</LongitudeDegrees>
            </Position>
            <AltitudeMeters>3034.199951171875</AltitudeMeters>
            <DistanceMeters>NAN</DistanceMeters>
          </Trackpoint>
          <Trackpoint>
            <Time>2022-08-23T10:19:42.000Z</Time>
            <Position>
              <LatitudeDegrees>42.78128583915531635284423828125</LatitudeDegrees>
              <LongitudeDegrees>-0.25960438884794712066650390625</LongitudeDegrees>
            </Position>
            <AltitudeMeters>3034.199951171875</AltitudeMeters>
            <DistanceMeters>NAN</DistanceMeters>
          </Trackpoint>
          <Trackpoint>
            <Time>2022-08-23T10:19:43.000Z</Time>
            <Position>
              <LatitudeDegrees>42.78128600679337978363037109375</LatitudeDegrees>
              <LongitudeDegrees>-0.25960371829569339752197265625</LongitudeDegrees>
            </Position>
            <AltitudeMeters>3034.199951171875</AltitudeMeters>
            <DistanceMeters>NAN</DistanceMeters>
          </Trackpoint>
          <Trackpoint>
            <Time>2022-08-23T10:19:44.000Z</Time>
            <Position>
              <LatitudeDegrees>42.78128600679337978363037109375</LatitudeDegrees>
              <LongitudeDegrees>-0.25960371829569339752197265625</LongitudeDegrees>
            </Position>
            <AltitudeMeters>3034.199951171875</AltitudeMeters>
            <DistanceMeters>NAN</DistanceMeters>
          </Trackpoint>
          <Trackpoint>
            <Time>2022-08-23T10:19:45.000Z</Time>
            <Position>
              <LatitudeDegrees>42.781285755336284637451171875</LatitudeDegrees>
              <LongitudeDegrees>-0.25960271246731281280517578125</LongitudeDegrees>
            </Position>
            <AltitudeMeters>3034.199951171875</AltitudeMeters>
            <DistanceMeters>NAN</DistanceMeters>
          </Trackpoint>
          <Trackpoint>
            <Time>2022-08-23T10:19:46.000Z</Time>
            <Position>
              <LatitudeDegrees>42.78128650970757007598876953125</LatitudeDegrees>
              <LongitudeDegrees>-0.25960187427699565887451171875</LongitudeDegrees>
            </Position>
            <AltitudeMeters>3034.199951171875</AltitudeMeters>
            <DistanceMeters>NAN</DistanceMeters>
          </Trackpoint>
          <Trackpoint>
            <Time>2022-08-23T10:19:51.000Z</Time>
            <Position>
              <LatitudeDegrees>42.78128282167017459869384765625</LatitudeDegrees>
              <LongitudeDegrees>-0.2595957554876804351806640625</LongitudeDegrees>
            </Position>
            <AltitudeMeters>3033.199951171875</AltitudeMeters>
            <DistanceMeters>NAN</DistanceMeters>
          </Trackpoint>
          <Trackpoint>
            <Time>2022-08-23T10:20:04.000Z</Time>
            <Position>
              <LatitudeDegrees>42.781271673738956451416015625</LatitudeDegrees>
              <LongitudeDegrees>-0.25960472412407398223876953125</LongitudeDegrees>
            </Position>
            <AltitudeMeters>3032.60009765625</AltitudeMeters>
            <DistanceMeters>NAN</DistanceMeters>
          </Trackpoint>
          <Trackpoint>
            <Time>2022-08-23T10:20:09.000Z</Time>
            <Position>
              <LatitudeDegrees>42.7812658064067363739013671875</LatitudeDegrees>
              <LongitudeDegrees>-0.25960153900086879730224609375</LongitudeDegrees>
            </Position>
            <AltitudeMeters>3031.800048828125</AltitudeMeters>
            <DistanceMeters>NAN</DistanceMeters>
          </Trackpoint>
          <Trackpoint>
            <Time>2022-08-23T10:20:38.000Z</Time>
            <Position>
              <LatitudeDegrees>42.78127226047217845916748046875</LatitudeDegrees>
              <LongitudeDegrees>-0.25966666638851165771484375</LongitudeDegrees>
            </Position>
            <AltitudeMeters>3036.39990234375</AltitudeMeters>
            <DistanceMeters>NAN</DistanceMeters>
          </Trackpoint>
          <Trackpoint>
            <Time>2022-08-23T10:20:44.000Z</Time>
            <Position>
              <LatitudeDegrees>42.78126128017902374267578125</LatitudeDegrees>
              <LongitudeDegrees>-0.25966339744627475738525390625</LongitudeDegrees>
            </Position>
            <AltitudeMeters>3035.199951171875</AltitudeMeters>
            <DistanceMeters>NAN</DistanceMeters>
          </Trackpoint>
          <Trackpoint>
            <Time>2022-08-23T10:20:52.000Z</Time>
            <Position>
              <LatitudeDegrees>42.78124141506850719451904296875</LatitudeDegrees>
              <LongitudeDegrees>-0.2596467174589633941650390625</LongitudeDegrees>
            </Position>
            <AltitudeMeters>3032.39990234375</AltitudeMeters>
            <DistanceMeters>NAN</DistanceMeters>
          </Trackpoint>
          <Trackpoint>
            <Time>2022-08-23T10:20:57.000Z</Time>
            <Position>
              <LatitudeDegrees>42.78124040924012660980224609375</LatitudeDegrees>
              <LongitudeDegrees>-0.25964411906898021697998046875</LongitudeDegrees>
            </Position>
            <AltitudeMeters>3032</AltitudeMeters>
            <DistanceMeters>NAN</DistanceMeters>
          </Trackpoint>
          <Trackpoint>
            <Time>2022-08-23T10:21:03.000Z</Time>
            <Position>
              <LatitudeDegrees>42.78124124743044376373291015625</LatitudeDegrees>
              <LongitudeDegrees>-0.25964981876313686370849609375</LongitudeDegrees>
            </Position>
            <AltitudeMeters>3032.60009765625</AltitudeMeters>
            <DistanceMeters>NAN</DistanceMeters>
          </Trackpoint>
          <Trackpoint>
            <Time>2022-08-23T10:21:21.000Z</Time>
            <Position>
              <LatitudeDegrees>42.7813147567212581634521484375</LatitudeDegrees>
              <LongitudeDegrees>-0.25972374714910984039306640625</LongitudeDegrees>
            </Position>
            <AltitudeMeters>3040.199951171875</AltitudeMeters>
            <DistanceMeters>NAN</DistanceMeters>
          </Trackpoint>
          <Trackpoint>
            <Time>2022-08-23T10:21:52.000Z</Time>
            <Position>
              <LatitudeDegrees>42.7812637947499752044677734375</LatitudeDegrees>
              <LongitudeDegrees>-0.259849727153778076171875</LongitudeDegrees>
            </Position>
            <AltitudeMeters>3032</AltitudeMeters>
            <DistanceMeters>NAN</DistanceMeters>
          </Trackpoint>
          <Trackpoint>
            <Time>2022-08-23T10:22:07.000Z</Time>
            <Position>
              <LatitudeDegrees>42.781197242438793182373046875</LatitudeDegrees>
              <LongitudeDegrees>-0.25983220897614955902099609375</LongitudeDegrees>
            </Position>
            <AltitudeMeters>3024.800048828125</AltitudeMeters>
            <DistanceMeters>NAN</DistanceMeters>
          </Trackpoint>
          <Trackpoint>
            <Time>2022-08-23T10:22:13.000Z</Time>
            <Position>
              <LatitudeDegrees>42.78117452748119831085205078125</LatitudeDegrees>
              <LongitudeDegrees>-0.25984008796513080596923828125</LongitudeDegrees>
            </Position>
            <AltitudeMeters>3023.800048828125</AltitudeMeters>
            <DistanceMeters>NAN</DistanceMeters>
          </Trackpoint>
          <Trackpoint>
            <Time>2022-08-23T10:22:36.000Z</Time>
            <Position>
              <LatitudeDegrees>42.7811005152761936187744140625</LatitudeDegrees>
              <LongitudeDegrees>-0.25992952287197113037109375</LongitudeDegrees>
            </Position>
            <AltitudeMeters>3023.39990234375</AltitudeMeters>
            <DistanceMeters>NAN</DistanceMeters>
          </Trackpoint>
          <Trackpoint>
            <Time>2022-08-23T10:23:47.000Z</Time>
            <Position>
              <LatitudeDegrees>42.78099180199205875396728515625</LatitudeDegrees>
              <LongitudeDegrees>-0.2598666585981845855712890625</LongitudeDegrees>
            </Position>
            <AltitudeMeters>3026</AltitudeMeters>
            <DistanceMeters>NAN</DistanceMeters>
          </Trackpoint>
          <Trackpoint>
            <Time>2022-08-23T10:23:57.000Z</Time>
            <Position>
              <LatitudeDegrees>42.78095793910324573516845703125</LatitudeDegrees>
              <LongitudeDegrees>-0.25987319648265838623046875</LongitudeDegrees>
            </Position>
            <AltitudeMeters>3026.199951171875</AltitudeMeters>
            <DistanceMeters>NAN</DistanceMeters>
          </Trackpoint>
          <Trackpoint>
            <Time>2022-08-23T10:24:09.000Z</Time>
            <Position>
              <LatitudeDegrees>42.78092198073863983154296875</LatitudeDegrees>
              <LongitudeDegrees>-0.25988166220486164093017578125</LongitudeDegrees>
            </Position>
            <AltitudeMeters>3026.199951171875</AltitudeMeters>
            <DistanceMeters>NAN</DistanceMeters>
          </Trackpoint>
          <Trackpoint>
            <Time>2022-08-23T10:24:30.000Z</Time>
            <Position>
              <LatitudeDegrees>42.7808074839413166046142578125</LatitudeDegrees>
              <LongitudeDegrees>-0.25992943905293941497802734375</LongitudeDegrees>
            </Position>
            <AltitudeMeters>3019</AltitudeMeters>
            <DistanceMeters>NAN</DistanceMeters>
          </Trackpoint>
          <Trackpoint>
            <Time>2022-08-23T10:25:14.000Z</Time>
            <Position>
              <LatitudeDegrees>42.78071268461644649505615234375</LatitudeDegrees>
              <LongitudeDegrees>-0.25993354618549346923828125</LongitudeDegrees>
            </Position>
            <AltitudeMeters>3012.39990234375</AltitudeMeters>
            <DistanceMeters>NAN</DistanceMeters>
          </Trackpoint>
          <Trackpoint>
            <Time>2022-08-23T10:25:59.000Z</Time>
            <Position>
              <LatitudeDegrees>42.78066356666386127471923828125</LatitudeDegrees>
              <LongitudeDegrees>-0.25980941019952297210693359375</LongitudeDegrees>
            </Position>
            <AltitudeMeters>3007.800048828125</AltitudeMeters>
            <DistanceMeters>NAN</DistanceMeters>
          </Trackpoint>
          <Trackpoint>
            <Time>2022-08-23T10:26:10.000Z</Time>
            <Position>
              <LatitudeDegrees>42.78059542179107666015625</LatitudeDegrees>
              <LongitudeDegrees>-0.25984427891671657562255859375</LongitudeDegrees>
            </Position>
            <AltitudeMeters>3001.60009765625</AltitudeMeters>
            <DistanceMeters>NAN</DistanceMeters>
          </Trackpoint>
          <Trackpoint>
            <Time>2022-08-23T10:26:17.000Z</Time>
            <Position>
              <LatitudeDegrees>42.78055326081812381744384765625</LatitudeDegrees>
              <LongitudeDegrees>-0.25989121757447719573974609375</LongitudeDegrees>
            </Position>
            <AltitudeMeters>2997.800048828125</AltitudeMeters>
            <DistanceMeters>NAN</DistanceMeters>
          </Trackpoint>
          <Trackpoint>
            <Time>2022-08-23T10:26:19.000Z</Time>
            <Position>
              <LatitudeDegrees>42.7805436216294765472412109375</LatitudeDegrees>
              <LongitudeDegrees>-0.25990161113440990447998046875</LongitudeDegrees>
            </Position>
            <AltitudeMeters>2996.800048828125</AltitudeMeters>
            <DistanceMeters>NAN</DistanceMeters>
          </Trackpoint>
          <Trackpoint>
            <Time>2022-08-23T10:27:00.000Z</Time>
            <Position>
              <LatitudeDegrees>42.780410349369049072265625</LatitudeDegrees>
              <LongitudeDegrees>-0.26000722311437129974365234375</LongitudeDegrees>
            </Position>
            <AltitudeMeters>2987.39990234375</AltitudeMeters>
            <DistanceMeters>NAN</DistanceMeters>
          </Trackpoint>
          <Trackpoint>
            <Time>2022-08-23T10:27:45.000Z</Time>
            <Position>
              <LatitudeDegrees>42.7804048173129558563232421875</LatitudeDegrees>
              <LongitudeDegrees>-0.2599766291677951812744140625</LongitudeDegrees>
            </Position>
            <AltitudeMeters>2985</AltitudeMeters>
            <DistanceMeters>NAN</DistanceMeters>
          </Trackpoint>
          <Trackpoint>
            <Time>2022-08-23T10:28:31.000Z</Time>
            <Position>
              <LatitudeDegrees>42.78035201132297515869140625</LatitudeDegrees>
              <LongitudeDegrees>-0.25987260974943637847900390625</LongitudeDegrees>
            </Position>
            <AltitudeMeters>2977.39990234375</AltitudeMeters>
            <DistanceMeters>NAN</DistanceMeters>
          </Trackpoint>
          <Trackpoint>
            <Time>2022-08-23T10:28:58.000Z</Time>
            <Position>
              <LatitudeDegrees>42.7802569605410099029541015625</LatitudeDegrees>
              <LongitudeDegrees>-0.26003454811871051788330078125</LongitudeDegrees>
            </Position>
            <AltitudeMeters>2963.39990234375</AltitudeMeters>
            <DistanceMeters>NAN</DistanceMeters>
          </Trackpoint>
          <Trackpoint>
            <Time>2022-08-23T10:29:34.000Z</Time>
            <Position>
              <LatitudeDegrees>42.78025268577039241790771484375</LatitudeDegrees>
              <LongitudeDegrees>-0.25989406742155551910400390625</LongitudeDegrees>
            </Position>
            <AltitudeMeters>2960.60009765625</AltitudeMeters>
            <DistanceMeters>NAN</DistanceMeters>
          </Trackpoint>
          <Trackpoint>
            <Time>2022-08-23T10:29:57.000Z</Time>
            <Position>
              <LatitudeDegrees>42.7802519313991069793701171875</LatitudeDegrees>
              <LongitudeDegrees>-0.259823240339756011962890625</LongitudeDegrees>
            </Position>
            <AltitudeMeters>2961.800048828125</AltitudeMeters>
            <DistanceMeters>NAN</DistanceMeters>
          </Trackpoint>
          <Trackpoint>
            <Time>2022-08-23T10:30:13.000Z</Time>
            <Position>
              <LatitudeDegrees>42.7802760712802410125732421875</LatitudeDegrees>
              <LongitudeDegrees>-0.25978124700486660003662109375</LongitudeDegrees>
            </Position>
            <AltitudeMeters>2966.60009765625</AltitudeMeters>
            <DistanceMeters>NAN</DistanceMeters>
          </Trackpoint>
          <Trackpoint>
            <Time>2022-08-23T10:30:16.000Z</Time>
            <Position>
              <LatitudeDegrees>42.78027850203216075897216796875</LatitudeDegrees>
              <LongitudeDegrees>-0.25978275574743747711181640625</LongitudeDegrees>
            </Position>
            <AltitudeMeters>2967</AltitudeMeters>
            <DistanceMeters>NAN</DistanceMeters>
          </Trackpoint>
          <Trackpoint>
            <Time>2022-08-23T10:30:18.000Z</Time>
            <Position>
              <LatitudeDegrees>42.78027866967022418975830078125</LatitudeDegrees>
              <LongitudeDegrees>-0.2597835101187229156494140625</LongitudeDegrees>
            </Position>
            <AltitudeMeters>2967</AltitudeMeters>
            <DistanceMeters>NAN</DistanceMeters>
          </Trackpoint>
          <Trackpoint>
            <Time>2022-08-23T10:30:21.000Z</Time>
            <Position>
              <LatitudeDegrees>42.78027959167957305908203125</LatitudeDegrees>
              <LongitudeDegrees>-0.25978376157581806182861328125</LongitudeDegrees>
            </Position>
            <AltitudeMeters>2967.199951171875</AltitudeMeters>
            <DistanceMeters>NAN</DistanceMeters>
          </Trackpoint>
          <Trackpoint>
            <Time>2022-08-23T10:30:27.000Z</Time>
            <Position>
              <LatitudeDegrees>42.78027213178575038909912109375</LatitudeDegrees>
              <LongitudeDegrees>-0.25977169163525104522705078125</LongitudeDegrees>
            </Position>
            <AltitudeMeters>2966</AltitudeMeters>
            <DistanceMeters>NAN</DistanceMeters>
          </Trackpoint>
          <Trackpoint>
            <Time>2022-08-23T10:30:51.000Z</Time>
            <Position>
              <LatitudeDegrees>42.780264504253864288330078125</LatitudeDegrees>
              <LongitudeDegrees>-0.25971838273108005523681640625</LongitudeDegrees>
            </Position>
            <AltitudeMeters>2966.199951171875</AltitudeMeters>
            <DistanceMeters>NAN</DistanceMeters>
          </Trackpoint>
          <Trackpoint>
            <Time>2022-08-23T10:30:55.000Z</Time>
            <Position>
              <LatitudeDegrees>42.7802599780261516571044921875</LatitudeDegrees>
              <LongitudeDegrees>-0.25972567498683929443359375</LongitudeDegrees>
            </Position>
            <AltitudeMeters>2965.199951171875</AltitudeMeters>
            <DistanceMeters>NAN</DistanceMeters>
          </Trackpoint>
          <Trackpoint>
            <Time>2022-08-23T10:30:59.000Z</Time>
            <Position>
              <LatitudeDegrees>42.780254445970058441162109375</LatitudeDegrees>
              <LongitudeDegrees>-0.25973129086196422576904296875</LongitudeDegrees>
            </Position>
            <AltitudeMeters>2964.199951171875</AltitudeMeters>
            <DistanceMeters>NAN</DistanceMeters>
          </Trackpoint>
          <Trackpoint>
            <Time>2022-08-23T10:31:00.000Z</Time>
            <Position>
              <LatitudeDegrees>42.780249416828155517578125</LatitudeDegrees>
              <LongitudeDegrees>-0.25973028503358364105224609375</LongitudeDegrees>
            </Position>
            <AltitudeMeters>2963.60009765625</AltitudeMeters>
            <DistanceMeters>NAN</DistanceMeters>
          </Trackpoint>
          <Trackpoint>
            <Time>2022-08-23T10:31:01.000Z</Time>
            <Position>
              <LatitudeDegrees>42.780249416828155517578125</LatitudeDegrees>
              <LongitudeDegrees>-0.25973028503358364105224609375</LongitudeDegrees>
            </Position>
            <AltitudeMeters>2963.60009765625</AltitudeMeters>
            <DistanceMeters>NAN</DistanceMeters>
          </Trackpoint>
          <Trackpoint>
            <Time>2022-08-23T10:31:08.000Z</Time>
            <Position>
              <LatitudeDegrees>42.7802220918238162994384765625</LatitudeDegrees>
              <LongitudeDegrees>-0.259733386337757110595703125</LongitudeDegrees>
            </Position>
            <AltitudeMeters>2959.199951171875</AltitudeMeters>
            <DistanceMeters>NAN</DistanceMeters>
          </Trackpoint>
          <Trackpoint>
            <Time>2022-08-23T10:31:11.000Z</Time>
            <Position>
              <LatitudeDegrees>42.78021563775837421417236328125</LatitudeDegrees>
              <LongitudeDegrees>-0.25973833166062831878662109375</LongitudeDegrees>
            </Position>
            <AltitudeMeters>2958.199951171875</AltitudeMeters>
            <DistanceMeters>NAN</DistanceMeters>
          </Trackpoint>
          <Trackpoint>
            <Time>2022-08-23T10:31:16.000Z</Time>
            <Position>
              <LatitudeDegrees>42.78020222671329975128173828125</LatitudeDegrees>
              <LongitudeDegrees>-0.259744115173816680908203125</LongitudeDegrees>
            </Position>
            <AltitudeMeters>2956</AltitudeMeters>
            <DistanceMeters>NAN</DistanceMeters>
          </Trackpoint>
          <Trackpoint>
            <Time>2022-08-23T10:31:38.000Z</Time>
            <Position>
              <LatitudeDegrees>42.78018110431730747222900390625</LatitudeDegrees>
              <LongitudeDegrees>-0.2597224898636341094970703125</LongitudeDegrees>
            </Position>
            <AltitudeMeters>2953.39990234375</AltitudeMeters>
            <DistanceMeters>NAN</DistanceMeters>
          </Trackpoint>
          <Trackpoint>
            <Time>2022-08-23T10:31:51.000Z</Time>
            <Position>
              <LatitudeDegrees>42.78021010570228099822998046875</LatitudeDegrees>
              <LongitudeDegrees>-0.25974470190703868865966796875</LongitudeDegrees>
            </Position>
            <AltitudeMeters>2957.199951171875</AltitudeMeters>
            <DistanceMeters>NAN</DistanceMeters>
          </Trackpoint>
          <Trackpoint>
            <Time>2022-08-23T10:32:01.000Z</Time>
            <Position>
              <LatitudeDegrees>42.780210860073566436767578125</LatitudeDegrees>
              <LongitudeDegrees>-0.25970547460019588470458984375</LongitudeDegrees>
            </Position>
            <AltitudeMeters>2958.39990234375</AltitudeMeters>
            <DistanceMeters>NAN</DistanceMeters>
          </Trackpoint>
          <Trackpoint>
            <Time>2022-08-23T10:32:06.000Z</Time>
            <Position>
              <LatitudeDegrees>42.7802078425884246826171875</LatitudeDegrees>
              <LongitudeDegrees>-0.25969508104026317596435546875</LongitudeDegrees>
            </Position>
            <AltitudeMeters>2958.39990234375</AltitudeMeters>
            <DistanceMeters>NAN</DistanceMeters>
          </Trackpoint>
          <Trackpoint>
            <Time>2022-08-23T10:32:08.000Z</Time>
            <Position>
              <LatitudeDegrees>42.78020826168358325958251953125</LatitudeDegrees>
              <LongitudeDegrees>-0.25970228947699069976806640625</LongitudeDegrees>
            </Position>
            <AltitudeMeters>2958.199951171875</AltitudeMeters>
            <DistanceMeters>NAN</DistanceMeters>
          </Trackpoint>
          <Trackpoint>
            <Time>2022-08-23T10:32:10.000Z</Time>
            <Position>
              <LatitudeDegrees>42.78021060861647129058837890625</LatitudeDegrees>
              <LongitudeDegrees>-0.25970530696213245391845703125</LongitudeDegrees>
            </Position>
            <AltitudeMeters>2958.39990234375</AltitudeMeters>
            <DistanceMeters>NAN</DistanceMeters>
          </Trackpoint>
          <Trackpoint>
            <Time>2022-08-23T10:32:11.000Z</Time>
            <Position>
              <LatitudeDegrees>42.78021178208291530609130859375</LatitudeDegrees>
              <LongitudeDegrees>-0.2597084082663059234619140625</LongitudeDegrees>
            </Position>
            <AltitudeMeters>2958.60009765625</AltitudeMeters>
            <DistanceMeters>NAN</DistanceMeters>
          </Trackpoint>
          <Trackpoint>
            <Time>2022-08-23T10:32:13.000Z</Time>
            <Position>
              <LatitudeDegrees>42.7802127040922641754150390625</LatitudeDegrees>
              <LongitudeDegrees>-0.259709917008876800537109375</LongitudeDegrees>
            </Position>
            <AltitudeMeters>2958.60009765625</AltitudeMeters>
            <DistanceMeters>NAN</DistanceMeters>
          </Trackpoint>
          <Trackpoint>
            <Time>2022-08-23T10:32:15.000Z</Time>
            <Position>
              <LatitudeDegrees>42.7802133746445178985595703125</LatitudeDegrees>
              <LongitudeDegrees>-0.2597124315798282623291015625</LongitudeDegrees>
            </Position>
            <AltitudeMeters>2958.60009765625</AltitudeMeters>
            <DistanceMeters>NAN</DistanceMeters>
          </Trackpoint>
          <Trackpoint>
            <Time>2022-08-23T10:32:16.000Z</Time>
            <Position>
              <LatitudeDegrees>42.78021329082548618316650390625</LatitudeDegrees>
              <LongitudeDegrees>-0.2597141079604625701904296875</LongitudeDegrees>
            </Position>
            <AltitudeMeters>2958.60009765625</AltitudeMeters>
            <DistanceMeters>NAN</DistanceMeters>
          </Trackpoint>
          <Trackpoint>
            <Time>2022-08-23T10:32:17.000Z</Time>
            <Position>
              <LatitudeDegrees>42.7802133746445178985595703125</LatitudeDegrees>
              <LongitudeDegrees>-0.25971754454076290130615234375</LongitudeDegrees>
            </Position>
            <AltitudeMeters>2958.39990234375</AltitudeMeters>
            <DistanceMeters>NAN</DistanceMeters>
          </Trackpoint>
          <Trackpoint>
            <Time>2022-08-23T10:32:19.000Z</Time>
            <Position>
              <LatitudeDegrees>42.7802157215774059295654296875</LatitudeDegrees>
              <LongitudeDegrees>-0.25971972383558750152587890625</LongitudeDegrees>
            </Position>
            <AltitudeMeters>2958.800048828125</AltitudeMeters>
            <DistanceMeters>NAN</DistanceMeters>
          </Trackpoint>
          <Trackpoint>
            <Time>2022-08-23T10:32:21.000Z</Time>
            <Position>
              <LatitudeDegrees>42.78021647594869136810302734375</LatitudeDegrees>
              <LongitudeDegrees>-0.2597228251397609710693359375</LongitudeDegrees>
            </Position>
            <AltitudeMeters>2958.800048828125</AltitudeMeters>
            <DistanceMeters>NAN</DistanceMeters>
          </Trackpoint>
          <Trackpoint>
            <Time>2022-08-23T10:32:24.000Z</Time>
            <Position>
              <LatitudeDegrees>42.78021530248224735260009765625</LatitudeDegrees>
              <LongitudeDegrees>-0.2597177959978580474853515625</LongitudeDegrees>
            </Position>
            <AltitudeMeters>2958.800048828125</AltitudeMeters>
            <DistanceMeters>NAN</DistanceMeters>
          </Trackpoint>
          <Trackpoint>
            <Time>2022-08-23T10:32:40.000Z</Time>
            <Position>
              <LatitudeDegrees>42.78019820339977741241455078125</LatitudeDegrees>
              <LongitudeDegrees>-0.25973380543291568756103515625</LongitudeDegrees>
            </Position>
            <AltitudeMeters>2955.60009765625</AltitudeMeters>
            <DistanceMeters>NAN</DistanceMeters>
          </Trackpoint>
          <Trackpoint>
            <Time>2022-08-23T10:32:51.000Z</Time>
            <Position>
              <LatitudeDegrees>42.78017775155603885650634765625</LatitudeDegrees>
              <LongitudeDegrees>-0.2597238309681415557861328125</LongitudeDegrees>
            </Position>
            <AltitudeMeters>2952.800048828125</AltitudeMeters>
            <DistanceMeters>NAN</DistanceMeters>
          </Trackpoint>
          <Trackpoint>
            <Time>2022-08-23T10:33:18.000Z</Time>
            <Position>
              <LatitudeDegrees>42.78016752563416957855224609375</LatitudeDegrees>
              <LongitudeDegrees>-0.25970363058149814605712890625</LongitudeDegrees>
            </Position>
            <AltitudeMeters>2952</AltitudeMeters>
            <DistanceMeters>NAN</DistanceMeters>
          </Trackpoint>
          <Trackpoint>
            <Time>2022-08-23T10:33:28.000Z</Time>
            <Position>
              <LatitudeDegrees>42.78018412180244922637939453125</LatitudeDegrees>
              <LongitudeDegrees>-0.259688459336757659912109375</LongitudeDegrees>
            </Position>
            <AltitudeMeters>2955</AltitudeMeters>
            <DistanceMeters>NAN</DistanceMeters>
          </Trackpoint>
          <Trackpoint>
            <Time>2022-08-23T10:33:29.000Z</Time>
            <Position>
              <LatitudeDegrees>42.7801852114498615264892578125</LatitudeDegrees>
              <LongitudeDegrees>-0.2596914768218994140625</LongitudeDegrees>
            </Position>
            <AltitudeMeters>2955</AltitudeMeters>
            <DistanceMeters>NAN</DistanceMeters>
          </Trackpoint>
          <Trackpoint>
            <Time>2022-08-23T10:33:30.000Z</Time>
            <Position>
              <LatitudeDegrees>42.7801852114498615264892578125</LatitudeDegrees>
              <LongitudeDegrees>-0.2596914768218994140625</LongitudeDegrees>
            </Position>
            <AltitudeMeters>2955</AltitudeMeters>
            <DistanceMeters>NAN</DistanceMeters>
          </Trackpoint>
          <Trackpoint>
            <Time>2022-08-23T10:33:38.000Z</Time>
            <Position>
              <LatitudeDegrees>42.7801885642111301422119140625</LatitudeDegrees>
              <LongitudeDegrees>-0.2596933208405971527099609375</LongitudeDegrees>
            </Position>
            <AltitudeMeters>2955.60009765625</AltitudeMeters>
            <DistanceMeters>NAN</DistanceMeters>
          </Trackpoint>
          <Trackpoint>
            <Time>2022-08-23T10:33:44.000Z</Time>
            <Position>
              <LatitudeDegrees>42.78019250370562076568603515625</LatitudeDegrees>
              <LongitudeDegrees>-0.25969642214477062225341796875</LongitudeDegrees>
            </Position>
            <AltitudeMeters>2956</AltitudeMeters>
            <DistanceMeters>NAN</DistanceMeters>
          </Trackpoint>
          <Trackpoint>
            <Time>2022-08-23T10:34:00.000Z</Time>
            <Position>
              <LatitudeDegrees>42.78019350953400135040283203125</LatitudeDegrees>
              <LongitudeDegrees>-0.25972425006330013275146484375</LongitudeDegrees>
            </Position>
            <AltitudeMeters>2955.199951171875</AltitudeMeters>
            <DistanceMeters>NAN</DistanceMeters>
          </Trackpoint>
          <Trackpoint>
            <Time>2022-08-23T10:34:13.000Z</Time>
            <Position>
              <LatitudeDegrees>42.78018395416438579559326171875</LatitudeDegrees>
              <LongitudeDegrees>-0.25972894392907619476318359375</LongitudeDegrees>
            </Position>
            <AltitudeMeters>2953.60009765625</AltitudeMeters>
            <DistanceMeters>NAN</DistanceMeters>
          </Trackpoint>
          <Trackpoint>
            <Time>2022-08-23T10:34:20.000Z</Time>
            <Position>
              <LatitudeDegrees>42.78016434051096439361572265625</LatitudeDegrees>
              <LongitudeDegrees>-0.25970145128667354583740234375</LongitudeDegrees>
            </Position>
            <AltitudeMeters>2951.60009765625</AltitudeMeters>
            <DistanceMeters>NAN</DistanceMeters>
          </Trackpoint>
          <Trackpoint>
            <Time>2022-08-23T10:34:53.000Z</Time>
            <Position>
              <LatitudeDegrees>42.7801543660461902618408203125</LatitudeDegrees>
              <LongitudeDegrees>-0.2596856094896793365478515625</LongitudeDegrees>
            </Position>
            <AltitudeMeters>2950.60009765625</AltitudeMeters>
            <DistanceMeters>NAN</DistanceMeters>
          </Trackpoint>
          <Trackpoint>
            <Time>2022-08-23T10:34:57.000Z</Time>
            <Position>
              <LatitudeDegrees>42.78015277348458766937255859375</LatitudeDegrees>
              <LongitudeDegrees>-0.25967462919652462005615234375</LongitudeDegrees>
            </Position>
            <AltitudeMeters>2950.800048828125</AltitudeMeters>
            <DistanceMeters>NAN</DistanceMeters>
          </Trackpoint>
          <Trackpoint>
            <Time>2022-08-23T10:35:03.000Z</Time>
            <Position>
              <LatitudeDegrees>42.78013433329761028289794921875</LatitudeDegrees>
              <LongitudeDegrees>-0.25966222397983074188232421875</LongitudeDegrees>
            </Position>
            <AltitudeMeters>2948.39990234375</AltitudeMeters>
            <DistanceMeters>NAN</DistanceMeters>
          </Trackpoint>
          <Trackpoint>
            <Time>2022-08-23T10:36:28.000Z</Time>
            <Position>
              <LatitudeDegrees>42.780128382146358489990234375</LatitudeDegrees>
              <LongitudeDegrees>-0.25964981876313686370849609375</LongitudeDegrees>
            </Position>
            <AltitudeMeters>2947.60009765625</AltitudeMeters>
            <DistanceMeters>NAN</DistanceMeters>
          </Trackpoint>
          <Trackpoint>
            <Time>2022-08-23T10:37:05.000Z</Time>
            <Position>
              <LatitudeDegrees>42.78009292669594287872314453125</LatitudeDegrees>
              <LongitudeDegrees>-0.2596772275865077972412109375</LongitudeDegrees>
            </Position>
            <AltitudeMeters>2941.60009765625</AltitudeMeters>
            <DistanceMeters>NAN</DistanceMeters>
          </Trackpoint>
          <Trackpoint>
            <Time>2022-08-23T10:37:06.000Z</Time>
            <Position>
              <LatitudeDegrees>42.7800926752388477325439453125</LatitudeDegrees>
              <LongitudeDegrees>-0.259678065776824951171875</LongitudeDegrees>
            </Position>
            <AltitudeMeters>2941.60009765625</AltitudeMeters>
            <DistanceMeters>NAN</DistanceMeters>
          </Trackpoint>
          <Trackpoint>
            <Time>2022-08-23T10:37:09.000Z</Time>
            <Position>
              <LatitudeDegrees>42.7800920046865940093994140625</LatitudeDegrees>
              <LongitudeDegrees>-0.25967647321522235870361328125</LongitudeDegrees>
            </Position>
            <AltitudeMeters>2941.39990234375</AltitudeMeters>
            <DistanceMeters>NAN</DistanceMeters>
          </Trackpoint>
          <Trackpoint>
            <Time>2022-08-23T10:37:27.000Z</Time>
            <Position>
              <LatitudeDegrees>42.78007113374769687652587890625</LatitudeDegrees>
              <LongitudeDegrees>-0.2596835978329181671142578125</LongitudeDegrees>
            </Position>
            <AltitudeMeters>2938.39990234375</AltitudeMeters>
            <DistanceMeters>NAN</DistanceMeters>
          </Trackpoint>
          <Trackpoint>
            <Time>2022-08-23T10:37:31.000Z</Time>
            <Position>
              <LatitudeDegrees>42.7800762467086315155029296875</LatitudeDegrees>
              <LongitudeDegrees>-0.2596993558108806610107421875</LongitudeDegrees>
            </Position>
            <AltitudeMeters>2938.39990234375</AltitudeMeters>
            <DistanceMeters>NAN</DistanceMeters>
          </Trackpoint>
          <Trackpoint>
            <Time>2022-08-23T10:37:37.000Z</Time>
            <Position>
              <LatitudeDegrees>42.780078761279582977294921875</LatitudeDegrees>
              <LongitudeDegrees>-0.2597089111804962158203125</LongitudeDegrees>
            </Position>
            <AltitudeMeters>2938.39990234375</AltitudeMeters>
            <DistanceMeters>NAN</DistanceMeters>
          </Trackpoint>
          <Trackpoint>
            <Time>2022-08-23T10:37:38.000Z</Time>
            <Position>
              <LatitudeDegrees>42.7800782583653926849365234375</LatitudeDegrees>
              <LongitudeDegrees>-0.259708575904369354248046875</LongitudeDegrees>
            </Position>
            <AltitudeMeters>2938.39990234375</AltitudeMeters>
            <DistanceMeters>NAN</DistanceMeters>
          </Trackpoint>
          <Trackpoint>
            <Time>2022-08-23T10:37:39.000Z</Time>
            <Position>
              <LatitudeDegrees>42.78007800690829753875732421875</LatitudeDegrees>
              <LongitudeDegrees>-0.25971033610403537750244140625</LongitudeDegrees>
            </Position>
            <AltitudeMeters>2938.199951171875</AltitudeMeters>
            <DistanceMeters>NAN</DistanceMeters>
          </Trackpoint>
          <Trackpoint>
            <Time>2022-08-23T10:37:40.000Z</Time>
            <Position>
              <LatitudeDegrees>42.7800755761563777923583984375</LatitudeDegrees>
              <LongitudeDegrees>-0.2597097493708133697509765625</LongitudeDegrees>
            </Position>
            <AltitudeMeters>2938</AltitudeMeters>
            <DistanceMeters>NAN</DistanceMeters>
          </Trackpoint>
          <Trackpoint>
            <Time>2022-08-23T10:37:44.000Z</Time>
            <Position>
              <LatitudeDegrees>42.7800752408802509307861328125</LatitudeDegrees>
              <LongitudeDegrees>-0.25971762835979461669921875</LongitudeDegrees>
            </Position>
            <AltitudeMeters>2937.800048828125</AltitudeMeters>
            <DistanceMeters>NAN</DistanceMeters>
          </Trackpoint>
          <Trackpoint>
            <Time>2022-08-23T10:37:48.000Z</Time>
            <Position>
              <LatitudeDegrees>42.78007046319544315338134765625</LatitudeDegrees>
              <LongitudeDegrees>-0.25973145850002765655517578125</LongitudeDegrees>
            </Position>
            <AltitudeMeters>2936.800048828125</AltitudeMeters>
            <DistanceMeters>NAN</DistanceMeters>
          </Trackpoint>
          <Trackpoint>
            <Time>2022-08-23T10:37:49.000Z</Time>
            <Position>
              <LatitudeDegrees>42.7800718881189823150634765625</LatitudeDegrees>
              <LongitudeDegrees>-0.2597325481474399566650390625</LongitudeDegrees>
            </Position>
            <AltitudeMeters>2937</AltitudeMeters>
            <DistanceMeters>NAN</DistanceMeters>
          </Trackpoint>
          <Trackpoint>
            <Time>2022-08-23T10:37:54.000Z</Time>
            <Position>
              <LatitudeDegrees>42.78008001856505870819091796875</LatitudeDegrees>
              <LongitudeDegrees>-0.2597291953861713409423828125</LongitudeDegrees>
            </Position>
            <AltitudeMeters>2938</AltitudeMeters>
            <DistanceMeters>NAN</DistanceMeters>
          </Trackpoint>
          <Trackpoint>
            <Time>2022-08-23T10:38:04.000Z</Time>
            <Position>
              <LatitudeDegrees>42.78009594418108463287353515625</LatitudeDegrees>
              <LongitudeDegrees>-0.2597302012145519256591796875</LongitudeDegrees>
            </Position>
            <AltitudeMeters>2940.39990234375</AltitudeMeters>
            <DistanceMeters>NAN</DistanceMeters>
          </Trackpoint>
          <Trackpoint>
            <Time>2022-08-23T10:38:07.000Z</Time>
            <Position>
              <LatitudeDegrees>42.78010130859911441802978515625</LatitudeDegrees>
              <LongitudeDegrees>-0.2597342245280742645263671875</LongitudeDegrees>
            </Position>
            <AltitudeMeters>2941</AltitudeMeters>
            <DistanceMeters>NAN</DistanceMeters>
          </Trackpoint>
          <Trackpoint>
            <Time>2022-08-23T10:38:12.000Z</Time>
            <Position>
              <LatitudeDegrees>42.78011153452098369598388671875</LatitudeDegrees>
              <LongitudeDegrees>-0.2597479708492755889892578125</LongitudeDegrees>
            </Position>
            <AltitudeMeters>2942.199951171875</AltitudeMeters>
            <DistanceMeters>NAN</DistanceMeters>
          </Trackpoint>
          <Trackpoint>
            <Time>2022-08-23T10:38:15.000Z</Time>
            <Position>
              <LatitudeDegrees>42.78011907823383808135986328125</LatitudeDegrees>
              <LongitudeDegrees>-0.25974554009735584259033203125</LongitudeDegrees>
            </Position>
            <AltitudeMeters>2943.39990234375</AltitudeMeters>
            <DistanceMeters>NAN</DistanceMeters>
          </Trackpoint>
          <Trackpoint>
            <Time>2022-08-23T10:38:18.000Z</Time>
            <Position>
              <LatitudeDegrees>42.78012611903250217437744140625</LatitudeDegrees>
              <LongitudeDegrees>-0.25973372161388397216796875</LongitudeDegrees>
            </Position>
            <AltitudeMeters>2944.800048828125</AltitudeMeters>
            <DistanceMeters>NAN</DistanceMeters>
          </Trackpoint>
          <Trackpoint>
            <Time>2022-08-23T10:38:34.000Z</Time>
            <Position>
              <LatitudeDegrees>42.7800671942532062530517578125</LatitudeDegrees>
              <LongitudeDegrees>-0.25972022674977779388427734375</LongitudeDegrees>
            </Position>
            <AltitudeMeters>2936.800048828125</AltitudeMeters>
            <DistanceMeters>NAN</DistanceMeters>
          </Trackpoint>
          <Trackpoint>
            <Time>2022-08-23T10:39:01.000Z</Time>
            <Position>
              <LatitudeDegrees>42.77999795973300933837890625</LatitudeDegrees>
              <LongitudeDegrees>-0.25980454869568347930908203125</LongitudeDegrees>
            </Position>
            <AltitudeMeters>2927.39990234375</AltitudeMeters>
            <DistanceMeters>NAN</DistanceMeters>
          </Trackpoint>
          <Trackpoint>
            <Time>2022-08-23T10:39:50.000Z</Time>
            <Position>
              <LatitudeDegrees>42.77996711432933807373046875</LatitudeDegrees>
              <LongitudeDegrees>-0.2596725337207317352294921875</LongitudeDegrees>
            </Position>
            <AltitudeMeters>2926.60009765625</AltitudeMeters>
            <DistanceMeters>NAN</DistanceMeters>
          </Trackpoint>
          <Trackpoint>
            <Time>2022-08-23T10:40:28.000Z</Time>
            <Position>
              <LatitudeDegrees>42.780008018016815185546875</LatitudeDegrees>
              <LongitudeDegrees>-0.25953465141355991363525390625</LongitudeDegrees>
            </Position>
            <AltitudeMeters>2930</AltitudeMeters>
            <DistanceMeters>NAN</DistanceMeters>
          </Trackpoint>
          <Trackpoint>
            <Time>2022-08-23T10:40:35.000Z</Time>
            <Position>
              <LatitudeDegrees>42.7800071798264980316162109375</LatitudeDegrees>
              <LongitudeDegrees>-0.2595065720379352569580078125</LongitudeDegrees>
            </Position>
            <AltitudeMeters>2929.39990234375</AltitudeMeters>
            <DistanceMeters>NAN</DistanceMeters>
          </Trackpoint>
          <Trackpoint>
            <Time>2022-08-23T10:40:39.000Z</Time>
            <Position>
              <LatitudeDegrees>42.78002738021314144134521484375</LatitudeDegrees>
              <LongitudeDegrees>-0.25949710048735141754150390625</LongitudeDegrees>
            </Position>
            <AltitudeMeters>2931.800048828125</AltitudeMeters>
            <DistanceMeters>NAN</DistanceMeters>
          </Trackpoint>
          <Trackpoint>
            <Time>2022-08-23T10:40:40.000Z</Time>
            <Position>
              <LatitudeDegrees>42.78003282845020294189453125</LatitudeDegrees>
              <LongitudeDegrees>-0.259492658078670501708984375</LongitudeDegrees>
            </Position>
            <AltitudeMeters>2932.39990234375</AltitudeMeters>
            <DistanceMeters>NAN</DistanceMeters>
          </Trackpoint>
          <Trackpoint>
            <Time>2022-08-23T10:40:41.000Z</Time>
            <Position>
              <LatitudeDegrees>42.78003794141113758087158203125</LatitudeDegrees>
              <LongitudeDegrees>-0.25948570109903812408447265625</LongitudeDegrees>
            </Position>
            <AltitudeMeters>2932.800048828125</AltitudeMeters>
            <DistanceMeters>NAN</DistanceMeters>
          </Trackpoint>
          <Trackpoint>
            <Time>2022-08-23T10:40:43.000Z</Time>
            <Position>
              <LatitudeDegrees>42.78004062362015247344970703125</LatitudeDegrees>
              <LongitudeDegrees>-0.2594737149775028228759765625</LongitudeDegrees>
            </Position>
            <AltitudeMeters>2933</AltitudeMeters>
            <DistanceMeters>NAN</DistanceMeters>
          </Trackpoint>
          <Trackpoint>
            <Time>2022-08-23T10:40:58.000Z</Time>
            <Position>
              <LatitudeDegrees>42.77996183373034000396728515625</LatitudeDegrees>
              <LongitudeDegrees>-0.25938905775547027587890625</LongitudeDegrees>
            </Position>
            <AltitudeMeters>2923.800048828125</AltitudeMeters>
            <DistanceMeters>NAN</DistanceMeters>
          </Trackpoint>
          <Trackpoint>
            <Time>2022-08-23T10:41:06.000Z</Time>
            <Position>
              <LatitudeDegrees>42.77995646931231021881103515625</LatitudeDegrees>
              <LongitudeDegrees>-0.25928637944161891937255859375</LongitudeDegrees>
            </Position>
            <AltitudeMeters>2923.39990234375</AltitudeMeters>
            <DistanceMeters>NAN</DistanceMeters>
          </Trackpoint>
          <Trackpoint>
            <Time>2022-08-23T10:41:25.000Z</Time>
            <Position>
              <LatitudeDegrees>42.77991808019578456878662109375</LatitudeDegrees>
              <LongitudeDegrees>-0.25905185379087924957275390625</LongitudeDegrees>
            </Position>
            <AltitudeMeters>2917.60009765625</AltitudeMeters>
            <DistanceMeters>NAN</DistanceMeters>
          </Trackpoint>
          <Trackpoint>
            <Time>2022-08-23T10:41:41.000Z</Time>
            <Position>
              <LatitudeDegrees>42.77986762113869190216064453125</LatitudeDegrees>
              <LongitudeDegrees>-0.2588085271418094635009765625</LongitudeDegrees>
            </Position>
            <AltitudeMeters>2910.800048828125</AltitudeMeters>
            <DistanceMeters>NAN</DistanceMeters>
          </Trackpoint>
          <Trackpoint>
            <Time>2022-08-23T10:41:51.000Z</Time>
            <Position>
              <LatitudeDegrees>42.779864855110645294189453125</LatitudeDegrees>
              <LongitudeDegrees>-0.2586851455271244049072265625</LongitudeDegrees>
            </Position>
            <AltitudeMeters>2909.60009765625</AltitudeMeters>
            <DistanceMeters>NAN</DistanceMeters>
          </Trackpoint>
          <Trackpoint>
            <Time>2022-08-23T10:42:12.000Z</Time>
            <Position>
              <LatitudeDegrees>42.77988404966890811920166015625</LatitudeDegrees>
              <LongitudeDegrees>-0.25843142531812191009521484375</LongitudeDegrees>
            </Position>
            <AltitudeMeters>2910.39990234375</AltitudeMeters>
            <DistanceMeters>NAN</DistanceMeters>
          </Trackpoint>
          <Trackpoint>
            <Time>2022-08-23T10:42:27.000Z</Time>
            <Position>
              <LatitudeDegrees>42.779881954193115234375</LatitudeDegrees>
              <LongitudeDegrees>-0.25817577727138996124267578125</LongitudeDegrees>
            </Position>
            <AltitudeMeters>2909</AltitudeMeters>
            <DistanceMeters>NAN</DistanceMeters>
          </Trackpoint>
          <Trackpoint>
            <Time>2022-08-23T10:42:33.000Z</Time>
            <Position>
              <LatitudeDegrees>42.77985789813101291656494140625</LatitudeDegrees>
              <LongitudeDegrees>-0.258083157241344451904296875</LongitudeDegrees>
            </Position>
            <AltitudeMeters>2906.60009765625</AltitudeMeters>
            <DistanceMeters>NAN</DistanceMeters>
          </Trackpoint>
          <Trackpoint>
            <Time>2022-08-23T10:42:52.000Z</Time>
            <Position>
              <LatitudeDegrees>42.7798162400722503662109375</LatitudeDegrees>
              <LongitudeDegrees>-0.257880985736846923828125</LongitudeDegrees>
            </Position>
            <AltitudeMeters>2902.60009765625</AltitudeMeters>
            <DistanceMeters>NAN</DistanceMeters>
          </Trackpoint>
          <Trackpoint>
            <Time>2022-08-23T10:42:55.000Z</Time>
            <Position>
              <LatitudeDegrees>42.7798197604715824127197265625</LatitudeDegrees>
              <LongitudeDegrees>-0.25788626633584499359130859375</LongitudeDegrees>
            </Position>
            <AltitudeMeters>2902.800048828125</AltitudeMeters>
            <DistanceMeters>NAN</DistanceMeters>
          </Trackpoint>
          <Trackpoint>
            <Time>2022-08-23T10:42:58.000Z</Time>
            <Position>
              <LatitudeDegrees>42.7798013202846050262451171875</LatitudeDegrees>
              <LongitudeDegrees>-0.25787922553718090057373046875</LongitudeDegrees>
            </Position>
            <AltitudeMeters>2901.39990234375</AltitudeMeters>
            <DistanceMeters>NAN</DistanceMeters>
          </Trackpoint>
          <Trackpoint>
            <Time>2022-08-23T10:43:03.000Z</Time>
            <Position>
              <LatitudeDegrees>42.77976192533969879150390625</LatitudeDegrees>
              <LongitudeDegrees>-0.25783865712583065032958984375</LongitudeDegrees>
            </Position>
            <AltitudeMeters>2898</AltitudeMeters>
            <DistanceMeters>NAN</DistanceMeters>
          </Trackpoint>
          <Trackpoint>
            <Time>2022-08-23T10:43:09.000Z</Time>
            <Position>
              <LatitudeDegrees>42.77972378768026828765869140625</LatitudeDegrees>
              <LongitudeDegrees>-0.25786019861698150634765625</LongitudeDegrees>
            </Position>
            <AltitudeMeters>2895.39990234375</AltitudeMeters>
            <DistanceMeters>NAN</DistanceMeters>
          </Trackpoint>
          <Trackpoint>
            <Time>2022-08-23T10:43:13.000Z</Time>
            <Position>
              <LatitudeDegrees>42.77969495393335819244384765625</LatitudeDegrees>
              <LongitudeDegrees>-0.25782926939427852630615234375</LongitudeDegrees>
            </Position>
            <AltitudeMeters>2893</AltitudeMeters>
            <DistanceMeters>NAN</DistanceMeters>
          </Trackpoint>
          <Trackpoint>
            <Time>2022-08-23T10:43:16.000Z</Time>
            <Position>
              <LatitudeDegrees>42.77968145906925201416015625</LatitudeDegrees>
              <LongitudeDegrees>-0.25783631019294261932373046875</LongitudeDegrees>
            </Position>
            <AltitudeMeters>2892</AltitudeMeters>
            <DistanceMeters>NAN</DistanceMeters>
          </Trackpoint>
          <Trackpoint>
            <Time>2022-08-23T10:43:30.000Z</Time>
            <Position>
              <LatitudeDegrees>42.77966176159679889678955078125</LatitudeDegrees>
              <LongitudeDegrees>-0.2577296085655689239501953125</LongitudeDegrees>
            </Position>
            <AltitudeMeters>2891</AltitudeMeters>
            <DistanceMeters>NAN</DistanceMeters>
          </Trackpoint>
          <Trackpoint>
            <Time>2022-08-23T10:43:46.000Z</Time>
            <Position>
              <LatitudeDegrees>42.77955514378845691680908203125</LatitudeDegrees>
              <LongitudeDegrees>-0.25753238238394260406494140625</LongitudeDegrees>
            </Position>
            <AltitudeMeters>2887.800048828125</AltitudeMeters>
            <DistanceMeters>NAN</DistanceMeters>
          </Trackpoint>
          <Trackpoint>
            <Time>2022-08-23T10:44:03.000Z</Time>
            <Position>
              <LatitudeDegrees>42.77939622290432453155517578125</LatitudeDegrees>
              <LongitudeDegrees>-0.2574178017675876617431640625</LongitudeDegrees>
            </Position>
            <AltitudeMeters>2881.800048828125</AltitudeMeters>
            <DistanceMeters>NAN</DistanceMeters>
          </Trackpoint>
          <Trackpoint>
            <Time>2022-08-23T10:44:21.000Z</Time>
            <Position>
              <LatitudeDegrees>42.7792387269437313079833984375</LatitudeDegrees>
              <LongitudeDegrees>-0.25738821364939212799072265625</LongitudeDegrees>
            </Position>
            <AltitudeMeters>2874.800048828125</AltitudeMeters>
            <DistanceMeters>NAN</DistanceMeters>
          </Trackpoint>
          <Trackpoint>
            <Time>2022-08-23T10:44:40.000Z</Time>
            <Position>
              <LatitudeDegrees>42.77906262315809726715087890625</LatitudeDegrees>
              <LongitudeDegrees>-0.25736390613019466400146484375</LongitudeDegrees>
            </Position>
            <AltitudeMeters>2870.800048828125</AltitudeMeters>
            <DistanceMeters>NAN</DistanceMeters>
          </Trackpoint>
          <Trackpoint>
            <Time>2022-08-23T10:44:55.000Z</Time>
            <Position>
              <LatitudeDegrees>42.77888081967830657958984375</LatitudeDegrees>
              <LongitudeDegrees>-0.2574114315211772918701171875</LongitudeDegrees>
            </Position>
            <AltitudeMeters>2864.39990234375</AltitudeMeters>
            <DistanceMeters>NAN</DistanceMeters>
          </Trackpoint>
          <Trackpoint>
            <Time>2022-08-23T10:45:06.000Z</Time>
            <Position>
              <LatitudeDegrees>42.7787854336202144622802734375</LatitudeDegrees>
              <LongitudeDegrees>-0.257395170629024505615234375</LongitudeDegrees>
            </Position>
            <AltitudeMeters>2863.199951171875</AltitudeMeters>
            <DistanceMeters>NAN</DistanceMeters>
          </Trackpoint>
          <Trackpoint>
            <Time>2022-08-23T10:45:14.000Z</Time>
            <Position>
              <LatitudeDegrees>42.7787213958799839019775390625</LatitudeDegrees>
              <LongitudeDegrees>-0.25739206932485103607177734375</LongitudeDegrees>
            </Position>
            <AltitudeMeters>2862.199951171875</AltitudeMeters>
            <DistanceMeters>NAN</DistanceMeters>
          </Trackpoint>
          <Trackpoint>
            <Time>2022-08-23T10:45:28.000Z</Time>
            <Position>
              <LatitudeDegrees>42.77854093350470066070556640625</LatitudeDegrees>
              <LongitudeDegrees>-0.2573889680206775665283203125</LongitudeDegrees>
            </Position>
            <AltitudeMeters>2859.39990234375</AltitudeMeters>
            <DistanceMeters>NAN</DistanceMeters>
          </Trackpoint>
          <Trackpoint>
            <Time>2022-08-23T10:45:42.000Z</Time>
            <Position>
              <LatitudeDegrees>42.7783894725143909454345703125</LatitudeDegrees>
              <LongitudeDegrees>-0.25743867270648479461669921875</LongitudeDegrees>
            </Position>
            <AltitudeMeters>2855.60009765625</AltitudeMeters>
            <DistanceMeters>NAN</DistanceMeters>
          </Trackpoint>
          <Trackpoint>
            <Time>2022-08-23T10:45:43.000Z</Time>
            <Position>
              <LatitudeDegrees>42.7783649973571300506591796875</LatitudeDegrees>
              <LongitudeDegrees>-0.25742995552718639373779296875</LongitudeDegrees>
            </Position>
            <AltitudeMeters>2855.60009765625</AltitudeMeters>
            <DistanceMeters>NAN</DistanceMeters>
          </Trackpoint>
          <Trackpoint>
            <Time>2022-08-23T10:45:44.000Z</Time>
            <Position>
              <LatitudeDegrees>42.7783649973571300506591796875</LatitudeDegrees>
              <LongitudeDegrees>-0.25742995552718639373779296875</LongitudeDegrees>
            </Position>
            <AltitudeMeters>2855.60009765625</AltitudeMeters>
            <DistanceMeters>NAN</DistanceMeters>
          </Trackpoint>
          <Trackpoint>
            <Time>2022-08-23T10:45:47.000Z</Time>
            <Position>
              <LatitudeDegrees>42.7783304639160633087158203125</LatitudeDegrees>
              <LongitudeDegrees>-0.25741134770214557647705078125</LongitudeDegrees>
            </Position>
            <AltitudeMeters>2856</AltitudeMeters>
            <DistanceMeters>NAN</DistanceMeters>
          </Trackpoint>
          <Trackpoint>
            <Time>2022-08-23T10:46:06.000Z</Time>
            <Position>
              <LatitudeDegrees>42.7781685255467891693115234375</LatitudeDegrees>
              <LongitudeDegrees>-0.25735468603670597076416015625</LongitudeDegrees>
            </Position>
            <AltitudeMeters>2856.39990234375</AltitudeMeters>
            <DistanceMeters>NAN</DistanceMeters>
          </Trackpoint>
          <Trackpoint>
            <Time>2022-08-23T10:46:15.000Z</Time>
            <Position>
              <LatitudeDegrees>42.7780609019100666046142578125</LatitudeDegrees>
              <LongitudeDegrees>-0.25734387338161468505859375</LongitudeDegrees>
            </Position>
            <AltitudeMeters>2855</AltitudeMeters>
            <DistanceMeters>NAN</DistanceMeters>
          </Trackpoint>
          <Trackpoint>
            <Time>2022-08-23T10:46:23.000Z</Time>
            <Position>
              <LatitudeDegrees>42.77797984890639781951904296875</LatitudeDegrees>
              <LongitudeDegrees>-0.25736357085406780242919921875</LongitudeDegrees>
            </Position>
            <AltitudeMeters>2852.39990234375</AltitudeMeters>
            <DistanceMeters>NAN</DistanceMeters>
          </Trackpoint>
          <Trackpoint>
            <Time>2022-08-23T10:46:24.000Z</Time>
            <Position>
              <LatitudeDegrees>42.777961157262325286865234375</LatitudeDegrees>
              <LongitudeDegrees>-0.257347561419010162353515625</LongitudeDegrees>
            </Position>
            <AltitudeMeters>2852.60009765625</AltitudeMeters>
            <DistanceMeters>NAN</DistanceMeters>
          </Trackpoint>
          <Trackpoint>
            <Time>2022-08-23T10:46:25.000Z</Time>
            <Position>
              <LatitudeDegrees>42.777961157262325286865234375</LatitudeDegrees>
              <LongitudeDegrees>-0.257347561419010162353515625</LongitudeDegrees>
            </Position>
            <AltitudeMeters>2852.60009765625</AltitudeMeters>
            <DistanceMeters>NAN</DistanceMeters>
          </Trackpoint>
          <Trackpoint>
            <Time>2022-08-23T10:46:26.000Z</Time>
            <Position>
              <LatitudeDegrees>42.77795420028269290924072265625</LatitudeDegrees>
              <LongitudeDegrees>-0.2573413588106632232666015625</LongitudeDegrees>
            </Position>
            <AltitudeMeters>2852.800048828125</AltitudeMeters>
            <DistanceMeters>NAN</DistanceMeters>
          </Trackpoint>
          <Trackpoint>
            <Time>2022-08-23T10:46:28.000Z</Time>
            <Position>
              <LatitudeDegrees>42.7779368497431278228759765625</LatitudeDegrees>
              <LongitudeDegrees>-0.2573363296687602996826171875</LongitudeDegrees>
            </Position>
            <AltitudeMeters>2852.800048828125</AltitudeMeters>
            <DistanceMeters>NAN</DistanceMeters>
          </Trackpoint>
          <Trackpoint>
            <Time>2022-08-23T10:46:42.000Z</Time>
            <Position>
              <LatitudeDegrees>42.77778723277151584625244140625</LatitudeDegrees>
              <LongitudeDegrees>-0.25729869492352008819580078125</LongitudeDegrees>
            </Position>
            <AltitudeMeters>2851.39990234375</AltitudeMeters>
            <DistanceMeters>NAN</DistanceMeters>
          </Trackpoint>
          <Trackpoint>
            <Time>2022-08-23T10:46:56.000Z</Time>
            <Position>
              <LatitudeDegrees>42.77765848673880100250244140625</LatitudeDegrees>
              <LongitudeDegrees>-0.25727405212819576263427734375</LongitudeDegrees>
            </Position>
            <AltitudeMeters>2848.39990234375</AltitudeMeters>
            <DistanceMeters>NAN</DistanceMeters>
          </Trackpoint>
          <Trackpoint>
            <Time>2022-08-23T10:47:10.000Z</Time>
            <Position>
              <LatitudeDegrees>42.77751515619456768035888671875</LatitudeDegrees>
              <LongitudeDegrees>-0.2572323940694332122802734375</LongitudeDegrees>
            </Position>
            <AltitudeMeters>2847.39990234375</AltitudeMeters>
            <DistanceMeters>NAN</DistanceMeters>
          </Trackpoint>
          <Trackpoint>
            <Time>2022-08-23T10:47:16.000Z</Time>
            <Position>
              <LatitudeDegrees>42.777454219758510589599609375</LatitudeDegrees>
              <LongitudeDegrees>-0.25721219368278980255126953125</LongitudeDegrees>
            </Position>
            <AltitudeMeters>2847.199951171875</AltitudeMeters>
            <DistanceMeters>NAN</DistanceMeters>
          </Trackpoint>
          <Trackpoint>
            <Time>2022-08-23T10:47:20.000Z</Time>
            <Position>
              <LatitudeDegrees>42.77742312289774417877197265625</LatitudeDegrees>
              <LongitudeDegrees>-0.257209427654743194580078125</LongitudeDegrees>
            </Position>
            <AltitudeMeters>2846.800048828125</AltitudeMeters>
            <DistanceMeters>NAN</DistanceMeters>
          </Trackpoint>
          <Trackpoint>
            <Time>2022-08-23T10:47:21.000Z</Time>
            <Position>
              <LatitudeDegrees>42.7774161659181118011474609375</LatitudeDegrees>
              <LongitudeDegrees>-0.2572062425315380096435546875</LongitudeDegrees>
            </Position>
            <AltitudeMeters>2846.800048828125</AltitudeMeters>
            <DistanceMeters>NAN</DistanceMeters>
          </Trackpoint>
          <Trackpoint>
            <Time>2022-08-23T10:47:22.000Z</Time>
            <Position>
              <LatitudeDegrees>42.77740619145333766937255859375</LatitudeDegrees>
              <LongitudeDegrees>-0.2572023868560791015625</LongitudeDegrees>
            </Position>
            <AltitudeMeters>2846.800048828125</AltitudeMeters>
            <DistanceMeters>NAN</DistanceMeters>
          </Trackpoint>
          <Trackpoint>
            <Time>2022-08-23T10:47:25.000Z</Time>
            <Position>
              <LatitudeDegrees>42.7773766033351421356201171875</LatitudeDegrees>
              <LongitudeDegrees>-0.257189981639385223388671875</LongitudeDegrees>
            </Position>
            <AltitudeMeters>2846.800048828125</AltitudeMeters>
            <DistanceMeters>NAN</DistanceMeters>
          </Trackpoint>
          <Trackpoint>
            <Time>2022-08-23T10:47:41.000Z</Time>
            <Position>
              <LatitudeDegrees>42.7771968953311443328857421875</LatitudeDegrees>
              <LongitudeDegrees>-0.25721420533955097198486328125</LongitudeDegrees>
            </Position>
            <AltitudeMeters>2842</AltitudeMeters>
            <DistanceMeters>NAN</DistanceMeters>
          </Trackpoint>
          <Trackpoint>
            <Time>2022-08-23T10:47:42.000Z</Time>
            <Position>
              <LatitudeDegrees>42.7771796286106109619140625</LatitudeDegrees>
              <LongitudeDegrees>-0.2572109363973140716552734375</LongitudeDegrees>
            </Position>
            <AltitudeMeters>2841.800048828125</AltitudeMeters>
            <DistanceMeters>NAN</DistanceMeters>
          </Trackpoint>
          <Trackpoint>
            <Time>2022-08-23T10:47:55.000Z</Time>
            <Position>
              <LatitudeDegrees>42.7770668081939220428466796875</LatitudeDegrees>
              <LongitudeDegrees>-0.2571874670684337615966796875</LongitudeDegrees>
            </Position>
            <AltitudeMeters>2840.39990234375</AltitudeMeters>
            <DistanceMeters>NAN</DistanceMeters>
          </Trackpoint>
          <Trackpoint>
            <Time>2022-08-23T10:47:56.000Z</Time>
            <Position>
              <LatitudeDegrees>42.77704644016921520233154296875</LatitudeDegrees>
              <LongitudeDegrees>-0.25719165802001953125</LongitudeDegrees>
            </Position>
            <AltitudeMeters>2839.800048828125</AltitudeMeters>
            <DistanceMeters>NAN</DistanceMeters>
          </Trackpoint>
          <Trackpoint>
            <Time>2022-08-23T10:48:04.000Z</Time>
            <Position>
              <LatitudeDegrees>42.7769628725945949554443359375</LatitudeDegrees>
              <LongitudeDegrees>-0.25723046623170375823974609375</LongitudeDegrees>
            </Position>
            <AltitudeMeters>2837.199951171875</AltitudeMeters>
            <DistanceMeters>NAN</DistanceMeters>
          </Trackpoint>
          <Trackpoint>
            <Time>2022-08-23T10:48:08.000Z</Time>
            <Position>
              <LatitudeDegrees>42.77694049291312694549560546875</LatitudeDegrees>
              <LongitudeDegrees>-0.25729634799063205718994140625</LongitudeDegrees>
            </Position>
            <AltitudeMeters>2834</AltitudeMeters>
            <DistanceMeters>NAN</DistanceMeters>
          </Trackpoint>
          <Trackpoint>
            <Time>2022-08-23T10:48:24.000Z</Time>
            <Position>
              <LatitudeDegrees>42.77679313905537128448486328125</LatitudeDegrees>
              <LongitudeDegrees>-0.25739642791450023651123046875</LongitudeDegrees>
            </Position>
            <AltitudeMeters>2828.800048828125</AltitudeMeters>
            <DistanceMeters>NAN</DistanceMeters>
          </Trackpoint>
          <Trackpoint>
            <Time>2022-08-23T10:48:34.000Z</Time>
            <Position>
              <LatitudeDegrees>42.7767177857458591461181640625</LatitudeDegrees>
              <LongitudeDegrees>-0.2574312128126621246337890625</LongitudeDegrees>
            </Position>
            <AltitudeMeters>2826.800048828125</AltitudeMeters>
            <DistanceMeters>NAN</DistanceMeters>
          </Trackpoint>
          <Trackpoint>
            <Time>2022-08-23T10:48:37.000Z</Time>
            <Position>
              <LatitudeDegrees>42.77671535499393939971923828125</LatitudeDegrees>
              <LongitudeDegrees>-0.25744839571416378021240234375</LongitudeDegrees>
            </Position>
            <AltitudeMeters>2826.39990234375</AltitudeMeters>
            <DistanceMeters>NAN</DistanceMeters>
          </Trackpoint>
          <Trackpoint>
            <Time>2022-08-23T10:48:41.000Z</Time>
            <Position>
              <LatitudeDegrees>42.77672440744936466217041015625</LatitudeDegrees>
              <LongitudeDegrees>-0.2574570290744304656982421875</LongitudeDegrees>
            </Position>
            <AltitudeMeters>2826.199951171875</AltitudeMeters>
            <DistanceMeters>NAN</DistanceMeters>
          </Trackpoint>
          <Trackpoint>
            <Time>2022-08-23T10:48:53.000Z</Time>
            <Position>
              <LatitudeDegrees>42.77666791342198848724365234375</LatitudeDegrees>
              <LongitudeDegrees>-0.257466919720172882080078125</LongitudeDegrees>
            </Position>
            <AltitudeMeters>2825.800048828125</AltitudeMeters>
            <DistanceMeters>NAN</DistanceMeters>
          </Trackpoint>
          <Trackpoint>
            <Time>2022-08-23T10:49:01.000Z</Time>
            <Position>
              <LatitudeDegrees>42.77659163810312747955322265625</LatitudeDegrees>
              <LongitudeDegrees>-0.25750354863703250885009765625</LongitudeDegrees>
            </Position>
            <AltitudeMeters>2824.39990234375</AltitudeMeters>
            <DistanceMeters>NAN</DistanceMeters>
          </Trackpoint>
          <Trackpoint>
            <Time>2022-08-23T10:49:20.000Z</Time>
            <Position>
              <LatitudeDegrees>42.7764187194406986236572265625</LatitudeDegrees>
              <LongitudeDegrees>-0.257533304393291473388671875</LongitudeDegrees>
            </Position>
            <AltitudeMeters>2822.800048828125</AltitudeMeters>
            <DistanceMeters>NAN</DistanceMeters>
          </Trackpoint>
          <Trackpoint>
            <Time>2022-08-23T10:49:35.000Z</Time>
            <Position>
              <LatitudeDegrees>42.7763231657445430755615234375</LatitudeDegrees>
              <LongitudeDegrees>-0.25761184282600879669189453125</LongitudeDegrees>
            </Position>
            <AltitudeMeters>2821.199951171875</AltitudeMeters>
            <DistanceMeters>NAN</DistanceMeters>
          </Trackpoint>
          <Trackpoint>
            <Time>2022-08-23T10:49:47.000Z</Time>
            <Position>
              <LatitudeDegrees>42.7762651629745960235595703125</LatitudeDegrees>
              <LongitudeDegrees>-0.257619805634021759033203125</LongitudeDegrees>
            </Position>
            <AltitudeMeters>2821.199951171875</AltitudeMeters>
            <DistanceMeters>NAN</DistanceMeters>
          </Trackpoint>
          <Trackpoint>
            <Time>2022-08-23T10:50:10.000Z</Time>
            <Position>
              <LatitudeDegrees>42.776103727519512176513671875</LatitudeDegrees>
              <LongitudeDegrees>-0.2576833404600620269775390625</LongitudeDegrees>
            </Position>
            <AltitudeMeters>2823.60009765625</AltitudeMeters>
            <DistanceMeters>NAN</DistanceMeters>
          </Trackpoint>
          <Trackpoint>
            <Time>2022-08-23T10:50:20.000Z</Time>
            <Position>
              <LatitudeDegrees>42.776036001741886138916015625</LatitudeDegrees>
              <LongitudeDegrees>-0.25769633240997791290283203125</LongitudeDegrees>
            </Position>
            <AltitudeMeters>2826</AltitudeMeters>
            <DistanceMeters>NAN</DistanceMeters>
          </Trackpoint>
          <Trackpoint>
            <Time>2022-08-23T10:50:45.000Z</Time>
            <Position>
              <LatitudeDegrees>42.77585788629949092864990234375</LatitudeDegrees>
              <LongitudeDegrees>-0.2577477134764194488525390625</LongitudeDegrees>
            </Position>
            <AltitudeMeters>2831</AltitudeMeters>
            <DistanceMeters>NAN</DistanceMeters>
          </Trackpoint>
          <Trackpoint>
            <Time>2022-08-23T10:51:02.000Z</Time>
            <Position>
              <LatitudeDegrees>42.77568890713155269622802734375</LatitudeDegrees>
              <LongitudeDegrees>-0.2578422613441944122314453125</LongitudeDegrees>
            </Position>
            <AltitudeMeters>2832.800048828125</AltitudeMeters>
            <DistanceMeters>NAN</DistanceMeters>
          </Trackpoint>
          <Trackpoint>
            <Time>2022-08-23T10:51:11.000Z</Time>
            <Position>
              <LatitudeDegrees>42.7756293118000030517578125</LatitudeDegrees>
              <LongitudeDegrees>-0.25784268043935298919677734375</LongitudeDegrees>
            </Position>
            <AltitudeMeters>2835.60009765625</AltitudeMeters>
            <DistanceMeters>NAN</DistanceMeters>
          </Trackpoint>
          <Trackpoint>
            <Time>2022-08-23T10:51:35.000Z</Time>
            <Position>
              <LatitudeDegrees>42.775523364543914794921875</LatitudeDegrees>
              <LongitudeDegrees>-0.257978551089763641357421875</LongitudeDegrees>
            </Position>
            <AltitudeMeters>2833.199951171875</AltitudeMeters>
            <DistanceMeters>NAN</DistanceMeters>
          </Trackpoint>
          <Trackpoint>
            <Time>2022-08-23T10:51:38.000Z</Time>
            <Position>
              <LatitudeDegrees>42.7755050919950008392333984375</LatitudeDegrees>
              <LongitudeDegrees>-0.25798215530812740325927734375</LongitudeDegrees>
            </Position>
            <AltitudeMeters>2834.199951171875</AltitudeMeters>
            <DistanceMeters>NAN</DistanceMeters>
          </Trackpoint>
          <Trackpoint>
            <Time>2022-08-23T10:51:43.000Z</Time>
            <Position>
              <LatitudeDegrees>42.77546192519366741180419921875</LatitudeDegrees>
              <LongitudeDegrees>-0.25801987387239933013916015625</LongitudeDegrees>
            </Position>
            <AltitudeMeters>2835</AltitudeMeters>
            <DistanceMeters>NAN</DistanceMeters>
          </Trackpoint>
          <Trackpoint>
            <Time>2022-08-23T10:52:03.000Z</Time>
            <Position>
              <LatitudeDegrees>42.775327898561954498291015625</LatitudeDegrees>
              <LongitudeDegrees>-0.258185081183910369873046875</LongitudeDegrees>
            </Position>
            <AltitudeMeters>2835.39990234375</AltitudeMeters>
            <DistanceMeters>NAN</DistanceMeters>
          </Trackpoint>
          <Trackpoint>
            <Time>2022-08-23T10:52:30.000Z</Time>
            <Position>
              <LatitudeDegrees>42.7752144075930118560791015625</LatitudeDegrees>
              <LongitudeDegrees>-0.2583679743111133575439453125</LongitudeDegrees>
            </Position>
            <AltitudeMeters>2833.199951171875</AltitudeMeters>
            <DistanceMeters>NAN</DistanceMeters>
          </Trackpoint>
          <Trackpoint>
            <Time>2022-08-23T10:52:43.000Z</Time>
            <Position>
              <LatitudeDegrees>42.7751889266073703765869140625</LatitudeDegrees>
              <LongitudeDegrees>-0.2585017494857311248779296875</LongitudeDegrees>
            </Position>
            <AltitudeMeters>2829.199951171875</AltitudeMeters>
            <DistanceMeters>NAN</DistanceMeters>
          </Trackpoint>
          <Trackpoint>
            <Time>2022-08-23T10:53:15.000Z</Time>
            <Position>
              <LatitudeDegrees>42.77509211562573909759521484375</LatitudeDegrees>
              <LongitudeDegrees>-0.2586750872433185577392578125</LongitudeDegrees>
            </Position>
            <AltitudeMeters>2825.60009765625</AltitudeMeters>
            <DistanceMeters>NAN</DistanceMeters>
          </Trackpoint>
          <Trackpoint>
            <Time>2022-08-23T10:53:19.000Z</Time>
            <Position>
              <LatitudeDegrees>42.77507434599101543426513671875</LatitudeDegrees>
              <LongitudeDegrees>-0.2587180025875568389892578125</LongitudeDegrees>
            </Position>
            <AltitudeMeters>2824.39990234375</AltitudeMeters>
            <DistanceMeters>NAN</DistanceMeters>
          </Trackpoint>
          <Trackpoint>
            <Time>2022-08-23T10:53:34.000Z</Time>
            <Position>
              <LatitudeDegrees>42.77501969598233699798583984375</LatitudeDegrees>
              <LongitudeDegrees>-0.25883442722260951995849609375</LongitudeDegrees>
            </Position>
            <AltitudeMeters>2821.39990234375</AltitudeMeters>
            <DistanceMeters>NAN</DistanceMeters>
          </Trackpoint>
          <Trackpoint>
            <Time>2022-08-23T10:53:55.000Z</Time>
            <Position>
              <LatitudeDegrees>42.77485826052725315093994140625</LatitudeDegrees>
              <LongitudeDegrees>-0.25897121988236904144287109375</LongitudeDegrees>
            </Position>
            <AltitudeMeters>2823.199951171875</AltitudeMeters>
            <DistanceMeters>NAN</DistanceMeters>
          </Trackpoint>
          <Trackpoint>
            <Time>2022-08-23T10:54:02.000Z</Time>
            <Position>
              <LatitudeDegrees>42.77481936849653720855712890625</LatitudeDegrees>
              <LongitudeDegrees>-0.25902989320456981658935546875</LongitudeDegrees>
            </Position>
            <AltitudeMeters>2822.39990234375</AltitudeMeters>
            <DistanceMeters>NAN</DistanceMeters>
          </Trackpoint>
          <Trackpoint>
            <Time>2022-08-23T10:54:24.000Z</Time>
            <Position>
              <LatitudeDegrees>42.77469883672893047332763671875</LatitudeDegrees>
              <LongitudeDegrees>-0.259207673370838165283203125</LongitudeDegrees>
            </Position>
            <AltitudeMeters>2818.60009765625</AltitudeMeters>
            <DistanceMeters>NAN</DistanceMeters>
          </Trackpoint>
          <Trackpoint>
            <Time>2022-08-23T10:54:52.000Z</Time>
            <Position>
              <LatitudeDegrees>42.77470487169921398162841796875</LatitudeDegrees>
              <LongitudeDegrees>-0.2593466453254222869873046875</LongitudeDegrees>
            </Position>
            <AltitudeMeters>2813.39990234375</AltitudeMeters>
            <DistanceMeters>NAN</DistanceMeters>
          </Trackpoint>
          <Trackpoint>
            <Time>2022-08-23T10:55:14.000Z</Time>
            <Position>
              <LatitudeDegrees>42.774613089859485626220703125</LatitudeDegrees>
              <LongitudeDegrees>-0.259560383856296539306640625</LongitudeDegrees>
            </Position>
            <AltitudeMeters>2812.60009765625</AltitudeMeters>
            <DistanceMeters>NAN</DistanceMeters>
          </Trackpoint>
          <Trackpoint>
            <Time>2022-08-23T10:55:17.000Z</Time>
            <Position>
              <LatitudeDegrees>42.7745904587209224700927734375</LatitudeDegrees>
              <LongitudeDegrees>-0.25957890786230564117431640625</LongitudeDegrees>
            </Position>
            <AltitudeMeters>2813</AltitudeMeters>
            <DistanceMeters>NAN</DistanceMeters>
          </Trackpoint>
          <Trackpoint>
            <Time>2022-08-23T10:55:22.000Z</Time>
            <Position>
              <LatitudeDegrees>42.77454435825347900390625</LatitudeDegrees>
              <LongitudeDegrees>-0.25959827005863189697265625</LongitudeDegrees>
            </Position>
            <AltitudeMeters>2814</AltitudeMeters>
            <DistanceMeters>NAN</DistanceMeters>
          </Trackpoint>
          <Trackpoint>
            <Time>2022-08-23T10:55:25.000Z</Time>
            <Position>
              <LatitudeDegrees>42.77451477013528347015380859375</LatitudeDegrees>
              <LongitudeDegrees>-0.2596091665327548980712890625</LongitudeDegrees>
            </Position>
            <AltitudeMeters>2814.60009765625</AltitudeMeters>
            <DistanceMeters>NAN</DistanceMeters>
          </Trackpoint>
          <Trackpoint>
            <Time>2022-08-23T10:55:45.000Z</Time>
            <Position>
              <LatitudeDegrees>42.77433657087385654449462890625</LatitudeDegrees>
              <LongitudeDegrees>-0.25967697612941265106201171875</LongitudeDegrees>
            </Position>
            <AltitudeMeters>2816.800048828125</AltitudeMeters>
            <DistanceMeters>NAN</DistanceMeters>
          </Trackpoint>
          <Trackpoint>
            <Time>2022-08-23T10:55:50.000Z</Time>
            <Position>
              <LatitudeDegrees>42.77429348789155483245849609375</LatitudeDegrees>
              <LongitudeDegrees>-0.2596695162355899810791015625</LongitudeDegrees>
            </Position>
            <AltitudeMeters>2817.39990234375</AltitudeMeters>
            <DistanceMeters>NAN</DistanceMeters>
          </Trackpoint>
          <Trackpoint>
            <Time>2022-08-23T10:55:57.000Z</Time>
            <Position>
              <LatitudeDegrees>42.77423917315900325775146484375</LatitudeDegrees>
              <LongitudeDegrees>-0.2596364915370941162109375</LongitudeDegrees>
            </Position>
            <AltitudeMeters>2818</AltitudeMeters>
            <DistanceMeters>NAN</DistanceMeters>
          </Trackpoint>
          <Trackpoint>
            <Time>2022-08-23T10:56:16.000Z</Time>
            <Position>
              <LatitudeDegrees>42.77409500442445278167724609375</LatitudeDegrees>
              <LongitudeDegrees>-0.25947949849069118499755859375</LongitudeDegrees>
            </Position>
            <AltitudeMeters>2817.60009765625</AltitudeMeters>
            <DistanceMeters>NAN</DistanceMeters>
          </Trackpoint>
          <Trackpoint>
            <Time>2022-08-23T10:56:38.000Z</Time>
            <Position>
              <LatitudeDegrees>42.77396089397370815277099609375</LatitudeDegrees>
              <LongitudeDegrees>-0.25930968113243579864501953125</LongitudeDegrees>
            </Position>
            <AltitudeMeters>2813.39990234375</AltitudeMeters>
            <DistanceMeters>NAN</DistanceMeters>
          </Trackpoint>
          <Trackpoint>
            <Time>2022-08-23T10:57:07.000Z</Time>
            <Position>
              <LatitudeDegrees>42.773858718574047088623046875</LatitudeDegrees>
              <LongitudeDegrees>-0.259111784398555755615234375</LongitudeDegrees>
            </Position>
            <AltitudeMeters>2804</AltitudeMeters>
            <DistanceMeters>NAN</DistanceMeters>
          </Trackpoint>
          <Trackpoint>
            <Time>2022-08-23T10:57:26.000Z</Time>
            <Position>
              <LatitudeDegrees>42.773822844028472900390625</LatitudeDegrees>
              <LongitudeDegrees>-0.25896987877786159515380859375</LongitudeDegrees>
            </Position>
            <AltitudeMeters>2797.199951171875</AltitudeMeters>
            <DistanceMeters>NAN</DistanceMeters>
          </Trackpoint>
          <Trackpoint>
            <Time>2022-08-23T10:57:40.000Z</Time>
            <Position>
              <LatitudeDegrees>42.773756124079227447509765625</LatitudeDegrees>
              <LongitudeDegrees>-0.25888823904097080230712890625</LongitudeDegrees>
            </Position>
            <AltitudeMeters>2792.39990234375</AltitudeMeters>
            <DistanceMeters>NAN</DistanceMeters>
          </Trackpoint>
          <Trackpoint>
            <Time>2022-08-23T10:58:01.000Z</Time>
            <Position>
              <LatitudeDegrees>42.77372066862881183624267578125</LatitudeDegrees>
              <LongitudeDegrees>-0.25864969007670879364013671875</LongitudeDegrees>
            </Position>
            <AltitudeMeters>2785.800048828125</AltitudeMeters>
            <DistanceMeters>NAN</DistanceMeters>
          </Trackpoint>
          <Trackpoint>
            <Time>2022-08-23T10:58:12.000Z</Time>
            <Position>
              <LatitudeDegrees>42.77371362783014774322509765625</LatitudeDegrees>
              <LongitudeDegrees>-0.2585916034877300262451171875</LongitudeDegrees>
            </Position>
            <AltitudeMeters>2783.800048828125</AltitudeMeters>
            <DistanceMeters>NAN</DistanceMeters>
          </Trackpoint>
          <Trackpoint>
            <Time>2022-08-23T10:58:26.000Z</Time>
            <Position>
              <LatitudeDegrees>42.7737003006041049957275390625</LatitudeDegrees>
              <LongitudeDegrees>-0.25858464650809764862060546875</LongitudeDegrees>
            </Position>
            <AltitudeMeters>2782.800048828125</AltitudeMeters>
            <DistanceMeters>NAN</DistanceMeters>
          </Trackpoint>
          <Trackpoint>
            <Time>2022-08-23T10:58:27.000Z</Time>
            <Position>
              <LatitudeDegrees>42.77369988150894641876220703125</LatitudeDegrees>
              <LongitudeDegrees>-0.2585852332413196563720703125</LongitudeDegrees>
            </Position>
            <AltitudeMeters>2782.800048828125</AltitudeMeters>
            <DistanceMeters>NAN</DistanceMeters>
          </Trackpoint>
          <Trackpoint>
            <Time>2022-08-23T10:58:28.000Z</Time>
            <Position>
              <LatitudeDegrees>42.77369988150894641876220703125</LatitudeDegrees>
              <LongitudeDegrees>-0.2585852332413196563720703125</LongitudeDegrees>
            </Position>
            <AltitudeMeters>2782.800048828125</AltitudeMeters>
            <DistanceMeters>NAN</DistanceMeters>
          </Trackpoint>
          <Trackpoint>
            <Time>2022-08-23T10:58:38.000Z</Time>
            <Position>
              <LatitudeDegrees>42.7737063355743885040283203125</LatitudeDegrees>
              <LongitudeDegrees>-0.258606187999248504638671875</LongitudeDegrees>
            </Position>
            <AltitudeMeters>2783.800048828125</AltitudeMeters>
            <DistanceMeters>NAN</DistanceMeters>
          </Trackpoint>
          <Trackpoint>
            <Time>2022-08-23T10:58:52.000Z</Time>
            <Position>
              <LatitudeDegrees>42.77370960451662540435791015625</LatitudeDegrees>
              <LongitudeDegrees>-0.25861582718789577484130859375</LongitudeDegrees>
            </Position>
            <AltitudeMeters>2784.199951171875</AltitudeMeters>
            <DistanceMeters>NAN</DistanceMeters>
          </Trackpoint>
          <Trackpoint>
            <Time>2022-08-23T10:58:59.000Z</Time>
            <Position>
              <LatitudeDegrees>42.77370239607989788055419921875</LatitudeDegrees>
              <LongitudeDegrees>-0.2586252987384796142578125</LongitudeDegrees>
            </Position>
            <AltitudeMeters>2784</AltitudeMeters>
            <DistanceMeters>NAN</DistanceMeters>
          </Trackpoint>
          <Trackpoint>
            <Time>2022-08-23T10:59:24.000Z</Time>
            <Position>
              <LatitudeDegrees>42.77371480129659175872802734375</LatitudeDegrees>
              <LongitudeDegrees>-0.25865287519991397857666015625</LongitudeDegrees>
            </Position>
            <AltitudeMeters>2785.39990234375</AltitudeMeters>
            <DistanceMeters>NAN</DistanceMeters>
          </Trackpoint>
          <Trackpoint>
            <Time>2022-08-23T10:59:31.000Z</Time>
            <Position>
              <LatitudeDegrees>42.77371446602046489715576171875</LatitudeDegrees>
              <LongitudeDegrees>-0.25865203700959682464599609375</LongitudeDegrees>
            </Position>
            <AltitudeMeters>2785.39990234375</AltitudeMeters>
            <DistanceMeters>NAN</DistanceMeters>
          </Trackpoint>
          <Trackpoint>
            <Time>2022-08-23T10:59:32.000Z</Time>
            <Position>
              <LatitudeDegrees>42.77371429838240146636962890625</LatitudeDegrees>
              <LongitudeDegrees>-0.258651785552501678466796875</LongitudeDegrees>
            </Position>
            <AltitudeMeters>2785.39990234375</AltitudeMeters>
            <DistanceMeters>NAN</DistanceMeters>
          </Trackpoint>
          <Trackpoint>
            <Time>2022-08-23T10:59:33.000Z</Time>
            <Position>
              <LatitudeDegrees>42.77371429838240146636962890625</LatitudeDegrees>
              <LongitudeDegrees>-0.25865145027637481689453125</LongitudeDegrees>
            </Position>
            <AltitudeMeters>2785.39990234375</AltitudeMeters>
            <DistanceMeters>NAN</DistanceMeters>
          </Trackpoint>
          <Trackpoint>
            <Time>2022-08-23T10:59:40.000Z</Time>
            <Position>
              <LatitudeDegrees>42.773712538182735443115234375</LatitudeDegrees>
              <LongitudeDegrees>-0.25864784605801105499267578125</LongitudeDegrees>
            </Position>
            <AltitudeMeters>2785.199951171875</AltitudeMeters>
            <DistanceMeters>NAN</DistanceMeters>
          </Trackpoint>
          <Trackpoint>
            <Time>2022-08-23T11:00:18.000Z</Time>
            <Position>
              <LatitudeDegrees>42.7737009711563587188720703125</LatitudeDegrees>
              <LongitudeDegrees>-0.25864876806735992431640625</LongitudeDegrees>
            </Position>
            <AltitudeMeters>2784.39990234375</AltitudeMeters>
            <DistanceMeters>NAN</DistanceMeters>
          </Trackpoint>
          <Trackpoint>
            <Time>2022-08-23T11:00:49.000Z</Time>
            <Position>
              <LatitudeDegrees>42.7737157233059406280517578125</LatitudeDegrees>
              <LongitudeDegrees>-0.25861968286335468292236328125</LongitudeDegrees>
            </Position>
            <AltitudeMeters>2784.60009765625</AltitudeMeters>
            <DistanceMeters>NAN</DistanceMeters>
          </Trackpoint>
          <Trackpoint>
            <Time>2022-08-23T11:00:52.000Z</Time>
            <Position>
              <LatitudeDegrees>42.77372318319976329803466796875</LatitudeDegrees>
              <LongitudeDegrees>-0.2586154080927371978759765625</LongitudeDegrees>
            </Position>
            <AltitudeMeters>2785</AltitudeMeters>
            <DistanceMeters>NAN</DistanceMeters>
          </Trackpoint>
          <Trackpoint>
            <Time>2022-08-23T11:00:54.000Z</Time>
            <Position>
              <LatitudeDegrees>42.7737222611904144287109375</LatitudeDegrees>
              <LongitudeDegrees>-0.258613564074039459228515625</LongitudeDegrees>
            </Position>
            <AltitudeMeters>2785</AltitudeMeters>
            <DistanceMeters>NAN</DistanceMeters>
          </Trackpoint>
          <Trackpoint>
            <Time>2022-08-23T11:00:55.000Z</Time>
            <Position>
              <LatitudeDegrees>42.77372284792363643646240234375</LatitudeDegrees>
              <LongitudeDegrees>-0.258612222969532012939453125</LongitudeDegrees>
            </Position>
            <AltitudeMeters>2785</AltitudeMeters>
            <DistanceMeters>NAN</DistanceMeters>
          </Trackpoint>
          <Trackpoint>
            <Time>2022-08-23T11:00:56.000Z</Time>
            <Position>
              <LatitudeDegrees>42.7737284637987613677978515625</LatitudeDegrees>
              <LongitudeDegrees>-0.2586092054843902587890625</LongitudeDegrees>
            </Position>
            <AltitudeMeters>2785.199951171875</AltitudeMeters>
            <DistanceMeters>NAN</DistanceMeters>
          </Trackpoint>
          <Trackpoint>
            <Time>2022-08-23T11:01:03.000Z</Time>
            <Position>
              <LatitudeDegrees>42.77372703887522220611572265625</LatitudeDegrees>
              <LongitudeDegrees>-0.25860727764666080474853515625</LongitudeDegrees>
            </Position>
            <AltitudeMeters>2785</AltitudeMeters>
            <DistanceMeters>NAN</DistanceMeters>
          </Trackpoint>
          <Trackpoint>
            <Time>2022-08-23T11:01:04.000Z</Time>
            <Position>
              <LatitudeDegrees>42.7737267874181270599365234375</LatitudeDegrees>
              <LongitudeDegrees>-0.2586066909134387969970703125</LongitudeDegrees>
            </Position>
            <AltitudeMeters>2785</AltitudeMeters>
            <DistanceMeters>NAN</DistanceMeters>
          </Trackpoint>
          <Trackpoint>
            <Time>2022-08-23T11:01:05.000Z</Time>
            <Position>
              <LatitudeDegrees>42.7737271226942539215087890625</LatitudeDegrees>
              <LongitudeDegrees>-0.25860643945634365081787109375</LongitudeDegrees>
            </Position>
            <AltitudeMeters>2785</AltitudeMeters>
            <DistanceMeters>NAN</DistanceMeters>
          </Trackpoint>
          <Trackpoint>
            <Time>2022-08-23T11:01:08.000Z</Time>
            <Position>
              <LatitudeDegrees>42.77372703887522220611572265625</LatitudeDegrees>
              <LongitudeDegrees>-0.258605182170867919921875</LongitudeDegrees>
            </Position>
            <AltitudeMeters>2785</AltitudeMeters>
            <DistanceMeters>NAN</DistanceMeters>
          </Trackpoint>
          <Trackpoint>
            <Time>2022-08-23T11:01:13.000Z</Time>
            <Position>
              <LatitudeDegrees>42.77372695505619049072265625</LatitudeDegrees>
              <LongitudeDegrees>-0.258604176342487335205078125</LongitudeDegrees>
            </Position>
            <AltitudeMeters>2785</AltitudeMeters>
            <DistanceMeters>NAN</DistanceMeters>
          </Trackpoint>
          <Trackpoint>
            <Time>2022-08-23T11:01:26.000Z</Time>
            <Position>
              <LatitudeDegrees>42.773725949227809906005859375</LatitudeDegrees>
              <LongitudeDegrees>-0.258612893521785736083984375</LongitudeDegrees>
            </Position>
            <AltitudeMeters>2785.199951171875</AltitudeMeters>
            <DistanceMeters>NAN</DistanceMeters>
          </Trackpoint>
          <Trackpoint>
            <Time>2022-08-23T11:01:33.000Z</Time>
            <Position>
              <LatitudeDegrees>42.77372653596103191375732421875</LatitudeDegrees>
              <LongitudeDegrees>-0.25861389935016632080078125</LongitudeDegrees>
            </Position>
            <AltitudeMeters>2785.199951171875</AltitudeMeters>
            <DistanceMeters>NAN</DistanceMeters>
          </Trackpoint>
          <Trackpoint>
            <Time>2022-08-23T11:01:39.000Z</Time>
            <Position>
              <LatitudeDegrees>42.77372737415134906768798828125</LatitudeDegrees>
              <LongitudeDegrees>-0.2586154080927371978759765625</LongitudeDegrees>
            </Position>
            <AltitudeMeters>2785.199951171875</AltitudeMeters>
            <DistanceMeters>NAN</DistanceMeters>
          </Trackpoint>
          <Trackpoint>
            <Time>2022-08-23T11:14:19.000Z</Time>
            <Position>
              <LatitudeDegrees>42.77366015128791332244873046875</LatitudeDegrees>
              <LongitudeDegrees>-0.25861633010208606719970703125</LongitudeDegrees>
            </Position>
            <AltitudeMeters>2781.800048828125</AltitudeMeters>
            <DistanceMeters>NAN</DistanceMeters>
          </Trackpoint>
          <Trackpoint>
            <Time>2022-08-23T11:14:20.000Z</Time>
            <Position>
              <LatitudeDegrees>42.7736587263643741607666015625</LatitudeDegrees>
              <LongitudeDegrees>-0.25861582718789577484130859375</LongitudeDegrees>
            </Position>
            <AltitudeMeters>2781.800048828125</AltitudeMeters>
            <DistanceMeters>NAN</DistanceMeters>
          </Trackpoint>
          <Trackpoint>
            <Time>2022-08-23T11:14:24.000Z</Time>
            <Position>
              <LatitudeDegrees>42.77367557398974895477294921875</LatitudeDegrees>
              <LongitudeDegrees>-0.2586516179144382476806640625</LongitudeDegrees>
            </Position>
            <AltitudeMeters>2783.199951171875</AltitudeMeters>
            <DistanceMeters>NAN</DistanceMeters>
          </Trackpoint>
          <Trackpoint>
            <Time>2022-08-23T11:14:26.000Z</Time>
            <Position>
              <LatitudeDegrees>42.77367758564651012420654296875</LatitudeDegrees>
              <LongitudeDegrees>-0.2586439065635204315185546875</LongitudeDegrees>
            </Position>
            <AltitudeMeters>2783.199951171875</AltitudeMeters>
            <DistanceMeters>NAN</DistanceMeters>
          </Trackpoint>
          <Trackpoint>
            <Time>2022-08-23T11:14:52.000Z</Time>
            <Position>
              <LatitudeDegrees>42.7737529389560222625732421875</LatitudeDegrees>
              <LongitudeDegrees>-0.258632004261016845703125</LongitudeDegrees>
            </Position>
            <AltitudeMeters>2787.199951171875</AltitudeMeters>
            <DistanceMeters>NAN</DistanceMeters>
          </Trackpoint>
          <Trackpoint>
            <Time>2022-08-23T11:15:09.000Z</Time>
            <Position>
              <LatitudeDegrees>42.77376073412597179412841796875</LatitudeDegrees>
              <LongitudeDegrees>-0.25855447165668010711669921875</LongitudeDegrees>
            </Position>
            <AltitudeMeters>2785.800048828125</AltitudeMeters>
            <DistanceMeters>NAN</DistanceMeters>
          </Trackpoint>
          <Trackpoint>
            <Time>2022-08-23T11:15:30.000Z</Time>
            <Position>
              <LatitudeDegrees>42.7737556211650371551513671875</LatitudeDegrees>
              <LongitudeDegrees>-0.2584866620600223541259765625</LongitudeDegrees>
            </Position>
            <AltitudeMeters>2785.800048828125</AltitudeMeters>
            <DistanceMeters>NAN</DistanceMeters>
          </Trackpoint>
          <Trackpoint>
            <Time>2022-08-23T11:16:09.000Z</Time>
            <Position>
              <LatitudeDegrees>42.77372670359909534454345703125</LatitudeDegrees>
              <LongitudeDegrees>-0.2582613565027713775634765625</LongitudeDegrees>
            </Position>
            <AltitudeMeters>2782.199951171875</AltitudeMeters>
            <DistanceMeters>NAN</DistanceMeters>
          </Trackpoint>
          <Trackpoint>
            <Time>2022-08-23T11:16:15.000Z</Time>
            <Position>
              <LatitudeDegrees>42.773694097995758056640625</LatitudeDegrees>
              <LongitudeDegrees>-0.25823176838457584381103515625</LongitudeDegrees>
            </Position>
            <AltitudeMeters>2779.199951171875</AltitudeMeters>
            <DistanceMeters>NAN</DistanceMeters>
          </Trackpoint>
          <Trackpoint>
            <Time>2022-08-23T11:16:17.000Z</Time>
            <Position>
              <LatitudeDegrees>42.7736902423202991485595703125</LatitudeDegrees>
              <LongitudeDegrees>-0.25823143310844898223876953125</LongitudeDegrees>
            </Position>
            <AltitudeMeters>2778.800048828125</AltitudeMeters>
            <DistanceMeters>NAN</DistanceMeters>
          </Trackpoint>
          <Trackpoint>
            <Time>2022-08-23T11:16:38.000Z</Time>
            <Position>
              <LatitudeDegrees>42.77357432059943675994873046875</LatitudeDegrees>
              <LongitudeDegrees>-0.25824115611612796783447265625</LongitudeDegrees>
            </Position>
            <AltitudeMeters>2770.60009765625</AltitudeMeters>
            <DistanceMeters>NAN</DistanceMeters>
          </Trackpoint>
          <Trackpoint>
            <Time>2022-08-23T11:16:42.000Z</Time>
            <Position>
              <LatitudeDegrees>42.77354054152965545654296875</LatitudeDegrees>
              <LongitudeDegrees>-0.25823294185101985931396484375</LongitudeDegrees>
            </Position>
            <AltitudeMeters>2768</AltitudeMeters>
            <DistanceMeters>NAN</DistanceMeters>
          </Trackpoint>
          <Trackpoint>
            <Time>2022-08-23T11:16:49.000Z</Time>
            <Position>
              <LatitudeDegrees>42.77348346076905727386474609375</LatitudeDegrees>
              <LongitudeDegrees>-0.2582271583378314971923828125</LongitudeDegrees>
            </Position>
            <AltitudeMeters>2763.800048828125</AltitudeMeters>
            <DistanceMeters>NAN</DistanceMeters>
          </Trackpoint>
          <Trackpoint>
            <Time>2022-08-23T11:16:57.000Z</Time>
            <Position>
              <LatitudeDegrees>42.773444652557373046875</LatitudeDegrees>
              <LongitudeDegrees>-0.2582284994423389434814453125</LongitudeDegrees>
            </Position>
            <AltitudeMeters>2761</AltitudeMeters>
            <DistanceMeters>NAN</DistanceMeters>
          </Trackpoint>
          <Trackpoint>
            <Time>2022-08-23T11:17:21.000Z</Time>
            <Position>
              <LatitudeDegrees>42.7733172476291656494140625</LatitudeDegrees>
              <LongitudeDegrees>-0.2581735141575336456298828125</LongitudeDegrees>
            </Position>
            <AltitudeMeters>2752</AltitudeMeters>
            <DistanceMeters>NAN</DistanceMeters>
          </Trackpoint>
          <Trackpoint>
            <Time>2022-08-23T11:17:35.000Z</Time>
            <Position>
              <LatitudeDegrees>42.773329652845859527587890625</LatitudeDegrees>
              <LongitudeDegrees>-0.2580249868333339691162109375</LongitudeDegrees>
            </Position>
            <AltitudeMeters>2746.800048828125</AltitudeMeters>
            <DistanceMeters>NAN</DistanceMeters>
          </Trackpoint>
          <Trackpoint>
            <Time>2022-08-23T11:17:42.000Z</Time>
            <Position>
              <LatitudeDegrees>42.77331548742949962615966796875</LatitudeDegrees>
              <LongitudeDegrees>-0.25797125883400440216064453125</LongitudeDegrees>
            </Position>
            <AltitudeMeters>2743.39990234375</AltitudeMeters>
            <DistanceMeters>NAN</DistanceMeters>
          </Trackpoint>
          <Trackpoint>
            <Time>2022-08-23T11:18:19.000Z</Time>
            <Position>
              <LatitudeDegrees>42.773257233202457427978515625</LatitudeDegrees>
              <LongitudeDegrees>-0.25781233794987201690673828125</LongitudeDegrees>
            </Position>
            <AltitudeMeters>2734.60009765625</AltitudeMeters>
            <DistanceMeters>NAN</DistanceMeters>
          </Trackpoint>
          <Trackpoint>
            <Time>2022-08-23T11:18:39.000Z</Time>
            <Position>
              <LatitudeDegrees>42.77323745191097259521484375</LatitudeDegrees>
              <LongitudeDegrees>-0.257661044597625732421875</LongitudeDegrees>
            </Position>
            <AltitudeMeters>2730</AltitudeMeters>
            <DistanceMeters>NAN</DistanceMeters>
          </Trackpoint>
          <Trackpoint>
            <Time>2022-08-23T11:19:12.000Z</Time>
            <Position>
              <LatitudeDegrees>42.7730827219784259796142578125</LatitudeDegrees>
              <LongitudeDegrees>-0.25762659497559070587158203125</LongitudeDegrees>
            </Position>
            <AltitudeMeters>2718</AltitudeMeters>
            <DistanceMeters>NAN</DistanceMeters>
          </Trackpoint>
          <Trackpoint>
            <Time>2022-08-23T11:19:29.000Z</Time>
            <Position>
              <LatitudeDegrees>42.7730558998882770538330078125</LatitudeDegrees>
              <LongitudeDegrees>-0.2575026266276836395263671875</LongitudeDegrees>
            </Position>
            <AltitudeMeters>2712.60009765625</AltitudeMeters>
            <DistanceMeters>NAN</DistanceMeters>
          </Trackpoint>
          <Trackpoint>
            <Time>2022-08-23T11:19:36.000Z</Time>
            <Position>
              <LatitudeDegrees>42.77300653047859668731689453125</LatitudeDegrees>
              <LongitudeDegrees>-0.25750220753252506256103515625</LongitudeDegrees>
            </Position>
            <AltitudeMeters>2709.800048828125</AltitudeMeters>
            <DistanceMeters>NAN</DistanceMeters>
          </Trackpoint>
          <Trackpoint>
            <Time>2022-08-23T11:20:20.000Z</Time>
            <Position>
              <LatitudeDegrees>42.77290192432701587677001953125</LatitudeDegrees>
              <LongitudeDegrees>-0.25740648619830608367919921875</LongitudeDegrees>
            </Position>
            <AltitudeMeters>2702.800048828125</AltitudeMeters>
            <DistanceMeters>NAN</DistanceMeters>
          </Trackpoint>
          <Trackpoint>
            <Time>2022-08-23T11:20:28.000Z</Time>
            <Position>
              <LatitudeDegrees>42.77294567786157131195068359375</LatitudeDegrees>
              <LongitudeDegrees>-0.257356949150562286376953125</LongitudeDegrees>
            </Position>
            <AltitudeMeters>2705.60009765625</AltitudeMeters>
            <DistanceMeters>NAN</DistanceMeters>
          </Trackpoint>
          <Trackpoint>
            <Time>2022-08-23T11:20:31.000Z</Time>
            <Position>
              <LatitudeDegrees>42.772957496345043182373046875</LatitudeDegrees>
              <LongitudeDegrees>-0.25732241570949554443359375</LongitudeDegrees>
            </Position>
            <AltitudeMeters>2706.39990234375</AltitudeMeters>
            <DistanceMeters>NAN</DistanceMeters>
          </Trackpoint>
          <Trackpoint>
            <Time>2022-08-23T11:21:06.000Z</Time>
            <Position>
              <LatitudeDegrees>42.77284962125122547149658203125</LatitudeDegrees>
              <LongitudeDegrees>-0.257146060466766357421875</LongitudeDegrees>
            </Position>
            <AltitudeMeters>2697.60009765625</AltitudeMeters>
            <DistanceMeters>NAN</DistanceMeters>
          </Trackpoint>
          <Trackpoint>
            <Time>2022-08-23T11:21:35.000Z</Time>
            <Position>
              <LatitudeDegrees>42.77281575836241245269775390625</LatitudeDegrees>
              <LongitudeDegrees>-0.25692452676594257354736328125</LongitudeDegrees>
            </Position>
            <AltitudeMeters>2691.199951171875</AltitudeMeters>
            <DistanceMeters>NAN</DistanceMeters>
          </Trackpoint>
          <Trackpoint>
            <Time>2022-08-23T11:21:49.000Z</Time>
            <Position>
              <LatitudeDegrees>42.7727813087403774261474609375</LatitudeDegrees>
              <LongitudeDegrees>-0.2568464912474155426025390625</LongitudeDegrees>
            </Position>
            <AltitudeMeters>2686</AltitudeMeters>
            <DistanceMeters>NAN</DistanceMeters>
          </Trackpoint>
          <Trackpoint>
            <Time>2022-08-23T11:22:35.000Z</Time>
            <Position>
              <LatitudeDegrees>42.77262381277978420257568359375</LatitudeDegrees>
              <LongitudeDegrees>-0.256772898137569427490234375</LongitudeDegrees>
            </Position>
            <AltitudeMeters>2669.60009765625</AltitudeMeters>
            <DistanceMeters>NAN</DistanceMeters>
          </Trackpoint>
          <Trackpoint>
            <Time>2022-08-23T11:22:41.000Z</Time>
            <Position>
              <LatitudeDegrees>42.77261962182819843292236328125</LatitudeDegrees>
              <LongitudeDegrees>-0.25675102137029170989990234375</LongitudeDegrees>
            </Position>
            <AltitudeMeters>2668.60009765625</AltitudeMeters>
            <DistanceMeters>NAN</DistanceMeters>
          </Trackpoint>
          <Trackpoint>
            <Time>2022-08-23T11:23:00.000Z</Time>
            <Position>
              <LatitudeDegrees>42.77260671369731426239013671875</LatitudeDegrees>
              <LongitudeDegrees>-0.25660358369350433349609375</LongitudeDegrees>
            </Position>
            <AltitudeMeters>2663.39990234375</AltitudeMeters>
            <DistanceMeters>NAN</DistanceMeters>
          </Trackpoint>
          <Trackpoint>
            <Time>2022-08-23T11:23:27.000Z</Time>
            <Position>
              <LatitudeDegrees>42.77255189605057239532470703125</LatitudeDegrees>
              <LongitudeDegrees>-0.2563915215432643890380859375</LongitudeDegrees>
            </Position>
            <AltitudeMeters>2659.60009765625</AltitudeMeters>
            <DistanceMeters>NAN</DistanceMeters>
          </Trackpoint>
          <Trackpoint>
            <Time>2022-08-23T11:23:30.000Z</Time>
            <Position>
              <LatitudeDegrees>42.77254351414740085601806640625</LatitudeDegrees>
              <LongitudeDegrees>-0.25638741441071033477783203125</LongitudeDegrees>
            </Position>
            <AltitudeMeters>2659</AltitudeMeters>
            <DistanceMeters>NAN</DistanceMeters>
          </Trackpoint>
          <Trackpoint>
            <Time>2022-08-23T11:23:39.000Z</Time>
            <Position>
              <LatitudeDegrees>42.7724842540919780731201171875</LatitudeDegrees>
              <LongitudeDegrees>-0.25638422928750514984130859375</LongitudeDegrees>
            </Position>
            <AltitudeMeters>2654.60009765625</AltitudeMeters>
            <DistanceMeters>NAN</DistanceMeters>
          </Trackpoint>
          <Trackpoint>
            <Time>2022-08-23T11:23:42.000Z</Time>
            <Position>
              <LatitudeDegrees>42.77246455661952495574951171875</LatitudeDegrees>
              <LongitudeDegrees>-0.25639177300035953521728515625</LongitudeDegrees>
            </Position>
            <AltitudeMeters>2653</AltitudeMeters>
            <DistanceMeters>NAN</DistanceMeters>
          </Trackpoint>
          <Trackpoint>
            <Time>2022-08-23T11:24:02.000Z</Time>
            <Position>
              <LatitudeDegrees>42.7723722718656063079833984375</LatitudeDegrees>
              <LongitudeDegrees>-0.25630719959735870361328125</LongitudeDegrees>
            </Position>
            <AltitudeMeters>2646.60009765625</AltitudeMeters>
            <DistanceMeters>NAN</DistanceMeters>
          </Trackpoint>
          <Trackpoint>
            <Time>2022-08-23T11:24:31.000Z</Time>
            <Position>
              <LatitudeDegrees>42.77224528603255748748779296875</LatitudeDegrees>
              <LongitudeDegrees>-0.2562285773456096649169921875</LongitudeDegrees>
            </Position>
            <AltitudeMeters>2637.39990234375</AltitudeMeters>
            <DistanceMeters>NAN</DistanceMeters>
          </Trackpoint>
          <Trackpoint>
            <Time>2022-08-23T11:24:57.000Z</Time>
            <Position>
              <LatitudeDegrees>42.7721848525106906890869140625</LatitudeDegrees>
              <LongitudeDegrees>-0.25621868669986724853515625</LongitudeDegrees>
            </Position>
            <AltitudeMeters>2633.800048828125</AltitudeMeters>
            <DistanceMeters>NAN</DistanceMeters>
          </Trackpoint>
          <Trackpoint>
            <Time>2022-08-23T11:25:20.000Z</Time>
            <Position>
              <LatitudeDegrees>42.77217236347496509552001953125</LatitudeDegrees>
              <LongitudeDegrees>-0.25609220378100872039794921875</LongitudeDegrees>
            </Position>
            <AltitudeMeters>2633</AltitudeMeters>
            <DistanceMeters>NAN</DistanceMeters>
          </Trackpoint>
          <Trackpoint>
            <Time>2022-08-23T11:25:42.000Z</Time>
            <Position>
              <LatitudeDegrees>42.772101201117038726806640625</LatitudeDegrees>
              <LongitudeDegrees>-0.2558706700801849365234375</LongitudeDegrees>
            </Position>
            <AltitudeMeters>2628.199951171875</AltitudeMeters>
            <DistanceMeters>NAN</DistanceMeters>
          </Trackpoint>
          <Trackpoint>
            <Time>2022-08-23T11:25:59.000Z</Time>
            <Position>
              <LatitudeDegrees>42.7720172144472599029541015625</LatitudeDegrees>
              <LongitudeDegrees>-0.255766399204730987548828125</LongitudeDegrees>
            </Position>
            <AltitudeMeters>2623.800048828125</AltitudeMeters>
            <DistanceMeters>NAN</DistanceMeters>
          </Trackpoint>
          <Trackpoint>
            <Time>2022-08-23T11:26:26.000Z</Time>
            <Position>
              <LatitudeDegrees>42.77212039567530155181884765625</LatitudeDegrees>
              <LongitudeDegrees>-0.255559869110584259033203125</LongitudeDegrees>
            </Position>
            <AltitudeMeters>2622</AltitudeMeters>
            <DistanceMeters>NAN</DistanceMeters>
          </Trackpoint>
          <Trackpoint>
            <Time>2022-08-23T11:26:52.000Z</Time>
            <Position>
              <LatitudeDegrees>42.7720876224339008331298828125</LatitudeDegrees>
              <LongitudeDegrees>-0.255381502211093902587890625</LongitudeDegrees>
            </Position>
            <AltitudeMeters>2615.39990234375</AltitudeMeters>
            <DistanceMeters>NAN</DistanceMeters>
          </Trackpoint>
          <Trackpoint>
            <Time>2022-08-23T11:27:20.000Z</Time>
            <Position>
              <LatitudeDegrees>42.77192392386496067047119140625</LatitudeDegrees>
              <LongitudeDegrees>-0.255329199135303497314453125</LongitudeDegrees>
            </Position>
            <AltitudeMeters>2607</AltitudeMeters>
            <DistanceMeters>NAN</DistanceMeters>
          </Trackpoint>
          <Trackpoint>
            <Time>2022-08-23T11:27:48.000Z</Time>
            <Position>
              <LatitudeDegrees>42.771805487573146820068359375</LatitudeDegrees>
              <LongitudeDegrees>-0.25523875840008258819580078125</LongitudeDegrees>
            </Position>
            <AltitudeMeters>2599.800048828125</AltitudeMeters>
            <DistanceMeters>NAN</DistanceMeters>
          </Trackpoint>
          <Trackpoint>
            <Time>2022-08-23T11:28:23.000Z</Time>
            <Position>
              <LatitudeDegrees>42.7717588841915130615234375</LatitudeDegrees>
              <LongitudeDegrees>-0.25504781864583492279052734375</LongitudeDegrees>
            </Position>
            <AltitudeMeters>2592.39990234375</AltitudeMeters>
            <DistanceMeters>NAN</DistanceMeters>
          </Trackpoint>
          <Trackpoint>
            <Time>2022-08-23T11:28:48.000Z</Time>
            <Position>
              <LatitudeDegrees>42.77158252894878387451171875</LatitudeDegrees>
              <LongitudeDegrees>-0.25510154664516448974609375</LongitudeDegrees>
            </Position>
            <AltitudeMeters>2579</AltitudeMeters>
            <DistanceMeters>NAN</DistanceMeters>
          </Trackpoint>
          <Trackpoint>
            <Time>2022-08-23T11:29:23.000Z</Time>
            <Position>
              <LatitudeDegrees>42.77158965356647968292236328125</LatitudeDegrees>
              <LongitudeDegrees>-0.254947654902935028076171875</LongitudeDegrees>
            </Position>
            <AltitudeMeters>2572.800048828125</AltitudeMeters>
            <DistanceMeters>NAN</DistanceMeters>
          </Trackpoint>
          <Trackpoint>
            <Time>2022-08-23T11:29:45.000Z</Time>
            <Position>
              <LatitudeDegrees>42.77155159972608089447021484375</LatitudeDegrees>
              <LongitudeDegrees>-0.2547064237296581268310546875</LongitudeDegrees>
            </Position>
            <AltitudeMeters>2561.39990234375</AltitudeMeters>
            <DistanceMeters>NAN</DistanceMeters>
          </Trackpoint>
          <Trackpoint>
            <Time>2022-08-23T11:30:11.000Z</Time>
            <Position>
              <LatitudeDegrees>42.771526537835597991943359375</LatitudeDegrees>
              <LongitudeDegrees>-0.2544620074331760406494140625</LongitudeDegrees>
            </Position>
            <AltitudeMeters>2551.800048828125</AltitudeMeters>
            <DistanceMeters>NAN</DistanceMeters>
          </Trackpoint>
          <Trackpoint>
            <Time>2022-08-23T11:30:49.000Z</Time>
            <Position>
              <LatitudeDegrees>42.77148253284394741058349609375</LatitudeDegrees>
              <LongitudeDegrees>-0.2542621828615665435791015625</LongitudeDegrees>
            </Position>
            <AltitudeMeters>2543.39990234375</AltitudeMeters>
            <DistanceMeters>NAN</DistanceMeters>
          </Trackpoint>
          <Trackpoint>
            <Time>2022-08-23T11:30:54.000Z</Time>
            <Position>
              <LatitudeDegrees>42.77148571796715259552001953125</LatitudeDegrees>
              <LongitudeDegrees>-0.25419336743652820587158203125</LongitudeDegrees>
            </Position>
            <AltitudeMeters>2542.199951171875</AltitudeMeters>
            <DistanceMeters>NAN</DistanceMeters>
          </Trackpoint>
          <Trackpoint>
            <Time>2022-08-23T11:31:14.000Z</Time>
            <Position>
              <LatitudeDegrees>42.77147146873176097869873046875</LatitudeDegrees>
              <LongitudeDegrees>-0.25395900942385196685791015625</LongitudeDegrees>
            </Position>
            <AltitudeMeters>2536.800048828125</AltitudeMeters>
            <DistanceMeters>NAN</DistanceMeters>
          </Trackpoint>
          <Trackpoint>
            <Time>2022-08-23T11:31:16.000Z</Time>
            <Position>
              <LatitudeDegrees>42.77147247456014156341552734375</LatitudeDegrees>
              <LongitudeDegrees>-0.25395356118679046630859375</LongitudeDegrees>
            </Position>
            <AltitudeMeters>2536.800048828125</AltitudeMeters>
            <DistanceMeters>NAN</DistanceMeters>
          </Trackpoint>
          <Trackpoint>
            <Time>2022-08-23T11:31:38.000Z</Time>
            <Position>
              <LatitudeDegrees>42.771525196731090545654296875</LatitudeDegrees>
              <LongitudeDegrees>-0.25371710769832134246826171875</LongitudeDegrees>
            </Position>
            <AltitudeMeters>2537</AltitudeMeters>
            <DistanceMeters>NAN</DistanceMeters>
          </Trackpoint>
          <Trackpoint>
            <Time>2022-08-23T11:31:58.000Z</Time>
            <Position>
              <LatitudeDegrees>42.7715374343097209930419921875</LatitudeDegrees>
              <LongitudeDegrees>-0.253516696393489837646484375</LongitudeDegrees>
            </Position>
            <AltitudeMeters>2536.60009765625</AltitudeMeters>
            <DistanceMeters>NAN</DistanceMeters>
          </Trackpoint>
          <Trackpoint>
            <Time>2022-08-23T11:32:23.000Z</Time>
            <Position>
              <LatitudeDegrees>42.77152678929269313812255859375</LatitudeDegrees>
              <LongitudeDegrees>-0.253271944820880889892578125</LongitudeDegrees>
            </Position>
            <AltitudeMeters>2532</AltitudeMeters>
            <DistanceMeters>NAN</DistanceMeters>
          </Trackpoint>
          <Trackpoint>
            <Time>2022-08-23T11:32:39.000Z</Time>
            <Position>
              <LatitudeDegrees>42.7715669386088848114013671875</LatitudeDegrees>
              <LongitudeDegrees>-0.2530333958566188812255859375</LongitudeDegrees>
            </Position>
            <AltitudeMeters>2529.60009765625</AltitudeMeters>
            <DistanceMeters>NAN</DistanceMeters>
          </Trackpoint>
          <Trackpoint>
            <Time>2022-08-23T11:32:55.000Z</Time>
            <Position>
              <LatitudeDegrees>42.77150382287800312042236328125</LatitudeDegrees>
              <LongitudeDegrees>-0.252803228795528411865234375</LongitudeDegrees>
            </Position>
            <AltitudeMeters>2522</AltitudeMeters>
            <DistanceMeters>NAN</DistanceMeters>
          </Trackpoint>
          <Trackpoint>
            <Time>2022-08-23T11:33:05.000Z</Time>
            <Position>
              <LatitudeDegrees>42.77150348760187625885009765625</LatitudeDegrees>
              <LongitudeDegrees>-0.25264003314077854156494140625</LongitudeDegrees>
            </Position>
            <AltitudeMeters>2519.60009765625</AltitudeMeters>
            <DistanceMeters>NAN</DistanceMeters>
          </Trackpoint>
          <Trackpoint>
            <Time>2022-08-23T11:33:18.000Z</Time>
            <Position>
              <LatitudeDegrees>42.77152729220688343048095703125</LatitudeDegrees>
              <LongitudeDegrees>-0.25249301455914974212646484375</LongitudeDegrees>
            </Position>
            <AltitudeMeters>2519.199951171875</AltitudeMeters>
            <DistanceMeters>NAN</DistanceMeters>
          </Trackpoint>
          <Trackpoint>
            <Time>2022-08-23T11:33:38.000Z</Time>
            <Position>
              <LatitudeDegrees>42.7714304812252521514892578125</LatitudeDegrees>
              <LongitudeDegrees>-0.25241263210773468017578125</LongitudeDegrees>
            </Position>
            <AltitudeMeters>2513</AltitudeMeters>
            <DistanceMeters>NAN</DistanceMeters>
          </Trackpoint>
          <Trackpoint>
            <Time>2022-08-23T11:33:44.000Z</Time>
            <Position>
              <LatitudeDegrees>42.77139133773744106292724609375</LatitudeDegrees>
              <LongitudeDegrees>-0.2523786015808582305908203125</LongitudeDegrees>
            </Position>
            <AltitudeMeters>2510.60009765625</AltitudeMeters>
            <DistanceMeters>NAN</DistanceMeters>
          </Trackpoint>
          <Trackpoint>
            <Time>2022-08-23T11:33:59.000Z</Time>
            <Position>
              <LatitudeDegrees>42.77131271548569202423095703125</LatitudeDegrees>
              <LongitudeDegrees>-0.2522577345371246337890625</LongitudeDegrees>
            </Position>
            <AltitudeMeters>2504.800048828125</AltitudeMeters>
            <DistanceMeters>NAN</DistanceMeters>
          </Trackpoint>
          <Trackpoint>
            <Time>2022-08-23T11:34:22.000Z</Time>
            <Position>
              <LatitudeDegrees>42.7712527848780155181884765625</LatitudeDegrees>
              <LongitudeDegrees>-0.25209479033946990966796875</LongitudeDegrees>
            </Position>
            <AltitudeMeters>2499.199951171875</AltitudeMeters>
            <DistanceMeters>NAN</DistanceMeters>
          </Trackpoint>
          <Trackpoint>
            <Time>2022-08-23T11:34:44.000Z</Time>
            <Position>
              <LatitudeDegrees>42.77120375074446201324462890625</LatitudeDegrees>
              <LongitudeDegrees>-0.25186546146869659423828125</LongitudeDegrees>
            </Position>
            <AltitudeMeters>2493.60009765625</AltitudeMeters>
            <DistanceMeters>NAN</DistanceMeters>
          </Trackpoint>
          <Trackpoint>
            <Time>2022-08-23T11:34:49.000Z</Time>
            <Position>
              <LatitudeDegrees>42.77120123617351055145263671875</LatitudeDegrees>
              <LongitudeDegrees>-0.2518119849264621734619140625</LongitudeDegrees>
            </Position>
            <AltitudeMeters>2492.39990234375</AltitudeMeters>
            <DistanceMeters>NAN</DistanceMeters>
          </Trackpoint>
          <Trackpoint>
            <Time>2022-08-23T11:35:14.000Z</Time>
            <Position>
              <LatitudeDegrees>42.77120626531541347503662109375</LatitudeDegrees>
              <LongitudeDegrees>-0.25157134048640727996826171875</LongitudeDegrees>
            </Position>
            <AltitudeMeters>2487.800048828125</AltitudeMeters>
            <DistanceMeters>NAN</DistanceMeters>
          </Trackpoint>
          <Trackpoint>
            <Time>2022-08-23T11:35:43.000Z</Time>
            <Position>
              <LatitudeDegrees>42.77116536162793636322021484375</LatitudeDegrees>
              <LongitudeDegrees>-0.25133974850177764892578125</LongitudeDegrees>
            </Position>
            <AltitudeMeters>2478.199951171875</AltitudeMeters>
            <DistanceMeters>NAN</DistanceMeters>
          </Trackpoint>
          <Trackpoint>
            <Time>2022-08-23T11:36:08.000Z</Time>
            <Position>
              <LatitudeDegrees>42.77108003385365009307861328125</LatitudeDegrees>
              <LongitudeDegrees>-0.25114704854786396026611328125</LongitudeDegrees>
            </Position>
            <AltitudeMeters>2471.39990234375</AltitudeMeters>
            <DistanceMeters>NAN</DistanceMeters>
          </Trackpoint>
          <Trackpoint>
            <Time>2022-08-23T11:36:13.000Z</Time>
            <Position>
              <LatitudeDegrees>42.77108523063361644744873046875</LatitudeDegrees>
              <LongitudeDegrees>-0.25109767913818359375</LongitudeDegrees>
            </Position>
            <AltitudeMeters>2471.39990234375</AltitudeMeters>
            <DistanceMeters>NAN</DistanceMeters>
          </Trackpoint>
          <Trackpoint>
            <Time>2022-08-23T11:36:17.000Z</Time>
            <Position>
              <LatitudeDegrees>42.77107114903628826141357421875</LatitudeDegrees>
              <LongitudeDegrees>-0.251059122383594512939453125</LongitudeDegrees>
            </Position>
            <AltitudeMeters>2470.39990234375</AltitudeMeters>
            <DistanceMeters>NAN</DistanceMeters>
          </Trackpoint>
          <Trackpoint>
            <Time>2022-08-23T11:36:20.000Z</Time>
            <Position>
              <LatitudeDegrees>42.7710546366870403289794921875</LatitudeDegrees>
              <LongitudeDegrees>-0.2510271035134792327880859375</LongitudeDegrees>
            </Position>
            <AltitudeMeters>2469.199951171875</AltitudeMeters>
            <DistanceMeters>NAN</DistanceMeters>
          </Trackpoint>
          <Trackpoint>
            <Time>2022-08-23T11:36:23.000Z</Time>
            <Position>
              <LatitudeDegrees>42.77104013599455356597900390625</LatitudeDegrees>
              <LongitudeDegrees>-0.2510086633265018463134765625</LongitudeDegrees>
            </Position>
            <AltitudeMeters>2468.199951171875</AltitudeMeters>
            <DistanceMeters>NAN</DistanceMeters>
          </Trackpoint>
          <Trackpoint>
            <Time>2022-08-23T11:36:30.000Z</Time>
            <Position>
              <LatitudeDegrees>42.77102001942694187164306640625</LatitudeDegrees>
              <LongitudeDegrees>-0.250941775739192962646484375</LongitudeDegrees>
            </Position>
            <AltitudeMeters>2466.60009765625</AltitudeMeters>
            <DistanceMeters>NAN</DistanceMeters>
          </Trackpoint>
          <Trackpoint>
            <Time>2022-08-23T11:36:31.000Z</Time>
            <Position>
              <LatitudeDegrees>42.77101255953311920166015625</LatitudeDegrees>
              <LongitudeDegrees>-0.25093599222600460052490234375</LongitudeDegrees>
            </Position>
            <AltitudeMeters>2466</AltitudeMeters>
            <DistanceMeters>NAN</DistanceMeters>
          </Trackpoint>
          <Trackpoint>
            <Time>2022-08-23T11:36:54.000Z</Time>
            <Position>
              <LatitudeDegrees>42.77096453122794628143310546875</LatitudeDegrees>
              <LongitudeDegrees>-0.25077623315155506134033203125</LongitudeDegrees>
            </Position>
            <AltitudeMeters>2460.39990234375</AltitudeMeters>
            <DistanceMeters>NAN</DistanceMeters>
          </Trackpoint>
          <Trackpoint>
            <Time>2022-08-23T11:37:18.000Z</Time>
            <Position>
              <LatitudeDegrees>42.7710050158202648162841796875</LatitudeDegrees>
              <LongitudeDegrees>-0.25066374801099300384521484375</LongitudeDegrees>
            </Position>
            <AltitudeMeters>2460.800048828125</AltitudeMeters>
            <DistanceMeters>NAN</DistanceMeters>
          </Trackpoint>
          <Trackpoint>
            <Time>2022-08-23T11:37:45.000Z</Time>
            <Position>
              <LatitudeDegrees>42.77100778184831142425537109375</LatitudeDegrees>
              <LongitudeDegrees>-0.25042905472218990325927734375</LongitudeDegrees>
            </Position>
            <AltitudeMeters>2455.800048828125</AltitudeMeters>
            <DistanceMeters>NAN</DistanceMeters>
          </Trackpoint>
          <Trackpoint>
            <Time>2022-08-23T11:38:10.000Z</Time>
            <Position>
              <LatitudeDegrees>42.770976684987545013427734375</LatitudeDegrees>
              <LongitudeDegrees>-0.25034196674823760986328125</LongitudeDegrees>
            </Position>
            <AltitudeMeters>2451.60009765625</AltitudeMeters>
            <DistanceMeters>NAN</DistanceMeters>
          </Trackpoint>
          <Trackpoint>
            <Time>2022-08-23T11:38:13.000Z</Time>
            <Position>
              <LatitudeDegrees>42.7709649503231048583984375</LatitudeDegrees>
              <LongitudeDegrees>-0.25034054182469844818115234375</LongitudeDegrees>
            </Position>
            <AltitudeMeters>2450.800048828125</AltitudeMeters>
            <DistanceMeters>NAN</DistanceMeters>
          </Trackpoint>
          <Trackpoint>
            <Time>2022-08-23T11:38:15.000Z</Time>
            <Position>
              <LatitudeDegrees>42.770955562591552734375</LatitudeDegrees>
              <LongitudeDegrees>-0.25033215992152690887451171875</LongitudeDegrees>
            </Position>
            <AltitudeMeters>2450.199951171875</AltitudeMeters>
            <DistanceMeters>NAN</DistanceMeters>
          </Trackpoint>
          <Trackpoint>
            <Time>2022-08-23T11:38:23.000Z</Time>
            <Position>
              <LatitudeDegrees>42.77088875882327556610107421875</LatitudeDegrees>
              <LongitudeDegrees>-0.2503131330013275146484375</LongitudeDegrees>
            </Position>
            <AltitudeMeters>2445.60009765625</AltitudeMeters>
            <DistanceMeters>NAN</DistanceMeters>
          </Trackpoint>
          <Trackpoint>
            <Time>2022-08-23T11:38:28.000Z</Time>
            <Position>
              <LatitudeDegrees>42.770865373313426971435546875</LatitudeDegrees>
              <LongitudeDegrees>-0.2503391169011592864990234375</LongitudeDegrees>
            </Position>
            <AltitudeMeters>2444.800048828125</AltitudeMeters>
            <DistanceMeters>NAN</DistanceMeters>
          </Trackpoint>
          <Trackpoint>
            <Time>2022-08-23T11:38:37.000Z</Time>
            <Position>
              <LatitudeDegrees>42.77085908688604831695556640625</LatitudeDegrees>
              <LongitudeDegrees>-0.25039938278496265411376953125</LongitudeDegrees>
            </Position>
            <AltitudeMeters>2446.199951171875</AltitudeMeters>
            <DistanceMeters>NAN</DistanceMeters>
          </Trackpoint>
          <Trackpoint>
            <Time>2022-08-23T11:39:08.000Z</Time>
            <Position>
              <LatitudeDegrees>42.7707906067371368408203125</LatitudeDegrees>
              <LongitudeDegrees>-0.2503645978868007659912109375</LongitudeDegrees>
            </Position>
            <AltitudeMeters>2440.39990234375</AltitudeMeters>
            <DistanceMeters>NAN</DistanceMeters>
          </Trackpoint>
          <Trackpoint>
            <Time>2022-08-23T11:39:56.000Z</Time>
            <Position>
              <LatitudeDegrees>42.77070737443864345550537109375</LatitudeDegrees>
              <LongitudeDegrees>-0.250193774700164794921875</LongitudeDegrees>
            </Position>
            <AltitudeMeters>2431.199951171875</AltitudeMeters>
            <DistanceMeters>NAN</DistanceMeters>
          </Trackpoint>
          <Trackpoint>
            <Time>2022-08-23T11:40:13.000Z</Time>
            <Position>
              <LatitudeDegrees>42.77063931338489055633544921875</LatitudeDegrees>
              <LongitudeDegrees>-0.250125713646411895751953125</LongitudeDegrees>
            </Position>
            <AltitudeMeters>2425.60009765625</AltitudeMeters>
            <DistanceMeters>NAN</DistanceMeters>
          </Trackpoint>
          <Trackpoint>
            <Time>2022-08-23T11:40:45.000Z</Time>
            <Position>
              <LatitudeDegrees>42.77051241137087345123291015625</LatitudeDegrees>
              <LongitudeDegrees>-0.2500440739095211029052734375</LongitudeDegrees>
            </Position>
            <AltitudeMeters>2416.60009765625</AltitudeMeters>
            <DistanceMeters>NAN</DistanceMeters>
          </Trackpoint>
          <Trackpoint>
            <Time>2022-08-23T11:40:53.000Z</Time>
            <Position>
              <LatitudeDegrees>42.77045323513448238372802734375</LatitudeDegrees>
              <LongitudeDegrees>-0.25002839975059032440185546875</LongitudeDegrees>
            </Position>
            <AltitudeMeters>2412.800048828125</AltitudeMeters>
            <DistanceMeters>NAN</DistanceMeters>
          </Trackpoint>
          <Trackpoint>
            <Time>2022-08-23T11:41:10.000Z</Time>
            <Position>
              <LatitudeDegrees>42.77041601948440074920654296875</LatitudeDegrees>
              <LongitudeDegrees>-0.249853469431400299072265625</LongitudeDegrees>
            </Position>
            <AltitudeMeters>2407.60009765625</AltitudeMeters>
            <DistanceMeters>NAN</DistanceMeters>
          </Trackpoint>
          <Trackpoint>
            <Time>2022-08-23T11:41:41.000Z</Time>
            <Position>
              <LatitudeDegrees>42.77028811164200305938720703125</LatitudeDegrees>
              <LongitudeDegrees>-0.24982564151287078857421875</LongitudeDegrees>
            </Position>
            <AltitudeMeters>2399.800048828125</AltitudeMeters>
            <DistanceMeters>NAN</DistanceMeters>
          </Trackpoint>
          <Trackpoint>
            <Time>2022-08-23T11:42:14.000Z</Time>
            <Position>
              <LatitudeDegrees>42.770167328417301177978515625</LatitudeDegrees>
              <LongitudeDegrees>-0.24988741613924503326416015625</LongitudeDegrees>
            </Position>
            <AltitudeMeters>2390.800048828125</AltitudeMeters>
            <DistanceMeters>NAN</DistanceMeters>
          </Trackpoint>
          <Trackpoint>
            <Time>2022-08-23T11:42:54.000Z</Time>
            <Position>
              <LatitudeDegrees>42.7700243331491947174072265625</LatitudeDegrees>
              <LongitudeDegrees>-0.24984969757497310638427734375</LongitudeDegrees>
            </Position>
            <AltitudeMeters>2378</AltitudeMeters>
            <DistanceMeters>NAN</DistanceMeters>
          </Trackpoint>
          <Trackpoint>
            <Time>2022-08-23T11:43:34.000Z</Time>
            <Position>
              <LatitudeDegrees>42.7699135243892669677734375</LatitudeDegrees>
              <LongitudeDegrees>-0.24975992739200592041015625</LongitudeDegrees>
            </Position>
            <AltitudeMeters>2366.199951171875</AltitudeMeters>
            <DistanceMeters>NAN</DistanceMeters>
          </Trackpoint>
          <Trackpoint>
            <Time>2022-08-23T11:44:04.000Z</Time>
            <Position>
              <LatitudeDegrees>42.769863568246364593505859375</LatitudeDegrees>
              <LongitudeDegrees>-0.24954124353826045989990234375</LongitudeDegrees>
            </Position>
            <AltitudeMeters>2362.39990234375</AltitudeMeters>
            <DistanceMeters>NAN</DistanceMeters>
          </Trackpoint>
          <Trackpoint>
            <Time>2022-08-23T11:44:26.000Z</Time>
            <Position>
              <LatitudeDegrees>42.76978469453752040863037109375</LatitudeDegrees>
              <LongitudeDegrees>-0.24946027435362339019775390625</LongitudeDegrees>
            </Position>
            <AltitudeMeters>2354.800048828125</AltitudeMeters>
            <DistanceMeters>NAN</DistanceMeters>
          </Trackpoint>
          <Trackpoint>
            <Time>2022-08-23T11:44:52.000Z</Time>
            <Position>
              <LatitudeDegrees>42.769651003181934356689453125</LatitudeDegrees>
              <LongitudeDegrees>-0.2493171952664852142333984375</LongitudeDegrees>
            </Position>
            <AltitudeMeters>2340.39990234375</AltitudeMeters>
            <DistanceMeters>NAN</DistanceMeters>
          </Trackpoint>
          <Trackpoint>
            <Time>2022-08-23T11:44:59.000Z</Time>
            <Position>
              <LatitudeDegrees>42.76964840479195117950439453125</LatitudeDegrees>
              <LongitudeDegrees>-0.24926237761974334716796875</LongitudeDegrees>
            </Position>
            <AltitudeMeters>2338.800048828125</AltitudeMeters>
            <DistanceMeters>NAN</DistanceMeters>
          </Trackpoint>
          <Trackpoint>
            <Time>2022-08-23T11:45:16.000Z</Time>
            <Position>
              <LatitudeDegrees>42.7696008794009685516357421875</LatitudeDegrees>
              <LongitudeDegrees>-0.24913639761507511138916015625</LongitudeDegrees>
            </Position>
            <AltitudeMeters>2329.800048828125</AltitudeMeters>
            <DistanceMeters>NAN</DistanceMeters>
          </Trackpoint>
          <Trackpoint>
            <Time>2022-08-23T11:45:53.000Z</Time>
            <Position>
              <LatitudeDegrees>42.76944623328745365142822265625</LatitudeDegrees>
              <LongitudeDegrees>-0.2491557598114013671875</LongitudeDegrees>
            </Position>
            <AltitudeMeters>2316</AltitudeMeters>
            <DistanceMeters>NAN</DistanceMeters>
          </Trackpoint>
          <Trackpoint>
            <Time>2022-08-23T11:46:29.000Z</Time>
            <Position>
              <LatitudeDegrees>42.7693443931639194488525390625</LatitudeDegrees>
              <LongitudeDegrees>-0.24920244701206684112548828125</LongitudeDegrees>
            </Position>
            <AltitudeMeters>2310</AltitudeMeters>
            <DistanceMeters>NAN</DistanceMeters>
          </Trackpoint>
          <Trackpoint>
            <Time>2022-08-23T11:46:54.000Z</Time>
            <Position>
              <LatitudeDegrees>42.7692585624754428863525390625</LatitudeDegrees>
              <LongitudeDegrees>-0.24939858354628086090087890625</LongitudeDegrees>
            </Position>
            <AltitudeMeters>2306.800048828125</AltitudeMeters>
            <DistanceMeters>NAN</DistanceMeters>
          </Trackpoint>
          <Trackpoint>
            <Time>2022-08-23T11:47:04.000Z</Time>
            <Position>
              <LatitudeDegrees>42.76921371929347515106201171875</LatitudeDegrees>
              <LongitudeDegrees>-0.24936824105679988861083984375</LongitudeDegrees>
            </Position>
            <AltitudeMeters>2303.199951171875</AltitudeMeters>
            <DistanceMeters>NAN</DistanceMeters>
          </Trackpoint>
          <Trackpoint>
            <Time>2022-08-23T11:47:25.000Z</Time>
            <Position>
              <LatitudeDegrees>42.7691207639873027801513671875</LatitudeDegrees>
              <LongitudeDegrees>-0.24928291328251361846923828125</LongitudeDegrees>
            </Position>
            <AltitudeMeters>2296.60009765625</AltitudeMeters>
            <DistanceMeters>NAN</DistanceMeters>
          </Trackpoint>
          <Trackpoint>
            <Time>2022-08-23T11:47:28.000Z</Time>
            <Position>
              <LatitudeDegrees>42.76911481283605098724365234375</LatitudeDegrees>
              <LongitudeDegrees>-0.249248631298542022705078125</LongitudeDegrees>
            </Position>
            <AltitudeMeters>2295.800048828125</AltitudeMeters>
            <DistanceMeters>NAN</DistanceMeters>
          </Trackpoint>
          <Trackpoint>
            <Time>2022-08-23T11:47:29.000Z</Time>
            <Position>
              <LatitudeDegrees>42.76911229826509952545166015625</LatitudeDegrees>
              <LongitudeDegrees>-0.249236561357975006103515625</LongitudeDegrees>
            </Position>
            <AltitudeMeters>2295.60009765625</AltitudeMeters>
            <DistanceMeters>NAN</DistanceMeters>
          </Trackpoint>
          <Trackpoint>
            <Time>2022-08-23T11:47:30.000Z</Time>
            <Position>
              <LatitudeDegrees>42.7691137231886386871337890625</LatitudeDegrees>
              <LongitudeDegrees>-0.24922256357967853546142578125</LongitudeDegrees>
            </Position>
            <AltitudeMeters>2295.60009765625</AltitudeMeters>
            <DistanceMeters>NAN</DistanceMeters>
          </Trackpoint>
          <Trackpoint>
            <Time>2022-08-23T11:47:31.000Z</Time>
            <Position>
              <LatitudeDegrees>42.76911078952252864837646484375</LatitudeDegrees>
              <LongitudeDegrees>-0.24921518750488758087158203125</LongitudeDegrees>
            </Position>
            <AltitudeMeters>2295.60009765625</AltitudeMeters>
            <DistanceMeters>NAN</DistanceMeters>
          </Trackpoint>
          <Trackpoint>
            <Time>2022-08-23T11:47:32.000Z</Time>
            <Position>
              <LatitudeDegrees>42.7691043354570865631103515625</LatitudeDegrees>
              <LongitudeDegrees>-0.2492092363536357879638671875</LongitudeDegrees>
            </Position>
            <AltitudeMeters>2295.199951171875</AltitudeMeters>
            <DistanceMeters>NAN</DistanceMeters>
          </Trackpoint>
          <Trackpoint>
            <Time>2022-08-23T11:47:43.000Z</Time>
            <Position>
              <LatitudeDegrees>42.76903702877461910247802734375</LatitudeDegrees>
              <LongitudeDegrees>-0.24920077063143253326416015625</LongitudeDegrees>
            </Position>
            <AltitudeMeters>2291.60009765625</AltitudeMeters>
            <DistanceMeters>NAN</DistanceMeters>
          </Trackpoint>
          <Trackpoint>
            <Time>2022-08-23T11:47:54.000Z</Time>
            <Position>
              <LatitudeDegrees>42.7689638547599315643310546875</LatitudeDegrees>
              <LongitudeDegrees>-0.249178223311901092529296875</LongitudeDegrees>
            </Position>
            <AltitudeMeters>2287.800048828125</AltitudeMeters>
            <DistanceMeters>NAN</DistanceMeters>
          </Trackpoint>
          <Trackpoint>
            <Time>2022-08-23T11:48:03.000Z</Time>
            <Position>
              <LatitudeDegrees>42.768926806747913360595703125</LatitudeDegrees>
              <LongitudeDegrees>-0.24912826716899871826171875</LongitudeDegrees>
            </Position>
            <AltitudeMeters>2285.60009765625</AltitudeMeters>
            <DistanceMeters>NAN</DistanceMeters>
          </Trackpoint>
          <Trackpoint>
            <Time>2022-08-23T11:48:08.000Z</Time>
            <Position>
              <LatitudeDegrees>42.76890300214290618896484375</LatitudeDegrees>
              <LongitudeDegrees>-0.24909281171858310699462890625</LongitudeDegrees>
            </Position>
            <AltitudeMeters>2284.199951171875</AltitudeMeters>
            <DistanceMeters>NAN</DistanceMeters>
          </Trackpoint>
          <Trackpoint>
            <Time>2022-08-23T11:48:31.000Z</Time>
            <Position>
              <LatitudeDegrees>42.76876897551119327545166015625</LatitudeDegrees>
              <LongitudeDegrees>-0.24907864630222320556640625</LongitudeDegrees>
            </Position>
            <AltitudeMeters>2276</AltitudeMeters>
            <DistanceMeters>NAN</DistanceMeters>
          </Trackpoint>
          <Trackpoint>
            <Time>2022-08-23T11:48:33.000Z</Time>
            <Position>
              <LatitudeDegrees>42.76876394636929035186767578125</LatitudeDegrees>
              <LongitudeDegrees>-0.24908979423344135284423828125</LongitudeDegrees>
            </Position>
            <AltitudeMeters>2275.800048828125</AltitudeMeters>
            <DistanceMeters>NAN</DistanceMeters>
          </Trackpoint>
          <Trackpoint>
            <Time>2022-08-23T11:48:34.000Z</Time>
            <Position>
              <LatitudeDegrees>42.76876159943640232086181640625</LatitudeDegrees>
              <LongitudeDegrees>-0.2490851841866970062255859375</LongitudeDegrees>
            </Position>
            <AltitudeMeters>2275.60009765625</AltitudeMeters>
            <DistanceMeters>NAN</DistanceMeters>
          </Trackpoint>
          <Trackpoint>
            <Time>2022-08-23T11:48:39.000Z</Time>
            <Position>
              <LatitudeDegrees>42.76872932910919189453125</LatitudeDegrees>
              <LongitudeDegrees>-0.2490607090294361114501953125</LongitudeDegrees>
            </Position>
            <AltitudeMeters>2273.60009765625</AltitudeMeters>
            <DistanceMeters>NAN</DistanceMeters>
          </Trackpoint>
          <Trackpoint>
            <Time>2022-08-23T11:48:40.000Z</Time>
            <Position>
              <LatitudeDegrees>42.768716253340244293212890625</LatitudeDegrees>
              <LongitudeDegrees>-0.24905760772526264190673828125</LongitudeDegrees>
            </Position>
            <AltitudeMeters>2272.800048828125</AltitudeMeters>
            <DistanceMeters>NAN</DistanceMeters>
          </Trackpoint>
          <Trackpoint>
            <Time>2022-08-23T11:48:43.000Z</Time>
            <Position>
              <LatitudeDegrees>42.76870057918131351470947265625</LatitudeDegrees>
              <LongitudeDegrees>-0.2490607090294361114501953125</LongitudeDegrees>
            </Position>
            <AltitudeMeters>2271.800048828125</AltitudeMeters>
            <DistanceMeters>NAN</DistanceMeters>
          </Trackpoint>
          <Trackpoint>
            <Time>2022-08-23T11:48:47.000Z</Time>
            <Position>
              <LatitudeDegrees>42.76867660693824291229248046875</LatitudeDegrees>
              <LongitudeDegrees>-0.24906196631491184234619140625</LongitudeDegrees>
            </Position>
            <AltitudeMeters>2270.39990234375</AltitudeMeters>
            <DistanceMeters>NAN</DistanceMeters>
          </Trackpoint>
          <Trackpoint>
            <Time>2022-08-23T11:48:51.000Z</Time>
            <Position>
              <LatitudeDegrees>42.7686483599245548248291015625</LatitudeDegrees>
              <LongitudeDegrees>-0.2490484714508056640625</LongitudeDegrees>
            </Position>
            <AltitudeMeters>2268.60009765625</AltitudeMeters>
            <DistanceMeters>NAN</DistanceMeters>
          </Trackpoint>
          <Trackpoint>
            <Time>2022-08-23T11:49:11.000Z</Time>
            <Position>
              <LatitudeDegrees>42.76850662194192409515380859375</LatitudeDegrees>
              <LongitudeDegrees>-0.24889416061341762542724609375</LongitudeDegrees>
            </Position>
            <AltitudeMeters>2260.800048828125</AltitudeMeters>
            <DistanceMeters>NAN</DistanceMeters>
          </Trackpoint>
          <Trackpoint>
            <Time>2022-08-23T11:49:25.000Z</Time>
            <Position>
              <LatitudeDegrees>42.76840469799935817718505859375</LatitudeDegrees>
              <LongitudeDegrees>-0.2488352358341217041015625</LongitudeDegrees>
            </Position>
            <AltitudeMeters>2255.800048828125</AltitudeMeters>
            <DistanceMeters>NAN</DistanceMeters>
          </Trackpoint>
          <Trackpoint>
            <Time>2022-08-23T11:49:48.000Z</Time>
            <Position>
              <LatitudeDegrees>42.7683254890143871307373046875</LatitudeDegrees>
              <LongitudeDegrees>-0.2486221678555011749267578125</LongitudeDegrees>
            </Position>
            <AltitudeMeters>2251.199951171875</AltitudeMeters>
            <DistanceMeters>NAN</DistanceMeters>
          </Trackpoint>
          <Trackpoint>
            <Time>2022-08-23T11:50:13.000Z</Time>
            <Position>
              <LatitudeDegrees>42.76833529584109783172607421875</LatitudeDegrees>
              <LongitudeDegrees>-0.2483888156712055206298828125</LongitudeDegrees>
            </Position>
            <AltitudeMeters>2247</AltitudeMeters>
            <DistanceMeters>NAN</DistanceMeters>
          </Trackpoint>
          <Trackpoint>
            <Time>2022-08-23T11:50:22.000Z</Time>
            <Position>
              <LatitudeDegrees>42.76833596639335155487060546875</LatitudeDegrees>
              <LongitudeDegrees>-0.24831245653331279754638671875</LongitudeDegrees>
            </Position>
            <AltitudeMeters>2245</AltitudeMeters>
            <DistanceMeters>NAN</DistanceMeters>
          </Trackpoint>
          <Trackpoint>
            <Time>2022-08-23T11:50:27.000Z</Time>
            <Position>
              <LatitudeDegrees>42.76834434829652309417724609375</LatitudeDegrees>
              <LongitudeDegrees>-0.248260907828807830810546875</LongitudeDegrees>
            </Position>
            <AltitudeMeters>2244.199951171875</AltitudeMeters>
            <DistanceMeters>NAN</DistanceMeters>
          </Trackpoint>
          <Trackpoint>
            <Time>2022-08-23T11:50:36.000Z</Time>
            <Position>
              <LatitudeDegrees>42.76835591532289981842041015625</LatitudeDegrees>
              <LongitudeDegrees>-0.24815890006721019744873046875</LongitudeDegrees>
            </Position>
            <AltitudeMeters>2242</AltitudeMeters>
            <DistanceMeters>NAN</DistanceMeters>
          </Trackpoint>
          <Trackpoint>
            <Time>2022-08-23T11:51:01.000Z</Time>
            <Position>
              <LatitudeDegrees>42.7682530693709850311279296875</LatitudeDegrees>
              <LongitudeDegrees>-0.24806183762848377227783203125</LongitudeDegrees>
            </Position>
            <AltitudeMeters>2232.39990234375</AltitudeMeters>
            <DistanceMeters>NAN</DistanceMeters>
          </Trackpoint>
          <Trackpoint>
            <Time>2022-08-23T11:51:21.000Z</Time>
            <Position>
              <LatitudeDegrees>42.76812373660504817962646484375</LatitudeDegrees>
              <LongitudeDegrees>-0.2481269650161266326904296875</LongitudeDegrees>
            </Position>
            <AltitudeMeters>2226.199951171875</AltitudeMeters>
            <DistanceMeters>NAN</DistanceMeters>
          </Trackpoint>
          <Trackpoint>
            <Time>2022-08-23T11:51:27.000Z</Time>
            <Position>
              <LatitudeDegrees>42.76812474243342876434326171875</LatitudeDegrees>
              <LongitudeDegrees>-0.24807189591228961944580078125</LongitudeDegrees>
            </Position>
            <AltitudeMeters>2224.199951171875</AltitudeMeters>
            <DistanceMeters>NAN</DistanceMeters>
          </Trackpoint>
          <Trackpoint>
            <Time>2022-08-23T11:51:51.000Z</Time>
            <Position>
              <LatitudeDegrees>42.76795358397066593170166015625</LatitudeDegrees>
              <LongitudeDegrees>-0.24804071523249149322509765625</LongitudeDegrees>
            </Position>
            <AltitudeMeters>2214.800048828125</AltitudeMeters>
            <DistanceMeters>NAN</DistanceMeters>
          </Trackpoint>
          <Trackpoint>
            <Time>2022-08-23T11:52:00.000Z</Time>
            <Position>
              <LatitudeDegrees>42.76787303388118743896484375</LatitudeDegrees>
              <LongitudeDegrees>-0.24806183762848377227783203125</LongitudeDegrees>
            </Position>
            <AltitudeMeters>2211.800048828125</AltitudeMeters>
            <DistanceMeters>NAN</DistanceMeters>
          </Trackpoint>
          <Trackpoint>
            <Time>2022-08-23T11:52:06.000Z</Time>
            <Position>
              <LatitudeDegrees>42.76782349683344364166259765625</LatitudeDegrees>
              <LongitudeDegrees>-0.2480669505894184112548828125</LongitudeDegrees>
            </Position>
            <AltitudeMeters>2209.60009765625</AltitudeMeters>
            <DistanceMeters>NAN</DistanceMeters>
          </Trackpoint>
          <Trackpoint>
            <Time>2022-08-23T11:52:09.000Z</Time>
            <Position>
              <LatitudeDegrees>42.767796255648136138916015625</LatitudeDegrees>
              <LongitudeDegrees>-0.24805664084851741790771484375</LongitudeDegrees>
            </Position>
            <AltitudeMeters>2208.199951171875</AltitudeMeters>
            <DistanceMeters>NAN</DistanceMeters>
          </Trackpoint>
          <Trackpoint>
            <Time>2022-08-23T11:52:10.000Z</Time>
            <Position>
              <LatitudeDegrees>42.7677870355546474456787109375</LatitudeDegrees>
              <LongitudeDegrees>-0.24805244989693164825439453125</LongitudeDegrees>
            </Position>
            <AltitudeMeters>2207.60009765625</AltitudeMeters>
            <DistanceMeters>NAN</DistanceMeters>
          </Trackpoint>
          <Trackpoint>
            <Time>2022-08-23T11:52:11.000Z</Time>
            <Position>
              <LatitudeDegrees>42.76777907274663448333740234375</LatitudeDegrees>
              <LongitudeDegrees>-0.24804725311696529388427734375</LongitudeDegrees>
            </Position>
            <AltitudeMeters>2207.199951171875</AltitudeMeters>
            <DistanceMeters>NAN</DistanceMeters>
          </Trackpoint>
          <Trackpoint>
            <Time>2022-08-23T11:52:13.000Z</Time>
            <Position>
              <LatitudeDegrees>42.76776432059705257415771484375</LatitudeDegrees>
              <LongitudeDegrees>-0.2480386197566986083984375</LongitudeDegrees>
            </Position>
            <AltitudeMeters>2206.199951171875</AltitudeMeters>
            <DistanceMeters>NAN</DistanceMeters>
          </Trackpoint>
          <Trackpoint>
            <Time>2022-08-23T11:52:16.000Z</Time>
            <Position>
              <LatitudeDegrees>42.76773883961141109466552734375</LatitudeDegrees>
              <LongitudeDegrees>-0.2480371110141277313232421875</LongitudeDegrees>
            </Position>
            <AltitudeMeters>2205.199951171875</AltitudeMeters>
            <DistanceMeters>NAN</DistanceMeters>
          </Trackpoint>
          <Trackpoint>
            <Time>2022-08-23T11:52:17.000Z</Time>
            <Position>
              <LatitudeDegrees>42.7677246741950511932373046875</LatitudeDegrees>
              <LongitudeDegrees>-0.24803794920444488525390625</LongitudeDegrees>
            </Position>
            <AltitudeMeters>2204.60009765625</AltitudeMeters>
            <DistanceMeters>NAN</DistanceMeters>
          </Trackpoint>
          <Trackpoint>
            <Time>2022-08-23T11:52:19.000Z</Time>
            <Position>
              <LatitudeDegrees>42.76771704666316509246826171875</LatitudeDegrees>
              <LongitudeDegrees>-0.24803769774734973907470703125</LongitudeDegrees>
            </Position>
            <AltitudeMeters>2204.39990234375</AltitudeMeters>
            <DistanceMeters>NAN</DistanceMeters>
          </Trackpoint>
          <Trackpoint>
            <Time>2022-08-23T11:52:21.000Z</Time>
            <Position>
              <LatitudeDegrees>42.7677022106945514678955078125</LatitudeDegrees>
              <LongitudeDegrees>-0.24803660809993743896484375</LongitudeDegrees>
            </Position>
            <AltitudeMeters>2203.800048828125</AltitudeMeters>
            <DistanceMeters>NAN</DistanceMeters>
          </Trackpoint>
          <Trackpoint>
            <Time>2022-08-23T11:52:25.000Z</Time>
            <Position>
              <LatitudeDegrees>42.767671532928943634033203125</LatitudeDegrees>
              <LongitudeDegrees>-0.2480307407677173614501953125</LongitudeDegrees>
            </Position>
            <AltitudeMeters>2202.39990234375</AltitudeMeters>
            <DistanceMeters>NAN</DistanceMeters>
          </Trackpoint>
          <Trackpoint>
            <Time>2022-08-23T11:52:27.000Z</Time>
            <Position>
              <LatitudeDegrees>42.7676546014845371246337890625</LatitudeDegrees>
              <LongitudeDegrees>-0.24802453815937042236328125</LongitudeDegrees>
            </Position>
            <AltitudeMeters>2201.39990234375</AltitudeMeters>
            <DistanceMeters>NAN</DistanceMeters>
          </Trackpoint>
          <Trackpoint>
            <Time>2022-08-23T11:52:28.000Z</Time>
            <Position>
              <LatitudeDegrees>42.76764563284814357757568359375</LatitudeDegrees>
              <LongitudeDegrees>-0.24802110157907009124755859375</LongitudeDegrees>
            </Position>
            <AltitudeMeters>2201</AltitudeMeters>
            <DistanceMeters>NAN</DistanceMeters>
          </Trackpoint>
          <Trackpoint>
            <Time>2022-08-23T11:52:32.000Z</Time>
            <Position>
              <LatitudeDegrees>42.7676336467266082763671875</LatitudeDegrees>
              <LongitudeDegrees>-0.24796376936137676239013671875</LongitudeDegrees>
            </Position>
            <AltitudeMeters>2199</AltitudeMeters>
            <DistanceMeters>NAN</DistanceMeters>
          </Trackpoint>
          <Trackpoint>
            <Time>2022-08-23T11:52:40.000Z</Time>
            <Position>
              <LatitudeDegrees>42.76761554181575775146484375</LatitudeDegrees>
              <LongitudeDegrees>-0.24787307716906070709228515625</LongitudeDegrees>
            </Position>
            <AltitudeMeters>2197</AltitudeMeters>
            <DistanceMeters>NAN</DistanceMeters>
          </Trackpoint>
          <Trackpoint>
            <Time>2022-08-23T11:52:44.000Z</Time>
            <Position>
              <LatitudeDegrees>42.76760824955999851226806640625</LatitudeDegrees>
              <LongitudeDegrees>-0.24783887900412082672119140625</LongitudeDegrees>
            </Position>
            <AltitudeMeters>2196.199951171875</AltitudeMeters>
            <DistanceMeters>NAN</DistanceMeters>
          </Trackpoint>
          <Trackpoint>
            <Time>2022-08-23T11:52:49.000Z</Time>
            <Position>
              <LatitudeDegrees>42.7676056511700153350830078125</LatitudeDegrees>
              <LongitudeDegrees>-0.24778272025287151336669921875</LongitudeDegrees>
            </Position>
            <AltitudeMeters>2195.39990234375</AltitudeMeters>
            <DistanceMeters>NAN</DistanceMeters>
          </Trackpoint>
          <Trackpoint>
            <Time>2022-08-23T11:52:55.000Z</Time>
            <Position>
              <LatitudeDegrees>42.7675684355199337005615234375</LatitudeDegrees>
              <LongitudeDegrees>-0.24776704609394073486328125</LongitudeDegrees>
            </Position>
            <AltitudeMeters>2193.60009765625</AltitudeMeters>
            <DistanceMeters>NAN</DistanceMeters>
          </Trackpoint>
          <Trackpoint>
            <Time>2022-08-23T11:53:05.000Z</Time>
            <Position>
              <LatitudeDegrees>42.7675255201756954193115234375</LatitudeDegrees>
              <LongitudeDegrees>-0.24772337637841701507568359375</LongitudeDegrees>
            </Position>
            <AltitudeMeters>2191.800048828125</AltitudeMeters>
            <DistanceMeters>NAN</DistanceMeters>
          </Trackpoint>
          <Trackpoint>
            <Time>2022-08-23T11:53:10.000Z</Time>
            <Position>
              <LatitudeDegrees>42.76753532700240612030029296875</LatitudeDegrees>
              <LongitudeDegrees>-0.247676186263561248779296875</LongitudeDegrees>
            </Position>
            <AltitudeMeters>2191.39990234375</AltitudeMeters>
            <DistanceMeters>NAN</DistanceMeters>
          </Trackpoint>
          <Trackpoint>
            <Time>2022-08-23T11:53:21.000Z</Time>
            <Position>
              <LatitudeDegrees>42.767439186573028564453125</LatitudeDegrees>
              <LongitudeDegrees>-0.2476263977587223052978515625</LongitudeDegrees>
            </Position>
            <AltitudeMeters>2187.800048828125</AltitudeMeters>
            <DistanceMeters>NAN</DistanceMeters>
          </Trackpoint>
          <Trackpoint>
            <Time>2022-08-23T11:53:26.000Z</Time>
            <Position>
              <LatitudeDegrees>42.767379842698574066162109375</LatitudeDegrees>
              <LongitudeDegrees>-0.2476398088037967681884765625</LongitudeDegrees>
            </Position>
            <AltitudeMeters>2186.60009765625</AltitudeMeters>
            <DistanceMeters>NAN</DistanceMeters>
          </Trackpoint>
          <Trackpoint>
            <Time>2022-08-23T11:53:34.000Z</Time>
            <Position>
              <LatitudeDegrees>42.76732494123280048370361328125</LatitudeDegrees>
              <LongitudeDegrees>-0.2475875057280063629150390625</LongitudeDegrees>
            </Position>
            <AltitudeMeters>2182.800048828125</AltitudeMeters>
            <DistanceMeters>NAN</DistanceMeters>
          </Trackpoint>
          <Trackpoint>
            <Time>2022-08-23T11:53:40.000Z</Time>
            <Position>
              <LatitudeDegrees>42.76729040779173374176025390625</LatitudeDegrees>
              <LongitudeDegrees>-0.24752673693001270294189453125</LongitudeDegrees>
            </Position>
            <AltitudeMeters>2179.39990234375</AltitudeMeters>
            <DistanceMeters>NAN</DistanceMeters>
          </Trackpoint>
          <Trackpoint>
            <Time>2022-08-23T11:53:48.000Z</Time>
            <Position>
              <LatitudeDegrees>42.7672455646097660064697265625</LatitudeDegrees>
              <LongitudeDegrees>-0.24747326038777828216552734375</LongitudeDegrees>
            </Position>
            <AltitudeMeters>2176.39990234375</AltitudeMeters>
            <DistanceMeters>NAN</DistanceMeters>
          </Trackpoint>
          <Trackpoint>
            <Time>2022-08-23T11:54:05.000Z</Time>
            <Position>
              <LatitudeDegrees>42.7670886553823947906494140625</LatitudeDegrees>
              <LongitudeDegrees>-0.24735390208661556243896484375</LongitudeDegrees>
            </Position>
            <AltitudeMeters>2169</AltitudeMeters>
            <DistanceMeters>NAN</DistanceMeters>
          </Trackpoint>
          <Trackpoint>
            <Time>2022-08-23T11:54:11.000Z</Time>
            <Position>
              <LatitudeDegrees>42.76706300675868988037109375</LatitudeDegrees>
              <LongitudeDegrees>-0.24732875637710094451904296875</LongitudeDegrees>
            </Position>
            <AltitudeMeters>2167.60009765625</AltitudeMeters>
            <DistanceMeters>NAN</DistanceMeters>
          </Trackpoint>
          <Trackpoint>
            <Time>2022-08-23T11:54:13.000Z</Time>
            <Position>
              <LatitudeDegrees>42.76706141419708728790283203125</LatitudeDegrees>
              <LongitudeDegrees>-0.2473283372819423675537109375</LongitudeDegrees>
            </Position>
            <AltitudeMeters>2167.60009765625</AltitudeMeters>
            <DistanceMeters>NAN</DistanceMeters>
          </Trackpoint>
          <Trackpoint>
            <Time>2022-08-23T12:00:57.000Z</Time>
            <Position>
              <LatitudeDegrees>42.76692981831729412078857421875</LatitudeDegrees>
              <LongitudeDegrees>-0.2473692409694194793701171875</LongitudeDegrees>
            </Position>
            <AltitudeMeters>2167</AltitudeMeters>
            <DistanceMeters>NAN</DistanceMeters>
          </Trackpoint>
          <Trackpoint>
            <Time>2022-08-23T12:00:58.000Z</Time>
            <Position>
              <LatitudeDegrees>42.76696267537772655487060546875</LatitudeDegrees>
              <LongitudeDegrees>-0.24735256098210811614990234375</LongitudeDegrees>
            </Position>
            <AltitudeMeters>2166.800048828125</AltitudeMeters>
            <DistanceMeters>NAN</DistanceMeters>
          </Trackpoint>
          <Trackpoint>
            <Time>2022-08-23T12:01:02.000Z</Time>
            <Position>
              <LatitudeDegrees>42.76702621020376682281494140625</LatitudeDegrees>
              <LongitudeDegrees>-0.2473331987857818603515625</LongitudeDegrees>
            </Position>
            <AltitudeMeters>2167</AltitudeMeters>
            <DistanceMeters>NAN</DistanceMeters>
          </Trackpoint>
          <Trackpoint>
            <Time>2022-08-23T12:01:04.000Z</Time>
            <Position>
              <LatitudeDegrees>42.7670611627399921417236328125</LatitudeDegrees>
              <LongitudeDegrees>-0.24728768505156040191650390625</LongitudeDegrees>
            </Position>
            <AltitudeMeters>2166.39990234375</AltitudeMeters>
            <DistanceMeters>NAN</DistanceMeters>
          </Trackpoint>
          <Trackpoint>
            <Time>2022-08-23T12:01:08.000Z</Time>
            <Position>
              <LatitudeDegrees>42.7670983783900737762451171875</LatitudeDegrees>
              <LongitudeDegrees>-0.24724829010665416717529296875</LongitudeDegrees>
            </Position>
            <AltitudeMeters>2165.800048828125</AltitudeMeters>
            <DistanceMeters>NAN</DistanceMeters>
          </Trackpoint>
          <Trackpoint>
            <Time>2022-08-23T12:01:10.000Z</Time>
            <Position>
              <LatitudeDegrees>42.7671087719500064849853515625</LatitudeDegrees>
              <LongitudeDegrees>-0.24723823182284832000732421875</LongitudeDegrees>
            </Position>
            <AltitudeMeters>2165.800048828125</AltitudeMeters>
            <DistanceMeters>NAN</DistanceMeters>
          </Trackpoint>
          <Trackpoint>
            <Time>2022-08-23T12:01:15.000Z</Time>
            <Position>
              <LatitudeDegrees>42.767139114439487457275390625</LatitudeDegrees>
              <LongitudeDegrees>-0.24721275083720684051513671875</LongitudeDegrees>
            </Position>
            <AltitudeMeters>2165.60009765625</AltitudeMeters>
            <DistanceMeters>NAN</DistanceMeters>
          </Trackpoint>
          <Trackpoint>
            <Time>2022-08-23T12:01:23.000Z</Time>
            <Position>
              <LatitudeDegrees>42.76719787158071994781494140625</LatitudeDegrees>
              <LongitudeDegrees>-0.2471523173153400421142578125</LongitudeDegrees>
            </Position>
            <AltitudeMeters>2164.800048828125</AltitudeMeters>
            <DistanceMeters>NAN</DistanceMeters>
          </Trackpoint>
          <Trackpoint>
            <Time>2022-08-23T12:01:43.000Z</Time>
            <Position>
              <LatitudeDegrees>42.767265178263187408447265625</LatitudeDegrees>
              <LongitudeDegrees>-0.2469270117580890655517578125</LongitudeDegrees>
            </Position>
            <AltitudeMeters>2159.800048828125</AltitudeMeters>
            <DistanceMeters>NAN</DistanceMeters>
          </Trackpoint>
          <Trackpoint>
            <Time>2022-08-23T12:01:47.000Z</Time>
            <Position>
              <LatitudeDegrees>42.76727448217570781707763671875</LatitudeDegrees>
              <LongitudeDegrees>-0.24687982164323329925537109375</LongitudeDegrees>
            </Position>
            <AltitudeMeters>2158.60009765625</AltitudeMeters>
            <DistanceMeters>NAN</DistanceMeters>
          </Trackpoint>
          <Trackpoint>
            <Time>2022-08-23T12:01:48.000Z</Time>
            <Position>
              <LatitudeDegrees>42.767278589308261871337890625</LatitudeDegrees>
              <LongitudeDegrees>-0.24686741642653942108154296875</LongitudeDegrees>
            </Position>
            <AltitudeMeters>2158.39990234375</AltitudeMeters>
            <DistanceMeters>NAN</DistanceMeters>
          </Trackpoint>
          <Trackpoint>
            <Time>2022-08-23T12:01:52.000Z</Time>
            <Position>
              <LatitudeDegrees>42.7672824449837207794189453125</LatitudeDegrees>
              <LongitudeDegrees>-0.2468208968639373779296875</LongitudeDegrees>
            </Position>
            <AltitudeMeters>2157.800048828125</AltitudeMeters>
            <DistanceMeters>NAN</DistanceMeters>
          </Trackpoint>
          <Trackpoint>
            <Time>2022-08-23T12:01:57.000Z</Time>
            <Position>
              <LatitudeDegrees>42.76727146469056606292724609375</LatitudeDegrees>
              <LongitudeDegrees>-0.246778987348079681396484375</LongitudeDegrees>
            </Position>
            <AltitudeMeters>2157</AltitudeMeters>
            <DistanceMeters>NAN</DistanceMeters>
          </Trackpoint>
          <Trackpoint>
            <Time>2022-08-23T12:01:59.000Z</Time>
            <Position>
              <LatitudeDegrees>42.767261825501918792724609375</LatitudeDegrees>
              <LongitudeDegrees>-0.2467566914856433868408203125</LongitudeDegrees>
            </Position>
            <AltitudeMeters>2156.39990234375</AltitudeMeters>
            <DistanceMeters>NAN</DistanceMeters>
          </Trackpoint>
          <Trackpoint>
            <Time>2022-08-23T12:02:02.000Z</Time>
            <Position>
              <LatitudeDegrees>42.76725076138973236083984375</LatitudeDegrees>
              <LongitudeDegrees>-0.24672810919582843780517578125</LongitudeDegrees>
            </Position>
            <AltitudeMeters>2155.60009765625</AltitudeMeters>
            <DistanceMeters>NAN</DistanceMeters>
          </Trackpoint>
          <Trackpoint>
            <Time>2022-08-23T12:02:04.000Z</Time>
            <Position>
              <LatitudeDegrees>42.767247743904590606689453125</LatitudeDegrees>
              <LongitudeDegrees>-0.24670748971402645111083984375</LongitudeDegrees>
            </Position>
            <AltitudeMeters>2155.199951171875</AltitudeMeters>
            <DistanceMeters>NAN</DistanceMeters>
          </Trackpoint>
          <Trackpoint>
            <Time>2022-08-23T12:02:07.000Z</Time>
            <Position>
              <LatitudeDegrees>42.76724950410425662994384765625</LatitudeDegrees>
              <LongitudeDegrees>-0.24666943587362766265869140625</LongitudeDegrees>
            </Position>
            <AltitudeMeters>2154.800048828125</AltitudeMeters>
            <DistanceMeters>NAN</DistanceMeters>
          </Trackpoint>
          <Trackpoint>
            <Time>2022-08-23T12:02:16.000Z</Time>
            <Position>
              <LatitudeDegrees>42.767224274575710296630859375</LatitudeDegrees>
              <LongitudeDegrees>-0.2465675957500934600830078125</LongitudeDegrees>
            </Position>
            <AltitudeMeters>2150.800048828125</AltitudeMeters>
            <DistanceMeters>NAN</DistanceMeters>
          </Trackpoint>
          <Trackpoint>
            <Time>2022-08-23T12:02:22.000Z</Time>
            <Position>
              <LatitudeDegrees>42.767179012298583984375</LatitudeDegrees>
              <LongitudeDegrees>-0.24653582833707332611083984375</LongitudeDegrees>
            </Position>
            <AltitudeMeters>2147.60009765625</AltitudeMeters>
            <DistanceMeters>NAN</DistanceMeters>
          </Trackpoint>
          <Trackpoint>
            <Time>2022-08-23T12:02:25.000Z</Time>
            <Position>
              <LatitudeDegrees>42.7671640925109386444091796875</LatitudeDegrees>
              <LongitudeDegrees>-0.24651252664625644683837890625</LongitudeDegrees>
            </Position>
            <AltitudeMeters>2146</AltitudeMeters>
            <DistanceMeters>NAN</DistanceMeters>
          </Trackpoint>
          <Trackpoint>
            <Time>2022-08-23T12:02:28.000Z</Time>
            <Position>
              <LatitudeDegrees>42.7671627514064311981201171875</LatitudeDegrees>
              <LongitudeDegrees>-0.246486961841583251953125</LongitudeDegrees>
            </Position>
            <AltitudeMeters>2144.800048828125</AltitudeMeters>
            <DistanceMeters>NAN</DistanceMeters>
          </Trackpoint>
          <Trackpoint>
            <Time>2022-08-23T12:02:29.000Z</Time>
            <Position>
              <LatitudeDegrees>42.767163254320621490478515625</LatitudeDegrees>
              <LongitudeDegrees>-0.24647799320518970489501953125</LongitudeDegrees>
            </Position>
            <AltitudeMeters>2144.60009765625</AltitudeMeters>
            <DistanceMeters>NAN</DistanceMeters>
          </Trackpoint>
          <Trackpoint>
            <Time>2022-08-23T12:03:05.000Z</Time>
            <Position>
              <LatitudeDegrees>42.76717423461377620697021484375</LatitudeDegrees>
              <LongitudeDegrees>-0.24627305567264556884765625</LongitudeDegrees>
            </Position>
            <AltitudeMeters>2136.39990234375</AltitudeMeters>
            <DistanceMeters>NAN</DistanceMeters>
          </Trackpoint>
          <Trackpoint>
            <Time>2022-08-23T12:03:19.000Z</Time>
            <Position>
              <LatitudeDegrees>42.76721186935901641845703125</LatitudeDegrees>
              <LongitudeDegrees>-0.246220417320728302001953125</LongitudeDegrees>
            </Position>
            <AltitudeMeters>2136.60009765625</AltitudeMeters>
            <DistanceMeters>NAN</DistanceMeters>
          </Trackpoint>
          <Trackpoint>
            <Time>2022-08-23T12:03:46.000Z</Time>
            <Position>
              <LatitudeDegrees>42.7671939320862293243408203125</LatitudeDegrees>
              <LongitudeDegrees>-0.246047079563140869140625</LongitudeDegrees>
            </Position>
            <AltitudeMeters>2129.60009765625</AltitudeMeters>
            <DistanceMeters>NAN</DistanceMeters>
          </Trackpoint>
          <Trackpoint>
            <Time>2022-08-23T12:04:25.000Z</Time>
            <Position>
              <LatitudeDegrees>42.76718663983047008514404296875</LatitudeDegrees>
              <LongitudeDegrees>-0.24583124555647373199462890625</LongitudeDegrees>
            </Position>
            <AltitudeMeters>2122.60009765625</AltitudeMeters>
            <DistanceMeters>NAN</DistanceMeters>
          </Trackpoint>
          <Trackpoint>
            <Time>2022-08-23T12:04:58.000Z</Time>
            <Position>
              <LatitudeDegrees>42.767040543258190155029296875</LatitudeDegrees>
              <LongitudeDegrees>-0.24574407376348972320556640625</LongitudeDegrees>
            </Position>
            <AltitudeMeters>2109.60009765625</AltitudeMeters>
            <DistanceMeters>NAN</DistanceMeters>
          </Trackpoint>
          <Trackpoint>
            <Time>2022-08-23T12:05:40.000Z</Time>
            <Position>
              <LatitudeDegrees>42.766986228525638580322265625</LatitudeDegrees>
              <LongitudeDegrees>-0.2455721609294414520263671875</LongitudeDegrees>
            </Position>
            <AltitudeMeters>2104.60009765625</AltitudeMeters>
            <DistanceMeters>NAN</DistanceMeters>
          </Trackpoint>
          <Trackpoint>
            <Time>2022-08-23T12:06:16.000Z</Time>
            <Position>
              <LatitudeDegrees>42.7668529562652111053466796875</LatitudeDegrees>
              <LongitudeDegrees>-0.2454316802322864532470703125</LongitudeDegrees>
            </Position>
            <AltitudeMeters>2098.199951171875</AltitudeMeters>
            <DistanceMeters>NAN</DistanceMeters>
          </Trackpoint>
          <Trackpoint>
            <Time>2022-08-23T12:06:54.000Z</Time>
            <Position>
              <LatitudeDegrees>42.7667136490345001220703125</LatitudeDegrees>
              <LongitudeDegrees>-0.24534291587769985198974609375</LongitudeDegrees>
            </Position>
            <AltitudeMeters>2092.199951171875</AltitudeMeters>
            <DistanceMeters>NAN</DistanceMeters>
          </Trackpoint>
          <Trackpoint>
            <Time>2022-08-23T12:07:19.000Z</Time>
            <Position>
              <LatitudeDegrees>42.766638882458209991455078125</LatitudeDegrees>
              <LongitudeDegrees>-0.24517469108104705810546875</LongitudeDegrees>
            </Position>
            <AltitudeMeters>2082.199951171875</AltitudeMeters>
            <DistanceMeters>NAN</DistanceMeters>
          </Trackpoint>
          <Trackpoint>
            <Time>2022-08-23T12:07:25.000Z</Time>
            <Position>
              <LatitudeDegrees>42.7666103839874267578125</LatitudeDegrees>
              <LongitudeDegrees>-0.245111994445323944091796875</LongitudeDegrees>
            </Position>
            <AltitudeMeters>2077.39990234375</AltitudeMeters>
            <DistanceMeters>NAN</DistanceMeters>
          </Trackpoint>
          <Trackpoint>
            <Time>2022-08-23T12:07:27.000Z</Time>
            <Position>
              <LatitudeDegrees>42.76659940369427204132080078125</LatitudeDegrees>
              <LongitudeDegrees>-0.2450950630009174346923828125</LongitudeDegrees>
            </Position>
            <AltitudeMeters>2076</AltitudeMeters>
            <DistanceMeters>NAN</DistanceMeters>
          </Trackpoint>
          <Trackpoint>
            <Time>2022-08-23T12:07:29.000Z</Time>
            <Position>
              <LatitudeDegrees>42.76659102179110050201416015625</LatitudeDegrees>
              <LongitudeDegrees>-0.245077125728130340576171875</LongitudeDegrees>
            </Position>
            <AltitudeMeters>2074.60009765625</AltitudeMeters>
            <DistanceMeters>NAN</DistanceMeters>
          </Trackpoint>
          <Trackpoint>
            <Time>2022-08-23T12:07:31.000Z</Time>
            <Position>
              <LatitudeDegrees>42.76658331044018268585205078125</LatitudeDegrees>
              <LongitudeDegrees>-0.24505826644599437713623046875</LongitudeDegrees>
            </Position>
            <AltitudeMeters>2073.39990234375</AltitudeMeters>
            <DistanceMeters>NAN</DistanceMeters>
          </Trackpoint>
          <Trackpoint>
            <Time>2022-08-23T12:07:33.000Z</Time>
            <Position>
              <LatitudeDegrees>42.7665716595947742462158203125</LatitudeDegrees>
              <LongitudeDegrees>-0.2450387366116046905517578125</LongitudeDegrees>
            </Position>
            <AltitudeMeters>2071.800048828125</AltitudeMeters>
            <DistanceMeters>NAN</DistanceMeters>
          </Trackpoint>
          <Trackpoint>
            <Time>2022-08-23T12:07:35.000Z</Time>
            <Position>
              <LatitudeDegrees>42.76656369678676128387451171875</LatitudeDegrees>
              <LongitudeDegrees>-0.245019458234310150146484375</LongitudeDegrees>
            </Position>
            <AltitudeMeters>2070.60009765625</AltitudeMeters>
            <DistanceMeters>NAN</DistanceMeters>
          </Trackpoint>
          <Trackpoint>
            <Time>2022-08-23T12:07:39.000Z</Time>
            <Position>
              <LatitudeDegrees>42.76654458604753017425537109375</LatitudeDegrees>
              <LongitudeDegrees>-0.24498215876519680023193359375</LongitudeDegrees>
            </Position>
            <AltitudeMeters>2067.800048828125</AltitudeMeters>
            <DistanceMeters>NAN</DistanceMeters>
          </Trackpoint>
          <Trackpoint>
            <Time>2022-08-23T12:07:47.000Z</Time>
            <Position>
              <LatitudeDegrees>42.7664861641824245452880859375</LatitudeDegrees>
              <LongitudeDegrees>-0.24493999779224395751953125</LongitudeDegrees>
            </Position>
            <AltitudeMeters>2063.39990234375</AltitudeMeters>
            <DistanceMeters>NAN</DistanceMeters>
          </Trackpoint>
          <Trackpoint>
            <Time>2022-08-23T12:07:50.000Z</Time>
            <Position>
              <LatitudeDegrees>42.7664626948535442352294921875</LatitudeDegrees>
              <LongitudeDegrees>-0.24491962976753711700439453125</LongitudeDegrees>
            </Position>
            <AltitudeMeters>2061.800048828125</AltitudeMeters>
            <DistanceMeters>NAN</DistanceMeters>
          </Trackpoint>
          <Trackpoint>
            <Time>2022-08-23T12:08:00.000Z</Time>
            <Position>
              <LatitudeDegrees>42.7663735114037990570068359375</LatitudeDegrees>
              <LongitudeDegrees>-0.24487704969942569732666015625</LongitudeDegrees>
            </Position>
            <AltitudeMeters>2060.39990234375</AltitudeMeters>
            <DistanceMeters>NAN</DistanceMeters>
          </Trackpoint>
          <Trackpoint>
            <Time>2022-08-23T12:08:06.000Z</Time>
            <Position>
              <LatitudeDegrees>42.766334451735019683837890625</LatitudeDegrees>
              <LongitudeDegrees>-0.2448315359652042388916015625</LongitudeDegrees>
            </Position>
            <AltitudeMeters>2059.39990234375</AltitudeMeters>
            <DistanceMeters>NAN</DistanceMeters>
          </Trackpoint>
          <Trackpoint>
            <Time>2022-08-23T12:08:13.000Z</Time>
            <Position>
              <LatitudeDegrees>42.76626999489963054656982421875</LatitudeDegrees>
              <LongitudeDegrees>-0.2447879500687122344970703125</LongitudeDegrees>
            </Position>
            <AltitudeMeters>2057.800048828125</AltitudeMeters>
            <DistanceMeters>NAN</DistanceMeters>
          </Trackpoint>
          <Trackpoint>
            <Time>2022-08-23T12:08:20.000Z</Time>
            <Position>
              <LatitudeDegrees>42.76621886529028415679931640625</LatitudeDegrees>
              <LongitudeDegrees>-0.2447234094142913818359375</LongitudeDegrees>
            </Position>
            <AltitudeMeters>2056</AltitudeMeters>
            <DistanceMeters>NAN</DistanceMeters>
          </Trackpoint>
          <Trackpoint>
            <Time>2022-08-23T12:08:32.000Z</Time>
            <Position>
              <LatitudeDegrees>42.7661837451159954071044921875</LatitudeDegrees>
              <LongitudeDegrees>-0.2446052245795726776123046875</LongitudeDegrees>
            </Position>
            <AltitudeMeters>2053.199951171875</AltitudeMeters>
            <DistanceMeters>NAN</DistanceMeters>
          </Trackpoint>
          <Trackpoint>
            <Time>2022-08-23T12:08:55.000Z</Time>
            <Position>
              <LatitudeDegrees>42.76615382172167301177978515625</LatitudeDegrees>
              <LongitudeDegrees>-0.244359634816646575927734375</LongitudeDegrees>
            </Position>
            <AltitudeMeters>2048</AltitudeMeters>
            <DistanceMeters>NAN</DistanceMeters>
          </Trackpoint>
          <Trackpoint>
            <Time>2022-08-23T12:08:59.000Z</Time>
            <Position>
              <LatitudeDegrees>42.76613269932568073272705078125</LatitudeDegrees>
              <LongitudeDegrees>-0.24432702921330928802490234375</LongitudeDegrees>
            </Position>
            <AltitudeMeters>2046.800048828125</AltitudeMeters>
            <DistanceMeters>NAN</DistanceMeters>
          </Trackpoint>
          <Trackpoint>
            <Time>2022-08-23T12:09:19.000Z</Time>
            <Position>
              <LatitudeDegrees>42.7660737745463848114013671875</LatitudeDegrees>
              <LongitudeDegrees>-0.24415335617959499359130859375</LongitudeDegrees>
            </Position>
            <AltitudeMeters>2041</AltitudeMeters>
            <DistanceMeters>NAN</DistanceMeters>
          </Trackpoint>
          <Trackpoint>
            <Time>2022-08-23T12:09:45.000Z</Time>
            <Position>
              <LatitudeDegrees>42.7659792266786098480224609375</LatitudeDegrees>
              <LongitudeDegrees>-0.24395587854087352752685546875</LongitudeDegrees>
            </Position>
            <AltitudeMeters>2032.800048828125</AltitudeMeters>
            <DistanceMeters>NAN</DistanceMeters>
          </Trackpoint>
          <Trackpoint>
            <Time>2022-08-23T12:10:09.000Z</Time>
            <Position>
              <LatitudeDegrees>42.76585106737911701202392578125</LatitudeDegrees>
              <LongitudeDegrees>-0.2438065968453884124755859375</LongitudeDegrees>
            </Position>
            <AltitudeMeters>2024.800048828125</AltitudeMeters>
            <DistanceMeters>NAN</DistanceMeters>
          </Trackpoint>
          <Trackpoint>
            <Time>2022-08-23T12:10:33.000Z</Time>
            <Position>
              <LatitudeDegrees>42.7657170407474040985107421875</LatitudeDegrees>
              <LongitudeDegrees>-0.2436671219766139984130859375</LongitudeDegrees>
            </Position>
            <AltitudeMeters>2019.5999755859375</AltitudeMeters>
            <DistanceMeters>NAN</DistanceMeters>
          </Trackpoint>
          <Trackpoint>
            <Time>2022-08-23T12:10:56.000Z</Time>
            <Position>
              <LatitudeDegrees>42.765605561435222625732421875</LatitudeDegrees>
              <LongitudeDegrees>-0.24350208230316638946533203125</LongitudeDegrees>
            </Position>
            <AltitudeMeters>2015.199951171875</AltitudeMeters>
            <DistanceMeters>NAN</DistanceMeters>
          </Trackpoint>
          <Trackpoint>
            <Time>2022-08-23T12:11:20.000Z</Time>
            <Position>
              <LatitudeDegrees>42.7654907293617725372314453125</LatitudeDegrees>
              <LongitudeDegrees>-0.243314243853092193603515625</LongitudeDegrees>
            </Position>
            <AltitudeMeters>2010.4000244140625</AltitudeMeters>
            <DistanceMeters>NAN</DistanceMeters>
          </Trackpoint>
          <Trackpoint>
            <Time>2022-08-23T12:11:26.000Z</Time>
            <Position>
              <LatitudeDegrees>42.7654625661671161651611328125</LatitudeDegrees>
              <LongitudeDegrees>-0.24326101876795291900634765625</LongitudeDegrees>
            </Position>
            <AltitudeMeters>2009</AltitudeMeters>
            <DistanceMeters>NAN</DistanceMeters>
          </Trackpoint>
          <Trackpoint>
            <Time>2022-08-23T12:11:49.000Z</Time>
            <Position>
              <LatitudeDegrees>42.76535854674875736236572265625</LatitudeDegrees>
              <LongitudeDegrees>-0.2430659718811511993408203125</LongitudeDegrees>
            </Position>
            <AltitudeMeters>2002.199951171875</AltitudeMeters>
            <DistanceMeters>NAN</DistanceMeters>
          </Trackpoint>
          <Trackpoint>
            <Time>2022-08-23T12:12:11.000Z</Time>
            <Position>
              <LatitudeDegrees>42.76524991728365421295166015625</LatitudeDegrees>
              <LongitudeDegrees>-0.24286522530019283294677734375</LongitudeDegrees>
            </Position>
            <AltitudeMeters>1994.5999755859375</AltitudeMeters>
            <DistanceMeters>NAN</DistanceMeters>
          </Trackpoint>
          <Trackpoint>
            <Time>2022-08-23T12:12:13.000Z</Time>
            <Position>
              <LatitudeDegrees>42.7652429603040218353271484375</LatitudeDegrees>
              <LongitudeDegrees>-0.242845527827739715576171875</LongitudeDegrees>
            </Position>
            <AltitudeMeters>1993.800048828125</AltitudeMeters>
            <DistanceMeters>NAN</DistanceMeters>
          </Trackpoint>
          <Trackpoint>
            <Time>2022-08-23T12:12:36.000Z</Time>
            <Position>
              <LatitudeDegrees>42.765202224254608154296875</LatitudeDegrees>
              <LongitudeDegrees>-0.24268400855362415313720703125</LongitudeDegrees>
            </Position>
            <AltitudeMeters>1988.800048828125</AltitudeMeters>
            <DistanceMeters>NAN</DistanceMeters>
          </Trackpoint>
          <Trackpoint>
            <Time>2022-08-23T12:13:58.000Z</Time>
            <Position>
              <LatitudeDegrees>42.76524924673140048980712890625</LatitudeDegrees>
              <LongitudeDegrees>-0.24273279123008251190185546875</LongitudeDegrees>
            </Position>
            <AltitudeMeters>1991.4000244140625</AltitudeMeters>
            <DistanceMeters>NAN</DistanceMeters>
          </Trackpoint>
          <Trackpoint>
            <Time>2022-08-23T12:13:59.000Z</Time>
            <Position>
              <LatitudeDegrees>42.76524840854108333587646484375</LatitudeDegrees>
              <LongitudeDegrees>-0.2427320368587970733642578125</LongitudeDegrees>
            </Position>
            <AltitudeMeters>1991.4000244140625</AltitudeMeters>
            <DistanceMeters>NAN</DistanceMeters>
          </Trackpoint>
          <Trackpoint>
            <Time>2022-08-23T12:14:07.000Z</Time>
            <Position>
              <LatitudeDegrees>42.7652101032435894012451171875</LatitudeDegrees>
              <LongitudeDegrees>-0.24271770380437374114990234375</LongitudeDegrees>
            </Position>
            <AltitudeMeters>1989.800048828125</AltitudeMeters>
            <DistanceMeters>NAN</DistanceMeters>
          </Trackpoint>
          <Trackpoint>
            <Time>2022-08-23T12:14:18.000Z</Time>
            <Position>
              <LatitudeDegrees>42.7651795931160449981689453125</LatitudeDegrees>
              <LongitudeDegrees>-0.24270462803542613983154296875</LongitudeDegrees>
            </Position>
            <AltitudeMeters>1988.4000244140625</AltitudeMeters>
            <DistanceMeters>NAN</DistanceMeters>
          </Trackpoint>
          <Trackpoint>
            <Time>2022-08-23T12:14:22.000Z</Time>
            <Position>
              <LatitudeDegrees>42.7651762403547763824462890625</LatitudeDegrees>
              <LongitudeDegrees>-0.24270228110253810882568359375</LongitudeDegrees>
            </Position>
            <AltitudeMeters>1988.199951171875</AltitudeMeters>
            <DistanceMeters>NAN</DistanceMeters>
          </Trackpoint>
          <Trackpoint>
            <Time>2022-08-23T12:14:23.000Z</Time>
            <Position>
              <LatitudeDegrees>42.76517598889768123626708984375</LatitudeDegrees>
              <LongitudeDegrees>-0.2427021972835063934326171875</LongitudeDegrees>
            </Position>
            <AltitudeMeters>1988.199951171875</AltitudeMeters>
            <DistanceMeters>NAN</DistanceMeters>
          </Trackpoint>
          <Trackpoint>
            <Time>2022-08-23T12:16:35.000Z</Time>
            <Position>
              <LatitudeDegrees>42.76514589786529541015625</LatitudeDegrees>
              <LongitudeDegrees>-0.242702029645442962646484375</LongitudeDegrees>
            </Position>
            <AltitudeMeters>1987.199951171875</AltitudeMeters>
            <DistanceMeters>NAN</DistanceMeters>
          </Trackpoint>
          <Trackpoint>
            <Time>2022-08-23T12:16:36.000Z</Time>
            <Position>
              <LatitudeDegrees>42.76514145545661449432373046875</LatitudeDegrees>
              <LongitudeDegrees>-0.2426978386938571929931640625</LongitudeDegrees>
            </Position>
            <AltitudeMeters>1987</AltitudeMeters>
            <DistanceMeters>NAN</DistanceMeters>
          </Trackpoint>
          <Trackpoint>
            <Time>2022-08-23T12:16:48.000Z</Time>
            <Position>
              <LatitudeDegrees>42.76507305912673473358154296875</LatitudeDegrees>
              <LongitudeDegrees>-0.2426264248788356781005859375</LongitudeDegrees>
            </Position>
            <AltitudeMeters>1983.199951171875</AltitudeMeters>
            <DistanceMeters>NAN</DistanceMeters>
          </Trackpoint>
          <Trackpoint>
            <Time>2022-08-23T12:16:51.000Z</Time>
            <Position>
              <LatitudeDegrees>42.7650652639567852020263671875</LatitudeDegrees>
              <LongitudeDegrees>-0.2425905503332614898681640625</LongitudeDegrees>
            </Position>
            <AltitudeMeters>1982.199951171875</AltitudeMeters>
            <DistanceMeters>NAN</DistanceMeters>
          </Trackpoint>
          <Trackpoint>
            <Time>2022-08-23T12:16:53.000Z</Time>
            <Position>
              <LatitudeDegrees>42.7650578878819942474365234375</LatitudeDegrees>
              <LongitudeDegrees>-0.242568589746952056884765625</LongitudeDegrees>
            </Position>
            <AltitudeMeters>1981.5999755859375</AltitudeMeters>
            <DistanceMeters>NAN</DistanceMeters>
          </Trackpoint>
          <Trackpoint>
            <Time>2022-08-23T12:16:56.000Z</Time>
            <Position>
              <LatitudeDegrees>42.76504640467464923858642578125</LatitudeDegrees>
              <LongitudeDegrees>-0.24253799580037593841552734375</LongitudeDegrees>
            </Position>
            <AltitudeMeters>1980.5999755859375</AltitudeMeters>
            <DistanceMeters>NAN</DistanceMeters>
          </Trackpoint>
          <Trackpoint>
            <Time>2022-08-23T12:16:57.000Z</Time>
            <Position>
              <LatitudeDegrees>42.76504288427531719207763671875</LatitudeDegrees>
              <LongitudeDegrees>-0.2425278536975383758544921875</LongitudeDegrees>
            </Position>
            <AltitudeMeters>1980.199951171875</AltitudeMeters>
            <DistanceMeters>NAN</DistanceMeters>
          </Trackpoint>
          <Trackpoint>
            <Time>2022-08-23T12:17:03.000Z</Time>
            <Position>
              <LatitudeDegrees>42.76500047184526920318603515625</LatitudeDegrees>
              <LongitudeDegrees>-0.24249516427516937255859375</LongitudeDegrees>
            </Position>
            <AltitudeMeters>1978.4000244140625</AltitudeMeters>
            <DistanceMeters>NAN</DistanceMeters>
          </Trackpoint>
          <Trackpoint>
            <Time>2022-08-23T12:17:06.000Z</Time>
            <Position>
              <LatitudeDegrees>42.7649787627160549163818359375</LatitudeDegrees>
              <LongitudeDegrees>-0.2424886263906955718994140625</LongitudeDegrees>
            </Position>
            <AltitudeMeters>1977.5999755859375</AltitudeMeters>
            <DistanceMeters>NAN</DistanceMeters>
          </Trackpoint>
          <Trackpoint>
            <Time>2022-08-23T12:17:07.000Z</Time>
            <Position>
              <LatitudeDegrees>42.76496459729969501495361328125</LatitudeDegrees>
              <LongitudeDegrees>-0.24248133413493633270263671875</LongitudeDegrees>
            </Position>
            <AltitudeMeters>1977.199951171875</AltitudeMeters>
            <DistanceMeters>NAN</DistanceMeters>
          </Trackpoint>
          <Trackpoint>
            <Time>2022-08-23T12:17:14.000Z</Time>
            <Position>
              <LatitudeDegrees>42.76491531170904636383056640625</LatitudeDegrees>
              <LongitudeDegrees>-0.242479406297206878662109375</LongitudeDegrees>
            </Position>
            <AltitudeMeters>1976</AltitudeMeters>
            <DistanceMeters>NAN</DistanceMeters>
          </Trackpoint>
          <Trackpoint>
            <Time>2022-08-23T12:17:16.000Z</Time>
            <Position>
              <LatitudeDegrees>42.76490475051105022430419921875</LatitudeDegrees>
              <LongitudeDegrees>-0.24248468689620494842529296875</LongitudeDegrees>
            </Position>
            <AltitudeMeters>1975.800048828125</AltitudeMeters>
            <DistanceMeters>NAN</DistanceMeters>
          </Trackpoint>
          <Trackpoint>
            <Time>2022-08-23T12:17:17.000Z</Time>
            <Position>
              <LatitudeDegrees>42.76489603333175182342529296875</LatitudeDegrees>
              <LongitudeDegrees>-0.24248636327683925628662109375</LongitudeDegrees>
            </Position>
            <AltitudeMeters>1975.5999755859375</AltitudeMeters>
            <DistanceMeters>NAN</DistanceMeters>
          </Trackpoint>
          <Trackpoint>
            <Time>2022-08-23T12:17:38.000Z</Time>
            <Position>
              <LatitudeDegrees>42.76473945938050746917724609375</LatitudeDegrees>
              <LongitudeDegrees>-0.24243975989520549774169921875</LongitudeDegrees>
            </Position>
            <AltitudeMeters>1971.199951171875</AltitudeMeters>
            <DistanceMeters>NAN</DistanceMeters>
          </Trackpoint>
          <Trackpoint>
            <Time>2022-08-23T12:17:43.000Z</Time>
            <Position>
              <LatitudeDegrees>42.76469461619853973388671875</LatitudeDegrees>
              <LongitudeDegrees>-0.24243615567684173583984375</LongitudeDegrees>
            </Position>
            <AltitudeMeters>1970.5999755859375</AltitudeMeters>
            <DistanceMeters>NAN</DistanceMeters>
          </Trackpoint>
          <Trackpoint>
            <Time>2022-08-23T12:17:45.000Z</Time>
            <Position>
              <LatitudeDegrees>42.76467340998351573944091796875</LatitudeDegrees>
              <LongitudeDegrees>-0.24242768995463848114013671875</LongitudeDegrees>
            </Position>
            <AltitudeMeters>1970.199951171875</AltitudeMeters>
            <DistanceMeters>NAN</DistanceMeters>
          </Trackpoint>
          <Trackpoint>
            <Time>2022-08-23T12:18:03.000Z</Time>
            <Position>
              <LatitudeDegrees>42.76450015604496002197265625</LatitudeDegrees>
              <LongitudeDegrees>-0.2423538453876972198486328125</LongitudeDegrees>
            </Position>
            <AltitudeMeters>1966.5999755859375</AltitudeMeters>
            <DistanceMeters>NAN</DistanceMeters>
          </Trackpoint>
          <Trackpoint>
            <Time>2022-08-23T12:18:21.000Z</Time>
            <Position>
              <LatitudeDegrees>42.7643387205898761749267578125</LatitudeDegrees>
              <LongitudeDegrees>-0.24225753732025623321533203125</LongitudeDegrees>
            </Position>
            <AltitudeMeters>1962</AltitudeMeters>
            <DistanceMeters>NAN</DistanceMeters>
          </Trackpoint>
          <Trackpoint>
            <Time>2022-08-23T12:18:33.000Z</Time>
            <Position>
              <LatitudeDegrees>42.76421877555549144744873046875</LatitudeDegrees>
              <LongitudeDegrees>-0.2422643266618251800537109375</LongitudeDegrees>
            </Position>
            <AltitudeMeters>1959.4000244140625</AltitudeMeters>
            <DistanceMeters>NAN</DistanceMeters>
          </Trackpoint>
          <Trackpoint>
            <Time>2022-08-23T12:18:46.000Z</Time>
            <Position>
              <LatitudeDegrees>42.76407770812511444091796875</LatitudeDegrees>
              <LongitudeDegrees>-0.24237119592726230621337890625</LongitudeDegrees>
            </Position>
            <AltitudeMeters>1955.5999755859375</AltitudeMeters>
            <DistanceMeters>NAN</DistanceMeters>
          </Trackpoint>
          <Trackpoint>
            <Time>2022-08-23T12:18:48.000Z</Time>
            <Position>
              <LatitudeDegrees>42.764055915176868438720703125</LatitudeDegrees>
              <LongitudeDegrees>-0.24238762445747852325439453125</LongitudeDegrees>
            </Position>
            <AltitudeMeters>1955</AltitudeMeters>
            <DistanceMeters>NAN</DistanceMeters>
          </Trackpoint>
          <Trackpoint>
            <Time>2022-08-23T12:18:49.000Z</Time>
            <Position>
              <LatitudeDegrees>42.76403102092444896697998046875</LatitudeDegrees>
              <LongitudeDegrees>-0.24240195751190185546875</LongitudeDegrees>
            </Position>
            <AltitudeMeters>1954.199951171875</AltitudeMeters>
            <DistanceMeters>NAN</DistanceMeters>
          </Trackpoint>
          <Trackpoint>
            <Time>2022-08-23T12:18:50.000Z</Time>
            <Position>
              <LatitudeDegrees>42.76403102092444896697998046875</LatitudeDegrees>
              <LongitudeDegrees>-0.24240195751190185546875</LongitudeDegrees>
            </Position>
            <AltitudeMeters>1954.199951171875</AltitudeMeters>
            <DistanceMeters>NAN</DistanceMeters>
          </Trackpoint>
          <Trackpoint>
            <Time>2022-08-23T12:18:59.000Z</Time>
            <Position>
              <LatitudeDegrees>42.76394502259790897369384765625</LatitudeDegrees>
              <LongitudeDegrees>-0.2424524165689945220947265625</LongitudeDegrees>
            </Position>
            <AltitudeMeters>1951.800048828125</AltitudeMeters>
            <DistanceMeters>NAN</DistanceMeters>
          </Trackpoint>
          <Trackpoint>
            <Time>2022-08-23T12:19:13.000Z</Time>
            <Position>
              <LatitudeDegrees>42.76384125463664531707763671875</LatitudeDegrees>
              <LongitudeDegrees>-0.24248887784779071807861328125</LongitudeDegrees>
            </Position>
            <AltitudeMeters>1948.5999755859375</AltitudeMeters>
            <DistanceMeters>NAN</DistanceMeters>
          </Trackpoint>
          <Trackpoint>
            <Time>2022-08-23T12:19:17.000Z</Time>
            <Position>
              <LatitudeDegrees>42.7638267539441585540771484375</LatitudeDegrees>
              <LongitudeDegrees>-0.24250161834061145782470703125</LongitudeDegrees>
            </Position>
            <AltitudeMeters>1948.199951171875</AltitudeMeters>
            <DistanceMeters>NAN</DistanceMeters>
          </Trackpoint>
          <Trackpoint>
            <Time>2022-08-23T12:19:31.000Z</Time>
            <Position>
              <LatitudeDegrees>42.7638002671301364898681640625</LatitudeDegrees>
              <LongitudeDegrees>-0.242624580860137939453125</LongitudeDegrees>
            </Position>
            <AltitudeMeters>1949.5999755859375</AltitudeMeters>
            <DistanceMeters>NAN</DistanceMeters>
          </Trackpoint>
          <Trackpoint>
            <Time>2022-08-23T12:19:34.000Z</Time>
            <Position>
              <LatitudeDegrees>42.7637935616075992584228515625</LatitudeDegrees>
              <LongitudeDegrees>-0.2426661550998687744140625</LongitudeDegrees>
            </Position>
            <AltitudeMeters>1950</AltitudeMeters>
            <DistanceMeters>NAN</DistanceMeters>
          </Trackpoint>
          <Trackpoint>
            <Time>2022-08-23T12:19:49.000Z</Time>
            <Position>
              <LatitudeDegrees>42.763775289058685302734375</LatitudeDegrees>
              <LongitudeDegrees>-0.242915935814380645751953125</LongitudeDegrees>
            </Position>
            <AltitudeMeters>1950.199951171875</AltitudeMeters>
            <DistanceMeters>NAN</DistanceMeters>
          </Trackpoint>
          <Trackpoint>
            <Time>2022-08-23T12:20:00.000Z</Time>
            <Position>
              <LatitudeDegrees>42.76374955661594867706298828125</LatitudeDegrees>
              <LongitudeDegrees>-0.2430146746337413787841796875</LongitudeDegrees>
            </Position>
            <AltitudeMeters>1950.199951171875</AltitudeMeters>
            <DistanceMeters>NAN</DistanceMeters>
          </Trackpoint>
          <Trackpoint>
            <Time>2022-08-23T12:20:03.000Z</Time>
            <Position>
              <LatitudeDegrees>42.763735391199588775634765625</LatitudeDegrees>
              <LongitudeDegrees>-0.2430550754070281982421875</LongitudeDegrees>
            </Position>
            <AltitudeMeters>1949.5999755859375</AltitudeMeters>
            <DistanceMeters>NAN</DistanceMeters>
          </Trackpoint>
          <Trackpoint>
            <Time>2022-08-23T12:20:09.000Z</Time>
            <Position>
              <LatitudeDegrees>42.7637073956429958343505859375</LatitudeDegrees>
              <LongitudeDegrees>-0.2431192807853221893310546875</LongitudeDegrees>
            </Position>
            <AltitudeMeters>1948.5999755859375</AltitudeMeters>
            <DistanceMeters>NAN</DistanceMeters>
          </Trackpoint>
          <Trackpoint>
            <Time>2022-08-23T12:20:17.000Z</Time>
            <Position>
              <LatitudeDegrees>42.76366464793682098388671875</LatitudeDegrees>
              <LongitudeDegrees>-0.24312724359333515167236328125</LongitudeDegrees>
            </Position>
            <AltitudeMeters>1946.4000244140625</AltitudeMeters>
            <DistanceMeters>NAN</DistanceMeters>
          </Trackpoint>
          <Trackpoint>
            <Time>2022-08-23T12:20:20.000Z</Time>
            <Position>
              <LatitudeDegrees>42.76366204954683780670166015625</LatitudeDegrees>
              <LongitudeDegrees>-0.2431028522551059722900390625</LongitudeDegrees>
            </Position>
            <AltitudeMeters>1946.199951171875</AltitudeMeters>
            <DistanceMeters>NAN</DistanceMeters>
          </Trackpoint>
          <Trackpoint>
            <Time>2022-08-23T12:20:38.000Z</Time>
            <Position>
              <LatitudeDegrees>42.763575799763202667236328125</LatitudeDegrees>
              <LongitudeDegrees>-0.24315741844475269317626953125</LongitudeDegrees>
            </Position>
            <AltitudeMeters>1941.800048828125</AltitudeMeters>
            <DistanceMeters>NAN</DistanceMeters>
          </Trackpoint>
          <Trackpoint>
            <Time>2022-08-23T12:20:57.000Z</Time>
            <Position>
              <LatitudeDegrees>42.763458453118801116943359375</LatitudeDegrees>
              <LongitudeDegrees>-0.24334835819900035858154296875</LongitudeDegrees>
            </Position>
            <AltitudeMeters>1936.199951171875</AltitudeMeters>
            <DistanceMeters>NAN</DistanceMeters>
          </Trackpoint>
          <Trackpoint>
            <Time>2022-08-23T12:21:15.000Z</Time>
            <Position>
              <LatitudeDegrees>42.7633662521839141845703125</LatitudeDegrees>
              <LongitudeDegrees>-0.24356896989047527313232421875</LongitudeDegrees>
            </Position>
            <AltitudeMeters>1932.4000244140625</AltitudeMeters>
            <DistanceMeters>NAN</DistanceMeters>
          </Trackpoint>
          <Trackpoint>
            <Time>2022-08-23T12:21:31.000Z</Time>
            <Position>
              <LatitudeDegrees>42.76325234211981296539306640625</LatitudeDegrees>
              <LongitudeDegrees>-0.24372990243136882781982421875</LongitudeDegrees>
            </Position>
            <AltitudeMeters>1930</AltitudeMeters>
            <DistanceMeters>NAN</DistanceMeters>
          </Trackpoint>
          <Trackpoint>
            <Time>2022-08-23T12:21:52.000Z</Time>
            <Position>
              <LatitudeDegrees>42.76314035989344120025634765625</LatitudeDegrees>
              <LongitudeDegrees>-0.243923775851726531982421875</LongitudeDegrees>
            </Position>
            <AltitudeMeters>1928.800048828125</AltitudeMeters>
            <DistanceMeters>NAN</DistanceMeters>
          </Trackpoint>
          <Trackpoint>
            <Time>2022-08-23T12:21:57.000Z</Time>
            <Position>
              <LatitudeDegrees>42.763129882514476776123046875</LatitudeDegrees>
              <LongitudeDegrees>-0.243961997330188751220703125</LongitudeDegrees>
            </Position>
            <AltitudeMeters>1929.199951171875</AltitudeMeters>
            <DistanceMeters>NAN</DistanceMeters>
          </Trackpoint>
          <Trackpoint>
            <Time>2022-08-23T12:22:05.000Z</Time>
            <Position>
              <LatitudeDegrees>42.76308872736990451812744140625</LatitudeDegrees>
              <LongitudeDegrees>-0.24404657073318958282470703125</LongitudeDegrees>
            </Position>
            <AltitudeMeters>1929.199951171875</AltitudeMeters>
            <DistanceMeters>NAN</DistanceMeters>
          </Trackpoint>
          <Trackpoint>
            <Time>2022-08-23T12:22:22.000Z</Time>
            <Position>
              <LatitudeDegrees>42.76296702213585376739501953125</LatitudeDegrees>
              <LongitudeDegrees>-0.2442419528961181640625</LongitudeDegrees>
            </Position>
            <AltitudeMeters>1927.4000244140625</AltitudeMeters>
            <DistanceMeters>NAN</DistanceMeters>
          </Trackpoint>
          <Trackpoint>
            <Time>2022-08-23T12:22:39.000Z</Time>
            <Position>
              <LatitudeDegrees>42.7628413774073123931884765625</LatitudeDegrees>
              <LongitudeDegrees>-0.24442090652883052825927734375</LongitudeDegrees>
            </Position>
            <AltitudeMeters>1924</AltitudeMeters>
            <DistanceMeters>NAN</DistanceMeters>
          </Trackpoint>
          <Trackpoint>
            <Time>2022-08-23T12:22:52.000Z</Time>
            <Position>
              <LatitudeDegrees>42.7627493441104888916015625</LatitudeDegrees>
              <LongitudeDegrees>-0.24454529397189617156982421875</LongitudeDegrees>
            </Position>
            <AltitudeMeters>1920.800048828125</AltitudeMeters>
            <DistanceMeters>NAN</DistanceMeters>
          </Trackpoint>
          <Trackpoint>
            <Time>2022-08-23T12:22:55.000Z</Time>
            <Position>
              <LatitudeDegrees>42.762758396565914154052734375</LatitudeDegrees>
              <LongitudeDegrees>-0.24448846466839313507080078125</LongitudeDegrees>
            </Position>
            <AltitudeMeters>1920.5999755859375</AltitudeMeters>
            <DistanceMeters>NAN</DistanceMeters>
          </Trackpoint>
          <Trackpoint>
            <Time>2022-08-23T12:23:12.000Z</Time>
            <Position>
              <LatitudeDegrees>42.7627726458013057708740234375</LatitudeDegrees>
              <LongitudeDegrees>-0.24423667229712009429931640625</LongitudeDegrees>
            </Position>
            <AltitudeMeters>1915.4000244140625</AltitudeMeters>
            <DistanceMeters>NAN</DistanceMeters>
          </Trackpoint>
          <Trackpoint>
            <Time>2022-08-23T12:23:26.000Z</Time>
            <Position>
              <LatitudeDegrees>42.76276200078427791595458984375</LatitudeDegrees>
              <LongitudeDegrees>-0.24405109696090221405029296875</LongitudeDegrees>
            </Position>
            <AltitudeMeters>1910.199951171875</AltitudeMeters>
            <DistanceMeters>NAN</DistanceMeters>
          </Trackpoint>
          <Trackpoint>
            <Time>2022-08-23T12:23:30.000Z</Time>
            <Position>
              <LatitudeDegrees>42.762772478163242340087890625</LatitudeDegrees>
              <LongitudeDegrees>-0.24401857517659664154052734375</LongitudeDegrees>
            </Position>
            <AltitudeMeters>1910</AltitudeMeters>
            <DistanceMeters>NAN</DistanceMeters>
          </Trackpoint>
          <Trackpoint>
            <Time>2022-08-23T12:23:32.000Z</Time>
            <Position>
              <LatitudeDegrees>42.7627756632864475250244140625</LatitudeDegrees>
              <LongitudeDegrees>-0.24399510584771633148193359375</LongitudeDegrees>
            </Position>
            <AltitudeMeters>1909.5999755859375</AltitudeMeters>
            <DistanceMeters>NAN</DistanceMeters>
          </Trackpoint>
          <Trackpoint>
            <Time>2022-08-23T12:23:37.000Z</Time>
            <Position>
              <LatitudeDegrees>42.76276602409780025482177734375</LatitudeDegrees>
              <LongitudeDegrees>-0.2439504303038120269775390625</LongitudeDegrees>
            </Position>
            <AltitudeMeters>1907.800048828125</AltitudeMeters>
            <DistanceMeters>NAN</DistanceMeters>
          </Trackpoint>
          <Trackpoint>
            <Time>2022-08-23T12:23:41.000Z</Time>
            <Position>
              <LatitudeDegrees>42.76276384480297565460205078125</LatitudeDegrees>
              <LongitudeDegrees>-0.2438971213996410369873046875</LongitudeDegrees>
            </Position>
            <AltitudeMeters>1906.4000244140625</AltitudeMeters>
            <DistanceMeters>NAN</DistanceMeters>
          </Trackpoint>
          <Trackpoint>
            <Time>2022-08-23T12:23:54.000Z</Time>
            <Position>
              <LatitudeDegrees>42.76275076903402805328369140625</LatitudeDegrees>
              <LongitudeDegrees>-0.24375739507377147674560546875</LongitudeDegrees>
            </Position>
            <AltitudeMeters>1903</AltitudeMeters>
            <DistanceMeters>NAN</DistanceMeters>
          </Trackpoint>
          <Trackpoint>
            <Time>2022-08-23T12:24:00.000Z</Time>
            <Position>
              <LatitudeDegrees>42.762716822326183319091796875</LatitudeDegrees>
              <LongitudeDegrees>-0.24375823326408863067626953125</LongitudeDegrees>
            </Position>
            <AltitudeMeters>1901</AltitudeMeters>
            <DistanceMeters>NAN</DistanceMeters>
          </Trackpoint>
          <Trackpoint>
            <Time>2022-08-23T12:24:16.000Z</Time>
            <Position>
              <LatitudeDegrees>42.76258816011250019073486328125</LatitudeDegrees>
              <LongitudeDegrees>-0.243900306522846221923828125</LongitudeDegrees>
            </Position>
            <AltitudeMeters>1895.800048828125</AltitudeMeters>
            <DistanceMeters>NAN</DistanceMeters>
          </Trackpoint>
          <Trackpoint>
            <Time>2022-08-23T12:24:19.000Z</Time>
            <Position>
              <LatitudeDegrees>42.762578018009662628173828125</LatitudeDegrees>
              <LongitudeDegrees>-0.24385546334087848663330078125</LongitudeDegrees>
            </Position>
            <AltitudeMeters>1894.199951171875</AltitudeMeters>
            <DistanceMeters>NAN</DistanceMeters>
          </Trackpoint>
          <Trackpoint>
            <Time>2022-08-23T12:24:21.000Z</Time>
            <Position>
              <LatitudeDegrees>42.7625738270580768585205078125</LatitudeDegrees>
              <LongitudeDegrees>-0.24382512085139751434326171875</LongitudeDegrees>
            </Position>
            <AltitudeMeters>1893.199951171875</AltitudeMeters>
            <DistanceMeters>NAN</DistanceMeters>
          </Trackpoint>
          <Trackpoint>
            <Time>2022-08-23T12:24:40.000Z</Time>
            <Position>
              <LatitudeDegrees>42.762492187321186065673828125</LatitudeDegrees>
              <LongitudeDegrees>-0.2435940317809581756591796875</LongitudeDegrees>
            </Position>
            <AltitudeMeters>1890.5999755859375</AltitudeMeters>
            <DistanceMeters>NAN</DistanceMeters>
          </Trackpoint>
          <Trackpoint>
            <Time>2022-08-23T12:24:51.000Z</Time>
            <Position>
              <LatitudeDegrees>42.76245052926242351531982421875</LatitudeDegrees>
              <LongitudeDegrees>-0.24350023828446865081787109375</LongitudeDegrees>
            </Position>
            <AltitudeMeters>1888.199951171875</AltitudeMeters>
            <DistanceMeters>NAN</DistanceMeters>
          </Trackpoint>
          <Trackpoint>
            <Time>2022-08-23T12:24:54.000Z</Time>
            <Position>
              <LatitudeDegrees>42.7624303288757801055908203125</LatitudeDegrees>
              <LongitudeDegrees>-0.2434729970991611480712890625</LongitudeDegrees>
            </Position>
            <AltitudeMeters>1887.199951171875</AltitudeMeters>
            <DistanceMeters>NAN</DistanceMeters>
          </Trackpoint>
          <Trackpoint>
            <Time>2022-08-23T12:25:14.000Z</Time>
            <Position>
              <LatitudeDegrees>42.76228490285575389862060546875</LatitudeDegrees>
              <LongitudeDegrees>-0.2433335222303867340087890625</LongitudeDegrees>
            </Position>
            <AltitudeMeters>1879</AltitudeMeters>
            <DistanceMeters>NAN</DistanceMeters>
          </Trackpoint>
          <Trackpoint>
            <Time>2022-08-23T12:25:31.000Z</Time>
            <Position>
              <LatitudeDegrees>42.7621968090534210205078125</LatitudeDegrees>
              <LongitudeDegrees>-0.2431169338524341583251953125</LongitudeDegrees>
            </Position>
            <AltitudeMeters>1872.5999755859375</AltitudeMeters>
            <DistanceMeters>NAN</DistanceMeters>
          </Trackpoint>
          <Trackpoint>
            <Time>2022-08-23T12:25:36.000Z</Time>
            <Position>
              <LatitudeDegrees>42.762158922851085662841796875</LatitudeDegrees>
              <LongitudeDegrees>-0.2430832386016845703125</LongitudeDegrees>
            </Position>
            <AltitudeMeters>1870.5999755859375</AltitudeMeters>
            <DistanceMeters>NAN</DistanceMeters>
          </Trackpoint>
          <Trackpoint>
            <Time>2022-08-23T12:25:38.000Z</Time>
            <Position>
              <LatitudeDegrees>42.762137465178966522216796875</LatitudeDegrees>
              <LongitudeDegrees>-0.243084914982318878173828125</LongitudeDegrees>
            </Position>
            <AltitudeMeters>1869.5999755859375</AltitudeMeters>
            <DistanceMeters>NAN</DistanceMeters>
          </Trackpoint>
          <Trackpoint>
            <Time>2022-08-23T12:25:47.000Z</Time>
            <Position>
              <LatitudeDegrees>42.76206647045910358428955078125</LatitudeDegrees>
              <LongitudeDegrees>-0.24304577149450778961181640625</LongitudeDegrees>
            </Position>
            <AltitudeMeters>1866</AltitudeMeters>
            <DistanceMeters>NAN</DistanceMeters>
          </Trackpoint>
          <Trackpoint>
            <Time>2022-08-23T12:25:57.000Z</Time>
            <Position>
              <LatitudeDegrees>42.76197024621069431304931640625</LatitudeDegrees>
              <LongitudeDegrees>-0.243023224174976348876953125</LongitudeDegrees>
            </Position>
            <AltitudeMeters>1862.199951171875</AltitudeMeters>
            <DistanceMeters>NAN</DistanceMeters>
          </Trackpoint>
          <Trackpoint>
            <Time>2022-08-23T12:26:12.000Z</Time>
            <Position>
              <LatitudeDegrees>42.76178886182606220245361328125</LatitudeDegrees>
              <LongitudeDegrees>-0.24303973652422428131103515625</LongitudeDegrees>
            </Position>
            <AltitudeMeters>1857.199951171875</AltitudeMeters>
            <DistanceMeters>NAN</DistanceMeters>
          </Trackpoint>
          <Trackpoint>
            <Time>2022-08-23T12:26:18.000Z</Time>
            <Position>
              <LatitudeDegrees>42.76175483129918575286865234375</LatitudeDegrees>
              <LongitudeDegrees>-0.24296128191053867340087890625</LongitudeDegrees>
            </Position>
            <AltitudeMeters>1855.199951171875</AltitudeMeters>
            <DistanceMeters>NAN</DistanceMeters>
          </Trackpoint>
          <Trackpoint>
            <Time>2022-08-23T12:26:36.000Z</Time>
            <Position>
              <LatitudeDegrees>42.761735804378986358642578125</LatitudeDegrees>
              <LongitudeDegrees>-0.24271552450954914093017578125</LongitudeDegrees>
            </Position>
            <AltitudeMeters>1852</AltitudeMeters>
            <DistanceMeters>NAN</DistanceMeters>
          </Trackpoint>
          <Trackpoint>
            <Time>2022-08-23T12:26:57.000Z</Time>
            <Position>
              <LatitudeDegrees>42.7617795579135417938232421875</LatitudeDegrees>
              <LongitudeDegrees>-0.2424688450992107391357421875</LongitudeDegrees>
            </Position>
            <AltitudeMeters>1850.199951171875</AltitudeMeters>
            <DistanceMeters>NAN</DistanceMeters>
          </Trackpoint>
          <Trackpoint>
            <Time>2022-08-23T12:27:01.000Z</Time>
            <Position>
              <LatitudeDegrees>42.7618078887462615966796875</LatitudeDegrees>
              <LongitudeDegrees>-0.24241226725280284881591796875</LongitudeDegrees>
            </Position>
            <AltitudeMeters>1850.4000244140625</AltitudeMeters>
            <DistanceMeters>NAN</DistanceMeters>
          </Trackpoint>
          <Trackpoint>
            <Time>2022-08-23T12:27:15.000Z</Time>
            <Position>
              <LatitudeDegrees>42.76191760785877704620361328125</LatitudeDegrees>
              <LongitudeDegrees>-0.24229911155998706817626953125</LongitudeDegrees>
            </Position>
            <AltitudeMeters>1851.800048828125</AltitudeMeters>
            <DistanceMeters>NAN</DistanceMeters>
          </Trackpoint>
          <Trackpoint>
            <Time>2022-08-23T12:27:36.000Z</Time>
            <Position>
              <LatitudeDegrees>42.76199354790151119232177734375</LatitudeDegrees>
              <LongitudeDegrees>-0.242075063288211822509765625</LongitudeDegrees>
            </Position>
            <AltitudeMeters>1848.4000244140625</AltitudeMeters>
            <DistanceMeters>NAN</DistanceMeters>
          </Trackpoint>
          <Trackpoint>
            <Time>2022-08-23T12:27:42.000Z</Time>
            <Position>
              <LatitudeDegrees>42.761994637548923492431640625</LatitudeDegrees>
              <LongitudeDegrees>-0.24203407578170299530029296875</LongitudeDegrees>
            </Position>
            <AltitudeMeters>1847</AltitudeMeters>
            <DistanceMeters>NAN</DistanceMeters>
          </Trackpoint>
          <Trackpoint>
            <Time>2022-08-23T12:27:51.000Z</Time>
            <Position>
              <LatitudeDegrees>42.76204182766377925872802734375</LatitudeDegrees>
              <LongitudeDegrees>-0.2418814413249492645263671875</LongitudeDegrees>
            </Position>
            <AltitudeMeters>1843.800048828125</AltitudeMeters>
            <DistanceMeters>NAN</DistanceMeters>
          </Trackpoint>
          <Trackpoint>
            <Time>2022-08-23T12:28:06.000Z</Time>
            <Position>
              <LatitudeDegrees>42.76204652152955532073974609375</LatitudeDegrees>
              <LongitudeDegrees>-0.24163342081010341644287109375</LongitudeDegrees>
            </Position>
            <AltitudeMeters>1836</AltitudeMeters>
            <DistanceMeters>NAN</DistanceMeters>
          </Trackpoint>
          <Trackpoint>
            <Time>2022-08-23T12:28:09.000Z</Time>
            <Position>
              <LatitudeDegrees>42.76204652152955532073974609375</LatitudeDegrees>
              <LongitudeDegrees>-0.24160140193998813629150390625</LongitudeDegrees>
            </Position>
            <AltitudeMeters>1834.800048828125</AltitudeMeters>
            <DistanceMeters>NAN</DistanceMeters>
          </Trackpoint>
          <Trackpoint>
            <Time>2022-08-23T12:28:13.000Z</Time>
            <Position>
              <LatitudeDegrees>42.7620638720691204071044921875</LatitudeDegrees>
              <LongitudeDegrees>-0.2415637671947479248046875</LongitudeDegrees>
            </Position>
            <AltitudeMeters>1835</AltitudeMeters>
            <DistanceMeters>NAN</DistanceMeters>
          </Trackpoint>
          <Trackpoint>
            <Time>2022-08-23T12:28:15.000Z</Time>
            <Position>
              <LatitudeDegrees>42.7620761096477508544921875</LatitudeDegrees>
              <LongitudeDegrees>-0.24154608137905597686767578125</LongitudeDegrees>
            </Position>
            <AltitudeMeters>1835.4000244140625</AltitudeMeters>
            <DistanceMeters>NAN</DistanceMeters>
          </Trackpoint>
          <Trackpoint>
            <Time>2022-08-23T12:28:18.000Z</Time>
            <Position>
              <LatitudeDegrees>42.76208826340734958648681640625</LatitudeDegrees>
              <LongitudeDegrees>-0.2415327541530132293701171875</LongitudeDegrees>
            </Position>
            <AltitudeMeters>1835.800048828125</AltitudeMeters>
            <DistanceMeters>NAN</DistanceMeters>
          </Trackpoint>
          <Trackpoint>
            <Time>2022-08-23T12:28:22.000Z</Time>
            <Position>
              <LatitudeDegrees>42.7621101401746273040771484375</LatitudeDegrees>
              <LongitudeDegrees>-0.241496376693248748779296875</LongitudeDegrees>
            </Position>
            <AltitudeMeters>1836.199951171875</AltitudeMeters>
            <DistanceMeters>NAN</DistanceMeters>
          </Trackpoint>
          <Trackpoint>
            <Time>2022-08-23T12:28:25.000Z</Time>
            <Position>
              <LatitudeDegrees>42.76211022399365901947021484375</LatitudeDegrees>
              <LongitudeDegrees>-0.2414787746965885162353515625</LongitudeDegrees>
            </Position>
            <AltitudeMeters>1835.5999755859375</AltitudeMeters>
            <DistanceMeters>NAN</DistanceMeters>
          </Trackpoint>
          <Trackpoint>
            <Time>2022-08-23T12:28:28.000Z</Time>
            <Position>
              <LatitudeDegrees>42.76209798641502857208251953125</LatitudeDegrees>
              <LongitudeDegrees>-0.241460502147674560546875</LongitudeDegrees>
            </Position>
            <AltitudeMeters>1834.199951171875</AltitudeMeters>
            <DistanceMeters>NAN</DistanceMeters>
          </Trackpoint>
          <Trackpoint>
            <Time>2022-08-23T12:28:30.000Z</Time>
            <Position>
              <LatitudeDegrees>42.76208440773189067840576171875</LatitudeDegrees>
              <LongitudeDegrees>-0.241450779139995574951171875</LongitudeDegrees>
            </Position>
            <AltitudeMeters>1833</AltitudeMeters>
            <DistanceMeters>NAN</DistanceMeters>
          </Trackpoint>
          <Trackpoint>
            <Time>2022-08-23T12:28:33.000Z</Time>
            <Position>
              <LatitudeDegrees>42.7620588429272174835205078125</LatitudeDegrees>
              <LongitudeDegrees>-0.241446755826473236083984375</LongitudeDegrees>
            </Position>
            <AltitudeMeters>1831</AltitudeMeters>
            <DistanceMeters>NAN</DistanceMeters>
          </Trackpoint>
          <Trackpoint>
            <Time>2022-08-23T12:28:35.000Z</Time>
            <Position>
              <LatitudeDegrees>42.76205322705209255218505859375</LatitudeDegrees>
              <LongitudeDegrees>-0.24144667200744152069091796875</LongitudeDegrees>
            </Position>
            <AltitudeMeters>1830.5999755859375</AltitudeMeters>
            <DistanceMeters>NAN</DistanceMeters>
          </Trackpoint>
          <Trackpoint>
            <Time>2022-08-23T12:28:38.000Z</Time>
            <Position>
              <LatitudeDegrees>42.762022130191326141357421875</LatitudeDegrees>
              <LongitudeDegrees>-0.2414506115019321441650390625</LongitudeDegrees>
            </Position>
            <AltitudeMeters>1828.5999755859375</AltitudeMeters>
            <DistanceMeters>NAN</DistanceMeters>
          </Trackpoint>
          <Trackpoint>
            <Time>2022-08-23T12:28:40.000Z</Time>
            <Position>
              <LatitudeDegrees>42.762002684175968170166015625</LatitudeDegrees>
              <LongitudeDegrees>-0.2414618432521820068359375</LongitudeDegrees>
            </Position>
            <AltitudeMeters>1828.199951171875</AltitudeMeters>
            <DistanceMeters>NAN</DistanceMeters>
          </Trackpoint>
          <Trackpoint>
            <Time>2022-08-23T12:28:43.000Z</Time>
            <Position>
              <LatitudeDegrees>42.76198013685643672943115234375</LatitudeDegrees>
              <LongitudeDegrees>-0.2414618432521820068359375</LongitudeDegrees>
            </Position>
            <AltitudeMeters>1827.4000244140625</AltitudeMeters>
            <DistanceMeters>NAN</DistanceMeters>
          </Trackpoint>
          <Trackpoint>
            <Time>2022-08-23T12:28:46.000Z</Time>
            <Position>
              <LatitudeDegrees>42.7619793824851512908935546875</LatitudeDegrees>
              <LongitudeDegrees>-0.24144030176103115081787109375</LongitudeDegrees>
            </Position>
            <AltitudeMeters>1826.800048828125</AltitudeMeters>
            <DistanceMeters>NAN</DistanceMeters>
          </Trackpoint>
          <Trackpoint>
            <Time>2022-08-23T12:29:13.000Z</Time>
            <Position>
              <LatitudeDegrees>42.76199094951152801513671875</LatitudeDegrees>
              <LongitudeDegrees>-0.2412675507366657257080078125</LongitudeDegrees>
            </Position>
            <AltitudeMeters>1821</AltitudeMeters>
            <DistanceMeters>NAN</DistanceMeters>
          </Trackpoint>
          <Trackpoint>
            <Time>2022-08-23T12:29:27.000Z</Time>
            <Position>
              <LatitudeDegrees>42.7620363794267177581787109375</LatitudeDegrees>
              <LongitudeDegrees>-0.24117023684084415435791015625</LongitudeDegrees>
            </Position>
            <AltitudeMeters>1819.4000244140625</AltitudeMeters>
            <DistanceMeters>NAN</DistanceMeters>
          </Trackpoint>
          <Trackpoint>
            <Time>2022-08-23T12:29:54.000Z</Time>
            <Position>
              <LatitudeDegrees>42.76208817958831787109375</LatitudeDegrees>
              <LongitudeDegrees>-0.24104903452098369598388671875</LongitudeDegrees>
            </Position>
            <AltitudeMeters>1818.199951171875</AltitudeMeters>
            <DistanceMeters>NAN</DistanceMeters>
          </Trackpoint>
          <Trackpoint>
            <Time>2022-08-23T12:30:04.000Z</Time>
            <Position>
              <LatitudeDegrees>42.76220150291919708251953125</LatitudeDegrees>
              <LongitudeDegrees>-0.24098415859043598175048828125</LongitudeDegrees>
            </Position>
            <AltitudeMeters>1823.199951171875</AltitudeMeters>
            <DistanceMeters>NAN</DistanceMeters>
          </Trackpoint>
          <Trackpoint>
            <Time>2022-08-23T12:30:06.000Z</Time>
            <Position>
              <LatitudeDegrees>42.762219607830047607421875</LatitudeDegrees>
              <LongitudeDegrees>-0.24095557630062103271484375</LongitudeDegrees>
            </Position>
            <AltitudeMeters>1823.199951171875</AltitudeMeters>
            <DistanceMeters>NAN</DistanceMeters>
          </Trackpoint>
          <Trackpoint>
            <Time>2022-08-23T12:30:09.000Z</Time>
            <Position>
              <LatitudeDegrees>42.76222773827612400054931640625</LatitudeDegrees>
              <LongitudeDegrees>-0.240923054516315460205078125</LongitudeDegrees>
            </Position>
            <AltitudeMeters>1822.4000244140625</AltitudeMeters>
            <DistanceMeters>NAN</DistanceMeters>
          </Trackpoint>
          <Trackpoint>
            <Time>2022-08-23T12:30:12.000Z</Time>
            <Position>
              <LatitudeDegrees>42.7622194401919841766357421875</LatitudeDegrees>
              <LongitudeDegrees>-0.24090101011097431182861328125</LongitudeDegrees>
            </Position>
            <AltitudeMeters>1820.800048828125</AltitudeMeters>
            <DistanceMeters>NAN</DistanceMeters>
          </Trackpoint>
          <Trackpoint>
            <Time>2022-08-23T12:30:20.000Z</Time>
            <Position>
              <LatitudeDegrees>42.76214492507278919219970703125</LatitudeDegrees>
              <LongitudeDegrees>-0.2409171871840953826904296875</LongitudeDegrees>
            </Position>
            <AltitudeMeters>1816.4000244140625</AltitudeMeters>
            <DistanceMeters>NAN</DistanceMeters>
          </Trackpoint>
          <Trackpoint>
            <Time>2022-08-23T12:30:34.000Z</Time>
            <Position>
              <LatitudeDegrees>42.76195784099400043487548828125</LatitudeDegrees>
              <LongitudeDegrees>-0.24091023020446300506591796875</LongitudeDegrees>
            </Position>
            <AltitudeMeters>1805</AltitudeMeters>
            <DistanceMeters>NAN</DistanceMeters>
          </Trackpoint>
          <Trackpoint>
            <Time>2022-08-23T12:30:38.000Z</Time>
            <Position>
              <LatitudeDegrees>42.76192079298198223114013671875</LatitudeDegrees>
              <LongitudeDegrees>-0.2409044466912746429443359375</LongitudeDegrees>
            </Position>
            <AltitudeMeters>1803.4000244140625</AltitudeMeters>
            <DistanceMeters>NAN</DistanceMeters>
          </Trackpoint>
          <Trackpoint>
            <Time>2022-08-23T12:30:51.000Z</Time>
            <Position>
              <LatitudeDegrees>42.76183580048382282257080078125</LatitudeDegrees>
              <LongitudeDegrees>-0.24091877974569797515869140625</LongitudeDegrees>
            </Position>
            <AltitudeMeters>1800.800048828125</AltitudeMeters>
            <DistanceMeters>NAN</DistanceMeters>
          </Trackpoint>
          <Trackpoint>
            <Time>2022-08-23T12:30:53.000Z</Time>
            <Position>
              <LatitudeDegrees>42.76184141635894775390625</LatitudeDegrees>
              <LongitudeDegrees>-0.24088910780847072601318359375</LongitudeDegrees>
            </Position>
            <AltitudeMeters>1800</AltitudeMeters>
            <DistanceMeters>NAN</DistanceMeters>
          </Trackpoint>
          <Trackpoint>
            <Time>2022-08-23T12:30:55.000Z</Time>
            <Position>
              <LatitudeDegrees>42.76183940470218658447265625</LatitudeDegrees>
              <LongitudeDegrees>-0.2408665604889392852783203125</LongitudeDegrees>
            </Position>
            <AltitudeMeters>1799.199951171875</AltitudeMeters>
            <DistanceMeters>NAN</DistanceMeters>
          </Trackpoint>
          <Trackpoint>
            <Time>2022-08-23T12:30:59.000Z</Time>
            <Position>
              <LatitudeDegrees>42.7618722617626190185546875</LatitudeDegrees>
              <LongitudeDegrees>-0.240842588245868682861328125</LongitudeDegrees>
            </Position>
            <AltitudeMeters>1799.4000244140625</AltitudeMeters>
            <DistanceMeters>NAN</DistanceMeters>
          </Trackpoint>
          <Trackpoint>
            <Time>2022-08-23T12:31:02.000Z</Time>
            <Position>
              <LatitudeDegrees>42.76190101169049739837646484375</LatitudeDegrees>
              <LongitudeDegrees>-0.24082012474536895751953125</LongitudeDegrees>
            </Position>
            <AltitudeMeters>1799.5999755859375</AltitudeMeters>
            <DistanceMeters>NAN</DistanceMeters>
          </Trackpoint>
          <Trackpoint>
            <Time>2022-08-23T12:31:19.000Z</Time>
            <Position>
              <LatitudeDegrees>42.76200234889984130859375</LatitudeDegrees>
              <LongitudeDegrees>-0.240720547735691070556640625</LongitudeDegrees>
            </Position>
            <AltitudeMeters>1799.800048828125</AltitudeMeters>
            <DistanceMeters>NAN</DistanceMeters>
          </Trackpoint>
          <Trackpoint>
            <Time>2022-08-23T12:31:22.000Z</Time>
            <Position>
              <LatitudeDegrees>42.76197778992354869842529296875</LatitudeDegrees>
              <LongitudeDegrees>-0.2407341264188289642333984375</LongitudeDegrees>
            </Position>
            <AltitudeMeters>1799.4000244140625</AltitudeMeters>
            <DistanceMeters>NAN</DistanceMeters>
          </Trackpoint>
          <Trackpoint>
            <Time>2022-08-23T12:31:25.000Z</Time>
            <Position>
              <LatitudeDegrees>42.761943005025386810302734375</LatitudeDegrees>
              <LongitudeDegrees>-0.2407354675233364105224609375</LongitudeDegrees>
            </Position>
            <AltitudeMeters>1798.4000244140625</AltitudeMeters>
            <DistanceMeters>NAN</DistanceMeters>
          </Trackpoint>
          <Trackpoint>
            <Time>2022-08-23T12:31:33.000Z</Time>
            <Position>
              <LatitudeDegrees>42.761857844889163970947265625</LatitudeDegrees>
              <LongitudeDegrees>-0.24071325547993183135986328125</LongitudeDegrees>
            </Position>
            <AltitudeMeters>1795.5999755859375</AltitudeMeters>
            <DistanceMeters>NAN</DistanceMeters>
          </Trackpoint>
          <Trackpoint>
            <Time>2022-08-23T12:31:45.000Z</Time>
            <Position>
              <LatitudeDegrees>42.76174376718699932098388671875</LatitudeDegrees>
              <LongitudeDegrees>-0.24068425409495830535888671875</LongitudeDegrees>
            </Position>
            <AltitudeMeters>1791</AltitudeMeters>
            <DistanceMeters>NAN</DistanceMeters>
          </Trackpoint>
          <Trackpoint>
            <Time>2022-08-23T12:31:55.000Z</Time>
            <Position>
              <LatitudeDegrees>42.7616845071315765380859375</LatitudeDegrees>
              <LongitudeDegrees>-0.2406107448041439056396484375</LongitudeDegrees>
            </Position>
            <AltitudeMeters>1788.800048828125</AltitudeMeters>
            <DistanceMeters>NAN</DistanceMeters>
          </Trackpoint>
          <Trackpoint>
            <Time>2022-08-23T12:31:59.000Z</Time>
            <Position>
              <LatitudeDegrees>42.7617111615836620330810546875</LatitudeDegrees>
              <LongitudeDegrees>-0.24056187830865383148193359375</LongitudeDegrees>
            </Position>
            <AltitudeMeters>1787.4000244140625</AltitudeMeters>
            <DistanceMeters>NAN</DistanceMeters>
          </Trackpoint>
          <Trackpoint>
            <Time>2022-08-23T12:32:05.000Z</Time>
            <Position>
              <LatitudeDegrees>42.76174192316830158233642578125</LatitudeDegrees>
              <LongitudeDegrees>-0.24051812477409839630126953125</LongitudeDegrees>
            </Position>
            <AltitudeMeters>1786</AltitudeMeters>
            <DistanceMeters>NAN</DistanceMeters>
          </Trackpoint>
          <Trackpoint>
            <Time>2022-08-23T12:32:16.000Z</Time>
            <Position>
              <LatitudeDegrees>42.7618305198848247528076171875</LatitudeDegrees>
              <LongitudeDegrees>-0.2404682524502277374267578125</LongitudeDegrees>
            </Position>
            <AltitudeMeters>1788.199951171875</AltitudeMeters>
            <DistanceMeters>NAN</DistanceMeters>
          </Trackpoint>
          <Trackpoint>
            <Time>2022-08-23T12:32:18.000Z</Time>
            <Position>
              <LatitudeDegrees>42.76185994036495685577392578125</LatitudeDegrees>
              <LongitudeDegrees>-0.24045945145189762115478515625</LongitudeDegrees>
            </Position>
            <AltitudeMeters>1789</AltitudeMeters>
            <DistanceMeters>NAN</DistanceMeters>
          </Trackpoint>
          <Trackpoint>
            <Time>2022-08-23T12:32:23.000Z</Time>
            <Position>
              <LatitudeDegrees>42.76190117932856082916259765625</LatitudeDegrees>
              <LongitudeDegrees>-0.24044654332101345062255859375</LongitudeDegrees>
            </Position>
            <AltitudeMeters>1790.4000244140625</AltitudeMeters>
            <DistanceMeters>NAN</DistanceMeters>
          </Trackpoint>
          <Trackpoint>
            <Time>2022-08-23T12:32:26.000Z</Time>
            <Position>
              <LatitudeDegrees>42.76192925870418548583984375</LatitudeDegrees>
              <LongitudeDegrees>-0.2404286898672580718994140625</LongitudeDegrees>
            </Position>
            <AltitudeMeters>1791</AltitudeMeters>
            <DistanceMeters>NAN</DistanceMeters>
          </Trackpoint>
          <Trackpoint>
            <Time>2022-08-23T12:32:33.000Z</Time>
            <Position>
              <LatitudeDegrees>42.76197678409516811370849609375</LatitudeDegrees>
              <LongitudeDegrees>-0.24040664546191692352294921875</LongitudeDegrees>
            </Position>
            <AltitudeMeters>1792.199951171875</AltitudeMeters>
            <DistanceMeters>NAN</DistanceMeters>
          </Trackpoint>
          <Trackpoint>
            <Time>2022-08-23T12:32:38.000Z</Time>
            <Position>
              <LatitudeDegrees>42.76193797588348388671875</LatitudeDegrees>
              <LongitudeDegrees>-0.24038535542786121368408203125</LongitudeDegrees>
            </Position>
            <AltitudeMeters>1790</AltitudeMeters>
            <DistanceMeters>NAN</DistanceMeters>
          </Trackpoint>
          <Trackpoint>
            <Time>2022-08-23T12:32:54.000Z</Time>
            <Position>
              <LatitudeDegrees>42.7617557533085346221923828125</LatitudeDegrees>
              <LongitudeDegrees>-0.24033623747527599334716796875</LongitudeDegrees>
            </Position>
            <AltitudeMeters>1781.4000244140625</AltitudeMeters>
            <DistanceMeters>NAN</DistanceMeters>
          </Trackpoint>
          <Trackpoint>
            <Time>2022-08-23T12:33:12.000Z</Time>
            <Position>
              <LatitudeDegrees>42.76158392429351806640625</LatitudeDegrees>
              <LongitudeDegrees>-0.24025577120482921600341796875</LongitudeDegrees>
            </Position>
            <AltitudeMeters>1773.5999755859375</AltitudeMeters>
            <DistanceMeters>NAN</DistanceMeters>
          </Trackpoint>
          <Trackpoint>
            <Time>2022-08-23T12:33:14.000Z</Time>
            <Position>
              <LatitudeDegrees>42.76158065535128116607666015625</LatitudeDegrees>
              <LongitudeDegrees>-0.24023112840950489044189453125</LongitudeDegrees>
            </Position>
            <AltitudeMeters>1772</AltitudeMeters>
            <DistanceMeters>NAN</DistanceMeters>
          </Trackpoint>
          <Trackpoint>
            <Time>2022-08-23T12:33:18.000Z</Time>
            <Position>
              <LatitudeDegrees>42.7616065554320812225341796875</LatitudeDegrees>
              <LongitudeDegrees>-0.2401960082352161407470703125</LongitudeDegrees>
            </Position>
            <AltitudeMeters>1771.4000244140625</AltitudeMeters>
            <DistanceMeters>NAN</DistanceMeters>
          </Trackpoint>
          <Trackpoint>
            <Time>2022-08-23T12:33:20.000Z</Time>
            <Position>
              <LatitudeDegrees>42.7616253308951854705810546875</LatitudeDegrees>
              <LongitudeDegrees>-0.2401819266378879547119140625</LongitudeDegrees>
            </Position>
            <AltitudeMeters>1771.5999755859375</AltitudeMeters>
            <DistanceMeters>NAN</DistanceMeters>
          </Trackpoint>
          <Trackpoint>
            <Time>2022-08-23T12:33:27.000Z</Time>
            <Position>
              <LatitudeDegrees>42.761662714183330535888671875</LatitudeDegrees>
              <LongitudeDegrees>-0.24014395661652088165283203125</LongitudeDegrees>
            </Position>
            <AltitudeMeters>1771.800048828125</AltitudeMeters>
            <DistanceMeters>NAN</DistanceMeters>
          </Trackpoint>
          <Trackpoint>
            <Time>2022-08-23T12:33:29.000Z</Time>
            <Position>
              <LatitudeDegrees>42.7616618759930133819580078125</LatitudeDegrees>
              <LongitudeDegrees>-0.2401369996368885040283203125</LongitudeDegrees>
            </Position>
            <AltitudeMeters>1771.4000244140625</AltitudeMeters>
            <DistanceMeters>NAN</DistanceMeters>
          </Trackpoint>
          <Trackpoint>
            <Time>2022-08-23T12:33:51.000Z</Time>
            <Position>
              <LatitudeDegrees>42.7615633048117160797119140625</LatitudeDegrees>
              <LongitudeDegrees>-0.23996852338314056396484375</LongitudeDegrees>
            </Position>
            <AltitudeMeters>1762</AltitudeMeters>
            <DistanceMeters>NAN</DistanceMeters>
          </Trackpoint>
          <Trackpoint>
            <Time>2022-08-23T12:33:55.000Z</Time>
            <Position>
              <LatitudeDegrees>42.761548049747943878173828125</LatitudeDegrees>
              <LongitudeDegrees>-0.239953435957431793212890625</LongitudeDegrees>
            </Position>
            <AltitudeMeters>1761</AltitudeMeters>
            <DistanceMeters>NAN</DistanceMeters>
          </Trackpoint>
          <Trackpoint>
            <Time>2022-08-23T12:33:59.000Z</Time>
            <Position>
              <LatitudeDegrees>42.76157076470553874969482421875</LatitudeDegrees>
              <LongitudeDegrees>-0.23992217145860195159912109375</LongitudeDegrees>
            </Position>
            <AltitudeMeters>1760.800048828125</AltitudeMeters>
            <DistanceMeters>NAN</DistanceMeters>
          </Trackpoint>
          <Trackpoint>
            <Time>2022-08-23T12:34:02.000Z</Time>
            <Position>
              <LatitudeDegrees>42.76158618740737438201904296875</LatitudeDegrees>
              <LongitudeDegrees>-0.23989484645426273345947265625</LongitudeDegrees>
            </Position>
            <AltitudeMeters>1760.199951171875</AltitudeMeters>
            <DistanceMeters>NAN</DistanceMeters>
          </Trackpoint>
          <Trackpoint>
            <Time>2022-08-23T12:34:05.000Z</Time>
            <Position>
              <LatitudeDegrees>42.761602364480495452880859375</LatitudeDegrees>
              <LongitudeDegrees>-0.23987942375242710113525390625</LongitudeDegrees>
            </Position>
            <AltitudeMeters>1760.199951171875</AltitudeMeters>
            <DistanceMeters>NAN</DistanceMeters>
          </Trackpoint>
          <Trackpoint>
            <Time>2022-08-23T12:34:07.000Z</Time>
            <Position>
              <LatitudeDegrees>42.7616075612604618072509765625</LatitudeDegrees>
              <LongitudeDegrees>-0.2398654259741306304931640625</LongitudeDegrees>
            </Position>
            <AltitudeMeters>1759.800048828125</AltitudeMeters>
            <DistanceMeters>NAN</DistanceMeters>
          </Trackpoint>
          <Trackpoint>
            <Time>2022-08-23T12:34:33.000Z</Time>
            <Position>
              <LatitudeDegrees>42.761743851006031036376953125</LatitudeDegrees>
              <LongitudeDegrees>-0.239732153713703155517578125</LongitudeDegrees>
            </Position>
            <AltitudeMeters>1759.4000244140625</AltitudeMeters>
            <DistanceMeters>NAN</DistanceMeters>
          </Trackpoint>
          <Trackpoint>
            <Time>2022-08-23T12:35:04.000Z</Time>
            <Position>
              <LatitudeDegrees>42.7617520652711391448974609375</LatitudeDegrees>
              <LongitudeDegrees>-0.23960667662322521209716796875</LongitudeDegrees>
            </Position>
            <AltitudeMeters>1754.199951171875</AltitudeMeters>
            <DistanceMeters>NAN</DistanceMeters>
          </Trackpoint>
          <Trackpoint>
            <Time>2022-08-23T12:35:23.000Z</Time>
            <Position>
              <LatitudeDegrees>42.76165726594626903533935546875</LatitudeDegrees>
              <LongitudeDegrees>-0.2394376136362552642822265625</LongitudeDegrees>
            </Position>
            <AltitudeMeters>1742.199951171875</AltitudeMeters>
            <DistanceMeters>NAN</DistanceMeters>
          </Trackpoint>
          <Trackpoint>
            <Time>2022-08-23T12:35:33.000Z</Time>
            <Position>
              <LatitudeDegrees>42.7617111615836620330810546875</LatitudeDegrees>
              <LongitudeDegrees>-0.23937516845762729644775390625</LongitudeDegrees>
            </Position>
            <AltitudeMeters>1740.5999755859375</AltitudeMeters>
            <DistanceMeters>NAN</DistanceMeters>
          </Trackpoint>
          <Trackpoint>
            <Time>2022-08-23T12:35:40.000Z</Time>
            <Position>
              <LatitudeDegrees>42.76167905889451503753662109375</LatitudeDegrees>
              <LongitudeDegrees>-0.23932001553475856781005859375</LongitudeDegrees>
            </Position>
            <AltitudeMeters>1737.5999755859375</AltitudeMeters>
            <DistanceMeters>NAN</DistanceMeters>
          </Trackpoint>
          <Trackpoint>
            <Time>2022-08-23T12:35:42.000Z</Time>
            <Position>
              <LatitudeDegrees>42.76169196702539920806884765625</LatitudeDegrees>
              <LongitudeDegrees>-0.23930610157549381256103515625</LongitudeDegrees>
            </Position>
            <AltitudeMeters>1737.4000244140625</AltitudeMeters>
            <DistanceMeters>NAN</DistanceMeters>
          </Trackpoint>
          <Trackpoint>
            <Time>2022-08-23T12:35:54.000Z</Time>
            <Position>
              <LatitudeDegrees>42.76179850101470947265625</LatitudeDegrees>
              <LongitudeDegrees>-0.239297635853290557861328125</LongitudeDegrees>
            </Position>
            <AltitudeMeters>1739.4000244140625</AltitudeMeters>
            <DistanceMeters>NAN</DistanceMeters>
          </Trackpoint>
          <Trackpoint>
            <Time>2022-08-23T12:35:56.000Z</Time>
            <Position>
              <LatitudeDegrees>42.76181995868682861328125</LatitudeDegrees>
              <LongitudeDegrees>-0.2393159084022045135498046875</LongitudeDegrees>
            </Position>
            <AltitudeMeters>1741</AltitudeMeters>
            <DistanceMeters>NAN</DistanceMeters>
          </Trackpoint>
          <Trackpoint>
            <Time>2022-08-23T12:36:07.000Z</Time>
            <Position>
              <LatitudeDegrees>42.7619760297238826751708984375</LatitudeDegrees>
              <LongitudeDegrees>-0.239286236464977264404296875</LongitudeDegrees>
            </Position>
            <AltitudeMeters>1745.4000244140625</AltitudeMeters>
            <DistanceMeters>NAN</DistanceMeters>
          </Trackpoint>
          <Trackpoint>
            <Time>2022-08-23T12:36:20.000Z</Time>
            <Position>
              <LatitudeDegrees>42.76207954622805118560791015625</LatitudeDegrees>
              <LongitudeDegrees>-0.23923703469336032867431640625</LongitudeDegrees>
            </Position>
            <AltitudeMeters>1745.199951171875</AltitudeMeters>
            <DistanceMeters>NAN</DistanceMeters>
          </Trackpoint>
          <Trackpoint>
            <Time>2022-08-23T12:36:26.000Z</Time>
            <Position>
              <LatitudeDegrees>42.76212195865809917449951171875</LatitudeDegrees>
              <LongitudeDegrees>-0.239208452403545379638671875</LongitudeDegrees>
            </Position>
            <AltitudeMeters>1744</AltitudeMeters>
            <DistanceMeters>NAN</DistanceMeters>
          </Trackpoint>
          <Trackpoint>
            <Time>2022-08-23T12:36:30.000Z</Time>
            <Position>
              <LatitudeDegrees>42.76216537691652774810791015625</LatitudeDegrees>
              <LongitudeDegrees>-0.23917534388601779937744140625</LongitudeDegrees>
            </Position>
            <AltitudeMeters>1742.800048828125</AltitudeMeters>
            <DistanceMeters>NAN</DistanceMeters>
          </Trackpoint>
          <Trackpoint>
            <Time>2022-08-23T12:36:38.000Z</Time>
            <Position>
              <LatitudeDegrees>42.76220510713756084442138671875</LatitudeDegrees>
              <LongitudeDegrees>-0.23909672163426876068115234375</LongitudeDegrees>
            </Position>
            <AltitudeMeters>1738.800048828125</AltitudeMeters>
            <DistanceMeters>NAN</DistanceMeters>
          </Trackpoint>
          <Trackpoint>
            <Time>2022-08-23T12:36:47.000Z</Time>
            <Position>
              <LatitudeDegrees>42.76225908659398555755615234375</LatitudeDegrees>
              <LongitudeDegrees>-0.2389980666339397430419921875</LongitudeDegrees>
            </Position>
            <AltitudeMeters>1733</AltitudeMeters>
            <DistanceMeters>NAN</DistanceMeters>
          </Trackpoint>
          <Trackpoint>
            <Time>2022-08-23T12:37:03.000Z</Time>
            <Position>
              <LatitudeDegrees>42.76235170662403106689453125</LatitudeDegrees>
              <LongitudeDegrees>-0.23883487097918987274169921875</LongitudeDegrees>
            </Position>
            <AltitudeMeters>1724.5999755859375</AltitudeMeters>
            <DistanceMeters>NAN</DistanceMeters>
          </Trackpoint>
          <Trackpoint>
            <Time>2022-08-23T12:37:12.000Z</Time>
            <Position>
              <LatitudeDegrees>42.76241616345942020416259765625</LatitudeDegrees>
              <LongitudeDegrees>-0.238798744976520538330078125</LongitudeDegrees>
            </Position>
            <AltitudeMeters>1724.199951171875</AltitudeMeters>
            <DistanceMeters>NAN</DistanceMeters>
          </Trackpoint>
          <Trackpoint>
            <Time>2022-08-23T12:37:16.000Z</Time>
            <Position>
              <LatitudeDegrees>42.76240107603371143341064453125</LatitudeDegrees>
              <LongitudeDegrees>-0.23875415325164794921875</LongitudeDegrees>
            </Position>
            <AltitudeMeters>1719.4000244140625</AltitudeMeters>
            <DistanceMeters>NAN</DistanceMeters>
          </Trackpoint>
          <Trackpoint>
            <Time>2022-08-23T12:37:22.000Z</Time>
            <Position>
              <LatitudeDegrees>42.76234634220600128173828125</LatitudeDegrees>
              <LongitudeDegrees>-0.23871366865932941436767578125</LongitudeDegrees>
            </Position>
            <AltitudeMeters>1713.800048828125</AltitudeMeters>
            <DistanceMeters>NAN</DistanceMeters>
          </Trackpoint>
          <Trackpoint>
            <Time>2022-08-23T12:37:41.000Z</Time>
            <Position>
              <LatitudeDegrees>42.7621828950941562652587890625</LatitudeDegrees>
              <LongitudeDegrees>-0.2386751957237720489501953125</LongitudeDegrees>
            </Position>
            <AltitudeMeters>1708.4000244140625</AltitudeMeters>
            <DistanceMeters>NAN</DistanceMeters>
          </Trackpoint>
          <Trackpoint>
            <Time>2022-08-23T12:37:45.000Z</Time>
            <Position>
              <LatitudeDegrees>42.76216202415525913238525390625</LatitudeDegrees>
              <LongitudeDegrees>-0.2386527322232723236083984375</LongitudeDegrees>
            </Position>
            <AltitudeMeters>1706.800048828125</AltitudeMeters>
            <DistanceMeters>NAN</DistanceMeters>
          </Trackpoint>
          <Trackpoint>
            <Time>2022-08-23T12:37:49.000Z</Time>
            <Position>
              <LatitudeDegrees>42.7621198631823062896728515625</LatitudeDegrees>
              <LongitudeDegrees>-0.238641165196895599365234375</LongitudeDegrees>
            </Position>
            <AltitudeMeters>1707</AltitudeMeters>
            <DistanceMeters>NAN</DistanceMeters>
          </Trackpoint>
          <Trackpoint>
            <Time>2022-08-23T12:38:08.000Z</Time>
            <Position>
              <LatitudeDegrees>42.76195080019533634185791015625</LatitudeDegrees>
              <LongitudeDegrees>-0.2387285046279430389404296875</LongitudeDegrees>
            </Position>
            <AltitudeMeters>1713.4000244140625</AltitudeMeters>
            <DistanceMeters>NAN</DistanceMeters>
          </Trackpoint>
          <Trackpoint>
            <Time>2022-08-23T12:38:10.000Z</Time>
            <Position>
              <LatitudeDegrees>42.76194694451987743377685546875</LatitudeDegrees>
              <LongitudeDegrees>-0.23872389458119869232177734375</LongitudeDegrees>
            </Position>
            <AltitudeMeters>1713</AltitudeMeters>
            <DistanceMeters>NAN</DistanceMeters>
          </Trackpoint>
          <Trackpoint>
            <Time>2022-08-23T12:38:16.000Z</Time>
            <Position>
              <LatitudeDegrees>42.76196823455393314361572265625</LatitudeDegrees>
              <LongitudeDegrees>-0.23871081881225109100341796875</LongitudeDegrees>
            </Position>
            <AltitudeMeters>1712.5999755859375</AltitudeMeters>
            <DistanceMeters>NAN</DistanceMeters>
          </Trackpoint>
          <Trackpoint>
            <Time>2022-08-23T12:38:18.000Z</Time>
            <Position>
              <LatitudeDegrees>42.7619817294180393218994140625</LatitudeDegrees>
              <LongitudeDegrees>-0.23870327509939670562744140625</LongitudeDegrees>
            </Position>
            <AltitudeMeters>1712.4000244140625</AltitudeMeters>
            <DistanceMeters>NAN</DistanceMeters>
          </Trackpoint>
          <Trackpoint>
            <Time>2022-08-23T12:38:20.000Z</Time>
            <Position>
              <LatitudeDegrees>42.76199002750217914581298828125</LatitudeDegrees>
              <LongitudeDegrees>-0.23869874887168407440185546875</LongitudeDegrees>
            </Position>
            <AltitudeMeters>1712.4000244140625</AltitudeMeters>
            <DistanceMeters>NAN</DistanceMeters>
          </Trackpoint>
          <Trackpoint>
            <Time>2022-08-23T12:38:56.000Z</Time>
            <Position>
              <LatitudeDegrees>42.76198022067546844482421875</LatitudeDegrees>
              <LongitudeDegrees>-0.2385538257658481597900390625</LongitudeDegrees>
            </Position>
            <AltitudeMeters>1703.4000244140625</AltitudeMeters>
            <DistanceMeters>NAN</DistanceMeters>
          </Trackpoint>
          <Trackpoint>
            <Time>2022-08-23T12:39:16.000Z</Time>
            <Position>
              <LatitudeDegrees>42.76209144853055477142333984375</LatitudeDegrees>
              <LongitudeDegrees>-0.23836011998355388641357421875</LongitudeDegrees>
            </Position>
            <AltitudeMeters>1691.199951171875</AltitudeMeters>
            <DistanceMeters>NAN</DistanceMeters>
          </Trackpoint>
          <Trackpoint>
            <Time>2022-08-23T12:39:32.000Z</Time>
            <Position>
              <LatitudeDegrees>42.762116007506847381591796875</LatitudeDegrees>
              <LongitudeDegrees>-0.238317959010601043701171875</LongitudeDegrees>
            </Position>
            <AltitudeMeters>1688.4000244140625</AltitudeMeters>
            <DistanceMeters>NAN</DistanceMeters>
          </Trackpoint>
          <Trackpoint>
            <Time>2022-08-23T12:39:39.000Z</Time>
            <Position>
              <LatitudeDegrees>42.7620826475322246551513671875</LatitudeDegrees>
              <LongitudeDegrees>-0.23829842917621135711669921875</LongitudeDegrees>
            </Position>
            <AltitudeMeters>1687.199951171875</AltitudeMeters>
            <DistanceMeters>NAN</DistanceMeters>
          </Trackpoint>
          <Trackpoint>
            <Time>2022-08-23T12:39:54.000Z</Time>
            <Position>
              <LatitudeDegrees>42.76195281185209751129150390625</LatitudeDegrees>
              <LongitudeDegrees>-0.23827194236218929290771484375</LongitudeDegrees>
            </Position>
            <AltitudeMeters>1685.4000244140625</AltitudeMeters>
            <DistanceMeters>NAN</DistanceMeters>
          </Trackpoint>
          <Trackpoint>
            <Time>2022-08-23T12:40:09.000Z</Time>
            <Position>
              <LatitudeDegrees>42.761791460216045379638671875</LatitudeDegrees>
              <LongitudeDegrees>-0.23823288269340991973876953125</LongitudeDegrees>
            </Position>
            <AltitudeMeters>1683.199951171875</AltitudeMeters>
            <DistanceMeters>NAN</DistanceMeters>
          </Trackpoint>
          <Trackpoint>
            <Time>2022-08-23T12:40:12.000Z</Time>
            <Position>
              <LatitudeDegrees>42.76176371611654758453369140625</LatitudeDegrees>
              <LongitudeDegrees>-0.23822776973247528076171875</LongitudeDegrees>
            </Position>
            <AltitudeMeters>1682.800048828125</AltitudeMeters>
            <DistanceMeters>NAN</DistanceMeters>
          </Trackpoint>
          <Trackpoint>
            <Time>2022-08-23T12:40:17.000Z</Time>
            <Position>
              <LatitudeDegrees>42.76171141304075717926025390625</LatitudeDegrees>
              <LongitudeDegrees>-0.23822064511477947235107421875</LongitudeDegrees>
            </Position>
            <AltitudeMeters>1680.800048828125</AltitudeMeters>
            <DistanceMeters>NAN</DistanceMeters>
          </Trackpoint>
          <Trackpoint>
            <Time>2022-08-23T12:40:37.000Z</Time>
            <Position>
              <LatitudeDegrees>42.76152851991355419158935546875</LatitudeDegrees>
              <LongitudeDegrees>-0.23828501813113689422607421875</LongitudeDegrees>
            </Position>
            <AltitudeMeters>1675.199951171875</AltitudeMeters>
            <DistanceMeters>NAN</DistanceMeters>
          </Trackpoint>
          <Trackpoint>
            <Time>2022-08-23T12:40:47.000Z</Time>
            <Position>
              <LatitudeDegrees>42.76142156682908535003662109375</LatitudeDegrees>
              <LongitudeDegrees>-0.23832256905734539031982421875</LongitudeDegrees>
            </Position>
            <AltitudeMeters>1671.800048828125</AltitudeMeters>
            <DistanceMeters>NAN</DistanceMeters>
          </Trackpoint>
          <Trackpoint>
            <Time>2022-08-23T12:40:49.000Z</Time>
            <Position>
              <LatitudeDegrees>42.761405892670154571533203125</LatitudeDegrees>
              <LongitudeDegrees>-0.2383338846266269683837890625</LongitudeDegrees>
            </Position>
            <AltitudeMeters>1671.4000244140625</AltitudeMeters>
            <DistanceMeters>NAN</DistanceMeters>
          </Trackpoint>
          <Trackpoint>
            <Time>2022-08-23T12:40:55.000Z</Time>
            <Position>
              <LatitudeDegrees>42.76137127541005611419677734375</LatitudeDegrees>
              <LongitudeDegrees>-0.23834310472011566162109375</LongitudeDegrees>
            </Position>
            <AltitudeMeters>1670</AltitudeMeters>
            <DistanceMeters>NAN</DistanceMeters>
          </Trackpoint>
          <Trackpoint>
            <Time>2022-08-23T12:40:57.000Z</Time>
            <Position>
              <LatitudeDegrees>42.761367671191692352294921875</LatitudeDegrees>
              <LongitudeDegrees>-0.23833078332245349884033203125</LongitudeDegrees>
            </Position>
            <AltitudeMeters>1669.5999755859375</AltitudeMeters>
            <DistanceMeters>NAN</DistanceMeters>
          </Trackpoint>
          <Trackpoint>
            <Time>2022-08-23T12:41:00.000Z</Time>
            <Position>
              <LatitudeDegrees>42.76135392487049102783203125</LatitudeDegrees>
              <LongitudeDegrees>-0.2383124269545078277587890625</LongitudeDegrees>
            </Position>
            <AltitudeMeters>1668.4000244140625</AltitudeMeters>
            <DistanceMeters>NAN</DistanceMeters>
          </Trackpoint>
          <Trackpoint>
            <Time>2022-08-23T12:41:02.000Z</Time>
            <Position>
              <LatitudeDegrees>42.76134713552892208099365234375</LatitudeDegrees>
              <LongitudeDegrees>-0.23829658515751361846923828125</LongitudeDegrees>
            </Position>
            <AltitudeMeters>1667.5999755859375</AltitudeMeters>
            <DistanceMeters>NAN</DistanceMeters>
          </Trackpoint>
          <Trackpoint>
            <Time>2022-08-23T12:41:05.000Z</Time>
            <Position>
              <LatitudeDegrees>42.76134059764444828033447265625</LatitudeDegrees>
              <LongitudeDegrees>-0.23828065954148769378662109375</LongitudeDegrees>
            </Position>
            <AltitudeMeters>1666.800048828125</AltitudeMeters>
            <DistanceMeters>NAN</DistanceMeters>
          </Trackpoint>
          <Trackpoint>
            <Time>2022-08-23T12:41:08.000Z</Time>
            <Position>
              <LatitudeDegrees>42.76132383383810520172119140625</LatitudeDegrees>
              <LongitudeDegrees>-0.23826004005968570709228515625</LongitudeDegrees>
            </Position>
            <AltitudeMeters>1665.5999755859375</AltitudeMeters>
            <DistanceMeters>NAN</DistanceMeters>
          </Trackpoint>
          <Trackpoint>
            <Time>2022-08-23T12:41:11.000Z</Time>
            <Position>
              <LatitudeDegrees>42.76129759848117828369140625</LatitudeDegrees>
              <LongitudeDegrees>-0.23826934397220611572265625</LongitudeDegrees>
            </Position>
            <AltitudeMeters>1664.800048828125</AltitudeMeters>
            <DistanceMeters>NAN</DistanceMeters>
          </Trackpoint>
          <Trackpoint>
            <Time>2022-08-23T12:41:19.000Z</Time>
            <Position>
              <LatitudeDegrees>42.7612551860511302947998046875</LatitudeDegrees>
              <LongitudeDegrees>-0.23834603838622570037841796875</LongitudeDegrees>
            </Position>
            <AltitudeMeters>1665.5999755859375</AltitudeMeters>
            <DistanceMeters>NAN</DistanceMeters>
          </Trackpoint>
          <Trackpoint>
            <Time>2022-08-23T12:41:21.000Z</Time>
            <Position>
              <LatitudeDegrees>42.76124554686248302459716796875</LatitudeDegrees>
              <LongitudeDegrees>-0.23835408501327037811279296875</LongitudeDegrees>
            </Position>
            <AltitudeMeters>1665.4000244140625</AltitudeMeters>
            <DistanceMeters>NAN</DistanceMeters>
          </Trackpoint>
          <Trackpoint>
            <Time>2022-08-23T12:41:49.000Z</Time>
            <Position>
              <LatitudeDegrees>42.76111026294529438018798828125</LatitudeDegrees>
              <LongitudeDegrees>-0.23833329789340496063232421875</LongitudeDegrees>
            </Position>
            <AltitudeMeters>1659.800048828125</AltitudeMeters>
            <DistanceMeters>NAN</DistanceMeters>
          </Trackpoint>
          <Trackpoint>
            <Time>2022-08-23T12:41:58.000Z</Time>
            <Position>
              <LatitudeDegrees>42.76107992045581340789794921875</LatitudeDegrees>
              <LongitudeDegrees>-0.2382832579314708709716796875</LongitudeDegrees>
            </Position>
            <AltitudeMeters>1658.199951171875</AltitudeMeters>
            <DistanceMeters>NAN</DistanceMeters>
          </Trackpoint>
          <Trackpoint>
            <Time>2022-08-23T12:42:04.000Z</Time>
            <Position>
              <LatitudeDegrees>42.761053852736949920654296875</LatitudeDegrees>
              <LongitudeDegrees>-0.23823338560760021209716796875</LongitudeDegrees>
            </Position>
            <AltitudeMeters>1656.800048828125</AltitudeMeters>
            <DistanceMeters>NAN</DistanceMeters>
          </Trackpoint>
          <Trackpoint>
            <Time>2022-08-23T12:42:07.000Z</Time>
            <Position>
              <LatitudeDegrees>42.76103029958903789520263671875</LatitudeDegrees>
              <LongitudeDegrees>-0.23825014941394329071044921875</LongitudeDegrees>
            </Position>
            <AltitudeMeters>1656.4000244140625</AltitudeMeters>
            <DistanceMeters>NAN</DistanceMeters>
          </Trackpoint>
          <Trackpoint>
            <Time>2022-08-23T12:42:08.000Z</Time>
            <Position>
              <LatitudeDegrees>42.76102476753294467926025390625</LatitudeDegrees>
              <LongitudeDegrees>-0.2382524125277996063232421875</LongitudeDegrees>
            </Position>
            <AltitudeMeters>1656.4000244140625</AltitudeMeters>
            <DistanceMeters>NAN</DistanceMeters>
          </Trackpoint>
          <Trackpoint>
            <Time>2022-08-23T12:42:09.000Z</Time>
            <Position>
              <LatitudeDegrees>42.761017642915248870849609375</LatitudeDegrees>
              <LongitudeDegrees>-0.23825920186936855316162109375</LongitudeDegrees>
            </Position>
            <AltitudeMeters>1656.4000244140625</AltitudeMeters>
            <DistanceMeters>NAN</DistanceMeters>
          </Trackpoint>
          <Trackpoint>
            <Time>2022-08-23T12:42:18.000Z</Time>
            <Position>
              <LatitudeDegrees>42.7609651722013950347900390625</LatitudeDegrees>
              <LongitudeDegrees>-0.23823673836886882781982421875</LongitudeDegrees>
            </Position>
            <AltitudeMeters>1654.800048828125</AltitudeMeters>
            <DistanceMeters>NAN</DistanceMeters>
          </Trackpoint>
          <Trackpoint>
            <Time>2022-08-23T12:42:38.000Z</Time>
            <Position>
              <LatitudeDegrees>42.7609406970441341400146484375</LatitudeDegrees>
              <LongitudeDegrees>-0.237993411719799041748046875</LongitudeDegrees>
            </Position>
            <AltitudeMeters>1651.5999755859375</AltitudeMeters>
            <DistanceMeters>NAN</DistanceMeters>
          </Trackpoint>
          <Trackpoint>
            <Time>2022-08-23T12:42:45.000Z</Time>
            <Position>
              <LatitudeDegrees>42.7609227597713470458984375</LatitudeDegrees>
              <LongitudeDegrees>-0.237916968762874603271484375</LongitudeDegrees>
            </Position>
            <AltitudeMeters>1650.5999755859375</AltitudeMeters>
            <DistanceMeters>NAN</DistanceMeters>
          </Trackpoint>
          <Trackpoint>
            <Time>2022-08-23T12:43:02.000Z</Time>
            <Position>
              <LatitudeDegrees>42.76090172119438648223876953125</LatitudeDegrees>
              <LongitudeDegrees>-0.237665511667728424072265625</LongitudeDegrees>
            </Position>
            <AltitudeMeters>1647.5999755859375</AltitudeMeters>
            <DistanceMeters>NAN</DistanceMeters>
          </Trackpoint>
          <Trackpoint>
            <Time>2022-08-23T12:43:11.000Z</Time>
            <Position>
              <LatitudeDegrees>42.760815136134624481201171875</LatitudeDegrees>
              <LongitudeDegrees>-0.23755042813718318939208984375</LongitudeDegrees>
            </Position>
            <AltitudeMeters>1645.5999755859375</AltitudeMeters>
            <DistanceMeters>NAN</DistanceMeters>
          </Trackpoint>
          <Trackpoint>
            <Time>2022-08-23T12:43:29.000Z</Time>
            <Position>
              <LatitudeDegrees>42.76068664155900478363037109375</LatitudeDegrees>
              <LongitudeDegrees>-0.237379856407642364501953125</LongitudeDegrees>
            </Position>
            <AltitudeMeters>1644</AltitudeMeters>
            <DistanceMeters>NAN</DistanceMeters>
          </Trackpoint>
          <Trackpoint>
            <Time>2022-08-23T12:43:41.000Z</Time>
            <Position>
              <LatitudeDegrees>42.76054213754832744598388671875</LatitudeDegrees>
              <LongitudeDegrees>-0.2372677065432071685791015625</LongitudeDegrees>
            </Position>
            <AltitudeMeters>1642.5999755859375</AltitudeMeters>
            <DistanceMeters>NAN</DistanceMeters>
          </Trackpoint>
          <Trackpoint>
            <Time>2022-08-23T12:43:46.000Z</Time>
            <Position>
              <LatitudeDegrees>42.76049117557704448699951171875</LatitudeDegrees>
              <LongitudeDegrees>-0.2372335083782672882080078125</LongitudeDegrees>
            </Position>
            <AltitudeMeters>1642.4000244140625</AltitudeMeters>
            <DistanceMeters>NAN</DistanceMeters>
          </Trackpoint>
          <Trackpoint>
            <Time>2022-08-23T12:43:58.000Z</Time>
            <Position>
              <LatitudeDegrees>42.76040752418339252471923828125</LatitudeDegrees>
              <LongitudeDegrees>-0.2370779402554035186767578125</LongitudeDegrees>
            </Position>
            <AltitudeMeters>1641.199951171875</AltitudeMeters>
            <DistanceMeters>NAN</DistanceMeters>
          </Trackpoint>
          <Trackpoint>
            <Time>2022-08-23T12:44:03.000Z</Time>
            <Position>
              <LatitudeDegrees>42.7604146488010883331298828125</LatitudeDegrees>
              <LongitudeDegrees>-0.2369696460664272308349609375</LongitudeDegrees>
            </Position>
            <AltitudeMeters>1640.4000244140625</AltitudeMeters>
            <DistanceMeters>NAN</DistanceMeters>
          </Trackpoint>
          <Trackpoint>
            <Time>2022-08-23T12:44:04.000Z</Time>
            <Position>
              <LatitudeDegrees>42.76041506789624691009521484375</LatitudeDegrees>
              <LongitudeDegrees>-0.23695045150816440582275390625</LongitudeDegrees>
            </Position>
            <AltitudeMeters>1640.4000244140625</AltitudeMeters>
            <DistanceMeters>NAN</DistanceMeters>
          </Trackpoint>
          <Trackpoint>
            <Time>2022-08-23T12:44:05.000Z</Time>
            <Position>
              <LatitudeDegrees>42.760413475334644317626953125</LatitudeDegrees>
              <LongitudeDegrees>-0.23693092167377471923828125</LongitudeDegrees>
            </Position>
            <AltitudeMeters>1640.199951171875</AltitudeMeters>
            <DistanceMeters>NAN</DistanceMeters>
          </Trackpoint>
          <Trackpoint>
            <Time>2022-08-23T12:44:09.000Z</Time>
            <Position>
              <LatitudeDegrees>42.76042588055133819580078125</LatitudeDegrees>
              <LongitudeDegrees>-0.2368620224297046661376953125</LongitudeDegrees>
            </Position>
            <AltitudeMeters>1639.5999755859375</AltitudeMeters>
            <DistanceMeters>NAN</DistanceMeters>
          </Trackpoint>
          <Trackpoint>
            <Time>2022-08-23T12:44:10.000Z</Time>
            <Position>
              <LatitudeDegrees>42.760431580245494842529296875</LatitudeDegrees>
              <LongitudeDegrees>-0.236831344664096832275390625</LongitudeDegrees>
            </Position>
            <AltitudeMeters>1639.4000244140625</AltitudeMeters>
            <DistanceMeters>NAN</DistanceMeters>
          </Trackpoint>
          <Trackpoint>
            <Time>2022-08-23T12:44:11.000Z</Time>
            <Position>
              <LatitudeDegrees>42.760431580245494842529296875</LatitudeDegrees>
              <LongitudeDegrees>-0.236831344664096832275390625</LongitudeDegrees>
            </Position>
            <AltitudeMeters>1639.4000244140625</AltitudeMeters>
            <DistanceMeters>NAN</DistanceMeters>
          </Trackpoint>
          <Trackpoint>
            <Time>2022-08-23T12:44:25.000Z</Time>
            <Position>
              <LatitudeDegrees>42.7604734897613525390625</LatitudeDegrees>
              <LongitudeDegrees>-0.23663311265408992767333984375</LongitudeDegrees>
            </Position>
            <AltitudeMeters>1637.4000244140625</AltitudeMeters>
            <DistanceMeters>NAN</DistanceMeters>
          </Trackpoint>
          <Trackpoint>
            <Time>2022-08-23T12:44:27.000Z</Time>
            <Position>
              <LatitudeDegrees>42.76046871207654476165771484375</LatitudeDegrees>
              <LongitudeDegrees>-0.23660478182137012481689453125</LongitudeDegrees>
            </Position>
            <AltitudeMeters>1637.199951171875</AltitudeMeters>
            <DistanceMeters>NAN</DistanceMeters>
          </Trackpoint>
          <Trackpoint>
            <Time>2022-08-23T12:44:41.000Z</Time>
            <Position>
              <LatitudeDegrees>42.76036662049591541290283203125</LatitudeDegrees>
              <LongitudeDegrees>-0.236416272819042205810546875</LongitudeDegrees>
            </Position>
            <AltitudeMeters>1637</AltitudeMeters>
            <DistanceMeters>NAN</DistanceMeters>
          </Trackpoint>
          <Trackpoint>
            <Time>2022-08-23T12:44:58.000Z</Time>
            <Position>
              <LatitudeDegrees>42.7603729069232940673828125</LatitudeDegrees>
              <LongitudeDegrees>-0.23618929088115692138671875</LongitudeDegrees>
            </Position>
            <AltitudeMeters>1637.5999755859375</AltitudeMeters>
            <DistanceMeters>NAN</DistanceMeters>
          </Trackpoint>
          <Trackpoint>
            <Time>2022-08-23T12:45:02.000Z</Time>
            <Position>
              <LatitudeDegrees>42.760369218885898590087890625</LatitudeDegrees>
              <LongitudeDegrees>-0.236131958663463592529296875</LongitudeDegrees>
            </Position>
            <AltitudeMeters>1637.800048828125</AltitudeMeters>
            <DistanceMeters>NAN</DistanceMeters>
          </Trackpoint>
          <Trackpoint>
            <Time>2022-08-23T12:45:07.000Z</Time>
            <Position>
              <LatitudeDegrees>42.76038053445518016815185546875</LatitudeDegrees>
              <LongitudeDegrees>-0.2360603772103786468505859375</LongitudeDegrees>
            </Position>
            <AltitudeMeters>1638</AltitudeMeters>
            <DistanceMeters>NAN</DistanceMeters>
          </Trackpoint>
          <Trackpoint>
            <Time>2022-08-23T12:45:09.000Z</Time>
            <Position>
              <LatitudeDegrees>42.7603945322334766387939453125</LatitudeDegrees>
              <LongitudeDegrees>-0.2360312081873416900634765625</LongitudeDegrees>
            </Position>
            <AltitudeMeters>1638.199951171875</AltitudeMeters>
            <DistanceMeters>NAN</DistanceMeters>
          </Trackpoint>
          <Trackpoint>
            <Time>2022-08-23T12:45:18.000Z</Time>
            <Position>
              <LatitudeDegrees>42.7604211866855621337890625</LatitudeDegrees>
              <LongitudeDegrees>-0.23590321652591228485107421875</LongitudeDegrees>
            </Position>
            <AltitudeMeters>1638.199951171875</AltitudeMeters>
            <DistanceMeters>NAN</DistanceMeters>
          </Trackpoint>
          <Trackpoint>
            <Time>2022-08-23T12:45:29.000Z</Time>
            <Position>
              <LatitudeDegrees>42.76047625578939914703369140625</LatitudeDegrees>
              <LongitudeDegrees>-0.23572317324578762054443359375</LongitudeDegrees>
            </Position>
            <AltitudeMeters>1638.4000244140625</AltitudeMeters>
            <DistanceMeters>NAN</DistanceMeters>
          </Trackpoint>
          <Trackpoint>
            <Time>2022-08-23T12:45:45.000Z</Time>
            <Position>
              <LatitudeDegrees>42.76054280810058116912841796875</LatitudeDegrees>
              <LongitudeDegrees>-0.2354914136230945587158203125</LongitudeDegrees>
            </Position>
            <AltitudeMeters>1638.4000244140625</AltitudeMeters>
            <DistanceMeters>NAN</DistanceMeters>
          </Trackpoint>
          <Trackpoint>
            <Time>2022-08-23T12:45:51.000Z</Time>
            <Position>
              <LatitudeDegrees>42.76055864989757537841796875</LatitudeDegrees>
              <LongitudeDegrees>-0.2354109473526477813720703125</LongitudeDegrees>
            </Position>
            <AltitudeMeters>1638.5999755859375</AltitudeMeters>
            <DistanceMeters>NAN</DistanceMeters>
          </Trackpoint>
          <Trackpoint>
            <Time>2022-08-23T12:45:56.000Z</Time>
            <Position>
              <LatitudeDegrees>42.76057633571326732635498046875</LatitudeDegrees>
              <LongitudeDegrees>-0.23535244166851043701171875</LongitudeDegrees>
            </Position>
            <AltitudeMeters>1638.5999755859375</AltitudeMeters>
            <DistanceMeters>NAN</DistanceMeters>
          </Trackpoint>
          <Trackpoint>
            <Time>2022-08-23T12:46:00.000Z</Time>
            <Position>
              <LatitudeDegrees>42.76057717390358448028564453125</LatitudeDegrees>
              <LongitudeDegrees>-0.2353060059249401092529296875</LongitudeDegrees>
            </Position>
            <AltitudeMeters>1638.5999755859375</AltitudeMeters>
            <DistanceMeters>NAN</DistanceMeters>
          </Trackpoint>
          <Trackpoint>
            <Time>2022-08-23T12:46:02.000Z</Time>
            <Position>
              <LatitudeDegrees>42.76058002375066280364990234375</LatitudeDegrees>
              <LongitudeDegrees>-0.2352754957973957061767578125</LongitudeDegrees>
            </Position>
            <AltitudeMeters>1638.5999755859375</AltitudeMeters>
            <DistanceMeters>NAN</DistanceMeters>
          </Trackpoint>
          <Trackpoint>
            <Time>2022-08-23T12:46:04.000Z</Time>
            <Position>
              <LatitudeDegrees>42.7605812810361385345458984375</LatitudeDegrees>
              <LongitudeDegrees>-0.2352337539196014404296875</LongitudeDegrees>
            </Position>
            <AltitudeMeters>1638.5999755859375</AltitudeMeters>
            <DistanceMeters>NAN</DistanceMeters>
          </Trackpoint>
          <Trackpoint>
            <Time>2022-08-23T12:46:08.000Z</Time>
            <Position>
              <LatitudeDegrees>42.76057499460875988006591796875</LatitudeDegrees>
              <LongitudeDegrees>-0.2351631782948970794677734375</LongitudeDegrees>
            </Position>
            <AltitudeMeters>1638.5999755859375</AltitudeMeters>
            <DistanceMeters>NAN</DistanceMeters>
          </Trackpoint>
          <Trackpoint>
            <Time>2022-08-23T12:46:12.000Z</Time>
            <Position>
              <LatitudeDegrees>42.760566361248493194580078125</LatitudeDegrees>
              <LongitudeDegrees>-0.2351068519055843353271484375</LongitudeDegrees>
            </Position>
            <AltitudeMeters>1638.5999755859375</AltitudeMeters>
            <DistanceMeters>NAN</DistanceMeters>
          </Trackpoint>
          <Trackpoint>
            <Time>2022-08-23T12:46:22.000Z</Time>
            <Position>
              <LatitudeDegrees>42.76061832904815673828125</LatitudeDegrees>
              <LongitudeDegrees>-0.23496964015066623687744140625</LongitudeDegrees>
            </Position>
            <AltitudeMeters>1639</AltitudeMeters>
            <DistanceMeters>NAN</DistanceMeters>
          </Trackpoint>
          <Trackpoint>
            <Time>2022-08-23T12:46:34.000Z</Time>
            <Position>
              <LatitudeDegrees>42.76074632070958614349365234375</LatitudeDegrees>
              <LongitudeDegrees>-0.234778784215450286865234375</LongitudeDegrees>
            </Position>
            <AltitudeMeters>1640.199951171875</AltitudeMeters>
            <DistanceMeters>NAN</DistanceMeters>
          </Trackpoint>
          <Trackpoint>
            <Time>2022-08-23T12:46:38.000Z</Time>
            <Position>
              <LatitudeDegrees>42.76077280752360820770263671875</LatitudeDegrees>
              <LongitudeDegrees>-0.23473125882446765899658203125</LongitudeDegrees>
            </Position>
            <AltitudeMeters>1640.5999755859375</AltitudeMeters>
            <DistanceMeters>NAN</DistanceMeters>
          </Trackpoint>
          <Trackpoint>
            <Time>2022-08-23T12:46:41.000Z</Time>
            <Position>
              <LatitudeDegrees>42.76079342700541019439697265625</LatitudeDegrees>
              <LongitudeDegrees>-0.234696976840496063232421875</LongitudeDegrees>
            </Position>
            <AltitudeMeters>1640.800048828125</AltitudeMeters>
            <DistanceMeters>NAN</DistanceMeters>
          </Trackpoint>
          <Trackpoint>
            <Time>2022-08-23T12:46:55.000Z</Time>
            <Position>
              <LatitudeDegrees>42.76089568622410297393798828125</LatitudeDegrees>
              <LongitudeDegrees>-0.23448131047189235687255859375</LongitudeDegrees>
            </Position>
            <AltitudeMeters>1642.4000244140625</AltitudeMeters>
            <DistanceMeters>NAN</DistanceMeters>
          </Trackpoint>
          <Trackpoint>
            <Time>2022-08-23T12:47:02.000Z</Time>
            <Position>
              <LatitudeDegrees>42.7609390206634998321533203125</LatitudeDegrees>
              <LongitudeDegrees>-0.23437075316905975341796875</LongitudeDegrees>
            </Position>
            <AltitudeMeters>1643</AltitudeMeters>
            <DistanceMeters>NAN</DistanceMeters>
          </Trackpoint>
          <Trackpoint>
            <Time>2022-08-23T12:47:09.000Z</Time>
            <Position>
              <LatitudeDegrees>42.7610013820230960845947265625</LatitudeDegrees>
              <LongitudeDegrees>-0.23426790721714496612548828125</LongitudeDegrees>
            </Position>
            <AltitudeMeters>1642.5999755859375</AltitudeMeters>
            <DistanceMeters>NAN</DistanceMeters>
          </Trackpoint>
          <Trackpoint>
            <Time>2022-08-23T12:47:11.000Z</Time>
            <Position>
              <LatitudeDegrees>42.76100615970790386199951171875</LatitudeDegrees>
              <LongitudeDegrees>-0.2342386543750762939453125</LongitudeDegrees>
            </Position>
            <AltitudeMeters>1642.5999755859375</AltitudeMeters>
            <DistanceMeters>NAN</DistanceMeters>
          </Trackpoint>
          <Trackpoint>
            <Time>2022-08-23T12:47:13.000Z</Time>
            <Position>
              <LatitudeDegrees>42.76100129820406436920166015625</LatitudeDegrees>
              <LongitudeDegrees>-0.23420738987624645233154296875</LongitudeDegrees>
            </Position>
            <AltitudeMeters>1642.5999755859375</AltitudeMeters>
            <DistanceMeters>NAN</DistanceMeters>
          </Trackpoint>
          <Trackpoint>
            <Time>2022-08-23T12:47:16.000Z</Time>
            <Position>
              <LatitudeDegrees>42.7609809301793575286865234375</LatitudeDegrees>
              <LongitudeDegrees>-0.23416665382683277130126953125</LongitudeDegrees>
            </Position>
            <AltitudeMeters>1642.800048828125</AltitudeMeters>
            <DistanceMeters>NAN</DistanceMeters>
          </Trackpoint>
          <Trackpoint>
            <Time>2022-08-23T12:47:30.000Z</Time>
            <Position>
              <LatitudeDegrees>42.7609058283269405364990234375</LatitudeDegrees>
              <LongitudeDegrees>-0.23396548815071582794189453125</LongitudeDegrees>
            </Position>
            <AltitudeMeters>1643</AltitudeMeters>
            <DistanceMeters>NAN</DistanceMeters>
          </Trackpoint>
          <Trackpoint>
            <Time>2022-08-23T12:47:33.000Z</Time>
            <Position>
              <LatitudeDegrees>42.76090356521308422088623046875</LatitudeDegrees>
              <LongitudeDegrees>-0.233921147882938385009765625</LongitudeDegrees>
            </Position>
            <AltitudeMeters>1643</AltitudeMeters>
            <DistanceMeters>NAN</DistanceMeters>
          </Trackpoint>
          <Trackpoint>
            <Time>2022-08-23T12:47:39.000Z</Time>
            <Position>
              <LatitudeDegrees>42.76090289466083049774169921875</LatitudeDegrees>
              <LongitudeDegrees>-0.2338294498622417449951171875</LongitudeDegrees>
            </Position>
            <AltitudeMeters>1643</AltitudeMeters>
            <DistanceMeters>NAN</DistanceMeters>
          </Trackpoint>
        </Track>
      </Lap>
    </Activity>
  </Activities>
</TrainingCenterDatabase>
